<?xml version="1.0" encoding="UTF-8" standalone="no" ?>
<gpx xmlns="http://www.topografix.com/GPX/1/1" xmlns:xsi="http://www.w3.org/2001/XMLSchema-instance" xsi:schemaLocation="http://www.topografix.com/GPX/1/1 http://www.topografix.com/GPX/1/1/gpx.xsd" version="1.1" creator="VisuGPX - https://www.visugpx.com">
  <metadata>
    <name>Boves fouencamps paraclet bois magneux ruines</name>
  </metadata>
  <trk>
    <name><![CDATA[Boves fouencamps paraclet bois magneux ruines_1]]></name>
    <trkseg>
      <trkpt lat="49.84895" lon="2.37681">
        <ele>30.8</ele>
        <time>2021-07-11T12:58:15Z</time>
      </trkpt>
      <trkpt lat="49.84895" lon="2.37681">
        <ele>30.8</ele>
        <time>2021-07-11T12:58:17Z</time>
      </trkpt>
      <trkpt lat="49.84895" lon="2.37681">
        <ele>30.8</ele>
        <time>2021-07-11T12:58:18Z</time>
      </trkpt>
      <trkpt lat="49.84895" lon="2.37681">
        <ele>30.8</ele>
        <time>2021-07-11T12:58:19Z</time>
      </trkpt>
      <trkpt lat="49.84895" lon="2.37681">
        <ele>30.8</ele>
        <time>2021-07-11T12:58:21Z</time>
      </trkpt>
      <trkpt lat="49.84895" lon="2.37681">
        <ele>30.8</ele>
        <time>2021-07-11T12:58:23Z</time>
      </trkpt>
      <trkpt lat="49.84895" lon="2.37681">
        <ele>30.8</ele>
        <time>2021-07-11T12:58:24Z</time>
      </trkpt>
      <trkpt lat="49.84895" lon="2.37681">
        <ele>30.8</ele>
        <time>2021-07-11T12:58:26Z</time>
      </trkpt>
      <trkpt lat="49.84895" lon="2.37681">
        <ele>30.8</ele>
        <time>2021-07-11T12:58:27Z</time>
      </trkpt>
      <trkpt lat="49.84895" lon="2.37681">
        <ele>30.8</ele>
        <time>2021-07-11T12:58:29Z</time>
      </trkpt>
      <trkpt lat="49.84895" lon="2.37681">
        <ele>30.8</ele>
        <time>2021-07-11T12:58:30Z</time>
      </trkpt>
      <trkpt lat="49.84895" lon="2.37681">
        <ele>30.8</ele>
        <time>2021-07-11T12:58:31Z</time>
      </trkpt>
      <trkpt lat="49.84895" lon="2.37681">
        <ele>30.8</ele>
        <time>2021-07-11T12:58:32Z</time>
      </trkpt>
      <trkpt lat="49.84895" lon="2.37681">
        <ele>30.8</ele>
        <time>2021-07-11T12:58:33Z</time>
      </trkpt>
      <trkpt lat="49.84895" lon="2.37681">
        <ele>30.8</ele>
        <time>2021-07-11T12:58:35Z</time>
      </trkpt>
      <trkpt lat="49.84895" lon="2.37681">
        <ele>30.8</ele>
        <time>2021-07-11T12:58:36Z</time>
      </trkpt>
      <trkpt lat="49.84895" lon="2.37681">
        <ele>30.8</ele>
        <time>2021-07-11T12:58:38Z</time>
      </trkpt>
      <trkpt lat="49.84895" lon="2.37681">
        <ele>30.8</ele>
        <time>2021-07-11T12:58:40Z</time>
      </trkpt>
      <trkpt lat="49.84895" lon="2.37681">
        <ele>30.8</ele>
        <time>2021-07-11T12:58:42Z</time>
      </trkpt>
      <trkpt lat="49.84895" lon="2.37681">
        <ele>30.8</ele>
        <time>2021-07-11T12:58:43Z</time>
      </trkpt>
      <trkpt lat="49.84895" lon="2.37681">
        <ele>30.8</ele>
        <time>2021-07-11T12:58:44Z</time>
      </trkpt>
      <trkpt lat="49.84895" lon="2.37681">
        <ele>30.8</ele>
        <time>2021-07-11T12:58:46Z</time>
      </trkpt>
      <trkpt lat="49.84895" lon="2.37681">
        <ele>30.8</ele>
        <time>2021-07-11T12:58:47Z</time>
      </trkpt>
      <trkpt lat="49.84895" lon="2.37681">
        <ele>30.8</ele>
        <time>2021-07-11T12:58:49Z</time>
      </trkpt>
      <trkpt lat="49.84895" lon="2.37681">
        <ele>30.8</ele>
        <time>2021-07-11T12:58:51Z</time>
      </trkpt>
      <trkpt lat="49.84895" lon="2.37681">
        <ele>30.8</ele>
        <time>2021-07-11T12:58:52Z</time>
      </trkpt>
      <trkpt lat="49.84895" lon="2.37681">
        <ele>30.8</ele>
        <time>2021-07-11T12:58:54Z</time>
      </trkpt>
      <trkpt lat="49.84895" lon="2.37681">
        <ele>30.8</ele>
        <time>2021-07-11T12:58:55Z</time>
      </trkpt>
      <trkpt lat="49.84895" lon="2.37681">
        <ele>30.8</ele>
        <time>2021-07-11T12:58:56Z</time>
      </trkpt>
      <trkpt lat="49.84895" lon="2.37681">
        <ele>30.8</ele>
        <time>2021-07-11T12:58:58Z</time>
      </trkpt>
      <trkpt lat="49.84895" lon="2.37681">
        <ele>30.8</ele>
        <time>2021-07-11T12:58:59Z</time>
      </trkpt>
      <trkpt lat="49.84895" lon="2.37681">
        <ele>30.8</ele>
        <time>2021-07-11T12:59:01Z</time>
      </trkpt>
      <trkpt lat="49.84895" lon="2.37681">
        <ele>30.8</ele>
        <time>2021-07-11T12:59:03Z</time>
      </trkpt>
      <trkpt lat="49.84895" lon="2.37681">
        <ele>30.8</ele>
        <time>2021-07-11T12:59:05Z</time>
      </trkpt>
      <trkpt lat="49.84895" lon="2.37681">
        <ele>30.8</ele>
        <time>2021-07-11T12:59:07Z</time>
      </trkpt>
      <trkpt lat="49.84895" lon="2.37681">
        <ele>30.8</ele>
        <time>2021-07-11T12:59:08Z</time>
      </trkpt>
      <trkpt lat="49.84895" lon="2.37681">
        <ele>30.8</ele>
        <time>2021-07-11T12:59:10Z</time>
      </trkpt>
      <trkpt lat="49.84895" lon="2.37681">
        <ele>30.8</ele>
        <time>2021-07-11T12:59:11Z</time>
      </trkpt>
      <trkpt lat="49.84895" lon="2.37681">
        <ele>30.8</ele>
        <time>2021-07-11T12:59:13Z</time>
      </trkpt>
      <trkpt lat="49.84895" lon="2.37681">
        <ele>30.8</ele>
        <time>2021-07-11T12:59:14Z</time>
      </trkpt>
      <trkpt lat="49.84895" lon="2.37681">
        <ele>30.8</ele>
        <time>2021-07-11T12:59:15Z</time>
      </trkpt>
      <trkpt lat="49.84895" lon="2.37681">
        <ele>30.8</ele>
        <time>2021-07-11T12:59:17Z</time>
      </trkpt>
      <trkpt lat="49.84895" lon="2.37681">
        <ele>30.8</ele>
        <time>2021-07-11T12:59:19Z</time>
      </trkpt>
      <trkpt lat="49.84895" lon="2.37681">
        <ele>30.8</ele>
        <time>2021-07-11T12:59:20Z</time>
      </trkpt>
      <trkpt lat="49.84895" lon="2.37681">
        <ele>30.8</ele>
        <time>2021-07-11T12:59:22Z</time>
      </trkpt>
      <trkpt lat="49.84895" lon="2.37681">
        <ele>30.8</ele>
        <time>2021-07-11T12:59:23Z</time>
      </trkpt>
      <trkpt lat="49.84895" lon="2.37681">
        <ele>30.8</ele>
        <time>2021-07-11T12:59:25Z</time>
      </trkpt>
      <trkpt lat="49.84895" lon="2.37681">
        <ele>30.8</ele>
        <time>2021-07-11T12:59:27Z</time>
      </trkpt>
      <trkpt lat="49.84895" lon="2.37681">
        <ele>30.8</ele>
        <time>2021-07-11T12:59:29Z</time>
      </trkpt>
      <trkpt lat="49.84895" lon="2.37681">
        <ele>30.8</ele>
        <time>2021-07-11T12:59:31Z</time>
      </trkpt>
      <trkpt lat="49.84895" lon="2.37681">
        <ele>30.8</ele>
        <time>2021-07-11T12:59:32Z</time>
      </trkpt>
      <trkpt lat="49.84895" lon="2.37681">
        <ele>30.8</ele>
        <time>2021-07-11T12:59:33Z</time>
      </trkpt>
      <trkpt lat="49.84895" lon="2.37681">
        <ele>30.8</ele>
        <time>2021-07-11T12:59:35Z</time>
      </trkpt>
      <trkpt lat="49.84895" lon="2.37681">
        <ele>30.8</ele>
        <time>2021-07-11T12:59:36Z</time>
      </trkpt>
      <trkpt lat="49.84895" lon="2.37681">
        <ele>30.8</ele>
        <time>2021-07-11T12:59:38Z</time>
      </trkpt>
      <trkpt lat="49.84895" lon="2.37681">
        <ele>30.8</ele>
        <time>2021-07-11T12:59:39Z</time>
      </trkpt>
      <trkpt lat="49.84895" lon="2.37681">
        <ele>30.8</ele>
        <time>2021-07-11T12:59:40Z</time>
      </trkpt>
      <trkpt lat="49.84895" lon="2.37681">
        <ele>30.8</ele>
        <time>2021-07-11T12:59:42Z</time>
      </trkpt>
      <trkpt lat="49.84895" lon="2.37681">
        <ele>30.8</ele>
        <time>2021-07-11T12:59:44Z</time>
      </trkpt>
      <trkpt lat="49.84895" lon="2.37681">
        <ele>30.8</ele>
        <time>2021-07-11T12:59:45Z</time>
      </trkpt>
      <trkpt lat="49.84895" lon="2.37681">
        <ele>30.8</ele>
        <time>2021-07-11T12:59:46Z</time>
      </trkpt>
      <trkpt lat="49.84895" lon="2.37681">
        <ele>30.8</ele>
        <time>2021-07-11T12:59:47Z</time>
      </trkpt>
      <trkpt lat="49.84895" lon="2.37681">
        <ele>30.8</ele>
        <time>2021-07-11T12:59:48Z</time>
      </trkpt>
      <trkpt lat="49.84895" lon="2.37681">
        <ele>30.8</ele>
        <time>2021-07-11T12:59:50Z</time>
      </trkpt>
      <trkpt lat="49.84895" lon="2.37681">
        <ele>30.8</ele>
        <time>2021-07-11T12:59:52Z</time>
      </trkpt>
      <trkpt lat="49.84895" lon="2.37681">
        <ele>30.8</ele>
        <time>2021-07-11T12:59:53Z</time>
      </trkpt>
      <trkpt lat="49.84895" lon="2.37681">
        <ele>30.8</ele>
        <time>2021-07-11T12:59:54Z</time>
      </trkpt>
      <trkpt lat="49.84895" lon="2.37681">
        <ele>30.8</ele>
        <time>2021-07-11T12:59:56Z</time>
      </trkpt>
      <trkpt lat="49.84895" lon="2.37681">
        <ele>30.8</ele>
        <time>2021-07-11T12:59:57Z</time>
      </trkpt>
      <trkpt lat="49.84895" lon="2.37681">
        <ele>30.8</ele>
        <time>2021-07-11T12:59:59Z</time>
      </trkpt>
      <trkpt lat="49.84895" lon="2.37681">
        <ele>30.8</ele>
        <time>2021-07-11T13:00:00Z</time>
      </trkpt>
      <trkpt lat="49.84895" lon="2.37681">
        <ele>30.8</ele>
        <time>2021-07-11T13:00:01Z</time>
      </trkpt>
      <trkpt lat="49.84895" lon="2.37681">
        <ele>30.8</ele>
        <time>2021-07-11T13:00:03Z</time>
      </trkpt>
      <trkpt lat="49.84895" lon="2.37681">
        <ele>30.8</ele>
        <time>2021-07-11T13:00:05Z</time>
      </trkpt>
      <trkpt lat="49.84895" lon="2.37681">
        <ele>30.8</ele>
        <time>2021-07-11T13:00:07Z</time>
      </trkpt>
      <trkpt lat="49.84895" lon="2.37681">
        <ele>30.8</ele>
        <time>2021-07-11T13:00:08Z</time>
      </trkpt>
      <trkpt lat="49.84895" lon="2.37681">
        <ele>30.8</ele>
        <time>2021-07-11T13:00:10Z</time>
      </trkpt>
      <trkpt lat="49.84895" lon="2.37681">
        <ele>30.8</ele>
        <time>2021-07-11T13:00:12Z</time>
      </trkpt>
      <trkpt lat="49.84895" lon="2.37681">
        <ele>30.8</ele>
        <time>2021-07-11T13:00:14Z</time>
      </trkpt>
      <trkpt lat="49.84895" lon="2.37681">
        <ele>30.8</ele>
        <time>2021-07-11T13:00:16Z</time>
      </trkpt>
      <trkpt lat="49.84895" lon="2.37681">
        <ele>30.8</ele>
        <time>2021-07-11T13:00:18Z</time>
      </trkpt>
      <trkpt lat="49.84895" lon="2.37681">
        <ele>30.8</ele>
        <time>2021-07-11T13:00:19Z</time>
      </trkpt>
      <trkpt lat="49.84895" lon="2.37681">
        <ele>30.8</ele>
        <time>2021-07-11T13:00:21Z</time>
      </trkpt>
      <trkpt lat="49.84895" lon="2.37681">
        <ele>30.8</ele>
        <time>2021-07-11T13:00:23Z</time>
      </trkpt>
      <trkpt lat="49.84895" lon="2.37681">
        <ele>30.8</ele>
        <time>2021-07-11T13:00:24Z</time>
      </trkpt>
      <trkpt lat="49.84895" lon="2.37681">
        <ele>30.8</ele>
        <time>2021-07-11T13:00:26Z</time>
      </trkpt>
      <trkpt lat="49.84895" lon="2.37681">
        <ele>30.8</ele>
        <time>2021-07-11T13:00:28Z</time>
      </trkpt>
      <trkpt lat="49.84895" lon="2.37681">
        <ele>30.8</ele>
        <time>2021-07-11T13:00:29Z</time>
      </trkpt>
      <trkpt lat="49.84895" lon="2.37681">
        <ele>30.8</ele>
        <time>2021-07-11T13:00:30Z</time>
      </trkpt>
      <trkpt lat="49.84895" lon="2.37681">
        <ele>30.8</ele>
        <time>2021-07-11T13:00:31Z</time>
      </trkpt>
      <trkpt lat="49.84895" lon="2.37681">
        <ele>30.8</ele>
        <time>2021-07-11T13:00:33Z</time>
      </trkpt>
      <trkpt lat="49.84895" lon="2.37681">
        <ele>30.8</ele>
        <time>2021-07-11T13:00:35Z</time>
      </trkpt>
      <trkpt lat="49.84895" lon="2.37681">
        <ele>30.8</ele>
        <time>2021-07-11T13:00:37Z</time>
      </trkpt>
      <trkpt lat="49.84895" lon="2.37681">
        <ele>30.8</ele>
        <time>2021-07-11T13:00:39Z</time>
      </trkpt>
      <trkpt lat="49.84895" lon="2.37681">
        <ele>30.8</ele>
        <time>2021-07-11T13:00:41Z</time>
      </trkpt>
      <trkpt lat="49.84895" lon="2.37681">
        <ele>30.8</ele>
        <time>2021-07-11T13:00:42Z</time>
      </trkpt>
      <trkpt lat="49.84895" lon="2.37681">
        <ele>30.8</ele>
        <time>2021-07-11T13:00:44Z</time>
      </trkpt>
      <trkpt lat="49.84895" lon="2.37681">
        <ele>30.8</ele>
        <time>2021-07-11T13:00:45Z</time>
      </trkpt>
      <trkpt lat="49.84895" lon="2.37681">
        <ele>30.8</ele>
        <time>2021-07-11T13:00:47Z</time>
      </trkpt>
      <trkpt lat="49.84895" lon="2.37681">
        <ele>30.8</ele>
        <time>2021-07-11T13:00:49Z</time>
      </trkpt>
      <trkpt lat="49.84895" lon="2.37681">
        <ele>30.8</ele>
        <time>2021-07-11T13:00:50Z</time>
      </trkpt>
      <trkpt lat="49.84895" lon="2.37681">
        <ele>30.8</ele>
        <time>2021-07-11T13:00:51Z</time>
      </trkpt>
      <trkpt lat="49.84895" lon="2.37681">
        <ele>30.8</ele>
        <time>2021-07-11T13:00:53Z</time>
      </trkpt>
      <trkpt lat="49.84895" lon="2.37681">
        <ele>30.8</ele>
        <time>2021-07-11T13:00:54Z</time>
      </trkpt>
      <trkpt lat="49.84895" lon="2.37681">
        <ele>30.8</ele>
        <time>2021-07-11T13:00:55Z</time>
      </trkpt>
      <trkpt lat="49.84895" lon="2.37681">
        <ele>30.8</ele>
        <time>2021-07-11T13:00:56Z</time>
      </trkpt>
      <trkpt lat="49.84895" lon="2.37681">
        <ele>30.8</ele>
        <time>2021-07-11T13:00:57Z</time>
      </trkpt>
      <trkpt lat="49.84895" lon="2.37681">
        <ele>30.8</ele>
        <time>2021-07-11T13:00:59Z</time>
      </trkpt>
      <trkpt lat="49.84895" lon="2.37681">
        <ele>30.8</ele>
        <time>2021-07-11T13:01:01Z</time>
      </trkpt>
      <trkpt lat="49.84895" lon="2.37681">
        <ele>30.8</ele>
        <time>2021-07-11T13:01:02Z</time>
      </trkpt>
      <trkpt lat="49.84895" lon="2.37681">
        <ele>30.8</ele>
        <time>2021-07-11T13:01:03Z</time>
      </trkpt>
      <trkpt lat="49.84895" lon="2.37681">
        <ele>30.8</ele>
        <time>2021-07-11T13:01:05Z</time>
      </trkpt>
      <trkpt lat="49.84895" lon="2.37681">
        <ele>30.8</ele>
        <time>2021-07-11T13:01:07Z</time>
      </trkpt>
      <trkpt lat="49.84895" lon="2.37681">
        <ele>30.8</ele>
        <time>2021-07-11T13:01:08Z</time>
      </trkpt>
      <trkpt lat="49.84895" lon="2.37681">
        <ele>30.8</ele>
        <time>2021-07-11T13:01:09Z</time>
      </trkpt>
      <trkpt lat="49.84895" lon="2.37681">
        <ele>30.8</ele>
        <time>2021-07-11T13:01:11Z</time>
      </trkpt>
      <trkpt lat="49.84895" lon="2.37681">
        <ele>30.8</ele>
        <time>2021-07-11T13:01:12Z</time>
      </trkpt>
      <trkpt lat="49.84895" lon="2.37681">
        <ele>30.8</ele>
        <time>2021-07-11T13:01:13Z</time>
      </trkpt>
      <trkpt lat="49.84895" lon="2.37681">
        <ele>30.8</ele>
        <time>2021-07-11T13:01:15Z</time>
      </trkpt>
      <trkpt lat="49.84895" lon="2.37681">
        <ele>30.8</ele>
        <time>2021-07-11T13:01:17Z</time>
      </trkpt>
      <trkpt lat="49.84895" lon="2.37681">
        <ele>30.8</ele>
        <time>2021-07-11T13:01:19Z</time>
      </trkpt>
      <trkpt lat="49.84895" lon="2.37681">
        <ele>30.8</ele>
        <time>2021-07-11T13:01:21Z</time>
      </trkpt>
      <trkpt lat="49.84895" lon="2.37681">
        <ele>30.8</ele>
        <time>2021-07-11T13:01:23Z</time>
      </trkpt>
      <trkpt lat="49.84895" lon="2.37681">
        <ele>30.8</ele>
        <time>2021-07-11T13:01:25Z</time>
      </trkpt>
      <trkpt lat="49.84895" lon="2.37681">
        <ele>30.8</ele>
        <time>2021-07-11T13:01:27Z</time>
      </trkpt>
      <trkpt lat="49.84895" lon="2.37681">
        <ele>30.8</ele>
        <time>2021-07-11T13:01:28Z</time>
      </trkpt>
      <trkpt lat="49.84895" lon="2.3768">
        <ele>30.8</ele>
        <time>2021-07-11T13:01:30Z</time>
      </trkpt>
      <trkpt lat="49.84895" lon="2.3768">
        <ele>30.8</ele>
        <time>2021-07-11T13:01:32Z</time>
      </trkpt>
      <trkpt lat="49.84895" lon="2.37681">
        <ele>30.8</ele>
        <time>2021-07-11T13:01:34Z</time>
      </trkpt>
      <trkpt lat="49.84895" lon="2.3768">
        <ele>30.8</ele>
        <time>2021-07-11T13:01:35Z</time>
      </trkpt>
      <trkpt lat="49.84895" lon="2.3768">
        <ele>30.8</ele>
        <time>2021-07-11T13:01:36Z</time>
      </trkpt>
      <trkpt lat="49.84895" lon="2.3768">
        <ele>30.8</ele>
        <time>2021-07-11T13:01:37Z</time>
      </trkpt>
      <trkpt lat="49.84895" lon="2.3768">
        <ele>30.8</ele>
        <time>2021-07-11T13:01:38Z</time>
      </trkpt>
      <trkpt lat="49.84895" lon="2.3768">
        <ele>30.8</ele>
        <time>2021-07-11T13:01:40Z</time>
      </trkpt>
      <trkpt lat="49.84895" lon="2.3768">
        <ele>30.8</ele>
        <time>2021-07-11T13:01:42Z</time>
      </trkpt>
      <trkpt lat="49.84895" lon="2.3768">
        <ele>30.8</ele>
        <time>2021-07-11T13:01:43Z</time>
      </trkpt>
      <trkpt lat="49.84895" lon="2.3768">
        <ele>30.8</ele>
        <time>2021-07-11T13:01:45Z</time>
      </trkpt>
      <trkpt lat="49.84895" lon="2.37681">
        <ele>30.8</ele>
        <time>2021-07-11T13:01:47Z</time>
      </trkpt>
      <trkpt lat="49.84895" lon="2.37681">
        <ele>30.8</ele>
        <time>2021-07-11T13:01:48Z</time>
      </trkpt>
      <trkpt lat="49.84895" lon="2.37681">
        <ele>30.8</ele>
        <time>2021-07-11T13:01:49Z</time>
      </trkpt>
      <trkpt lat="49.84895" lon="2.37681">
        <ele>30.8</ele>
        <time>2021-07-11T13:01:51Z</time>
      </trkpt>
      <trkpt lat="49.84895" lon="2.37681">
        <ele>30.8</ele>
        <time>2021-07-11T13:01:53Z</time>
      </trkpt>
      <trkpt lat="49.84895" lon="2.37681">
        <ele>30.8</ele>
        <time>2021-07-11T13:01:54Z</time>
      </trkpt>
      <trkpt lat="49.84895" lon="2.37681">
        <ele>30.8</ele>
        <time>2021-07-11T13:01:55Z</time>
      </trkpt>
      <trkpt lat="49.84895" lon="2.37681">
        <ele>30.8</ele>
        <time>2021-07-11T13:01:56Z</time>
      </trkpt>
      <trkpt lat="49.84895" lon="2.37681">
        <ele>30.8</ele>
        <time>2021-07-11T13:01:57Z</time>
      </trkpt>
      <trkpt lat="49.84895" lon="2.37681">
        <ele>30.8</ele>
        <time>2021-07-11T13:01:59Z</time>
      </trkpt>
      <trkpt lat="49.84895" lon="2.37681">
        <ele>30.8</ele>
        <time>2021-07-11T13:02:00Z</time>
      </trkpt>
      <trkpt lat="49.84895" lon="2.37681">
        <ele>30.8</ele>
        <time>2021-07-11T13:02:02Z</time>
      </trkpt>
      <trkpt lat="49.84895" lon="2.37681">
        <ele>30.8</ele>
        <time>2021-07-11T13:02:04Z</time>
      </trkpt>
      <trkpt lat="49.84895" lon="2.37681">
        <ele>30.8</ele>
        <time>2021-07-11T13:02:05Z</time>
      </trkpt>
      <trkpt lat="49.84895" lon="2.37681">
        <ele>30.8</ele>
        <time>2021-07-11T13:02:07Z</time>
      </trkpt>
      <trkpt lat="49.84895" lon="2.37681">
        <ele>30.8</ele>
        <time>2021-07-11T13:02:09Z</time>
      </trkpt>
      <trkpt lat="49.84895" lon="2.37681">
        <ele>30.8</ele>
        <time>2021-07-11T13:02:10Z</time>
      </trkpt>
      <trkpt lat="49.84895" lon="2.37681">
        <ele>30.8</ele>
        <time>2021-07-11T13:02:12Z</time>
      </trkpt>
      <trkpt lat="49.84895" lon="2.37681">
        <ele>30.8</ele>
        <time>2021-07-11T13:02:13Z</time>
      </trkpt>
      <trkpt lat="49.84895" lon="2.37681">
        <ele>30.8</ele>
        <time>2021-07-11T13:02:14Z</time>
      </trkpt>
      <trkpt lat="49.84895" lon="2.37681">
        <ele>30.8</ele>
        <time>2021-07-11T13:02:15Z</time>
      </trkpt>
      <trkpt lat="49.84895" lon="2.37681">
        <ele>30.8</ele>
        <time>2021-07-11T13:02:17Z</time>
      </trkpt>
      <trkpt lat="49.84895" lon="2.37681">
        <ele>30.8</ele>
        <time>2021-07-11T13:02:18Z</time>
      </trkpt>
      <trkpt lat="49.84895" lon="2.37681">
        <ele>30.8</ele>
        <time>2021-07-11T13:02:20Z</time>
      </trkpt>
      <trkpt lat="49.84895" lon="2.37681">
        <ele>30.8</ele>
        <time>2021-07-11T13:02:21Z</time>
      </trkpt>
      <trkpt lat="49.84895" lon="2.37681">
        <ele>30.8</ele>
        <time>2021-07-11T13:02:23Z</time>
      </trkpt>
      <trkpt lat="49.84895" lon="2.37681">
        <ele>30.8</ele>
        <time>2021-07-11T13:02:24Z</time>
      </trkpt>
      <trkpt lat="49.84895" lon="2.37681">
        <ele>30.8</ele>
        <time>2021-07-11T13:02:26Z</time>
      </trkpt>
      <trkpt lat="49.84895" lon="2.37681">
        <ele>30.8</ele>
        <time>2021-07-11T13:02:28Z</time>
      </trkpt>
      <trkpt lat="49.84895" lon="2.37681">
        <ele>30.8</ele>
        <time>2021-07-11T13:02:30Z</time>
      </trkpt>
      <trkpt lat="49.84895" lon="2.37681">
        <ele>30.8</ele>
        <time>2021-07-11T13:02:32Z</time>
      </trkpt>
      <trkpt lat="49.84895" lon="2.37681">
        <ele>30.8</ele>
        <time>2021-07-11T13:02:34Z</time>
      </trkpt>
      <trkpt lat="49.84895" lon="2.37681">
        <ele>30.8</ele>
        <time>2021-07-11T13:02:35Z</time>
      </trkpt>
      <trkpt lat="49.84895" lon="2.37681">
        <ele>30.8</ele>
        <time>2021-07-11T13:02:37Z</time>
      </trkpt>
      <trkpt lat="49.84895" lon="2.37681">
        <ele>30.8</ele>
        <time>2021-07-11T13:02:38Z</time>
      </trkpt>
      <trkpt lat="49.84895" lon="2.37681">
        <ele>30.8</ele>
        <time>2021-07-11T13:02:40Z</time>
      </trkpt>
      <trkpt lat="49.84895" lon="2.37681">
        <ele>30.8</ele>
        <time>2021-07-11T13:02:41Z</time>
      </trkpt>
      <trkpt lat="49.84895" lon="2.37681">
        <ele>30.8</ele>
        <time>2021-07-11T13:02:42Z</time>
      </trkpt>
      <trkpt lat="49.84895" lon="2.37681">
        <ele>30.8</ele>
        <time>2021-07-11T13:02:44Z</time>
      </trkpt>
      <trkpt lat="49.84895" lon="2.37681">
        <ele>30.8</ele>
        <time>2021-07-11T13:02:46Z</time>
      </trkpt>
      <trkpt lat="49.84895" lon="2.37681">
        <ele>30.8</ele>
        <time>2021-07-11T13:02:47Z</time>
      </trkpt>
      <trkpt lat="49.84895" lon="2.37681">
        <ele>30.8</ele>
        <time>2021-07-11T13:02:49Z</time>
      </trkpt>
      <trkpt lat="49.84895" lon="2.37681">
        <ele>30.8</ele>
        <time>2021-07-11T13:02:51Z</time>
      </trkpt>
      <trkpt lat="49.84895" lon="2.37681">
        <ele>30.8</ele>
        <time>2021-07-11T13:02:53Z</time>
      </trkpt>
      <trkpt lat="49.84895" lon="2.37681">
        <ele>30.8</ele>
        <time>2021-07-11T13:02:55Z</time>
      </trkpt>
      <trkpt lat="49.84895" lon="2.37681">
        <ele>30.8</ele>
        <time>2021-07-11T13:02:56Z</time>
      </trkpt>
      <trkpt lat="49.84895" lon="2.37681">
        <ele>30.8</ele>
        <time>2021-07-11T13:02:58Z</time>
      </trkpt>
      <trkpt lat="49.84895" lon="2.37681">
        <ele>30.8</ele>
        <time>2021-07-11T13:02:59Z</time>
      </trkpt>
      <trkpt lat="49.84895" lon="2.37681">
        <ele>30.8</ele>
        <time>2021-07-11T13:03:00Z</time>
      </trkpt>
      <trkpt lat="49.84895" lon="2.37681">
        <ele>30.8</ele>
        <time>2021-07-11T13:03:01Z</time>
      </trkpt>
      <trkpt lat="49.84895" lon="2.37681">
        <ele>30.8</ele>
        <time>2021-07-11T13:03:03Z</time>
      </trkpt>
      <trkpt lat="49.84895" lon="2.37681">
        <ele>30.8</ele>
        <time>2021-07-11T13:03:05Z</time>
      </trkpt>
      <trkpt lat="49.84895" lon="2.37681">
        <ele>30.8</ele>
        <time>2021-07-11T13:03:07Z</time>
      </trkpt>
      <trkpt lat="49.84895" lon="2.37681">
        <ele>30.8</ele>
        <time>2021-07-11T13:03:08Z</time>
      </trkpt>
      <trkpt lat="49.84895" lon="2.37681">
        <ele>30.8</ele>
        <time>2021-07-11T13:03:10Z</time>
      </trkpt>
      <trkpt lat="49.84895" lon="2.37681">
        <ele>30.8</ele>
        <time>2021-07-11T13:03:11Z</time>
      </trkpt>
      <trkpt lat="49.84895" lon="2.37681">
        <ele>30.8</ele>
        <time>2021-07-11T13:03:13Z</time>
      </trkpt>
      <trkpt lat="49.84895" lon="2.37681">
        <ele>30.8</ele>
        <time>2021-07-11T13:03:15Z</time>
      </trkpt>
      <trkpt lat="49.84895" lon="2.37681">
        <ele>30.8</ele>
        <time>2021-07-11T13:03:16Z</time>
      </trkpt>
      <trkpt lat="49.84895" lon="2.37681">
        <ele>30.8</ele>
        <time>2021-07-11T13:03:17Z</time>
      </trkpt>
      <trkpt lat="49.84895" lon="2.37681">
        <ele>30.8</ele>
        <time>2021-07-11T13:03:19Z</time>
      </trkpt>
      <trkpt lat="49.84895" lon="2.37681">
        <ele>30.8</ele>
        <time>2021-07-11T13:03:20Z</time>
      </trkpt>
      <trkpt lat="49.84895" lon="2.37681">
        <ele>30.8</ele>
        <time>2021-07-11T13:03:21Z</time>
      </trkpt>
      <trkpt lat="49.84895" lon="2.37681">
        <ele>30.8</ele>
        <time>2021-07-11T13:03:23Z</time>
      </trkpt>
      <trkpt lat="49.84895" lon="2.37681">
        <ele>30.8</ele>
        <time>2021-07-11T13:03:25Z</time>
      </trkpt>
      <trkpt lat="49.84895" lon="2.37681">
        <ele>30.8</ele>
        <time>2021-07-11T13:03:27Z</time>
      </trkpt>
      <trkpt lat="49.84895" lon="2.37681">
        <ele>30.8</ele>
        <time>2021-07-11T13:03:28Z</time>
      </trkpt>
      <trkpt lat="49.84895" lon="2.37681">
        <ele>30.8</ele>
        <time>2021-07-11T13:03:29Z</time>
      </trkpt>
      <trkpt lat="49.84895" lon="2.37681">
        <ele>30.8</ele>
        <time>2021-07-11T13:03:30Z</time>
      </trkpt>
      <trkpt lat="49.84894" lon="2.3768">
        <ele>30.8</ele>
        <time>2021-07-11T13:03:32Z</time>
      </trkpt>
      <trkpt lat="49.84893" lon="2.37677">
        <ele>30.9</ele>
        <time>2021-07-11T13:03:33Z</time>
      </trkpt>
      <trkpt lat="49.8489" lon="2.37672">
        <ele>30.9</ele>
        <time>2021-07-11T13:03:34Z</time>
      </trkpt>
      <trkpt lat="49.84888" lon="2.37668">
        <ele>30.9</ele>
        <time>2021-07-11T13:03:36Z</time>
      </trkpt>
      <trkpt lat="49.84887" lon="2.37667">
        <ele>30.9</ele>
        <time>2021-07-11T13:03:37Z</time>
      </trkpt>
      <trkpt lat="49.84886" lon="2.37665">
        <ele>30.9</ele>
        <time>2021-07-11T13:03:39Z</time>
      </trkpt>
      <trkpt lat="49.84884" lon="2.37665">
        <ele>30.9</ele>
        <time>2021-07-11T13:03:40Z</time>
      </trkpt>
      <trkpt lat="49.84883" lon="2.37664">
        <ele>30.9</ele>
        <time>2021-07-11T13:03:41Z</time>
      </trkpt>
      <trkpt lat="49.84882" lon="2.37663">
        <ele>30.9</ele>
        <time>2021-07-11T13:03:42Z</time>
      </trkpt>
      <trkpt lat="49.84882" lon="2.37663">
        <ele>30.9</ele>
        <time>2021-07-11T13:03:44Z</time>
      </trkpt>
      <trkpt lat="49.84881" lon="2.37661">
        <ele>30.9</ele>
        <time>2021-07-11T13:03:46Z</time>
      </trkpt>
      <trkpt lat="49.84881" lon="2.37661">
        <ele>30.9</ele>
        <time>2021-07-11T13:03:47Z</time>
      </trkpt>
      <trkpt lat="49.84881" lon="2.37661">
        <ele>30.9</ele>
        <time>2021-07-11T13:03:49Z</time>
      </trkpt>
      <trkpt lat="49.84882" lon="2.37661">
        <ele>30.9</ele>
        <time>2021-07-11T13:03:50Z</time>
      </trkpt>
      <trkpt lat="49.84882" lon="2.37662">
        <ele>30.9</ele>
        <time>2021-07-11T13:03:51Z</time>
      </trkpt>
      <trkpt lat="49.84882" lon="2.37662">
        <ele>30.9</ele>
        <time>2021-07-11T13:03:52Z</time>
      </trkpt>
      <trkpt lat="49.84882" lon="2.37662">
        <ele>30.9</ele>
        <time>2021-07-11T13:03:54Z</time>
      </trkpt>
      <trkpt lat="49.84882" lon="2.37663">
        <ele>30.9</ele>
        <time>2021-07-11T13:03:55Z</time>
      </trkpt>
      <trkpt lat="49.84882" lon="2.37663">
        <ele>30.9</ele>
        <time>2021-07-11T13:03:56Z</time>
      </trkpt>
      <trkpt lat="49.84882" lon="2.37663">
        <ele>30.9</ele>
        <time>2021-07-11T13:03:58Z</time>
      </trkpt>
      <trkpt lat="49.84882" lon="2.37663">
        <ele>30.9</ele>
        <time>2021-07-11T13:03:59Z</time>
      </trkpt>
      <trkpt lat="49.84882" lon="2.37663">
        <ele>30.9</ele>
        <time>2021-07-11T13:04:01Z</time>
      </trkpt>
      <trkpt lat="49.84882" lon="2.37663">
        <ele>30.9</ele>
        <time>2021-07-11T13:04:02Z</time>
      </trkpt>
      <trkpt lat="49.84883" lon="2.37663">
        <ele>30.9</ele>
        <time>2021-07-11T13:04:03Z</time>
      </trkpt>
      <trkpt lat="49.84883" lon="2.37664">
        <ele>30.9</ele>
        <time>2021-07-11T13:04:05Z</time>
      </trkpt>
      <trkpt lat="49.84883" lon="2.37664">
        <ele>30.9</ele>
        <time>2021-07-11T13:04:07Z</time>
      </trkpt>
      <trkpt lat="49.84883" lon="2.37664">
        <ele>30.9</ele>
        <time>2021-07-11T13:04:08Z</time>
      </trkpt>
      <trkpt lat="49.84883" lon="2.37664">
        <ele>30.9</ele>
        <time>2021-07-11T13:04:10Z</time>
      </trkpt>
      <trkpt lat="49.84883" lon="2.37664">
        <ele>30.9</ele>
        <time>2021-07-11T13:04:11Z</time>
      </trkpt>
      <trkpt lat="49.84883" lon="2.37664">
        <ele>30.9</ele>
        <time>2021-07-11T13:04:13Z</time>
      </trkpt>
      <trkpt lat="49.84883" lon="2.37664">
        <ele>30.9</ele>
        <time>2021-07-11T13:04:14Z</time>
      </trkpt>
      <trkpt lat="49.84883" lon="2.37664">
        <ele>30.9</ele>
        <time>2021-07-11T13:04:16Z</time>
      </trkpt>
      <trkpt lat="49.84883" lon="2.37664">
        <ele>30.9</ele>
        <time>2021-07-11T13:04:18Z</time>
      </trkpt>
      <trkpt lat="49.84883" lon="2.37664">
        <ele>30.9</ele>
        <time>2021-07-11T13:04:19Z</time>
      </trkpt>
      <trkpt lat="49.84883" lon="2.37664">
        <ele>30.9</ele>
        <time>2021-07-11T13:04:20Z</time>
      </trkpt>
      <trkpt lat="49.84883" lon="2.37664">
        <ele>30.9</ele>
        <time>2021-07-11T13:04:22Z</time>
      </trkpt>
      <trkpt lat="49.84883" lon="2.37664">
        <ele>30.9</ele>
        <time>2021-07-11T13:04:23Z</time>
      </trkpt>
      <trkpt lat="49.84883" lon="2.37664">
        <ele>30.9</ele>
        <time>2021-07-11T13:04:24Z</time>
      </trkpt>
      <trkpt lat="49.84883" lon="2.37664">
        <ele>30.9</ele>
        <time>2021-07-11T13:04:26Z</time>
      </trkpt>
      <trkpt lat="49.84883" lon="2.37664">
        <ele>30.9</ele>
        <time>2021-07-11T13:04:28Z</time>
      </trkpt>
      <trkpt lat="49.84883" lon="2.37664">
        <ele>30.9</ele>
        <time>2021-07-11T13:04:29Z</time>
      </trkpt>
      <trkpt lat="49.84883" lon="2.37664">
        <ele>30.9</ele>
        <time>2021-07-11T13:04:30Z</time>
      </trkpt>
      <trkpt lat="49.84883" lon="2.37663">
        <ele>30.9</ele>
        <time>2021-07-11T13:04:32Z</time>
      </trkpt>
      <trkpt lat="49.84882" lon="2.37662">
        <ele>31</ele>
        <time>2021-07-11T13:04:34Z</time>
      </trkpt>
      <trkpt lat="49.84881" lon="2.37661">
        <ele>31</ele>
        <time>2021-07-11T13:04:35Z</time>
      </trkpt>
      <trkpt lat="49.84881" lon="2.37661">
        <ele>31</ele>
        <time>2021-07-11T13:04:36Z</time>
      </trkpt>
      <trkpt lat="49.8488" lon="2.37661">
        <ele>31</ele>
        <time>2021-07-11T13:04:38Z</time>
      </trkpt>
      <trkpt lat="49.8488" lon="2.3766">
        <ele>31</ele>
        <time>2021-07-11T13:04:39Z</time>
      </trkpt>
      <trkpt lat="49.8488" lon="2.3766">
        <ele>31</ele>
        <time>2021-07-11T13:04:40Z</time>
      </trkpt>
      <trkpt lat="49.8488" lon="2.37659">
        <ele>31</ele>
        <time>2021-07-11T13:04:42Z</time>
      </trkpt>
      <trkpt lat="49.84879" lon="2.37657">
        <ele>31</ele>
        <time>2021-07-11T13:04:43Z</time>
      </trkpt>
      <trkpt lat="49.84878" lon="2.37656">
        <ele>31</ele>
        <time>2021-07-11T13:04:44Z</time>
      </trkpt>
      <trkpt lat="49.84876" lon="2.37654">
        <ele>31</ele>
        <time>2021-07-11T13:04:45Z</time>
      </trkpt>
      <trkpt lat="49.84876" lon="2.37653">
        <ele>31</ele>
        <time>2021-07-11T13:04:46Z</time>
      </trkpt>
      <trkpt lat="49.84875" lon="2.37652">
        <ele>31</ele>
        <time>2021-07-11T13:04:48Z</time>
      </trkpt>
      <trkpt lat="49.84874" lon="2.37651">
        <ele>31</ele>
        <time>2021-07-11T13:04:49Z</time>
      </trkpt>
      <trkpt lat="49.84873" lon="2.3765">
        <ele>31</ele>
        <time>2021-07-11T13:04:50Z</time>
      </trkpt>
      <trkpt lat="49.84873" lon="2.37649">
        <ele>31</ele>
        <time>2021-07-11T13:04:51Z</time>
      </trkpt>
      <trkpt lat="49.84871" lon="2.37648">
        <ele>31</ele>
        <time>2021-07-11T13:04:53Z</time>
      </trkpt>
      <trkpt lat="49.8487" lon="2.37648">
        <ele>31</ele>
        <time>2021-07-11T13:04:55Z</time>
      </trkpt>
      <trkpt lat="49.84869" lon="2.37648">
        <ele>31</ele>
        <time>2021-07-11T13:04:56Z</time>
      </trkpt>
      <trkpt lat="49.84868" lon="2.37649">
        <ele>31</ele>
        <time>2021-07-11T13:04:57Z</time>
      </trkpt>
      <trkpt lat="49.84866" lon="2.37648">
        <ele>31</ele>
        <time>2021-07-11T13:04:59Z</time>
      </trkpt>
      <trkpt lat="49.84865" lon="2.37645">
        <ele>31</ele>
        <time>2021-07-11T13:05:01Z</time>
      </trkpt>
      <trkpt lat="49.84866" lon="2.37645">
        <ele>31</ele>
        <time>2021-07-11T13:05:03Z</time>
      </trkpt>
      <trkpt lat="49.84866" lon="2.37645">
        <ele>31</ele>
        <time>2021-07-11T13:05:05Z</time>
      </trkpt>
      <trkpt lat="49.84866" lon="2.37645">
        <ele>31</ele>
        <time>2021-07-11T13:05:07Z</time>
      </trkpt>
      <trkpt lat="49.84867" lon="2.37645">
        <ele>31</ele>
        <time>2021-07-11T13:05:09Z</time>
      </trkpt>
      <trkpt lat="49.84867" lon="2.37645">
        <ele>31</ele>
        <time>2021-07-11T13:05:10Z</time>
      </trkpt>
      <trkpt lat="49.84867" lon="2.37645">
        <ele>31</ele>
        <time>2021-07-11T13:05:11Z</time>
      </trkpt>
      <trkpt lat="49.84867" lon="2.37645">
        <ele>31</ele>
        <time>2021-07-11T13:05:12Z</time>
      </trkpt>
      <trkpt lat="49.84868" lon="2.37645">
        <ele>31</ele>
        <time>2021-07-11T13:05:14Z</time>
      </trkpt>
      <trkpt lat="49.84868" lon="2.37645">
        <ele>31</ele>
        <time>2021-07-11T13:05:15Z</time>
      </trkpt>
      <trkpt lat="49.84868" lon="2.37644">
        <ele>31</ele>
        <time>2021-07-11T13:05:16Z</time>
      </trkpt>
      <trkpt lat="49.84871" lon="2.37646">
        <ele>31</ele>
        <time>2021-07-11T13:05:18Z</time>
      </trkpt>
      <trkpt lat="49.84871" lon="2.37647">
        <ele>31</ele>
        <time>2021-07-11T13:05:19Z</time>
      </trkpt>
      <trkpt lat="49.84872" lon="2.37649">
        <ele>31</ele>
        <time>2021-07-11T13:05:20Z</time>
      </trkpt>
      <trkpt lat="49.84874" lon="2.37652">
        <ele>30.9</ele>
        <time>2021-07-11T13:05:21Z</time>
      </trkpt>
      <trkpt lat="49.84875" lon="2.37653">
        <ele>30.9</ele>
        <time>2021-07-11T13:05:22Z</time>
      </trkpt>
      <trkpt lat="49.84876" lon="2.37654">
        <ele>30.9</ele>
        <time>2021-07-11T13:05:24Z</time>
      </trkpt>
      <trkpt lat="49.84877" lon="2.37656">
        <ele>30.9</ele>
        <time>2021-07-11T13:05:25Z</time>
      </trkpt>
      <trkpt lat="49.84878" lon="2.37657">
        <ele>30.9</ele>
        <time>2021-07-11T13:05:26Z</time>
      </trkpt>
      <trkpt lat="49.84879" lon="2.37658">
        <ele>30.9</ele>
        <time>2021-07-11T13:05:27Z</time>
      </trkpt>
      <trkpt lat="49.8488" lon="2.37659">
        <ele>30.9</ele>
        <time>2021-07-11T13:05:28Z</time>
      </trkpt>
      <trkpt lat="49.84881" lon="2.37662">
        <ele>30.9</ele>
        <time>2021-07-11T13:05:29Z</time>
      </trkpt>
      <trkpt lat="49.84882" lon="2.37663">
        <ele>30.9</ele>
        <time>2021-07-11T13:05:31Z</time>
      </trkpt>
      <trkpt lat="49.84883" lon="2.37664">
        <ele>30.9</ele>
        <time>2021-07-11T13:05:32Z</time>
      </trkpt>
      <trkpt lat="49.84884" lon="2.37665">
        <ele>30.9</ele>
        <time>2021-07-11T13:05:33Z</time>
      </trkpt>
      <trkpt lat="49.84884" lon="2.37666">
        <ele>30.9</ele>
        <time>2021-07-11T13:05:34Z</time>
      </trkpt>
      <trkpt lat="49.84884" lon="2.37665">
        <ele>30.9</ele>
        <time>2021-07-11T13:05:35Z</time>
      </trkpt>
      <trkpt lat="49.84884" lon="2.37664">
        <ele>30.9</ele>
        <time>2021-07-11T13:05:36Z</time>
      </trkpt>
      <trkpt lat="49.84884" lon="2.37665">
        <ele>30.9</ele>
        <time>2021-07-11T13:05:37Z</time>
      </trkpt>
      <trkpt lat="49.84885" lon="2.37666">
        <ele>30.9</ele>
        <time>2021-07-11T13:05:39Z</time>
      </trkpt>
      <trkpt lat="49.84886" lon="2.37668">
        <ele>30.9</ele>
        <time>2021-07-11T13:05:40Z</time>
      </trkpt>
      <trkpt lat="49.84888" lon="2.37669">
        <ele>30.9</ele>
        <time>2021-07-11T13:05:41Z</time>
      </trkpt>
      <trkpt lat="49.84889" lon="2.37671">
        <ele>30.9</ele>
        <time>2021-07-11T13:05:42Z</time>
      </trkpt>
      <trkpt lat="49.8489" lon="2.37673">
        <ele>30.9</ele>
        <time>2021-07-11T13:05:43Z</time>
      </trkpt>
      <trkpt lat="49.84891" lon="2.37673">
        <ele>30.8</ele>
        <time>2021-07-11T13:05:44Z</time>
      </trkpt>
      <trkpt lat="49.8489" lon="2.37672">
        <ele>30.8</ele>
        <time>2021-07-11T13:05:45Z</time>
      </trkpt>
      <trkpt lat="49.84891" lon="2.37673">
        <ele>30.8</ele>
        <time>2021-07-11T13:05:47Z</time>
      </trkpt>
      <trkpt lat="49.84892" lon="2.37674">
        <ele>30.8</ele>
        <time>2021-07-11T13:05:48Z</time>
      </trkpt>
      <trkpt lat="49.84893" lon="2.37676">
        <ele>30.8</ele>
        <time>2021-07-11T13:05:50Z</time>
      </trkpt>
      <trkpt lat="49.84894" lon="2.37677">
        <ele>30.8</ele>
        <time>2021-07-11T13:05:51Z</time>
      </trkpt>
      <trkpt lat="49.84896" lon="2.3768">
        <ele>30.8</ele>
        <time>2021-07-11T13:05:53Z</time>
      </trkpt>
      <trkpt lat="49.84898" lon="2.37683">
        <ele>30.8</ele>
        <time>2021-07-11T13:05:54Z</time>
      </trkpt>
      <trkpt lat="49.84899" lon="2.37684">
        <ele>30.7</ele>
        <time>2021-07-11T13:05:55Z</time>
      </trkpt>
      <trkpt lat="49.84901" lon="2.37688">
        <ele>30.7</ele>
        <time>2021-07-11T13:05:56Z</time>
      </trkpt>
      <trkpt lat="49.84902" lon="2.37689">
        <ele>30.7</ele>
        <time>2021-07-11T13:05:57Z</time>
      </trkpt>
      <trkpt lat="49.84903" lon="2.37691">
        <ele>30.6</ele>
        <time>2021-07-11T13:05:59Z</time>
      </trkpt>
      <trkpt lat="49.84904" lon="2.37692">
        <ele>30.6</ele>
        <time>2021-07-11T13:06:00Z</time>
      </trkpt>
      <trkpt lat="49.84906" lon="2.37694">
        <ele>30.6</ele>
        <time>2021-07-11T13:06:01Z</time>
      </trkpt>
      <trkpt lat="49.84907" lon="2.37695">
        <ele>30.5</ele>
        <time>2021-07-11T13:06:02Z</time>
      </trkpt>
      <trkpt lat="49.84908" lon="2.37696">
        <ele>30.5</ele>
        <time>2021-07-11T13:06:03Z</time>
      </trkpt>
      <trkpt lat="49.8491" lon="2.37698">
        <ele>30.4</ele>
        <time>2021-07-11T13:06:05Z</time>
      </trkpt>
      <trkpt lat="49.84913" lon="2.377">
        <ele>30.4</ele>
        <time>2021-07-11T13:06:06Z</time>
      </trkpt>
      <trkpt lat="49.84914" lon="2.37701">
        <ele>30.4</ele>
        <time>2021-07-11T13:06:07Z</time>
      </trkpt>
      <trkpt lat="49.84917" lon="2.37702">
        <ele>30.3</ele>
        <time>2021-07-11T13:06:08Z</time>
      </trkpt>
      <trkpt lat="49.84918" lon="2.37703">
        <ele>30.3</ele>
        <time>2021-07-11T13:06:09Z</time>
      </trkpt>
      <trkpt lat="49.8492" lon="2.37703">
        <ele>30.2</ele>
        <time>2021-07-11T13:06:11Z</time>
      </trkpt>
      <trkpt lat="49.84921" lon="2.37703">
        <ele>30.2</ele>
        <time>2021-07-11T13:06:12Z</time>
      </trkpt>
      <trkpt lat="49.84925" lon="2.37704">
        <ele>30.1</ele>
        <time>2021-07-11T13:06:13Z</time>
      </trkpt>
      <trkpt lat="49.84926" lon="2.37704">
        <ele>30.1</ele>
        <time>2021-07-11T13:06:14Z</time>
      </trkpt>
      <trkpt lat="49.84928" lon="2.37704">
        <ele>30.1</ele>
        <time>2021-07-11T13:06:16Z</time>
      </trkpt>
      <trkpt lat="49.8493" lon="2.37704">
        <ele>30</ele>
        <time>2021-07-11T13:06:17Z</time>
      </trkpt>
      <trkpt lat="49.84932" lon="2.37704">
        <ele>30</ele>
        <time>2021-07-11T13:06:18Z</time>
      </trkpt>
      <trkpt lat="49.84933" lon="2.37704">
        <ele>30</ele>
        <time>2021-07-11T13:06:19Z</time>
      </trkpt>
      <trkpt lat="49.84935" lon="2.37703">
        <ele>29.9</ele>
        <time>2021-07-11T13:06:20Z</time>
      </trkpt>
      <trkpt lat="49.84937" lon="2.37703">
        <ele>29.9</ele>
        <time>2021-07-11T13:06:22Z</time>
      </trkpt>
      <trkpt lat="49.84938" lon="2.37701">
        <ele>29.9</ele>
        <time>2021-07-11T13:06:23Z</time>
      </trkpt>
      <trkpt lat="49.84939" lon="2.37699">
        <ele>29.9</ele>
        <time>2021-07-11T13:06:24Z</time>
      </trkpt>
      <trkpt lat="49.84939" lon="2.37699">
        <ele>29.9</ele>
        <time>2021-07-11T13:06:25Z</time>
      </trkpt>
      <trkpt lat="49.84941" lon="2.37701">
        <ele>29.8</ele>
        <time>2021-07-11T13:06:27Z</time>
      </trkpt>
      <trkpt lat="49.84942" lon="2.37702">
        <ele>29.8</ele>
        <time>2021-07-11T13:06:28Z</time>
      </trkpt>
      <trkpt lat="49.84943" lon="2.37703">
        <ele>29.8</ele>
        <time>2021-07-11T13:06:29Z</time>
      </trkpt>
      <trkpt lat="49.84944" lon="2.37704">
        <ele>29.8</ele>
        <time>2021-07-11T13:06:30Z</time>
      </trkpt>
      <trkpt lat="49.84945" lon="2.37705">
        <ele>29.8</ele>
        <time>2021-07-11T13:06:31Z</time>
      </trkpt>
      <trkpt lat="49.84946" lon="2.37708">
        <ele>29.8</ele>
        <time>2021-07-11T13:06:32Z</time>
      </trkpt>
      <trkpt lat="49.84948" lon="2.37708">
        <ele>29.7</ele>
        <time>2021-07-11T13:06:33Z</time>
      </trkpt>
      <trkpt lat="49.84949" lon="2.37708">
        <ele>29.7</ele>
        <time>2021-07-11T13:06:34Z</time>
      </trkpt>
      <trkpt lat="49.8495" lon="2.37708">
        <ele>29.7</ele>
        <time>2021-07-11T13:06:35Z</time>
      </trkpt>
      <trkpt lat="49.84951" lon="2.37708">
        <ele>29.7</ele>
        <time>2021-07-11T13:06:36Z</time>
      </trkpt>
      <trkpt lat="49.84952" lon="2.37708">
        <ele>29.7</ele>
        <time>2021-07-11T13:06:38Z</time>
      </trkpt>
      <trkpt lat="49.84953" lon="2.37707">
        <ele>29.7</ele>
        <time>2021-07-11T13:06:39Z</time>
      </trkpt>
      <trkpt lat="49.84953" lon="2.37707">
        <ele>29.7</ele>
        <time>2021-07-11T13:06:40Z</time>
      </trkpt>
      <trkpt lat="49.84954" lon="2.37707">
        <ele>29.7</ele>
        <time>2021-07-11T13:06:41Z</time>
      </trkpt>
      <trkpt lat="49.84954" lon="2.37707">
        <ele>29.7</ele>
        <time>2021-07-11T13:06:42Z</time>
      </trkpt>
      <trkpt lat="49.84955" lon="2.37707">
        <ele>29.7</ele>
        <time>2021-07-11T13:06:43Z</time>
      </trkpt>
      <trkpt lat="49.84956" lon="2.37707">
        <ele>29.6</ele>
        <time>2021-07-11T13:06:44Z</time>
      </trkpt>
      <trkpt lat="49.84957" lon="2.37707">
        <ele>29.6</ele>
        <time>2021-07-11T13:06:45Z</time>
      </trkpt>
      <trkpt lat="49.84958" lon="2.37707">
        <ele>29.6</ele>
        <time>2021-07-11T13:06:47Z</time>
      </trkpt>
      <trkpt lat="49.84959" lon="2.37707">
        <ele>29.6</ele>
        <time>2021-07-11T13:06:48Z</time>
      </trkpt>
      <trkpt lat="49.8496" lon="2.37707">
        <ele>29.6</ele>
        <time>2021-07-11T13:06:49Z</time>
      </trkpt>
      <trkpt lat="49.84962" lon="2.37707">
        <ele>29.6</ele>
        <time>2021-07-11T13:06:50Z</time>
      </trkpt>
      <trkpt lat="49.84963" lon="2.37707">
        <ele>29.6</ele>
        <time>2021-07-11T13:06:51Z</time>
      </trkpt>
      <trkpt lat="49.84964" lon="2.37707">
        <ele>29.6</ele>
        <time>2021-07-11T13:06:52Z</time>
      </trkpt>
      <trkpt lat="49.84964" lon="2.37708">
        <ele>29.6</ele>
        <time>2021-07-11T13:06:53Z</time>
      </trkpt>
      <trkpt lat="49.84965" lon="2.37707">
        <ele>29.5</ele>
        <time>2021-07-11T13:06:54Z</time>
      </trkpt>
      <trkpt lat="49.84966" lon="2.37705">
        <ele>29.5</ele>
        <time>2021-07-11T13:06:55Z</time>
      </trkpt>
      <trkpt lat="49.84966" lon="2.37704">
        <ele>29.5</ele>
        <time>2021-07-11T13:06:57Z</time>
      </trkpt>
      <trkpt lat="49.84967" lon="2.37701">
        <ele>29.5</ele>
        <time>2021-07-11T13:06:59Z</time>
      </trkpt>
      <trkpt lat="49.84968" lon="2.377">
        <ele>29.5</ele>
        <time>2021-07-11T13:07:00Z</time>
      </trkpt>
      <trkpt lat="49.84969" lon="2.37699">
        <ele>29.5</ele>
        <time>2021-07-11T13:07:01Z</time>
      </trkpt>
      <trkpt lat="49.84969" lon="2.37698">
        <ele>29.5</ele>
        <time>2021-07-11T13:07:02Z</time>
      </trkpt>
      <trkpt lat="49.8497" lon="2.37697">
        <ele>29.5</ele>
        <time>2021-07-11T13:07:04Z</time>
      </trkpt>
      <trkpt lat="49.84971" lon="2.37697">
        <ele>29.5</ele>
        <time>2021-07-11T13:07:05Z</time>
      </trkpt>
      <trkpt lat="49.84975" lon="2.37701">
        <ele>29.4</ele>
        <time>2021-07-11T13:07:07Z</time>
      </trkpt>
      <trkpt lat="49.84977" lon="2.37703">
        <ele>29.4</ele>
        <time>2021-07-11T13:07:08Z</time>
      </trkpt>
      <trkpt lat="49.84978" lon="2.37704">
        <ele>29.4</ele>
        <time>2021-07-11T13:07:09Z</time>
      </trkpt>
      <trkpt lat="49.84981" lon="2.37706">
        <ele>29.4</ele>
        <time>2021-07-11T13:07:10Z</time>
      </trkpt>
      <trkpt lat="49.84982" lon="2.37707">
        <ele>29.3</ele>
        <time>2021-07-11T13:07:11Z</time>
      </trkpt>
      <trkpt lat="49.84985" lon="2.37708">
        <ele>29.3</ele>
        <time>2021-07-11T13:07:12Z</time>
      </trkpt>
      <trkpt lat="49.84986" lon="2.37708">
        <ele>29.3</ele>
        <time>2021-07-11T13:07:13Z</time>
      </trkpt>
      <trkpt lat="49.84987" lon="2.37709">
        <ele>29.3</ele>
        <time>2021-07-11T13:07:14Z</time>
      </trkpt>
      <trkpt lat="49.84989" lon="2.37709">
        <ele>29.3</ele>
        <time>2021-07-11T13:07:15Z</time>
      </trkpt>
      <trkpt lat="49.84991" lon="2.3771">
        <ele>29.3</ele>
        <time>2021-07-11T13:07:17Z</time>
      </trkpt>
      <trkpt lat="49.84992" lon="2.37711">
        <ele>29.3</ele>
        <time>2021-07-11T13:07:18Z</time>
      </trkpt>
      <trkpt lat="49.84994" lon="2.37711">
        <ele>29.2</ele>
        <time>2021-07-11T13:07:19Z</time>
      </trkpt>
      <trkpt lat="49.84995" lon="2.37711">
        <ele>29.2</ele>
        <time>2021-07-11T13:07:20Z</time>
      </trkpt>
      <trkpt lat="49.84997" lon="2.37712">
        <ele>29.2</ele>
        <time>2021-07-11T13:07:21Z</time>
      </trkpt>
      <trkpt lat="49.84998" lon="2.37712">
        <ele>29.2</ele>
        <time>2021-07-11T13:07:22Z</time>
      </trkpt>
      <trkpt lat="49.85" lon="2.37713">
        <ele>29.2</ele>
        <time>2021-07-11T13:07:23Z</time>
      </trkpt>
      <trkpt lat="49.85001" lon="2.37714">
        <ele>29.2</ele>
        <time>2021-07-11T13:07:24Z</time>
      </trkpt>
      <trkpt lat="49.85004" lon="2.37716">
        <ele>29.2</ele>
        <time>2021-07-11T13:07:25Z</time>
      </trkpt>
      <trkpt lat="49.85005" lon="2.37716">
        <ele>29.2</ele>
        <time>2021-07-11T13:07:27Z</time>
      </trkpt>
      <trkpt lat="49.85007" lon="2.37717">
        <ele>29.2</ele>
        <time>2021-07-11T13:07:28Z</time>
      </trkpt>
      <trkpt lat="49.85008" lon="2.37718">
        <ele>29.1</ele>
        <time>2021-07-11T13:07:29Z</time>
      </trkpt>
      <trkpt lat="49.85009" lon="2.37718">
        <ele>29.1</ele>
        <time>2021-07-11T13:07:30Z</time>
      </trkpt>
      <trkpt lat="49.85011" lon="2.37719">
        <ele>29.1</ele>
        <time>2021-07-11T13:07:31Z</time>
      </trkpt>
      <trkpt lat="49.85012" lon="2.37719">
        <ele>29.1</ele>
        <time>2021-07-11T13:07:33Z</time>
      </trkpt>
      <trkpt lat="49.85014" lon="2.37719">
        <ele>29.1</ele>
        <time>2021-07-11T13:07:34Z</time>
      </trkpt>
      <trkpt lat="49.85015" lon="2.3772">
        <ele>29.1</ele>
        <time>2021-07-11T13:07:35Z</time>
      </trkpt>
      <trkpt lat="49.85017" lon="2.3772">
        <ele>29.1</ele>
        <time>2021-07-11T13:07:36Z</time>
      </trkpt>
      <trkpt lat="49.85019" lon="2.3772">
        <ele>29.1</ele>
        <time>2021-07-11T13:07:37Z</time>
      </trkpt>
      <trkpt lat="49.8502" lon="2.3772">
        <ele>29.1</ele>
        <time>2021-07-11T13:07:38Z</time>
      </trkpt>
      <trkpt lat="49.85021" lon="2.37721">
        <ele>29.1</ele>
        <time>2021-07-11T13:07:39Z</time>
      </trkpt>
      <trkpt lat="49.85022" lon="2.37721">
        <ele>29.1</ele>
        <time>2021-07-11T13:07:40Z</time>
      </trkpt>
      <trkpt lat="49.85024" lon="2.37721">
        <ele>29.1</ele>
        <time>2021-07-11T13:07:41Z</time>
      </trkpt>
      <trkpt lat="49.85026" lon="2.37722">
        <ele>29.1</ele>
        <time>2021-07-11T13:07:42Z</time>
      </trkpt>
      <trkpt lat="49.85026" lon="2.37722">
        <ele>29.1</ele>
        <time>2021-07-11T13:07:44Z</time>
      </trkpt>
      <trkpt lat="49.85027" lon="2.37722">
        <ele>29.1</ele>
        <time>2021-07-11T13:07:45Z</time>
      </trkpt>
      <trkpt lat="49.85029" lon="2.37722">
        <ele>29.1</ele>
        <time>2021-07-11T13:07:46Z</time>
      </trkpt>
      <trkpt lat="49.8503" lon="2.37722">
        <ele>29.1</ele>
        <time>2021-07-11T13:07:47Z</time>
      </trkpt>
      <trkpt lat="49.85031" lon="2.37723">
        <ele>29.1</ele>
        <time>2021-07-11T13:07:48Z</time>
      </trkpt>
      <trkpt lat="49.85032" lon="2.37723">
        <ele>29.1</ele>
        <time>2021-07-11T13:07:49Z</time>
      </trkpt>
      <trkpt lat="49.85033" lon="2.37723">
        <ele>29.1</ele>
        <time>2021-07-11T13:07:50Z</time>
      </trkpt>
      <trkpt lat="49.85034" lon="2.37724">
        <ele>29.1</ele>
        <time>2021-07-11T13:07:51Z</time>
      </trkpt>
      <trkpt lat="49.85035" lon="2.37724">
        <ele>29.1</ele>
        <time>2021-07-11T13:07:52Z</time>
      </trkpt>
      <trkpt lat="49.85036" lon="2.37724">
        <ele>29.1</ele>
        <time>2021-07-11T13:07:53Z</time>
      </trkpt>
      <trkpt lat="49.85037" lon="2.37724">
        <ele>29.1</ele>
        <time>2021-07-11T13:07:54Z</time>
      </trkpt>
      <trkpt lat="49.85038" lon="2.37725">
        <ele>29.1</ele>
        <time>2021-07-11T13:07:56Z</time>
      </trkpt>
      <trkpt lat="49.85039" lon="2.37725">
        <ele>29.1</ele>
        <time>2021-07-11T13:07:57Z</time>
      </trkpt>
      <trkpt lat="49.8504" lon="2.37725">
        <ele>29.1</ele>
        <time>2021-07-11T13:07:58Z</time>
      </trkpt>
      <trkpt lat="49.8504" lon="2.37724">
        <ele>29.1</ele>
        <time>2021-07-11T13:07:59Z</time>
      </trkpt>
      <trkpt lat="49.85041" lon="2.37724">
        <ele>29.1</ele>
        <time>2021-07-11T13:08:00Z</time>
      </trkpt>
      <trkpt lat="49.85042" lon="2.37724">
        <ele>29.1</ele>
        <time>2021-07-11T13:08:01Z</time>
      </trkpt>
      <trkpt lat="49.85042" lon="2.37723">
        <ele>29.1</ele>
        <time>2021-07-11T13:08:02Z</time>
      </trkpt>
      <trkpt lat="49.85043" lon="2.37723">
        <ele>29.1</ele>
        <time>2021-07-11T13:08:03Z</time>
      </trkpt>
      <trkpt lat="49.85045" lon="2.37722">
        <ele>29.1</ele>
        <time>2021-07-11T13:08:04Z</time>
      </trkpt>
      <trkpt lat="49.85046" lon="2.37722">
        <ele>29.1</ele>
        <time>2021-07-11T13:08:06Z</time>
      </trkpt>
      <trkpt lat="49.85049" lon="2.37722">
        <ele>29.1</ele>
        <time>2021-07-11T13:08:07Z</time>
      </trkpt>
      <trkpt lat="49.8505" lon="2.37722">
        <ele>29.1</ele>
        <time>2021-07-11T13:08:08Z</time>
      </trkpt>
      <trkpt lat="49.85051" lon="2.37722">
        <ele>29</ele>
        <time>2021-07-11T13:08:09Z</time>
      </trkpt>
      <trkpt lat="49.85052" lon="2.37722">
        <ele>29</ele>
        <time>2021-07-11T13:08:10Z</time>
      </trkpt>
      <trkpt lat="49.85054" lon="2.37721">
        <ele>29</ele>
        <time>2021-07-11T13:08:11Z</time>
      </trkpt>
      <trkpt lat="49.85055" lon="2.37721">
        <ele>29</ele>
        <time>2021-07-11T13:08:12Z</time>
      </trkpt>
      <trkpt lat="49.85056" lon="2.37721">
        <ele>29</ele>
        <time>2021-07-11T13:08:13Z</time>
      </trkpt>
      <trkpt lat="49.85058" lon="2.37721">
        <ele>29</ele>
        <time>2021-07-11T13:08:15Z</time>
      </trkpt>
      <trkpt lat="49.8506" lon="2.3772">
        <ele>29</ele>
        <time>2021-07-11T13:08:16Z</time>
      </trkpt>
      <trkpt lat="49.85061" lon="2.3772">
        <ele>29.1</ele>
        <time>2021-07-11T13:08:17Z</time>
      </trkpt>
      <trkpt lat="49.85062" lon="2.3772">
        <ele>29.1</ele>
        <time>2021-07-11T13:08:18Z</time>
      </trkpt>
      <trkpt lat="49.85064" lon="2.3772">
        <ele>29.1</ele>
        <time>2021-07-11T13:08:20Z</time>
      </trkpt>
      <trkpt lat="49.85065" lon="2.37719">
        <ele>29.1</ele>
        <time>2021-07-11T13:08:21Z</time>
      </trkpt>
      <trkpt lat="49.85069" lon="2.37719">
        <ele>29.1</ele>
        <time>2021-07-11T13:08:23Z</time>
      </trkpt>
      <trkpt lat="49.8507" lon="2.37719">
        <ele>29.1</ele>
        <time>2021-07-11T13:08:24Z</time>
      </trkpt>
      <trkpt lat="49.85071" lon="2.37719">
        <ele>29.1</ele>
        <time>2021-07-11T13:08:25Z</time>
      </trkpt>
      <trkpt lat="49.85073" lon="2.3772">
        <ele>29.1</ele>
        <time>2021-07-11T13:08:26Z</time>
      </trkpt>
      <trkpt lat="49.85074" lon="2.3772">
        <ele>29.1</ele>
        <time>2021-07-11T13:08:27Z</time>
      </trkpt>
      <trkpt lat="49.85075" lon="2.3772">
        <ele>29.1</ele>
        <time>2021-07-11T13:08:28Z</time>
      </trkpt>
      <trkpt lat="49.85077" lon="2.3772">
        <ele>29.1</ele>
        <time>2021-07-11T13:08:29Z</time>
      </trkpt>
      <trkpt lat="49.85078" lon="2.37721">
        <ele>29.1</ele>
        <time>2021-07-11T13:08:30Z</time>
      </trkpt>
      <trkpt lat="49.8508" lon="2.37721">
        <ele>29.1</ele>
        <time>2021-07-11T13:08:32Z</time>
      </trkpt>
      <trkpt lat="49.85081" lon="2.37722">
        <ele>29.1</ele>
        <time>2021-07-11T13:08:33Z</time>
      </trkpt>
      <trkpt lat="49.85081" lon="2.37722">
        <ele>29.1</ele>
        <time>2021-07-11T13:08:34Z</time>
      </trkpt>
      <trkpt lat="49.85083" lon="2.37723">
        <ele>29.1</ele>
        <time>2021-07-11T13:08:36Z</time>
      </trkpt>
      <trkpt lat="49.85084" lon="2.37723">
        <ele>29.1</ele>
        <time>2021-07-11T13:08:37Z</time>
      </trkpt>
      <trkpt lat="49.85084" lon="2.37723">
        <ele>29.1</ele>
        <time>2021-07-11T13:08:39Z</time>
      </trkpt>
      <trkpt lat="49.85084" lon="2.37723">
        <ele>29.1</ele>
        <time>2021-07-11T13:08:41Z</time>
      </trkpt>
      <trkpt lat="49.85083" lon="2.37723">
        <ele>29.1</ele>
        <time>2021-07-11T13:08:42Z</time>
      </trkpt>
      <trkpt lat="49.85083" lon="2.37724">
        <ele>29.1</ele>
        <time>2021-07-11T13:08:43Z</time>
      </trkpt>
      <trkpt lat="49.85084" lon="2.37724">
        <ele>29.1</ele>
        <time>2021-07-11T13:08:44Z</time>
      </trkpt>
      <trkpt lat="49.85084" lon="2.37724">
        <ele>29.1</ele>
        <time>2021-07-11T13:08:46Z</time>
      </trkpt>
      <trkpt lat="49.85085" lon="2.37724">
        <ele>29.1</ele>
        <time>2021-07-11T13:08:47Z</time>
      </trkpt>
      <trkpt lat="49.85086" lon="2.37724">
        <ele>29.1</ele>
        <time>2021-07-11T13:08:48Z</time>
      </trkpt>
      <trkpt lat="49.85087" lon="2.37724">
        <ele>29.1</ele>
        <time>2021-07-11T13:08:49Z</time>
      </trkpt>
      <trkpt lat="49.85088" lon="2.37725">
        <ele>29.1</ele>
        <time>2021-07-11T13:08:50Z</time>
      </trkpt>
      <trkpt lat="49.8509" lon="2.37725">
        <ele>29.1</ele>
        <time>2021-07-11T13:08:51Z</time>
      </trkpt>
      <trkpt lat="49.85092" lon="2.37726">
        <ele>29.1</ele>
        <time>2021-07-11T13:08:52Z</time>
      </trkpt>
      <trkpt lat="49.85093" lon="2.37726">
        <ele>29.1</ele>
        <time>2021-07-11T13:08:54Z</time>
      </trkpt>
      <trkpt lat="49.85095" lon="2.37727">
        <ele>29.1</ele>
        <time>2021-07-11T13:08:55Z</time>
      </trkpt>
      <trkpt lat="49.85096" lon="2.37727">
        <ele>29.1</ele>
        <time>2021-07-11T13:08:56Z</time>
      </trkpt>
      <trkpt lat="49.85097" lon="2.37728">
        <ele>29.1</ele>
        <time>2021-07-11T13:08:57Z</time>
      </trkpt>
      <trkpt lat="49.85099" lon="2.37728">
        <ele>29.1</ele>
        <time>2021-07-11T13:08:58Z</time>
      </trkpt>
      <trkpt lat="49.85101" lon="2.37729">
        <ele>29.1</ele>
        <time>2021-07-11T13:09:00Z</time>
      </trkpt>
      <trkpt lat="49.85102" lon="2.3773">
        <ele>29.1</ele>
        <time>2021-07-11T13:09:01Z</time>
      </trkpt>
      <trkpt lat="49.85103" lon="2.3773">
        <ele>29.1</ele>
        <time>2021-07-11T13:09:02Z</time>
      </trkpt>
      <trkpt lat="49.85103" lon="2.37731">
        <ele>29.1</ele>
        <time>2021-07-11T13:09:03Z</time>
      </trkpt>
      <trkpt lat="49.85104" lon="2.37731">
        <ele>29.1</ele>
        <time>2021-07-11T13:09:04Z</time>
      </trkpt>
      <trkpt lat="49.85105" lon="2.37731">
        <ele>29.1</ele>
        <time>2021-07-11T13:09:05Z</time>
      </trkpt>
      <trkpt lat="49.85107" lon="2.37731">
        <ele>29.1</ele>
        <time>2021-07-11T13:09:06Z</time>
      </trkpt>
      <trkpt lat="49.85108" lon="2.37731">
        <ele>29.1</ele>
        <time>2021-07-11T13:09:07Z</time>
      </trkpt>
      <trkpt lat="49.85109" lon="2.37731">
        <ele>29.1</ele>
        <time>2021-07-11T13:09:08Z</time>
      </trkpt>
      <trkpt lat="49.85111" lon="2.37731">
        <ele>29.1</ele>
        <time>2021-07-11T13:09:09Z</time>
      </trkpt>
      <trkpt lat="49.85112" lon="2.37731">
        <ele>29.1</ele>
        <time>2021-07-11T13:09:11Z</time>
      </trkpt>
      <trkpt lat="49.85113" lon="2.37731">
        <ele>29.1</ele>
        <time>2021-07-11T13:09:12Z</time>
      </trkpt>
      <trkpt lat="49.85114" lon="2.37731">
        <ele>29.1</ele>
        <time>2021-07-11T13:09:13Z</time>
      </trkpt>
      <trkpt lat="49.85116" lon="2.37731">
        <ele>29.1</ele>
        <time>2021-07-11T13:09:14Z</time>
      </trkpt>
      <trkpt lat="49.85117" lon="2.37731">
        <ele>29.1</ele>
        <time>2021-07-11T13:09:15Z</time>
      </trkpt>
      <trkpt lat="49.85118" lon="2.37731">
        <ele>29.1</ele>
        <time>2021-07-11T13:09:16Z</time>
      </trkpt>
      <trkpt lat="49.8512" lon="2.3773">
        <ele>29.1</ele>
        <time>2021-07-11T13:09:17Z</time>
      </trkpt>
      <trkpt lat="49.85121" lon="2.3773">
        <ele>29.1</ele>
        <time>2021-07-11T13:09:19Z</time>
      </trkpt>
      <trkpt lat="49.85123" lon="2.3773">
        <ele>29.1</ele>
        <time>2021-07-11T13:09:20Z</time>
      </trkpt>
      <trkpt lat="49.85124" lon="2.37729">
        <ele>29</ele>
        <time>2021-07-11T13:09:21Z</time>
      </trkpt>
      <trkpt lat="49.85125" lon="2.37729">
        <ele>29</ele>
        <time>2021-07-11T13:09:22Z</time>
      </trkpt>
      <trkpt lat="49.85127" lon="2.37729">
        <ele>29</ele>
        <time>2021-07-11T13:09:23Z</time>
      </trkpt>
      <trkpt lat="49.85128" lon="2.37729">
        <ele>29</ele>
        <time>2021-07-11T13:09:24Z</time>
      </trkpt>
      <trkpt lat="49.8513" lon="2.37728">
        <ele>29</ele>
        <time>2021-07-11T13:09:25Z</time>
      </trkpt>
      <trkpt lat="49.85131" lon="2.37728">
        <ele>29</ele>
        <time>2021-07-11T13:09:27Z</time>
      </trkpt>
      <trkpt lat="49.85133" lon="2.37728">
        <ele>29</ele>
        <time>2021-07-11T13:09:28Z</time>
      </trkpt>
      <trkpt lat="49.85134" lon="2.37727">
        <ele>29</ele>
        <time>2021-07-11T13:09:29Z</time>
      </trkpt>
      <trkpt lat="49.85136" lon="2.37727">
        <ele>29</ele>
        <time>2021-07-11T13:09:30Z</time>
      </trkpt>
      <trkpt lat="49.85137" lon="2.37726">
        <ele>28.9</ele>
        <time>2021-07-11T13:09:31Z</time>
      </trkpt>
      <trkpt lat="49.85138" lon="2.37725">
        <ele>28.9</ele>
        <time>2021-07-11T13:09:32Z</time>
      </trkpt>
      <trkpt lat="49.8514" lon="2.37725">
        <ele>28.9</ele>
        <time>2021-07-11T13:09:33Z</time>
      </trkpt>
      <trkpt lat="49.85141" lon="2.37725">
        <ele>28.9</ele>
        <time>2021-07-11T13:09:34Z</time>
      </trkpt>
      <trkpt lat="49.85142" lon="2.37725">
        <ele>28.9</ele>
        <time>2021-07-11T13:09:35Z</time>
      </trkpt>
      <trkpt lat="49.85143" lon="2.37724">
        <ele>28.9</ele>
        <time>2021-07-11T13:09:36Z</time>
      </trkpt>
      <trkpt lat="49.85144" lon="2.37724">
        <ele>28.9</ele>
        <time>2021-07-11T13:09:37Z</time>
      </trkpt>
      <trkpt lat="49.85145" lon="2.37723">
        <ele>28.9</ele>
        <time>2021-07-11T13:09:38Z</time>
      </trkpt>
      <trkpt lat="49.85146" lon="2.37723">
        <ele>28.9</ele>
        <time>2021-07-11T13:09:40Z</time>
      </trkpt>
      <trkpt lat="49.85147" lon="2.37722">
        <ele>28.9</ele>
        <time>2021-07-11T13:09:41Z</time>
      </trkpt>
      <trkpt lat="49.85148" lon="2.37722">
        <ele>28.9</ele>
        <time>2021-07-11T13:09:42Z</time>
      </trkpt>
      <trkpt lat="49.8515" lon="2.37722">
        <ele>28.9</ele>
        <time>2021-07-11T13:09:43Z</time>
      </trkpt>
      <trkpt lat="49.85151" lon="2.37722">
        <ele>28.9</ele>
        <time>2021-07-11T13:09:44Z</time>
      </trkpt>
      <trkpt lat="49.85152" lon="2.37722">
        <ele>28.8</ele>
        <time>2021-07-11T13:09:45Z</time>
      </trkpt>
      <trkpt lat="49.85153" lon="2.37722">
        <ele>28.8</ele>
        <time>2021-07-11T13:09:46Z</time>
      </trkpt>
      <trkpt lat="49.85155" lon="2.37722">
        <ele>28.8</ele>
        <time>2021-07-11T13:09:47Z</time>
      </trkpt>
      <trkpt lat="49.85156" lon="2.37723">
        <ele>28.8</ele>
        <time>2021-07-11T13:09:49Z</time>
      </trkpt>
      <trkpt lat="49.85158" lon="2.37724">
        <ele>28.8</ele>
        <time>2021-07-11T13:09:50Z</time>
      </trkpt>
      <trkpt lat="49.8516" lon="2.37725">
        <ele>28.8</ele>
        <time>2021-07-11T13:09:52Z</time>
      </trkpt>
      <trkpt lat="49.85161" lon="2.37725">
        <ele>28.8</ele>
        <time>2021-07-11T13:09:53Z</time>
      </trkpt>
      <trkpt lat="49.85163" lon="2.37725">
        <ele>28.8</ele>
        <time>2021-07-11T13:09:54Z</time>
      </trkpt>
      <trkpt lat="49.85164" lon="2.37726">
        <ele>28.8</ele>
        <time>2021-07-11T13:09:55Z</time>
      </trkpt>
      <trkpt lat="49.85166" lon="2.37727">
        <ele>28.8</ele>
        <time>2021-07-11T13:09:56Z</time>
      </trkpt>
      <trkpt lat="49.85167" lon="2.37729">
        <ele>28.8</ele>
        <time>2021-07-11T13:09:57Z</time>
      </trkpt>
      <trkpt lat="49.85168" lon="2.3773">
        <ele>28.7</ele>
        <time>2021-07-11T13:09:58Z</time>
      </trkpt>
      <trkpt lat="49.85169" lon="2.3773">
        <ele>28.7</ele>
        <time>2021-07-11T13:09:59Z</time>
      </trkpt>
      <trkpt lat="49.85171" lon="2.37731">
        <ele>28.7</ele>
        <time>2021-07-11T13:10:00Z</time>
      </trkpt>
      <trkpt lat="49.85172" lon="2.37731">
        <ele>28.7</ele>
        <time>2021-07-11T13:10:01Z</time>
      </trkpt>
      <trkpt lat="49.85174" lon="2.37731">
        <ele>28.7</ele>
        <time>2021-07-11T13:10:03Z</time>
      </trkpt>
      <trkpt lat="49.85175" lon="2.37732">
        <ele>28.7</ele>
        <time>2021-07-11T13:10:04Z</time>
      </trkpt>
      <trkpt lat="49.85176" lon="2.37732">
        <ele>28.7</ele>
        <time>2021-07-11T13:10:05Z</time>
      </trkpt>
      <trkpt lat="49.85179" lon="2.37732">
        <ele>28.7</ele>
        <time>2021-07-11T13:10:07Z</time>
      </trkpt>
      <trkpt lat="49.8518" lon="2.37733">
        <ele>28.7</ele>
        <time>2021-07-11T13:10:08Z</time>
      </trkpt>
      <trkpt lat="49.85182" lon="2.37733">
        <ele>28.7</ele>
        <time>2021-07-11T13:10:09Z</time>
      </trkpt>
      <trkpt lat="49.85183" lon="2.37733">
        <ele>28.6</ele>
        <time>2021-07-11T13:10:10Z</time>
      </trkpt>
      <trkpt lat="49.85184" lon="2.37733">
        <ele>28.6</ele>
        <time>2021-07-11T13:10:11Z</time>
      </trkpt>
      <trkpt lat="49.85185" lon="2.37734">
        <ele>28.6</ele>
        <time>2021-07-11T13:10:12Z</time>
      </trkpt>
      <trkpt lat="49.85186" lon="2.37734">
        <ele>28.6</ele>
        <time>2021-07-11T13:10:13Z</time>
      </trkpt>
      <trkpt lat="49.85187" lon="2.37734">
        <ele>28.6</ele>
        <time>2021-07-11T13:10:15Z</time>
      </trkpt>
      <trkpt lat="49.85188" lon="2.37735">
        <ele>28.6</ele>
        <time>2021-07-11T13:10:16Z</time>
      </trkpt>
      <trkpt lat="49.85189" lon="2.37735">
        <ele>28.6</ele>
        <time>2021-07-11T13:10:17Z</time>
      </trkpt>
      <trkpt lat="49.8519" lon="2.37735">
        <ele>28.6</ele>
        <time>2021-07-11T13:10:18Z</time>
      </trkpt>
      <trkpt lat="49.85192" lon="2.37735">
        <ele>28.6</ele>
        <time>2021-07-11T13:10:19Z</time>
      </trkpt>
      <trkpt lat="49.85193" lon="2.37736">
        <ele>28.5</ele>
        <time>2021-07-11T13:10:20Z</time>
      </trkpt>
      <trkpt lat="49.85195" lon="2.37737">
        <ele>28.5</ele>
        <time>2021-07-11T13:10:22Z</time>
      </trkpt>
      <trkpt lat="49.85196" lon="2.37737">
        <ele>28.5</ele>
        <time>2021-07-11T13:10:23Z</time>
      </trkpt>
      <trkpt lat="49.85197" lon="2.37738">
        <ele>28.5</ele>
        <time>2021-07-11T13:10:24Z</time>
      </trkpt>
      <trkpt lat="49.85198" lon="2.37738">
        <ele>28.5</ele>
        <time>2021-07-11T13:10:25Z</time>
      </trkpt>
      <trkpt lat="49.85199" lon="2.37738">
        <ele>28.4</ele>
        <time>2021-07-11T13:10:26Z</time>
      </trkpt>
      <trkpt lat="49.852" lon="2.37739">
        <ele>28.4</ele>
        <time>2021-07-11T13:10:27Z</time>
      </trkpt>
      <trkpt lat="49.85201" lon="2.37739">
        <ele>28.4</ele>
        <time>2021-07-11T13:10:28Z</time>
      </trkpt>
      <trkpt lat="49.85204" lon="2.3774">
        <ele>28.4</ele>
        <time>2021-07-11T13:10:29Z</time>
      </trkpt>
      <trkpt lat="49.85204" lon="2.37741">
        <ele>28.4</ele>
        <time>2021-07-11T13:10:30Z</time>
      </trkpt>
      <trkpt lat="49.85205" lon="2.37742">
        <ele>28.4</ele>
        <time>2021-07-11T13:10:31Z</time>
      </trkpt>
      <trkpt lat="49.85207" lon="2.37743">
        <ele>28.3</ele>
        <time>2021-07-11T13:10:33Z</time>
      </trkpt>
      <trkpt lat="49.85208" lon="2.37743">
        <ele>28.3</ele>
        <time>2021-07-11T13:10:34Z</time>
      </trkpt>
      <trkpt lat="49.85209" lon="2.37743">
        <ele>28.3</ele>
        <time>2021-07-11T13:10:35Z</time>
      </trkpt>
      <trkpt lat="49.85211" lon="2.37744">
        <ele>28.3</ele>
        <time>2021-07-11T13:10:36Z</time>
      </trkpt>
      <trkpt lat="49.85212" lon="2.37744">
        <ele>28.3</ele>
        <time>2021-07-11T13:10:37Z</time>
      </trkpt>
      <trkpt lat="49.85213" lon="2.37744">
        <ele>28.3</ele>
        <time>2021-07-11T13:10:38Z</time>
      </trkpt>
      <trkpt lat="49.85214" lon="2.37745">
        <ele>28.3</ele>
        <time>2021-07-11T13:10:39Z</time>
      </trkpt>
      <trkpt lat="49.85216" lon="2.37745">
        <ele>28.3</ele>
        <time>2021-07-11T13:10:40Z</time>
      </trkpt>
      <trkpt lat="49.85217" lon="2.37746">
        <ele>28.2</ele>
        <time>2021-07-11T13:10:41Z</time>
      </trkpt>
      <trkpt lat="49.85219" lon="2.37746">
        <ele>28.2</ele>
        <time>2021-07-11T13:10:42Z</time>
      </trkpt>
      <trkpt lat="49.85221" lon="2.37746">
        <ele>28.2</ele>
        <time>2021-07-11T13:10:43Z</time>
      </trkpt>
      <trkpt lat="49.85222" lon="2.37747">
        <ele>28.2</ele>
        <time>2021-07-11T13:10:44Z</time>
      </trkpt>
      <trkpt lat="49.85224" lon="2.37747">
        <ele>28.2</ele>
        <time>2021-07-11T13:10:45Z</time>
      </trkpt>
      <trkpt lat="49.85226" lon="2.37747">
        <ele>28.2</ele>
        <time>2021-07-11T13:10:47Z</time>
      </trkpt>
      <trkpt lat="49.85227" lon="2.37747">
        <ele>28.1</ele>
        <time>2021-07-11T13:10:48Z</time>
      </trkpt>
      <trkpt lat="49.85229" lon="2.37747">
        <ele>28.1</ele>
        <time>2021-07-11T13:10:49Z</time>
      </trkpt>
      <trkpt lat="49.8523" lon="2.37748">
        <ele>28.1</ele>
        <time>2021-07-11T13:10:50Z</time>
      </trkpt>
      <trkpt lat="49.85232" lon="2.37748">
        <ele>28.1</ele>
        <time>2021-07-11T13:10:51Z</time>
      </trkpt>
      <trkpt lat="49.85234" lon="2.37748">
        <ele>28.1</ele>
        <time>2021-07-11T13:10:52Z</time>
      </trkpt>
      <trkpt lat="49.85235" lon="2.37748">
        <ele>28.1</ele>
        <time>2021-07-11T13:10:53Z</time>
      </trkpt>
      <trkpt lat="49.85236" lon="2.37748">
        <ele>28.1</ele>
        <time>2021-07-11T13:10:54Z</time>
      </trkpt>
      <trkpt lat="49.85238" lon="2.37749">
        <ele>28</ele>
        <time>2021-07-11T13:10:55Z</time>
      </trkpt>
      <trkpt lat="49.85239" lon="2.37749">
        <ele>28</ele>
        <time>2021-07-11T13:10:56Z</time>
      </trkpt>
      <trkpt lat="49.8524" lon="2.37749">
        <ele>28</ele>
        <time>2021-07-11T13:10:57Z</time>
      </trkpt>
      <trkpt lat="49.85241" lon="2.37749">
        <ele>28</ele>
        <time>2021-07-11T13:10:58Z</time>
      </trkpt>
      <trkpt lat="49.85242" lon="2.3775">
        <ele>28</ele>
        <time>2021-07-11T13:10:59Z</time>
      </trkpt>
      <trkpt lat="49.85244" lon="2.3775">
        <ele>28</ele>
        <time>2021-07-11T13:11:00Z</time>
      </trkpt>
      <trkpt lat="49.85245" lon="2.3775">
        <ele>28</ele>
        <time>2021-07-11T13:11:01Z</time>
      </trkpt>
      <trkpt lat="49.85246" lon="2.37751">
        <ele>28</ele>
        <time>2021-07-11T13:11:03Z</time>
      </trkpt>
      <trkpt lat="49.85247" lon="2.37752">
        <ele>28</ele>
        <time>2021-07-11T13:11:04Z</time>
      </trkpt>
      <trkpt lat="49.85248" lon="2.37753">
        <ele>28</ele>
        <time>2021-07-11T13:11:05Z</time>
      </trkpt>
      <trkpt lat="49.8525" lon="2.37755">
        <ele>28</ele>
        <time>2021-07-11T13:11:06Z</time>
      </trkpt>
      <trkpt lat="49.85251" lon="2.37756">
        <ele>27.9</ele>
        <time>2021-07-11T13:11:07Z</time>
      </trkpt>
      <trkpt lat="49.85252" lon="2.37759">
        <ele>27.9</ele>
        <time>2021-07-11T13:11:09Z</time>
      </trkpt>
      <trkpt lat="49.85253" lon="2.3776">
        <ele>27.9</ele>
        <time>2021-07-11T13:11:10Z</time>
      </trkpt>
      <trkpt lat="49.85254" lon="2.37761">
        <ele>27.9</ele>
        <time>2021-07-11T13:11:11Z</time>
      </trkpt>
      <trkpt lat="49.85255" lon="2.37764">
        <ele>27.9</ele>
        <time>2021-07-11T13:11:12Z</time>
      </trkpt>
      <trkpt lat="49.85256" lon="2.37765">
        <ele>27.9</ele>
        <time>2021-07-11T13:11:14Z</time>
      </trkpt>
      <trkpt lat="49.85256" lon="2.37766">
        <ele>27.9</ele>
        <time>2021-07-11T13:11:15Z</time>
      </trkpt>
      <trkpt lat="49.85257" lon="2.37769">
        <ele>27.9</ele>
        <time>2021-07-11T13:11:16Z</time>
      </trkpt>
      <trkpt lat="49.85258" lon="2.3777">
        <ele>27.9</ele>
        <time>2021-07-11T13:11:17Z</time>
      </trkpt>
      <trkpt lat="49.85258" lon="2.37771">
        <ele>27.9</ele>
        <time>2021-07-11T13:11:18Z</time>
      </trkpt>
      <trkpt lat="49.8526" lon="2.37774">
        <ele>27.9</ele>
        <time>2021-07-11T13:11:19Z</time>
      </trkpt>
      <trkpt lat="49.8526" lon="2.37775">
        <ele>27.9</ele>
        <time>2021-07-11T13:11:20Z</time>
      </trkpt>
      <trkpt lat="49.85261" lon="2.37776">
        <ele>27.9</ele>
        <time>2021-07-11T13:11:21Z</time>
      </trkpt>
      <trkpt lat="49.85262" lon="2.37778">
        <ele>27.9</ele>
        <time>2021-07-11T13:11:22Z</time>
      </trkpt>
      <trkpt lat="49.85263" lon="2.37781">
        <ele>27.8</ele>
        <time>2021-07-11T13:11:24Z</time>
      </trkpt>
      <trkpt lat="49.85263" lon="2.37783">
        <ele>27.8</ele>
        <time>2021-07-11T13:11:25Z</time>
      </trkpt>
      <trkpt lat="49.85264" lon="2.37785">
        <ele>27.8</ele>
        <time>2021-07-11T13:11:26Z</time>
      </trkpt>
      <trkpt lat="49.85264" lon="2.37787">
        <ele>27.8</ele>
        <time>2021-07-11T13:11:28Z</time>
      </trkpt>
      <trkpt lat="49.85264" lon="2.37789">
        <ele>27.8</ele>
        <time>2021-07-11T13:11:29Z</time>
      </trkpt>
      <trkpt lat="49.85264" lon="2.3779">
        <ele>27.8</ele>
        <time>2021-07-11T13:11:30Z</time>
      </trkpt>
      <trkpt lat="49.85265" lon="2.37792">
        <ele>27.8</ele>
        <time>2021-07-11T13:11:31Z</time>
      </trkpt>
      <trkpt lat="49.85266" lon="2.37794">
        <ele>27.8</ele>
        <time>2021-07-11T13:11:32Z</time>
      </trkpt>
      <trkpt lat="49.85267" lon="2.37796">
        <ele>27.8</ele>
        <time>2021-07-11T13:11:33Z</time>
      </trkpt>
      <trkpt lat="49.85268" lon="2.37797">
        <ele>27.8</ele>
        <time>2021-07-11T13:11:34Z</time>
      </trkpt>
      <trkpt lat="49.85269" lon="2.37799">
        <ele>27.8</ele>
        <time>2021-07-11T13:11:36Z</time>
      </trkpt>
      <trkpt lat="49.8527" lon="2.378">
        <ele>27.8</ele>
        <time>2021-07-11T13:11:37Z</time>
      </trkpt>
      <trkpt lat="49.85271" lon="2.37802">
        <ele>27.8</ele>
        <time>2021-07-11T13:11:38Z</time>
      </trkpt>
      <trkpt lat="49.85272" lon="2.37803">
        <ele>27.8</ele>
        <time>2021-07-11T13:11:39Z</time>
      </trkpt>
      <trkpt lat="49.85272" lon="2.37805">
        <ele>27.8</ele>
        <time>2021-07-11T13:11:40Z</time>
      </trkpt>
      <trkpt lat="49.85273" lon="2.37808">
        <ele>27.8</ele>
        <time>2021-07-11T13:11:41Z</time>
      </trkpt>
      <trkpt lat="49.85274" lon="2.37809">
        <ele>27.8</ele>
        <time>2021-07-11T13:11:43Z</time>
      </trkpt>
      <trkpt lat="49.85275" lon="2.3781">
        <ele>27.8</ele>
        <time>2021-07-11T13:11:44Z</time>
      </trkpt>
      <trkpt lat="49.85275" lon="2.37812">
        <ele>27.8</ele>
        <time>2021-07-11T13:11:45Z</time>
      </trkpt>
      <trkpt lat="49.85276" lon="2.37813">
        <ele>27.8</ele>
        <time>2021-07-11T13:11:46Z</time>
      </trkpt>
      <trkpt lat="49.85277" lon="2.37815">
        <ele>27.8</ele>
        <time>2021-07-11T13:11:47Z</time>
      </trkpt>
      <trkpt lat="49.85277" lon="2.37817">
        <ele>27.8</ele>
        <time>2021-07-11T13:11:48Z</time>
      </trkpt>
      <trkpt lat="49.85278" lon="2.3782">
        <ele>27.8</ele>
        <time>2021-07-11T13:11:49Z</time>
      </trkpt>
      <trkpt lat="49.85279" lon="2.37822">
        <ele>27.8</ele>
        <time>2021-07-11T13:11:50Z</time>
      </trkpt>
      <trkpt lat="49.85279" lon="2.37824">
        <ele>27.9</ele>
        <time>2021-07-11T13:11:51Z</time>
      </trkpt>
      <trkpt lat="49.8528" lon="2.37825">
        <ele>27.9</ele>
        <time>2021-07-11T13:11:53Z</time>
      </trkpt>
      <trkpt lat="49.8528" lon="2.37827">
        <ele>27.9</ele>
        <time>2021-07-11T13:11:54Z</time>
      </trkpt>
      <trkpt lat="49.85281" lon="2.37829">
        <ele>27.9</ele>
        <time>2021-07-11T13:11:55Z</time>
      </trkpt>
      <trkpt lat="49.85281" lon="2.37831">
        <ele>27.9</ele>
        <time>2021-07-11T13:11:56Z</time>
      </trkpt>
      <trkpt lat="49.85282" lon="2.37833">
        <ele>27.9</ele>
        <time>2021-07-11T13:11:57Z</time>
      </trkpt>
      <trkpt lat="49.85282" lon="2.37836">
        <ele>27.9</ele>
        <time>2021-07-11T13:11:58Z</time>
      </trkpt>
      <trkpt lat="49.85283" lon="2.37838">
        <ele>27.9</ele>
        <time>2021-07-11T13:11:59Z</time>
      </trkpt>
      <trkpt lat="49.85284" lon="2.37841">
        <ele>27.9</ele>
        <time>2021-07-11T13:12:00Z</time>
      </trkpt>
      <trkpt lat="49.85284" lon="2.37842">
        <ele>27.9</ele>
        <time>2021-07-11T13:12:01Z</time>
      </trkpt>
      <trkpt lat="49.85284" lon="2.37843">
        <ele>27.9</ele>
        <time>2021-07-11T13:12:02Z</time>
      </trkpt>
      <trkpt lat="49.85285" lon="2.37845">
        <ele>27.9</ele>
        <time>2021-07-11T13:12:04Z</time>
      </trkpt>
      <trkpt lat="49.85286" lon="2.37847">
        <ele>27.9</ele>
        <time>2021-07-11T13:12:05Z</time>
      </trkpt>
      <trkpt lat="49.85287" lon="2.37849">
        <ele>27.9</ele>
        <time>2021-07-11T13:12:06Z</time>
      </trkpt>
      <trkpt lat="49.85287" lon="2.37851">
        <ele>27.9</ele>
        <time>2021-07-11T13:12:08Z</time>
      </trkpt>
      <trkpt lat="49.85288" lon="2.37852">
        <ele>27.9</ele>
        <time>2021-07-11T13:12:09Z</time>
      </trkpt>
      <trkpt lat="49.85288" lon="2.37854">
        <ele>27.9</ele>
        <time>2021-07-11T13:12:10Z</time>
      </trkpt>
      <trkpt lat="49.85289" lon="2.37855">
        <ele>27.9</ele>
        <time>2021-07-11T13:12:11Z</time>
      </trkpt>
      <trkpt lat="49.8529" lon="2.37856">
        <ele>27.9</ele>
        <time>2021-07-11T13:12:12Z</time>
      </trkpt>
      <trkpt lat="49.85291" lon="2.37857">
        <ele>27.9</ele>
        <time>2021-07-11T13:12:13Z</time>
      </trkpt>
      <trkpt lat="49.85292" lon="2.37858">
        <ele>27.8</ele>
        <time>2021-07-11T13:12:14Z</time>
      </trkpt>
      <trkpt lat="49.85293" lon="2.3786">
        <ele>27.8</ele>
        <time>2021-07-11T13:12:15Z</time>
      </trkpt>
      <trkpt lat="49.85294" lon="2.37862">
        <ele>27.8</ele>
        <time>2021-07-11T13:12:16Z</time>
      </trkpt>
      <trkpt lat="49.85295" lon="2.37863">
        <ele>27.8</ele>
        <time>2021-07-11T13:12:18Z</time>
      </trkpt>
      <trkpt lat="49.85296" lon="2.37865">
        <ele>27.8</ele>
        <time>2021-07-11T13:12:19Z</time>
      </trkpt>
      <trkpt lat="49.85298" lon="2.37867">
        <ele>27.8</ele>
        <time>2021-07-11T13:12:20Z</time>
      </trkpt>
      <trkpt lat="49.85299" lon="2.37868">
        <ele>27.8</ele>
        <time>2021-07-11T13:12:21Z</time>
      </trkpt>
      <trkpt lat="49.85299" lon="2.3787">
        <ele>27.8</ele>
        <time>2021-07-11T13:12:22Z</time>
      </trkpt>
      <trkpt lat="49.853" lon="2.37871">
        <ele>27.8</ele>
        <time>2021-07-11T13:12:23Z</time>
      </trkpt>
      <trkpt lat="49.85301" lon="2.37873">
        <ele>27.7</ele>
        <time>2021-07-11T13:12:24Z</time>
      </trkpt>
      <trkpt lat="49.85302" lon="2.37875">
        <ele>27.7</ele>
        <time>2021-07-11T13:12:25Z</time>
      </trkpt>
      <trkpt lat="49.85303" lon="2.37876">
        <ele>27.7</ele>
        <time>2021-07-11T13:12:26Z</time>
      </trkpt>
      <trkpt lat="49.85303" lon="2.37877">
        <ele>27.7</ele>
        <time>2021-07-11T13:12:27Z</time>
      </trkpt>
      <trkpt lat="49.85305" lon="2.3788">
        <ele>27.7</ele>
        <time>2021-07-11T13:12:29Z</time>
      </trkpt>
      <trkpt lat="49.85305" lon="2.37882">
        <ele>27.7</ele>
        <time>2021-07-11T13:12:30Z</time>
      </trkpt>
      <trkpt lat="49.85305" lon="2.37883">
        <ele>27.7</ele>
        <time>2021-07-11T13:12:31Z</time>
      </trkpt>
      <trkpt lat="49.85306" lon="2.37884">
        <ele>27.6</ele>
        <time>2021-07-11T13:12:32Z</time>
      </trkpt>
      <trkpt lat="49.85307" lon="2.37886">
        <ele>27.6</ele>
        <time>2021-07-11T13:12:33Z</time>
      </trkpt>
      <trkpt lat="49.85307" lon="2.37888">
        <ele>27.6</ele>
        <time>2021-07-11T13:12:34Z</time>
      </trkpt>
      <trkpt lat="49.85308" lon="2.3789">
        <ele>27.6</ele>
        <time>2021-07-11T13:12:35Z</time>
      </trkpt>
      <trkpt lat="49.85309" lon="2.37892">
        <ele>27.6</ele>
        <time>2021-07-11T13:12:36Z</time>
      </trkpt>
      <trkpt lat="49.85309" lon="2.37895">
        <ele>27.6</ele>
        <time>2021-07-11T13:12:38Z</time>
      </trkpt>
      <trkpt lat="49.8531" lon="2.37896">
        <ele>27.6</ele>
        <time>2021-07-11T13:12:39Z</time>
      </trkpt>
      <trkpt lat="49.8531" lon="2.37897">
        <ele>27.5</ele>
        <time>2021-07-11T13:12:40Z</time>
      </trkpt>
      <trkpt lat="49.85309" lon="2.379">
        <ele>27.5</ele>
        <time>2021-07-11T13:12:41Z</time>
      </trkpt>
      <trkpt lat="49.85309" lon="2.37901">
        <ele>27.5</ele>
        <time>2021-07-11T13:12:43Z</time>
      </trkpt>
      <trkpt lat="49.85308" lon="2.37902">
        <ele>27.5</ele>
        <time>2021-07-11T13:12:44Z</time>
      </trkpt>
      <trkpt lat="49.85307" lon="2.37904">
        <ele>27</ele>
        <time>2021-07-11T13:12:45Z</time>
      </trkpt>
      <trkpt lat="49.85306" lon="2.37906">
        <ele>27</ele>
        <time>2021-07-11T13:12:46Z</time>
      </trkpt>
      <trkpt lat="49.85304" lon="2.37907">
        <ele>27</ele>
        <time>2021-07-11T13:12:48Z</time>
      </trkpt>
      <trkpt lat="49.85303" lon="2.37907">
        <ele>27</ele>
        <time>2021-07-11T13:12:49Z</time>
      </trkpt>
      <trkpt lat="49.85301" lon="2.37908">
        <ele>26.9</ele>
        <time>2021-07-11T13:12:50Z</time>
      </trkpt>
      <trkpt lat="49.85299" lon="2.37908">
        <ele>26.9</ele>
        <time>2021-07-11T13:12:52Z</time>
      </trkpt>
      <trkpt lat="49.85298" lon="2.37908">
        <ele>26.9</ele>
        <time>2021-07-11T13:12:53Z</time>
      </trkpt>
      <trkpt lat="49.85297" lon="2.37908">
        <ele>26.9</ele>
        <time>2021-07-11T13:12:54Z</time>
      </trkpt>
      <trkpt lat="49.85296" lon="2.37909">
        <ele>26.9</ele>
        <time>2021-07-11T13:12:55Z</time>
      </trkpt>
      <trkpt lat="49.85294" lon="2.37909">
        <ele>26.9</ele>
        <time>2021-07-11T13:12:56Z</time>
      </trkpt>
      <trkpt lat="49.85292" lon="2.37909">
        <ele>26.9</ele>
        <time>2021-07-11T13:12:57Z</time>
      </trkpt>
      <trkpt lat="49.85291" lon="2.3791">
        <ele>26.9</ele>
        <time>2021-07-11T13:12:58Z</time>
      </trkpt>
      <trkpt lat="49.85289" lon="2.3791">
        <ele>26.9</ele>
        <time>2021-07-11T13:12:59Z</time>
      </trkpt>
      <trkpt lat="49.85288" lon="2.37912">
        <ele>26.9</ele>
        <time>2021-07-11T13:13:01Z</time>
      </trkpt>
      <trkpt lat="49.85287" lon="2.37913">
        <ele>26.8</ele>
        <time>2021-07-11T13:13:02Z</time>
      </trkpt>
      <trkpt lat="49.85285" lon="2.37913">
        <ele>26.8</ele>
        <time>2021-07-11T13:13:03Z</time>
      </trkpt>
      <trkpt lat="49.85284" lon="2.37914">
        <ele>26.8</ele>
        <time>2021-07-11T13:13:04Z</time>
      </trkpt>
      <trkpt lat="49.85282" lon="2.37914">
        <ele>26.8</ele>
        <time>2021-07-11T13:13:05Z</time>
      </trkpt>
      <trkpt lat="49.8528" lon="2.37915">
        <ele>26.8</ele>
        <time>2021-07-11T13:13:06Z</time>
      </trkpt>
      <trkpt lat="49.85278" lon="2.37915">
        <ele>26.8</ele>
        <time>2021-07-11T13:13:07Z</time>
      </trkpt>
      <trkpt lat="49.85277" lon="2.37915">
        <ele>26.8</ele>
        <time>2021-07-11T13:13:09Z</time>
      </trkpt>
      <trkpt lat="49.85276" lon="2.37915">
        <ele>26.8</ele>
        <time>2021-07-11T13:13:10Z</time>
      </trkpt>
      <trkpt lat="49.85275" lon="2.37916">
        <ele>26.8</ele>
        <time>2021-07-11T13:13:11Z</time>
      </trkpt>
      <trkpt lat="49.85273" lon="2.37916">
        <ele>26.8</ele>
        <time>2021-07-11T13:13:12Z</time>
      </trkpt>
      <trkpt lat="49.85272" lon="2.37917">
        <ele>26.8</ele>
        <time>2021-07-11T13:13:13Z</time>
      </trkpt>
      <trkpt lat="49.85271" lon="2.37917">
        <ele>26.8</ele>
        <time>2021-07-11T13:13:14Z</time>
      </trkpt>
      <trkpt lat="49.85269" lon="2.37917">
        <ele>26.8</ele>
        <time>2021-07-11T13:13:15Z</time>
      </trkpt>
      <trkpt lat="49.85268" lon="2.37918">
        <ele>26.7</ele>
        <time>2021-07-11T13:13:17Z</time>
      </trkpt>
      <trkpt lat="49.85267" lon="2.37919">
        <ele>26.7</ele>
        <time>2021-07-11T13:13:18Z</time>
      </trkpt>
      <trkpt lat="49.85266" lon="2.3792">
        <ele>26.7</ele>
        <time>2021-07-11T13:13:19Z</time>
      </trkpt>
      <trkpt lat="49.85265" lon="2.37922">
        <ele>26.7</ele>
        <time>2021-07-11T13:13:21Z</time>
      </trkpt>
      <trkpt lat="49.85264" lon="2.37923">
        <ele>26.7</ele>
        <time>2021-07-11T13:13:22Z</time>
      </trkpt>
      <trkpt lat="49.85263" lon="2.37923">
        <ele>26.7</ele>
        <time>2021-07-11T13:13:23Z</time>
      </trkpt>
      <trkpt lat="49.85262" lon="2.37924">
        <ele>26.7</ele>
        <time>2021-07-11T13:13:24Z</time>
      </trkpt>
      <trkpt lat="49.85261" lon="2.37925">
        <ele>26.7</ele>
        <time>2021-07-11T13:13:25Z</time>
      </trkpt>
      <trkpt lat="49.8526" lon="2.37926">
        <ele>26.7</ele>
        <time>2021-07-11T13:13:26Z</time>
      </trkpt>
      <trkpt lat="49.85259" lon="2.37927">
        <ele>26.7</ele>
        <time>2021-07-11T13:13:27Z</time>
      </trkpt>
      <trkpt lat="49.85259" lon="2.37928">
        <ele>26.7</ele>
        <time>2021-07-11T13:13:28Z</time>
      </trkpt>
      <trkpt lat="49.85258" lon="2.3793">
        <ele>26.7</ele>
        <time>2021-07-11T13:13:30Z</time>
      </trkpt>
      <trkpt lat="49.85257" lon="2.37931">
        <ele>26.7</ele>
        <time>2021-07-11T13:13:31Z</time>
      </trkpt>
      <trkpt lat="49.85256" lon="2.37931">
        <ele>26.7</ele>
        <time>2021-07-11T13:13:32Z</time>
      </trkpt>
      <trkpt lat="49.85255" lon="2.37931">
        <ele>26.7</ele>
        <time>2021-07-11T13:13:33Z</time>
      </trkpt>
      <trkpt lat="49.85253" lon="2.37932">
        <ele>26.7</ele>
        <time>2021-07-11T13:13:34Z</time>
      </trkpt>
      <trkpt lat="49.85251" lon="2.37933">
        <ele>26.7</ele>
        <time>2021-07-11T13:13:36Z</time>
      </trkpt>
      <trkpt lat="49.85251" lon="2.37934">
        <ele>26.7</ele>
        <time>2021-07-11T13:13:37Z</time>
      </trkpt>
      <trkpt lat="49.8525" lon="2.37934">
        <ele>26.7</ele>
        <time>2021-07-11T13:13:38Z</time>
      </trkpt>
      <trkpt lat="49.85249" lon="2.37935">
        <ele>26.7</ele>
        <time>2021-07-11T13:13:40Z</time>
      </trkpt>
      <trkpt lat="49.85248" lon="2.37936">
        <ele>26.7</ele>
        <time>2021-07-11T13:13:41Z</time>
      </trkpt>
      <trkpt lat="49.85247" lon="2.37938">
        <ele>26.7</ele>
        <time>2021-07-11T13:13:42Z</time>
      </trkpt>
      <trkpt lat="49.85246" lon="2.3794">
        <ele>26.7</ele>
        <time>2021-07-11T13:13:43Z</time>
      </trkpt>
      <trkpt lat="49.85246" lon="2.37941">
        <ele>26.8</ele>
        <time>2021-07-11T13:13:44Z</time>
      </trkpt>
      <trkpt lat="49.85245" lon="2.37942">
        <ele>26.8</ele>
        <time>2021-07-11T13:13:45Z</time>
      </trkpt>
      <trkpt lat="49.85244" lon="2.37944">
        <ele>26.8</ele>
        <time>2021-07-11T13:13:47Z</time>
      </trkpt>
      <trkpt lat="49.85244" lon="2.37945">
        <ele>26.8</ele>
        <time>2021-07-11T13:13:48Z</time>
      </trkpt>
      <trkpt lat="49.85243" lon="2.37946">
        <ele>26.8</ele>
        <time>2021-07-11T13:13:49Z</time>
      </trkpt>
      <trkpt lat="49.85242" lon="2.37948">
        <ele>26.8</ele>
        <time>2021-07-11T13:13:50Z</time>
      </trkpt>
      <trkpt lat="49.85241" lon="2.37949">
        <ele>26.8</ele>
        <time>2021-07-11T13:13:51Z</time>
      </trkpt>
      <trkpt lat="49.8524" lon="2.3795">
        <ele>26.8</ele>
        <time>2021-07-11T13:13:52Z</time>
      </trkpt>
      <trkpt lat="49.85239" lon="2.37952">
        <ele>26.8</ele>
        <time>2021-07-11T13:13:53Z</time>
      </trkpt>
      <trkpt lat="49.85238" lon="2.37953">
        <ele>26.8</ele>
        <time>2021-07-11T13:13:55Z</time>
      </trkpt>
      <trkpt lat="49.85237" lon="2.37953">
        <ele>26.8</ele>
        <time>2021-07-11T13:13:56Z</time>
      </trkpt>
      <trkpt lat="49.85235" lon="2.37955">
        <ele>26.8</ele>
        <time>2021-07-11T13:13:57Z</time>
      </trkpt>
      <trkpt lat="49.85235" lon="2.37956">
        <ele>26.8</ele>
        <time>2021-07-11T13:13:58Z</time>
      </trkpt>
      <trkpt lat="49.85234" lon="2.37957">
        <ele>26.8</ele>
        <time>2021-07-11T13:13:59Z</time>
      </trkpt>
      <trkpt lat="49.85232" lon="2.37958">
        <ele>26.9</ele>
        <time>2021-07-11T13:14:00Z</time>
      </trkpt>
      <trkpt lat="49.85231" lon="2.37959">
        <ele>26.9</ele>
        <time>2021-07-11T13:14:01Z</time>
      </trkpt>
      <trkpt lat="49.85231" lon="2.3796">
        <ele>26.9</ele>
        <time>2021-07-11T13:14:02Z</time>
      </trkpt>
      <trkpt lat="49.85229" lon="2.37962">
        <ele>26.9</ele>
        <time>2021-07-11T13:14:04Z</time>
      </trkpt>
      <trkpt lat="49.85228" lon="2.37963">
        <ele>26.9</ele>
        <time>2021-07-11T13:14:05Z</time>
      </trkpt>
      <trkpt lat="49.85227" lon="2.37964">
        <ele>26.9</ele>
        <time>2021-07-11T13:14:06Z</time>
      </trkpt>
      <trkpt lat="49.85226" lon="2.37965">
        <ele>26.9</ele>
        <time>2021-07-11T13:14:07Z</time>
      </trkpt>
      <trkpt lat="49.85225" lon="2.37966">
        <ele>26.9</ele>
        <time>2021-07-11T13:14:08Z</time>
      </trkpt>
      <trkpt lat="49.85224" lon="2.37967">
        <ele>26.9</ele>
        <time>2021-07-11T13:14:09Z</time>
      </trkpt>
      <trkpt lat="49.85223" lon="2.37968">
        <ele>26.9</ele>
        <time>2021-07-11T13:14:11Z</time>
      </trkpt>
      <trkpt lat="49.85222" lon="2.37969">
        <ele>26.9</ele>
        <time>2021-07-11T13:14:12Z</time>
      </trkpt>
      <trkpt lat="49.85221" lon="2.3797">
        <ele>26.9</ele>
        <time>2021-07-11T13:14:13Z</time>
      </trkpt>
      <trkpt lat="49.8522" lon="2.37972">
        <ele>26.9</ele>
        <time>2021-07-11T13:14:14Z</time>
      </trkpt>
      <trkpt lat="49.85219" lon="2.37973">
        <ele>26.9</ele>
        <time>2021-07-11T13:14:15Z</time>
      </trkpt>
      <trkpt lat="49.85218" lon="2.37975">
        <ele>26.9</ele>
        <time>2021-07-11T13:14:16Z</time>
      </trkpt>
      <trkpt lat="49.85217" lon="2.37976">
        <ele>26.9</ele>
        <time>2021-07-11T13:14:18Z</time>
      </trkpt>
      <trkpt lat="49.85215" lon="2.37978">
        <ele>26.9</ele>
        <time>2021-07-11T13:14:19Z</time>
      </trkpt>
      <trkpt lat="49.85214" lon="2.37979">
        <ele>26.9</ele>
        <time>2021-07-11T13:14:20Z</time>
      </trkpt>
      <trkpt lat="49.85213" lon="2.3798">
        <ele>26.9</ele>
        <time>2021-07-11T13:14:21Z</time>
      </trkpt>
      <trkpt lat="49.85212" lon="2.37981">
        <ele>26.9</ele>
        <time>2021-07-11T13:14:22Z</time>
      </trkpt>
      <trkpt lat="49.85211" lon="2.37982">
        <ele>26.9</ele>
        <time>2021-07-11T13:14:23Z</time>
      </trkpt>
      <trkpt lat="49.8521" lon="2.37985">
        <ele>26.9</ele>
        <time>2021-07-11T13:14:24Z</time>
      </trkpt>
      <trkpt lat="49.85209" lon="2.37986">
        <ele>26.9</ele>
        <time>2021-07-11T13:14:26Z</time>
      </trkpt>
      <trkpt lat="49.85209" lon="2.37987">
        <ele>26.9</ele>
        <time>2021-07-11T13:14:27Z</time>
      </trkpt>
      <trkpt lat="49.85208" lon="2.37988">
        <ele>26.9</ele>
        <time>2021-07-11T13:14:28Z</time>
      </trkpt>
      <trkpt lat="49.85207" lon="2.37989">
        <ele>26.9</ele>
        <time>2021-07-11T13:14:29Z</time>
      </trkpt>
      <trkpt lat="49.85207" lon="2.37991">
        <ele>26.9</ele>
        <time>2021-07-11T13:14:30Z</time>
      </trkpt>
      <trkpt lat="49.85206" lon="2.37993">
        <ele>26.9</ele>
        <time>2021-07-11T13:14:32Z</time>
      </trkpt>
      <trkpt lat="49.85206" lon="2.37993">
        <ele>26.9</ele>
        <time>2021-07-11T13:14:33Z</time>
      </trkpt>
      <trkpt lat="49.85206" lon="2.37995">
        <ele>26.9</ele>
        <time>2021-07-11T13:14:34Z</time>
      </trkpt>
      <trkpt lat="49.85206" lon="2.37996">
        <ele>26.9</ele>
        <time>2021-07-11T13:14:35Z</time>
      </trkpt>
      <trkpt lat="49.85205" lon="2.37998">
        <ele>26.9</ele>
        <time>2021-07-11T13:14:36Z</time>
      </trkpt>
      <trkpt lat="49.85205" lon="2.37998">
        <ele>26.9</ele>
        <time>2021-07-11T13:14:37Z</time>
      </trkpt>
      <trkpt lat="49.85204" lon="2.37999">
        <ele>26.9</ele>
        <time>2021-07-11T13:14:39Z</time>
      </trkpt>
      <trkpt lat="49.85204" lon="2.38">
        <ele>26.9</ele>
        <time>2021-07-11T13:14:40Z</time>
      </trkpt>
      <trkpt lat="49.85203" lon="2.38001">
        <ele>26.9</ele>
        <time>2021-07-11T13:14:41Z</time>
      </trkpt>
      <trkpt lat="49.85203" lon="2.38002">
        <ele>26.9</ele>
        <time>2021-07-11T13:14:42Z</time>
      </trkpt>
      <trkpt lat="49.85201" lon="2.38004">
        <ele>26.9</ele>
        <time>2021-07-11T13:14:44Z</time>
      </trkpt>
      <trkpt lat="49.85199" lon="2.38007">
        <ele>26.9</ele>
        <time>2021-07-11T13:14:45Z</time>
      </trkpt>
      <trkpt lat="49.85199" lon="2.38007">
        <ele>26.9</ele>
        <time>2021-07-11T13:14:46Z</time>
      </trkpt>
      <trkpt lat="49.85198" lon="2.38008">
        <ele>26.9</ele>
        <time>2021-07-11T13:14:47Z</time>
      </trkpt>
      <trkpt lat="49.85197" lon="2.3801">
        <ele>26.9</ele>
        <time>2021-07-11T13:14:48Z</time>
      </trkpt>
      <trkpt lat="49.85196" lon="2.38011">
        <ele>26.9</ele>
        <time>2021-07-11T13:14:49Z</time>
      </trkpt>
      <trkpt lat="49.85195" lon="2.38013">
        <ele>26.9</ele>
        <time>2021-07-11T13:14:50Z</time>
      </trkpt>
      <trkpt lat="49.85194" lon="2.38015">
        <ele>26.9</ele>
        <time>2021-07-11T13:14:52Z</time>
      </trkpt>
      <trkpt lat="49.85193" lon="2.38017">
        <ele>26.9</ele>
        <time>2021-07-11T13:14:53Z</time>
      </trkpt>
      <trkpt lat="49.85192" lon="2.38019">
        <ele>26.9</ele>
        <time>2021-07-11T13:14:54Z</time>
      </trkpt>
      <trkpt lat="49.85191" lon="2.38021">
        <ele>26.9</ele>
        <time>2021-07-11T13:14:55Z</time>
      </trkpt>
      <trkpt lat="49.85189" lon="2.38022">
        <ele>26.9</ele>
        <time>2021-07-11T13:14:56Z</time>
      </trkpt>
      <trkpt lat="49.85188" lon="2.38023">
        <ele>26.9</ele>
        <time>2021-07-11T13:14:57Z</time>
      </trkpt>
      <trkpt lat="49.85187" lon="2.38025">
        <ele>26.9</ele>
        <time>2021-07-11T13:14:59Z</time>
      </trkpt>
      <trkpt lat="49.85185" lon="2.38026">
        <ele>26.9</ele>
        <time>2021-07-11T13:15:00Z</time>
      </trkpt>
      <trkpt lat="49.85184" lon="2.38028">
        <ele>26.9</ele>
        <time>2021-07-11T13:15:01Z</time>
      </trkpt>
      <trkpt lat="49.85183" lon="2.38031">
        <ele>26.9</ele>
        <time>2021-07-11T13:15:03Z</time>
      </trkpt>
      <trkpt lat="49.85182" lon="2.38032">
        <ele>26.9</ele>
        <time>2021-07-11T13:15:04Z</time>
      </trkpt>
      <trkpt lat="49.85181" lon="2.38034">
        <ele>26.9</ele>
        <time>2021-07-11T13:15:05Z</time>
      </trkpt>
      <trkpt lat="49.8518" lon="2.38037">
        <ele>26.8</ele>
        <time>2021-07-11T13:15:06Z</time>
      </trkpt>
      <trkpt lat="49.85179" lon="2.3804">
        <ele>26.8</ele>
        <time>2021-07-11T13:15:08Z</time>
      </trkpt>
      <trkpt lat="49.8518" lon="2.38043">
        <ele>26.8</ele>
        <time>2021-07-11T13:15:10Z</time>
      </trkpt>
      <trkpt lat="49.8518" lon="2.38043">
        <ele>26.8</ele>
        <time>2021-07-11T13:15:11Z</time>
      </trkpt>
      <trkpt lat="49.85181" lon="2.38044">
        <ele>26.8</ele>
        <time>2021-07-11T13:15:12Z</time>
      </trkpt>
      <trkpt lat="49.85181" lon="2.38044">
        <ele>26.8</ele>
        <time>2021-07-11T13:15:13Z</time>
      </trkpt>
      <trkpt lat="49.85181" lon="2.38043">
        <ele>26.8</ele>
        <time>2021-07-11T13:15:14Z</time>
      </trkpt>
      <trkpt lat="49.85181" lon="2.38043">
        <ele>26.8</ele>
        <time>2021-07-11T13:15:15Z</time>
      </trkpt>
      <trkpt lat="49.85181" lon="2.38042">
        <ele>26.8</ele>
        <time>2021-07-11T13:15:17Z</time>
      </trkpt>
      <trkpt lat="49.85181" lon="2.38042">
        <ele>26.8</ele>
        <time>2021-07-11T13:15:18Z</time>
      </trkpt>
      <trkpt lat="49.85181" lon="2.38042">
        <ele>26.8</ele>
        <time>2021-07-11T13:15:19Z</time>
      </trkpt>
      <trkpt lat="49.85181" lon="2.38041">
        <ele>26.8</ele>
        <time>2021-07-11T13:15:21Z</time>
      </trkpt>
      <trkpt lat="49.85181" lon="2.38041">
        <ele>26.8</ele>
        <time>2021-07-11T13:15:22Z</time>
      </trkpt>
      <trkpt lat="49.85181" lon="2.38041">
        <ele>26.8</ele>
        <time>2021-07-11T13:15:24Z</time>
      </trkpt>
      <trkpt lat="49.85181" lon="2.38041">
        <ele>26.8</ele>
        <time>2021-07-11T13:15:25Z</time>
      </trkpt>
      <trkpt lat="49.85181" lon="2.38041">
        <ele>26.8</ele>
        <time>2021-07-11T13:15:28Z</time>
      </trkpt>
      <trkpt lat="49.85181" lon="2.38041">
        <ele>26.8</ele>
        <time>2021-07-11T13:15:29Z</time>
      </trkpt>
      <trkpt lat="49.85181" lon="2.38041">
        <ele>26.8</ele>
        <time>2021-07-11T13:15:31Z</time>
      </trkpt>
      <trkpt lat="49.85181" lon="2.38041">
        <ele>26.8</ele>
        <time>2021-07-11T13:15:32Z</time>
      </trkpt>
      <trkpt lat="49.85181" lon="2.38041">
        <ele>26.8</ele>
        <time>2021-07-11T13:15:33Z</time>
      </trkpt>
      <trkpt lat="49.85181" lon="2.38041">
        <ele>26.8</ele>
        <time>2021-07-11T13:15:35Z</time>
      </trkpt>
      <trkpt lat="49.85181" lon="2.38041">
        <ele>26.8</ele>
        <time>2021-07-11T13:15:37Z</time>
      </trkpt>
      <trkpt lat="49.85181" lon="2.38041">
        <ele>26.8</ele>
        <time>2021-07-11T13:15:38Z</time>
      </trkpt>
      <trkpt lat="49.85181" lon="2.38041">
        <ele>26.8</ele>
        <time>2021-07-11T13:15:40Z</time>
      </trkpt>
      <trkpt lat="49.85181" lon="2.38041">
        <ele>26.8</ele>
        <time>2021-07-11T13:15:41Z</time>
      </trkpt>
      <trkpt lat="49.85181" lon="2.38041">
        <ele>26.8</ele>
        <time>2021-07-11T13:15:43Z</time>
      </trkpt>
      <trkpt lat="49.85181" lon="2.38041">
        <ele>26.8</ele>
        <time>2021-07-11T13:15:45Z</time>
      </trkpt>
      <trkpt lat="49.85181" lon="2.38041">
        <ele>26.8</ele>
        <time>2021-07-11T13:15:46Z</time>
      </trkpt>
      <trkpt lat="49.85181" lon="2.38041">
        <ele>26.8</ele>
        <time>2021-07-11T13:15:48Z</time>
      </trkpt>
      <trkpt lat="49.85181" lon="2.38041">
        <ele>26.8</ele>
        <time>2021-07-11T13:15:49Z</time>
      </trkpt>
      <trkpt lat="49.85181" lon="2.38041">
        <ele>26.8</ele>
        <time>2021-07-11T13:15:50Z</time>
      </trkpt>
      <trkpt lat="49.85181" lon="2.38041">
        <ele>26.8</ele>
        <time>2021-07-11T13:15:51Z</time>
      </trkpt>
      <trkpt lat="49.85181" lon="2.38041">
        <ele>26.8</ele>
        <time>2021-07-11T13:15:53Z</time>
      </trkpt>
      <trkpt lat="49.85181" lon="2.38041">
        <ele>26.8</ele>
        <time>2021-07-11T13:15:54Z</time>
      </trkpt>
      <trkpt lat="49.85181" lon="2.38041">
        <ele>26.8</ele>
        <time>2021-07-11T13:15:56Z</time>
      </trkpt>
      <trkpt lat="49.85181" lon="2.38041">
        <ele>26.8</ele>
        <time>2021-07-11T13:15:58Z</time>
      </trkpt>
      <trkpt lat="49.85181" lon="2.38041">
        <ele>26.8</ele>
        <time>2021-07-11T13:16:00Z</time>
      </trkpt>
      <trkpt lat="49.85181" lon="2.38041">
        <ele>26.8</ele>
        <time>2021-07-11T13:16:02Z</time>
      </trkpt>
      <trkpt lat="49.85181" lon="2.38041">
        <ele>26.8</ele>
        <time>2021-07-11T13:16:03Z</time>
      </trkpt>
      <trkpt lat="49.8518" lon="2.38038">
        <ele>26.8</ele>
        <time>2021-07-11T13:16:05Z</time>
      </trkpt>
      <trkpt lat="49.8518" lon="2.38038">
        <ele>26.8</ele>
        <time>2021-07-11T13:16:06Z</time>
      </trkpt>
      <trkpt lat="49.85179" lon="2.38038">
        <ele>26.8</ele>
        <time>2021-07-11T13:16:08Z</time>
      </trkpt>
      <trkpt lat="49.85179" lon="2.38039">
        <ele>26.8</ele>
        <time>2021-07-11T13:16:10Z</time>
      </trkpt>
      <trkpt lat="49.85179" lon="2.38039">
        <ele>26.8</ele>
        <time>2021-07-11T13:16:12Z</time>
      </trkpt>
      <trkpt lat="49.85178" lon="2.3804">
        <ele>26.8</ele>
        <time>2021-07-11T13:16:14Z</time>
      </trkpt>
      <trkpt lat="49.85178" lon="2.3804">
        <ele>26.8</ele>
        <time>2021-07-11T13:16:16Z</time>
      </trkpt>
      <trkpt lat="49.85178" lon="2.3804">
        <ele>26.8</ele>
        <time>2021-07-11T13:16:18Z</time>
      </trkpt>
      <trkpt lat="49.85178" lon="2.3804">
        <ele>26.8</ele>
        <time>2021-07-11T13:16:20Z</time>
      </trkpt>
      <trkpt lat="49.85178" lon="2.38041">
        <ele>26.8</ele>
        <time>2021-07-11T13:16:21Z</time>
      </trkpt>
      <trkpt lat="49.85178" lon="2.38041">
        <ele>26.8</ele>
        <time>2021-07-11T13:16:22Z</time>
      </trkpt>
      <trkpt lat="49.85177" lon="2.38041">
        <ele>26.8</ele>
        <time>2021-07-11T13:16:24Z</time>
      </trkpt>
      <trkpt lat="49.85177" lon="2.38042">
        <ele>26.7</ele>
        <time>2021-07-11T13:16:26Z</time>
      </trkpt>
      <trkpt lat="49.85177" lon="2.38042">
        <ele>26.7</ele>
        <time>2021-07-11T13:16:27Z</time>
      </trkpt>
      <trkpt lat="49.85177" lon="2.38042">
        <ele>26.7</ele>
        <time>2021-07-11T13:16:29Z</time>
      </trkpt>
      <trkpt lat="49.85177" lon="2.38042">
        <ele>26.7</ele>
        <time>2021-07-11T13:16:31Z</time>
      </trkpt>
      <trkpt lat="49.85176" lon="2.38042">
        <ele>26.7</ele>
        <time>2021-07-11T13:16:33Z</time>
      </trkpt>
      <trkpt lat="49.85176" lon="2.38042">
        <ele>26.7</ele>
        <time>2021-07-11T13:16:34Z</time>
      </trkpt>
      <trkpt lat="49.85176" lon="2.38042">
        <ele>26.7</ele>
        <time>2021-07-11T13:16:36Z</time>
      </trkpt>
      <trkpt lat="49.85176" lon="2.38042">
        <ele>26.7</ele>
        <time>2021-07-11T13:16:38Z</time>
      </trkpt>
      <trkpt lat="49.85176" lon="2.38042">
        <ele>26.7</ele>
        <time>2021-07-11T13:16:39Z</time>
      </trkpt>
      <trkpt lat="49.85176" lon="2.38043">
        <ele>26.7</ele>
        <time>2021-07-11T13:16:41Z</time>
      </trkpt>
      <trkpt lat="49.85175" lon="2.38043">
        <ele>26.7</ele>
        <time>2021-07-11T13:16:42Z</time>
      </trkpt>
      <trkpt lat="49.85175" lon="2.38044">
        <ele>26.7</ele>
        <time>2021-07-11T13:16:44Z</time>
      </trkpt>
      <trkpt lat="49.85174" lon="2.38045">
        <ele>26.7</ele>
        <time>2021-07-11T13:16:45Z</time>
      </trkpt>
      <trkpt lat="49.85174" lon="2.38047">
        <ele>26.7</ele>
        <time>2021-07-11T13:16:46Z</time>
      </trkpt>
      <trkpt lat="49.85173" lon="2.38048">
        <ele>26.7</ele>
        <time>2021-07-11T13:16:47Z</time>
      </trkpt>
      <trkpt lat="49.85172" lon="2.3805">
        <ele>26.7</ele>
        <time>2021-07-11T13:16:48Z</time>
      </trkpt>
      <trkpt lat="49.85171" lon="2.38051">
        <ele>26.7</ele>
        <time>2021-07-11T13:16:49Z</time>
      </trkpt>
      <trkpt lat="49.8517" lon="2.38052">
        <ele>26.7</ele>
        <time>2021-07-11T13:16:50Z</time>
      </trkpt>
      <trkpt lat="49.85169" lon="2.38052">
        <ele>26.7</ele>
        <time>2021-07-11T13:16:52Z</time>
      </trkpt>
      <trkpt lat="49.85168" lon="2.38051">
        <ele>26.6</ele>
        <time>2021-07-11T13:16:53Z</time>
      </trkpt>
      <trkpt lat="49.85167" lon="2.38052">
        <ele>26.6</ele>
        <time>2021-07-11T13:16:54Z</time>
      </trkpt>
      <trkpt lat="49.85167" lon="2.38054">
        <ele>26.6</ele>
        <time>2021-07-11T13:16:55Z</time>
      </trkpt>
      <trkpt lat="49.85166" lon="2.38057">
        <ele>26.6</ele>
        <time>2021-07-11T13:16:56Z</time>
      </trkpt>
      <trkpt lat="49.85166" lon="2.38058">
        <ele>26.6</ele>
        <time>2021-07-11T13:16:57Z</time>
      </trkpt>
      <trkpt lat="49.85165" lon="2.3806">
        <ele>26.6</ele>
        <time>2021-07-11T13:16:58Z</time>
      </trkpt>
      <trkpt lat="49.85164" lon="2.38062">
        <ele>26.6</ele>
        <time>2021-07-11T13:17:00Z</time>
      </trkpt>
      <trkpt lat="49.85164" lon="2.38063">
        <ele>26.6</ele>
        <time>2021-07-11T13:17:01Z</time>
      </trkpt>
      <trkpt lat="49.85163" lon="2.38065">
        <ele>26.6</ele>
        <time>2021-07-11T13:17:02Z</time>
      </trkpt>
      <trkpt lat="49.85162" lon="2.38066">
        <ele>26.6</ele>
        <time>2021-07-11T13:17:03Z</time>
      </trkpt>
      <trkpt lat="49.8516" lon="2.38068">
        <ele>26.6</ele>
        <time>2021-07-11T13:17:05Z</time>
      </trkpt>
      <trkpt lat="49.85159" lon="2.38069">
        <ele>26.6</ele>
        <time>2021-07-11T13:17:06Z</time>
      </trkpt>
      <trkpt lat="49.85158" lon="2.38071">
        <ele>26.6</ele>
        <time>2021-07-11T13:17:07Z</time>
      </trkpt>
      <trkpt lat="49.85157" lon="2.38072">
        <ele>26.6</ele>
        <time>2021-07-11T13:17:09Z</time>
      </trkpt>
      <trkpt lat="49.85155" lon="2.38074">
        <ele>26.6</ele>
        <time>2021-07-11T13:17:11Z</time>
      </trkpt>
      <trkpt lat="49.85155" lon="2.38075">
        <ele>26.6</ele>
        <time>2021-07-11T13:17:12Z</time>
      </trkpt>
      <trkpt lat="49.85155" lon="2.38075">
        <ele>26.6</ele>
        <time>2021-07-11T13:17:14Z</time>
      </trkpt>
      <trkpt lat="49.85155" lon="2.38076">
        <ele>26.6</ele>
        <time>2021-07-11T13:17:15Z</time>
      </trkpt>
      <trkpt lat="49.85154" lon="2.38077">
        <ele>26.5</ele>
        <time>2021-07-11T13:17:16Z</time>
      </trkpt>
      <trkpt lat="49.85153" lon="2.38079">
        <ele>26.5</ele>
        <time>2021-07-11T13:17:17Z</time>
      </trkpt>
      <trkpt lat="49.85152" lon="2.38081">
        <ele>26.5</ele>
        <time>2021-07-11T13:17:18Z</time>
      </trkpt>
      <trkpt lat="49.85151" lon="2.38083">
        <ele>26.5</ele>
        <time>2021-07-11T13:17:19Z</time>
      </trkpt>
      <trkpt lat="49.8515" lon="2.38084">
        <ele>26.5</ele>
        <time>2021-07-11T13:17:20Z</time>
      </trkpt>
      <trkpt lat="49.85149" lon="2.38086">
        <ele>26.5</ele>
        <time>2021-07-11T13:17:21Z</time>
      </trkpt>
      <trkpt lat="49.85149" lon="2.38086">
        <ele>26.5</ele>
        <time>2021-07-11T13:17:22Z</time>
      </trkpt>
      <trkpt lat="49.85148" lon="2.38088">
        <ele>26.5</ele>
        <time>2021-07-11T13:17:24Z</time>
      </trkpt>
      <trkpt lat="49.85148" lon="2.3809">
        <ele>26.5</ele>
        <time>2021-07-11T13:17:25Z</time>
      </trkpt>
      <trkpt lat="49.85148" lon="2.38092">
        <ele>26.5</ele>
        <time>2021-07-11T13:17:26Z</time>
      </trkpt>
      <trkpt lat="49.85148" lon="2.38093">
        <ele>26.5</ele>
        <time>2021-07-11T13:17:27Z</time>
      </trkpt>
      <trkpt lat="49.85147" lon="2.38091">
        <ele>26.5</ele>
        <time>2021-07-11T13:17:29Z</time>
      </trkpt>
      <trkpt lat="49.85148" lon="2.38089">
        <ele>26.5</ele>
        <time>2021-07-11T13:17:30Z</time>
      </trkpt>
      <trkpt lat="49.85148" lon="2.38089">
        <ele>26.5</ele>
        <time>2021-07-11T13:17:32Z</time>
      </trkpt>
      <trkpt lat="49.85149" lon="2.3809">
        <ele>26.5</ele>
        <time>2021-07-11T13:17:33Z</time>
      </trkpt>
      <trkpt lat="49.85149" lon="2.38091">
        <ele>26.5</ele>
        <time>2021-07-11T13:17:34Z</time>
      </trkpt>
      <trkpt lat="49.85148" lon="2.38093">
        <ele>26.5</ele>
        <time>2021-07-11T13:17:35Z</time>
      </trkpt>
      <trkpt lat="49.85146" lon="2.38096">
        <ele>26.5</ele>
        <time>2021-07-11T13:17:37Z</time>
      </trkpt>
      <trkpt lat="49.85145" lon="2.38097">
        <ele>26.5</ele>
        <time>2021-07-11T13:17:38Z</time>
      </trkpt>
      <trkpt lat="49.85145" lon="2.38098">
        <ele>26.5</ele>
        <time>2021-07-11T13:17:39Z</time>
      </trkpt>
      <trkpt lat="49.85144" lon="2.38099">
        <ele>26.5</ele>
        <time>2021-07-11T13:17:40Z</time>
      </trkpt>
      <trkpt lat="49.85144" lon="2.381">
        <ele>26.5</ele>
        <time>2021-07-11T13:17:41Z</time>
      </trkpt>
      <trkpt lat="49.85144" lon="2.38102">
        <ele>26.5</ele>
        <time>2021-07-11T13:17:42Z</time>
      </trkpt>
      <trkpt lat="49.85145" lon="2.38104">
        <ele>26.5</ele>
        <time>2021-07-11T13:17:44Z</time>
      </trkpt>
      <trkpt lat="49.85145" lon="2.38105">
        <ele>26.5</ele>
        <time>2021-07-11T13:17:45Z</time>
      </trkpt>
      <trkpt lat="49.85145" lon="2.38106">
        <ele>26.5</ele>
        <time>2021-07-11T13:17:46Z</time>
      </trkpt>
      <trkpt lat="49.85145" lon="2.38107">
        <ele>26.5</ele>
        <time>2021-07-11T13:17:47Z</time>
      </trkpt>
      <trkpt lat="49.85144" lon="2.38108">
        <ele>26.5</ele>
        <time>2021-07-11T13:17:48Z</time>
      </trkpt>
      <trkpt lat="49.85144" lon="2.3811">
        <ele>26.5</ele>
        <time>2021-07-11T13:17:49Z</time>
      </trkpt>
      <trkpt lat="49.85144" lon="2.38111">
        <ele>26.5</ele>
        <time>2021-07-11T13:17:50Z</time>
      </trkpt>
      <trkpt lat="49.85144" lon="2.38113">
        <ele>26.5</ele>
        <time>2021-07-11T13:17:51Z</time>
      </trkpt>
      <trkpt lat="49.85143" lon="2.38113">
        <ele>26.5</ele>
        <time>2021-07-11T13:17:53Z</time>
      </trkpt>
      <trkpt lat="49.85142" lon="2.38113">
        <ele>26.5</ele>
        <time>2021-07-11T13:17:54Z</time>
      </trkpt>
      <trkpt lat="49.85141" lon="2.38113">
        <ele>26.5</ele>
        <time>2021-07-11T13:17:55Z</time>
      </trkpt>
      <trkpt lat="49.85139" lon="2.38112">
        <ele>26.4</ele>
        <time>2021-07-11T13:17:56Z</time>
      </trkpt>
      <trkpt lat="49.85137" lon="2.38112">
        <ele>26.4</ele>
        <time>2021-07-11T13:17:58Z</time>
      </trkpt>
      <trkpt lat="49.85136" lon="2.38113">
        <ele>26.4</ele>
        <time>2021-07-11T13:17:59Z</time>
      </trkpt>
      <trkpt lat="49.85135" lon="2.38115">
        <ele>26.4</ele>
        <time>2021-07-11T13:18:00Z</time>
      </trkpt>
      <trkpt lat="49.85134" lon="2.38117">
        <ele>26.4</ele>
        <time>2021-07-11T13:18:01Z</time>
      </trkpt>
      <trkpt lat="49.85134" lon="2.38119">
        <ele>26.4</ele>
        <time>2021-07-11T13:18:02Z</time>
      </trkpt>
      <trkpt lat="49.85133" lon="2.38121">
        <ele>26.4</ele>
        <time>2021-07-11T13:18:03Z</time>
      </trkpt>
      <trkpt lat="49.85132" lon="2.38123">
        <ele>26.4</ele>
        <time>2021-07-11T13:18:04Z</time>
      </trkpt>
      <trkpt lat="49.85131" lon="2.38126">
        <ele>26.5</ele>
        <time>2021-07-11T13:18:05Z</time>
      </trkpt>
      <trkpt lat="49.8513" lon="2.38128">
        <ele>26.5</ele>
        <time>2021-07-11T13:18:06Z</time>
      </trkpt>
      <trkpt lat="49.85127" lon="2.38133">
        <ele>26.5</ele>
        <time>2021-07-11T13:18:08Z</time>
      </trkpt>
      <trkpt lat="49.85126" lon="2.38134">
        <ele>26.5</ele>
        <time>2021-07-11T13:18:09Z</time>
      </trkpt>
      <trkpt lat="49.85124" lon="2.38138">
        <ele>26.5</ele>
        <time>2021-07-11T13:18:10Z</time>
      </trkpt>
      <trkpt lat="49.85123" lon="2.3814">
        <ele>26.5</ele>
        <time>2021-07-11T13:18:11Z</time>
      </trkpt>
      <trkpt lat="49.85122" lon="2.38141">
        <ele>26.5</ele>
        <time>2021-07-11T13:18:12Z</time>
      </trkpt>
      <trkpt lat="49.85121" lon="2.38144">
        <ele>26.5</ele>
        <time>2021-07-11T13:18:13Z</time>
      </trkpt>
      <trkpt lat="49.85121" lon="2.38146">
        <ele>26.5</ele>
        <time>2021-07-11T13:18:14Z</time>
      </trkpt>
      <trkpt lat="49.8512" lon="2.38146">
        <ele>26.5</ele>
        <time>2021-07-11T13:18:15Z</time>
      </trkpt>
      <trkpt lat="49.85119" lon="2.38147">
        <ele>26.5</ele>
        <time>2021-07-11T13:18:17Z</time>
      </trkpt>
      <trkpt lat="49.85119" lon="2.38149">
        <ele>26.5</ele>
        <time>2021-07-11T13:18:18Z</time>
      </trkpt>
      <trkpt lat="49.85118" lon="2.38152">
        <ele>26.5</ele>
        <time>2021-07-11T13:18:19Z</time>
      </trkpt>
      <trkpt lat="49.85117" lon="2.38154">
        <ele>26.5</ele>
        <time>2021-07-11T13:18:20Z</time>
      </trkpt>
      <trkpt lat="49.85117" lon="2.38156">
        <ele>26.5</ele>
        <time>2021-07-11T13:18:22Z</time>
      </trkpt>
      <trkpt lat="49.85116" lon="2.38158">
        <ele>26.5</ele>
        <time>2021-07-11T13:18:23Z</time>
      </trkpt>
      <trkpt lat="49.85116" lon="2.38159">
        <ele>26.5</ele>
        <time>2021-07-11T13:18:24Z</time>
      </trkpt>
      <trkpt lat="49.85116" lon="2.38161">
        <ele>26.5</ele>
        <time>2021-07-11T13:18:25Z</time>
      </trkpt>
      <trkpt lat="49.85114" lon="2.38166">
        <ele>26.5</ele>
        <time>2021-07-11T13:18:27Z</time>
      </trkpt>
      <trkpt lat="49.85114" lon="2.38167">
        <ele>26.5</ele>
        <time>2021-07-11T13:18:28Z</time>
      </trkpt>
      <trkpt lat="49.85113" lon="2.38169">
        <ele>26.5</ele>
        <time>2021-07-11T13:18:29Z</time>
      </trkpt>
      <trkpt lat="49.85112" lon="2.38171">
        <ele>26.5</ele>
        <time>2021-07-11T13:18:30Z</time>
      </trkpt>
      <trkpt lat="49.85111" lon="2.38175">
        <ele>26.5</ele>
        <time>2021-07-11T13:18:32Z</time>
      </trkpt>
      <trkpt lat="49.85111" lon="2.38176">
        <ele>26.5</ele>
        <time>2021-07-11T13:18:33Z</time>
      </trkpt>
      <trkpt lat="49.8511" lon="2.38181">
        <ele>26.5</ele>
        <time>2021-07-11T13:18:35Z</time>
      </trkpt>
      <trkpt lat="49.8511" lon="2.38182">
        <ele>26.5</ele>
        <time>2021-07-11T13:18:36Z</time>
      </trkpt>
      <trkpt lat="49.85109" lon="2.38184">
        <ele>26.5</ele>
        <time>2021-07-11T13:18:37Z</time>
      </trkpt>
      <trkpt lat="49.85109" lon="2.38186">
        <ele>26.5</ele>
        <time>2021-07-11T13:18:38Z</time>
      </trkpt>
      <trkpt lat="49.85108" lon="2.38189">
        <ele>26.5</ele>
        <time>2021-07-11T13:18:39Z</time>
      </trkpt>
      <trkpt lat="49.85108" lon="2.38191">
        <ele>26.5</ele>
        <time>2021-07-11T13:18:40Z</time>
      </trkpt>
      <trkpt lat="49.85108" lon="2.38194">
        <ele>26.6</ele>
        <time>2021-07-11T13:18:42Z</time>
      </trkpt>
      <trkpt lat="49.85108" lon="2.38195">
        <ele>26.6</ele>
        <time>2021-07-11T13:18:43Z</time>
      </trkpt>
      <trkpt lat="49.85108" lon="2.38196">
        <ele>26.6</ele>
        <time>2021-07-11T13:18:44Z</time>
      </trkpt>
      <trkpt lat="49.85108" lon="2.38198">
        <ele>26.6</ele>
        <time>2021-07-11T13:18:45Z</time>
      </trkpt>
      <trkpt lat="49.85107" lon="2.38199">
        <ele>26.6</ele>
        <time>2021-07-11T13:18:46Z</time>
      </trkpt>
      <trkpt lat="49.85107" lon="2.38201">
        <ele>26.6</ele>
        <time>2021-07-11T13:18:47Z</time>
      </trkpt>
      <trkpt lat="49.85106" lon="2.38204">
        <ele>26.6</ele>
        <time>2021-07-11T13:18:49Z</time>
      </trkpt>
      <trkpt lat="49.85106" lon="2.38206">
        <ele>26.6</ele>
        <time>2021-07-11T13:18:50Z</time>
      </trkpt>
      <trkpt lat="49.85106" lon="2.38207">
        <ele>26.6</ele>
        <time>2021-07-11T13:18:51Z</time>
      </trkpt>
      <trkpt lat="49.85106" lon="2.38209">
        <ele>26.6</ele>
        <time>2021-07-11T13:18:53Z</time>
      </trkpt>
      <trkpt lat="49.85105" lon="2.38211">
        <ele>26.6</ele>
        <time>2021-07-11T13:18:54Z</time>
      </trkpt>
      <trkpt lat="49.85105" lon="2.38212">
        <ele>26.6</ele>
        <time>2021-07-11T13:18:55Z</time>
      </trkpt>
      <trkpt lat="49.85104" lon="2.38215">
        <ele>26.6</ele>
        <time>2021-07-11T13:18:56Z</time>
      </trkpt>
      <trkpt lat="49.85103" lon="2.38216">
        <ele>26.6</ele>
        <time>2021-07-11T13:18:57Z</time>
      </trkpt>
      <trkpt lat="49.85103" lon="2.38218">
        <ele>26.6</ele>
        <time>2021-07-11T13:18:58Z</time>
      </trkpt>
      <trkpt lat="49.85102" lon="2.3822">
        <ele>26.6</ele>
        <time>2021-07-11T13:19:00Z</time>
      </trkpt>
      <trkpt lat="49.85102" lon="2.3822">
        <ele>26.6</ele>
        <time>2021-07-11T13:19:01Z</time>
      </trkpt>
      <trkpt lat="49.85103" lon="2.38221">
        <ele>26.6</ele>
        <time>2021-07-11T13:19:02Z</time>
      </trkpt>
      <trkpt lat="49.85103" lon="2.38224">
        <ele>26.6</ele>
        <time>2021-07-11T13:19:03Z</time>
      </trkpt>
      <trkpt lat="49.85103" lon="2.38226">
        <ele>26.6</ele>
        <time>2021-07-11T13:19:04Z</time>
      </trkpt>
      <trkpt lat="49.85103" lon="2.38227">
        <ele>26.6</ele>
        <time>2021-07-11T13:19:05Z</time>
      </trkpt>
      <trkpt lat="49.85102" lon="2.3823">
        <ele>26.6</ele>
        <time>2021-07-11T13:19:06Z</time>
      </trkpt>
      <trkpt lat="49.85102" lon="2.38232">
        <ele>26.6</ele>
        <time>2021-07-11T13:19:07Z</time>
      </trkpt>
      <trkpt lat="49.85101" lon="2.38237">
        <ele>26.6</ele>
        <time>2021-07-11T13:19:08Z</time>
      </trkpt>
      <trkpt lat="49.85101" lon="2.38238">
        <ele>26.6</ele>
        <time>2021-07-11T13:19:09Z</time>
      </trkpt>
      <trkpt lat="49.851" lon="2.38242">
        <ele>26.6</ele>
        <time>2021-07-11T13:19:11Z</time>
      </trkpt>
      <trkpt lat="49.85099" lon="2.38244">
        <ele>26.6</ele>
        <time>2021-07-11T13:19:12Z</time>
      </trkpt>
      <trkpt lat="49.85098" lon="2.38247">
        <ele>26.6</ele>
        <time>2021-07-11T13:19:13Z</time>
      </trkpt>
      <trkpt lat="49.85098" lon="2.38248">
        <ele>26.6</ele>
        <time>2021-07-11T13:19:14Z</time>
      </trkpt>
      <trkpt lat="49.85098" lon="2.3825">
        <ele>26.6</ele>
        <time>2021-07-11T13:19:15Z</time>
      </trkpt>
      <trkpt lat="49.85098" lon="2.38251">
        <ele>26.6</ele>
        <time>2021-07-11T13:19:16Z</time>
      </trkpt>
      <trkpt lat="49.85097" lon="2.38253">
        <ele>26.6</ele>
        <time>2021-07-11T13:19:18Z</time>
      </trkpt>
      <trkpt lat="49.85096" lon="2.38256">
        <ele>26.6</ele>
        <time>2021-07-11T13:19:19Z</time>
      </trkpt>
      <trkpt lat="49.85095" lon="2.38258">
        <ele>26.6</ele>
        <time>2021-07-11T13:19:21Z</time>
      </trkpt>
      <trkpt lat="49.85095" lon="2.3826">
        <ele>26.6</ele>
        <time>2021-07-11T13:19:22Z</time>
      </trkpt>
      <trkpt lat="49.85094" lon="2.38261">
        <ele>26.6</ele>
        <time>2021-07-11T13:19:23Z</time>
      </trkpt>
      <trkpt lat="49.85093" lon="2.38264">
        <ele>26.6</ele>
        <time>2021-07-11T13:19:24Z</time>
      </trkpt>
      <trkpt lat="49.85093" lon="2.38266">
        <ele>26.6</ele>
        <time>2021-07-11T13:19:25Z</time>
      </trkpt>
      <trkpt lat="49.85091" lon="2.38269">
        <ele>26.6</ele>
        <time>2021-07-11T13:19:27Z</time>
      </trkpt>
      <trkpt lat="49.8509" lon="2.38272">
        <ele>26.6</ele>
        <time>2021-07-11T13:19:28Z</time>
      </trkpt>
      <trkpt lat="49.85088" lon="2.38277">
        <ele>26.6</ele>
        <time>2021-07-11T13:19:30Z</time>
      </trkpt>
      <trkpt lat="49.85087" lon="2.38281">
        <ele>26.7</ele>
        <time>2021-07-11T13:19:31Z</time>
      </trkpt>
      <trkpt lat="49.85087" lon="2.38282">
        <ele>26.7</ele>
        <time>2021-07-11T13:19:32Z</time>
      </trkpt>
      <trkpt lat="49.85086" lon="2.38284">
        <ele>26.7</ele>
        <time>2021-07-11T13:19:33Z</time>
      </trkpt>
      <trkpt lat="49.85085" lon="2.38287">
        <ele>26.7</ele>
        <time>2021-07-11T13:19:34Z</time>
      </trkpt>
      <trkpt lat="49.85085" lon="2.38289">
        <ele>26.7</ele>
        <time>2021-07-11T13:19:36Z</time>
      </trkpt>
      <trkpt lat="49.85084" lon="2.38291">
        <ele>26.7</ele>
        <time>2021-07-11T13:19:37Z</time>
      </trkpt>
      <trkpt lat="49.85083" lon="2.38293">
        <ele>26.7</ele>
        <time>2021-07-11T13:19:38Z</time>
      </trkpt>
      <trkpt lat="49.85083" lon="2.38295">
        <ele>26.7</ele>
        <time>2021-07-11T13:19:39Z</time>
      </trkpt>
      <trkpt lat="49.85082" lon="2.38297">
        <ele>26.7</ele>
        <time>2021-07-11T13:19:41Z</time>
      </trkpt>
      <trkpt lat="49.85082" lon="2.38298">
        <ele>26.7</ele>
        <time>2021-07-11T13:19:42Z</time>
      </trkpt>
      <trkpt lat="49.85081" lon="2.383">
        <ele>26.7</ele>
        <time>2021-07-11T13:19:43Z</time>
      </trkpt>
      <trkpt lat="49.8508" lon="2.38302">
        <ele>26.7</ele>
        <time>2021-07-11T13:19:44Z</time>
      </trkpt>
      <trkpt lat="49.85079" lon="2.38304">
        <ele>26.7</ele>
        <time>2021-07-11T13:19:45Z</time>
      </trkpt>
      <trkpt lat="49.85079" lon="2.38307">
        <ele>26.7</ele>
        <time>2021-07-11T13:19:47Z</time>
      </trkpt>
      <trkpt lat="49.85079" lon="2.38308">
        <ele>26.7</ele>
        <time>2021-07-11T13:19:48Z</time>
      </trkpt>
      <trkpt lat="49.85078" lon="2.38309">
        <ele>26.7</ele>
        <time>2021-07-11T13:19:49Z</time>
      </trkpt>
      <trkpt lat="49.85078" lon="2.38311">
        <ele>26.7</ele>
        <time>2021-07-11T13:19:50Z</time>
      </trkpt>
      <trkpt lat="49.85078" lon="2.38313">
        <ele>26.7</ele>
        <time>2021-07-11T13:19:51Z</time>
      </trkpt>
      <trkpt lat="49.85078" lon="2.38315">
        <ele>26.7</ele>
        <time>2021-07-11T13:19:52Z</time>
      </trkpt>
      <trkpt lat="49.85077" lon="2.38317">
        <ele>26.7</ele>
        <time>2021-07-11T13:19:53Z</time>
      </trkpt>
      <trkpt lat="49.85076" lon="2.38319">
        <ele>26.7</ele>
        <time>2021-07-11T13:19:54Z</time>
      </trkpt>
      <trkpt lat="49.85076" lon="2.38321">
        <ele>26.7</ele>
        <time>2021-07-11T13:19:55Z</time>
      </trkpt>
      <trkpt lat="49.85075" lon="2.38323">
        <ele>26.7</ele>
        <time>2021-07-11T13:19:56Z</time>
      </trkpt>
      <trkpt lat="49.85074" lon="2.38325">
        <ele>26.7</ele>
        <time>2021-07-11T13:19:58Z</time>
      </trkpt>
      <trkpt lat="49.85073" lon="2.38327">
        <ele>26.7</ele>
        <time>2021-07-11T13:19:59Z</time>
      </trkpt>
      <trkpt lat="49.85072" lon="2.38329">
        <ele>26.7</ele>
        <time>2021-07-11T13:20:00Z</time>
      </trkpt>
      <trkpt lat="49.85072" lon="2.3833">
        <ele>26.7</ele>
        <time>2021-07-11T13:20:01Z</time>
      </trkpt>
      <trkpt lat="49.85071" lon="2.38331">
        <ele>26.7</ele>
        <time>2021-07-11T13:20:02Z</time>
      </trkpt>
      <trkpt lat="49.85071" lon="2.38333">
        <ele>26.7</ele>
        <time>2021-07-11T13:20:03Z</time>
      </trkpt>
      <trkpt lat="49.8507" lon="2.38334">
        <ele>26.7</ele>
        <time>2021-07-11T13:20:04Z</time>
      </trkpt>
      <trkpt lat="49.85069" lon="2.38336">
        <ele>26.7</ele>
        <time>2021-07-11T13:20:05Z</time>
      </trkpt>
      <trkpt lat="49.85068" lon="2.38339">
        <ele>26.7</ele>
        <time>2021-07-11T13:20:07Z</time>
      </trkpt>
      <trkpt lat="49.85067" lon="2.38339">
        <ele>26.7</ele>
        <time>2021-07-11T13:20:08Z</time>
      </trkpt>
      <trkpt lat="49.85067" lon="2.3834">
        <ele>26.7</ele>
        <time>2021-07-11T13:20:09Z</time>
      </trkpt>
      <trkpt lat="49.85066" lon="2.38341">
        <ele>26.7</ele>
        <time>2021-07-11T13:20:10Z</time>
      </trkpt>
      <trkpt lat="49.85066" lon="2.38343">
        <ele>26.7</ele>
        <time>2021-07-11T13:20:11Z</time>
      </trkpt>
      <trkpt lat="49.85065" lon="2.38344">
        <ele>26.8</ele>
        <time>2021-07-11T13:20:12Z</time>
      </trkpt>
      <trkpt lat="49.85065" lon="2.38345">
        <ele>26.8</ele>
        <time>2021-07-11T13:20:14Z</time>
      </trkpt>
      <trkpt lat="49.85064" lon="2.38345">
        <ele>26.8</ele>
        <time>2021-07-11T13:20:15Z</time>
      </trkpt>
      <trkpt lat="49.85064" lon="2.38346">
        <ele>26.8</ele>
        <time>2021-07-11T13:20:16Z</time>
      </trkpt>
      <trkpt lat="49.85063" lon="2.38346">
        <ele>26.8</ele>
        <time>2021-07-11T13:20:17Z</time>
      </trkpt>
      <trkpt lat="49.85062" lon="2.38347">
        <ele>26.8</ele>
        <time>2021-07-11T13:20:18Z</time>
      </trkpt>
      <trkpt lat="49.85061" lon="2.38348">
        <ele>26.8</ele>
        <time>2021-07-11T13:20:20Z</time>
      </trkpt>
      <trkpt lat="49.85061" lon="2.3835">
        <ele>26.8</ele>
        <time>2021-07-11T13:20:21Z</time>
      </trkpt>
      <trkpt lat="49.8506" lon="2.38351">
        <ele>26.8</ele>
        <time>2021-07-11T13:20:22Z</time>
      </trkpt>
      <trkpt lat="49.85059" lon="2.38354">
        <ele>26.8</ele>
        <time>2021-07-11T13:20:24Z</time>
      </trkpt>
      <trkpt lat="49.85059" lon="2.38354">
        <ele>26.8</ele>
        <time>2021-07-11T13:20:25Z</time>
      </trkpt>
      <trkpt lat="49.85059" lon="2.38355">
        <ele>26.8</ele>
        <time>2021-07-11T13:20:26Z</time>
      </trkpt>
      <trkpt lat="49.85058" lon="2.38356">
        <ele>26.8</ele>
        <time>2021-07-11T13:20:27Z</time>
      </trkpt>
      <trkpt lat="49.85057" lon="2.38357">
        <ele>26.8</ele>
        <time>2021-07-11T13:20:28Z</time>
      </trkpt>
      <trkpt lat="49.85057" lon="2.38359">
        <ele>26.8</ele>
        <time>2021-07-11T13:20:29Z</time>
      </trkpt>
      <trkpt lat="49.85056" lon="2.38361">
        <ele>26.8</ele>
        <time>2021-07-11T13:20:30Z</time>
      </trkpt>
      <trkpt lat="49.85055" lon="2.38363">
        <ele>26.8</ele>
        <time>2021-07-11T13:20:31Z</time>
      </trkpt>
      <trkpt lat="49.85055" lon="2.38365">
        <ele>26.8</ele>
        <time>2021-07-11T13:20:32Z</time>
      </trkpt>
      <trkpt lat="49.85054" lon="2.38366">
        <ele>26.8</ele>
        <time>2021-07-11T13:20:33Z</time>
      </trkpt>
      <trkpt lat="49.85053" lon="2.38369">
        <ele>26.8</ele>
        <time>2021-07-11T13:20:35Z</time>
      </trkpt>
      <trkpt lat="49.85052" lon="2.3837">
        <ele>26.8</ele>
        <time>2021-07-11T13:20:36Z</time>
      </trkpt>
      <trkpt lat="49.85052" lon="2.38371">
        <ele>26.8</ele>
        <time>2021-07-11T13:20:37Z</time>
      </trkpt>
      <trkpt lat="49.85051" lon="2.38373">
        <ele>26.8</ele>
        <time>2021-07-11T13:20:38Z</time>
      </trkpt>
      <trkpt lat="49.8505" lon="2.38375">
        <ele>26.8</ele>
        <time>2021-07-11T13:20:39Z</time>
      </trkpt>
      <trkpt lat="49.85049" lon="2.38377">
        <ele>26.8</ele>
        <time>2021-07-11T13:20:40Z</time>
      </trkpt>
      <trkpt lat="49.85048" lon="2.38379">
        <ele>26.8</ele>
        <time>2021-07-11T13:20:41Z</time>
      </trkpt>
      <trkpt lat="49.85047" lon="2.38382">
        <ele>26.8</ele>
        <time>2021-07-11T13:20:42Z</time>
      </trkpt>
      <trkpt lat="49.85046" lon="2.38383">
        <ele>26.8</ele>
        <time>2021-07-11T13:20:43Z</time>
      </trkpt>
      <trkpt lat="49.85046" lon="2.38385">
        <ele>26.8</ele>
        <time>2021-07-11T13:20:45Z</time>
      </trkpt>
      <trkpt lat="49.85045" lon="2.38387">
        <ele>26.8</ele>
        <time>2021-07-11T13:20:46Z</time>
      </trkpt>
      <trkpt lat="49.85044" lon="2.38389">
        <ele>26.8</ele>
        <time>2021-07-11T13:20:47Z</time>
      </trkpt>
      <trkpt lat="49.85043" lon="2.3839">
        <ele>26.8</ele>
        <time>2021-07-11T13:20:48Z</time>
      </trkpt>
      <trkpt lat="49.85041" lon="2.38391">
        <ele>26.8</ele>
        <time>2021-07-11T13:20:49Z</time>
      </trkpt>
      <trkpt lat="49.8504" lon="2.38392">
        <ele>26.8</ele>
        <time>2021-07-11T13:20:50Z</time>
      </trkpt>
      <trkpt lat="49.85039" lon="2.38394">
        <ele>26.8</ele>
        <time>2021-07-11T13:20:51Z</time>
      </trkpt>
      <trkpt lat="49.85039" lon="2.38395">
        <ele>26.8</ele>
        <time>2021-07-11T13:20:52Z</time>
      </trkpt>
      <trkpt lat="49.85038" lon="2.38396">
        <ele>26.8</ele>
        <time>2021-07-11T13:20:53Z</time>
      </trkpt>
      <trkpt lat="49.85038" lon="2.38398">
        <ele>26.7</ele>
        <time>2021-07-11T13:20:55Z</time>
      </trkpt>
      <trkpt lat="49.85037" lon="2.38399">
        <ele>26.7</ele>
        <time>2021-07-11T13:20:56Z</time>
      </trkpt>
      <trkpt lat="49.85037" lon="2.38401">
        <ele>26.7</ele>
        <time>2021-07-11T13:20:57Z</time>
      </trkpt>
      <trkpt lat="49.85037" lon="2.38403">
        <ele>26.7</ele>
        <time>2021-07-11T13:20:58Z</time>
      </trkpt>
      <trkpt lat="49.85036" lon="2.38405">
        <ele>26.7</ele>
        <time>2021-07-11T13:20:59Z</time>
      </trkpt>
      <trkpt lat="49.85036" lon="2.38406">
        <ele>26.7</ele>
        <time>2021-07-11T13:21:00Z</time>
      </trkpt>
      <trkpt lat="49.85035" lon="2.38408">
        <ele>26.7</ele>
        <time>2021-07-11T13:21:01Z</time>
      </trkpt>
      <trkpt lat="49.85035" lon="2.38411">
        <ele>26.7</ele>
        <time>2021-07-11T13:21:02Z</time>
      </trkpt>
      <trkpt lat="49.85034" lon="2.38413">
        <ele>26.7</ele>
        <time>2021-07-11T13:21:03Z</time>
      </trkpt>
      <trkpt lat="49.85034" lon="2.38415">
        <ele>26.6</ele>
        <time>2021-07-11T13:21:05Z</time>
      </trkpt>
      <trkpt lat="49.85033" lon="2.38417">
        <ele>26.6</ele>
        <time>2021-07-11T13:21:06Z</time>
      </trkpt>
      <trkpt lat="49.85032" lon="2.38419">
        <ele>26.6</ele>
        <time>2021-07-11T13:21:07Z</time>
      </trkpt>
      <trkpt lat="49.85032" lon="2.38421">
        <ele>26.6</ele>
        <time>2021-07-11T13:21:08Z</time>
      </trkpt>
      <trkpt lat="49.85032" lon="2.38423">
        <ele>26.6</ele>
        <time>2021-07-11T13:21:09Z</time>
      </trkpt>
      <trkpt lat="49.85031" lon="2.38425">
        <ele>26.6</ele>
        <time>2021-07-11T13:21:10Z</time>
      </trkpt>
      <trkpt lat="49.8503" lon="2.38427">
        <ele>26.6</ele>
        <time>2021-07-11T13:21:12Z</time>
      </trkpt>
      <trkpt lat="49.85029" lon="2.38429">
        <ele>26.6</ele>
        <time>2021-07-11T13:21:13Z</time>
      </trkpt>
      <trkpt lat="49.85029" lon="2.38431">
        <ele>26.6</ele>
        <time>2021-07-11T13:21:14Z</time>
      </trkpt>
      <trkpt lat="49.85028" lon="2.38433">
        <ele>26.6</ele>
        <time>2021-07-11T13:21:15Z</time>
      </trkpt>
      <trkpt lat="49.85027" lon="2.38435">
        <ele>26.6</ele>
        <time>2021-07-11T13:21:16Z</time>
      </trkpt>
      <trkpt lat="49.85026" lon="2.38437">
        <ele>26.6</ele>
        <time>2021-07-11T13:21:17Z</time>
      </trkpt>
      <trkpt lat="49.85025" lon="2.3844">
        <ele>26.6</ele>
        <time>2021-07-11T13:21:19Z</time>
      </trkpt>
      <trkpt lat="49.85024" lon="2.38442">
        <ele>26.6</ele>
        <time>2021-07-11T13:21:20Z</time>
      </trkpt>
      <trkpt lat="49.85024" lon="2.38444">
        <ele>26.6</ele>
        <time>2021-07-11T13:21:21Z</time>
      </trkpt>
      <trkpt lat="49.85023" lon="2.38447">
        <ele>26.6</ele>
        <time>2021-07-11T13:21:22Z</time>
      </trkpt>
      <trkpt lat="49.85022" lon="2.38449">
        <ele>26.6</ele>
        <time>2021-07-11T13:21:23Z</time>
      </trkpt>
      <trkpt lat="49.85021" lon="2.38453">
        <ele>26.6</ele>
        <time>2021-07-11T13:21:24Z</time>
      </trkpt>
      <trkpt lat="49.85021" lon="2.38454">
        <ele>26.6</ele>
        <time>2021-07-11T13:21:25Z</time>
      </trkpt>
      <trkpt lat="49.8502" lon="2.38457">
        <ele>26.6</ele>
        <time>2021-07-11T13:21:26Z</time>
      </trkpt>
      <trkpt lat="49.85019" lon="2.38459">
        <ele>26.6</ele>
        <time>2021-07-11T13:21:27Z</time>
      </trkpt>
      <trkpt lat="49.85019" lon="2.38461">
        <ele>26.6</ele>
        <time>2021-07-11T13:21:28Z</time>
      </trkpt>
      <trkpt lat="49.85018" lon="2.38464">
        <ele>26.6</ele>
        <time>2021-07-11T13:21:30Z</time>
      </trkpt>
      <trkpt lat="49.85018" lon="2.38467">
        <ele>26.6</ele>
        <time>2021-07-11T13:21:31Z</time>
      </trkpt>
      <trkpt lat="49.85017" lon="2.38469">
        <ele>26.6</ele>
        <time>2021-07-11T13:21:32Z</time>
      </trkpt>
      <trkpt lat="49.85016" lon="2.38472">
        <ele>26.7</ele>
        <time>2021-07-11T13:21:33Z</time>
      </trkpt>
      <trkpt lat="49.85016" lon="2.38474">
        <ele>26.7</ele>
        <time>2021-07-11T13:21:34Z</time>
      </trkpt>
      <trkpt lat="49.85015" lon="2.38479">
        <ele>26.7</ele>
        <time>2021-07-11T13:21:35Z</time>
      </trkpt>
      <trkpt lat="49.85014" lon="2.38481">
        <ele>26.7</ele>
        <time>2021-07-11T13:21:37Z</time>
      </trkpt>
      <trkpt lat="49.85013" lon="2.38483">
        <ele>26.7</ele>
        <time>2021-07-11T13:21:39Z</time>
      </trkpt>
      <trkpt lat="49.85013" lon="2.38485">
        <ele>26.7</ele>
        <time>2021-07-11T13:21:40Z</time>
      </trkpt>
      <trkpt lat="49.85012" lon="2.38488">
        <ele>26.7</ele>
        <time>2021-07-11T13:21:41Z</time>
      </trkpt>
      <trkpt lat="49.85012" lon="2.3849">
        <ele>26.7</ele>
        <time>2021-07-11T13:21:42Z</time>
      </trkpt>
      <trkpt lat="49.85011" lon="2.38492">
        <ele>26.7</ele>
        <time>2021-07-11T13:21:43Z</time>
      </trkpt>
      <trkpt lat="49.8501" lon="2.38495">
        <ele>26.7</ele>
        <time>2021-07-11T13:21:44Z</time>
      </trkpt>
      <trkpt lat="49.85009" lon="2.38499">
        <ele>26.7</ele>
        <time>2021-07-11T13:21:46Z</time>
      </trkpt>
      <trkpt lat="49.85008" lon="2.38501">
        <ele>26.7</ele>
        <time>2021-07-11T13:21:47Z</time>
      </trkpt>
      <trkpt lat="49.85008" lon="2.38504">
        <ele>26.7</ele>
        <time>2021-07-11T13:21:48Z</time>
      </trkpt>
      <trkpt lat="49.85007" lon="2.38506">
        <ele>26.7</ele>
        <time>2021-07-11T13:21:50Z</time>
      </trkpt>
      <trkpt lat="49.85007" lon="2.38507">
        <ele>26.7</ele>
        <time>2021-07-11T13:21:51Z</time>
      </trkpt>
      <trkpt lat="49.85007" lon="2.38509">
        <ele>26.7</ele>
        <time>2021-07-11T13:21:52Z</time>
      </trkpt>
      <trkpt lat="49.85006" lon="2.3851">
        <ele>26.7</ele>
        <time>2021-07-11T13:21:53Z</time>
      </trkpt>
      <trkpt lat="49.85006" lon="2.38511">
        <ele>26.7</ele>
        <time>2021-07-11T13:21:54Z</time>
      </trkpt>
      <trkpt lat="49.85005" lon="2.38513">
        <ele>26.7</ele>
        <time>2021-07-11T13:21:55Z</time>
      </trkpt>
      <trkpt lat="49.85005" lon="2.38515">
        <ele>26.7</ele>
        <time>2021-07-11T13:21:56Z</time>
      </trkpt>
      <trkpt lat="49.85005" lon="2.38517">
        <ele>26.7</ele>
        <time>2021-07-11T13:21:57Z</time>
      </trkpt>
      <trkpt lat="49.85004" lon="2.38519">
        <ele>26.7</ele>
        <time>2021-07-11T13:21:59Z</time>
      </trkpt>
      <trkpt lat="49.85004" lon="2.38521">
        <ele>26.7</ele>
        <time>2021-07-11T13:22:00Z</time>
      </trkpt>
      <trkpt lat="49.85003" lon="2.38523">
        <ele>26.7</ele>
        <time>2021-07-11T13:22:01Z</time>
      </trkpt>
      <trkpt lat="49.85002" lon="2.38527">
        <ele>26.7</ele>
        <time>2021-07-11T13:22:02Z</time>
      </trkpt>
      <trkpt lat="49.85002" lon="2.38529">
        <ele>26.7</ele>
        <time>2021-07-11T13:22:04Z</time>
      </trkpt>
      <trkpt lat="49.85002" lon="2.38531">
        <ele>26.7</ele>
        <time>2021-07-11T13:22:05Z</time>
      </trkpt>
      <trkpt lat="49.85001" lon="2.38532">
        <ele>26.7</ele>
        <time>2021-07-11T13:22:07Z</time>
      </trkpt>
      <trkpt lat="49.85001" lon="2.38534">
        <ele>26.7</ele>
        <time>2021-07-11T13:22:08Z</time>
      </trkpt>
      <trkpt lat="49.85" lon="2.38536">
        <ele>26.7</ele>
        <time>2021-07-11T13:22:09Z</time>
      </trkpt>
      <trkpt lat="49.85" lon="2.38538">
        <ele>26.7</ele>
        <time>2021-07-11T13:22:10Z</time>
      </trkpt>
      <trkpt lat="49.84999" lon="2.3854">
        <ele>26.7</ele>
        <time>2021-07-11T13:22:11Z</time>
      </trkpt>
      <trkpt lat="49.84999" lon="2.38542">
        <ele>26.7</ele>
        <time>2021-07-11T13:22:13Z</time>
      </trkpt>
      <trkpt lat="49.84998" lon="2.38544">
        <ele>26.7</ele>
        <time>2021-07-11T13:22:14Z</time>
      </trkpt>
      <trkpt lat="49.84997" lon="2.38546">
        <ele>26.7</ele>
        <time>2021-07-11T13:22:15Z</time>
      </trkpt>
      <trkpt lat="49.84996" lon="2.38549">
        <ele>26.7</ele>
        <time>2021-07-11T13:22:16Z</time>
      </trkpt>
      <trkpt lat="49.84995" lon="2.38551">
        <ele>26.7</ele>
        <time>2021-07-11T13:22:18Z</time>
      </trkpt>
      <trkpt lat="49.84995" lon="2.38553">
        <ele>26.7</ele>
        <time>2021-07-11T13:22:19Z</time>
      </trkpt>
      <trkpt lat="49.84995" lon="2.38554">
        <ele>26.8</ele>
        <time>2021-07-11T13:22:20Z</time>
      </trkpt>
      <trkpt lat="49.84994" lon="2.38556">
        <ele>26.8</ele>
        <time>2021-07-11T13:22:21Z</time>
      </trkpt>
      <trkpt lat="49.84994" lon="2.38559">
        <ele>26.8</ele>
        <time>2021-07-11T13:22:22Z</time>
      </trkpt>
      <trkpt lat="49.84993" lon="2.3856">
        <ele>26.8</ele>
        <time>2021-07-11T13:22:24Z</time>
      </trkpt>
      <trkpt lat="49.84993" lon="2.38561">
        <ele>26.8</ele>
        <time>2021-07-11T13:22:25Z</time>
      </trkpt>
      <trkpt lat="49.84992" lon="2.38564">
        <ele>26.8</ele>
        <time>2021-07-11T13:22:26Z</time>
      </trkpt>
      <trkpt lat="49.84992" lon="2.38565">
        <ele>26.8</ele>
        <time>2021-07-11T13:22:27Z</time>
      </trkpt>
      <trkpt lat="49.84991" lon="2.38566">
        <ele>26.8</ele>
        <time>2021-07-11T13:22:28Z</time>
      </trkpt>
      <trkpt lat="49.84991" lon="2.38568">
        <ele>26.8</ele>
        <time>2021-07-11T13:22:29Z</time>
      </trkpt>
      <trkpt lat="49.8499" lon="2.3857">
        <ele>26.8</ele>
        <time>2021-07-11T13:22:30Z</time>
      </trkpt>
      <trkpt lat="49.84989" lon="2.38572">
        <ele>26.8</ele>
        <time>2021-07-11T13:22:31Z</time>
      </trkpt>
      <trkpt lat="49.84988" lon="2.38574">
        <ele>26.8</ele>
        <time>2021-07-11T13:22:33Z</time>
      </trkpt>
      <trkpt lat="49.84988" lon="2.38576">
        <ele>26.8</ele>
        <time>2021-07-11T13:22:34Z</time>
      </trkpt>
      <trkpt lat="49.84988" lon="2.38579">
        <ele>26.8</ele>
        <time>2021-07-11T13:22:35Z</time>
      </trkpt>
      <trkpt lat="49.84987" lon="2.38582">
        <ele>26.8</ele>
        <time>2021-07-11T13:22:36Z</time>
      </trkpt>
      <trkpt lat="49.84987" lon="2.38583">
        <ele>26.8</ele>
        <time>2021-07-11T13:22:37Z</time>
      </trkpt>
      <trkpt lat="49.84987" lon="2.38584">
        <ele>26.8</ele>
        <time>2021-07-11T13:22:38Z</time>
      </trkpt>
      <trkpt lat="49.84986" lon="2.38588">
        <ele>26.8</ele>
        <time>2021-07-11T13:22:39Z</time>
      </trkpt>
      <trkpt lat="49.84986" lon="2.38589">
        <ele>26.8</ele>
        <time>2021-07-11T13:22:41Z</time>
      </trkpt>
      <trkpt lat="49.84985" lon="2.3859">
        <ele>26.8</ele>
        <time>2021-07-11T13:22:42Z</time>
      </trkpt>
      <trkpt lat="49.84985" lon="2.38594">
        <ele>26.8</ele>
        <time>2021-07-11T13:22:43Z</time>
      </trkpt>
      <trkpt lat="49.84985" lon="2.38595">
        <ele>26.8</ele>
        <time>2021-07-11T13:22:44Z</time>
      </trkpt>
      <trkpt lat="49.84984" lon="2.38596">
        <ele>26.8</ele>
        <time>2021-07-11T13:22:45Z</time>
      </trkpt>
      <trkpt lat="49.84984" lon="2.38598">
        <ele>26.8</ele>
        <time>2021-07-11T13:22:46Z</time>
      </trkpt>
      <trkpt lat="49.84983" lon="2.386">
        <ele>26.8</ele>
        <time>2021-07-11T13:22:47Z</time>
      </trkpt>
      <trkpt lat="49.84983" lon="2.38603">
        <ele>26.9</ele>
        <time>2021-07-11T13:22:49Z</time>
      </trkpt>
      <trkpt lat="49.84982" lon="2.38604">
        <ele>26.9</ele>
        <time>2021-07-11T13:22:50Z</time>
      </trkpt>
      <trkpt lat="49.84982" lon="2.38605">
        <ele>26.9</ele>
        <time>2021-07-11T13:22:51Z</time>
      </trkpt>
      <trkpt lat="49.84982" lon="2.38607">
        <ele>26.9</ele>
        <time>2021-07-11T13:22:52Z</time>
      </trkpt>
      <trkpt lat="49.84981" lon="2.38609">
        <ele>26.9</ele>
        <time>2021-07-11T13:22:53Z</time>
      </trkpt>
      <trkpt lat="49.84982" lon="2.38611">
        <ele>26.9</ele>
        <time>2021-07-11T13:22:55Z</time>
      </trkpt>
      <trkpt lat="49.84982" lon="2.38612">
        <ele>26.9</ele>
        <time>2021-07-11T13:22:56Z</time>
      </trkpt>
      <trkpt lat="49.84982" lon="2.38613">
        <ele>26.9</ele>
        <time>2021-07-11T13:22:57Z</time>
      </trkpt>
      <trkpt lat="49.84983" lon="2.38614">
        <ele>26.9</ele>
        <time>2021-07-11T13:22:59Z</time>
      </trkpt>
      <trkpt lat="49.84984" lon="2.38614">
        <ele>26.9</ele>
        <time>2021-07-11T13:23:01Z</time>
      </trkpt>
      <trkpt lat="49.84984" lon="2.38614">
        <ele>26.9</ele>
        <time>2021-07-11T13:23:02Z</time>
      </trkpt>
      <trkpt lat="49.84984" lon="2.38613">
        <ele>26.9</ele>
        <time>2021-07-11T13:23:04Z</time>
      </trkpt>
      <trkpt lat="49.84984" lon="2.38612">
        <ele>26.9</ele>
        <time>2021-07-11T13:23:06Z</time>
      </trkpt>
      <trkpt lat="49.84984" lon="2.38612">
        <ele>26.9</ele>
        <time>2021-07-11T13:23:07Z</time>
      </trkpt>
      <trkpt lat="49.84985" lon="2.38612">
        <ele>26.9</ele>
        <time>2021-07-11T13:23:09Z</time>
      </trkpt>
      <trkpt lat="49.84985" lon="2.38612">
        <ele>26.9</ele>
        <time>2021-07-11T13:23:11Z</time>
      </trkpt>
      <trkpt lat="49.84985" lon="2.38612">
        <ele>26.9</ele>
        <time>2021-07-11T13:23:12Z</time>
      </trkpt>
      <trkpt lat="49.84985" lon="2.38612">
        <ele>26.9</ele>
        <time>2021-07-11T13:23:13Z</time>
      </trkpt>
      <trkpt lat="49.84984" lon="2.38612">
        <ele>26.9</ele>
        <time>2021-07-11T13:23:15Z</time>
      </trkpt>
      <trkpt lat="49.84984" lon="2.38612">
        <ele>26.9</ele>
        <time>2021-07-11T13:23:16Z</time>
      </trkpt>
      <trkpt lat="49.84984" lon="2.38612">
        <ele>26.9</ele>
        <time>2021-07-11T13:23:18Z</time>
      </trkpt>
      <trkpt lat="49.84984" lon="2.38612">
        <ele>26.9</ele>
        <time>2021-07-11T13:23:19Z</time>
      </trkpt>
      <trkpt lat="49.84983" lon="2.38608">
        <ele>26.9</ele>
        <time>2021-07-11T13:23:21Z</time>
      </trkpt>
      <trkpt lat="49.84983" lon="2.3861">
        <ele>26.9</ele>
        <time>2021-07-11T13:23:23Z</time>
      </trkpt>
      <trkpt lat="49.84984" lon="2.38612">
        <ele>26.9</ele>
        <time>2021-07-11T13:23:24Z</time>
      </trkpt>
      <trkpt lat="49.84984" lon="2.38613">
        <ele>26.9</ele>
        <time>2021-07-11T13:23:26Z</time>
      </trkpt>
      <trkpt lat="49.84984" lon="2.38613">
        <ele>26.9</ele>
        <time>2021-07-11T13:23:27Z</time>
      </trkpt>
      <trkpt lat="49.84984" lon="2.38613">
        <ele>26.9</ele>
        <time>2021-07-11T13:23:29Z</time>
      </trkpt>
      <trkpt lat="49.84984" lon="2.38613">
        <ele>26.9</ele>
        <time>2021-07-11T13:23:30Z</time>
      </trkpt>
      <trkpt lat="49.84985" lon="2.38612">
        <ele>26.9</ele>
        <time>2021-07-11T13:23:32Z</time>
      </trkpt>
      <trkpt lat="49.84985" lon="2.3861">
        <ele>26.9</ele>
        <time>2021-07-11T13:23:33Z</time>
      </trkpt>
      <trkpt lat="49.84985" lon="2.38609">
        <ele>26.9</ele>
        <time>2021-07-11T13:23:35Z</time>
      </trkpt>
      <trkpt lat="49.84985" lon="2.38608">
        <ele>26.9</ele>
        <time>2021-07-11T13:23:36Z</time>
      </trkpt>
      <trkpt lat="49.84984" lon="2.38608">
        <ele>26.9</ele>
        <time>2021-07-11T13:23:38Z</time>
      </trkpt>
      <trkpt lat="49.84984" lon="2.38607">
        <ele>26.9</ele>
        <time>2021-07-11T13:23:40Z</time>
      </trkpt>
      <trkpt lat="49.84983" lon="2.38607">
        <ele>26.9</ele>
        <time>2021-07-11T13:23:41Z</time>
      </trkpt>
      <trkpt lat="49.84983" lon="2.38607">
        <ele>26.9</ele>
        <time>2021-07-11T13:23:43Z</time>
      </trkpt>
      <trkpt lat="49.84983" lon="2.38607">
        <ele>26.9</ele>
        <time>2021-07-11T13:23:44Z</time>
      </trkpt>
      <trkpt lat="49.84983" lon="2.38607">
        <ele>26.9</ele>
        <time>2021-07-11T13:23:45Z</time>
      </trkpt>
      <trkpt lat="49.84983" lon="2.38608">
        <ele>26.9</ele>
        <time>2021-07-11T13:23:47Z</time>
      </trkpt>
      <trkpt lat="49.84983" lon="2.38608">
        <ele>26.9</ele>
        <time>2021-07-11T13:23:48Z</time>
      </trkpt>
      <trkpt lat="49.84982" lon="2.3861">
        <ele>26.9</ele>
        <time>2021-07-11T13:23:49Z</time>
      </trkpt>
      <trkpt lat="49.84982" lon="2.38612">
        <ele>26.9</ele>
        <time>2021-07-11T13:23:51Z</time>
      </trkpt>
      <trkpt lat="49.84982" lon="2.38612">
        <ele>26.9</ele>
        <time>2021-07-11T13:23:52Z</time>
      </trkpt>
      <trkpt lat="49.84981" lon="2.38613">
        <ele>26.9</ele>
        <time>2021-07-11T13:23:53Z</time>
      </trkpt>
      <trkpt lat="49.84981" lon="2.38614">
        <ele>26.9</ele>
        <time>2021-07-11T13:23:54Z</time>
      </trkpt>
      <trkpt lat="49.84981" lon="2.38615">
        <ele>26.9</ele>
        <time>2021-07-11T13:23:55Z</time>
      </trkpt>
      <trkpt lat="49.84981" lon="2.38616">
        <ele>26.9</ele>
        <time>2021-07-11T13:23:57Z</time>
      </trkpt>
      <trkpt lat="49.84981" lon="2.38617">
        <ele>26.9</ele>
        <time>2021-07-11T13:23:58Z</time>
      </trkpt>
      <trkpt lat="49.84981" lon="2.38618">
        <ele>26.9</ele>
        <time>2021-07-11T13:23:59Z</time>
      </trkpt>
      <trkpt lat="49.84981" lon="2.3862">
        <ele>26.9</ele>
        <time>2021-07-11T13:24:01Z</time>
      </trkpt>
      <trkpt lat="49.8498" lon="2.3862">
        <ele>26.9</ele>
        <time>2021-07-11T13:24:02Z</time>
      </trkpt>
      <trkpt lat="49.84979" lon="2.38622">
        <ele>27</ele>
        <time>2021-07-11T13:24:03Z</time>
      </trkpt>
      <trkpt lat="49.84979" lon="2.38622">
        <ele>27</ele>
        <time>2021-07-11T13:24:04Z</time>
      </trkpt>
      <trkpt lat="49.84978" lon="2.38622">
        <ele>27</ele>
        <time>2021-07-11T13:24:05Z</time>
      </trkpt>
      <trkpt lat="49.84978" lon="2.38623">
        <ele>27</ele>
        <time>2021-07-11T13:24:07Z</time>
      </trkpt>
      <trkpt lat="49.84977" lon="2.38623">
        <ele>27</ele>
        <time>2021-07-11T13:24:08Z</time>
      </trkpt>
      <trkpt lat="49.84977" lon="2.38624">
        <ele>27</ele>
        <time>2021-07-11T13:24:10Z</time>
      </trkpt>
      <trkpt lat="49.84977" lon="2.38624">
        <ele>27</ele>
        <time>2021-07-11T13:24:11Z</time>
      </trkpt>
      <trkpt lat="49.84977" lon="2.38624">
        <ele>27</ele>
        <time>2021-07-11T13:24:12Z</time>
      </trkpt>
      <trkpt lat="49.84977" lon="2.38624">
        <ele>27</ele>
        <time>2021-07-11T13:24:14Z</time>
      </trkpt>
      <trkpt lat="49.84977" lon="2.38625">
        <ele>27</ele>
        <time>2021-07-11T13:24:15Z</time>
      </trkpt>
      <trkpt lat="49.84976" lon="2.38626">
        <ele>27</ele>
        <time>2021-07-11T13:24:17Z</time>
      </trkpt>
      <trkpt lat="49.84976" lon="2.38627">
        <ele>27</ele>
        <time>2021-07-11T13:24:18Z</time>
      </trkpt>
      <trkpt lat="49.84974" lon="2.38628">
        <ele>27</ele>
        <time>2021-07-11T13:24:20Z</time>
      </trkpt>
      <trkpt lat="49.84974" lon="2.3863">
        <ele>27</ele>
        <time>2021-07-11T13:24:21Z</time>
      </trkpt>
      <trkpt lat="49.84974" lon="2.38631">
        <ele>27</ele>
        <time>2021-07-11T13:24:23Z</time>
      </trkpt>
      <trkpt lat="49.84974" lon="2.38632">
        <ele>27</ele>
        <time>2021-07-11T13:24:24Z</time>
      </trkpt>
      <trkpt lat="49.84974" lon="2.38632">
        <ele>27</ele>
        <time>2021-07-11T13:24:25Z</time>
      </trkpt>
      <trkpt lat="49.84974" lon="2.38633">
        <ele>27</ele>
        <time>2021-07-11T13:24:27Z</time>
      </trkpt>
      <trkpt lat="49.84973" lon="2.38633">
        <ele>27</ele>
        <time>2021-07-11T13:24:28Z</time>
      </trkpt>
      <trkpt lat="49.84973" lon="2.38634">
        <ele>27</ele>
        <time>2021-07-11T13:24:29Z</time>
      </trkpt>
      <trkpt lat="49.84972" lon="2.38636">
        <ele>27</ele>
        <time>2021-07-11T13:24:30Z</time>
      </trkpt>
      <trkpt lat="49.84972" lon="2.38637">
        <ele>27</ele>
        <time>2021-07-11T13:24:31Z</time>
      </trkpt>
      <trkpt lat="49.84971" lon="2.38638">
        <ele>27</ele>
        <time>2021-07-11T13:24:33Z</time>
      </trkpt>
      <trkpt lat="49.84971" lon="2.38639">
        <ele>27</ele>
        <time>2021-07-11T13:24:34Z</time>
      </trkpt>
      <trkpt lat="49.8497" lon="2.3864">
        <ele>27</ele>
        <time>2021-07-11T13:24:35Z</time>
      </trkpt>
      <trkpt lat="49.84969" lon="2.38642">
        <ele>27</ele>
        <time>2021-07-11T13:24:37Z</time>
      </trkpt>
      <trkpt lat="49.84969" lon="2.38643">
        <ele>27</ele>
        <time>2021-07-11T13:24:38Z</time>
      </trkpt>
      <trkpt lat="49.84968" lon="2.38644">
        <ele>27</ele>
        <time>2021-07-11T13:24:39Z</time>
      </trkpt>
      <trkpt lat="49.84968" lon="2.38647">
        <ele>27</ele>
        <time>2021-07-11T13:24:40Z</time>
      </trkpt>
      <trkpt lat="49.84967" lon="2.38649">
        <ele>27</ele>
        <time>2021-07-11T13:24:41Z</time>
      </trkpt>
      <trkpt lat="49.84966" lon="2.38651">
        <ele>27</ele>
        <time>2021-07-11T13:24:43Z</time>
      </trkpt>
      <trkpt lat="49.84966" lon="2.38653">
        <ele>27</ele>
        <time>2021-07-11T13:24:44Z</time>
      </trkpt>
      <trkpt lat="49.84966" lon="2.38654">
        <ele>27</ele>
        <time>2021-07-11T13:24:45Z</time>
      </trkpt>
      <trkpt lat="49.84966" lon="2.38655">
        <ele>27</ele>
        <time>2021-07-11T13:24:46Z</time>
      </trkpt>
      <trkpt lat="49.84965" lon="2.38656">
        <ele>27</ele>
        <time>2021-07-11T13:24:47Z</time>
      </trkpt>
      <trkpt lat="49.84965" lon="2.38658">
        <ele>27</ele>
        <time>2021-07-11T13:24:48Z</time>
      </trkpt>
      <trkpt lat="49.84964" lon="2.38659">
        <ele>27</ele>
        <time>2021-07-11T13:24:50Z</time>
      </trkpt>
      <trkpt lat="49.84964" lon="2.38661">
        <ele>27</ele>
        <time>2021-07-11T13:24:51Z</time>
      </trkpt>
      <trkpt lat="49.84963" lon="2.38663">
        <ele>27.1</ele>
        <time>2021-07-11T13:24:52Z</time>
      </trkpt>
      <trkpt lat="49.84963" lon="2.38666">
        <ele>27.1</ele>
        <time>2021-07-11T13:24:53Z</time>
      </trkpt>
      <trkpt lat="49.84963" lon="2.38667">
        <ele>27.1</ele>
        <time>2021-07-11T13:24:54Z</time>
      </trkpt>
      <trkpt lat="49.84962" lon="2.38669">
        <ele>27.1</ele>
        <time>2021-07-11T13:24:55Z</time>
      </trkpt>
      <trkpt lat="49.84962" lon="2.3867">
        <ele>27.1</ele>
        <time>2021-07-11T13:24:57Z</time>
      </trkpt>
      <trkpt lat="49.84962" lon="2.38672">
        <ele>27.1</ele>
        <time>2021-07-11T13:24:58Z</time>
      </trkpt>
      <trkpt lat="49.84962" lon="2.38673">
        <ele>27.1</ele>
        <time>2021-07-11T13:24:59Z</time>
      </trkpt>
      <trkpt lat="49.84962" lon="2.38674">
        <ele>27.1</ele>
        <time>2021-07-11T13:25:00Z</time>
      </trkpt>
      <trkpt lat="49.84961" lon="2.38675">
        <ele>27.1</ele>
        <time>2021-07-11T13:25:01Z</time>
      </trkpt>
      <trkpt lat="49.84961" lon="2.38676">
        <ele>27.1</ele>
        <time>2021-07-11T13:25:02Z</time>
      </trkpt>
      <trkpt lat="49.84961" lon="2.38677">
        <ele>27.1</ele>
        <time>2021-07-11T13:25:03Z</time>
      </trkpt>
      <trkpt lat="49.8496" lon="2.38678">
        <ele>27.1</ele>
        <time>2021-07-11T13:25:05Z</time>
      </trkpt>
      <trkpt lat="49.8496" lon="2.38679">
        <ele>27.1</ele>
        <time>2021-07-11T13:25:06Z</time>
      </trkpt>
      <trkpt lat="49.8496" lon="2.38681">
        <ele>27.1</ele>
        <time>2021-07-11T13:25:07Z</time>
      </trkpt>
      <trkpt lat="49.84959" lon="2.38682">
        <ele>27.1</ele>
        <time>2021-07-11T13:25:09Z</time>
      </trkpt>
      <trkpt lat="49.84959" lon="2.38684">
        <ele>27.1</ele>
        <time>2021-07-11T13:25:10Z</time>
      </trkpt>
      <trkpt lat="49.84959" lon="2.38685">
        <ele>27.1</ele>
        <time>2021-07-11T13:25:11Z</time>
      </trkpt>
      <trkpt lat="49.84958" lon="2.38687">
        <ele>27.1</ele>
        <time>2021-07-11T13:25:13Z</time>
      </trkpt>
      <trkpt lat="49.84958" lon="2.38688">
        <ele>27.1</ele>
        <time>2021-07-11T13:25:14Z</time>
      </trkpt>
      <trkpt lat="49.84957" lon="2.38689">
        <ele>27.1</ele>
        <time>2021-07-11T13:25:15Z</time>
      </trkpt>
      <trkpt lat="49.84957" lon="2.38691">
        <ele>27.1</ele>
        <time>2021-07-11T13:25:16Z</time>
      </trkpt>
      <trkpt lat="49.84956" lon="2.38692">
        <ele>27.1</ele>
        <time>2021-07-11T13:25:17Z</time>
      </trkpt>
      <trkpt lat="49.84956" lon="2.38692">
        <ele>27.1</ele>
        <time>2021-07-11T13:25:18Z</time>
      </trkpt>
      <trkpt lat="49.84955" lon="2.38692">
        <ele>27.1</ele>
        <time>2021-07-11T13:25:19Z</time>
      </trkpt>
      <trkpt lat="49.84955" lon="2.38692">
        <ele>27.1</ele>
        <time>2021-07-11T13:25:21Z</time>
      </trkpt>
      <trkpt lat="49.84954" lon="2.38693">
        <ele>27.2</ele>
        <time>2021-07-11T13:25:22Z</time>
      </trkpt>
      <trkpt lat="49.84953" lon="2.38694">
        <ele>27.2</ele>
        <time>2021-07-11T13:25:23Z</time>
      </trkpt>
      <trkpt lat="49.84953" lon="2.38695">
        <ele>27.2</ele>
        <time>2021-07-11T13:25:24Z</time>
      </trkpt>
      <trkpt lat="49.84953" lon="2.38697">
        <ele>27.2</ele>
        <time>2021-07-11T13:25:25Z</time>
      </trkpt>
      <trkpt lat="49.84952" lon="2.38698">
        <ele>27.2</ele>
        <time>2021-07-11T13:25:26Z</time>
      </trkpt>
      <trkpt lat="49.84952" lon="2.38699">
        <ele>27.2</ele>
        <time>2021-07-11T13:25:27Z</time>
      </trkpt>
      <trkpt lat="49.84951" lon="2.38701">
        <ele>27.2</ele>
        <time>2021-07-11T13:25:28Z</time>
      </trkpt>
      <trkpt lat="49.84951" lon="2.38704">
        <ele>27.2</ele>
        <time>2021-07-11T13:25:30Z</time>
      </trkpt>
      <trkpt lat="49.8495" lon="2.38705">
        <ele>27.2</ele>
        <time>2021-07-11T13:25:31Z</time>
      </trkpt>
      <trkpt lat="49.8495" lon="2.38706">
        <ele>27.2</ele>
        <time>2021-07-11T13:25:32Z</time>
      </trkpt>
      <trkpt lat="49.84949" lon="2.38709">
        <ele>27.2</ele>
        <time>2021-07-11T13:25:33Z</time>
      </trkpt>
      <trkpt lat="49.84949" lon="2.3871">
        <ele>27.2</ele>
        <time>2021-07-11T13:25:34Z</time>
      </trkpt>
      <trkpt lat="49.84949" lon="2.38712">
        <ele>27.2</ele>
        <time>2021-07-11T13:25:35Z</time>
      </trkpt>
      <trkpt lat="49.84947" lon="2.38715">
        <ele>27.2</ele>
        <time>2021-07-11T13:25:37Z</time>
      </trkpt>
      <trkpt lat="49.84946" lon="2.38719">
        <ele>27.2</ele>
        <time>2021-07-11T13:25:39Z</time>
      </trkpt>
      <trkpt lat="49.84946" lon="2.38721">
        <ele>27.2</ele>
        <time>2021-07-11T13:25:40Z</time>
      </trkpt>
      <trkpt lat="49.84945" lon="2.38723">
        <ele>27.1</ele>
        <time>2021-07-11T13:25:41Z</time>
      </trkpt>
      <trkpt lat="49.84943" lon="2.38727">
        <ele>27.1</ele>
        <time>2021-07-11T13:25:43Z</time>
      </trkpt>
      <trkpt lat="49.84942" lon="2.38729">
        <ele>27.1</ele>
        <time>2021-07-11T13:25:44Z</time>
      </trkpt>
      <trkpt lat="49.84941" lon="2.38733">
        <ele>27.1</ele>
        <time>2021-07-11T13:25:46Z</time>
      </trkpt>
      <trkpt lat="49.8494" lon="2.38737">
        <ele>27.1</ele>
        <time>2021-07-11T13:25:47Z</time>
      </trkpt>
      <trkpt lat="49.84939" lon="2.38738">
        <ele>27.1</ele>
        <time>2021-07-11T13:25:48Z</time>
      </trkpt>
      <trkpt lat="49.84938" lon="2.38742">
        <ele>27.2</ele>
        <time>2021-07-11T13:25:49Z</time>
      </trkpt>
      <trkpt lat="49.84937" lon="2.38745">
        <ele>27.2</ele>
        <time>2021-07-11T13:25:51Z</time>
      </trkpt>
      <trkpt lat="49.84937" lon="2.38747">
        <ele>27.2</ele>
        <time>2021-07-11T13:25:52Z</time>
      </trkpt>
      <trkpt lat="49.84936" lon="2.38749">
        <ele>27.2</ele>
        <time>2021-07-11T13:25:53Z</time>
      </trkpt>
      <trkpt lat="49.84936" lon="2.38751">
        <ele>27.2</ele>
        <time>2021-07-11T13:25:54Z</time>
      </trkpt>
      <trkpt lat="49.84935" lon="2.38754">
        <ele>27.2</ele>
        <time>2021-07-11T13:25:55Z</time>
      </trkpt>
      <trkpt lat="49.84935" lon="2.38756">
        <ele>27.2</ele>
        <time>2021-07-11T13:25:56Z</time>
      </trkpt>
      <trkpt lat="49.84935" lon="2.38758">
        <ele>27.2</ele>
        <time>2021-07-11T13:25:57Z</time>
      </trkpt>
      <trkpt lat="49.84935" lon="2.3876">
        <ele>27.2</ele>
        <time>2021-07-11T13:25:59Z</time>
      </trkpt>
      <trkpt lat="49.84934" lon="2.38762">
        <ele>27.2</ele>
        <time>2021-07-11T13:26:00Z</time>
      </trkpt>
      <trkpt lat="49.84934" lon="2.38764">
        <ele>27.2</ele>
        <time>2021-07-11T13:26:01Z</time>
      </trkpt>
      <trkpt lat="49.84935" lon="2.38765">
        <ele>27.3</ele>
        <time>2021-07-11T13:26:02Z</time>
      </trkpt>
      <trkpt lat="49.84935" lon="2.38766">
        <ele>27.3</ele>
        <time>2021-07-11T13:26:03Z</time>
      </trkpt>
      <trkpt lat="49.84935" lon="2.38767">
        <ele>27.3</ele>
        <time>2021-07-11T13:26:04Z</time>
      </trkpt>
      <trkpt lat="49.84935" lon="2.38768">
        <ele>27.3</ele>
        <time>2021-07-11T13:26:05Z</time>
      </trkpt>
      <trkpt lat="49.84935" lon="2.38769">
        <ele>27.3</ele>
        <time>2021-07-11T13:26:06Z</time>
      </trkpt>
      <trkpt lat="49.84935" lon="2.38771">
        <ele>27.3</ele>
        <time>2021-07-11T13:26:08Z</time>
      </trkpt>
      <trkpt lat="49.84935" lon="2.38773">
        <ele>27.3</ele>
        <time>2021-07-11T13:26:09Z</time>
      </trkpt>
      <trkpt lat="49.84933" lon="2.38775">
        <ele>27.3</ele>
        <time>2021-07-11T13:26:10Z</time>
      </trkpt>
      <trkpt lat="49.84933" lon="2.38776">
        <ele>27.3</ele>
        <time>2021-07-11T13:26:11Z</time>
      </trkpt>
      <trkpt lat="49.84932" lon="2.38777">
        <ele>27.3</ele>
        <time>2021-07-11T13:26:12Z</time>
      </trkpt>
      <trkpt lat="49.84931" lon="2.38781">
        <ele>27.3</ele>
        <time>2021-07-11T13:26:13Z</time>
      </trkpt>
      <trkpt lat="49.84931" lon="2.38783">
        <ele>27.3</ele>
        <time>2021-07-11T13:26:14Z</time>
      </trkpt>
      <trkpt lat="49.8493" lon="2.38788">
        <ele>27.4</ele>
        <time>2021-07-11T13:26:16Z</time>
      </trkpt>
      <trkpt lat="49.84929" lon="2.38789">
        <ele>27.4</ele>
        <time>2021-07-11T13:26:17Z</time>
      </trkpt>
      <trkpt lat="49.84929" lon="2.38792">
        <ele>27.4</ele>
        <time>2021-07-11T13:26:18Z</time>
      </trkpt>
      <trkpt lat="49.84928" lon="2.38795">
        <ele>27.4</ele>
        <time>2021-07-11T13:26:19Z</time>
      </trkpt>
      <trkpt lat="49.84928" lon="2.38798">
        <ele>27.4</ele>
        <time>2021-07-11T13:26:20Z</time>
      </trkpt>
      <trkpt lat="49.84928" lon="2.388">
        <ele>27.4</ele>
        <time>2021-07-11T13:26:21Z</time>
      </trkpt>
      <trkpt lat="49.84927" lon="2.38801">
        <ele>27.4</ele>
        <time>2021-07-11T13:26:22Z</time>
      </trkpt>
      <trkpt lat="49.84927" lon="2.38803">
        <ele>27.4</ele>
        <time>2021-07-11T13:26:23Z</time>
      </trkpt>
      <trkpt lat="49.84927" lon="2.38805">
        <ele>27.4</ele>
        <time>2021-07-11T13:26:25Z</time>
      </trkpt>
      <trkpt lat="49.84926" lon="2.38807">
        <ele>27.4</ele>
        <time>2021-07-11T13:26:26Z</time>
      </trkpt>
      <trkpt lat="49.84926" lon="2.38808">
        <ele>27.4</ele>
        <time>2021-07-11T13:26:27Z</time>
      </trkpt>
      <trkpt lat="49.84926" lon="2.38809">
        <ele>27.4</ele>
        <time>2021-07-11T13:26:28Z</time>
      </trkpt>
      <trkpt lat="49.84926" lon="2.3881">
        <ele>27.4</ele>
        <time>2021-07-11T13:26:30Z</time>
      </trkpt>
      <trkpt lat="49.84926" lon="2.38811">
        <ele>27.4</ele>
        <time>2021-07-11T13:26:31Z</time>
      </trkpt>
      <trkpt lat="49.84927" lon="2.38812">
        <ele>27.4</ele>
        <time>2021-07-11T13:26:32Z</time>
      </trkpt>
      <trkpt lat="49.84927" lon="2.38814">
        <ele>27.4</ele>
        <time>2021-07-11T13:26:34Z</time>
      </trkpt>
      <trkpt lat="49.84927" lon="2.38814">
        <ele>27.4</ele>
        <time>2021-07-11T13:26:35Z</time>
      </trkpt>
      <trkpt lat="49.84927" lon="2.38813">
        <ele>27.4</ele>
        <time>2021-07-11T13:26:37Z</time>
      </trkpt>
      <trkpt lat="49.84927" lon="2.38813">
        <ele>27.4</ele>
        <time>2021-07-11T13:26:39Z</time>
      </trkpt>
      <trkpt lat="49.84927" lon="2.38813">
        <ele>27.4</ele>
        <time>2021-07-11T13:26:40Z</time>
      </trkpt>
      <trkpt lat="49.84926" lon="2.38814">
        <ele>27.4</ele>
        <time>2021-07-11T13:26:41Z</time>
      </trkpt>
      <trkpt lat="49.84926" lon="2.38816">
        <ele>27.4</ele>
        <time>2021-07-11T13:26:42Z</time>
      </trkpt>
      <trkpt lat="49.84925" lon="2.38818">
        <ele>27.4</ele>
        <time>2021-07-11T13:26:43Z</time>
      </trkpt>
      <trkpt lat="49.84925" lon="2.38821">
        <ele>27.4</ele>
        <time>2021-07-11T13:26:44Z</time>
      </trkpt>
      <trkpt lat="49.84924" lon="2.38822">
        <ele>27.4</ele>
        <time>2021-07-11T13:26:45Z</time>
      </trkpt>
      <trkpt lat="49.84924" lon="2.38824">
        <ele>27.4</ele>
        <time>2021-07-11T13:26:47Z</time>
      </trkpt>
      <trkpt lat="49.84923" lon="2.38825">
        <ele>27.4</ele>
        <time>2021-07-11T13:26:48Z</time>
      </trkpt>
      <trkpt lat="49.84923" lon="2.38826">
        <ele>27.4</ele>
        <time>2021-07-11T13:26:49Z</time>
      </trkpt>
      <trkpt lat="49.84923" lon="2.38828">
        <ele>27.4</ele>
        <time>2021-07-11T13:26:50Z</time>
      </trkpt>
      <trkpt lat="49.84922" lon="2.3883">
        <ele>27.4</ele>
        <time>2021-07-11T13:26:51Z</time>
      </trkpt>
      <trkpt lat="49.84921" lon="2.38832">
        <ele>27.4</ele>
        <time>2021-07-11T13:26:52Z</time>
      </trkpt>
      <trkpt lat="49.84921" lon="2.38835">
        <ele>27.4</ele>
        <time>2021-07-11T13:26:53Z</time>
      </trkpt>
      <trkpt lat="49.8492" lon="2.38836">
        <ele>27.4</ele>
        <time>2021-07-11T13:26:55Z</time>
      </trkpt>
      <trkpt lat="49.8492" lon="2.38837">
        <ele>27.4</ele>
        <time>2021-07-11T13:26:56Z</time>
      </trkpt>
      <trkpt lat="49.8492" lon="2.38839">
        <ele>27.4</ele>
        <time>2021-07-11T13:26:57Z</time>
      </trkpt>
      <trkpt lat="49.8492" lon="2.38842">
        <ele>27.4</ele>
        <time>2021-07-11T13:26:59Z</time>
      </trkpt>
      <trkpt lat="49.8492" lon="2.38844">
        <ele>27.4</ele>
        <time>2021-07-11T13:27:00Z</time>
      </trkpt>
      <trkpt lat="49.84919" lon="2.38845">
        <ele>27.4</ele>
        <time>2021-07-11T13:27:01Z</time>
      </trkpt>
      <trkpt lat="49.84919" lon="2.38846">
        <ele>27.4</ele>
        <time>2021-07-11T13:27:03Z</time>
      </trkpt>
      <trkpt lat="49.84919" lon="2.38847">
        <ele>27.4</ele>
        <time>2021-07-11T13:27:04Z</time>
      </trkpt>
      <trkpt lat="49.84919" lon="2.38848">
        <ele>27.4</ele>
        <time>2021-07-11T13:27:05Z</time>
      </trkpt>
      <trkpt lat="49.84919" lon="2.38849">
        <ele>27.4</ele>
        <time>2021-07-11T13:27:06Z</time>
      </trkpt>
      <trkpt lat="49.84918" lon="2.3885">
        <ele>27.4</ele>
        <time>2021-07-11T13:27:07Z</time>
      </trkpt>
      <trkpt lat="49.84918" lon="2.38852">
        <ele>27.4</ele>
        <time>2021-07-11T13:27:09Z</time>
      </trkpt>
      <trkpt lat="49.84918" lon="2.38853">
        <ele>27.4</ele>
        <time>2021-07-11T13:27:10Z</time>
      </trkpt>
      <trkpt lat="49.84917" lon="2.38855">
        <ele>27.4</ele>
        <time>2021-07-11T13:27:11Z</time>
      </trkpt>
      <trkpt lat="49.84917" lon="2.38856">
        <ele>27.4</ele>
        <time>2021-07-11T13:27:12Z</time>
      </trkpt>
      <trkpt lat="49.84917" lon="2.38858">
        <ele>27.4</ele>
        <time>2021-07-11T13:27:13Z</time>
      </trkpt>
      <trkpt lat="49.84916" lon="2.3886">
        <ele>27.4</ele>
        <time>2021-07-11T13:27:15Z</time>
      </trkpt>
      <trkpt lat="49.84916" lon="2.38861">
        <ele>27.4</ele>
        <time>2021-07-11T13:27:16Z</time>
      </trkpt>
      <trkpt lat="49.84916" lon="2.38864">
        <ele>27.4</ele>
        <time>2021-07-11T13:27:18Z</time>
      </trkpt>
      <trkpt lat="49.84916" lon="2.38865">
        <ele>27.4</ele>
        <time>2021-07-11T13:27:20Z</time>
      </trkpt>
      <trkpt lat="49.84916" lon="2.38865">
        <ele>27.4</ele>
        <time>2021-07-11T13:27:22Z</time>
      </trkpt>
      <trkpt lat="49.84915" lon="2.38866">
        <ele>27.4</ele>
        <time>2021-07-11T13:27:23Z</time>
      </trkpt>
      <trkpt lat="49.84915" lon="2.38867">
        <ele>27.4</ele>
        <time>2021-07-11T13:27:25Z</time>
      </trkpt>
      <trkpt lat="49.84915" lon="2.38868">
        <ele>27.4</ele>
        <time>2021-07-11T13:27:26Z</time>
      </trkpt>
      <trkpt lat="49.84914" lon="2.38869">
        <ele>27.4</ele>
        <time>2021-07-11T13:27:27Z</time>
      </trkpt>
      <trkpt lat="49.84913" lon="2.38872">
        <ele>27.4</ele>
        <time>2021-07-11T13:27:29Z</time>
      </trkpt>
      <trkpt lat="49.84912" lon="2.38874">
        <ele>27.4</ele>
        <time>2021-07-11T13:27:31Z</time>
      </trkpt>
      <trkpt lat="49.84912" lon="2.38876">
        <ele>27.4</ele>
        <time>2021-07-11T13:27:32Z</time>
      </trkpt>
      <trkpt lat="49.8491" lon="2.38879">
        <ele>27.4</ele>
        <time>2021-07-11T13:27:33Z</time>
      </trkpt>
      <trkpt lat="49.8491" lon="2.3888">
        <ele>27.4</ele>
        <time>2021-07-11T13:27:34Z</time>
      </trkpt>
      <trkpt lat="49.84909" lon="2.38881">
        <ele>27.4</ele>
        <time>2021-07-11T13:27:35Z</time>
      </trkpt>
      <trkpt lat="49.84909" lon="2.38883">
        <ele>27.4</ele>
        <time>2021-07-11T13:27:36Z</time>
      </trkpt>
      <trkpt lat="49.84908" lon="2.38884">
        <ele>27.4</ele>
        <time>2021-07-11T13:27:38Z</time>
      </trkpt>
      <trkpt lat="49.84907" lon="2.38886">
        <ele>27.4</ele>
        <time>2021-07-11T13:27:39Z</time>
      </trkpt>
      <trkpt lat="49.84907" lon="2.38887">
        <ele>27.4</ele>
        <time>2021-07-11T13:27:40Z</time>
      </trkpt>
      <trkpt lat="49.84906" lon="2.38889">
        <ele>27.4</ele>
        <time>2021-07-11T13:27:41Z</time>
      </trkpt>
      <trkpt lat="49.84905" lon="2.3889">
        <ele>27.4</ele>
        <time>2021-07-11T13:27:43Z</time>
      </trkpt>
      <trkpt lat="49.84904" lon="2.38892">
        <ele>27.4</ele>
        <time>2021-07-11T13:27:44Z</time>
      </trkpt>
      <trkpt lat="49.84904" lon="2.38893">
        <ele>27.4</ele>
        <time>2021-07-11T13:27:45Z</time>
      </trkpt>
      <trkpt lat="49.84903" lon="2.38895">
        <ele>27.4</ele>
        <time>2021-07-11T13:27:47Z</time>
      </trkpt>
      <trkpt lat="49.84902" lon="2.38897">
        <ele>27.4</ele>
        <time>2021-07-11T13:27:48Z</time>
      </trkpt>
      <trkpt lat="49.84901" lon="2.38898">
        <ele>27.4</ele>
        <time>2021-07-11T13:27:49Z</time>
      </trkpt>
      <trkpt lat="49.849" lon="2.38899">
        <ele>27.4</ele>
        <time>2021-07-11T13:27:50Z</time>
      </trkpt>
      <trkpt lat="49.849" lon="2.389">
        <ele>27.4</ele>
        <time>2021-07-11T13:27:51Z</time>
      </trkpt>
      <trkpt lat="49.84899" lon="2.38902">
        <ele>27.4</ele>
        <time>2021-07-11T13:27:53Z</time>
      </trkpt>
      <trkpt lat="49.84898" lon="2.38904">
        <ele>27.4</ele>
        <time>2021-07-11T13:27:54Z</time>
      </trkpt>
      <trkpt lat="49.84898" lon="2.38905">
        <ele>27.4</ele>
        <time>2021-07-11T13:27:55Z</time>
      </trkpt>
      <trkpt lat="49.84897" lon="2.38907">
        <ele>27.4</ele>
        <time>2021-07-11T13:27:56Z</time>
      </trkpt>
      <trkpt lat="49.84896" lon="2.38908">
        <ele>27.4</ele>
        <time>2021-07-11T13:27:58Z</time>
      </trkpt>
      <trkpt lat="49.84895" lon="2.3891">
        <ele>27.4</ele>
        <time>2021-07-11T13:27:59Z</time>
      </trkpt>
      <trkpt lat="49.84894" lon="2.38911">
        <ele>27.4</ele>
        <time>2021-07-11T13:28:00Z</time>
      </trkpt>
      <trkpt lat="49.84893" lon="2.38913">
        <ele>27.4</ele>
        <time>2021-07-11T13:28:01Z</time>
      </trkpt>
      <trkpt lat="49.84892" lon="2.38914">
        <ele>27.4</ele>
        <time>2021-07-11T13:28:02Z</time>
      </trkpt>
      <trkpt lat="49.84891" lon="2.38915">
        <ele>27.4</ele>
        <time>2021-07-11T13:28:03Z</time>
      </trkpt>
      <trkpt lat="49.84889" lon="2.38916">
        <ele>27.4</ele>
        <time>2021-07-11T13:28:05Z</time>
      </trkpt>
      <trkpt lat="49.84888" lon="2.38918">
        <ele>27.4</ele>
        <time>2021-07-11T13:28:06Z</time>
      </trkpt>
      <trkpt lat="49.84887" lon="2.38919">
        <ele>27.4</ele>
        <time>2021-07-11T13:28:07Z</time>
      </trkpt>
      <trkpt lat="49.84886" lon="2.3892">
        <ele>27.4</ele>
        <time>2021-07-11T13:28:08Z</time>
      </trkpt>
      <trkpt lat="49.84884" lon="2.38922">
        <ele>27.4</ele>
        <time>2021-07-11T13:28:09Z</time>
      </trkpt>
      <trkpt lat="49.84883" lon="2.38922">
        <ele>27.4</ele>
        <time>2021-07-11T13:28:10Z</time>
      </trkpt>
      <trkpt lat="49.84882" lon="2.38923">
        <ele>27.4</ele>
        <time>2021-07-11T13:28:11Z</time>
      </trkpt>
      <trkpt lat="49.84881" lon="2.38924">
        <ele>27.4</ele>
        <time>2021-07-11T13:28:13Z</time>
      </trkpt>
      <trkpt lat="49.84879" lon="2.38926">
        <ele>27.4</ele>
        <time>2021-07-11T13:28:14Z</time>
      </trkpt>
      <trkpt lat="49.84878" lon="2.38927">
        <ele>27.4</ele>
        <time>2021-07-11T13:28:15Z</time>
      </trkpt>
      <trkpt lat="49.84877" lon="2.38929">
        <ele>27.4</ele>
        <time>2021-07-11T13:28:17Z</time>
      </trkpt>
      <trkpt lat="49.84876" lon="2.3893">
        <ele>27.4</ele>
        <time>2021-07-11T13:28:18Z</time>
      </trkpt>
      <trkpt lat="49.84875" lon="2.38931">
        <ele>27.4</ele>
        <time>2021-07-11T13:28:20Z</time>
      </trkpt>
      <trkpt lat="49.84874" lon="2.38932">
        <ele>27.4</ele>
        <time>2021-07-11T13:28:21Z</time>
      </trkpt>
      <trkpt lat="49.84873" lon="2.38933">
        <ele>27.4</ele>
        <time>2021-07-11T13:28:22Z</time>
      </trkpt>
      <trkpt lat="49.84872" lon="2.38933">
        <ele>27.4</ele>
        <time>2021-07-11T13:28:23Z</time>
      </trkpt>
      <trkpt lat="49.84871" lon="2.38934">
        <ele>27.4</ele>
        <time>2021-07-11T13:28:24Z</time>
      </trkpt>
      <trkpt lat="49.8487" lon="2.38935">
        <ele>27.4</ele>
        <time>2021-07-11T13:28:25Z</time>
      </trkpt>
      <trkpt lat="49.84869" lon="2.38935">
        <ele>27.4</ele>
        <time>2021-07-11T13:28:27Z</time>
      </trkpt>
      <trkpt lat="49.84868" lon="2.38936">
        <ele>27.4</ele>
        <time>2021-07-11T13:28:28Z</time>
      </trkpt>
      <trkpt lat="49.84867" lon="2.38937">
        <ele>27.4</ele>
        <time>2021-07-11T13:28:30Z</time>
      </trkpt>
      <trkpt lat="49.84866" lon="2.38938">
        <ele>27.4</ele>
        <time>2021-07-11T13:28:31Z</time>
      </trkpt>
      <trkpt lat="49.84866" lon="2.38939">
        <ele>27.4</ele>
        <time>2021-07-11T13:28:32Z</time>
      </trkpt>
      <trkpt lat="49.84865" lon="2.3894">
        <ele>27.4</ele>
        <time>2021-07-11T13:28:33Z</time>
      </trkpt>
      <trkpt lat="49.84864" lon="2.38941">
        <ele>27.4</ele>
        <time>2021-07-11T13:28:34Z</time>
      </trkpt>
      <trkpt lat="49.84863" lon="2.38943">
        <ele>27.4</ele>
        <time>2021-07-11T13:28:36Z</time>
      </trkpt>
      <trkpt lat="49.84862" lon="2.38944">
        <ele>27.4</ele>
        <time>2021-07-11T13:28:37Z</time>
      </trkpt>
      <trkpt lat="49.84862" lon="2.38946">
        <ele>27.4</ele>
        <time>2021-07-11T13:28:39Z</time>
      </trkpt>
      <trkpt lat="49.84862" lon="2.38946">
        <ele>27.4</ele>
        <time>2021-07-11T13:28:40Z</time>
      </trkpt>
      <trkpt lat="49.84862" lon="2.38947">
        <ele>27.4</ele>
        <time>2021-07-11T13:28:41Z</time>
      </trkpt>
      <trkpt lat="49.84862" lon="2.38947">
        <ele>27.4</ele>
        <time>2021-07-11T13:28:43Z</time>
      </trkpt>
      <trkpt lat="49.84861" lon="2.38948">
        <ele>27.4</ele>
        <time>2021-07-11T13:28:44Z</time>
      </trkpt>
      <trkpt lat="49.84861" lon="2.38949">
        <ele>27.4</ele>
        <time>2021-07-11T13:28:45Z</time>
      </trkpt>
      <trkpt lat="49.8486" lon="2.3895">
        <ele>27.4</ele>
        <time>2021-07-11T13:28:47Z</time>
      </trkpt>
      <trkpt lat="49.84859" lon="2.38951">
        <ele>27.4</ele>
        <time>2021-07-11T13:28:48Z</time>
      </trkpt>
      <trkpt lat="49.84859" lon="2.38951">
        <ele>27.4</ele>
        <time>2021-07-11T13:28:50Z</time>
      </trkpt>
      <trkpt lat="49.84858" lon="2.38953">
        <ele>27.4</ele>
        <time>2021-07-11T13:28:51Z</time>
      </trkpt>
      <trkpt lat="49.84857" lon="2.38953">
        <ele>27.4</ele>
        <time>2021-07-11T13:28:52Z</time>
      </trkpt>
      <trkpt lat="49.84856" lon="2.38954">
        <ele>27.4</ele>
        <time>2021-07-11T13:28:53Z</time>
      </trkpt>
      <trkpt lat="49.84855" lon="2.38954">
        <ele>27.4</ele>
        <time>2021-07-11T13:28:55Z</time>
      </trkpt>
      <trkpt lat="49.84855" lon="2.38955">
        <ele>27.4</ele>
        <time>2021-07-11T13:28:56Z</time>
      </trkpt>
      <trkpt lat="49.84854" lon="2.38955">
        <ele>27.4</ele>
        <time>2021-07-11T13:28:57Z</time>
      </trkpt>
      <trkpt lat="49.84853" lon="2.38956">
        <ele>27.4</ele>
        <time>2021-07-11T13:28:58Z</time>
      </trkpt>
      <trkpt lat="49.84852" lon="2.38956">
        <ele>27.4</ele>
        <time>2021-07-11T13:28:59Z</time>
      </trkpt>
      <trkpt lat="49.84851" lon="2.38957">
        <ele>27.4</ele>
        <time>2021-07-11T13:29:01Z</time>
      </trkpt>
      <trkpt lat="49.8485" lon="2.38957">
        <ele>27.4</ele>
        <time>2021-07-11T13:29:02Z</time>
      </trkpt>
      <trkpt lat="49.84849" lon="2.38958">
        <ele>27.4</ele>
        <time>2021-07-11T13:29:03Z</time>
      </trkpt>
      <trkpt lat="49.84847" lon="2.38958">
        <ele>27.4</ele>
        <time>2021-07-11T13:29:05Z</time>
      </trkpt>
      <trkpt lat="49.84846" lon="2.38959">
        <ele>27.5</ele>
        <time>2021-07-11T13:29:06Z</time>
      </trkpt>
      <trkpt lat="49.84845" lon="2.38959">
        <ele>27.5</ele>
        <time>2021-07-11T13:29:07Z</time>
      </trkpt>
      <trkpt lat="49.84843" lon="2.3896">
        <ele>27.5</ele>
        <time>2021-07-11T13:29:08Z</time>
      </trkpt>
      <trkpt lat="49.84842" lon="2.3896">
        <ele>27.5</ele>
        <time>2021-07-11T13:29:09Z</time>
      </trkpt>
      <trkpt lat="49.8484" lon="2.3896">
        <ele>27.5</ele>
        <time>2021-07-11T13:29:10Z</time>
      </trkpt>
      <trkpt lat="49.84839" lon="2.38961">
        <ele>27.5</ele>
        <time>2021-07-11T13:29:11Z</time>
      </trkpt>
      <trkpt lat="49.84835" lon="2.3896">
        <ele>27.5</ele>
        <time>2021-07-11T13:29:13Z</time>
      </trkpt>
      <trkpt lat="49.84834" lon="2.3896">
        <ele>27.5</ele>
        <time>2021-07-11T13:29:14Z</time>
      </trkpt>
      <trkpt lat="49.84833" lon="2.38961">
        <ele>27.6</ele>
        <time>2021-07-11T13:29:15Z</time>
      </trkpt>
      <trkpt lat="49.84831" lon="2.38961">
        <ele>27.6</ele>
        <time>2021-07-11T13:29:17Z</time>
      </trkpt>
      <trkpt lat="49.8483" lon="2.38962">
        <ele>27.6</ele>
        <time>2021-07-11T13:29:18Z</time>
      </trkpt>
      <trkpt lat="49.84828" lon="2.38963">
        <ele>27.6</ele>
        <time>2021-07-11T13:29:19Z</time>
      </trkpt>
      <trkpt lat="49.84827" lon="2.38963">
        <ele>27.6</ele>
        <time>2021-07-11T13:29:20Z</time>
      </trkpt>
      <trkpt lat="49.84826" lon="2.38964">
        <ele>27.6</ele>
        <time>2021-07-11T13:29:21Z</time>
      </trkpt>
      <trkpt lat="49.84824" lon="2.38964">
        <ele>27.6</ele>
        <time>2021-07-11T13:29:22Z</time>
      </trkpt>
      <trkpt lat="49.84823" lon="2.38963">
        <ele>27.6</ele>
        <time>2021-07-11T13:29:23Z</time>
      </trkpt>
      <trkpt lat="49.84821" lon="2.38964">
        <ele>27.6</ele>
        <time>2021-07-11T13:29:25Z</time>
      </trkpt>
      <trkpt lat="49.8482" lon="2.38965">
        <ele>27.7</ele>
        <time>2021-07-11T13:29:26Z</time>
      </trkpt>
      <trkpt lat="49.84819" lon="2.38967">
        <ele>27.7</ele>
        <time>2021-07-11T13:29:27Z</time>
      </trkpt>
      <trkpt lat="49.84818" lon="2.38968">
        <ele>27.7</ele>
        <time>2021-07-11T13:29:28Z</time>
      </trkpt>
      <trkpt lat="49.84816" lon="2.38969">
        <ele>27.7</ele>
        <time>2021-07-11T13:29:29Z</time>
      </trkpt>
      <trkpt lat="49.84815" lon="2.3897">
        <ele>27.7</ele>
        <time>2021-07-11T13:29:30Z</time>
      </trkpt>
      <trkpt lat="49.84814" lon="2.38972">
        <ele>27.7</ele>
        <time>2021-07-11T13:29:31Z</time>
      </trkpt>
      <trkpt lat="49.84814" lon="2.38973">
        <ele>27.7</ele>
        <time>2021-07-11T13:29:33Z</time>
      </trkpt>
      <trkpt lat="49.84813" lon="2.38974">
        <ele>27.7</ele>
        <time>2021-07-11T13:29:34Z</time>
      </trkpt>
      <trkpt lat="49.84812" lon="2.38975">
        <ele>27.7</ele>
        <time>2021-07-11T13:29:35Z</time>
      </trkpt>
      <trkpt lat="49.84811" lon="2.38975">
        <ele>27.7</ele>
        <time>2021-07-11T13:29:36Z</time>
      </trkpt>
      <trkpt lat="49.84809" lon="2.38975">
        <ele>27.7</ele>
        <time>2021-07-11T13:29:38Z</time>
      </trkpt>
      <trkpt lat="49.84808" lon="2.38976">
        <ele>27.7</ele>
        <time>2021-07-11T13:29:39Z</time>
      </trkpt>
      <trkpt lat="49.84809" lon="2.38975">
        <ele>27.7</ele>
        <time>2021-07-11T13:29:40Z</time>
      </trkpt>
      <trkpt lat="49.84808" lon="2.38975">
        <ele>27.7</ele>
        <time>2021-07-11T13:29:41Z</time>
      </trkpt>
      <trkpt lat="49.84807" lon="2.38976">
        <ele>27.7</ele>
        <time>2021-07-11T13:29:43Z</time>
      </trkpt>
      <trkpt lat="49.84806" lon="2.38977">
        <ele>27.7</ele>
        <time>2021-07-11T13:29:44Z</time>
      </trkpt>
      <trkpt lat="49.84805" lon="2.38977">
        <ele>27.7</ele>
        <time>2021-07-11T13:29:45Z</time>
      </trkpt>
      <trkpt lat="49.84805" lon="2.38978">
        <ele>27.7</ele>
        <time>2021-07-11T13:29:47Z</time>
      </trkpt>
      <trkpt lat="49.84804" lon="2.38979">
        <ele>27.7</ele>
        <time>2021-07-11T13:29:48Z</time>
      </trkpt>
      <trkpt lat="49.84804" lon="2.3898">
        <ele>27.7</ele>
        <time>2021-07-11T13:29:49Z</time>
      </trkpt>
      <trkpt lat="49.84803" lon="2.38982">
        <ele>27.7</ele>
        <time>2021-07-11T13:29:51Z</time>
      </trkpt>
      <trkpt lat="49.84803" lon="2.38984">
        <ele>27.7</ele>
        <time>2021-07-11T13:29:52Z</time>
      </trkpt>
      <trkpt lat="49.84803" lon="2.38986">
        <ele>27.6</ele>
        <time>2021-07-11T13:29:53Z</time>
      </trkpt>
      <trkpt lat="49.84803" lon="2.38987">
        <ele>27.6</ele>
        <time>2021-07-11T13:29:54Z</time>
      </trkpt>
      <trkpt lat="49.84803" lon="2.38989">
        <ele>27.6</ele>
        <time>2021-07-11T13:29:55Z</time>
      </trkpt>
      <trkpt lat="49.84804" lon="2.38991">
        <ele>27.6</ele>
        <time>2021-07-11T13:29:57Z</time>
      </trkpt>
      <trkpt lat="49.84804" lon="2.38993">
        <ele>27.6</ele>
        <time>2021-07-11T13:29:58Z</time>
      </trkpt>
      <trkpt lat="49.84805" lon="2.38994">
        <ele>27.6</ele>
        <time>2021-07-11T13:29:59Z</time>
      </trkpt>
      <trkpt lat="49.84806" lon="2.38996">
        <ele>27.6</ele>
        <time>2021-07-11T13:30:01Z</time>
      </trkpt>
      <trkpt lat="49.84806" lon="2.38998">
        <ele>27.6</ele>
        <time>2021-07-11T13:30:02Z</time>
      </trkpt>
      <trkpt lat="49.84806" lon="2.38999">
        <ele>27.6</ele>
        <time>2021-07-11T13:30:03Z</time>
      </trkpt>
      <trkpt lat="49.84807" lon="2.39">
        <ele>27.6</ele>
        <time>2021-07-11T13:30:04Z</time>
      </trkpt>
      <trkpt lat="49.84807" lon="2.39001">
        <ele>27.6</ele>
        <time>2021-07-11T13:30:05Z</time>
      </trkpt>
      <trkpt lat="49.84807" lon="2.39002">
        <ele>27.6</ele>
        <time>2021-07-11T13:30:06Z</time>
      </trkpt>
      <trkpt lat="49.84808" lon="2.39002">
        <ele>27.6</ele>
        <time>2021-07-11T13:30:08Z</time>
      </trkpt>
      <trkpt lat="49.84808" lon="2.39003">
        <ele>27.6</ele>
        <time>2021-07-11T13:30:09Z</time>
      </trkpt>
      <trkpt lat="49.84808" lon="2.39004">
        <ele>27.6</ele>
        <time>2021-07-11T13:30:10Z</time>
      </trkpt>
      <trkpt lat="49.84808" lon="2.39005">
        <ele>27.5</ele>
        <time>2021-07-11T13:30:11Z</time>
      </trkpt>
      <trkpt lat="49.84808" lon="2.39006">
        <ele>27.5</ele>
        <time>2021-07-11T13:30:12Z</time>
      </trkpt>
      <trkpt lat="49.84808" lon="2.39007">
        <ele>27.5</ele>
        <time>2021-07-11T13:30:13Z</time>
      </trkpt>
      <trkpt lat="49.84808" lon="2.39008">
        <ele>27.5</ele>
        <time>2021-07-11T13:30:14Z</time>
      </trkpt>
      <trkpt lat="49.84807" lon="2.39009">
        <ele>27.5</ele>
        <time>2021-07-11T13:30:16Z</time>
      </trkpt>
      <trkpt lat="49.84807" lon="2.3901">
        <ele>27.5</ele>
        <time>2021-07-11T13:30:17Z</time>
      </trkpt>
      <trkpt lat="49.84807" lon="2.39011">
        <ele>27.5</ele>
        <time>2021-07-11T13:30:18Z</time>
      </trkpt>
      <trkpt lat="49.84806" lon="2.39012">
        <ele>27.5</ele>
        <time>2021-07-11T13:30:19Z</time>
      </trkpt>
      <trkpt lat="49.84806" lon="2.39013">
        <ele>27.5</ele>
        <time>2021-07-11T13:30:20Z</time>
      </trkpt>
      <trkpt lat="49.84806" lon="2.39014">
        <ele>27.5</ele>
        <time>2021-07-11T13:30:21Z</time>
      </trkpt>
      <trkpt lat="49.84806" lon="2.39014">
        <ele>27.5</ele>
        <time>2021-07-11T13:30:22Z</time>
      </trkpt>
      <trkpt lat="49.84807" lon="2.39015">
        <ele>27.5</ele>
        <time>2021-07-11T13:30:24Z</time>
      </trkpt>
      <trkpt lat="49.84807" lon="2.39016">
        <ele>27.5</ele>
        <time>2021-07-11T13:30:25Z</time>
      </trkpt>
      <trkpt lat="49.84807" lon="2.39017">
        <ele>27.5</ele>
        <time>2021-07-11T13:30:26Z</time>
      </trkpt>
      <trkpt lat="49.84807" lon="2.39018">
        <ele>27.5</ele>
        <time>2021-07-11T13:30:27Z</time>
      </trkpt>
      <trkpt lat="49.84807" lon="2.39019">
        <ele>27.5</ele>
        <time>2021-07-11T13:30:29Z</time>
      </trkpt>
      <trkpt lat="49.84806" lon="2.39021">
        <ele>27.5</ele>
        <time>2021-07-11T13:30:30Z</time>
      </trkpt>
      <trkpt lat="49.84805" lon="2.39022">
        <ele>27.5</ele>
        <time>2021-07-11T13:30:31Z</time>
      </trkpt>
      <trkpt lat="49.84804" lon="2.39025">
        <ele>27.5</ele>
        <time>2021-07-11T13:30:32Z</time>
      </trkpt>
      <trkpt lat="49.84803" lon="2.39025">
        <ele>27.5</ele>
        <time>2021-07-11T13:30:33Z</time>
      </trkpt>
      <trkpt lat="49.84802" lon="2.39026">
        <ele>27.5</ele>
        <time>2021-07-11T13:30:34Z</time>
      </trkpt>
      <trkpt lat="49.84802" lon="2.39026">
        <ele>27.5</ele>
        <time>2021-07-11T13:30:35Z</time>
      </trkpt>
      <trkpt lat="49.84801" lon="2.39028">
        <ele>27.5</ele>
        <time>2021-07-11T13:30:37Z</time>
      </trkpt>
      <trkpt lat="49.84801" lon="2.3903">
        <ele>27.5</ele>
        <time>2021-07-11T13:30:38Z</time>
      </trkpt>
      <trkpt lat="49.848" lon="2.39031">
        <ele>27.5</ele>
        <time>2021-07-11T13:30:39Z</time>
      </trkpt>
      <trkpt lat="49.848" lon="2.39033">
        <ele>27.5</ele>
        <time>2021-07-11T13:30:40Z</time>
      </trkpt>
      <trkpt lat="49.848" lon="2.39035">
        <ele>27.5</ele>
        <time>2021-07-11T13:30:41Z</time>
      </trkpt>
      <trkpt lat="49.84799" lon="2.39037">
        <ele>27.5</ele>
        <time>2021-07-11T13:30:42Z</time>
      </trkpt>
      <trkpt lat="49.84799" lon="2.39039">
        <ele>27.5</ele>
        <time>2021-07-11T13:30:43Z</time>
      </trkpt>
      <trkpt lat="49.84799" lon="2.39041">
        <ele>27.5</ele>
        <time>2021-07-11T13:30:45Z</time>
      </trkpt>
      <trkpt lat="49.84798" lon="2.39043">
        <ele>27.5</ele>
        <time>2021-07-11T13:30:46Z</time>
      </trkpt>
      <trkpt lat="49.84798" lon="2.39045">
        <ele>27.5</ele>
        <time>2021-07-11T13:30:47Z</time>
      </trkpt>
      <trkpt lat="49.84797" lon="2.39048">
        <ele>27.5</ele>
        <time>2021-07-11T13:30:48Z</time>
      </trkpt>
      <trkpt lat="49.84796" lon="2.3905">
        <ele>27.5</ele>
        <time>2021-07-11T13:30:49Z</time>
      </trkpt>
      <trkpt lat="49.84795" lon="2.39053">
        <ele>27.5</ele>
        <time>2021-07-11T13:30:50Z</time>
      </trkpt>
      <trkpt lat="49.84794" lon="2.39055">
        <ele>27.5</ele>
        <time>2021-07-11T13:30:52Z</time>
      </trkpt>
      <trkpt lat="49.84793" lon="2.39057">
        <ele>27.5</ele>
        <time>2021-07-11T13:30:53Z</time>
      </trkpt>
      <trkpt lat="49.84793" lon="2.39059">
        <ele>27.5</ele>
        <time>2021-07-11T13:30:54Z</time>
      </trkpt>
      <trkpt lat="49.84792" lon="2.39062">
        <ele>27.5</ele>
        <time>2021-07-11T13:30:55Z</time>
      </trkpt>
      <trkpt lat="49.84792" lon="2.39064">
        <ele>27.5</ele>
        <time>2021-07-11T13:30:56Z</time>
      </trkpt>
      <trkpt lat="49.84792" lon="2.39065">
        <ele>27.5</ele>
        <time>2021-07-11T13:30:57Z</time>
      </trkpt>
      <trkpt lat="49.84791" lon="2.39067">
        <ele>27.5</ele>
        <time>2021-07-11T13:30:58Z</time>
      </trkpt>
      <trkpt lat="49.8479" lon="2.39069">
        <ele>27.5</ele>
        <time>2021-07-11T13:31:00Z</time>
      </trkpt>
      <trkpt lat="49.84789" lon="2.39071">
        <ele>27.5</ele>
        <time>2021-07-11T13:31:01Z</time>
      </trkpt>
      <trkpt lat="49.84788" lon="2.39073">
        <ele>27.5</ele>
        <time>2021-07-11T13:31:02Z</time>
      </trkpt>
      <trkpt lat="49.84788" lon="2.39076">
        <ele>27.5</ele>
        <time>2021-07-11T13:31:03Z</time>
      </trkpt>
      <trkpt lat="49.84787" lon="2.39078">
        <ele>27.5</ele>
        <time>2021-07-11T13:31:04Z</time>
      </trkpt>
      <trkpt lat="49.84786" lon="2.3908">
        <ele>27.5</ele>
        <time>2021-07-11T13:31:05Z</time>
      </trkpt>
      <trkpt lat="49.84786" lon="2.39082">
        <ele>27.5</ele>
        <time>2021-07-11T13:31:06Z</time>
      </trkpt>
      <trkpt lat="49.84785" lon="2.39084">
        <ele>27.5</ele>
        <time>2021-07-11T13:31:08Z</time>
      </trkpt>
      <trkpt lat="49.84784" lon="2.39086">
        <ele>27.5</ele>
        <time>2021-07-11T13:31:09Z</time>
      </trkpt>
      <trkpt lat="49.84783" lon="2.39087">
        <ele>27.5</ele>
        <time>2021-07-11T13:31:10Z</time>
      </trkpt>
      <trkpt lat="49.84783" lon="2.39089">
        <ele>27.5</ele>
        <time>2021-07-11T13:31:11Z</time>
      </trkpt>
      <trkpt lat="49.84782" lon="2.39091">
        <ele>27.5</ele>
        <time>2021-07-11T13:31:12Z</time>
      </trkpt>
      <trkpt lat="49.84782" lon="2.39093">
        <ele>27.5</ele>
        <time>2021-07-11T13:31:13Z</time>
      </trkpt>
      <trkpt lat="49.84781" lon="2.39095">
        <ele>27.5</ele>
        <time>2021-07-11T13:31:15Z</time>
      </trkpt>
      <trkpt lat="49.8478" lon="2.39098">
        <ele>27.5</ele>
        <time>2021-07-11T13:31:16Z</time>
      </trkpt>
      <trkpt lat="49.8478" lon="2.39099">
        <ele>27.5</ele>
        <time>2021-07-11T13:31:17Z</time>
      </trkpt>
      <trkpt lat="49.84779" lon="2.391">
        <ele>27.5</ele>
        <time>2021-07-11T13:31:18Z</time>
      </trkpt>
      <trkpt lat="49.84778" lon="2.39102">
        <ele>27.5</ele>
        <time>2021-07-11T13:31:19Z</time>
      </trkpt>
      <trkpt lat="49.84778" lon="2.39105">
        <ele>27.5</ele>
        <time>2021-07-11T13:31:20Z</time>
      </trkpt>
      <trkpt lat="49.84778" lon="2.39107">
        <ele>27.5</ele>
        <time>2021-07-11T13:31:21Z</time>
      </trkpt>
      <trkpt lat="49.84778" lon="2.39109">
        <ele>27.5</ele>
        <time>2021-07-11T13:31:23Z</time>
      </trkpt>
      <trkpt lat="49.84778" lon="2.39112">
        <ele>27.5</ele>
        <time>2021-07-11T13:31:24Z</time>
      </trkpt>
      <trkpt lat="49.84777" lon="2.39114">
        <ele>27.5</ele>
        <time>2021-07-11T13:31:25Z</time>
      </trkpt>
      <trkpt lat="49.84777" lon="2.39117">
        <ele>27.5</ele>
        <time>2021-07-11T13:31:26Z</time>
      </trkpt>
      <trkpt lat="49.84777" lon="2.39118">
        <ele>27.5</ele>
        <time>2021-07-11T13:31:27Z</time>
      </trkpt>
      <trkpt lat="49.84776" lon="2.39119">
        <ele>27.6</ele>
        <time>2021-07-11T13:31:28Z</time>
      </trkpt>
      <trkpt lat="49.84776" lon="2.39123">
        <ele>27.6</ele>
        <time>2021-07-11T13:31:29Z</time>
      </trkpt>
      <trkpt lat="49.84775" lon="2.39124">
        <ele>27.6</ele>
        <time>2021-07-11T13:31:31Z</time>
      </trkpt>
      <trkpt lat="49.84775" lon="2.39125">
        <ele>27.6</ele>
        <time>2021-07-11T13:31:32Z</time>
      </trkpt>
      <trkpt lat="49.84775" lon="2.39128">
        <ele>27.6</ele>
        <time>2021-07-11T13:31:33Z</time>
      </trkpt>
      <trkpt lat="49.84774" lon="2.3913">
        <ele>27.6</ele>
        <time>2021-07-11T13:31:34Z</time>
      </trkpt>
      <trkpt lat="49.84774" lon="2.39131">
        <ele>27.6</ele>
        <time>2021-07-11T13:31:35Z</time>
      </trkpt>
      <trkpt lat="49.84774" lon="2.39133">
        <ele>27.6</ele>
        <time>2021-07-11T13:31:36Z</time>
      </trkpt>
      <trkpt lat="49.84773" lon="2.39136">
        <ele>27.6</ele>
        <time>2021-07-11T13:31:37Z</time>
      </trkpt>
      <trkpt lat="49.84773" lon="2.39137">
        <ele>27.7</ele>
        <time>2021-07-11T13:31:39Z</time>
      </trkpt>
      <trkpt lat="49.84772" lon="2.3914">
        <ele>27.7</ele>
        <time>2021-07-11T13:31:40Z</time>
      </trkpt>
      <trkpt lat="49.84771" lon="2.39143">
        <ele>27.7</ele>
        <time>2021-07-11T13:31:41Z</time>
      </trkpt>
      <trkpt lat="49.8477" lon="2.39144">
        <ele>27.7</ele>
        <time>2021-07-11T13:31:43Z</time>
      </trkpt>
      <trkpt lat="49.8477" lon="2.39145">
        <ele>27.7</ele>
        <time>2021-07-11T13:31:44Z</time>
      </trkpt>
      <trkpt lat="49.84769" lon="2.39146">
        <ele>27.7</ele>
        <time>2021-07-11T13:31:45Z</time>
      </trkpt>
      <trkpt lat="49.84769" lon="2.39148">
        <ele>27.7</ele>
        <time>2021-07-11T13:31:46Z</time>
      </trkpt>
      <trkpt lat="49.84768" lon="2.39149">
        <ele>27.8</ele>
        <time>2021-07-11T13:31:47Z</time>
      </trkpt>
      <trkpt lat="49.84766" lon="2.39152">
        <ele>27.8</ele>
        <time>2021-07-11T13:31:48Z</time>
      </trkpt>
      <trkpt lat="49.84766" lon="2.39153">
        <ele>27.8</ele>
        <time>2021-07-11T13:31:50Z</time>
      </trkpt>
      <trkpt lat="49.84765" lon="2.39155">
        <ele>27.8</ele>
        <time>2021-07-11T13:31:51Z</time>
      </trkpt>
      <trkpt lat="49.84765" lon="2.39156">
        <ele>27.9</ele>
        <time>2021-07-11T13:31:52Z</time>
      </trkpt>
      <trkpt lat="49.84764" lon="2.39157">
        <ele>27.9</ele>
        <time>2021-07-11T13:31:53Z</time>
      </trkpt>
      <trkpt lat="49.84764" lon="2.39159">
        <ele>27.9</ele>
        <time>2021-07-11T13:31:54Z</time>
      </trkpt>
      <trkpt lat="49.84763" lon="2.39161">
        <ele>27.9</ele>
        <time>2021-07-11T13:31:55Z</time>
      </trkpt>
      <trkpt lat="49.84763" lon="2.39162">
        <ele>27.9</ele>
        <time>2021-07-11T13:31:56Z</time>
      </trkpt>
      <trkpt lat="49.84763" lon="2.39162">
        <ele>27.9</ele>
        <time>2021-07-11T13:31:58Z</time>
      </trkpt>
      <trkpt lat="49.84762" lon="2.39163">
        <ele>27.9</ele>
        <time>2021-07-11T13:31:59Z</time>
      </trkpt>
      <trkpt lat="49.84761" lon="2.39163">
        <ele>28</ele>
        <time>2021-07-11T13:32:00Z</time>
      </trkpt>
      <trkpt lat="49.84761" lon="2.39164">
        <ele>28</ele>
        <time>2021-07-11T13:32:01Z</time>
      </trkpt>
      <trkpt lat="49.8476" lon="2.39165">
        <ele>28</ele>
        <time>2021-07-11T13:32:02Z</time>
      </trkpt>
      <trkpt lat="49.8476" lon="2.39167">
        <ele>28</ele>
        <time>2021-07-11T13:32:04Z</time>
      </trkpt>
      <trkpt lat="49.84759" lon="2.39168">
        <ele>28</ele>
        <time>2021-07-11T13:32:05Z</time>
      </trkpt>
      <trkpt lat="49.84758" lon="2.39169">
        <ele>28</ele>
        <time>2021-07-11T13:32:06Z</time>
      </trkpt>
      <trkpt lat="49.84757" lon="2.3917">
        <ele>28</ele>
        <time>2021-07-11T13:32:07Z</time>
      </trkpt>
      <trkpt lat="49.84756" lon="2.39171">
        <ele>28.1</ele>
        <time>2021-07-11T13:32:08Z</time>
      </trkpt>
      <trkpt lat="49.84755" lon="2.39172">
        <ele>28.1</ele>
        <time>2021-07-11T13:32:09Z</time>
      </trkpt>
      <trkpt lat="49.84755" lon="2.39173">
        <ele>28.1</ele>
        <time>2021-07-11T13:32:11Z</time>
      </trkpt>
      <trkpt lat="49.84754" lon="2.39173">
        <ele>28.1</ele>
        <time>2021-07-11T13:32:12Z</time>
      </trkpt>
      <trkpt lat="49.84754" lon="2.39174">
        <ele>28.1</ele>
        <time>2021-07-11T13:32:13Z</time>
      </trkpt>
      <trkpt lat="49.84754" lon="2.39175">
        <ele>28.1</ele>
        <time>2021-07-11T13:32:14Z</time>
      </trkpt>
      <trkpt lat="49.84754" lon="2.39177">
        <ele>28.1</ele>
        <time>2021-07-11T13:32:16Z</time>
      </trkpt>
      <trkpt lat="49.84754" lon="2.39177">
        <ele>28.1</ele>
        <time>2021-07-11T13:32:17Z</time>
      </trkpt>
      <trkpt lat="49.84754" lon="2.39177">
        <ele>28.1</ele>
        <time>2021-07-11T13:32:18Z</time>
      </trkpt>
      <trkpt lat="49.84753" lon="2.39178">
        <ele>28.1</ele>
        <time>2021-07-11T13:32:19Z</time>
      </trkpt>
      <trkpt lat="49.84753" lon="2.39178">
        <ele>28.1</ele>
        <time>2021-07-11T13:32:21Z</time>
      </trkpt>
      <trkpt lat="49.84752" lon="2.39179">
        <ele>28.1</ele>
        <time>2021-07-11T13:32:22Z</time>
      </trkpt>
      <trkpt lat="49.84752" lon="2.3918">
        <ele>28.1</ele>
        <time>2021-07-11T13:32:23Z</time>
      </trkpt>
      <trkpt lat="49.84751" lon="2.3918">
        <ele>28.1</ele>
        <time>2021-07-11T13:32:24Z</time>
      </trkpt>
      <trkpt lat="49.84751" lon="2.39181">
        <ele>28.1</ele>
        <time>2021-07-11T13:32:26Z</time>
      </trkpt>
      <trkpt lat="49.8475" lon="2.39181">
        <ele>28.1</ele>
        <time>2021-07-11T13:32:27Z</time>
      </trkpt>
      <trkpt lat="49.84749" lon="2.39181">
        <ele>28.1</ele>
        <time>2021-07-11T13:32:28Z</time>
      </trkpt>
      <trkpt lat="49.84749" lon="2.39182">
        <ele>28.1</ele>
        <time>2021-07-11T13:32:29Z</time>
      </trkpt>
      <trkpt lat="49.84748" lon="2.39182">
        <ele>28.1</ele>
        <time>2021-07-11T13:32:30Z</time>
      </trkpt>
      <trkpt lat="49.84748" lon="2.39183">
        <ele>28.1</ele>
        <time>2021-07-11T13:32:32Z</time>
      </trkpt>
      <trkpt lat="49.84747" lon="2.39184">
        <ele>28.1</ele>
        <time>2021-07-11T13:32:33Z</time>
      </trkpt>
      <trkpt lat="49.84747" lon="2.39184">
        <ele>28.1</ele>
        <time>2021-07-11T13:32:34Z</time>
      </trkpt>
      <trkpt lat="49.84746" lon="2.39184">
        <ele>28.1</ele>
        <time>2021-07-11T13:32:35Z</time>
      </trkpt>
      <trkpt lat="49.84745" lon="2.39185">
        <ele>28.1</ele>
        <time>2021-07-11T13:32:36Z</time>
      </trkpt>
      <trkpt lat="49.84744" lon="2.39186">
        <ele>28.1</ele>
        <time>2021-07-11T13:32:38Z</time>
      </trkpt>
      <trkpt lat="49.84743" lon="2.39187">
        <ele>28.1</ele>
        <time>2021-07-11T13:32:39Z</time>
      </trkpt>
      <trkpt lat="49.84743" lon="2.39187">
        <ele>28.1</ele>
        <time>2021-07-11T13:32:40Z</time>
      </trkpt>
      <trkpt lat="49.84742" lon="2.39188">
        <ele>28.1</ele>
        <time>2021-07-11T13:32:41Z</time>
      </trkpt>
      <trkpt lat="49.84741" lon="2.39189">
        <ele>28.1</ele>
        <time>2021-07-11T13:32:43Z</time>
      </trkpt>
      <trkpt lat="49.8474" lon="2.3919">
        <ele>28.1</ele>
        <time>2021-07-11T13:32:44Z</time>
      </trkpt>
      <trkpt lat="49.84739" lon="2.3919">
        <ele>28.1</ele>
        <time>2021-07-11T13:32:45Z</time>
      </trkpt>
      <trkpt lat="49.84737" lon="2.39192">
        <ele>28.1</ele>
        <time>2021-07-11T13:32:47Z</time>
      </trkpt>
      <trkpt lat="49.84737" lon="2.39192">
        <ele>28.1</ele>
        <time>2021-07-11T13:32:48Z</time>
      </trkpt>
      <trkpt lat="49.84736" lon="2.39193">
        <ele>28.1</ele>
        <time>2021-07-11T13:32:49Z</time>
      </trkpt>
      <trkpt lat="49.84734" lon="2.39194">
        <ele>28.1</ele>
        <time>2021-07-11T13:32:51Z</time>
      </trkpt>
      <trkpt lat="49.84733" lon="2.39197">
        <ele>28.1</ele>
        <time>2021-07-11T13:32:53Z</time>
      </trkpt>
      <trkpt lat="49.84733" lon="2.39198">
        <ele>28.1</ele>
        <time>2021-07-11T13:32:54Z</time>
      </trkpt>
      <trkpt lat="49.84731" lon="2.392">
        <ele>28.1</ele>
        <time>2021-07-11T13:32:56Z</time>
      </trkpt>
      <trkpt lat="49.8473" lon="2.392">
        <ele>28.1</ele>
        <time>2021-07-11T13:32:57Z</time>
      </trkpt>
      <trkpt lat="49.84729" lon="2.39201">
        <ele>28.1</ele>
        <time>2021-07-11T13:32:58Z</time>
      </trkpt>
      <trkpt lat="49.84727" lon="2.39202">
        <ele>28.1</ele>
        <time>2021-07-11T13:32:59Z</time>
      </trkpt>
      <trkpt lat="49.84725" lon="2.39204">
        <ele>28.1</ele>
        <time>2021-07-11T13:33:00Z</time>
      </trkpt>
      <trkpt lat="49.84724" lon="2.39205">
        <ele>28.1</ele>
        <time>2021-07-11T13:33:01Z</time>
      </trkpt>
      <trkpt lat="49.8472" lon="2.39208">
        <ele>28.2</ele>
        <time>2021-07-11T13:33:03Z</time>
      </trkpt>
      <trkpt lat="49.84718" lon="2.39209">
        <ele>28.2</ele>
        <time>2021-07-11T13:33:04Z</time>
      </trkpt>
      <trkpt lat="49.84717" lon="2.3921">
        <ele>28.2</ele>
        <time>2021-07-11T13:33:05Z</time>
      </trkpt>
      <trkpt lat="49.84716" lon="2.39211">
        <ele>28.2</ele>
        <time>2021-07-11T13:33:06Z</time>
      </trkpt>
      <trkpt lat="49.84714" lon="2.39211">
        <ele>28.2</ele>
        <time>2021-07-11T13:33:08Z</time>
      </trkpt>
      <trkpt lat="49.84713" lon="2.39213">
        <ele>28.2</ele>
        <time>2021-07-11T13:33:09Z</time>
      </trkpt>
      <trkpt lat="49.84712" lon="2.39214">
        <ele>28.2</ele>
        <time>2021-07-11T13:33:10Z</time>
      </trkpt>
      <trkpt lat="49.8471" lon="2.39215">
        <ele>28.2</ele>
        <time>2021-07-11T13:33:11Z</time>
      </trkpt>
      <trkpt lat="49.84709" lon="2.39216">
        <ele>28.2</ele>
        <time>2021-07-11T13:33:12Z</time>
      </trkpt>
      <trkpt lat="49.84708" lon="2.39218">
        <ele>28.2</ele>
        <time>2021-07-11T13:33:13Z</time>
      </trkpt>
      <trkpt lat="49.84707" lon="2.39219">
        <ele>28.2</ele>
        <time>2021-07-11T13:33:15Z</time>
      </trkpt>
      <trkpt lat="49.84707" lon="2.39221">
        <ele>28.2</ele>
        <time>2021-07-11T13:33:16Z</time>
      </trkpt>
      <trkpt lat="49.84708" lon="2.39223">
        <ele>28.2</ele>
        <time>2021-07-11T13:33:17Z</time>
      </trkpt>
      <trkpt lat="49.84708" lon="2.39224">
        <ele>28.2</ele>
        <time>2021-07-11T13:33:18Z</time>
      </trkpt>
      <trkpt lat="49.84707" lon="2.39225">
        <ele>28.3</ele>
        <time>2021-07-11T13:33:19Z</time>
      </trkpt>
      <trkpt lat="49.84707" lon="2.39227">
        <ele>28.3</ele>
        <time>2021-07-11T13:33:20Z</time>
      </trkpt>
      <trkpt lat="49.84706" lon="2.39228">
        <ele>28.3</ele>
        <time>2021-07-11T13:33:21Z</time>
      </trkpt>
      <trkpt lat="49.84705" lon="2.3923">
        <ele>28.3</ele>
        <time>2021-07-11T13:33:23Z</time>
      </trkpt>
      <trkpt lat="49.84705" lon="2.39231">
        <ele>28.3</ele>
        <time>2021-07-11T13:33:24Z</time>
      </trkpt>
      <trkpt lat="49.84704" lon="2.39233">
        <ele>28.3</ele>
        <time>2021-07-11T13:33:25Z</time>
      </trkpt>
      <trkpt lat="49.84704" lon="2.39234">
        <ele>28.3</ele>
        <time>2021-07-11T13:33:26Z</time>
      </trkpt>
      <trkpt lat="49.84705" lon="2.39234">
        <ele>28.3</ele>
        <time>2021-07-11T13:33:27Z</time>
      </trkpt>
      <trkpt lat="49.84706" lon="2.39235">
        <ele>28.3</ele>
        <time>2021-07-11T13:33:28Z</time>
      </trkpt>
      <trkpt lat="49.84705" lon="2.39237">
        <ele>28.3</ele>
        <time>2021-07-11T13:33:29Z</time>
      </trkpt>
      <trkpt lat="49.84705" lon="2.39239">
        <ele>28.3</ele>
        <time>2021-07-11T13:33:30Z</time>
      </trkpt>
      <trkpt lat="49.84705" lon="2.39241">
        <ele>28.3</ele>
        <time>2021-07-11T13:33:31Z</time>
      </trkpt>
      <trkpt lat="49.84704" lon="2.39243">
        <ele>28.3</ele>
        <time>2021-07-11T13:33:33Z</time>
      </trkpt>
      <trkpt lat="49.84704" lon="2.39245">
        <ele>28.3</ele>
        <time>2021-07-11T13:33:34Z</time>
      </trkpt>
      <trkpt lat="49.84704" lon="2.39247">
        <ele>28.3</ele>
        <time>2021-07-11T13:33:35Z</time>
      </trkpt>
      <trkpt lat="49.84703" lon="2.39249">
        <ele>28.4</ele>
        <time>2021-07-11T13:33:36Z</time>
      </trkpt>
      <trkpt lat="49.84703" lon="2.39251">
        <ele>28.4</ele>
        <time>2021-07-11T13:33:37Z</time>
      </trkpt>
      <trkpt lat="49.84703" lon="2.39254">
        <ele>28.4</ele>
        <time>2021-07-11T13:33:38Z</time>
      </trkpt>
      <trkpt lat="49.84703" lon="2.39256">
        <ele>28.4</ele>
        <time>2021-07-11T13:33:39Z</time>
      </trkpt>
      <trkpt lat="49.84703" lon="2.39259">
        <ele>28.4</ele>
        <time>2021-07-11T13:33:41Z</time>
      </trkpt>
      <trkpt lat="49.84703" lon="2.39261">
        <ele>28.4</ele>
        <time>2021-07-11T13:33:42Z</time>
      </trkpt>
      <trkpt lat="49.84702" lon="2.39264">
        <ele>28.4</ele>
        <time>2021-07-11T13:33:44Z</time>
      </trkpt>
      <trkpt lat="49.84702" lon="2.39265">
        <ele>28.4</ele>
        <time>2021-07-11T13:33:45Z</time>
      </trkpt>
      <trkpt lat="49.84702" lon="2.39268">
        <ele>28.4</ele>
        <time>2021-07-11T13:33:46Z</time>
      </trkpt>
      <trkpt lat="49.84702" lon="2.39269">
        <ele>28.4</ele>
        <time>2021-07-11T13:33:47Z</time>
      </trkpt>
      <trkpt lat="49.84702" lon="2.39272">
        <ele>28.4</ele>
        <time>2021-07-11T13:33:49Z</time>
      </trkpt>
      <trkpt lat="49.84702" lon="2.39275">
        <ele>28.4</ele>
        <time>2021-07-11T13:33:50Z</time>
      </trkpt>
      <trkpt lat="49.84702" lon="2.39276">
        <ele>28.5</ele>
        <time>2021-07-11T13:33:51Z</time>
      </trkpt>
      <trkpt lat="49.84702" lon="2.39278">
        <ele>28.5</ele>
        <time>2021-07-11T13:33:52Z</time>
      </trkpt>
      <trkpt lat="49.84701" lon="2.3928">
        <ele>28.5</ele>
        <time>2021-07-11T13:33:54Z</time>
      </trkpt>
      <trkpt lat="49.847" lon="2.39282">
        <ele>28.5</ele>
        <time>2021-07-11T13:33:56Z</time>
      </trkpt>
      <trkpt lat="49.847" lon="2.39284">
        <ele>28.5</ele>
        <time>2021-07-11T13:33:57Z</time>
      </trkpt>
      <trkpt lat="49.847" lon="2.39286">
        <ele>28.5</ele>
        <time>2021-07-11T13:33:58Z</time>
      </trkpt>
      <trkpt lat="49.847" lon="2.39287">
        <ele>28.5</ele>
        <time>2021-07-11T13:33:59Z</time>
      </trkpt>
      <trkpt lat="49.84701" lon="2.39291">
        <ele>28.5</ele>
        <time>2021-07-11T13:34:01Z</time>
      </trkpt>
      <trkpt lat="49.84701" lon="2.39293">
        <ele>28.5</ele>
        <time>2021-07-11T13:34:03Z</time>
      </trkpt>
      <trkpt lat="49.84701" lon="2.39295">
        <ele>28.6</ele>
        <time>2021-07-11T13:34:04Z</time>
      </trkpt>
      <trkpt lat="49.84702" lon="2.39297">
        <ele>28.6</ele>
        <time>2021-07-11T13:34:05Z</time>
      </trkpt>
      <trkpt lat="49.84702" lon="2.39299">
        <ele>28.6</ele>
        <time>2021-07-11T13:34:06Z</time>
      </trkpt>
      <trkpt lat="49.84702" lon="2.39302">
        <ele>28.6</ele>
        <time>2021-07-11T13:34:08Z</time>
      </trkpt>
      <trkpt lat="49.84702" lon="2.39303">
        <ele>28.6</ele>
        <time>2021-07-11T13:34:09Z</time>
      </trkpt>
      <trkpt lat="49.84702" lon="2.39305">
        <ele>28.6</ele>
        <time>2021-07-11T13:34:10Z</time>
      </trkpt>
      <trkpt lat="49.84702" lon="2.39308">
        <ele>28.7</ele>
        <time>2021-07-11T13:34:11Z</time>
      </trkpt>
      <trkpt lat="49.84702" lon="2.39309">
        <ele>28.7</ele>
        <time>2021-07-11T13:34:12Z</time>
      </trkpt>
      <trkpt lat="49.84702" lon="2.3931">
        <ele>28.7</ele>
        <time>2021-07-11T13:34:13Z</time>
      </trkpt>
      <trkpt lat="49.84702" lon="2.39312">
        <ele>28.7</ele>
        <time>2021-07-11T13:34:15Z</time>
      </trkpt>
      <trkpt lat="49.84702" lon="2.39314">
        <ele>28.7</ele>
        <time>2021-07-11T13:34:16Z</time>
      </trkpt>
      <trkpt lat="49.84701" lon="2.39315">
        <ele>28.7</ele>
        <time>2021-07-11T13:34:17Z</time>
      </trkpt>
      <trkpt lat="49.84701" lon="2.39317">
        <ele>28.8</ele>
        <time>2021-07-11T13:34:18Z</time>
      </trkpt>
      <trkpt lat="49.84701" lon="2.39319">
        <ele>28.8</ele>
        <time>2021-07-11T13:34:19Z</time>
      </trkpt>
      <trkpt lat="49.84701" lon="2.3932">
        <ele>28.8</ele>
        <time>2021-07-11T13:34:20Z</time>
      </trkpt>
      <trkpt lat="49.84701" lon="2.39321">
        <ele>28.8</ele>
        <time>2021-07-11T13:34:22Z</time>
      </trkpt>
      <trkpt lat="49.84701" lon="2.39323">
        <ele>28.8</ele>
        <time>2021-07-11T13:34:23Z</time>
      </trkpt>
      <trkpt lat="49.84701" lon="2.39324">
        <ele>28.9</ele>
        <time>2021-07-11T13:34:24Z</time>
      </trkpt>
      <trkpt lat="49.84702" lon="2.39326">
        <ele>28.9</ele>
        <time>2021-07-11T13:34:25Z</time>
      </trkpt>
      <trkpt lat="49.84702" lon="2.39328">
        <ele>28.9</ele>
        <time>2021-07-11T13:34:26Z</time>
      </trkpt>
      <trkpt lat="49.84702" lon="2.39329">
        <ele>28.9</ele>
        <time>2021-07-11T13:34:27Z</time>
      </trkpt>
      <trkpt lat="49.84703" lon="2.3933">
        <ele>28.9</ele>
        <time>2021-07-11T13:34:29Z</time>
      </trkpt>
      <trkpt lat="49.84703" lon="2.39332">
        <ele>29</ele>
        <time>2021-07-11T13:34:30Z</time>
      </trkpt>
      <trkpt lat="49.84704" lon="2.39334">
        <ele>29</ele>
        <time>2021-07-11T13:34:32Z</time>
      </trkpt>
      <trkpt lat="49.84704" lon="2.39335">
        <ele>29</ele>
        <time>2021-07-11T13:34:33Z</time>
      </trkpt>
      <trkpt lat="49.84704" lon="2.39336">
        <ele>29</ele>
        <time>2021-07-11T13:34:34Z</time>
      </trkpt>
      <trkpt lat="49.84703" lon="2.39338">
        <ele>29.1</ele>
        <time>2021-07-11T13:34:35Z</time>
      </trkpt>
      <trkpt lat="49.84703" lon="2.3934">
        <ele>29.1</ele>
        <time>2021-07-11T13:34:36Z</time>
      </trkpt>
      <trkpt lat="49.84703" lon="2.39343">
        <ele>29.1</ele>
        <time>2021-07-11T13:34:37Z</time>
      </trkpt>
      <trkpt lat="49.84703" lon="2.39345">
        <ele>29.2</ele>
        <time>2021-07-11T13:34:39Z</time>
      </trkpt>
      <trkpt lat="49.84702" lon="2.39347">
        <ele>29.2</ele>
        <time>2021-07-11T13:34:40Z</time>
      </trkpt>
      <trkpt lat="49.84702" lon="2.39349">
        <ele>29.2</ele>
        <time>2021-07-11T13:34:41Z</time>
      </trkpt>
      <trkpt lat="49.84701" lon="2.39351">
        <ele>29.3</ele>
        <time>2021-07-11T13:34:42Z</time>
      </trkpt>
      <trkpt lat="49.84701" lon="2.39353">
        <ele>29.3</ele>
        <time>2021-07-11T13:34:43Z</time>
      </trkpt>
      <trkpt lat="49.847" lon="2.39355">
        <ele>29.3</ele>
        <time>2021-07-11T13:34:44Z</time>
      </trkpt>
      <trkpt lat="49.847" lon="2.39356">
        <ele>29.4</ele>
        <time>2021-07-11T13:34:45Z</time>
      </trkpt>
      <trkpt lat="49.847" lon="2.39358">
        <ele>29.4</ele>
        <time>2021-07-11T13:34:47Z</time>
      </trkpt>
      <trkpt lat="49.84699" lon="2.39359">
        <ele>29.4</ele>
        <time>2021-07-11T13:34:48Z</time>
      </trkpt>
      <trkpt lat="49.84699" lon="2.39361">
        <ele>29.5</ele>
        <time>2021-07-11T13:34:49Z</time>
      </trkpt>
      <trkpt lat="49.84699" lon="2.39364">
        <ele>29.5</ele>
        <time>2021-07-11T13:34:50Z</time>
      </trkpt>
      <trkpt lat="49.84698" lon="2.39365">
        <ele>29.6</ele>
        <time>2021-07-11T13:34:51Z</time>
      </trkpt>
      <trkpt lat="49.84698" lon="2.39366">
        <ele>29.6</ele>
        <time>2021-07-11T13:34:52Z</time>
      </trkpt>
      <trkpt lat="49.84698" lon="2.39369">
        <ele>29.7</ele>
        <time>2021-07-11T13:34:54Z</time>
      </trkpt>
      <trkpt lat="49.84698" lon="2.3937">
        <ele>29.7</ele>
        <time>2021-07-11T13:34:55Z</time>
      </trkpt>
      <trkpt lat="49.84698" lon="2.39371">
        <ele>29.7</ele>
        <time>2021-07-11T13:34:57Z</time>
      </trkpt>
      <trkpt lat="49.84697" lon="2.39373">
        <ele>29.8</ele>
        <time>2021-07-11T13:34:58Z</time>
      </trkpt>
      <trkpt lat="49.84697" lon="2.39375">
        <ele>29.8</ele>
        <time>2021-07-11T13:34:59Z</time>
      </trkpt>
      <trkpt lat="49.84696" lon="2.39377">
        <ele>29.9</ele>
        <time>2021-07-11T13:35:00Z</time>
      </trkpt>
      <trkpt lat="49.84696" lon="2.3938">
        <ele>29.9</ele>
        <time>2021-07-11T13:35:01Z</time>
      </trkpt>
      <trkpt lat="49.84696" lon="2.39383">
        <ele>30</ele>
        <time>2021-07-11T13:35:03Z</time>
      </trkpt>
      <trkpt lat="49.84696" lon="2.39385">
        <ele>30.1</ele>
        <time>2021-07-11T13:35:04Z</time>
      </trkpt>
      <trkpt lat="49.84696" lon="2.39387">
        <ele>30.1</ele>
        <time>2021-07-11T13:35:05Z</time>
      </trkpt>
      <trkpt lat="49.84696" lon="2.39389">
        <ele>30.2</ele>
        <time>2021-07-11T13:35:06Z</time>
      </trkpt>
      <trkpt lat="49.84696" lon="2.39392">
        <ele>30.2</ele>
        <time>2021-07-11T13:35:08Z</time>
      </trkpt>
      <trkpt lat="49.84696" lon="2.39394">
        <ele>30.3</ele>
        <time>2021-07-11T13:35:09Z</time>
      </trkpt>
      <trkpt lat="49.84696" lon="2.39395">
        <ele>30.3</ele>
        <time>2021-07-11T13:35:10Z</time>
      </trkpt>
      <trkpt lat="49.84695" lon="2.39399">
        <ele>30.4</ele>
        <time>2021-07-11T13:35:12Z</time>
      </trkpt>
      <trkpt lat="49.84695" lon="2.39401">
        <ele>30.4</ele>
        <time>2021-07-11T13:35:13Z</time>
      </trkpt>
      <trkpt lat="49.84694" lon="2.39403">
        <ele>30.4</ele>
        <time>2021-07-11T13:35:14Z</time>
      </trkpt>
      <trkpt lat="49.84693" lon="2.39406">
        <ele>30.5</ele>
        <time>2021-07-11T13:35:15Z</time>
      </trkpt>
      <trkpt lat="49.84693" lon="2.39407">
        <ele>30.5</ele>
        <time>2021-07-11T13:35:17Z</time>
      </trkpt>
      <trkpt lat="49.84692" lon="2.39408">
        <ele>30.5</ele>
        <time>2021-07-11T13:35:18Z</time>
      </trkpt>
      <trkpt lat="49.84691" lon="2.39409">
        <ele>30.7</ele>
        <time>2021-07-11T13:35:19Z</time>
      </trkpt>
      <trkpt lat="49.8469" lon="2.3941">
        <ele>30.7</ele>
        <time>2021-07-11T13:35:20Z</time>
      </trkpt>
      <trkpt lat="49.84689" lon="2.39411">
        <ele>30.7</ele>
        <time>2021-07-11T13:35:21Z</time>
      </trkpt>
      <trkpt lat="49.84688" lon="2.39413">
        <ele>30.7</ele>
        <time>2021-07-11T13:35:22Z</time>
      </trkpt>
      <trkpt lat="49.84687" lon="2.39414">
        <ele>30.7</ele>
        <time>2021-07-11T13:35:24Z</time>
      </trkpt>
      <trkpt lat="49.84686" lon="2.39415">
        <ele>30.7</ele>
        <time>2021-07-11T13:35:25Z</time>
      </trkpt>
      <trkpt lat="49.84685" lon="2.39417">
        <ele>30.7</ele>
        <time>2021-07-11T13:35:26Z</time>
      </trkpt>
      <trkpt lat="49.84683" lon="2.39419">
        <ele>30.7</ele>
        <time>2021-07-11T13:35:27Z</time>
      </trkpt>
      <trkpt lat="49.84683" lon="2.3942">
        <ele>30.7</ele>
        <time>2021-07-11T13:35:28Z</time>
      </trkpt>
      <trkpt lat="49.84682" lon="2.39421">
        <ele>30.7</ele>
        <time>2021-07-11T13:35:29Z</time>
      </trkpt>
      <trkpt lat="49.84681" lon="2.39422">
        <ele>30.7</ele>
        <time>2021-07-11T13:35:30Z</time>
      </trkpt>
      <trkpt lat="49.8468" lon="2.39423">
        <ele>30.8</ele>
        <time>2021-07-11T13:35:31Z</time>
      </trkpt>
      <trkpt lat="49.8468" lon="2.39424">
        <ele>30.8</ele>
        <time>2021-07-11T13:35:33Z</time>
      </trkpt>
      <trkpt lat="49.84679" lon="2.39425">
        <ele>30.8</ele>
        <time>2021-07-11T13:35:34Z</time>
      </trkpt>
      <trkpt lat="49.84678" lon="2.39426">
        <ele>30.8</ele>
        <time>2021-07-11T13:35:35Z</time>
      </trkpt>
      <trkpt lat="49.84677" lon="2.39427">
        <ele>30.8</ele>
        <time>2021-07-11T13:35:37Z</time>
      </trkpt>
      <trkpt lat="49.84676" lon="2.39429">
        <ele>30.8</ele>
        <time>2021-07-11T13:35:38Z</time>
      </trkpt>
      <trkpt lat="49.84675" lon="2.3943">
        <ele>30.8</ele>
        <time>2021-07-11T13:35:39Z</time>
      </trkpt>
      <trkpt lat="49.84673" lon="2.39431">
        <ele>30.8</ele>
        <time>2021-07-11T13:35:41Z</time>
      </trkpt>
      <trkpt lat="49.84673" lon="2.39432">
        <ele>30.8</ele>
        <time>2021-07-11T13:35:42Z</time>
      </trkpt>
      <trkpt lat="49.84672" lon="2.39432">
        <ele>30.8</ele>
        <time>2021-07-11T13:35:43Z</time>
      </trkpt>
      <trkpt lat="49.8467" lon="2.39433">
        <ele>30.9</ele>
        <time>2021-07-11T13:35:45Z</time>
      </trkpt>
      <trkpt lat="49.84669" lon="2.39433">
        <ele>30.9</ele>
        <time>2021-07-11T13:35:46Z</time>
      </trkpt>
      <trkpt lat="49.84669" lon="2.39434">
        <ele>30.9</ele>
        <time>2021-07-11T13:35:47Z</time>
      </trkpt>
      <trkpt lat="49.84668" lon="2.39433">
        <ele>30.9</ele>
        <time>2021-07-11T13:35:48Z</time>
      </trkpt>
      <trkpt lat="49.84667" lon="2.39434">
        <ele>30.9</ele>
        <time>2021-07-11T13:35:49Z</time>
      </trkpt>
      <trkpt lat="49.84666" lon="2.39435">
        <ele>30.9</ele>
        <time>2021-07-11T13:35:50Z</time>
      </trkpt>
      <trkpt lat="49.84665" lon="2.39436">
        <ele>30.9</ele>
        <time>2021-07-11T13:35:51Z</time>
      </trkpt>
      <trkpt lat="49.84664" lon="2.39436">
        <ele>30.9</ele>
        <time>2021-07-11T13:35:53Z</time>
      </trkpt>
      <trkpt lat="49.84663" lon="2.39438">
        <ele>30.9</ele>
        <time>2021-07-11T13:35:54Z</time>
      </trkpt>
      <trkpt lat="49.84662" lon="2.39439">
        <ele>31</ele>
        <time>2021-07-11T13:35:55Z</time>
      </trkpt>
      <trkpt lat="49.84661" lon="2.3944">
        <ele>31</ele>
        <time>2021-07-11T13:35:57Z</time>
      </trkpt>
      <trkpt lat="49.8466" lon="2.39441">
        <ele>31</ele>
        <time>2021-07-11T13:35:58Z</time>
      </trkpt>
      <trkpt lat="49.84659" lon="2.39442">
        <ele>31</ele>
        <time>2021-07-11T13:35:59Z</time>
      </trkpt>
      <trkpt lat="49.84658" lon="2.39443">
        <ele>31</ele>
        <time>2021-07-11T13:36:00Z</time>
      </trkpt>
      <trkpt lat="49.84657" lon="2.39444">
        <ele>31</ele>
        <time>2021-07-11T13:36:01Z</time>
      </trkpt>
      <trkpt lat="49.84656" lon="2.39445">
        <ele>31</ele>
        <time>2021-07-11T13:36:02Z</time>
      </trkpt>
      <trkpt lat="49.84656" lon="2.39445">
        <ele>31</ele>
        <time>2021-07-11T13:36:03Z</time>
      </trkpt>
      <trkpt lat="49.84655" lon="2.39445">
        <ele>31</ele>
        <time>2021-07-11T13:36:05Z</time>
      </trkpt>
      <trkpt lat="49.84654" lon="2.39445">
        <ele>31.1</ele>
        <time>2021-07-11T13:36:06Z</time>
      </trkpt>
      <trkpt lat="49.84654" lon="2.39443">
        <ele>31.1</ele>
        <time>2021-07-11T13:36:08Z</time>
      </trkpt>
      <trkpt lat="49.84653" lon="2.39443">
        <ele>31.1</ele>
        <time>2021-07-11T13:36:09Z</time>
      </trkpt>
      <trkpt lat="49.84653" lon="2.39442">
        <ele>31.1</ele>
        <time>2021-07-11T13:36:11Z</time>
      </trkpt>
      <trkpt lat="49.84653" lon="2.39442">
        <ele>31.1</ele>
        <time>2021-07-11T13:36:12Z</time>
      </trkpt>
      <trkpt lat="49.84653" lon="2.39442">
        <ele>31.1</ele>
        <time>2021-07-11T13:36:13Z</time>
      </trkpt>
      <trkpt lat="49.84653" lon="2.39442">
        <ele>31.1</ele>
        <time>2021-07-11T13:36:14Z</time>
      </trkpt>
      <trkpt lat="49.84653" lon="2.39442">
        <ele>31.1</ele>
        <time>2021-07-11T13:36:16Z</time>
      </trkpt>
      <trkpt lat="49.84653" lon="2.39442">
        <ele>31.1</ele>
        <time>2021-07-11T13:36:17Z</time>
      </trkpt>
      <trkpt lat="49.84653" lon="2.39443">
        <ele>31.1</ele>
        <time>2021-07-11T13:36:19Z</time>
      </trkpt>
      <trkpt lat="49.84653" lon="2.39443">
        <ele>31.1</ele>
        <time>2021-07-11T13:36:21Z</time>
      </trkpt>
      <trkpt lat="49.84653" lon="2.39443">
        <ele>31.1</ele>
        <time>2021-07-11T13:36:23Z</time>
      </trkpt>
      <trkpt lat="49.84653" lon="2.39443">
        <ele>31.1</ele>
        <time>2021-07-11T13:36:25Z</time>
      </trkpt>
      <trkpt lat="49.84652" lon="2.39443">
        <ele>31.1</ele>
        <time>2021-07-11T13:36:26Z</time>
      </trkpt>
      <trkpt lat="49.84652" lon="2.39443">
        <ele>31.1</ele>
        <time>2021-07-11T13:36:28Z</time>
      </trkpt>
      <trkpt lat="49.84652" lon="2.39443">
        <ele>31.1</ele>
        <time>2021-07-11T13:36:29Z</time>
      </trkpt>
      <trkpt lat="49.84652" lon="2.39444">
        <ele>31.1</ele>
        <time>2021-07-11T13:36:30Z</time>
      </trkpt>
      <trkpt lat="49.84652" lon="2.39444">
        <ele>31.1</ele>
        <time>2021-07-11T13:36:31Z</time>
      </trkpt>
      <trkpt lat="49.84652" lon="2.39444">
        <ele>31.1</ele>
        <time>2021-07-11T13:36:32Z</time>
      </trkpt>
      <trkpt lat="49.8465" lon="2.39448">
        <ele>31.1</ele>
        <time>2021-07-11T13:36:33Z</time>
      </trkpt>
      <trkpt lat="49.8465" lon="2.39449">
        <ele>31.1</ele>
        <time>2021-07-11T13:36:34Z</time>
      </trkpt>
      <trkpt lat="49.8465" lon="2.39452">
        <ele>31.2</ele>
        <time>2021-07-11T13:36:35Z</time>
      </trkpt>
      <trkpt lat="49.8465" lon="2.39454">
        <ele>31.2</ele>
        <time>2021-07-11T13:36:37Z</time>
      </trkpt>
      <trkpt lat="49.8465" lon="2.39456">
        <ele>31.2</ele>
        <time>2021-07-11T13:36:38Z</time>
      </trkpt>
      <trkpt lat="49.8465" lon="2.39458">
        <ele>31.2</ele>
        <time>2021-07-11T13:36:39Z</time>
      </trkpt>
      <trkpt lat="49.84649" lon="2.39461">
        <ele>31.2</ele>
        <time>2021-07-11T13:36:40Z</time>
      </trkpt>
      <trkpt lat="49.84648" lon="2.39462">
        <ele>31.3</ele>
        <time>2021-07-11T13:36:41Z</time>
      </trkpt>
      <trkpt lat="49.84647" lon="2.39463">
        <ele>31.3</ele>
        <time>2021-07-11T13:36:42Z</time>
      </trkpt>
      <trkpt lat="49.84645" lon="2.39465">
        <ele>31.3</ele>
        <time>2021-07-11T13:36:43Z</time>
      </trkpt>
      <trkpt lat="49.84645" lon="2.39465">
        <ele>31.3</ele>
        <time>2021-07-11T13:36:45Z</time>
      </trkpt>
      <trkpt lat="49.84644" lon="2.39466">
        <ele>31.3</ele>
        <time>2021-07-11T13:36:46Z</time>
      </trkpt>
      <trkpt lat="49.84643" lon="2.39468">
        <ele>31.4</ele>
        <time>2021-07-11T13:36:47Z</time>
      </trkpt>
      <trkpt lat="49.84643" lon="2.39469">
        <ele>31.4</ele>
        <time>2021-07-11T13:36:48Z</time>
      </trkpt>
      <trkpt lat="49.84642" lon="2.3947">
        <ele>31.4</ele>
        <time>2021-07-11T13:36:49Z</time>
      </trkpt>
      <trkpt lat="49.84641" lon="2.39471">
        <ele>31.4</ele>
        <time>2021-07-11T13:36:50Z</time>
      </trkpt>
      <trkpt lat="49.8464" lon="2.39473">
        <ele>31.4</ele>
        <time>2021-07-11T13:36:51Z</time>
      </trkpt>
      <trkpt lat="49.84639" lon="2.39474">
        <ele>31.4</ele>
        <time>2021-07-11T13:36:52Z</time>
      </trkpt>
      <trkpt lat="49.84638" lon="2.39477">
        <ele>31.5</ele>
        <time>2021-07-11T13:36:54Z</time>
      </trkpt>
      <trkpt lat="49.84638" lon="2.39478">
        <ele>31.5</ele>
        <time>2021-07-11T13:36:55Z</time>
      </trkpt>
      <trkpt lat="49.84637" lon="2.39479">
        <ele>31.5</ele>
        <time>2021-07-11T13:36:56Z</time>
      </trkpt>
      <trkpt lat="49.84637" lon="2.39482">
        <ele>31.5</ele>
        <time>2021-07-11T13:36:57Z</time>
      </trkpt>
      <trkpt lat="49.84637" lon="2.39484">
        <ele>31.5</ele>
        <time>2021-07-11T13:36:58Z</time>
      </trkpt>
      <trkpt lat="49.84636" lon="2.39485">
        <ele>31.6</ele>
        <time>2021-07-11T13:36:59Z</time>
      </trkpt>
      <trkpt lat="49.84636" lon="2.39488">
        <ele>31.6</ele>
        <time>2021-07-11T13:37:00Z</time>
      </trkpt>
      <trkpt lat="49.84635" lon="2.3949">
        <ele>31.6</ele>
        <time>2021-07-11T13:37:01Z</time>
      </trkpt>
      <trkpt lat="49.84634" lon="2.39492">
        <ele>31.6</ele>
        <time>2021-07-11T13:37:02Z</time>
      </trkpt>
      <trkpt lat="49.84634" lon="2.39493">
        <ele>31.6</ele>
        <time>2021-07-11T13:37:04Z</time>
      </trkpt>
      <trkpt lat="49.84633" lon="2.39495">
        <ele>31.7</ele>
        <time>2021-07-11T13:37:05Z</time>
      </trkpt>
      <trkpt lat="49.84632" lon="2.39496">
        <ele>31.7</ele>
        <time>2021-07-11T13:37:06Z</time>
      </trkpt>
      <trkpt lat="49.84631" lon="2.39498">
        <ele>31.7</ele>
        <time>2021-07-11T13:37:07Z</time>
      </trkpt>
      <trkpt lat="49.8463" lon="2.395">
        <ele>31.7</ele>
        <time>2021-07-11T13:37:08Z</time>
      </trkpt>
      <trkpt lat="49.8463" lon="2.39502">
        <ele>31.7</ele>
        <time>2021-07-11T13:37:09Z</time>
      </trkpt>
      <trkpt lat="49.84629" lon="2.39503">
        <ele>31.7</ele>
        <time>2021-07-11T13:37:10Z</time>
      </trkpt>
      <trkpt lat="49.84628" lon="2.39505">
        <ele>31.8</ele>
        <time>2021-07-11T13:37:11Z</time>
      </trkpt>
      <trkpt lat="49.84628" lon="2.39507">
        <ele>31.8</ele>
        <time>2021-07-11T13:37:12Z</time>
      </trkpt>
      <trkpt lat="49.84627" lon="2.39509">
        <ele>31.8</ele>
        <time>2021-07-11T13:37:14Z</time>
      </trkpt>
      <trkpt lat="49.84626" lon="2.39511">
        <ele>31.8</ele>
        <time>2021-07-11T13:37:15Z</time>
      </trkpt>
      <trkpt lat="49.84625" lon="2.39513">
        <ele>31.9</ele>
        <time>2021-07-11T13:37:16Z</time>
      </trkpt>
      <trkpt lat="49.84624" lon="2.39515">
        <ele>31.9</ele>
        <time>2021-07-11T13:37:17Z</time>
      </trkpt>
      <trkpt lat="49.84622" lon="2.39518">
        <ele>31.9</ele>
        <time>2021-07-11T13:37:18Z</time>
      </trkpt>
      <trkpt lat="49.84622" lon="2.39519">
        <ele>31.9</ele>
        <time>2021-07-11T13:37:19Z</time>
      </trkpt>
      <trkpt lat="49.84621" lon="2.3952">
        <ele>31.9</ele>
        <time>2021-07-11T13:37:20Z</time>
      </trkpt>
      <trkpt lat="49.8462" lon="2.39522">
        <ele>31.9</ele>
        <time>2021-07-11T13:37:21Z</time>
      </trkpt>
      <trkpt lat="49.84619" lon="2.39524">
        <ele>31.9</ele>
        <time>2021-07-11T13:37:22Z</time>
      </trkpt>
      <trkpt lat="49.84618" lon="2.39526">
        <ele>31.9</ele>
        <time>2021-07-11T13:37:24Z</time>
      </trkpt>
      <trkpt lat="49.84617" lon="2.39528">
        <ele>32</ele>
        <time>2021-07-11T13:37:25Z</time>
      </trkpt>
      <trkpt lat="49.84615" lon="2.3953">
        <ele>32</ele>
        <time>2021-07-11T13:37:26Z</time>
      </trkpt>
      <trkpt lat="49.84615" lon="2.39531">
        <ele>32</ele>
        <time>2021-07-11T13:37:27Z</time>
      </trkpt>
      <trkpt lat="49.84614" lon="2.39532">
        <ele>32</ele>
        <time>2021-07-11T13:37:28Z</time>
      </trkpt>
      <trkpt lat="49.84613" lon="2.39533">
        <ele>32</ele>
        <time>2021-07-11T13:37:29Z</time>
      </trkpt>
      <trkpt lat="49.84612" lon="2.39534">
        <ele>32</ele>
        <time>2021-07-11T13:37:30Z</time>
      </trkpt>
      <trkpt lat="49.84611" lon="2.39534">
        <ele>32</ele>
        <time>2021-07-11T13:37:31Z</time>
      </trkpt>
      <trkpt lat="49.8461" lon="2.39534">
        <ele>32</ele>
        <time>2021-07-11T13:37:33Z</time>
      </trkpt>
      <trkpt lat="49.84608" lon="2.39532">
        <ele>32</ele>
        <time>2021-07-11T13:37:35Z</time>
      </trkpt>
      <trkpt lat="49.84608" lon="2.3953">
        <ele>32</ele>
        <time>2021-07-11T13:37:36Z</time>
      </trkpt>
      <trkpt lat="49.84608" lon="2.39528">
        <ele>32</ele>
        <time>2021-07-11T13:37:37Z</time>
      </trkpt>
      <trkpt lat="49.84609" lon="2.39526">
        <ele>32</ele>
        <time>2021-07-11T13:37:38Z</time>
      </trkpt>
      <trkpt lat="49.84609" lon="2.39525">
        <ele>32</ele>
        <time>2021-07-11T13:37:40Z</time>
      </trkpt>
      <trkpt lat="49.8461" lon="2.39524">
        <ele>32</ele>
        <time>2021-07-11T13:37:42Z</time>
      </trkpt>
      <trkpt lat="49.8461" lon="2.39524">
        <ele>32</ele>
        <time>2021-07-11T13:37:43Z</time>
      </trkpt>
      <trkpt lat="49.8461" lon="2.39523">
        <ele>32</ele>
        <time>2021-07-11T13:37:45Z</time>
      </trkpt>
      <trkpt lat="49.8461" lon="2.39523">
        <ele>32</ele>
        <time>2021-07-11T13:37:47Z</time>
      </trkpt>
      <trkpt lat="49.8461" lon="2.39523">
        <ele>32</ele>
        <time>2021-07-11T13:37:48Z</time>
      </trkpt>
      <trkpt lat="49.8461" lon="2.39523">
        <ele>32</ele>
        <time>2021-07-11T13:37:50Z</time>
      </trkpt>
      <trkpt lat="49.8461" lon="2.39523">
        <ele>32</ele>
        <time>2021-07-11T13:37:51Z</time>
      </trkpt>
      <trkpt lat="49.8461" lon="2.39522">
        <ele>32</ele>
        <time>2021-07-11T13:37:52Z</time>
      </trkpt>
      <trkpt lat="49.84609" lon="2.39522">
        <ele>32</ele>
        <time>2021-07-11T13:37:54Z</time>
      </trkpt>
      <trkpt lat="49.84608" lon="2.39523">
        <ele>32</ele>
        <time>2021-07-11T13:37:55Z</time>
      </trkpt>
      <trkpt lat="49.84607" lon="2.39524">
        <ele>32.1</ele>
        <time>2021-07-11T13:37:56Z</time>
      </trkpt>
      <trkpt lat="49.84606" lon="2.39525">
        <ele>32.1</ele>
        <time>2021-07-11T13:37:57Z</time>
      </trkpt>
      <trkpt lat="49.84605" lon="2.39529">
        <ele>32.1</ele>
        <time>2021-07-11T13:37:59Z</time>
      </trkpt>
      <trkpt lat="49.84604" lon="2.39531">
        <ele>32.1</ele>
        <time>2021-07-11T13:38:00Z</time>
      </trkpt>
      <trkpt lat="49.84603" lon="2.39533">
        <ele>32.1</ele>
        <time>2021-07-11T13:38:01Z</time>
      </trkpt>
      <trkpt lat="49.84602" lon="2.39535">
        <ele>32.1</ele>
        <time>2021-07-11T13:38:02Z</time>
      </trkpt>
      <trkpt lat="49.84602" lon="2.39537">
        <ele>32.1</ele>
        <time>2021-07-11T13:38:03Z</time>
      </trkpt>
      <trkpt lat="49.846" lon="2.39539">
        <ele>32.1</ele>
        <time>2021-07-11T13:38:05Z</time>
      </trkpt>
      <trkpt lat="49.846" lon="2.3954">
        <ele>32.1</ele>
        <time>2021-07-11T13:38:06Z</time>
      </trkpt>
      <trkpt lat="49.84599" lon="2.39541">
        <ele>32.2</ele>
        <time>2021-07-11T13:38:07Z</time>
      </trkpt>
      <trkpt lat="49.84597" lon="2.39545">
        <ele>32.2</ele>
        <time>2021-07-11T13:38:09Z</time>
      </trkpt>
      <trkpt lat="49.84597" lon="2.39546">
        <ele>32.2</ele>
        <time>2021-07-11T13:38:10Z</time>
      </trkpt>
      <trkpt lat="49.84596" lon="2.39548">
        <ele>32.2</ele>
        <time>2021-07-11T13:38:11Z</time>
      </trkpt>
      <trkpt lat="49.84596" lon="2.3955">
        <ele>32.2</ele>
        <time>2021-07-11T13:38:12Z</time>
      </trkpt>
      <trkpt lat="49.84595" lon="2.39552">
        <ele>32.2</ele>
        <time>2021-07-11T13:38:13Z</time>
      </trkpt>
      <trkpt lat="49.84595" lon="2.39554">
        <ele>32.2</ele>
        <time>2021-07-11T13:38:14Z</time>
      </trkpt>
      <trkpt lat="49.84594" lon="2.39557">
        <ele>32.3</ele>
        <time>2021-07-11T13:38:16Z</time>
      </trkpt>
      <trkpt lat="49.84593" lon="2.39558">
        <ele>32.3</ele>
        <time>2021-07-11T13:38:17Z</time>
      </trkpt>
      <trkpt lat="49.84593" lon="2.39559">
        <ele>32.3</ele>
        <time>2021-07-11T13:38:18Z</time>
      </trkpt>
      <trkpt lat="49.84592" lon="2.39562">
        <ele>32.3</ele>
        <time>2021-07-11T13:38:19Z</time>
      </trkpt>
      <trkpt lat="49.84591" lon="2.39563">
        <ele>32.3</ele>
        <time>2021-07-11T13:38:20Z</time>
      </trkpt>
      <trkpt lat="49.84591" lon="2.39564">
        <ele>32.3</ele>
        <time>2021-07-11T13:38:21Z</time>
      </trkpt>
      <trkpt lat="49.84589" lon="2.39566">
        <ele>32.4</ele>
        <time>2021-07-11T13:38:22Z</time>
      </trkpt>
      <trkpt lat="49.84588" lon="2.39567">
        <ele>32.4</ele>
        <time>2021-07-11T13:38:24Z</time>
      </trkpt>
      <trkpt lat="49.84586" lon="2.39567">
        <ele>32.4</ele>
        <time>2021-07-11T13:38:25Z</time>
      </trkpt>
      <trkpt lat="49.84585" lon="2.39568">
        <ele>32.4</ele>
        <time>2021-07-11T13:38:26Z</time>
      </trkpt>
      <trkpt lat="49.84584" lon="2.39569">
        <ele>32.4</ele>
        <time>2021-07-11T13:38:27Z</time>
      </trkpt>
      <trkpt lat="49.84583" lon="2.3957">
        <ele>32.4</ele>
        <time>2021-07-11T13:38:28Z</time>
      </trkpt>
      <trkpt lat="49.84582" lon="2.39572">
        <ele>32.4</ele>
        <time>2021-07-11T13:38:29Z</time>
      </trkpt>
      <trkpt lat="49.8458" lon="2.39574">
        <ele>32.5</ele>
        <time>2021-07-11T13:38:31Z</time>
      </trkpt>
      <trkpt lat="49.8458" lon="2.39575">
        <ele>32.5</ele>
        <time>2021-07-11T13:38:32Z</time>
      </trkpt>
      <trkpt lat="49.84579" lon="2.39576">
        <ele>32.5</ele>
        <time>2021-07-11T13:38:33Z</time>
      </trkpt>
      <trkpt lat="49.84579" lon="2.39578">
        <ele>32.5</ele>
        <time>2021-07-11T13:38:34Z</time>
      </trkpt>
      <trkpt lat="49.84578" lon="2.39579">
        <ele>32.5</ele>
        <time>2021-07-11T13:38:35Z</time>
      </trkpt>
      <trkpt lat="49.84577" lon="2.39581">
        <ele>32.5</ele>
        <time>2021-07-11T13:38:36Z</time>
      </trkpt>
      <trkpt lat="49.84576" lon="2.39582">
        <ele>32.6</ele>
        <time>2021-07-11T13:38:37Z</time>
      </trkpt>
      <trkpt lat="49.84575" lon="2.39584">
        <ele>32.6</ele>
        <time>2021-07-11T13:38:38Z</time>
      </trkpt>
      <trkpt lat="49.84574" lon="2.39585">
        <ele>32.6</ele>
        <time>2021-07-11T13:38:40Z</time>
      </trkpt>
      <trkpt lat="49.84573" lon="2.39587">
        <ele>32.6</ele>
        <time>2021-07-11T13:38:41Z</time>
      </trkpt>
      <trkpt lat="49.84572" lon="2.39588">
        <ele>32.6</ele>
        <time>2021-07-11T13:38:42Z</time>
      </trkpt>
      <trkpt lat="49.84571" lon="2.39589">
        <ele>32.6</ele>
        <time>2021-07-11T13:38:43Z</time>
      </trkpt>
      <trkpt lat="49.8457" lon="2.3959">
        <ele>32.7</ele>
        <time>2021-07-11T13:38:44Z</time>
      </trkpt>
      <trkpt lat="49.8457" lon="2.39591">
        <ele>32.7</ele>
        <time>2021-07-11T13:38:45Z</time>
      </trkpt>
      <trkpt lat="49.84569" lon="2.39593">
        <ele>32.7</ele>
        <time>2021-07-11T13:38:47Z</time>
      </trkpt>
      <trkpt lat="49.84569" lon="2.39594">
        <ele>32.7</ele>
        <time>2021-07-11T13:38:48Z</time>
      </trkpt>
      <trkpt lat="49.84568" lon="2.39596">
        <ele>32.7</ele>
        <time>2021-07-11T13:38:49Z</time>
      </trkpt>
      <trkpt lat="49.84567" lon="2.39597">
        <ele>32.8</ele>
        <time>2021-07-11T13:38:50Z</time>
      </trkpt>
      <trkpt lat="49.84567" lon="2.39598">
        <ele>32.8</ele>
        <time>2021-07-11T13:38:51Z</time>
      </trkpt>
      <trkpt lat="49.84566" lon="2.396">
        <ele>32.8</ele>
        <time>2021-07-11T13:38:52Z</time>
      </trkpt>
      <trkpt lat="49.84565" lon="2.39601">
        <ele>32.8</ele>
        <time>2021-07-11T13:38:53Z</time>
      </trkpt>
      <trkpt lat="49.84564" lon="2.39603">
        <ele>32.8</ele>
        <time>2021-07-11T13:38:55Z</time>
      </trkpt>
      <trkpt lat="49.84564" lon="2.39604">
        <ele>32.9</ele>
        <time>2021-07-11T13:38:56Z</time>
      </trkpt>
      <trkpt lat="49.84563" lon="2.39605">
        <ele>32.9</ele>
        <time>2021-07-11T13:38:57Z</time>
      </trkpt>
      <trkpt lat="49.84562" lon="2.39606">
        <ele>32.9</ele>
        <time>2021-07-11T13:38:58Z</time>
      </trkpt>
      <trkpt lat="49.84561" lon="2.39608">
        <ele>32.9</ele>
        <time>2021-07-11T13:38:59Z</time>
      </trkpt>
      <trkpt lat="49.8456" lon="2.39609">
        <ele>32.9</ele>
        <time>2021-07-11T13:39:00Z</time>
      </trkpt>
      <trkpt lat="49.84559" lon="2.3961">
        <ele>33</ele>
        <time>2021-07-11T13:39:01Z</time>
      </trkpt>
      <trkpt lat="49.84558" lon="2.39611">
        <ele>33</ele>
        <time>2021-07-11T13:39:02Z</time>
      </trkpt>
      <trkpt lat="49.84557" lon="2.39612">
        <ele>33</ele>
        <time>2021-07-11T13:39:04Z</time>
      </trkpt>
      <trkpt lat="49.84556" lon="2.39613">
        <ele>33</ele>
        <time>2021-07-11T13:39:05Z</time>
      </trkpt>
      <trkpt lat="49.84554" lon="2.39614">
        <ele>33.1</ele>
        <time>2021-07-11T13:39:06Z</time>
      </trkpt>
      <trkpt lat="49.84553" lon="2.39615">
        <ele>33.1</ele>
        <time>2021-07-11T13:39:07Z</time>
      </trkpt>
      <trkpt lat="49.84552" lon="2.39616">
        <ele>33.1</ele>
        <time>2021-07-11T13:39:08Z</time>
      </trkpt>
      <trkpt lat="49.84551" lon="2.39617">
        <ele>33.1</ele>
        <time>2021-07-11T13:39:09Z</time>
      </trkpt>
      <trkpt lat="49.8455" lon="2.39617">
        <ele>33.1</ele>
        <time>2021-07-11T13:39:11Z</time>
      </trkpt>
      <trkpt lat="49.84549" lon="2.39618">
        <ele>33.2</ele>
        <time>2021-07-11T13:39:12Z</time>
      </trkpt>
      <trkpt lat="49.84547" lon="2.39619">
        <ele>33.2</ele>
        <time>2021-07-11T13:39:13Z</time>
      </trkpt>
      <trkpt lat="49.84546" lon="2.3962">
        <ele>33.2</ele>
        <time>2021-07-11T13:39:14Z</time>
      </trkpt>
      <trkpt lat="49.84544" lon="2.39621">
        <ele>33.3</ele>
        <time>2021-07-11T13:39:15Z</time>
      </trkpt>
      <trkpt lat="49.84542" lon="2.39622">
        <ele>33.3</ele>
        <time>2021-07-11T13:39:16Z</time>
      </trkpt>
      <trkpt lat="49.84541" lon="2.39623">
        <ele>33.3</ele>
        <time>2021-07-11T13:39:18Z</time>
      </trkpt>
      <trkpt lat="49.84539" lon="2.39624">
        <ele>33.3</ele>
        <time>2021-07-11T13:39:19Z</time>
      </trkpt>
      <trkpt lat="49.84537" lon="2.39624">
        <ele>33.4</ele>
        <time>2021-07-11T13:39:20Z</time>
      </trkpt>
      <trkpt lat="49.84536" lon="2.39625">
        <ele>33.4</ele>
        <time>2021-07-11T13:39:21Z</time>
      </trkpt>
      <trkpt lat="49.84534" lon="2.39625">
        <ele>33.4</ele>
        <time>2021-07-11T13:39:22Z</time>
      </trkpt>
      <trkpt lat="49.84532" lon="2.39626">
        <ele>33.5</ele>
        <time>2021-07-11T13:39:24Z</time>
      </trkpt>
      <trkpt lat="49.84531" lon="2.39627">
        <ele>33.5</ele>
        <time>2021-07-11T13:39:25Z</time>
      </trkpt>
      <trkpt lat="49.84529" lon="2.39629">
        <ele>33.6</ele>
        <time>2021-07-11T13:39:26Z</time>
      </trkpt>
      <trkpt lat="49.84528" lon="2.39629">
        <ele>33.6</ele>
        <time>2021-07-11T13:39:27Z</time>
      </trkpt>
      <trkpt lat="49.84527" lon="2.3963">
        <ele>33.6</ele>
        <time>2021-07-11T13:39:28Z</time>
      </trkpt>
      <trkpt lat="49.84526" lon="2.3963">
        <ele>33.6</ele>
        <time>2021-07-11T13:39:29Z</time>
      </trkpt>
      <trkpt lat="49.84526" lon="2.3963">
        <ele>33.6</ele>
        <time>2021-07-11T13:39:30Z</time>
      </trkpt>
      <trkpt lat="49.84526" lon="2.3963">
        <ele>33.6</ele>
        <time>2021-07-11T13:39:32Z</time>
      </trkpt>
      <trkpt lat="49.84525" lon="2.39631">
        <ele>33.6</ele>
        <time>2021-07-11T13:39:33Z</time>
      </trkpt>
      <trkpt lat="49.84524" lon="2.39632">
        <ele>33.7</ele>
        <time>2021-07-11T13:39:34Z</time>
      </trkpt>
      <trkpt lat="49.84523" lon="2.39634">
        <ele>33.7</ele>
        <time>2021-07-11T13:39:35Z</time>
      </trkpt>
      <trkpt lat="49.84522" lon="2.39634">
        <ele>33.7</ele>
        <time>2021-07-11T13:39:36Z</time>
      </trkpt>
      <trkpt lat="49.84521" lon="2.39635">
        <ele>33.7</ele>
        <time>2021-07-11T13:39:37Z</time>
      </trkpt>
      <trkpt lat="49.8452" lon="2.39636">
        <ele>33.8</ele>
        <time>2021-07-11T13:39:39Z</time>
      </trkpt>
      <trkpt lat="49.84519" lon="2.39637">
        <ele>33.8</ele>
        <time>2021-07-11T13:39:40Z</time>
      </trkpt>
      <trkpt lat="49.84518" lon="2.39638">
        <ele>33.8</ele>
        <time>2021-07-11T13:39:41Z</time>
      </trkpt>
      <trkpt lat="49.84517" lon="2.39639">
        <ele>33.9</ele>
        <time>2021-07-11T13:39:42Z</time>
      </trkpt>
      <trkpt lat="49.84516" lon="2.3964">
        <ele>33.9</ele>
        <time>2021-07-11T13:39:43Z</time>
      </trkpt>
      <trkpt lat="49.84515" lon="2.39641">
        <ele>33.9</ele>
        <time>2021-07-11T13:39:44Z</time>
      </trkpt>
      <trkpt lat="49.84514" lon="2.39642">
        <ele>33.9</ele>
        <time>2021-07-11T13:39:46Z</time>
      </trkpt>
      <trkpt lat="49.84513" lon="2.39643">
        <ele>34</ele>
        <time>2021-07-11T13:39:47Z</time>
      </trkpt>
      <trkpt lat="49.84512" lon="2.39643">
        <ele>34</ele>
        <time>2021-07-11T13:39:48Z</time>
      </trkpt>
      <trkpt lat="49.8451" lon="2.39643">
        <ele>34</ele>
        <time>2021-07-11T13:39:49Z</time>
      </trkpt>
      <trkpt lat="49.84509" lon="2.39643">
        <ele>34.1</ele>
        <time>2021-07-11T13:39:50Z</time>
      </trkpt>
      <trkpt lat="49.84508" lon="2.39643">
        <ele>34.1</ele>
        <time>2021-07-11T13:39:51Z</time>
      </trkpt>
      <trkpt lat="49.84507" lon="2.39643">
        <ele>34.1</ele>
        <time>2021-07-11T13:39:52Z</time>
      </trkpt>
      <trkpt lat="49.84506" lon="2.39643">
        <ele>34.1</ele>
        <time>2021-07-11T13:39:54Z</time>
      </trkpt>
      <trkpt lat="49.84505" lon="2.39644">
        <ele>34.2</ele>
        <time>2021-07-11T13:39:55Z</time>
      </trkpt>
      <trkpt lat="49.84504" lon="2.39644">
        <ele>34.2</ele>
        <time>2021-07-11T13:39:56Z</time>
      </trkpt>
      <trkpt lat="49.84503" lon="2.39646">
        <ele>34.2</ele>
        <time>2021-07-11T13:39:57Z</time>
      </trkpt>
      <trkpt lat="49.84502" lon="2.39647">
        <ele>34.3</ele>
        <time>2021-07-11T13:39:58Z</time>
      </trkpt>
      <trkpt lat="49.845" lon="2.39649">
        <ele>34.3</ele>
        <time>2021-07-11T13:39:59Z</time>
      </trkpt>
      <trkpt lat="49.84499" lon="2.3965">
        <ele>34.3</ele>
        <time>2021-07-11T13:40:01Z</time>
      </trkpt>
      <trkpt lat="49.84499" lon="2.39651">
        <ele>34.3</ele>
        <time>2021-07-11T13:40:02Z</time>
      </trkpt>
      <trkpt lat="49.84497" lon="2.39652">
        <ele>34.4</ele>
        <time>2021-07-11T13:40:03Z</time>
      </trkpt>
      <trkpt lat="49.84496" lon="2.39653">
        <ele>34.4</ele>
        <time>2021-07-11T13:40:04Z</time>
      </trkpt>
      <trkpt lat="49.84496" lon="2.39654">
        <ele>34.4</ele>
        <time>2021-07-11T13:40:05Z</time>
      </trkpt>
      <trkpt lat="49.84493" lon="2.39654">
        <ele>34.5</ele>
        <time>2021-07-11T13:40:06Z</time>
      </trkpt>
      <trkpt lat="49.84493" lon="2.39655">
        <ele>34.5</ele>
        <time>2021-07-11T13:40:08Z</time>
      </trkpt>
      <trkpt lat="49.84492" lon="2.39655">
        <ele>34.5</ele>
        <time>2021-07-11T13:40:09Z</time>
      </trkpt>
      <trkpt lat="49.8449" lon="2.39657">
        <ele>34.6</ele>
        <time>2021-07-11T13:40:10Z</time>
      </trkpt>
      <trkpt lat="49.84489" lon="2.39657">
        <ele>34.6</ele>
        <time>2021-07-11T13:40:11Z</time>
      </trkpt>
      <trkpt lat="49.84489" lon="2.39658">
        <ele>34.6</ele>
        <time>2021-07-11T13:40:12Z</time>
      </trkpt>
      <trkpt lat="49.84488" lon="2.3966">
        <ele>34.6</ele>
        <time>2021-07-11T13:40:13Z</time>
      </trkpt>
      <trkpt lat="49.84487" lon="2.39661">
        <ele>34.7</ele>
        <time>2021-07-11T13:40:14Z</time>
      </trkpt>
      <trkpt lat="49.84486" lon="2.39662">
        <ele>34.7</ele>
        <time>2021-07-11T13:40:16Z</time>
      </trkpt>
      <trkpt lat="49.84485" lon="2.39663">
        <ele>34.7</ele>
        <time>2021-07-11T13:40:17Z</time>
      </trkpt>
      <trkpt lat="49.84484" lon="2.39664">
        <ele>34.7</ele>
        <time>2021-07-11T13:40:18Z</time>
      </trkpt>
      <trkpt lat="49.84483" lon="2.39665">
        <ele>34.8</ele>
        <time>2021-07-11T13:40:19Z</time>
      </trkpt>
      <trkpt lat="49.84481" lon="2.39666">
        <ele>34.8</ele>
        <time>2021-07-11T13:40:20Z</time>
      </trkpt>
      <trkpt lat="49.8448" lon="2.39667">
        <ele>34.8</ele>
        <time>2021-07-11T13:40:21Z</time>
      </trkpt>
      <trkpt lat="49.84478" lon="2.39668">
        <ele>34.9</ele>
        <time>2021-07-11T13:40:22Z</time>
      </trkpt>
      <trkpt lat="49.84477" lon="2.39669">
        <ele>34.9</ele>
        <time>2021-07-11T13:40:24Z</time>
      </trkpt>
      <trkpt lat="49.84476" lon="2.39669">
        <ele>34.9</ele>
        <time>2021-07-11T13:40:25Z</time>
      </trkpt>
      <trkpt lat="49.84475" lon="2.3967">
        <ele>34.9</ele>
        <time>2021-07-11T13:40:26Z</time>
      </trkpt>
      <trkpt lat="49.84474" lon="2.39671">
        <ele>35</ele>
        <time>2021-07-11T13:40:27Z</time>
      </trkpt>
      <trkpt lat="49.84472" lon="2.3967">
        <ele>35</ele>
        <time>2021-07-11T13:40:28Z</time>
      </trkpt>
      <trkpt lat="49.84471" lon="2.3967">
        <ele>35</ele>
        <time>2021-07-11T13:40:29Z</time>
      </trkpt>
      <trkpt lat="49.8447" lon="2.3967">
        <ele>35</ele>
        <time>2021-07-11T13:40:30Z</time>
      </trkpt>
      <trkpt lat="49.84469" lon="2.39669">
        <ele>35</ele>
        <time>2021-07-11T13:40:32Z</time>
      </trkpt>
      <trkpt lat="49.84468" lon="2.39668">
        <ele>35.1</ele>
        <time>2021-07-11T13:40:33Z</time>
      </trkpt>
      <trkpt lat="49.84467" lon="2.39668">
        <ele>35.1</ele>
        <time>2021-07-11T13:40:34Z</time>
      </trkpt>
      <trkpt lat="49.84467" lon="2.39668">
        <ele>35.1</ele>
        <time>2021-07-11T13:40:35Z</time>
      </trkpt>
      <trkpt lat="49.84466" lon="2.39669">
        <ele>35.1</ele>
        <time>2021-07-11T13:40:36Z</time>
      </trkpt>
      <trkpt lat="49.84465" lon="2.3967">
        <ele>35.1</ele>
        <time>2021-07-11T13:40:37Z</time>
      </trkpt>
      <trkpt lat="49.84464" lon="2.39672">
        <ele>35.1</ele>
        <time>2021-07-11T13:40:38Z</time>
      </trkpt>
      <trkpt lat="49.84463" lon="2.39673">
        <ele>35.2</ele>
        <time>2021-07-11T13:40:39Z</time>
      </trkpt>
      <trkpt lat="49.84463" lon="2.39675">
        <ele>35.2</ele>
        <time>2021-07-11T13:40:41Z</time>
      </trkpt>
      <trkpt lat="49.84462" lon="2.39676">
        <ele>35.2</ele>
        <time>2021-07-11T13:40:42Z</time>
      </trkpt>
      <trkpt lat="49.84461" lon="2.39677">
        <ele>35.2</ele>
        <time>2021-07-11T13:40:43Z</time>
      </trkpt>
      <trkpt lat="49.84461" lon="2.39679">
        <ele>35.2</ele>
        <time>2021-07-11T13:40:44Z</time>
      </trkpt>
      <trkpt lat="49.8446" lon="2.3968">
        <ele>35.2</ele>
        <time>2021-07-11T13:40:45Z</time>
      </trkpt>
      <trkpt lat="49.84459" lon="2.39681">
        <ele>35.2</ele>
        <time>2021-07-11T13:40:46Z</time>
      </trkpt>
      <trkpt lat="49.84458" lon="2.39682">
        <ele>35.2</ele>
        <time>2021-07-11T13:40:47Z</time>
      </trkpt>
      <trkpt lat="49.84457" lon="2.39683">
        <ele>35.3</ele>
        <time>2021-07-11T13:40:49Z</time>
      </trkpt>
      <trkpt lat="49.84456" lon="2.39684">
        <ele>35.3</ele>
        <time>2021-07-11T13:40:50Z</time>
      </trkpt>
      <trkpt lat="49.84455" lon="2.39685">
        <ele>35.3</ele>
        <time>2021-07-11T13:40:51Z</time>
      </trkpt>
      <trkpt lat="49.84454" lon="2.39686">
        <ele>35.3</ele>
        <time>2021-07-11T13:40:52Z</time>
      </trkpt>
      <trkpt lat="49.84454" lon="2.39687">
        <ele>35.3</ele>
        <time>2021-07-11T13:40:53Z</time>
      </trkpt>
      <trkpt lat="49.84453" lon="2.39688">
        <ele>35.3</ele>
        <time>2021-07-11T13:40:54Z</time>
      </trkpt>
      <trkpt lat="49.84452" lon="2.39689">
        <ele>35.3</ele>
        <time>2021-07-11T13:40:55Z</time>
      </trkpt>
      <trkpt lat="49.84451" lon="2.3969">
        <ele>35.4</ele>
        <time>2021-07-11T13:40:57Z</time>
      </trkpt>
      <trkpt lat="49.8445" lon="2.39691">
        <ele>35.4</ele>
        <time>2021-07-11T13:40:58Z</time>
      </trkpt>
      <trkpt lat="49.84448" lon="2.39694">
        <ele>35.4</ele>
        <time>2021-07-11T13:40:59Z</time>
      </trkpt>
      <trkpt lat="49.84448" lon="2.39695">
        <ele>35.4</ele>
        <time>2021-07-11T13:41:00Z</time>
      </trkpt>
      <trkpt lat="49.84447" lon="2.39696">
        <ele>35.4</ele>
        <time>2021-07-11T13:41:01Z</time>
      </trkpt>
      <trkpt lat="49.84446" lon="2.39697">
        <ele>35.4</ele>
        <time>2021-07-11T13:41:02Z</time>
      </trkpt>
      <trkpt lat="49.84446" lon="2.39699">
        <ele>35.5</ele>
        <time>2021-07-11T13:41:03Z</time>
      </trkpt>
      <trkpt lat="49.84445" lon="2.397">
        <ele>35.5</ele>
        <time>2021-07-11T13:41:05Z</time>
      </trkpt>
      <trkpt lat="49.84445" lon="2.39702">
        <ele>35.5</ele>
        <time>2021-07-11T13:41:06Z</time>
      </trkpt>
      <trkpt lat="49.84444" lon="2.39703">
        <ele>35.5</ele>
        <time>2021-07-11T13:41:07Z</time>
      </trkpt>
      <trkpt lat="49.84443" lon="2.39706">
        <ele>35.5</ele>
        <time>2021-07-11T13:41:09Z</time>
      </trkpt>
      <trkpt lat="49.84442" lon="2.39707">
        <ele>35.6</ele>
        <time>2021-07-11T13:41:10Z</time>
      </trkpt>
      <trkpt lat="49.84441" lon="2.39709">
        <ele>35.6</ele>
        <time>2021-07-11T13:41:11Z</time>
      </trkpt>
      <trkpt lat="49.8444" lon="2.39711">
        <ele>35.6</ele>
        <time>2021-07-11T13:41:12Z</time>
      </trkpt>
      <trkpt lat="49.84439" lon="2.39713">
        <ele>35.6</ele>
        <time>2021-07-11T13:41:13Z</time>
      </trkpt>
      <trkpt lat="49.84438" lon="2.39714">
        <ele>35.6</ele>
        <time>2021-07-11T13:41:14Z</time>
      </trkpt>
      <trkpt lat="49.84437" lon="2.39716">
        <ele>35.6</ele>
        <time>2021-07-11T13:41:15Z</time>
      </trkpt>
      <trkpt lat="49.84436" lon="2.39717">
        <ele>35.7</ele>
        <time>2021-07-11T13:41:17Z</time>
      </trkpt>
      <trkpt lat="49.84435" lon="2.39718">
        <ele>35.7</ele>
        <time>2021-07-11T13:41:18Z</time>
      </trkpt>
      <trkpt lat="49.84434" lon="2.39719">
        <ele>35.7</ele>
        <time>2021-07-11T13:41:19Z</time>
      </trkpt>
      <trkpt lat="49.84433" lon="2.3972">
        <ele>35.7</ele>
        <time>2021-07-11T13:41:20Z</time>
      </trkpt>
      <trkpt lat="49.84432" lon="2.39721">
        <ele>35.7</ele>
        <time>2021-07-11T13:41:21Z</time>
      </trkpt>
      <trkpt lat="49.84431" lon="2.39722">
        <ele>35.7</ele>
        <time>2021-07-11T13:41:22Z</time>
      </trkpt>
      <trkpt lat="49.8443" lon="2.39723">
        <ele>35.7</ele>
        <time>2021-07-11T13:41:24Z</time>
      </trkpt>
      <trkpt lat="49.8443" lon="2.39723">
        <ele>35.8</ele>
        <time>2021-07-11T13:41:25Z</time>
      </trkpt>
      <trkpt lat="49.84429" lon="2.39724">
        <ele>35.8</ele>
        <time>2021-07-11T13:41:26Z</time>
      </trkpt>
      <trkpt lat="49.84428" lon="2.39725">
        <ele>35.8</ele>
        <time>2021-07-11T13:41:27Z</time>
      </trkpt>
      <trkpt lat="49.84428" lon="2.39727">
        <ele>35.8</ele>
        <time>2021-07-11T13:41:28Z</time>
      </trkpt>
      <trkpt lat="49.84427" lon="2.39728">
        <ele>35.8</ele>
        <time>2021-07-11T13:41:29Z</time>
      </trkpt>
      <trkpt lat="49.84426" lon="2.3973">
        <ele>35.8</ele>
        <time>2021-07-11T13:41:31Z</time>
      </trkpt>
      <trkpt lat="49.84426" lon="2.39733">
        <ele>35.9</ele>
        <time>2021-07-11T13:41:32Z</time>
      </trkpt>
      <trkpt lat="49.84425" lon="2.39735">
        <ele>35.9</ele>
        <time>2021-07-11T13:41:34Z</time>
      </trkpt>
      <trkpt lat="49.84425" lon="2.39738">
        <ele>35.9</ele>
        <time>2021-07-11T13:41:35Z</time>
      </trkpt>
      <trkpt lat="49.84424" lon="2.3974">
        <ele>35.9</ele>
        <time>2021-07-11T13:41:36Z</time>
      </trkpt>
      <trkpt lat="49.84424" lon="2.39742">
        <ele>35.9</ele>
        <time>2021-07-11T13:41:37Z</time>
      </trkpt>
      <trkpt lat="49.84423" lon="2.39744">
        <ele>36</ele>
        <time>2021-07-11T13:41:39Z</time>
      </trkpt>
      <trkpt lat="49.84422" lon="2.39746">
        <ele>36</ele>
        <time>2021-07-11T13:41:40Z</time>
      </trkpt>
      <trkpt lat="49.84421" lon="2.39747">
        <ele>36</ele>
        <time>2021-07-11T13:41:41Z</time>
      </trkpt>
      <trkpt lat="49.84421" lon="2.39749">
        <ele>36</ele>
        <time>2021-07-11T13:41:42Z</time>
      </trkpt>
      <trkpt lat="49.84421" lon="2.39751">
        <ele>36</ele>
        <time>2021-07-11T13:41:43Z</time>
      </trkpt>
      <trkpt lat="49.84419" lon="2.39753">
        <ele>36</ele>
        <time>2021-07-11T13:41:44Z</time>
      </trkpt>
      <trkpt lat="49.84418" lon="2.39754">
        <ele>36</ele>
        <time>2021-07-11T13:41:46Z</time>
      </trkpt>
      <trkpt lat="49.84418" lon="2.39755">
        <ele>36</ele>
        <time>2021-07-11T13:41:47Z</time>
      </trkpt>
      <trkpt lat="49.84416" lon="2.39755">
        <ele>36.1</ele>
        <time>2021-07-11T13:41:48Z</time>
      </trkpt>
      <trkpt lat="49.84415" lon="2.39755">
        <ele>36.1</ele>
        <time>2021-07-11T13:41:49Z</time>
      </trkpt>
      <trkpt lat="49.84414" lon="2.39755">
        <ele>36.1</ele>
        <time>2021-07-11T13:41:50Z</time>
      </trkpt>
      <trkpt lat="49.84412" lon="2.39756">
        <ele>36.1</ele>
        <time>2021-07-11T13:41:52Z</time>
      </trkpt>
      <trkpt lat="49.84411" lon="2.39757">
        <ele>36.1</ele>
        <time>2021-07-11T13:41:53Z</time>
      </trkpt>
      <trkpt lat="49.8441" lon="2.39758">
        <ele>36.1</ele>
        <time>2021-07-11T13:41:54Z</time>
      </trkpt>
      <trkpt lat="49.84408" lon="2.39759">
        <ele>36.1</ele>
        <time>2021-07-11T13:41:55Z</time>
      </trkpt>
      <trkpt lat="49.84408" lon="2.3976">
        <ele>36.2</ele>
        <time>2021-07-11T13:41:56Z</time>
      </trkpt>
      <trkpt lat="49.84407" lon="2.3976">
        <ele>36.2</ele>
        <time>2021-07-11T13:41:57Z</time>
      </trkpt>
      <trkpt lat="49.84405" lon="2.39762">
        <ele>36.2</ele>
        <time>2021-07-11T13:41:59Z</time>
      </trkpt>
      <trkpt lat="49.84405" lon="2.39763">
        <ele>36.2</ele>
        <time>2021-07-11T13:42:00Z</time>
      </trkpt>
      <trkpt lat="49.84404" lon="2.39764">
        <ele>36.2</ele>
        <time>2021-07-11T13:42:01Z</time>
      </trkpt>
      <trkpt lat="49.84403" lon="2.39767">
        <ele>36.2</ele>
        <time>2021-07-11T13:42:02Z</time>
      </trkpt>
      <trkpt lat="49.84402" lon="2.39768">
        <ele>36.2</ele>
        <time>2021-07-11T13:42:03Z</time>
      </trkpt>
      <trkpt lat="49.84402" lon="2.39769">
        <ele>36.2</ele>
        <time>2021-07-11T13:42:04Z</time>
      </trkpt>
      <trkpt lat="49.844" lon="2.39772">
        <ele>36.3</ele>
        <time>2021-07-11T13:42:06Z</time>
      </trkpt>
      <trkpt lat="49.844" lon="2.39773">
        <ele>36.3</ele>
        <time>2021-07-11T13:42:07Z</time>
      </trkpt>
      <trkpt lat="49.844" lon="2.39774">
        <ele>36.3</ele>
        <time>2021-07-11T13:42:08Z</time>
      </trkpt>
      <trkpt lat="49.84398" lon="2.39776">
        <ele>36.3</ele>
        <time>2021-07-11T13:42:09Z</time>
      </trkpt>
      <trkpt lat="49.84397" lon="2.39777">
        <ele>36.3</ele>
        <time>2021-07-11T13:42:10Z</time>
      </trkpt>
      <trkpt lat="49.84397" lon="2.39778">
        <ele>36.3</ele>
        <time>2021-07-11T13:42:11Z</time>
      </trkpt>
      <trkpt lat="49.84396" lon="2.39779">
        <ele>36.3</ele>
        <time>2021-07-11T13:42:13Z</time>
      </trkpt>
      <trkpt lat="49.84395" lon="2.39779">
        <ele>36.3</ele>
        <time>2021-07-11T13:42:14Z</time>
      </trkpt>
      <trkpt lat="49.84394" lon="2.3978">
        <ele>36.3</ele>
        <time>2021-07-11T13:42:15Z</time>
      </trkpt>
      <trkpt lat="49.84393" lon="2.39781">
        <ele>36.4</ele>
        <time>2021-07-11T13:42:16Z</time>
      </trkpt>
      <trkpt lat="49.84392" lon="2.39782">
        <ele>36.4</ele>
        <time>2021-07-11T13:42:17Z</time>
      </trkpt>
      <trkpt lat="49.84392" lon="2.39783">
        <ele>36.4</ele>
        <time>2021-07-11T13:42:18Z</time>
      </trkpt>
      <trkpt lat="49.84391" lon="2.39784">
        <ele>36.4</ele>
        <time>2021-07-11T13:42:20Z</time>
      </trkpt>
      <trkpt lat="49.8439" lon="2.39785">
        <ele>36.4</ele>
        <time>2021-07-11T13:42:21Z</time>
      </trkpt>
      <trkpt lat="49.8439" lon="2.39786">
        <ele>36.4</ele>
        <time>2021-07-11T13:42:22Z</time>
      </trkpt>
      <trkpt lat="49.84389" lon="2.39787">
        <ele>36.4</ele>
        <time>2021-07-11T13:42:23Z</time>
      </trkpt>
      <trkpt lat="49.84389" lon="2.39788">
        <ele>36.4</ele>
        <time>2021-07-11T13:42:24Z</time>
      </trkpt>
      <trkpt lat="49.84388" lon="2.39789">
        <ele>36.4</ele>
        <time>2021-07-11T13:42:25Z</time>
      </trkpt>
      <trkpt lat="49.84388" lon="2.3979">
        <ele>36.4</ele>
        <time>2021-07-11T13:42:27Z</time>
      </trkpt>
      <trkpt lat="49.84388" lon="2.39791">
        <ele>36.4</ele>
        <time>2021-07-11T13:42:28Z</time>
      </trkpt>
      <trkpt lat="49.84387" lon="2.39792">
        <ele>36.4</ele>
        <time>2021-07-11T13:42:29Z</time>
      </trkpt>
      <trkpt lat="49.84387" lon="2.39793">
        <ele>36.4</ele>
        <time>2021-07-11T13:42:30Z</time>
      </trkpt>
      <trkpt lat="49.84387" lon="2.39794">
        <ele>36.4</ele>
        <time>2021-07-11T13:42:31Z</time>
      </trkpt>
      <trkpt lat="49.84387" lon="2.39795">
        <ele>36.4</ele>
        <time>2021-07-11T13:42:32Z</time>
      </trkpt>
      <trkpt lat="49.84386" lon="2.39796">
        <ele>36.4</ele>
        <time>2021-07-11T13:42:33Z</time>
      </trkpt>
      <trkpt lat="49.84386" lon="2.39797">
        <ele>36.4</ele>
        <time>2021-07-11T13:42:35Z</time>
      </trkpt>
      <trkpt lat="49.84385" lon="2.39798">
        <ele>36.5</ele>
        <time>2021-07-11T13:42:36Z</time>
      </trkpt>
      <trkpt lat="49.84385" lon="2.398">
        <ele>36.5</ele>
        <time>2021-07-11T13:42:37Z</time>
      </trkpt>
      <trkpt lat="49.84385" lon="2.39801">
        <ele>36.5</ele>
        <time>2021-07-11T13:42:38Z</time>
      </trkpt>
      <trkpt lat="49.84384" lon="2.39802">
        <ele>36.5</ele>
        <time>2021-07-11T13:42:39Z</time>
      </trkpt>
      <trkpt lat="49.84383" lon="2.39804">
        <ele>36.5</ele>
        <time>2021-07-11T13:42:40Z</time>
      </trkpt>
      <trkpt lat="49.84383" lon="2.39806">
        <ele>36.5</ele>
        <time>2021-07-11T13:42:41Z</time>
      </trkpt>
      <trkpt lat="49.84382" lon="2.39806">
        <ele>36.5</ele>
        <time>2021-07-11T13:42:43Z</time>
      </trkpt>
      <trkpt lat="49.84382" lon="2.39807">
        <ele>36.5</ele>
        <time>2021-07-11T13:42:44Z</time>
      </trkpt>
      <trkpt lat="49.84381" lon="2.39809">
        <ele>36.5</ele>
        <time>2021-07-11T13:42:45Z</time>
      </trkpt>
      <trkpt lat="49.8438" lon="2.3981">
        <ele>36.5</ele>
        <time>2021-07-11T13:42:46Z</time>
      </trkpt>
      <trkpt lat="49.84379" lon="2.39812">
        <ele>36.5</ele>
        <time>2021-07-11T13:42:47Z</time>
      </trkpt>
      <trkpt lat="49.84379" lon="2.39814">
        <ele>36.5</ele>
        <time>2021-07-11T13:42:48Z</time>
      </trkpt>
      <trkpt lat="49.84378" lon="2.39816">
        <ele>36.6</ele>
        <time>2021-07-11T13:42:49Z</time>
      </trkpt>
      <trkpt lat="49.84376" lon="2.39819">
        <ele>36.6</ele>
        <time>2021-07-11T13:42:50Z</time>
      </trkpt>
      <trkpt lat="49.84375" lon="2.39821">
        <ele>36.6</ele>
        <time>2021-07-11T13:42:52Z</time>
      </trkpt>
      <trkpt lat="49.84374" lon="2.39823">
        <ele>36.6</ele>
        <time>2021-07-11T13:42:53Z</time>
      </trkpt>
      <trkpt lat="49.84373" lon="2.39825">
        <ele>36.6</ele>
        <time>2021-07-11T13:42:54Z</time>
      </trkpt>
      <trkpt lat="49.84372" lon="2.39829">
        <ele>36.6</ele>
        <time>2021-07-11T13:42:55Z</time>
      </trkpt>
      <trkpt lat="49.84371" lon="2.3983">
        <ele>36.6</ele>
        <time>2021-07-11T13:42:56Z</time>
      </trkpt>
      <trkpt lat="49.84369" lon="2.39833">
        <ele>36.7</ele>
        <time>2021-07-11T13:42:57Z</time>
      </trkpt>
      <trkpt lat="49.84368" lon="2.39834">
        <ele>36.7</ele>
        <time>2021-07-11T13:42:58Z</time>
      </trkpt>
      <trkpt lat="49.84367" lon="2.39837">
        <ele>36.7</ele>
        <time>2021-07-11T13:43:00Z</time>
      </trkpt>
      <trkpt lat="49.84365" lon="2.39838">
        <ele>36.7</ele>
        <time>2021-07-11T13:43:01Z</time>
      </trkpt>
      <trkpt lat="49.84364" lon="2.3984">
        <ele>36.7</ele>
        <time>2021-07-11T13:43:02Z</time>
      </trkpt>
      <trkpt lat="49.84363" lon="2.39842">
        <ele>36.7</ele>
        <time>2021-07-11T13:43:03Z</time>
      </trkpt>
      <trkpt lat="49.84362" lon="2.39843">
        <ele>36.8</ele>
        <time>2021-07-11T13:43:04Z</time>
      </trkpt>
      <trkpt lat="49.84361" lon="2.39845">
        <ele>36.8</ele>
        <time>2021-07-11T13:43:05Z</time>
      </trkpt>
      <trkpt lat="49.84359" lon="2.39848">
        <ele>36.8</ele>
        <time>2021-07-11T13:43:06Z</time>
      </trkpt>
      <trkpt lat="49.84359" lon="2.39849">
        <ele>36.8</ele>
        <time>2021-07-11T13:43:08Z</time>
      </trkpt>
      <trkpt lat="49.84358" lon="2.39849">
        <ele>36.8</ele>
        <time>2021-07-11T13:43:09Z</time>
      </trkpt>
      <trkpt lat="49.84358" lon="2.39851">
        <ele>36.8</ele>
        <time>2021-07-11T13:43:10Z</time>
      </trkpt>
      <trkpt lat="49.84357" lon="2.39852">
        <ele>36.8</ele>
        <time>2021-07-11T13:43:11Z</time>
      </trkpt>
      <trkpt lat="49.84356" lon="2.39853">
        <ele>36.8</ele>
        <time>2021-07-11T13:43:12Z</time>
      </trkpt>
      <trkpt lat="49.84355" lon="2.39854">
        <ele>36.8</ele>
        <time>2021-07-11T13:43:13Z</time>
      </trkpt>
      <trkpt lat="49.84354" lon="2.39855">
        <ele>36.9</ele>
        <time>2021-07-11T13:43:15Z</time>
      </trkpt>
      <trkpt lat="49.84353" lon="2.39856">
        <ele>36.9</ele>
        <time>2021-07-11T13:43:16Z</time>
      </trkpt>
      <trkpt lat="49.84353" lon="2.39858">
        <ele>36.9</ele>
        <time>2021-07-11T13:43:17Z</time>
      </trkpt>
      <trkpt lat="49.84352" lon="2.39859">
        <ele>36.9</ele>
        <time>2021-07-11T13:43:18Z</time>
      </trkpt>
      <trkpt lat="49.84351" lon="2.3986">
        <ele>36.9</ele>
        <time>2021-07-11T13:43:19Z</time>
      </trkpt>
      <trkpt lat="49.8435" lon="2.39861">
        <ele>36.9</ele>
        <time>2021-07-11T13:43:21Z</time>
      </trkpt>
      <trkpt lat="49.84349" lon="2.39862">
        <ele>36.9</ele>
        <time>2021-07-11T13:43:23Z</time>
      </trkpt>
      <trkpt lat="49.84349" lon="2.39861">
        <ele>37</ele>
        <time>2021-07-11T13:43:25Z</time>
      </trkpt>
      <trkpt lat="49.84349" lon="2.39861">
        <ele>37</ele>
        <time>2021-07-11T13:43:26Z</time>
      </trkpt>
      <trkpt lat="49.84349" lon="2.3986">
        <ele>37</ele>
        <time>2021-07-11T13:43:27Z</time>
      </trkpt>
      <trkpt lat="49.84349" lon="2.3986">
        <ele>37</ele>
        <time>2021-07-11T13:43:28Z</time>
      </trkpt>
      <trkpt lat="49.84349" lon="2.3986">
        <ele>37</ele>
        <time>2021-07-11T13:43:30Z</time>
      </trkpt>
      <trkpt lat="49.84348" lon="2.39861">
        <ele>37</ele>
        <time>2021-07-11T13:43:31Z</time>
      </trkpt>
      <trkpt lat="49.84347" lon="2.39861">
        <ele>37</ele>
        <time>2021-07-11T13:43:32Z</time>
      </trkpt>
      <trkpt lat="49.84347" lon="2.39862">
        <ele>37</ele>
        <time>2021-07-11T13:43:33Z</time>
      </trkpt>
      <trkpt lat="49.84346" lon="2.39863">
        <ele>37</ele>
        <time>2021-07-11T13:43:34Z</time>
      </trkpt>
      <trkpt lat="49.84345" lon="2.39864">
        <ele>37</ele>
        <time>2021-07-11T13:43:35Z</time>
      </trkpt>
      <trkpt lat="49.84344" lon="2.39866">
        <ele>37.1</ele>
        <time>2021-07-11T13:43:37Z</time>
      </trkpt>
      <trkpt lat="49.84343" lon="2.39866">
        <ele>37.1</ele>
        <time>2021-07-11T13:43:38Z</time>
      </trkpt>
      <trkpt lat="49.84342" lon="2.39867">
        <ele>37.1</ele>
        <time>2021-07-11T13:43:39Z</time>
      </trkpt>
      <trkpt lat="49.84341" lon="2.39868">
        <ele>37.1</ele>
        <time>2021-07-11T13:43:40Z</time>
      </trkpt>
      <trkpt lat="49.84341" lon="2.39869">
        <ele>37.1</ele>
        <time>2021-07-11T13:43:41Z</time>
      </trkpt>
      <trkpt lat="49.8434" lon="2.3987">
        <ele>37.2</ele>
        <time>2021-07-11T13:43:43Z</time>
      </trkpt>
      <trkpt lat="49.84339" lon="2.39872">
        <ele>37.2</ele>
        <time>2021-07-11T13:43:44Z</time>
      </trkpt>
      <trkpt lat="49.84339" lon="2.39873">
        <ele>37.2</ele>
        <time>2021-07-11T13:43:45Z</time>
      </trkpt>
      <trkpt lat="49.84338" lon="2.39874">
        <ele>37.2</ele>
        <time>2021-07-11T13:43:46Z</time>
      </trkpt>
      <trkpt lat="49.84338" lon="2.39876">
        <ele>37.2</ele>
        <time>2021-07-11T13:43:47Z</time>
      </trkpt>
      <trkpt lat="49.84337" lon="2.39877">
        <ele>37.2</ele>
        <time>2021-07-11T13:43:48Z</time>
      </trkpt>
      <trkpt lat="49.84336" lon="2.39879">
        <ele>37.3</ele>
        <time>2021-07-11T13:43:50Z</time>
      </trkpt>
      <trkpt lat="49.84335" lon="2.3988">
        <ele>37.3</ele>
        <time>2021-07-11T13:43:51Z</time>
      </trkpt>
      <trkpt lat="49.84335" lon="2.39883">
        <ele>37.3</ele>
        <time>2021-07-11T13:43:53Z</time>
      </trkpt>
      <trkpt lat="49.84334" lon="2.39885">
        <ele>37.4</ele>
        <time>2021-07-11T13:43:54Z</time>
      </trkpt>
      <trkpt lat="49.84333" lon="2.39887">
        <ele>37.4</ele>
        <time>2021-07-11T13:43:55Z</time>
      </trkpt>
      <trkpt lat="49.84331" lon="2.3989">
        <ele>37.5</ele>
        <time>2021-07-11T13:43:56Z</time>
      </trkpt>
      <trkpt lat="49.84331" lon="2.39891">
        <ele>37.5</ele>
        <time>2021-07-11T13:43:57Z</time>
      </trkpt>
      <trkpt lat="49.8433" lon="2.39893">
        <ele>37.5</ele>
        <time>2021-07-11T13:43:59Z</time>
      </trkpt>
      <trkpt lat="49.84329" lon="2.39895">
        <ele>37.5</ele>
        <time>2021-07-11T13:44:00Z</time>
      </trkpt>
      <trkpt lat="49.84327" lon="2.39897">
        <ele>37.6</ele>
        <time>2021-07-11T13:44:01Z</time>
      </trkpt>
      <trkpt lat="49.84326" lon="2.39898">
        <ele>37.6</ele>
        <time>2021-07-11T13:44:03Z</time>
      </trkpt>
      <trkpt lat="49.84325" lon="2.39898">
        <ele>37.6</ele>
        <time>2021-07-11T13:44:04Z</time>
      </trkpt>
      <trkpt lat="49.84324" lon="2.399">
        <ele>37.7</ele>
        <time>2021-07-11T13:44:06Z</time>
      </trkpt>
      <trkpt lat="49.84323" lon="2.39901">
        <ele>37.7</ele>
        <time>2021-07-11T13:44:07Z</time>
      </trkpt>
      <trkpt lat="49.84322" lon="2.39901">
        <ele>37.7</ele>
        <time>2021-07-11T13:44:09Z</time>
      </trkpt>
      <trkpt lat="49.84321" lon="2.399">
        <ele>37.7</ele>
        <time>2021-07-11T13:44:10Z</time>
      </trkpt>
      <trkpt lat="49.84321" lon="2.399">
        <ele>37.7</ele>
        <time>2021-07-11T13:44:11Z</time>
      </trkpt>
      <trkpt lat="49.8432" lon="2.39898">
        <ele>37.8</ele>
        <time>2021-07-11T13:44:13Z</time>
      </trkpt>
      <trkpt lat="49.84321" lon="2.39897">
        <ele>37.8</ele>
        <time>2021-07-11T13:44:14Z</time>
      </trkpt>
      <trkpt lat="49.84321" lon="2.39896">
        <ele>37.8</ele>
        <time>2021-07-11T13:44:16Z</time>
      </trkpt>
      <trkpt lat="49.84322" lon="2.39896">
        <ele>37.8</ele>
        <time>2021-07-11T13:44:18Z</time>
      </trkpt>
      <trkpt lat="49.84322" lon="2.39896">
        <ele>37.8</ele>
        <time>2021-07-11T13:44:19Z</time>
      </trkpt>
      <trkpt lat="49.84322" lon="2.39895">
        <ele>37.8</ele>
        <time>2021-07-11T13:44:21Z</time>
      </trkpt>
      <trkpt lat="49.84323" lon="2.39895">
        <ele>37.8</ele>
        <time>2021-07-11T13:44:23Z</time>
      </trkpt>
      <trkpt lat="49.84323" lon="2.39895">
        <ele>37.8</ele>
        <time>2021-07-11T13:44:24Z</time>
      </trkpt>
      <trkpt lat="49.84323" lon="2.39895">
        <ele>37.8</ele>
        <time>2021-07-11T13:44:25Z</time>
      </trkpt>
      <trkpt lat="49.84323" lon="2.39895">
        <ele>37.8</ele>
        <time>2021-07-11T13:44:27Z</time>
      </trkpt>
      <trkpt lat="49.84323" lon="2.39895">
        <ele>37.8</ele>
        <time>2021-07-11T13:44:28Z</time>
      </trkpt>
      <trkpt lat="49.84323" lon="2.39897">
        <ele>37.9</ele>
        <time>2021-07-11T13:44:29Z</time>
      </trkpt>
      <trkpt lat="49.84323" lon="2.39898">
        <ele>37.9</ele>
        <time>2021-07-11T13:44:30Z</time>
      </trkpt>
      <trkpt lat="49.84323" lon="2.39899">
        <ele>37.9</ele>
        <time>2021-07-11T13:44:32Z</time>
      </trkpt>
      <trkpt lat="49.84322" lon="2.39901">
        <ele>37.9</ele>
        <time>2021-07-11T13:44:33Z</time>
      </trkpt>
      <trkpt lat="49.84322" lon="2.39903">
        <ele>37.9</ele>
        <time>2021-07-11T13:44:34Z</time>
      </trkpt>
      <trkpt lat="49.84321" lon="2.39905">
        <ele>38</ele>
        <time>2021-07-11T13:44:35Z</time>
      </trkpt>
      <trkpt lat="49.8432" lon="2.39908">
        <ele>38</ele>
        <time>2021-07-11T13:44:36Z</time>
      </trkpt>
      <trkpt lat="49.8432" lon="2.3991">
        <ele>38</ele>
        <time>2021-07-11T13:44:38Z</time>
      </trkpt>
      <trkpt lat="49.84319" lon="2.39912">
        <ele>38.1</ele>
        <time>2021-07-11T13:44:39Z</time>
      </trkpt>
      <trkpt lat="49.84318" lon="2.39914">
        <ele>38.1</ele>
        <time>2021-07-11T13:44:40Z</time>
      </trkpt>
      <trkpt lat="49.84317" lon="2.39916">
        <ele>38.1</ele>
        <time>2021-07-11T13:44:41Z</time>
      </trkpt>
      <trkpt lat="49.84316" lon="2.39918">
        <ele>38.1</ele>
        <time>2021-07-11T13:44:42Z</time>
      </trkpt>
      <trkpt lat="49.84315" lon="2.39919">
        <ele>38.2</ele>
        <time>2021-07-11T13:44:44Z</time>
      </trkpt>
      <trkpt lat="49.84313" lon="2.3992">
        <ele>38.2</ele>
        <time>2021-07-11T13:44:45Z</time>
      </trkpt>
      <trkpt lat="49.84312" lon="2.39921">
        <ele>38.2</ele>
        <time>2021-07-11T13:44:46Z</time>
      </trkpt>
      <trkpt lat="49.8431" lon="2.39922">
        <ele>38.2</ele>
        <time>2021-07-11T13:44:47Z</time>
      </trkpt>
      <trkpt lat="49.8431" lon="2.39923">
        <ele>38.2</ele>
        <time>2021-07-11T13:44:48Z</time>
      </trkpt>
      <trkpt lat="49.84309" lon="2.39923">
        <ele>38.2</ele>
        <time>2021-07-11T13:44:49Z</time>
      </trkpt>
      <trkpt lat="49.84308" lon="2.39924">
        <ele>38.3</ele>
        <time>2021-07-11T13:44:51Z</time>
      </trkpt>
      <trkpt lat="49.84307" lon="2.39925">
        <ele>38.3</ele>
        <time>2021-07-11T13:44:52Z</time>
      </trkpt>
      <trkpt lat="49.84306" lon="2.39925">
        <ele>38.3</ele>
        <time>2021-07-11T13:44:53Z</time>
      </trkpt>
      <trkpt lat="49.84304" lon="2.39927">
        <ele>38.3</ele>
        <time>2021-07-11T13:44:54Z</time>
      </trkpt>
      <trkpt lat="49.84303" lon="2.39928">
        <ele>38.3</ele>
        <time>2021-07-11T13:44:55Z</time>
      </trkpt>
      <trkpt lat="49.84303" lon="2.39928">
        <ele>38.3</ele>
        <time>2021-07-11T13:44:56Z</time>
      </trkpt>
      <trkpt lat="49.84302" lon="2.3993">
        <ele>38.3</ele>
        <time>2021-07-11T13:44:58Z</time>
      </trkpt>
      <trkpt lat="49.843" lon="2.39931">
        <ele>38.3</ele>
        <time>2021-07-11T13:44:59Z</time>
      </trkpt>
      <trkpt lat="49.84299" lon="2.39932">
        <ele>38.3</ele>
        <time>2021-07-11T13:45:00Z</time>
      </trkpt>
      <trkpt lat="49.84298" lon="2.39934">
        <ele>38.3</ele>
        <time>2021-07-11T13:45:01Z</time>
      </trkpt>
      <trkpt lat="49.84297" lon="2.39934">
        <ele>38.3</ele>
        <time>2021-07-11T13:45:02Z</time>
      </trkpt>
      <trkpt lat="49.84295" lon="2.39935">
        <ele>38.3</ele>
        <time>2021-07-11T13:45:04Z</time>
      </trkpt>
      <trkpt lat="49.84295" lon="2.39935">
        <ele>38.3</ele>
        <time>2021-07-11T13:45:05Z</time>
      </trkpt>
      <trkpt lat="49.84294" lon="2.39935">
        <ele>38.3</ele>
        <time>2021-07-11T13:45:06Z</time>
      </trkpt>
      <trkpt lat="49.84293" lon="2.39935">
        <ele>38.3</ele>
        <time>2021-07-11T13:45:07Z</time>
      </trkpt>
      <trkpt lat="49.84293" lon="2.39936">
        <ele>38.3</ele>
        <time>2021-07-11T13:45:09Z</time>
      </trkpt>
      <trkpt lat="49.84292" lon="2.39936">
        <ele>38.3</ele>
        <time>2021-07-11T13:45:10Z</time>
      </trkpt>
      <trkpt lat="49.84292" lon="2.39937">
        <ele>38.3</ele>
        <time>2021-07-11T13:45:11Z</time>
      </trkpt>
      <trkpt lat="49.84291" lon="2.39938">
        <ele>38.3</ele>
        <time>2021-07-11T13:45:12Z</time>
      </trkpt>
      <trkpt lat="49.8429" lon="2.3994">
        <ele>38.3</ele>
        <time>2021-07-11T13:45:13Z</time>
      </trkpt>
      <trkpt lat="49.84289" lon="2.39941">
        <ele>38.3</ele>
        <time>2021-07-11T13:45:15Z</time>
      </trkpt>
      <trkpt lat="49.84288" lon="2.39943">
        <ele>38.3</ele>
        <time>2021-07-11T13:45:16Z</time>
      </trkpt>
      <trkpt lat="49.84288" lon="2.39943">
        <ele>38.3</ele>
        <time>2021-07-11T13:45:17Z</time>
      </trkpt>
      <trkpt lat="49.84287" lon="2.39943">
        <ele>38.3</ele>
        <time>2021-07-11T13:45:19Z</time>
      </trkpt>
      <trkpt lat="49.84287" lon="2.39941">
        <ele>38.3</ele>
        <time>2021-07-11T13:45:21Z</time>
      </trkpt>
      <trkpt lat="49.84287" lon="2.39942">
        <ele>38.3</ele>
        <time>2021-07-11T13:45:23Z</time>
      </trkpt>
      <trkpt lat="49.84287" lon="2.39943">
        <ele>38.3</ele>
        <time>2021-07-11T13:45:24Z</time>
      </trkpt>
      <trkpt lat="49.84286" lon="2.39944">
        <ele>38.2</ele>
        <time>2021-07-11T13:45:25Z</time>
      </trkpt>
      <trkpt lat="49.84286" lon="2.39944">
        <ele>38.2</ele>
        <time>2021-07-11T13:45:27Z</time>
      </trkpt>
      <trkpt lat="49.84285" lon="2.39945">
        <ele>38.2</ele>
        <time>2021-07-11T13:45:28Z</time>
      </trkpt>
      <trkpt lat="49.84285" lon="2.39946">
        <ele>38.2</ele>
        <time>2021-07-11T13:45:29Z</time>
      </trkpt>
      <trkpt lat="49.84284" lon="2.39947">
        <ele>38.2</ele>
        <time>2021-07-11T13:45:31Z</time>
      </trkpt>
      <trkpt lat="49.84284" lon="2.39948">
        <ele>38.2</ele>
        <time>2021-07-11T13:45:32Z</time>
      </trkpt>
      <trkpt lat="49.84283" lon="2.3995">
        <ele>38.2</ele>
        <time>2021-07-11T13:45:33Z</time>
      </trkpt>
      <trkpt lat="49.84282" lon="2.39952">
        <ele>38.2</ele>
        <time>2021-07-11T13:45:35Z</time>
      </trkpt>
      <trkpt lat="49.84282" lon="2.39954">
        <ele>38.2</ele>
        <time>2021-07-11T13:45:36Z</time>
      </trkpt>
      <trkpt lat="49.84281" lon="2.39955">
        <ele>38.2</ele>
        <time>2021-07-11T13:45:37Z</time>
      </trkpt>
      <trkpt lat="49.8428" lon="2.39956">
        <ele>38.2</ele>
        <time>2021-07-11T13:45:38Z</time>
      </trkpt>
      <trkpt lat="49.84279" lon="2.39958">
        <ele>38.2</ele>
        <time>2021-07-11T13:45:39Z</time>
      </trkpt>
      <trkpt lat="49.84278" lon="2.39959">
        <ele>38.2</ele>
        <time>2021-07-11T13:45:40Z</time>
      </trkpt>
      <trkpt lat="49.84277" lon="2.39959">
        <ele>38.2</ele>
        <time>2021-07-11T13:45:42Z</time>
      </trkpt>
      <trkpt lat="49.84275" lon="2.3996">
        <ele>38.2</ele>
        <time>2021-07-11T13:45:43Z</time>
      </trkpt>
      <trkpt lat="49.84274" lon="2.3996">
        <ele>38.1</ele>
        <time>2021-07-11T13:45:44Z</time>
      </trkpt>
      <trkpt lat="49.84273" lon="2.3996">
        <ele>38.1</ele>
        <time>2021-07-11T13:45:45Z</time>
      </trkpt>
      <trkpt lat="49.84271" lon="2.3996">
        <ele>38.1</ele>
        <time>2021-07-11T13:45:46Z</time>
      </trkpt>
      <trkpt lat="49.8427" lon="2.39961">
        <ele>38.1</ele>
        <time>2021-07-11T13:45:47Z</time>
      </trkpt>
      <trkpt lat="49.84268" lon="2.39961">
        <ele>38.1</ele>
        <time>2021-07-11T13:45:49Z</time>
      </trkpt>
      <trkpt lat="49.84267" lon="2.39962">
        <ele>38.1</ele>
        <time>2021-07-11T13:45:50Z</time>
      </trkpt>
      <trkpt lat="49.84266" lon="2.39962">
        <ele>38.1</ele>
        <time>2021-07-11T13:45:51Z</time>
      </trkpt>
      <trkpt lat="49.84264" lon="2.39962">
        <ele>38.1</ele>
        <time>2021-07-11T13:45:52Z</time>
      </trkpt>
      <trkpt lat="49.84263" lon="2.39962">
        <ele>38</ele>
        <time>2021-07-11T13:45:53Z</time>
      </trkpt>
      <trkpt lat="49.84261" lon="2.39963">
        <ele>38</ele>
        <time>2021-07-11T13:45:54Z</time>
      </trkpt>
      <trkpt lat="49.8426" lon="2.39963">
        <ele>38</ele>
        <time>2021-07-11T13:45:55Z</time>
      </trkpt>
      <trkpt lat="49.84258" lon="2.39964">
        <ele>38</ele>
        <time>2021-07-11T13:45:57Z</time>
      </trkpt>
      <trkpt lat="49.84257" lon="2.39965">
        <ele>38</ele>
        <time>2021-07-11T13:45:58Z</time>
      </trkpt>
      <trkpt lat="49.84256" lon="2.39966">
        <ele>38</ele>
        <time>2021-07-11T13:45:59Z</time>
      </trkpt>
      <trkpt lat="49.84255" lon="2.39966">
        <ele>37.9</ele>
        <time>2021-07-11T13:46:00Z</time>
      </trkpt>
      <trkpt lat="49.84254" lon="2.39967">
        <ele>37.9</ele>
        <time>2021-07-11T13:46:01Z</time>
      </trkpt>
      <trkpt lat="49.84252" lon="2.39967">
        <ele>37.9</ele>
        <time>2021-07-11T13:46:02Z</time>
      </trkpt>
      <trkpt lat="49.84251" lon="2.39968">
        <ele>37.9</ele>
        <time>2021-07-11T13:46:03Z</time>
      </trkpt>
      <trkpt lat="49.8425" lon="2.39968">
        <ele>37.9</ele>
        <time>2021-07-11T13:46:05Z</time>
      </trkpt>
      <trkpt lat="49.84249" lon="2.39968">
        <ele>37.8</ele>
        <time>2021-07-11T13:46:06Z</time>
      </trkpt>
      <trkpt lat="49.84247" lon="2.39967">
        <ele>37.8</ele>
        <time>2021-07-11T13:46:07Z</time>
      </trkpt>
      <trkpt lat="49.84246" lon="2.39967">
        <ele>37.8</ele>
        <time>2021-07-11T13:46:08Z</time>
      </trkpt>
      <trkpt lat="49.84245" lon="2.39967">
        <ele>37.8</ele>
        <time>2021-07-11T13:46:09Z</time>
      </trkpt>
      <trkpt lat="49.84244" lon="2.39967">
        <ele>37.8</ele>
        <time>2021-07-11T13:46:10Z</time>
      </trkpt>
      <trkpt lat="49.84243" lon="2.39966">
        <ele>37.7</ele>
        <time>2021-07-11T13:46:12Z</time>
      </trkpt>
      <trkpt lat="49.84241" lon="2.39966">
        <ele>37.7</ele>
        <time>2021-07-11T13:46:13Z</time>
      </trkpt>
      <trkpt lat="49.8424" lon="2.39967">
        <ele>37.7</ele>
        <time>2021-07-11T13:46:15Z</time>
      </trkpt>
      <trkpt lat="49.84239" lon="2.39967">
        <ele>37.7</ele>
        <time>2021-07-11T13:46:16Z</time>
      </trkpt>
      <trkpt lat="49.84238" lon="2.39968">
        <ele>37.7</ele>
        <time>2021-07-11T13:46:17Z</time>
      </trkpt>
      <trkpt lat="49.84237" lon="2.3997">
        <ele>37.6</ele>
        <time>2021-07-11T13:46:18Z</time>
      </trkpt>
      <trkpt lat="49.84235" lon="2.39971">
        <ele>37.6</ele>
        <time>2021-07-11T13:46:19Z</time>
      </trkpt>
      <trkpt lat="49.84234" lon="2.39972">
        <ele>37.6</ele>
        <time>2021-07-11T13:46:20Z</time>
      </trkpt>
      <trkpt lat="49.84233" lon="2.39973">
        <ele>37.6</ele>
        <time>2021-07-11T13:46:21Z</time>
      </trkpt>
      <trkpt lat="49.84232" lon="2.39974">
        <ele>37.5</ele>
        <time>2021-07-11T13:46:22Z</time>
      </trkpt>
      <trkpt lat="49.84231" lon="2.39974">
        <ele>37.5</ele>
        <time>2021-07-11T13:46:24Z</time>
      </trkpt>
      <trkpt lat="49.84229" lon="2.39975">
        <ele>37.5</ele>
        <time>2021-07-11T13:46:25Z</time>
      </trkpt>
      <trkpt lat="49.84228" lon="2.39975">
        <ele>37.5</ele>
        <time>2021-07-11T13:46:26Z</time>
      </trkpt>
      <trkpt lat="49.84227" lon="2.39976">
        <ele>37.4</ele>
        <time>2021-07-11T13:46:27Z</time>
      </trkpt>
      <trkpt lat="49.84226" lon="2.39977">
        <ele>37.4</ele>
        <time>2021-07-11T13:46:28Z</time>
      </trkpt>
      <trkpt lat="49.84225" lon="2.39978">
        <ele>37.4</ele>
        <time>2021-07-11T13:46:29Z</time>
      </trkpt>
      <trkpt lat="49.84223" lon="2.3998">
        <ele>37.4</ele>
        <time>2021-07-11T13:46:30Z</time>
      </trkpt>
      <trkpt lat="49.84222" lon="2.39981">
        <ele>37.3</ele>
        <time>2021-07-11T13:46:32Z</time>
      </trkpt>
      <trkpt lat="49.84222" lon="2.39982">
        <ele>37.3</ele>
        <time>2021-07-11T13:46:33Z</time>
      </trkpt>
      <trkpt lat="49.8422" lon="2.39983">
        <ele>37.3</ele>
        <time>2021-07-11T13:46:34Z</time>
      </trkpt>
      <trkpt lat="49.84219" lon="2.39984">
        <ele>37.3</ele>
        <time>2021-07-11T13:46:36Z</time>
      </trkpt>
      <trkpt lat="49.84217" lon="2.39985">
        <ele>37.2</ele>
        <time>2021-07-11T13:46:37Z</time>
      </trkpt>
      <trkpt lat="49.84216" lon="2.39986">
        <ele>37.2</ele>
        <time>2021-07-11T13:46:38Z</time>
      </trkpt>
      <trkpt lat="49.84215" lon="2.39988">
        <ele>37.2</ele>
        <time>2021-07-11T13:46:39Z</time>
      </trkpt>
      <trkpt lat="49.84214" lon="2.39989">
        <ele>37.2</ele>
        <time>2021-07-11T13:46:40Z</time>
      </trkpt>
      <trkpt lat="49.84213" lon="2.39989">
        <ele>37.1</ele>
        <time>2021-07-11T13:46:41Z</time>
      </trkpt>
      <trkpt lat="49.84212" lon="2.3999">
        <ele>37.1</ele>
        <time>2021-07-11T13:46:42Z</time>
      </trkpt>
      <trkpt lat="49.84211" lon="2.39991">
        <ele>37.1</ele>
        <time>2021-07-11T13:46:44Z</time>
      </trkpt>
      <trkpt lat="49.8421" lon="2.39992">
        <ele>37.1</ele>
        <time>2021-07-11T13:46:45Z</time>
      </trkpt>
      <trkpt lat="49.84209" lon="2.39993">
        <ele>37.1</ele>
        <time>2021-07-11T13:46:46Z</time>
      </trkpt>
      <trkpt lat="49.84208" lon="2.39994">
        <ele>37</ele>
        <time>2021-07-11T13:46:47Z</time>
      </trkpt>
      <trkpt lat="49.84207" lon="2.39994">
        <ele>37</ele>
        <time>2021-07-11T13:46:48Z</time>
      </trkpt>
      <trkpt lat="49.84207" lon="2.39995">
        <ele>37</ele>
        <time>2021-07-11T13:46:49Z</time>
      </trkpt>
      <trkpt lat="49.84205" lon="2.39996">
        <ele>37</ele>
        <time>2021-07-11T13:46:50Z</time>
      </trkpt>
      <trkpt lat="49.84204" lon="2.39997">
        <ele>36.9</ele>
        <time>2021-07-11T13:46:51Z</time>
      </trkpt>
      <trkpt lat="49.84203" lon="2.39999">
        <ele>36.9</ele>
        <time>2021-07-11T13:46:53Z</time>
      </trkpt>
      <trkpt lat="49.84202" lon="2.39999">
        <ele>36.9</ele>
        <time>2021-07-11T13:46:54Z</time>
      </trkpt>
      <trkpt lat="49.84201" lon="2.4">
        <ele>36.9</ele>
        <time>2021-07-11T13:46:55Z</time>
      </trkpt>
      <trkpt lat="49.84199" lon="2.40001">
        <ele>36.8</ele>
        <time>2021-07-11T13:46:56Z</time>
      </trkpt>
      <trkpt lat="49.84198" lon="2.40001">
        <ele>36.8</ele>
        <time>2021-07-11T13:46:57Z</time>
      </trkpt>
      <trkpt lat="49.84198" lon="2.40001">
        <ele>36.8</ele>
        <time>2021-07-11T13:46:58Z</time>
      </trkpt>
      <trkpt lat="49.84196" lon="2.40002">
        <ele>36.8</ele>
        <time>2021-07-11T13:46:59Z</time>
      </trkpt>
      <trkpt lat="49.84195" lon="2.40003">
        <ele>36.7</ele>
        <time>2021-07-11T13:47:00Z</time>
      </trkpt>
      <trkpt lat="49.84194" lon="2.40003">
        <ele>36.7</ele>
        <time>2021-07-11T13:47:01Z</time>
      </trkpt>
      <trkpt lat="49.84193" lon="2.40003">
        <ele>36.7</ele>
        <time>2021-07-11T13:47:03Z</time>
      </trkpt>
      <trkpt lat="49.84192" lon="2.40004">
        <ele>36.7</ele>
        <time>2021-07-11T13:47:04Z</time>
      </trkpt>
      <trkpt lat="49.84191" lon="2.40004">
        <ele>36.6</ele>
        <time>2021-07-11T13:47:05Z</time>
      </trkpt>
      <trkpt lat="49.8419" lon="2.40005">
        <ele>36.6</ele>
        <time>2021-07-11T13:47:06Z</time>
      </trkpt>
      <trkpt lat="49.84189" lon="2.40005">
        <ele>36.6</ele>
        <time>2021-07-11T13:47:08Z</time>
      </trkpt>
      <trkpt lat="49.84188" lon="2.40006">
        <ele>36.6</ele>
        <time>2021-07-11T13:47:09Z</time>
      </trkpt>
      <trkpt lat="49.84187" lon="2.40006">
        <ele>36.6</ele>
        <time>2021-07-11T13:47:10Z</time>
      </trkpt>
      <trkpt lat="49.84185" lon="2.40006">
        <ele>36.5</ele>
        <time>2021-07-11T13:47:11Z</time>
      </trkpt>
      <trkpt lat="49.84184" lon="2.40005">
        <ele>36.5</ele>
        <time>2021-07-11T13:47:12Z</time>
      </trkpt>
      <trkpt lat="49.84182" lon="2.40006">
        <ele>36.5</ele>
        <time>2021-07-11T13:47:13Z</time>
      </trkpt>
      <trkpt lat="49.84181" lon="2.40006">
        <ele>36.5</ele>
        <time>2021-07-11T13:47:14Z</time>
      </trkpt>
      <trkpt lat="49.84181" lon="2.40006">
        <ele>36.4</ele>
        <time>2021-07-11T13:47:15Z</time>
      </trkpt>
      <trkpt lat="49.84179" lon="2.40007">
        <ele>36.4</ele>
        <time>2021-07-11T13:47:17Z</time>
      </trkpt>
      <trkpt lat="49.84178" lon="2.40007">
        <ele>36.4</ele>
        <time>2021-07-11T13:47:18Z</time>
      </trkpt>
      <trkpt lat="49.84177" lon="2.40007">
        <ele>36.4</ele>
        <time>2021-07-11T13:47:19Z</time>
      </trkpt>
      <trkpt lat="49.84176" lon="2.40008">
        <ele>36.4</ele>
        <time>2021-07-11T13:47:20Z</time>
      </trkpt>
      <trkpt lat="49.84175" lon="2.40009">
        <ele>36.3</ele>
        <time>2021-07-11T13:47:22Z</time>
      </trkpt>
      <trkpt lat="49.84174" lon="2.40009">
        <ele>36.3</ele>
        <time>2021-07-11T13:47:23Z</time>
      </trkpt>
      <trkpt lat="49.84172" lon="2.4001">
        <ele>36.3</ele>
        <time>2021-07-11T13:47:24Z</time>
      </trkpt>
      <trkpt lat="49.84171" lon="2.40011">
        <ele>36.3</ele>
        <time>2021-07-11T13:47:25Z</time>
      </trkpt>
      <trkpt lat="49.8417" lon="2.40012">
        <ele>36.2</ele>
        <time>2021-07-11T13:47:26Z</time>
      </trkpt>
      <trkpt lat="49.84168" lon="2.40013">
        <ele>36.2</ele>
        <time>2021-07-11T13:47:27Z</time>
      </trkpt>
      <trkpt lat="49.84168" lon="2.40014">
        <ele>36.2</ele>
        <time>2021-07-11T13:47:28Z</time>
      </trkpt>
      <trkpt lat="49.84167" lon="2.40014">
        <ele>36.2</ele>
        <time>2021-07-11T13:47:29Z</time>
      </trkpt>
      <trkpt lat="49.84165" lon="2.40015">
        <ele>36.1</ele>
        <time>2021-07-11T13:47:30Z</time>
      </trkpt>
      <trkpt lat="49.84164" lon="2.40015">
        <ele>36.1</ele>
        <time>2021-07-11T13:47:32Z</time>
      </trkpt>
      <trkpt lat="49.84163" lon="2.40016">
        <ele>36.1</ele>
        <time>2021-07-11T13:47:33Z</time>
      </trkpt>
      <trkpt lat="49.84162" lon="2.40017">
        <ele>36.1</ele>
        <time>2021-07-11T13:47:34Z</time>
      </trkpt>
      <trkpt lat="49.84161" lon="2.40017">
        <ele>36</ele>
        <time>2021-07-11T13:47:35Z</time>
      </trkpt>
      <trkpt lat="49.84159" lon="2.40018">
        <ele>36</ele>
        <time>2021-07-11T13:47:36Z</time>
      </trkpt>
      <trkpt lat="49.84157" lon="2.40018">
        <ele>35.9</ele>
        <time>2021-07-11T13:47:37Z</time>
      </trkpt>
      <trkpt lat="49.84156" lon="2.40019">
        <ele>35.9</ele>
        <time>2021-07-11T13:47:38Z</time>
      </trkpt>
      <trkpt lat="49.84156" lon="2.40019">
        <ele>35.9</ele>
        <time>2021-07-11T13:47:39Z</time>
      </trkpt>
      <trkpt lat="49.84154" lon="2.40019">
        <ele>35.9</ele>
        <time>2021-07-11T13:47:40Z</time>
      </trkpt>
      <trkpt lat="49.84153" lon="2.40019">
        <ele>35.8</ele>
        <time>2021-07-11T13:47:42Z</time>
      </trkpt>
      <trkpt lat="49.84152" lon="2.40019">
        <ele>35.8</ele>
        <time>2021-07-11T13:47:43Z</time>
      </trkpt>
      <trkpt lat="49.84151" lon="2.40019">
        <ele>35.8</ele>
        <time>2021-07-11T13:47:44Z</time>
      </trkpt>
      <trkpt lat="49.8415" lon="2.40019">
        <ele>35.8</ele>
        <time>2021-07-11T13:47:45Z</time>
      </trkpt>
      <trkpt lat="49.84148" lon="2.40019">
        <ele>35.7</ele>
        <time>2021-07-11T13:47:46Z</time>
      </trkpt>
      <trkpt lat="49.84147" lon="2.40019">
        <ele>35.7</ele>
        <time>2021-07-11T13:47:47Z</time>
      </trkpt>
      <trkpt lat="49.84146" lon="2.4002">
        <ele>35.6</ele>
        <time>2021-07-11T13:47:48Z</time>
      </trkpt>
      <trkpt lat="49.84144" lon="2.4002">
        <ele>35.6</ele>
        <time>2021-07-11T13:47:49Z</time>
      </trkpt>
      <trkpt lat="49.84143" lon="2.40021">
        <ele>35.6</ele>
        <time>2021-07-11T13:47:50Z</time>
      </trkpt>
      <trkpt lat="49.84141" lon="2.40021">
        <ele>35.5</ele>
        <time>2021-07-11T13:47:52Z</time>
      </trkpt>
      <trkpt lat="49.8414" lon="2.40022">
        <ele>35.5</ele>
        <time>2021-07-11T13:47:53Z</time>
      </trkpt>
      <trkpt lat="49.84138" lon="2.40023">
        <ele>35.5</ele>
        <time>2021-07-11T13:47:54Z</time>
      </trkpt>
      <trkpt lat="49.84137" lon="2.40023">
        <ele>35.4</ele>
        <time>2021-07-11T13:47:55Z</time>
      </trkpt>
      <trkpt lat="49.84136" lon="2.40024">
        <ele>35.4</ele>
        <time>2021-07-11T13:47:56Z</time>
      </trkpt>
      <trkpt lat="49.84134" lon="2.40025">
        <ele>35.4</ele>
        <time>2021-07-11T13:47:57Z</time>
      </trkpt>
      <trkpt lat="49.84133" lon="2.40025">
        <ele>35.3</ele>
        <time>2021-07-11T13:47:58Z</time>
      </trkpt>
      <trkpt lat="49.84132" lon="2.40026">
        <ele>35.3</ele>
        <time>2021-07-11T13:47:59Z</time>
      </trkpt>
      <trkpt lat="49.8413" lon="2.40027">
        <ele>35.2</ele>
        <time>2021-07-11T13:48:00Z</time>
      </trkpt>
      <trkpt lat="49.84129" lon="2.40028">
        <ele>35.2</ele>
        <time>2021-07-11T13:48:02Z</time>
      </trkpt>
      <trkpt lat="49.84127" lon="2.40029">
        <ele>35.2</ele>
        <time>2021-07-11T13:48:03Z</time>
      </trkpt>
      <trkpt lat="49.84126" lon="2.4003">
        <ele>35.1</ele>
        <time>2021-07-11T13:48:04Z</time>
      </trkpt>
      <trkpt lat="49.84125" lon="2.40031">
        <ele>35.1</ele>
        <time>2021-07-11T13:48:05Z</time>
      </trkpt>
      <trkpt lat="49.84123" lon="2.40031">
        <ele>35.1</ele>
        <time>2021-07-11T13:48:06Z</time>
      </trkpt>
      <trkpt lat="49.84122" lon="2.40032">
        <ele>35</ele>
        <time>2021-07-11T13:48:07Z</time>
      </trkpt>
      <trkpt lat="49.8412" lon="2.40033">
        <ele>35</ele>
        <time>2021-07-11T13:48:08Z</time>
      </trkpt>
      <trkpt lat="49.84119" lon="2.40033">
        <ele>35</ele>
        <time>2021-07-11T13:48:09Z</time>
      </trkpt>
      <trkpt lat="49.84117" lon="2.40034">
        <ele>34.9</ele>
        <time>2021-07-11T13:48:11Z</time>
      </trkpt>
      <trkpt lat="49.84116" lon="2.40034">
        <ele>34.9</ele>
        <time>2021-07-11T13:48:12Z</time>
      </trkpt>
      <trkpt lat="49.84115" lon="2.40035">
        <ele>34.9</ele>
        <time>2021-07-11T13:48:13Z</time>
      </trkpt>
      <trkpt lat="49.84114" lon="2.40036">
        <ele>34.8</ele>
        <time>2021-07-11T13:48:14Z</time>
      </trkpt>
      <trkpt lat="49.84113" lon="2.40037">
        <ele>34.8</ele>
        <time>2021-07-11T13:48:15Z</time>
      </trkpt>
      <trkpt lat="49.84112" lon="2.40038">
        <ele>34.8</ele>
        <time>2021-07-11T13:48:16Z</time>
      </trkpt>
      <trkpt lat="49.84111" lon="2.40039">
        <ele>34.7</ele>
        <time>2021-07-11T13:48:17Z</time>
      </trkpt>
      <trkpt lat="49.84109" lon="2.4004">
        <ele>34.7</ele>
        <time>2021-07-11T13:48:18Z</time>
      </trkpt>
      <trkpt lat="49.84108" lon="2.40042">
        <ele>34.6</ele>
        <time>2021-07-11T13:48:19Z</time>
      </trkpt>
      <trkpt lat="49.84107" lon="2.40043">
        <ele>34.6</ele>
        <time>2021-07-11T13:48:21Z</time>
      </trkpt>
      <trkpt lat="49.84106" lon="2.40043">
        <ele>34.6</ele>
        <time>2021-07-11T13:48:22Z</time>
      </trkpt>
      <trkpt lat="49.84105" lon="2.40044">
        <ele>34.6</ele>
        <time>2021-07-11T13:48:23Z</time>
      </trkpt>
      <trkpt lat="49.84104" lon="2.40045">
        <ele>34.6</ele>
        <time>2021-07-11T13:48:24Z</time>
      </trkpt>
      <trkpt lat="49.84103" lon="2.40045">
        <ele>34.5</ele>
        <time>2021-07-11T13:48:25Z</time>
      </trkpt>
      <trkpt lat="49.84101" lon="2.40046">
        <ele>34.5</ele>
        <time>2021-07-11T13:48:26Z</time>
      </trkpt>
      <trkpt lat="49.841" lon="2.40047">
        <ele>34.5</ele>
        <time>2021-07-11T13:48:27Z</time>
      </trkpt>
      <trkpt lat="49.841" lon="2.40047">
        <ele>34.4</ele>
        <time>2021-07-11T13:48:28Z</time>
      </trkpt>
      <trkpt lat="49.84097" lon="2.40048">
        <ele>34.4</ele>
        <time>2021-07-11T13:48:29Z</time>
      </trkpt>
      <trkpt lat="49.84097" lon="2.40048">
        <ele>34.4</ele>
        <time>2021-07-11T13:48:31Z</time>
      </trkpt>
      <trkpt lat="49.84096" lon="2.40049">
        <ele>34.3</ele>
        <time>2021-07-11T13:48:32Z</time>
      </trkpt>
      <trkpt lat="49.84094" lon="2.40049">
        <ele>34.3</ele>
        <time>2021-07-11T13:48:33Z</time>
      </trkpt>
      <trkpt lat="49.84093" lon="2.40049">
        <ele>34.3</ele>
        <time>2021-07-11T13:48:34Z</time>
      </trkpt>
      <trkpt lat="49.84092" lon="2.40049">
        <ele>34.3</ele>
        <time>2021-07-11T13:48:35Z</time>
      </trkpt>
      <trkpt lat="49.8409" lon="2.40049">
        <ele>34.2</ele>
        <time>2021-07-11T13:48:36Z</time>
      </trkpt>
      <trkpt lat="49.84089" lon="2.40049">
        <ele>34.2</ele>
        <time>2021-07-11T13:48:37Z</time>
      </trkpt>
      <trkpt lat="49.84088" lon="2.40049">
        <ele>34.2</ele>
        <time>2021-07-11T13:48:38Z</time>
      </trkpt>
      <trkpt lat="49.84086" lon="2.40049">
        <ele>34.2</ele>
        <time>2021-07-11T13:48:39Z</time>
      </trkpt>
      <trkpt lat="49.84085" lon="2.40049">
        <ele>34.1</ele>
        <time>2021-07-11T13:48:41Z</time>
      </trkpt>
      <trkpt lat="49.84085" lon="2.40049">
        <ele>34.1</ele>
        <time>2021-07-11T13:48:42Z</time>
      </trkpt>
      <trkpt lat="49.84083" lon="2.40049">
        <ele>34.1</ele>
        <time>2021-07-11T13:48:43Z</time>
      </trkpt>
      <trkpt lat="49.84083" lon="2.4005">
        <ele>34.1</ele>
        <time>2021-07-11T13:48:44Z</time>
      </trkpt>
      <trkpt lat="49.84081" lon="2.4005">
        <ele>34.1</ele>
        <time>2021-07-11T13:48:45Z</time>
      </trkpt>
      <trkpt lat="49.8408" lon="2.40051">
        <ele>34</ele>
        <time>2021-07-11T13:48:46Z</time>
      </trkpt>
      <trkpt lat="49.84079" lon="2.40051">
        <ele>34</ele>
        <time>2021-07-11T13:48:47Z</time>
      </trkpt>
      <trkpt lat="49.84077" lon="2.40052">
        <ele>34</ele>
        <time>2021-07-11T13:48:48Z</time>
      </trkpt>
      <trkpt lat="49.84076" lon="2.40053">
        <ele>34</ele>
        <time>2021-07-11T13:48:50Z</time>
      </trkpt>
      <trkpt lat="49.84075" lon="2.40053">
        <ele>34</ele>
        <time>2021-07-11T13:48:51Z</time>
      </trkpt>
      <trkpt lat="49.84073" lon="2.40053">
        <ele>33.9</ele>
        <time>2021-07-11T13:48:52Z</time>
      </trkpt>
      <trkpt lat="49.84072" lon="2.40053">
        <ele>33.9</ele>
        <time>2021-07-11T13:48:53Z</time>
      </trkpt>
      <trkpt lat="49.84071" lon="2.40053">
        <ele>33.9</ele>
        <time>2021-07-11T13:48:54Z</time>
      </trkpt>
      <trkpt lat="49.8407" lon="2.40053">
        <ele>33.9</ele>
        <time>2021-07-11T13:48:56Z</time>
      </trkpt>
      <trkpt lat="49.84068" lon="2.40054">
        <ele>33.9</ele>
        <time>2021-07-11T13:48:57Z</time>
      </trkpt>
      <trkpt lat="49.84065" lon="2.40055">
        <ele>33.7</ele>
        <time>2021-07-11T13:48:59Z</time>
      </trkpt>
      <trkpt lat="49.84065" lon="2.40055">
        <ele>33.7</ele>
        <time>2021-07-11T13:49:00Z</time>
      </trkpt>
      <trkpt lat="49.84063" lon="2.40056">
        <ele>33.6</ele>
        <time>2021-07-11T13:49:01Z</time>
      </trkpt>
      <trkpt lat="49.84062" lon="2.40057">
        <ele>33.6</ele>
        <time>2021-07-11T13:49:02Z</time>
      </trkpt>
      <trkpt lat="49.8406" lon="2.40057">
        <ele>33.6</ele>
        <time>2021-07-11T13:49:03Z</time>
      </trkpt>
      <trkpt lat="49.84059" lon="2.40057">
        <ele>33.6</ele>
        <time>2021-07-11T13:49:04Z</time>
      </trkpt>
      <trkpt lat="49.84058" lon="2.40057">
        <ele>33.6</ele>
        <time>2021-07-11T13:49:05Z</time>
      </trkpt>
      <trkpt lat="49.84056" lon="2.40057">
        <ele>33.6</ele>
        <time>2021-07-11T13:49:06Z</time>
      </trkpt>
      <trkpt lat="49.84055" lon="2.40057">
        <ele>33.5</ele>
        <time>2021-07-11T13:49:08Z</time>
      </trkpt>
      <trkpt lat="49.84053" lon="2.40057">
        <ele>33.5</ele>
        <time>2021-07-11T13:49:09Z</time>
      </trkpt>
      <trkpt lat="49.84051" lon="2.40058">
        <ele>33.5</ele>
        <time>2021-07-11T13:49:10Z</time>
      </trkpt>
      <trkpt lat="49.8405" lon="2.40058">
        <ele>33.5</ele>
        <time>2021-07-11T13:49:11Z</time>
      </trkpt>
      <trkpt lat="49.8405" lon="2.40059">
        <ele>33.5</ele>
        <time>2021-07-11T13:49:12Z</time>
      </trkpt>
      <trkpt lat="49.84048" lon="2.4006">
        <ele>33.4</ele>
        <time>2021-07-11T13:49:13Z</time>
      </trkpt>
      <trkpt lat="49.84047" lon="2.40061">
        <ele>33.4</ele>
        <time>2021-07-11T13:49:14Z</time>
      </trkpt>
      <trkpt lat="49.84046" lon="2.40061">
        <ele>33.4</ele>
        <time>2021-07-11T13:49:15Z</time>
      </trkpt>
      <trkpt lat="49.84045" lon="2.40061">
        <ele>33.4</ele>
        <time>2021-07-11T13:49:17Z</time>
      </trkpt>
      <trkpt lat="49.84044" lon="2.40061">
        <ele>33.4</ele>
        <time>2021-07-11T13:49:18Z</time>
      </trkpt>
      <trkpt lat="49.84043" lon="2.40062">
        <ele>33.4</ele>
        <time>2021-07-11T13:49:19Z</time>
      </trkpt>
      <trkpt lat="49.84042" lon="2.40063">
        <ele>33.3</ele>
        <time>2021-07-11T13:49:20Z</time>
      </trkpt>
      <trkpt lat="49.8404" lon="2.40064">
        <ele>33.3</ele>
        <time>2021-07-11T13:49:21Z</time>
      </trkpt>
      <trkpt lat="49.84039" lon="2.40065">
        <ele>33.3</ele>
        <time>2021-07-11T13:49:23Z</time>
      </trkpt>
      <trkpt lat="49.84038" lon="2.40065">
        <ele>33.3</ele>
        <time>2021-07-11T13:49:24Z</time>
      </trkpt>
      <trkpt lat="49.84037" lon="2.40066">
        <ele>33.3</ele>
        <time>2021-07-11T13:49:25Z</time>
      </trkpt>
      <trkpt lat="49.84036" lon="2.40067">
        <ele>33.2</ele>
        <time>2021-07-11T13:49:26Z</time>
      </trkpt>
      <trkpt lat="49.84035" lon="2.40067">
        <ele>33.2</ele>
        <time>2021-07-11T13:49:27Z</time>
      </trkpt>
      <trkpt lat="49.84034" lon="2.40068">
        <ele>33.2</ele>
        <time>2021-07-11T13:49:28Z</time>
      </trkpt>
      <trkpt lat="49.84031" lon="2.40069">
        <ele>33.1</ele>
        <time>2021-07-11T13:49:30Z</time>
      </trkpt>
      <trkpt lat="49.8403" lon="2.4007">
        <ele>33.1</ele>
        <time>2021-07-11T13:49:32Z</time>
      </trkpt>
      <trkpt lat="49.84029" lon="2.4007">
        <ele>33.1</ele>
        <time>2021-07-11T13:49:33Z</time>
      </trkpt>
      <trkpt lat="49.84029" lon="2.40071">
        <ele>33.1</ele>
        <time>2021-07-11T13:49:34Z</time>
      </trkpt>
      <trkpt lat="49.84028" lon="2.40072">
        <ele>33.1</ele>
        <time>2021-07-11T13:49:35Z</time>
      </trkpt>
      <trkpt lat="49.84026" lon="2.40073">
        <ele>33.1</ele>
        <time>2021-07-11T13:49:36Z</time>
      </trkpt>
      <trkpt lat="49.84025" lon="2.40073">
        <ele>33</ele>
        <time>2021-07-11T13:49:37Z</time>
      </trkpt>
      <trkpt lat="49.84024" lon="2.40074">
        <ele>33</ele>
        <time>2021-07-11T13:49:38Z</time>
      </trkpt>
      <trkpt lat="49.84023" lon="2.40074">
        <ele>33</ele>
        <time>2021-07-11T13:49:39Z</time>
      </trkpt>
      <trkpt lat="49.84022" lon="2.40074">
        <ele>33</ele>
        <time>2021-07-11T13:49:41Z</time>
      </trkpt>
      <trkpt lat="49.84021" lon="2.40075">
        <ele>33</ele>
        <time>2021-07-11T13:49:42Z</time>
      </trkpt>
      <trkpt lat="49.8402" lon="2.40076">
        <ele>33</ele>
        <time>2021-07-11T13:49:43Z</time>
      </trkpt>
      <trkpt lat="49.84019" lon="2.40076">
        <ele>32.9</ele>
        <time>2021-07-11T13:49:44Z</time>
      </trkpt>
      <trkpt lat="49.84018" lon="2.40076">
        <ele>32.9</ele>
        <time>2021-07-11T13:49:45Z</time>
      </trkpt>
      <trkpt lat="49.84016" lon="2.40077">
        <ele>32.9</ele>
        <time>2021-07-11T13:49:46Z</time>
      </trkpt>
      <trkpt lat="49.84015" lon="2.40077">
        <ele>32.9</ele>
        <time>2021-07-11T13:49:47Z</time>
      </trkpt>
      <trkpt lat="49.84014" lon="2.40078">
        <ele>32.9</ele>
        <time>2021-07-11T13:49:48Z</time>
      </trkpt>
      <trkpt lat="49.84013" lon="2.40079">
        <ele>32.9</ele>
        <time>2021-07-11T13:49:49Z</time>
      </trkpt>
      <trkpt lat="49.84013" lon="2.40081">
        <ele>32.9</ele>
        <time>2021-07-11T13:49:51Z</time>
      </trkpt>
      <trkpt lat="49.84012" lon="2.40082">
        <ele>32.9</ele>
        <time>2021-07-11T13:49:52Z</time>
      </trkpt>
      <trkpt lat="49.84012" lon="2.40083">
        <ele>32.8</ele>
        <time>2021-07-11T13:49:53Z</time>
      </trkpt>
      <trkpt lat="49.84011" lon="2.40085">
        <ele>32.8</ele>
        <time>2021-07-11T13:49:54Z</time>
      </trkpt>
      <trkpt lat="49.8401" lon="2.40086">
        <ele>32.8</ele>
        <time>2021-07-11T13:49:55Z</time>
      </trkpt>
      <trkpt lat="49.84009" lon="2.40087">
        <ele>32.8</ele>
        <time>2021-07-11T13:49:56Z</time>
      </trkpt>
      <trkpt lat="49.84008" lon="2.40088">
        <ele>32.8</ele>
        <time>2021-07-11T13:49:57Z</time>
      </trkpt>
      <trkpt lat="49.84007" lon="2.40089">
        <ele>32.8</ele>
        <time>2021-07-11T13:49:59Z</time>
      </trkpt>
      <trkpt lat="49.84005" lon="2.4009">
        <ele>32.7</ele>
        <time>2021-07-11T13:50:00Z</time>
      </trkpt>
      <trkpt lat="49.84004" lon="2.40092">
        <ele>32.7</ele>
        <time>2021-07-11T13:50:01Z</time>
      </trkpt>
      <trkpt lat="49.84002" lon="2.40093">
        <ele>32.7</ele>
        <time>2021-07-11T13:50:02Z</time>
      </trkpt>
      <trkpt lat="49.84001" lon="2.40094">
        <ele>32.7</ele>
        <time>2021-07-11T13:50:03Z</time>
      </trkpt>
      <trkpt lat="49.83999" lon="2.40094">
        <ele>32.7</ele>
        <time>2021-07-11T13:50:04Z</time>
      </trkpt>
      <trkpt lat="49.83998" lon="2.40094">
        <ele>32.7</ele>
        <time>2021-07-11T13:50:05Z</time>
      </trkpt>
      <trkpt lat="49.83995" lon="2.40095">
        <ele>32.6</ele>
        <time>2021-07-11T13:50:06Z</time>
      </trkpt>
      <trkpt lat="49.83994" lon="2.40096">
        <ele>32.6</ele>
        <time>2021-07-11T13:50:08Z</time>
      </trkpt>
      <trkpt lat="49.83993" lon="2.40096">
        <ele>32.6</ele>
        <time>2021-07-11T13:50:09Z</time>
      </trkpt>
      <trkpt lat="49.83992" lon="2.40096">
        <ele>32.6</ele>
        <time>2021-07-11T13:50:10Z</time>
      </trkpt>
      <trkpt lat="49.83991" lon="2.40096">
        <ele>32.6</ele>
        <time>2021-07-11T13:50:11Z</time>
      </trkpt>
      <trkpt lat="49.83989" lon="2.40097">
        <ele>32.6</ele>
        <time>2021-07-11T13:50:12Z</time>
      </trkpt>
      <trkpt lat="49.83988" lon="2.40098">
        <ele>32.6</ele>
        <time>2021-07-11T13:50:13Z</time>
      </trkpt>
      <trkpt lat="49.83987" lon="2.40098">
        <ele>32.6</ele>
        <time>2021-07-11T13:50:14Z</time>
      </trkpt>
      <trkpt lat="49.83986" lon="2.40098">
        <ele>32.6</ele>
        <time>2021-07-11T13:50:16Z</time>
      </trkpt>
      <trkpt lat="49.83985" lon="2.40099">
        <ele>32.6</ele>
        <time>2021-07-11T13:50:17Z</time>
      </trkpt>
      <trkpt lat="49.83984" lon="2.40099">
        <ele>32.6</ele>
        <time>2021-07-11T13:50:18Z</time>
      </trkpt>
      <trkpt lat="49.83983" lon="2.401">
        <ele>32.6</ele>
        <time>2021-07-11T13:50:19Z</time>
      </trkpt>
      <trkpt lat="49.83982" lon="2.401">
        <ele>32.6</ele>
        <time>2021-07-11T13:50:20Z</time>
      </trkpt>
      <trkpt lat="49.83981" lon="2.401">
        <ele>32.5</ele>
        <time>2021-07-11T13:50:21Z</time>
      </trkpt>
      <trkpt lat="49.8398" lon="2.401">
        <ele>32.5</ele>
        <time>2021-07-11T13:50:22Z</time>
      </trkpt>
      <trkpt lat="49.83979" lon="2.401">
        <ele>32.5</ele>
        <time>2021-07-11T13:50:24Z</time>
      </trkpt>
      <trkpt lat="49.83978" lon="2.401">
        <ele>32.5</ele>
        <time>2021-07-11T13:50:25Z</time>
      </trkpt>
      <trkpt lat="49.83976" lon="2.40099">
        <ele>32.5</ele>
        <time>2021-07-11T13:50:26Z</time>
      </trkpt>
      <trkpt lat="49.83975" lon="2.40099">
        <ele>32.5</ele>
        <time>2021-07-11T13:50:27Z</time>
      </trkpt>
      <trkpt lat="49.83974" lon="2.40099">
        <ele>32.5</ele>
        <time>2021-07-11T13:50:28Z</time>
      </trkpt>
      <trkpt lat="49.83973" lon="2.401">
        <ele>32.5</ele>
        <time>2021-07-11T13:50:29Z</time>
      </trkpt>
      <trkpt lat="49.83972" lon="2.401">
        <ele>32.5</ele>
        <time>2021-07-11T13:50:30Z</time>
      </trkpt>
      <trkpt lat="49.83971" lon="2.40101">
        <ele>32.5</ele>
        <time>2021-07-11T13:50:31Z</time>
      </trkpt>
      <trkpt lat="49.8397" lon="2.40102">
        <ele>32.5</ele>
        <time>2021-07-11T13:50:33Z</time>
      </trkpt>
      <trkpt lat="49.83969" lon="2.40103">
        <ele>32.5</ele>
        <time>2021-07-11T13:50:34Z</time>
      </trkpt>
      <trkpt lat="49.83968" lon="2.40104">
        <ele>32.5</ele>
        <time>2021-07-11T13:50:35Z</time>
      </trkpt>
      <trkpt lat="49.83967" lon="2.40105">
        <ele>32.5</ele>
        <time>2021-07-11T13:50:36Z</time>
      </trkpt>
      <trkpt lat="49.83966" lon="2.40105">
        <ele>32.4</ele>
        <time>2021-07-11T13:50:37Z</time>
      </trkpt>
      <trkpt lat="49.83965" lon="2.40105">
        <ele>32.4</ele>
        <time>2021-07-11T13:50:38Z</time>
      </trkpt>
      <trkpt lat="49.83963" lon="2.40105">
        <ele>32.4</ele>
        <time>2021-07-11T13:50:40Z</time>
      </trkpt>
      <trkpt lat="49.83962" lon="2.40106">
        <ele>32.4</ele>
        <time>2021-07-11T13:50:41Z</time>
      </trkpt>
      <trkpt lat="49.8396" lon="2.40106">
        <ele>32.4</ele>
        <time>2021-07-11T13:50:42Z</time>
      </trkpt>
      <trkpt lat="49.83959" lon="2.40106">
        <ele>32.4</ele>
        <time>2021-07-11T13:50:43Z</time>
      </trkpt>
      <trkpt lat="49.83958" lon="2.40106">
        <ele>32.4</ele>
        <time>2021-07-11T13:50:44Z</time>
      </trkpt>
      <trkpt lat="49.83956" lon="2.40106">
        <ele>32.4</ele>
        <time>2021-07-11T13:50:46Z</time>
      </trkpt>
      <trkpt lat="49.83955" lon="2.40106">
        <ele>32.4</ele>
        <time>2021-07-11T13:50:47Z</time>
      </trkpt>
      <trkpt lat="49.83954" lon="2.40106">
        <ele>32.4</ele>
        <time>2021-07-11T13:50:48Z</time>
      </trkpt>
      <trkpt lat="49.83953" lon="2.40106">
        <ele>32.3</ele>
        <time>2021-07-11T13:50:49Z</time>
      </trkpt>
      <trkpt lat="49.83952" lon="2.40106">
        <ele>32.3</ele>
        <time>2021-07-11T13:50:50Z</time>
      </trkpt>
      <trkpt lat="49.83951" lon="2.40106">
        <ele>32.3</ele>
        <time>2021-07-11T13:50:51Z</time>
      </trkpt>
      <trkpt lat="49.83949" lon="2.40107">
        <ele>32.3</ele>
        <time>2021-07-11T13:50:52Z</time>
      </trkpt>
      <trkpt lat="49.83948" lon="2.40106">
        <ele>32.3</ele>
        <time>2021-07-11T13:50:53Z</time>
      </trkpt>
      <trkpt lat="49.83947" lon="2.40106">
        <ele>32.3</ele>
        <time>2021-07-11T13:50:54Z</time>
      </trkpt>
      <trkpt lat="49.83945" lon="2.40106">
        <ele>32.3</ele>
        <time>2021-07-11T13:50:56Z</time>
      </trkpt>
      <trkpt lat="49.83944" lon="2.40106">
        <ele>32.3</ele>
        <time>2021-07-11T13:50:57Z</time>
      </trkpt>
      <trkpt lat="49.83942" lon="2.40105">
        <ele>32.3</ele>
        <time>2021-07-11T13:50:58Z</time>
      </trkpt>
      <trkpt lat="49.8394" lon="2.40106">
        <ele>32.3</ele>
        <time>2021-07-11T13:50:59Z</time>
      </trkpt>
      <trkpt lat="49.8394" lon="2.40106">
        <ele>32.3</ele>
        <time>2021-07-11T13:51:00Z</time>
      </trkpt>
      <trkpt lat="49.83939" lon="2.40106">
        <ele>32.3</ele>
        <time>2021-07-11T13:51:01Z</time>
      </trkpt>
      <trkpt lat="49.83937" lon="2.40107">
        <ele>32.3</ele>
        <time>2021-07-11T13:51:02Z</time>
      </trkpt>
      <trkpt lat="49.83936" lon="2.40107">
        <ele>32.3</ele>
        <time>2021-07-11T13:51:03Z</time>
      </trkpt>
      <trkpt lat="49.83934" lon="2.40108">
        <ele>32.3</ele>
        <time>2021-07-11T13:51:05Z</time>
      </trkpt>
      <trkpt lat="49.83933" lon="2.40109">
        <ele>32.3</ele>
        <time>2021-07-11T13:51:06Z</time>
      </trkpt>
      <trkpt lat="49.83932" lon="2.40109">
        <ele>32.3</ele>
        <time>2021-07-11T13:51:07Z</time>
      </trkpt>
      <trkpt lat="49.83931" lon="2.4011">
        <ele>32.3</ele>
        <time>2021-07-11T13:51:08Z</time>
      </trkpt>
      <trkpt lat="49.8393" lon="2.40111">
        <ele>32.3</ele>
        <time>2021-07-11T13:51:09Z</time>
      </trkpt>
      <trkpt lat="49.83929" lon="2.40112">
        <ele>32.3</ele>
        <time>2021-07-11T13:51:10Z</time>
      </trkpt>
      <trkpt lat="49.83928" lon="2.40112">
        <ele>32.3</ele>
        <time>2021-07-11T13:51:11Z</time>
      </trkpt>
      <trkpt lat="49.83926" lon="2.40113">
        <ele>32.3</ele>
        <time>2021-07-11T13:51:12Z</time>
      </trkpt>
      <trkpt lat="49.83925" lon="2.40114">
        <ele>32.3</ele>
        <time>2021-07-11T13:51:13Z</time>
      </trkpt>
      <trkpt lat="49.83923" lon="2.40114">
        <ele>32.3</ele>
        <time>2021-07-11T13:51:14Z</time>
      </trkpt>
      <trkpt lat="49.83922" lon="2.40115">
        <ele>32.3</ele>
        <time>2021-07-11T13:51:16Z</time>
      </trkpt>
      <trkpt lat="49.83921" lon="2.40115">
        <ele>32.3</ele>
        <time>2021-07-11T13:51:17Z</time>
      </trkpt>
      <trkpt lat="49.83919" lon="2.40115">
        <ele>32.3</ele>
        <time>2021-07-11T13:51:18Z</time>
      </trkpt>
      <trkpt lat="49.83918" lon="2.40116">
        <ele>32.3</ele>
        <time>2021-07-11T13:51:19Z</time>
      </trkpt>
      <trkpt lat="49.83916" lon="2.40117">
        <ele>32.3</ele>
        <time>2021-07-11T13:51:20Z</time>
      </trkpt>
      <trkpt lat="49.83915" lon="2.40118">
        <ele>32.3</ele>
        <time>2021-07-11T13:51:21Z</time>
      </trkpt>
      <trkpt lat="49.83914" lon="2.40118">
        <ele>32.3</ele>
        <time>2021-07-11T13:51:22Z</time>
      </trkpt>
      <trkpt lat="49.83913" lon="2.40119">
        <ele>32.3</ele>
        <time>2021-07-11T13:51:23Z</time>
      </trkpt>
      <trkpt lat="49.83912" lon="2.40119">
        <ele>32.3</ele>
        <time>2021-07-11T13:51:24Z</time>
      </trkpt>
      <trkpt lat="49.8391" lon="2.40119">
        <ele>32.3</ele>
        <time>2021-07-11T13:51:25Z</time>
      </trkpt>
      <trkpt lat="49.83909" lon="2.4012">
        <ele>32.3</ele>
        <time>2021-07-11T13:51:27Z</time>
      </trkpt>
      <trkpt lat="49.83908" lon="2.40121">
        <ele>32.3</ele>
        <time>2021-07-11T13:51:28Z</time>
      </trkpt>
      <trkpt lat="49.83907" lon="2.40121">
        <ele>32.4</ele>
        <time>2021-07-11T13:51:29Z</time>
      </trkpt>
      <trkpt lat="49.83906" lon="2.40122">
        <ele>32.4</ele>
        <time>2021-07-11T13:51:30Z</time>
      </trkpt>
      <trkpt lat="49.83904" lon="2.40122">
        <ele>32.4</ele>
        <time>2021-07-11T13:51:31Z</time>
      </trkpt>
      <trkpt lat="49.83903" lon="2.40123">
        <ele>32.4</ele>
        <time>2021-07-11T13:51:32Z</time>
      </trkpt>
      <trkpt lat="49.83902" lon="2.40123">
        <ele>32.4</ele>
        <time>2021-07-11T13:51:33Z</time>
      </trkpt>
      <trkpt lat="49.83901" lon="2.40123">
        <ele>32.4</ele>
        <time>2021-07-11T13:51:34Z</time>
      </trkpt>
      <trkpt lat="49.83899" lon="2.40123">
        <ele>32.4</ele>
        <time>2021-07-11T13:51:35Z</time>
      </trkpt>
      <trkpt lat="49.83898" lon="2.40123">
        <ele>32.4</ele>
        <time>2021-07-11T13:51:37Z</time>
      </trkpt>
      <trkpt lat="49.83896" lon="2.40124">
        <ele>32.4</ele>
        <time>2021-07-11T13:51:38Z</time>
      </trkpt>
      <trkpt lat="49.83895" lon="2.40124">
        <ele>32.5</ele>
        <time>2021-07-11T13:51:39Z</time>
      </trkpt>
      <trkpt lat="49.83894" lon="2.40124">
        <ele>32.5</ele>
        <time>2021-07-11T13:51:40Z</time>
      </trkpt>
      <trkpt lat="49.83892" lon="2.40124">
        <ele>32.5</ele>
        <time>2021-07-11T13:51:41Z</time>
      </trkpt>
      <trkpt lat="49.83892" lon="2.40124">
        <ele>32.5</ele>
        <time>2021-07-11T13:51:42Z</time>
      </trkpt>
      <trkpt lat="49.83891" lon="2.40125">
        <ele>32.5</ele>
        <time>2021-07-11T13:51:43Z</time>
      </trkpt>
      <trkpt lat="49.83889" lon="2.40125">
        <ele>32.5</ele>
        <time>2021-07-11T13:51:44Z</time>
      </trkpt>
      <trkpt lat="49.83888" lon="2.40125">
        <ele>32.5</ele>
        <time>2021-07-11T13:51:45Z</time>
      </trkpt>
      <trkpt lat="49.83886" lon="2.40126">
        <ele>32.5</ele>
        <time>2021-07-11T13:51:47Z</time>
      </trkpt>
      <trkpt lat="49.83885" lon="2.40126">
        <ele>32.5</ele>
        <time>2021-07-11T13:51:48Z</time>
      </trkpt>
      <trkpt lat="49.83883" lon="2.40127">
        <ele>32.6</ele>
        <time>2021-07-11T13:51:49Z</time>
      </trkpt>
      <trkpt lat="49.83882" lon="2.40127">
        <ele>32.6</ele>
        <time>2021-07-11T13:51:50Z</time>
      </trkpt>
      <trkpt lat="49.83881" lon="2.40127">
        <ele>32.6</ele>
        <time>2021-07-11T13:51:51Z</time>
      </trkpt>
      <trkpt lat="49.83879" lon="2.40128">
        <ele>32.6</ele>
        <time>2021-07-11T13:51:52Z</time>
      </trkpt>
      <trkpt lat="49.83879" lon="2.40128">
        <ele>32.6</ele>
        <time>2021-07-11T13:51:53Z</time>
      </trkpt>
      <trkpt lat="49.83878" lon="2.40128">
        <ele>32.6</ele>
        <time>2021-07-11T13:51:54Z</time>
      </trkpt>
      <trkpt lat="49.83876" lon="2.40129">
        <ele>32.6</ele>
        <time>2021-07-11T13:51:55Z</time>
      </trkpt>
      <trkpt lat="49.83875" lon="2.40129">
        <ele>32.6</ele>
        <time>2021-07-11T13:51:57Z</time>
      </trkpt>
      <trkpt lat="49.83874" lon="2.40129">
        <ele>32.6</ele>
        <time>2021-07-11T13:51:58Z</time>
      </trkpt>
      <trkpt lat="49.83873" lon="2.4013">
        <ele>32.7</ele>
        <time>2021-07-11T13:51:59Z</time>
      </trkpt>
      <trkpt lat="49.83872" lon="2.4013">
        <ele>32.7</ele>
        <time>2021-07-11T13:52:00Z</time>
      </trkpt>
      <trkpt lat="49.83871" lon="2.4013">
        <ele>32.7</ele>
        <time>2021-07-11T13:52:01Z</time>
      </trkpt>
      <trkpt lat="49.83869" lon="2.40131">
        <ele>32.7</ele>
        <time>2021-07-11T13:52:02Z</time>
      </trkpt>
      <trkpt lat="49.83868" lon="2.40131">
        <ele>32.7</ele>
        <time>2021-07-11T13:52:03Z</time>
      </trkpt>
      <trkpt lat="49.83867" lon="2.40131">
        <ele>32.7</ele>
        <time>2021-07-11T13:52:04Z</time>
      </trkpt>
      <trkpt lat="49.83866" lon="2.40131">
        <ele>32.7</ele>
        <time>2021-07-11T13:52:05Z</time>
      </trkpt>
      <trkpt lat="49.83864" lon="2.40132">
        <ele>32.8</ele>
        <time>2021-07-11T13:52:06Z</time>
      </trkpt>
      <trkpt lat="49.83863" lon="2.40132">
        <ele>32.8</ele>
        <time>2021-07-11T13:52:08Z</time>
      </trkpt>
      <trkpt lat="49.83861" lon="2.40132">
        <ele>32.8</ele>
        <time>2021-07-11T13:52:09Z</time>
      </trkpt>
      <trkpt lat="49.8386" lon="2.40133">
        <ele>32.8</ele>
        <time>2021-07-11T13:52:10Z</time>
      </trkpt>
      <trkpt lat="49.83859" lon="2.40133">
        <ele>32.8</ele>
        <time>2021-07-11T13:52:11Z</time>
      </trkpt>
      <trkpt lat="49.83858" lon="2.40134">
        <ele>32.8</ele>
        <time>2021-07-11T13:52:12Z</time>
      </trkpt>
      <trkpt lat="49.83856" lon="2.40134">
        <ele>32.9</ele>
        <time>2021-07-11T13:52:13Z</time>
      </trkpt>
      <trkpt lat="49.83855" lon="2.40135">
        <ele>32.9</ele>
        <time>2021-07-11T13:52:14Z</time>
      </trkpt>
      <trkpt lat="49.83854" lon="2.40135">
        <ele>32.9</ele>
        <time>2021-07-11T13:52:15Z</time>
      </trkpt>
      <trkpt lat="49.83852" lon="2.40136">
        <ele>32.9</ele>
        <time>2021-07-11T13:52:17Z</time>
      </trkpt>
      <trkpt lat="49.83851" lon="2.40136">
        <ele>32.9</ele>
        <time>2021-07-11T13:52:18Z</time>
      </trkpt>
      <trkpt lat="49.83851" lon="2.40137">
        <ele>32.9</ele>
        <time>2021-07-11T13:52:19Z</time>
      </trkpt>
      <trkpt lat="49.83849" lon="2.40137">
        <ele>33</ele>
        <time>2021-07-11T13:52:20Z</time>
      </trkpt>
      <trkpt lat="49.83848" lon="2.40137">
        <ele>33</ele>
        <time>2021-07-11T13:52:21Z</time>
      </trkpt>
      <trkpt lat="49.83847" lon="2.40137">
        <ele>33</ele>
        <time>2021-07-11T13:52:22Z</time>
      </trkpt>
      <trkpt lat="49.83845" lon="2.40138">
        <ele>33</ele>
        <time>2021-07-11T13:52:23Z</time>
      </trkpt>
      <trkpt lat="49.83844" lon="2.40138">
        <ele>33</ele>
        <time>2021-07-11T13:52:24Z</time>
      </trkpt>
      <trkpt lat="49.83843" lon="2.40138">
        <ele>33</ele>
        <time>2021-07-11T13:52:25Z</time>
      </trkpt>
      <trkpt lat="49.83841" lon="2.40139">
        <ele>33.1</ele>
        <time>2021-07-11T13:52:27Z</time>
      </trkpt>
      <trkpt lat="49.83841" lon="2.40139">
        <ele>33.1</ele>
        <time>2021-07-11T13:52:28Z</time>
      </trkpt>
      <trkpt lat="49.8384" lon="2.40139">
        <ele>33.1</ele>
        <time>2021-07-11T13:52:29Z</time>
      </trkpt>
      <trkpt lat="49.83838" lon="2.4014">
        <ele>33.1</ele>
        <time>2021-07-11T13:52:30Z</time>
      </trkpt>
      <trkpt lat="49.83838" lon="2.40141">
        <ele>33.1</ele>
        <time>2021-07-11T13:52:31Z</time>
      </trkpt>
      <trkpt lat="49.83836" lon="2.40142">
        <ele>33.2</ele>
        <time>2021-07-11T13:52:32Z</time>
      </trkpt>
      <trkpt lat="49.83834" lon="2.40143">
        <ele>33.2</ele>
        <time>2021-07-11T13:52:33Z</time>
      </trkpt>
      <trkpt lat="49.83834" lon="2.40143">
        <ele>33.2</ele>
        <time>2021-07-11T13:52:34Z</time>
      </trkpt>
      <trkpt lat="49.83833" lon="2.40143">
        <ele>33.2</ele>
        <time>2021-07-11T13:52:35Z</time>
      </trkpt>
      <trkpt lat="49.8383" lon="2.40144">
        <ele>33.3</ele>
        <time>2021-07-11T13:52:36Z</time>
      </trkpt>
      <trkpt lat="49.8383" lon="2.40144">
        <ele>33.3</ele>
        <time>2021-07-11T13:52:38Z</time>
      </trkpt>
      <trkpt lat="49.83829" lon="2.40144">
        <ele>33.3</ele>
        <time>2021-07-11T13:52:39Z</time>
      </trkpt>
      <trkpt lat="49.83827" lon="2.40144">
        <ele>33.3</ele>
        <time>2021-07-11T13:52:40Z</time>
      </trkpt>
      <trkpt lat="49.83826" lon="2.40145">
        <ele>33.3</ele>
        <time>2021-07-11T13:52:41Z</time>
      </trkpt>
      <trkpt lat="49.83825" lon="2.40145">
        <ele>33.3</ele>
        <time>2021-07-11T13:52:42Z</time>
      </trkpt>
      <trkpt lat="49.83823" lon="2.40145">
        <ele>33.4</ele>
        <time>2021-07-11T13:52:43Z</time>
      </trkpt>
      <trkpt lat="49.83822" lon="2.40146">
        <ele>33.4</ele>
        <time>2021-07-11T13:52:44Z</time>
      </trkpt>
      <trkpt lat="49.83822" lon="2.40146">
        <ele>33.4</ele>
        <time>2021-07-11T13:52:45Z</time>
      </trkpt>
      <trkpt lat="49.8382" lon="2.40146">
        <ele>33.4</ele>
        <time>2021-07-11T13:52:46Z</time>
      </trkpt>
      <trkpt lat="49.83819" lon="2.40147">
        <ele>33.4</ele>
        <time>2021-07-11T13:52:48Z</time>
      </trkpt>
      <trkpt lat="49.83818" lon="2.40147">
        <ele>33.5</ele>
        <time>2021-07-11T13:52:49Z</time>
      </trkpt>
      <trkpt lat="49.83816" lon="2.40147">
        <ele>33.5</ele>
        <time>2021-07-11T13:52:50Z</time>
      </trkpt>
      <trkpt lat="49.83815" lon="2.40148">
        <ele>33.5</ele>
        <time>2021-07-11T13:52:51Z</time>
      </trkpt>
      <trkpt lat="49.83813" lon="2.40149">
        <ele>33.5</ele>
        <time>2021-07-11T13:52:53Z</time>
      </trkpt>
      <trkpt lat="49.83812" lon="2.40149">
        <ele>33.5</ele>
        <time>2021-07-11T13:52:54Z</time>
      </trkpt>
      <trkpt lat="49.83811" lon="2.4015">
        <ele>33.6</ele>
        <time>2021-07-11T13:52:55Z</time>
      </trkpt>
      <trkpt lat="49.83809" lon="2.40151">
        <ele>33.6</ele>
        <time>2021-07-11T13:52:56Z</time>
      </trkpt>
      <trkpt lat="49.83808" lon="2.40151">
        <ele>33.6</ele>
        <time>2021-07-11T13:52:57Z</time>
      </trkpt>
      <trkpt lat="49.83808" lon="2.40151">
        <ele>33.6</ele>
        <time>2021-07-11T13:52:58Z</time>
      </trkpt>
      <trkpt lat="49.83806" lon="2.40152">
        <ele>33.7</ele>
        <time>2021-07-11T13:52:59Z</time>
      </trkpt>
      <trkpt lat="49.83805" lon="2.40152">
        <ele>33.7</ele>
        <time>2021-07-11T13:53:00Z</time>
      </trkpt>
      <trkpt lat="49.83804" lon="2.40152">
        <ele>33.7</ele>
        <time>2021-07-11T13:53:01Z</time>
      </trkpt>
      <trkpt lat="49.83803" lon="2.40153">
        <ele>33.7</ele>
        <time>2021-07-11T13:53:03Z</time>
      </trkpt>
      <trkpt lat="49.83801" lon="2.40153">
        <ele>33.7</ele>
        <time>2021-07-11T13:53:04Z</time>
      </trkpt>
      <trkpt lat="49.83799" lon="2.40154">
        <ele>33.8</ele>
        <time>2021-07-11T13:53:05Z</time>
      </trkpt>
      <trkpt lat="49.83798" lon="2.40154">
        <ele>33.8</ele>
        <time>2021-07-11T13:53:06Z</time>
      </trkpt>
      <trkpt lat="49.83797" lon="2.40154">
        <ele>33.8</ele>
        <time>2021-07-11T13:53:07Z</time>
      </trkpt>
      <trkpt lat="49.83796" lon="2.40155">
        <ele>33.8</ele>
        <time>2021-07-11T13:53:08Z</time>
      </trkpt>
      <trkpt lat="49.83795" lon="2.40155">
        <ele>33.8</ele>
        <time>2021-07-11T13:53:09Z</time>
      </trkpt>
      <trkpt lat="49.83794" lon="2.40155">
        <ele>33.9</ele>
        <time>2021-07-11T13:53:10Z</time>
      </trkpt>
      <trkpt lat="49.83792" lon="2.40156">
        <ele>33.9</ele>
        <time>2021-07-11T13:53:12Z</time>
      </trkpt>
      <trkpt lat="49.83791" lon="2.40156">
        <ele>33.9</ele>
        <time>2021-07-11T13:53:13Z</time>
      </trkpt>
      <trkpt lat="49.83789" lon="2.40157">
        <ele>34</ele>
        <time>2021-07-11T13:53:14Z</time>
      </trkpt>
      <trkpt lat="49.83788" lon="2.40157">
        <ele>34</ele>
        <time>2021-07-11T13:53:15Z</time>
      </trkpt>
      <trkpt lat="49.83787" lon="2.40157">
        <ele>34</ele>
        <time>2021-07-11T13:53:16Z</time>
      </trkpt>
      <trkpt lat="49.83786" lon="2.40157">
        <ele>34</ele>
        <time>2021-07-11T13:53:17Z</time>
      </trkpt>
      <trkpt lat="49.83784" lon="2.40158">
        <ele>34.1</ele>
        <time>2021-07-11T13:53:18Z</time>
      </trkpt>
      <trkpt lat="49.83783" lon="2.40158">
        <ele>34.1</ele>
        <time>2021-07-11T13:53:20Z</time>
      </trkpt>
      <trkpt lat="49.83781" lon="2.40158">
        <ele>34.1</ele>
        <time>2021-07-11T13:53:21Z</time>
      </trkpt>
      <trkpt lat="49.8378" lon="2.40159">
        <ele>34.1</ele>
        <time>2021-07-11T13:53:22Z</time>
      </trkpt>
      <trkpt lat="49.83779" lon="2.40159">
        <ele>34.2</ele>
        <time>2021-07-11T13:53:23Z</time>
      </trkpt>
      <trkpt lat="49.83777" lon="2.4016">
        <ele>34.2</ele>
        <time>2021-07-11T13:53:24Z</time>
      </trkpt>
      <trkpt lat="49.83776" lon="2.4016">
        <ele>34.2</ele>
        <time>2021-07-11T13:53:25Z</time>
      </trkpt>
      <trkpt lat="49.83774" lon="2.4016">
        <ele>34.3</ele>
        <time>2021-07-11T13:53:26Z</time>
      </trkpt>
      <trkpt lat="49.83772" lon="2.40161">
        <ele>34.3</ele>
        <time>2021-07-11T13:53:27Z</time>
      </trkpt>
      <trkpt lat="49.83771" lon="2.40161">
        <ele>34.3</ele>
        <time>2021-07-11T13:53:29Z</time>
      </trkpt>
      <trkpt lat="49.8377" lon="2.40162">
        <ele>34.4</ele>
        <time>2021-07-11T13:53:30Z</time>
      </trkpt>
      <trkpt lat="49.83768" lon="2.40162">
        <ele>34.4</ele>
        <time>2021-07-11T13:53:31Z</time>
      </trkpt>
      <trkpt lat="49.83767" lon="2.40163">
        <ele>34.4</ele>
        <time>2021-07-11T13:53:32Z</time>
      </trkpt>
      <trkpt lat="49.83766" lon="2.40163">
        <ele>34.4</ele>
        <time>2021-07-11T13:53:33Z</time>
      </trkpt>
      <trkpt lat="49.83764" lon="2.40164">
        <ele>34.5</ele>
        <time>2021-07-11T13:53:34Z</time>
      </trkpt>
      <trkpt lat="49.83763" lon="2.40164">
        <ele>34.5</ele>
        <time>2021-07-11T13:53:35Z</time>
      </trkpt>
      <trkpt lat="49.83762" lon="2.40164">
        <ele>34.5</ele>
        <time>2021-07-11T13:53:36Z</time>
      </trkpt>
      <trkpt lat="49.83761" lon="2.40164">
        <ele>34.6</ele>
        <time>2021-07-11T13:53:37Z</time>
      </trkpt>
      <trkpt lat="49.8376" lon="2.40165">
        <ele>34.6</ele>
        <time>2021-07-11T13:53:39Z</time>
      </trkpt>
      <trkpt lat="49.83759" lon="2.40165">
        <ele>34.6</ele>
        <time>2021-07-11T13:53:40Z</time>
      </trkpt>
      <trkpt lat="49.83758" lon="2.40165">
        <ele>34.6</ele>
        <time>2021-07-11T13:53:41Z</time>
      </trkpt>
      <trkpt lat="49.83758" lon="2.40165">
        <ele>34.6</ele>
        <time>2021-07-11T13:53:42Z</time>
      </trkpt>
      <trkpt lat="49.83757" lon="2.40165">
        <ele>34.7</ele>
        <time>2021-07-11T13:53:43Z</time>
      </trkpt>
      <trkpt lat="49.83755" lon="2.40166">
        <ele>34.7</ele>
        <time>2021-07-11T13:53:44Z</time>
      </trkpt>
      <trkpt lat="49.83754" lon="2.40166">
        <ele>34.7</ele>
        <time>2021-07-11T13:53:45Z</time>
      </trkpt>
      <trkpt lat="49.83753" lon="2.40167">
        <ele>34.7</ele>
        <time>2021-07-11T13:53:46Z</time>
      </trkpt>
      <trkpt lat="49.83752" lon="2.40167">
        <ele>34.8</ele>
        <time>2021-07-11T13:53:48Z</time>
      </trkpt>
      <trkpt lat="49.8375" lon="2.40167">
        <ele>34.8</ele>
        <time>2021-07-11T13:53:49Z</time>
      </trkpt>
      <trkpt lat="49.83749" lon="2.40168">
        <ele>34.8</ele>
        <time>2021-07-11T13:53:50Z</time>
      </trkpt>
      <trkpt lat="49.83748" lon="2.40168">
        <ele>34.9</ele>
        <time>2021-07-11T13:53:51Z</time>
      </trkpt>
      <trkpt lat="49.83746" lon="2.40169">
        <ele>34.9</ele>
        <time>2021-07-11T13:53:52Z</time>
      </trkpt>
      <trkpt lat="49.83746" lon="2.40169">
        <ele>34.9</ele>
        <time>2021-07-11T13:53:53Z</time>
      </trkpt>
      <trkpt lat="49.83745" lon="2.40169">
        <ele>34.9</ele>
        <time>2021-07-11T13:53:54Z</time>
      </trkpt>
      <trkpt lat="49.83744" lon="2.40169">
        <ele>35</ele>
        <time>2021-07-11T13:53:55Z</time>
      </trkpt>
      <trkpt lat="49.83742" lon="2.4017">
        <ele>35</ele>
        <time>2021-07-11T13:53:56Z</time>
      </trkpt>
      <trkpt lat="49.83741" lon="2.4017">
        <ele>35</ele>
        <time>2021-07-11T13:53:58Z</time>
      </trkpt>
      <trkpt lat="49.8374" lon="2.4017">
        <ele>35</ele>
        <time>2021-07-11T13:53:59Z</time>
      </trkpt>
      <trkpt lat="49.83739" lon="2.40171">
        <ele>35</ele>
        <time>2021-07-11T13:54:00Z</time>
      </trkpt>
      <trkpt lat="49.83739" lon="2.40172">
        <ele>35.1</ele>
        <time>2021-07-11T13:54:01Z</time>
      </trkpt>
      <trkpt lat="49.83738" lon="2.40172">
        <ele>35.1</ele>
        <time>2021-07-11T13:54:02Z</time>
      </trkpt>
      <trkpt lat="49.83736" lon="2.40173">
        <ele>35.1</ele>
        <time>2021-07-11T13:54:03Z</time>
      </trkpt>
      <trkpt lat="49.83735" lon="2.40173">
        <ele>35.1</ele>
        <time>2021-07-11T13:54:04Z</time>
      </trkpt>
      <trkpt lat="49.83734" lon="2.40174">
        <ele>35.2</ele>
        <time>2021-07-11T13:54:05Z</time>
      </trkpt>
      <trkpt lat="49.83732" lon="2.40174">
        <ele>35.2</ele>
        <time>2021-07-11T13:54:07Z</time>
      </trkpt>
      <trkpt lat="49.83731" lon="2.40175">
        <ele>35.2</ele>
        <time>2021-07-11T13:54:08Z</time>
      </trkpt>
      <trkpt lat="49.8373" lon="2.40175">
        <ele>35.2</ele>
        <time>2021-07-11T13:54:09Z</time>
      </trkpt>
      <trkpt lat="49.83729" lon="2.40175">
        <ele>35.3</ele>
        <time>2021-07-11T13:54:10Z</time>
      </trkpt>
      <trkpt lat="49.83728" lon="2.40175">
        <ele>35.3</ele>
        <time>2021-07-11T13:54:11Z</time>
      </trkpt>
      <trkpt lat="49.83727" lon="2.40176">
        <ele>35.3</ele>
        <time>2021-07-11T13:54:12Z</time>
      </trkpt>
      <trkpt lat="49.83725" lon="2.40176">
        <ele>35.4</ele>
        <time>2021-07-11T13:54:13Z</time>
      </trkpt>
      <trkpt lat="49.83724" lon="2.40176">
        <ele>35.4</ele>
        <time>2021-07-11T13:54:15Z</time>
      </trkpt>
      <trkpt lat="49.83723" lon="2.40176">
        <ele>35.4</ele>
        <time>2021-07-11T13:54:16Z</time>
      </trkpt>
      <trkpt lat="49.83722" lon="2.40176">
        <ele>35.4</ele>
        <time>2021-07-11T13:54:17Z</time>
      </trkpt>
      <trkpt lat="49.8372" lon="2.40177">
        <ele>35.4</ele>
        <time>2021-07-11T13:54:18Z</time>
      </trkpt>
      <trkpt lat="49.83719" lon="2.40177">
        <ele>35.4</ele>
        <time>2021-07-11T13:54:20Z</time>
      </trkpt>
      <trkpt lat="49.83717" lon="2.40178">
        <ele>35.5</ele>
        <time>2021-07-11T13:54:21Z</time>
      </trkpt>
      <trkpt lat="49.83716" lon="2.40178">
        <ele>35.5</ele>
        <time>2021-07-11T13:54:22Z</time>
      </trkpt>
      <trkpt lat="49.83714" lon="2.40178">
        <ele>35.5</ele>
        <time>2021-07-11T13:54:23Z</time>
      </trkpt>
      <trkpt lat="49.83712" lon="2.40178">
        <ele>35.5</ele>
        <time>2021-07-11T13:54:24Z</time>
      </trkpt>
      <trkpt lat="49.83711" lon="2.40178">
        <ele>35.6</ele>
        <time>2021-07-11T13:54:25Z</time>
      </trkpt>
      <trkpt lat="49.83709" lon="2.40178">
        <ele>35.6</ele>
        <time>2021-07-11T13:54:26Z</time>
      </trkpt>
      <trkpt lat="49.83708" lon="2.40178">
        <ele>35.6</ele>
        <time>2021-07-11T13:54:27Z</time>
      </trkpt>
      <trkpt lat="49.83706" lon="2.40179">
        <ele>35.6</ele>
        <time>2021-07-11T13:54:28Z</time>
      </trkpt>
      <trkpt lat="49.83704" lon="2.40179">
        <ele>35.6</ele>
        <time>2021-07-11T13:54:30Z</time>
      </trkpt>
      <trkpt lat="49.83703" lon="2.40179">
        <ele>35.6</ele>
        <time>2021-07-11T13:54:31Z</time>
      </trkpt>
      <trkpt lat="49.83702" lon="2.40179">
        <ele>35.7</ele>
        <time>2021-07-11T13:54:32Z</time>
      </trkpt>
      <trkpt lat="49.83701" lon="2.4018">
        <ele>35.7</ele>
        <time>2021-07-11T13:54:33Z</time>
      </trkpt>
      <trkpt lat="49.837" lon="2.40181">
        <ele>35.7</ele>
        <time>2021-07-11T13:54:34Z</time>
      </trkpt>
      <trkpt lat="49.83698" lon="2.40181">
        <ele>35.7</ele>
        <time>2021-07-11T13:54:35Z</time>
      </trkpt>
      <trkpt lat="49.83697" lon="2.40181">
        <ele>35.7</ele>
        <time>2021-07-11T13:54:36Z</time>
      </trkpt>
      <trkpt lat="49.83694" lon="2.40181">
        <ele>35.7</ele>
        <time>2021-07-11T13:54:37Z</time>
      </trkpt>
      <trkpt lat="49.83693" lon="2.40181">
        <ele>35.7</ele>
        <time>2021-07-11T13:54:39Z</time>
      </trkpt>
      <trkpt lat="49.83692" lon="2.40182">
        <ele>35.7</ele>
        <time>2021-07-11T13:54:40Z</time>
      </trkpt>
      <trkpt lat="49.83691" lon="2.40182">
        <ele>35.7</ele>
        <time>2021-07-11T13:54:41Z</time>
      </trkpt>
      <trkpt lat="49.8369" lon="2.40182">
        <ele>35.7</ele>
        <time>2021-07-11T13:54:42Z</time>
      </trkpt>
      <trkpt lat="49.83689" lon="2.40182">
        <ele>35.7</ele>
        <time>2021-07-11T13:54:43Z</time>
      </trkpt>
      <trkpt lat="49.83688" lon="2.40182">
        <ele>35.7</ele>
        <time>2021-07-11T13:54:44Z</time>
      </trkpt>
      <trkpt lat="49.83687" lon="2.40182">
        <ele>35.7</ele>
        <time>2021-07-11T13:54:45Z</time>
      </trkpt>
      <trkpt lat="49.83686" lon="2.40182">
        <ele>35.7</ele>
        <time>2021-07-11T13:54:46Z</time>
      </trkpt>
      <trkpt lat="49.83685" lon="2.40183">
        <ele>35.7</ele>
        <time>2021-07-11T13:54:47Z</time>
      </trkpt>
      <trkpt lat="49.83684" lon="2.40183">
        <ele>35.7</ele>
        <time>2021-07-11T13:54:49Z</time>
      </trkpt>
      <trkpt lat="49.83683" lon="2.40183">
        <ele>35.7</ele>
        <time>2021-07-11T13:54:50Z</time>
      </trkpt>
      <trkpt lat="49.83682" lon="2.40183">
        <ele>35.7</ele>
        <time>2021-07-11T13:54:51Z</time>
      </trkpt>
      <trkpt lat="49.83682" lon="2.40183">
        <ele>35.7</ele>
        <time>2021-07-11T13:54:52Z</time>
      </trkpt>
      <trkpt lat="49.8368" lon="2.40183">
        <ele>35.7</ele>
        <time>2021-07-11T13:54:53Z</time>
      </trkpt>
      <trkpt lat="49.83679" lon="2.40183">
        <ele>35.7</ele>
        <time>2021-07-11T13:54:54Z</time>
      </trkpt>
      <trkpt lat="49.83678" lon="2.40182">
        <ele>35.7</ele>
        <time>2021-07-11T13:54:55Z</time>
      </trkpt>
      <trkpt lat="49.83677" lon="2.40182">
        <ele>35.7</ele>
        <time>2021-07-11T13:54:56Z</time>
      </trkpt>
      <trkpt lat="49.83676" lon="2.40181">
        <ele>35.7</ele>
        <time>2021-07-11T13:54:58Z</time>
      </trkpt>
      <trkpt lat="49.83675" lon="2.40181">
        <ele>35.7</ele>
        <time>2021-07-11T13:54:59Z</time>
      </trkpt>
      <trkpt lat="49.83674" lon="2.40181">
        <ele>35.7</ele>
        <time>2021-07-11T13:55:00Z</time>
      </trkpt>
      <trkpt lat="49.83673" lon="2.4018">
        <ele>35.7</ele>
        <time>2021-07-11T13:55:01Z</time>
      </trkpt>
      <trkpt lat="49.83672" lon="2.4018">
        <ele>35.7</ele>
        <time>2021-07-11T13:55:02Z</time>
      </trkpt>
      <trkpt lat="49.83671" lon="2.40179">
        <ele>35.7</ele>
        <time>2021-07-11T13:55:03Z</time>
      </trkpt>
      <trkpt lat="49.83669" lon="2.40178">
        <ele>35.7</ele>
        <time>2021-07-11T13:55:05Z</time>
      </trkpt>
      <trkpt lat="49.83668" lon="2.40178">
        <ele>35.7</ele>
        <time>2021-07-11T13:55:06Z</time>
      </trkpt>
      <trkpt lat="49.83667" lon="2.40177">
        <ele>35.7</ele>
        <time>2021-07-11T13:55:08Z</time>
      </trkpt>
      <trkpt lat="49.83665" lon="2.40176">
        <ele>35.7</ele>
        <time>2021-07-11T13:55:10Z</time>
      </trkpt>
      <trkpt lat="49.83665" lon="2.40176">
        <ele>35.7</ele>
        <time>2021-07-11T13:55:12Z</time>
      </trkpt>
      <trkpt lat="49.83666" lon="2.40176">
        <ele>35.7</ele>
        <time>2021-07-11T13:55:13Z</time>
      </trkpt>
      <trkpt lat="49.83666" lon="2.40176">
        <ele>35.7</ele>
        <time>2021-07-11T13:55:15Z</time>
      </trkpt>
      <trkpt lat="49.83666" lon="2.40175">
        <ele>35.7</ele>
        <time>2021-07-11T13:55:16Z</time>
      </trkpt>
      <trkpt lat="49.83666" lon="2.40175">
        <ele>35.7</ele>
        <time>2021-07-11T13:55:17Z</time>
      </trkpt>
      <trkpt lat="49.83665" lon="2.40175">
        <ele>35.7</ele>
        <time>2021-07-11T13:55:19Z</time>
      </trkpt>
      <trkpt lat="49.83665" lon="2.40175">
        <ele>35.7</ele>
        <time>2021-07-11T13:55:20Z</time>
      </trkpt>
      <trkpt lat="49.83665" lon="2.40176">
        <ele>35.7</ele>
        <time>2021-07-11T13:55:22Z</time>
      </trkpt>
      <trkpt lat="49.83665" lon="2.40176">
        <ele>35.7</ele>
        <time>2021-07-11T13:55:23Z</time>
      </trkpt>
      <trkpt lat="49.83665" lon="2.40176">
        <ele>35.6</ele>
        <time>2021-07-11T13:55:25Z</time>
      </trkpt>
      <trkpt lat="49.83665" lon="2.40176">
        <ele>35.6</ele>
        <time>2021-07-11T13:55:26Z</time>
      </trkpt>
      <trkpt lat="49.83664" lon="2.40176">
        <ele>35.6</ele>
        <time>2021-07-11T13:55:28Z</time>
      </trkpt>
      <trkpt lat="49.83663" lon="2.40177">
        <ele>35.6</ele>
        <time>2021-07-11T13:55:29Z</time>
      </trkpt>
      <trkpt lat="49.83662" lon="2.40177">
        <ele>35.6</ele>
        <time>2021-07-11T13:55:30Z</time>
      </trkpt>
      <trkpt lat="49.83661" lon="2.40177">
        <ele>35.6</ele>
        <time>2021-07-11T13:55:31Z</time>
      </trkpt>
      <trkpt lat="49.8366" lon="2.40177">
        <ele>35.6</ele>
        <time>2021-07-11T13:55:32Z</time>
      </trkpt>
      <trkpt lat="49.83659" lon="2.40178">
        <ele>35.6</ele>
        <time>2021-07-11T13:55:34Z</time>
      </trkpt>
      <trkpt lat="49.83656" lon="2.40178">
        <ele>35.6</ele>
        <time>2021-07-11T13:55:35Z</time>
      </trkpt>
      <trkpt lat="49.83655" lon="2.40178">
        <ele>35.6</ele>
        <time>2021-07-11T13:55:37Z</time>
      </trkpt>
      <trkpt lat="49.83654" lon="2.40178">
        <ele>35.6</ele>
        <time>2021-07-11T13:55:38Z</time>
      </trkpt>
      <trkpt lat="49.83653" lon="2.40178">
        <ele>35.6</ele>
        <time>2021-07-11T13:55:39Z</time>
      </trkpt>
      <trkpt lat="49.83651" lon="2.40178">
        <ele>35.6</ele>
        <time>2021-07-11T13:55:40Z</time>
      </trkpt>
      <trkpt lat="49.8365" lon="2.40178">
        <ele>35.6</ele>
        <time>2021-07-11T13:55:41Z</time>
      </trkpt>
      <trkpt lat="49.83649" lon="2.40177">
        <ele>35.6</ele>
        <time>2021-07-11T13:55:42Z</time>
      </trkpt>
      <trkpt lat="49.83647" lon="2.40177">
        <ele>35.6</ele>
        <time>2021-07-11T13:55:43Z</time>
      </trkpt>
      <trkpt lat="49.83646" lon="2.40176">
        <ele>35.6</ele>
        <time>2021-07-11T13:55:45Z</time>
      </trkpt>
      <trkpt lat="49.83645" lon="2.40176">
        <ele>35.6</ele>
        <time>2021-07-11T13:55:46Z</time>
      </trkpt>
      <trkpt lat="49.83644" lon="2.40175">
        <ele>35.6</ele>
        <time>2021-07-11T13:55:47Z</time>
      </trkpt>
      <trkpt lat="49.83643" lon="2.40175">
        <ele>35.6</ele>
        <time>2021-07-11T13:55:48Z</time>
      </trkpt>
      <trkpt lat="49.83642" lon="2.40174">
        <ele>35.5</ele>
        <time>2021-07-11T13:55:49Z</time>
      </trkpt>
      <trkpt lat="49.83641" lon="2.40174">
        <ele>35.5</ele>
        <time>2021-07-11T13:55:50Z</time>
      </trkpt>
      <trkpt lat="49.8364" lon="2.40173">
        <ele>35.5</ele>
        <time>2021-07-11T13:55:51Z</time>
      </trkpt>
      <trkpt lat="49.83639" lon="2.40173">
        <ele>35.5</ele>
        <time>2021-07-11T13:55:52Z</time>
      </trkpt>
      <trkpt lat="49.83638" lon="2.40172">
        <ele>35.5</ele>
        <time>2021-07-11T13:55:53Z</time>
      </trkpt>
      <trkpt lat="49.83637" lon="2.40172">
        <ele>35.5</ele>
        <time>2021-07-11T13:55:55Z</time>
      </trkpt>
      <trkpt lat="49.83636" lon="2.40172">
        <ele>35.5</ele>
        <time>2021-07-11T13:55:56Z</time>
      </trkpt>
      <trkpt lat="49.83634" lon="2.40171">
        <ele>35.5</ele>
        <time>2021-07-11T13:55:57Z</time>
      </trkpt>
      <trkpt lat="49.83633" lon="2.40171">
        <ele>35.5</ele>
        <time>2021-07-11T13:55:58Z</time>
      </trkpt>
      <trkpt lat="49.83632" lon="2.4017">
        <ele>35.5</ele>
        <time>2021-07-11T13:55:59Z</time>
      </trkpt>
      <trkpt lat="49.83631" lon="2.4017">
        <ele>35.5</ele>
        <time>2021-07-11T13:56:00Z</time>
      </trkpt>
      <trkpt lat="49.83629" lon="2.40169">
        <ele>35.5</ele>
        <time>2021-07-11T13:56:01Z</time>
      </trkpt>
      <trkpt lat="49.83628" lon="2.40169">
        <ele>35.5</ele>
        <time>2021-07-11T13:56:02Z</time>
      </trkpt>
      <trkpt lat="49.83627" lon="2.40168">
        <ele>35.5</ele>
        <time>2021-07-11T13:56:03Z</time>
      </trkpt>
      <trkpt lat="49.83625" lon="2.40168">
        <ele>35.5</ele>
        <time>2021-07-11T13:56:05Z</time>
      </trkpt>
      <trkpt lat="49.83624" lon="2.40167">
        <ele>35.5</ele>
        <time>2021-07-11T13:56:06Z</time>
      </trkpt>
      <trkpt lat="49.83622" lon="2.40167">
        <ele>35.5</ele>
        <time>2021-07-11T13:56:07Z</time>
      </trkpt>
      <trkpt lat="49.83621" lon="2.40166">
        <ele>35.5</ele>
        <time>2021-07-11T13:56:08Z</time>
      </trkpt>
      <trkpt lat="49.83619" lon="2.40166">
        <ele>35.4</ele>
        <time>2021-07-11T13:56:09Z</time>
      </trkpt>
      <trkpt lat="49.83618" lon="2.40165">
        <ele>35.4</ele>
        <time>2021-07-11T13:56:10Z</time>
      </trkpt>
      <trkpt lat="49.83617" lon="2.40165">
        <ele>35.4</ele>
        <time>2021-07-11T13:56:11Z</time>
      </trkpt>
      <trkpt lat="49.83615" lon="2.40165">
        <ele>35.4</ele>
        <time>2021-07-11T13:56:12Z</time>
      </trkpt>
      <trkpt lat="49.83614" lon="2.40165">
        <ele>35.4</ele>
        <time>2021-07-11T13:56:14Z</time>
      </trkpt>
      <trkpt lat="49.83613" lon="2.40165">
        <ele>35.4</ele>
        <time>2021-07-11T13:56:15Z</time>
      </trkpt>
      <trkpt lat="49.83612" lon="2.40166">
        <ele>35.4</ele>
        <time>2021-07-11T13:56:16Z</time>
      </trkpt>
      <trkpt lat="49.83611" lon="2.40166">
        <ele>35.4</ele>
        <time>2021-07-11T13:56:17Z</time>
      </trkpt>
      <trkpt lat="49.83609" lon="2.40166">
        <ele>35.4</ele>
        <time>2021-07-11T13:56:18Z</time>
      </trkpt>
      <trkpt lat="49.83608" lon="2.40165">
        <ele>35.4</ele>
        <time>2021-07-11T13:56:19Z</time>
      </trkpt>
      <trkpt lat="49.83607" lon="2.40165">
        <ele>35.4</ele>
        <time>2021-07-11T13:56:20Z</time>
      </trkpt>
      <trkpt lat="49.83606" lon="2.40165">
        <ele>35.4</ele>
        <time>2021-07-11T13:56:21Z</time>
      </trkpt>
      <trkpt lat="49.83604" lon="2.40165">
        <ele>35.4</ele>
        <time>2021-07-11T13:56:22Z</time>
      </trkpt>
      <trkpt lat="49.83603" lon="2.40164">
        <ele>35.4</ele>
        <time>2021-07-11T13:56:24Z</time>
      </trkpt>
      <trkpt lat="49.83601" lon="2.40164">
        <ele>35.4</ele>
        <time>2021-07-11T13:56:25Z</time>
      </trkpt>
      <trkpt lat="49.836" lon="2.40164">
        <ele>35.4</ele>
        <time>2021-07-11T13:56:26Z</time>
      </trkpt>
      <trkpt lat="49.836" lon="2.40164">
        <ele>35.4</ele>
        <time>2021-07-11T13:56:27Z</time>
      </trkpt>
      <trkpt lat="49.83598" lon="2.40164">
        <ele>35.4</ele>
        <time>2021-07-11T13:56:28Z</time>
      </trkpt>
      <trkpt lat="49.83597" lon="2.40164">
        <ele>35.4</ele>
        <time>2021-07-11T13:56:29Z</time>
      </trkpt>
      <trkpt lat="49.83595" lon="2.40164">
        <ele>35.4</ele>
        <time>2021-07-11T13:56:30Z</time>
      </trkpt>
      <trkpt lat="49.83594" lon="2.40165">
        <ele>35.4</ele>
        <time>2021-07-11T13:56:31Z</time>
      </trkpt>
      <trkpt lat="49.83593" lon="2.40165">
        <ele>35.4</ele>
        <time>2021-07-11T13:56:32Z</time>
      </trkpt>
      <trkpt lat="49.83592" lon="2.40165">
        <ele>35.4</ele>
        <time>2021-07-11T13:56:33Z</time>
      </trkpt>
      <trkpt lat="49.8359" lon="2.40165">
        <ele>35.4</ele>
        <time>2021-07-11T13:56:35Z</time>
      </trkpt>
      <trkpt lat="49.83588" lon="2.40166">
        <ele>35.4</ele>
        <time>2021-07-11T13:56:36Z</time>
      </trkpt>
      <trkpt lat="49.83587" lon="2.40166">
        <ele>35.4</ele>
        <time>2021-07-11T13:56:37Z</time>
      </trkpt>
      <trkpt lat="49.83587" lon="2.40166">
        <ele>35.4</ele>
        <time>2021-07-11T13:56:38Z</time>
      </trkpt>
      <trkpt lat="49.83585" lon="2.40167">
        <ele>35.4</ele>
        <time>2021-07-11T13:56:39Z</time>
      </trkpt>
      <trkpt lat="49.83584" lon="2.40167">
        <ele>35.4</ele>
        <time>2021-07-11T13:56:40Z</time>
      </trkpt>
      <trkpt lat="49.83583" lon="2.40167">
        <ele>35.4</ele>
        <time>2021-07-11T13:56:41Z</time>
      </trkpt>
      <trkpt lat="49.83582" lon="2.40168">
        <ele>35.4</ele>
        <time>2021-07-11T13:56:42Z</time>
      </trkpt>
      <trkpt lat="49.83581" lon="2.40168">
        <ele>35.4</ele>
        <time>2021-07-11T13:56:43Z</time>
      </trkpt>
      <trkpt lat="49.8358" lon="2.40169">
        <ele>35.4</ele>
        <time>2021-07-11T13:56:45Z</time>
      </trkpt>
      <trkpt lat="49.83578" lon="2.40169">
        <ele>35.4</ele>
        <time>2021-07-11T13:56:46Z</time>
      </trkpt>
      <trkpt lat="49.83577" lon="2.4017">
        <ele>35.4</ele>
        <time>2021-07-11T13:56:47Z</time>
      </trkpt>
      <trkpt lat="49.83576" lon="2.4017">
        <ele>35.4</ele>
        <time>2021-07-11T13:56:48Z</time>
      </trkpt>
      <trkpt lat="49.83575" lon="2.40171">
        <ele>35.4</ele>
        <time>2021-07-11T13:56:49Z</time>
      </trkpt>
      <trkpt lat="49.83574" lon="2.40172">
        <ele>35.4</ele>
        <time>2021-07-11T13:56:50Z</time>
      </trkpt>
      <trkpt lat="49.83573" lon="2.40172">
        <ele>35.4</ele>
        <time>2021-07-11T13:56:51Z</time>
      </trkpt>
      <trkpt lat="49.83572" lon="2.40172">
        <ele>35.4</ele>
        <time>2021-07-11T13:56:52Z</time>
      </trkpt>
      <trkpt lat="49.83571" lon="2.40172">
        <ele>35.4</ele>
        <time>2021-07-11T13:56:53Z</time>
      </trkpt>
      <trkpt lat="49.8357" lon="2.40172">
        <ele>35.4</ele>
        <time>2021-07-11T13:56:54Z</time>
      </trkpt>
      <trkpt lat="49.83569" lon="2.40173">
        <ele>35.4</ele>
        <time>2021-07-11T13:56:56Z</time>
      </trkpt>
      <trkpt lat="49.83568" lon="2.40173">
        <ele>35.4</ele>
        <time>2021-07-11T13:56:57Z</time>
      </trkpt>
      <trkpt lat="49.83567" lon="2.40173">
        <ele>35.4</ele>
        <time>2021-07-11T13:56:58Z</time>
      </trkpt>
      <trkpt lat="49.83566" lon="2.40173">
        <ele>35.4</ele>
        <time>2021-07-11T13:56:59Z</time>
      </trkpt>
      <trkpt lat="49.83564" lon="2.40174">
        <ele>35.4</ele>
        <time>2021-07-11T13:57:00Z</time>
      </trkpt>
      <trkpt lat="49.83562" lon="2.40174">
        <ele>35.4</ele>
        <time>2021-07-11T13:57:02Z</time>
      </trkpt>
      <trkpt lat="49.83561" lon="2.40174">
        <ele>35.4</ele>
        <time>2021-07-11T13:57:03Z</time>
      </trkpt>
      <trkpt lat="49.8356" lon="2.40174">
        <ele>35.4</ele>
        <time>2021-07-11T13:57:04Z</time>
      </trkpt>
      <trkpt lat="49.83559" lon="2.40174">
        <ele>35.4</ele>
        <time>2021-07-11T13:57:05Z</time>
      </trkpt>
      <trkpt lat="49.83557" lon="2.40174">
        <ele>35.4</ele>
        <time>2021-07-11T13:57:06Z</time>
      </trkpt>
      <trkpt lat="49.83556" lon="2.40175">
        <ele>35.4</ele>
        <time>2021-07-11T13:57:07Z</time>
      </trkpt>
      <trkpt lat="49.83555" lon="2.40175">
        <ele>35.4</ele>
        <time>2021-07-11T13:57:08Z</time>
      </trkpt>
      <trkpt lat="49.83554" lon="2.40175">
        <ele>35.4</ele>
        <time>2021-07-11T13:57:09Z</time>
      </trkpt>
      <trkpt lat="49.83552" lon="2.40176">
        <ele>35.4</ele>
        <time>2021-07-11T13:57:10Z</time>
      </trkpt>
      <trkpt lat="49.83551" lon="2.40176">
        <ele>35.4</ele>
        <time>2021-07-11T13:57:11Z</time>
      </trkpt>
      <trkpt lat="49.8355" lon="2.40176">
        <ele>35.4</ele>
        <time>2021-07-11T13:57:13Z</time>
      </trkpt>
      <trkpt lat="49.83548" lon="2.40177">
        <ele>35.4</ele>
        <time>2021-07-11T13:57:14Z</time>
      </trkpt>
      <trkpt lat="49.83547" lon="2.40177">
        <ele>35.4</ele>
        <time>2021-07-11T13:57:15Z</time>
      </trkpt>
      <trkpt lat="49.83546" lon="2.40177">
        <ele>35.4</ele>
        <time>2021-07-11T13:57:16Z</time>
      </trkpt>
      <trkpt lat="49.83545" lon="2.40178">
        <ele>35.4</ele>
        <time>2021-07-11T13:57:17Z</time>
      </trkpt>
      <trkpt lat="49.83544" lon="2.40178">
        <ele>35.4</ele>
        <time>2021-07-11T13:57:18Z</time>
      </trkpt>
      <trkpt lat="49.83543" lon="2.40179">
        <ele>35.4</ele>
        <time>2021-07-11T13:57:19Z</time>
      </trkpt>
      <trkpt lat="49.83541" lon="2.40179">
        <ele>35.4</ele>
        <time>2021-07-11T13:57:20Z</time>
      </trkpt>
      <trkpt lat="49.83539" lon="2.40181">
        <ele>35.4</ele>
        <time>2021-07-11T13:57:21Z</time>
      </trkpt>
      <trkpt lat="49.83538" lon="2.40181">
        <ele>35.4</ele>
        <time>2021-07-11T13:57:23Z</time>
      </trkpt>
      <trkpt lat="49.83537" lon="2.40181">
        <ele>35.4</ele>
        <time>2021-07-11T13:57:24Z</time>
      </trkpt>
      <trkpt lat="49.83536" lon="2.40182">
        <ele>35.3</ele>
        <time>2021-07-11T13:57:25Z</time>
      </trkpt>
      <trkpt lat="49.83535" lon="2.40183">
        <ele>35.3</ele>
        <time>2021-07-11T13:57:26Z</time>
      </trkpt>
      <trkpt lat="49.83534" lon="2.40183">
        <ele>35.3</ele>
        <time>2021-07-11T13:57:27Z</time>
      </trkpt>
      <trkpt lat="49.83532" lon="2.40183">
        <ele>35.3</ele>
        <time>2021-07-11T13:57:28Z</time>
      </trkpt>
      <trkpt lat="49.83531" lon="2.40183">
        <ele>35.3</ele>
        <time>2021-07-11T13:57:29Z</time>
      </trkpt>
      <trkpt lat="49.8353" lon="2.40184">
        <ele>35.3</ele>
        <time>2021-07-11T13:57:30Z</time>
      </trkpt>
      <trkpt lat="49.83529" lon="2.40184">
        <ele>35.3</ele>
        <time>2021-07-11T13:57:31Z</time>
      </trkpt>
      <trkpt lat="49.83527" lon="2.40184">
        <ele>35.3</ele>
        <time>2021-07-11T13:57:32Z</time>
      </trkpt>
      <trkpt lat="49.83525" lon="2.40185">
        <ele>35.3</ele>
        <time>2021-07-11T13:57:34Z</time>
      </trkpt>
      <trkpt lat="49.83524" lon="2.40185">
        <ele>35.3</ele>
        <time>2021-07-11T13:57:35Z</time>
      </trkpt>
      <trkpt lat="49.83523" lon="2.40185">
        <ele>35.3</ele>
        <time>2021-07-11T13:57:36Z</time>
      </trkpt>
      <trkpt lat="49.83521" lon="2.40186">
        <ele>35.3</ele>
        <time>2021-07-11T13:57:37Z</time>
      </trkpt>
      <trkpt lat="49.8352" lon="2.40186">
        <ele>35.3</ele>
        <time>2021-07-11T13:57:38Z</time>
      </trkpt>
      <trkpt lat="49.83519" lon="2.40186">
        <ele>35.3</ele>
        <time>2021-07-11T13:57:39Z</time>
      </trkpt>
      <trkpt lat="49.83518" lon="2.40187">
        <ele>35.3</ele>
        <time>2021-07-11T13:57:40Z</time>
      </trkpt>
      <trkpt lat="49.83517" lon="2.40187">
        <ele>35.3</ele>
        <time>2021-07-11T13:57:41Z</time>
      </trkpt>
      <trkpt lat="49.83515" lon="2.40188">
        <ele>35.3</ele>
        <time>2021-07-11T13:57:42Z</time>
      </trkpt>
      <trkpt lat="49.83514" lon="2.40188">
        <ele>35.3</ele>
        <time>2021-07-11T13:57:43Z</time>
      </trkpt>
      <trkpt lat="49.83513" lon="2.40189">
        <ele>35.3</ele>
        <time>2021-07-11T13:57:45Z</time>
      </trkpt>
      <trkpt lat="49.83511" lon="2.40189">
        <ele>35.3</ele>
        <time>2021-07-11T13:57:46Z</time>
      </trkpt>
      <trkpt lat="49.8351" lon="2.4019">
        <ele>35.3</ele>
        <time>2021-07-11T13:57:47Z</time>
      </trkpt>
      <trkpt lat="49.83508" lon="2.4019">
        <ele>35.3</ele>
        <time>2021-07-11T13:57:48Z</time>
      </trkpt>
      <trkpt lat="49.83506" lon="2.40191">
        <ele>35.3</ele>
        <time>2021-07-11T13:57:49Z</time>
      </trkpt>
      <trkpt lat="49.83506" lon="2.40191">
        <ele>35.3</ele>
        <time>2021-07-11T13:57:50Z</time>
      </trkpt>
      <trkpt lat="49.83505" lon="2.40191">
        <ele>35.3</ele>
        <time>2021-07-11T13:57:51Z</time>
      </trkpt>
      <trkpt lat="49.83503" lon="2.40192">
        <ele>35.3</ele>
        <time>2021-07-11T13:57:52Z</time>
      </trkpt>
      <trkpt lat="49.83502" lon="2.40192">
        <ele>35.3</ele>
        <time>2021-07-11T13:57:53Z</time>
      </trkpt>
      <trkpt lat="49.83499" lon="2.40193">
        <ele>35.3</ele>
        <time>2021-07-11T13:57:54Z</time>
      </trkpt>
      <trkpt lat="49.83499" lon="2.40194">
        <ele>35.3</ele>
        <time>2021-07-11T13:57:56Z</time>
      </trkpt>
      <trkpt lat="49.83498" lon="2.40194">
        <ele>35.3</ele>
        <time>2021-07-11T13:57:57Z</time>
      </trkpt>
      <trkpt lat="49.83497" lon="2.40195">
        <ele>35.3</ele>
        <time>2021-07-11T13:57:58Z</time>
      </trkpt>
      <trkpt lat="49.83496" lon="2.40195">
        <ele>35.3</ele>
        <time>2021-07-11T13:57:59Z</time>
      </trkpt>
      <trkpt lat="49.83495" lon="2.40196">
        <ele>35.3</ele>
        <time>2021-07-11T13:58:00Z</time>
      </trkpt>
      <trkpt lat="49.83494" lon="2.40197">
        <ele>35.3</ele>
        <time>2021-07-11T13:58:01Z</time>
      </trkpt>
      <trkpt lat="49.83493" lon="2.40198">
        <ele>35.3</ele>
        <time>2021-07-11T13:58:02Z</time>
      </trkpt>
      <trkpt lat="49.83492" lon="2.40198">
        <ele>35.3</ele>
        <time>2021-07-11T13:58:03Z</time>
      </trkpt>
      <trkpt lat="49.83491" lon="2.40199">
        <ele>35.3</ele>
        <time>2021-07-11T13:58:05Z</time>
      </trkpt>
      <trkpt lat="49.8349" lon="2.402">
        <ele>35.3</ele>
        <time>2021-07-11T13:58:06Z</time>
      </trkpt>
      <trkpt lat="49.83488" lon="2.40201">
        <ele>35.3</ele>
        <time>2021-07-11T13:58:08Z</time>
      </trkpt>
      <trkpt lat="49.83487" lon="2.40201">
        <ele>35.3</ele>
        <time>2021-07-11T13:58:09Z</time>
      </trkpt>
      <trkpt lat="49.83486" lon="2.40201">
        <ele>35.3</ele>
        <time>2021-07-11T13:58:10Z</time>
      </trkpt>
      <trkpt lat="49.83485" lon="2.40201">
        <ele>35.3</ele>
        <time>2021-07-11T13:58:11Z</time>
      </trkpt>
      <trkpt lat="49.83484" lon="2.40201">
        <ele>35.3</ele>
        <time>2021-07-11T13:58:12Z</time>
      </trkpt>
      <trkpt lat="49.83482" lon="2.40201">
        <ele>35.3</ele>
        <time>2021-07-11T13:58:13Z</time>
      </trkpt>
      <trkpt lat="49.83481" lon="2.40201">
        <ele>35.3</ele>
        <time>2021-07-11T13:58:14Z</time>
      </trkpt>
      <trkpt lat="49.8348" lon="2.40202">
        <ele>35.3</ele>
        <time>2021-07-11T13:58:15Z</time>
      </trkpt>
      <trkpt lat="49.83478" lon="2.40202">
        <ele>35.3</ele>
        <time>2021-07-11T13:58:16Z</time>
      </trkpt>
      <trkpt lat="49.83477" lon="2.40202">
        <ele>35.3</ele>
        <time>2021-07-11T13:58:18Z</time>
      </trkpt>
      <trkpt lat="49.83476" lon="2.40203">
        <ele>35.3</ele>
        <time>2021-07-11T13:58:19Z</time>
      </trkpt>
      <trkpt lat="49.83475" lon="2.40203">
        <ele>35.3</ele>
        <time>2021-07-11T13:58:20Z</time>
      </trkpt>
      <trkpt lat="49.83474" lon="2.40203">
        <ele>35.3</ele>
        <time>2021-07-11T13:58:21Z</time>
      </trkpt>
      <trkpt lat="49.83473" lon="2.40204">
        <ele>35.3</ele>
        <time>2021-07-11T13:58:22Z</time>
      </trkpt>
      <trkpt lat="49.83471" lon="2.40205">
        <ele>35.3</ele>
        <time>2021-07-11T13:58:23Z</time>
      </trkpt>
      <trkpt lat="49.8347" lon="2.40205">
        <ele>35.3</ele>
        <time>2021-07-11T13:58:24Z</time>
      </trkpt>
      <trkpt lat="49.8347" lon="2.40205">
        <ele>35.3</ele>
        <time>2021-07-11T13:58:25Z</time>
      </trkpt>
      <trkpt lat="49.83468" lon="2.40206">
        <ele>35.3</ele>
        <time>2021-07-11T13:58:26Z</time>
      </trkpt>
      <trkpt lat="49.83467" lon="2.40206">
        <ele>35.3</ele>
        <time>2021-07-11T13:58:27Z</time>
      </trkpt>
      <trkpt lat="49.83466" lon="2.40207">
        <ele>35.3</ele>
        <time>2021-07-11T13:58:29Z</time>
      </trkpt>
      <trkpt lat="49.83464" lon="2.40207">
        <ele>35.3</ele>
        <time>2021-07-11T13:58:30Z</time>
      </trkpt>
      <trkpt lat="49.83463" lon="2.40207">
        <ele>35.3</ele>
        <time>2021-07-11T13:58:31Z</time>
      </trkpt>
      <trkpt lat="49.83462" lon="2.40208">
        <ele>35.3</ele>
        <time>2021-07-11T13:58:32Z</time>
      </trkpt>
      <trkpt lat="49.83461" lon="2.40208">
        <ele>35.3</ele>
        <time>2021-07-11T13:58:33Z</time>
      </trkpt>
      <trkpt lat="49.8346" lon="2.40208">
        <ele>35.3</ele>
        <time>2021-07-11T13:58:34Z</time>
      </trkpt>
      <trkpt lat="49.83458" lon="2.40209">
        <ele>35.3</ele>
        <time>2021-07-11T13:58:35Z</time>
      </trkpt>
      <trkpt lat="49.83457" lon="2.40209">
        <ele>35.3</ele>
        <time>2021-07-11T13:58:36Z</time>
      </trkpt>
      <trkpt lat="49.83455" lon="2.4021">
        <ele>35.3</ele>
        <time>2021-07-11T13:58:37Z</time>
      </trkpt>
      <trkpt lat="49.83454" lon="2.40211">
        <ele>35.3</ele>
        <time>2021-07-11T13:58:39Z</time>
      </trkpt>
      <trkpt lat="49.83453" lon="2.40212">
        <ele>35.3</ele>
        <time>2021-07-11T13:58:40Z</time>
      </trkpt>
      <trkpt lat="49.83451" lon="2.40212">
        <ele>35.3</ele>
        <time>2021-07-11T13:58:41Z</time>
      </trkpt>
      <trkpt lat="49.83449" lon="2.40213">
        <ele>35.3</ele>
        <time>2021-07-11T13:58:42Z</time>
      </trkpt>
      <trkpt lat="49.83448" lon="2.40213">
        <ele>35.3</ele>
        <time>2021-07-11T13:58:43Z</time>
      </trkpt>
      <trkpt lat="49.83447" lon="2.40213">
        <ele>35.3</ele>
        <time>2021-07-11T13:58:44Z</time>
      </trkpt>
      <trkpt lat="49.83446" lon="2.40214">
        <ele>35.3</ele>
        <time>2021-07-11T13:58:45Z</time>
      </trkpt>
      <trkpt lat="49.83445" lon="2.40214">
        <ele>35.3</ele>
        <time>2021-07-11T13:58:46Z</time>
      </trkpt>
      <trkpt lat="49.83442" lon="2.40215">
        <ele>35.3</ele>
        <time>2021-07-11T13:58:47Z</time>
      </trkpt>
      <trkpt lat="49.83441" lon="2.40215">
        <ele>35.3</ele>
        <time>2021-07-11T13:58:49Z</time>
      </trkpt>
      <trkpt lat="49.8344" lon="2.40216">
        <ele>35.3</ele>
        <time>2021-07-11T13:58:50Z</time>
      </trkpt>
      <trkpt lat="49.83439" lon="2.40216">
        <ele>35.3</ele>
        <time>2021-07-11T13:58:51Z</time>
      </trkpt>
      <trkpt lat="49.83438" lon="2.40217">
        <ele>35.3</ele>
        <time>2021-07-11T13:58:52Z</time>
      </trkpt>
      <trkpt lat="49.83436" lon="2.40218">
        <ele>35.4</ele>
        <time>2021-07-11T13:58:53Z</time>
      </trkpt>
      <trkpt lat="49.83435" lon="2.40218">
        <ele>35.4</ele>
        <time>2021-07-11T13:58:55Z</time>
      </trkpt>
      <trkpt lat="49.83434" lon="2.40219">
        <ele>35.4</ele>
        <time>2021-07-11T13:58:56Z</time>
      </trkpt>
      <trkpt lat="49.83432" lon="2.4022">
        <ele>35.4</ele>
        <time>2021-07-11T13:58:57Z</time>
      </trkpt>
      <trkpt lat="49.83431" lon="2.4022">
        <ele>35.4</ele>
        <time>2021-07-11T13:58:58Z</time>
      </trkpt>
      <trkpt lat="49.83431" lon="2.4022">
        <ele>35.4</ele>
        <time>2021-07-11T13:58:59Z</time>
      </trkpt>
      <trkpt lat="49.83429" lon="2.40221">
        <ele>35.4</ele>
        <time>2021-07-11T13:59:00Z</time>
      </trkpt>
      <trkpt lat="49.83428" lon="2.40222">
        <ele>35.4</ele>
        <time>2021-07-11T13:59:01Z</time>
      </trkpt>
      <trkpt lat="49.83427" lon="2.40222">
        <ele>35.4</ele>
        <time>2021-07-11T13:59:02Z</time>
      </trkpt>
      <trkpt lat="49.83425" lon="2.40223">
        <ele>35.4</ele>
        <time>2021-07-11T13:59:03Z</time>
      </trkpt>
      <trkpt lat="49.83424" lon="2.40223">
        <ele>35.4</ele>
        <time>2021-07-11T13:59:04Z</time>
      </trkpt>
      <trkpt lat="49.83423" lon="2.40223">
        <ele>35.4</ele>
        <time>2021-07-11T13:59:06Z</time>
      </trkpt>
      <trkpt lat="49.83422" lon="2.40224">
        <ele>35.4</ele>
        <time>2021-07-11T13:59:07Z</time>
      </trkpt>
      <trkpt lat="49.83421" lon="2.40224">
        <ele>35.4</ele>
        <time>2021-07-11T13:59:08Z</time>
      </trkpt>
      <trkpt lat="49.8342" lon="2.40224">
        <ele>35.4</ele>
        <time>2021-07-11T13:59:09Z</time>
      </trkpt>
      <trkpt lat="49.83418" lon="2.40225">
        <ele>35.5</ele>
        <time>2021-07-11T13:59:10Z</time>
      </trkpt>
      <trkpt lat="49.83417" lon="2.40225">
        <ele>35.5</ele>
        <time>2021-07-11T13:59:11Z</time>
      </trkpt>
      <trkpt lat="49.83416" lon="2.40225">
        <ele>35.5</ele>
        <time>2021-07-11T13:59:12Z</time>
      </trkpt>
      <trkpt lat="49.83415" lon="2.40226">
        <ele>35.5</ele>
        <time>2021-07-11T13:59:13Z</time>
      </trkpt>
      <trkpt lat="49.83414" lon="2.40227">
        <ele>35.5</ele>
        <time>2021-07-11T13:59:14Z</time>
      </trkpt>
      <trkpt lat="49.83413" lon="2.40228">
        <ele>35.5</ele>
        <time>2021-07-11T13:59:15Z</time>
      </trkpt>
      <trkpt lat="49.83411" lon="2.40229">
        <ele>35.5</ele>
        <time>2021-07-11T13:59:16Z</time>
      </trkpt>
      <trkpt lat="49.8341" lon="2.40229">
        <ele>35.5</ele>
        <time>2021-07-11T13:59:18Z</time>
      </trkpt>
      <trkpt lat="49.83409" lon="2.4023">
        <ele>35.5</ele>
        <time>2021-07-11T13:59:19Z</time>
      </trkpt>
      <trkpt lat="49.83407" lon="2.40231">
        <ele>35.5</ele>
        <time>2021-07-11T13:59:20Z</time>
      </trkpt>
      <trkpt lat="49.83406" lon="2.40232">
        <ele>35.5</ele>
        <time>2021-07-11T13:59:21Z</time>
      </trkpt>
      <trkpt lat="49.83405" lon="2.40232">
        <ele>35.5</ele>
        <time>2021-07-11T13:59:22Z</time>
      </trkpt>
      <trkpt lat="49.83403" lon="2.40234">
        <ele>35.6</ele>
        <time>2021-07-11T13:59:23Z</time>
      </trkpt>
      <trkpt lat="49.83403" lon="2.40234">
        <ele>35.6</ele>
        <time>2021-07-11T13:59:24Z</time>
      </trkpt>
      <trkpt lat="49.83402" lon="2.40235">
        <ele>35.6</ele>
        <time>2021-07-11T13:59:25Z</time>
      </trkpt>
      <trkpt lat="49.83401" lon="2.40235">
        <ele>35.6</ele>
        <time>2021-07-11T13:59:26Z</time>
      </trkpt>
      <trkpt lat="49.834" lon="2.40236">
        <ele>35.6</ele>
        <time>2021-07-11T13:59:28Z</time>
      </trkpt>
      <trkpt lat="49.83399" lon="2.40237">
        <ele>35.6</ele>
        <time>2021-07-11T13:59:29Z</time>
      </trkpt>
      <trkpt lat="49.83398" lon="2.40238">
        <ele>35.6</ele>
        <time>2021-07-11T13:59:30Z</time>
      </trkpt>
      <trkpt lat="49.83396" lon="2.4024">
        <ele>35.6</ele>
        <time>2021-07-11T13:59:31Z</time>
      </trkpt>
      <trkpt lat="49.83394" lon="2.40241">
        <ele>35.6</ele>
        <time>2021-07-11T13:59:32Z</time>
      </trkpt>
      <trkpt lat="49.83394" lon="2.40241">
        <ele>35.6</ele>
        <time>2021-07-11T13:59:33Z</time>
      </trkpt>
      <trkpt lat="49.83393" lon="2.40242">
        <ele>35.6</ele>
        <time>2021-07-11T13:59:34Z</time>
      </trkpt>
      <trkpt lat="49.83391" lon="2.40242">
        <ele>35.6</ele>
        <time>2021-07-11T13:59:35Z</time>
      </trkpt>
      <trkpt lat="49.8339" lon="2.40243">
        <ele>35.6</ele>
        <time>2021-07-11T13:59:36Z</time>
      </trkpt>
      <trkpt lat="49.83389" lon="2.40243">
        <ele>35.6</ele>
        <time>2021-07-11T13:59:38Z</time>
      </trkpt>
      <trkpt lat="49.83387" lon="2.40245">
        <ele>35.6</ele>
        <time>2021-07-11T13:59:39Z</time>
      </trkpt>
      <trkpt lat="49.83386" lon="2.40245">
        <ele>35.6</ele>
        <time>2021-07-11T13:59:40Z</time>
      </trkpt>
      <trkpt lat="49.83385" lon="2.40245">
        <ele>35.6</ele>
        <time>2021-07-11T13:59:41Z</time>
      </trkpt>
      <trkpt lat="49.83384" lon="2.40246">
        <ele>35.6</ele>
        <time>2021-07-11T13:59:42Z</time>
      </trkpt>
      <trkpt lat="49.83383" lon="2.40246">
        <ele>35.6</ele>
        <time>2021-07-11T13:59:43Z</time>
      </trkpt>
      <trkpt lat="49.83381" lon="2.40247">
        <ele>35.6</ele>
        <time>2021-07-11T13:59:44Z</time>
      </trkpt>
      <trkpt lat="49.8338" lon="2.40247">
        <ele>35.6</ele>
        <time>2021-07-11T13:59:45Z</time>
      </trkpt>
      <trkpt lat="49.83379" lon="2.40248">
        <ele>35.6</ele>
        <time>2021-07-11T13:59:46Z</time>
      </trkpt>
      <trkpt lat="49.83378" lon="2.40248">
        <ele>35.6</ele>
        <time>2021-07-11T13:59:48Z</time>
      </trkpt>
      <trkpt lat="49.83376" lon="2.40249">
        <ele>35.6</ele>
        <time>2021-07-11T13:59:49Z</time>
      </trkpt>
      <trkpt lat="49.83374" lon="2.4025">
        <ele>35.6</ele>
        <time>2021-07-11T13:59:50Z</time>
      </trkpt>
      <trkpt lat="49.83374" lon="2.4025">
        <ele>35.6</ele>
        <time>2021-07-11T13:59:51Z</time>
      </trkpt>
      <trkpt lat="49.83373" lon="2.40251">
        <ele>35.6</ele>
        <time>2021-07-11T13:59:52Z</time>
      </trkpt>
      <trkpt lat="49.83371" lon="2.40251">
        <ele>35.6</ele>
        <time>2021-07-11T13:59:53Z</time>
      </trkpt>
      <trkpt lat="49.8337" lon="2.40252">
        <ele>35.6</ele>
        <time>2021-07-11T13:59:54Z</time>
      </trkpt>
      <trkpt lat="49.83369" lon="2.40253">
        <ele>35.6</ele>
        <time>2021-07-11T13:59:55Z</time>
      </trkpt>
      <trkpt lat="49.83368" lon="2.40253">
        <ele>35.7</ele>
        <time>2021-07-11T13:59:57Z</time>
      </trkpt>
      <trkpt lat="49.83367" lon="2.40254">
        <ele>35.7</ele>
        <time>2021-07-11T13:59:58Z</time>
      </trkpt>
      <trkpt lat="49.83365" lon="2.40255">
        <ele>35.7</ele>
        <time>2021-07-11T13:59:59Z</time>
      </trkpt>
      <trkpt lat="49.83364" lon="2.40256">
        <ele>35.7</ele>
        <time>2021-07-11T14:00:00Z</time>
      </trkpt>
      <trkpt lat="49.83363" lon="2.40256">
        <ele>35.7</ele>
        <time>2021-07-11T14:00:01Z</time>
      </trkpt>
      <trkpt lat="49.83362" lon="2.40257">
        <ele>35.7</ele>
        <time>2021-07-11T14:00:02Z</time>
      </trkpt>
      <trkpt lat="49.8336" lon="2.40258">
        <ele>35.7</ele>
        <time>2021-07-11T14:00:03Z</time>
      </trkpt>
      <trkpt lat="49.83358" lon="2.40259">
        <ele>35.7</ele>
        <time>2021-07-11T14:00:04Z</time>
      </trkpt>
      <trkpt lat="49.83358" lon="2.40259">
        <ele>35.7</ele>
        <time>2021-07-11T14:00:06Z</time>
      </trkpt>
      <trkpt lat="49.83357" lon="2.4026">
        <ele>35.7</ele>
        <time>2021-07-11T14:00:07Z</time>
      </trkpt>
      <trkpt lat="49.83355" lon="2.4026">
        <ele>35.8</ele>
        <time>2021-07-11T14:00:08Z</time>
      </trkpt>
      <trkpt lat="49.83354" lon="2.40261">
        <ele>35.8</ele>
        <time>2021-07-11T14:00:09Z</time>
      </trkpt>
      <trkpt lat="49.83353" lon="2.40261">
        <ele>35.8</ele>
        <time>2021-07-11T14:00:10Z</time>
      </trkpt>
      <trkpt lat="49.83352" lon="2.40261">
        <ele>35.8</ele>
        <time>2021-07-11T14:00:11Z</time>
      </trkpt>
      <trkpt lat="49.8335" lon="2.40262">
        <ele>35.8</ele>
        <time>2021-07-11T14:00:12Z</time>
      </trkpt>
      <trkpt lat="49.83349" lon="2.40262">
        <ele>35.8</ele>
        <time>2021-07-11T14:00:13Z</time>
      </trkpt>
      <trkpt lat="49.83348" lon="2.40263">
        <ele>35.8</ele>
        <time>2021-07-11T14:00:14Z</time>
      </trkpt>
      <trkpt lat="49.83347" lon="2.40264">
        <ele>35.8</ele>
        <time>2021-07-11T14:00:15Z</time>
      </trkpt>
      <trkpt lat="49.83345" lon="2.40265">
        <ele>35.8</ele>
        <time>2021-07-11T14:00:17Z</time>
      </trkpt>
      <trkpt lat="49.83345" lon="2.40266">
        <ele>35.8</ele>
        <time>2021-07-11T14:00:18Z</time>
      </trkpt>
      <trkpt lat="49.83344" lon="2.40267">
        <ele>35.8</ele>
        <time>2021-07-11T14:00:19Z</time>
      </trkpt>
      <trkpt lat="49.83342" lon="2.40268">
        <ele>35.9</ele>
        <time>2021-07-11T14:00:20Z</time>
      </trkpt>
      <trkpt lat="49.83341" lon="2.40268">
        <ele>35.9</ele>
        <time>2021-07-11T14:00:21Z</time>
      </trkpt>
      <trkpt lat="49.8334" lon="2.40269">
        <ele>35.9</ele>
        <time>2021-07-11T14:00:22Z</time>
      </trkpt>
      <trkpt lat="49.83339" lon="2.4027">
        <ele>35.9</ele>
        <time>2021-07-11T14:00:23Z</time>
      </trkpt>
      <trkpt lat="49.83339" lon="2.4027">
        <ele>35.9</ele>
        <time>2021-07-11T14:00:24Z</time>
      </trkpt>
      <trkpt lat="49.83338" lon="2.40271">
        <ele>35.9</ele>
        <time>2021-07-11T14:00:26Z</time>
      </trkpt>
      <trkpt lat="49.83337" lon="2.40271">
        <ele>35.9</ele>
        <time>2021-07-11T14:00:27Z</time>
      </trkpt>
      <trkpt lat="49.83336" lon="2.40272">
        <ele>35.9</ele>
        <time>2021-07-11T14:00:28Z</time>
      </trkpt>
      <trkpt lat="49.83335" lon="2.40272">
        <ele>35.9</ele>
        <time>2021-07-11T14:00:29Z</time>
      </trkpt>
      <trkpt lat="49.83333" lon="2.40274">
        <ele>35.9</ele>
        <time>2021-07-11T14:00:30Z</time>
      </trkpt>
      <trkpt lat="49.83332" lon="2.40274">
        <ele>35.9</ele>
        <time>2021-07-11T14:00:31Z</time>
      </trkpt>
      <trkpt lat="49.83331" lon="2.40275">
        <ele>35.9</ele>
        <time>2021-07-11T14:00:32Z</time>
      </trkpt>
      <trkpt lat="49.83329" lon="2.40276">
        <ele>35.9</ele>
        <time>2021-07-11T14:00:33Z</time>
      </trkpt>
      <trkpt lat="49.83328" lon="2.40277">
        <ele>35.9</ele>
        <time>2021-07-11T14:00:34Z</time>
      </trkpt>
      <trkpt lat="49.83327" lon="2.40277">
        <ele>35.9</ele>
        <time>2021-07-11T14:00:36Z</time>
      </trkpt>
      <trkpt lat="49.83327" lon="2.40278">
        <ele>35.9</ele>
        <time>2021-07-11T14:00:37Z</time>
      </trkpt>
      <trkpt lat="49.83326" lon="2.40278">
        <ele>35.9</ele>
        <time>2021-07-11T14:00:38Z</time>
      </trkpt>
      <trkpt lat="49.83325" lon="2.40279">
        <ele>35.9</ele>
        <time>2021-07-11T14:00:39Z</time>
      </trkpt>
      <trkpt lat="49.83323" lon="2.4028">
        <ele>36</ele>
        <time>2021-07-11T14:00:40Z</time>
      </trkpt>
      <trkpt lat="49.83322" lon="2.4028">
        <ele>36</ele>
        <time>2021-07-11T14:00:41Z</time>
      </trkpt>
      <trkpt lat="49.83321" lon="2.40281">
        <ele>36</ele>
        <time>2021-07-11T14:00:42Z</time>
      </trkpt>
      <trkpt lat="49.83319" lon="2.40282">
        <ele>36</ele>
        <time>2021-07-11T14:00:43Z</time>
      </trkpt>
      <trkpt lat="49.83318" lon="2.40282">
        <ele>36</ele>
        <time>2021-07-11T14:00:44Z</time>
      </trkpt>
      <trkpt lat="49.83317" lon="2.40283">
        <ele>36</ele>
        <time>2021-07-11T14:00:46Z</time>
      </trkpt>
      <trkpt lat="49.83316" lon="2.40283">
        <ele>36</ele>
        <time>2021-07-11T14:00:47Z</time>
      </trkpt>
      <trkpt lat="49.83315" lon="2.40283">
        <ele>36</ele>
        <time>2021-07-11T14:00:48Z</time>
      </trkpt>
      <trkpt lat="49.83314" lon="2.40284">
        <ele>36</ele>
        <time>2021-07-11T14:00:49Z</time>
      </trkpt>
      <trkpt lat="49.83312" lon="2.40285">
        <ele>36</ele>
        <time>2021-07-11T14:00:50Z</time>
      </trkpt>
      <trkpt lat="49.83311" lon="2.40285">
        <ele>36</ele>
        <time>2021-07-11T14:00:51Z</time>
      </trkpt>
      <trkpt lat="49.83311" lon="2.40286">
        <ele>36</ele>
        <time>2021-07-11T14:00:52Z</time>
      </trkpt>
      <trkpt lat="49.83308" lon="2.40287">
        <ele>36</ele>
        <time>2021-07-11T14:00:53Z</time>
      </trkpt>
      <trkpt lat="49.83307" lon="2.40288">
        <ele>36</ele>
        <time>2021-07-11T14:00:54Z</time>
      </trkpt>
      <trkpt lat="49.83307" lon="2.40288">
        <ele>36</ele>
        <time>2021-07-11T14:00:56Z</time>
      </trkpt>
      <trkpt lat="49.83306" lon="2.40289">
        <ele>36</ele>
        <time>2021-07-11T14:00:57Z</time>
      </trkpt>
      <trkpt lat="49.83305" lon="2.40289">
        <ele>36</ele>
        <time>2021-07-11T14:00:58Z</time>
      </trkpt>
      <trkpt lat="49.83304" lon="2.4029">
        <ele>36</ele>
        <time>2021-07-11T14:00:59Z</time>
      </trkpt>
      <trkpt lat="49.83302" lon="2.4029">
        <ele>36</ele>
        <time>2021-07-11T14:01:00Z</time>
      </trkpt>
      <trkpt lat="49.83301" lon="2.40291">
        <ele>36</ele>
        <time>2021-07-11T14:01:01Z</time>
      </trkpt>
      <trkpt lat="49.833" lon="2.40291">
        <ele>36</ele>
        <time>2021-07-11T14:01:02Z</time>
      </trkpt>
      <trkpt lat="49.83299" lon="2.40292">
        <ele>36.1</ele>
        <time>2021-07-11T14:01:03Z</time>
      </trkpt>
      <trkpt lat="49.83298" lon="2.40292">
        <ele>36.1</ele>
        <time>2021-07-11T14:01:04Z</time>
      </trkpt>
      <trkpt lat="49.83297" lon="2.40293">
        <ele>36.1</ele>
        <time>2021-07-11T14:01:05Z</time>
      </trkpt>
      <trkpt lat="49.83295" lon="2.40294">
        <ele>36.1</ele>
        <time>2021-07-11T14:01:07Z</time>
      </trkpt>
      <trkpt lat="49.83294" lon="2.40295">
        <ele>36.1</ele>
        <time>2021-07-11T14:01:08Z</time>
      </trkpt>
      <trkpt lat="49.83293" lon="2.40295">
        <ele>36.1</ele>
        <time>2021-07-11T14:01:09Z</time>
      </trkpt>
      <trkpt lat="49.83291" lon="2.40297">
        <ele>36.1</ele>
        <time>2021-07-11T14:01:10Z</time>
      </trkpt>
      <trkpt lat="49.83291" lon="2.40297">
        <ele>36.1</ele>
        <time>2021-07-11T14:01:11Z</time>
      </trkpt>
      <trkpt lat="49.8329" lon="2.40298">
        <ele>36.1</ele>
        <time>2021-07-11T14:01:12Z</time>
      </trkpt>
      <trkpt lat="49.83288" lon="2.40299">
        <ele>36.1</ele>
        <time>2021-07-11T14:01:13Z</time>
      </trkpt>
      <trkpt lat="49.83287" lon="2.403">
        <ele>36.1</ele>
        <time>2021-07-11T14:01:14Z</time>
      </trkpt>
      <trkpt lat="49.83286" lon="2.403">
        <ele>36.1</ele>
        <time>2021-07-11T14:01:15Z</time>
      </trkpt>
      <trkpt lat="49.83285" lon="2.40301">
        <ele>36.1</ele>
        <time>2021-07-11T14:01:16Z</time>
      </trkpt>
      <trkpt lat="49.83284" lon="2.40302">
        <ele>36.1</ele>
        <time>2021-07-11T14:01:18Z</time>
      </trkpt>
      <trkpt lat="49.83283" lon="2.40303">
        <ele>36.1</ele>
        <time>2021-07-11T14:01:19Z</time>
      </trkpt>
      <trkpt lat="49.83281" lon="2.40304">
        <ele>36.1</ele>
        <time>2021-07-11T14:01:20Z</time>
      </trkpt>
      <trkpt lat="49.83279" lon="2.40305">
        <ele>36.1</ele>
        <time>2021-07-11T14:01:21Z</time>
      </trkpt>
      <trkpt lat="49.83278" lon="2.40306">
        <ele>36.1</ele>
        <time>2021-07-11T14:01:22Z</time>
      </trkpt>
      <trkpt lat="49.83278" lon="2.40306">
        <ele>36.1</ele>
        <time>2021-07-11T14:01:23Z</time>
      </trkpt>
      <trkpt lat="49.83276" lon="2.40307">
        <ele>36.1</ele>
        <time>2021-07-11T14:01:24Z</time>
      </trkpt>
      <trkpt lat="49.83275" lon="2.40308">
        <ele>36.1</ele>
        <time>2021-07-11T14:01:25Z</time>
      </trkpt>
      <trkpt lat="49.83274" lon="2.40308">
        <ele>36.1</ele>
        <time>2021-07-11T14:01:26Z</time>
      </trkpt>
      <trkpt lat="49.83273" lon="2.40308">
        <ele>36.1</ele>
        <time>2021-07-11T14:01:27Z</time>
      </trkpt>
      <trkpt lat="49.83272" lon="2.40309">
        <ele>36.1</ele>
        <time>2021-07-11T14:01:29Z</time>
      </trkpt>
      <trkpt lat="49.83271" lon="2.40309">
        <ele>36.1</ele>
        <time>2021-07-11T14:01:30Z</time>
      </trkpt>
      <trkpt lat="49.83269" lon="2.4031">
        <ele>36.1</ele>
        <time>2021-07-11T14:01:31Z</time>
      </trkpt>
      <trkpt lat="49.83268" lon="2.40311">
        <ele>36.1</ele>
        <time>2021-07-11T14:01:32Z</time>
      </trkpt>
      <trkpt lat="49.83266" lon="2.40312">
        <ele>36</ele>
        <time>2021-07-11T14:01:33Z</time>
      </trkpt>
      <trkpt lat="49.83265" lon="2.40313">
        <ele>36</ele>
        <time>2021-07-11T14:01:34Z</time>
      </trkpt>
      <trkpt lat="49.83264" lon="2.40313">
        <ele>36</ele>
        <time>2021-07-11T14:01:35Z</time>
      </trkpt>
      <trkpt lat="49.83263" lon="2.40314">
        <ele>36</ele>
        <time>2021-07-11T14:01:36Z</time>
      </trkpt>
      <trkpt lat="49.83262" lon="2.40315">
        <ele>36</ele>
        <time>2021-07-11T14:01:37Z</time>
      </trkpt>
      <trkpt lat="49.83261" lon="2.40316">
        <ele>36</ele>
        <time>2021-07-11T14:01:38Z</time>
      </trkpt>
      <trkpt lat="49.8326" lon="2.40317">
        <ele>36</ele>
        <time>2021-07-11T14:01:40Z</time>
      </trkpt>
      <trkpt lat="49.83258" lon="2.40318">
        <ele>36</ele>
        <time>2021-07-11T14:01:41Z</time>
      </trkpt>
      <trkpt lat="49.83257" lon="2.40319">
        <ele>36</ele>
        <time>2021-07-11T14:01:42Z</time>
      </trkpt>
      <trkpt lat="49.83256" lon="2.4032">
        <ele>36</ele>
        <time>2021-07-11T14:01:43Z</time>
      </trkpt>
      <trkpt lat="49.83255" lon="2.4032">
        <ele>36</ele>
        <time>2021-07-11T14:01:44Z</time>
      </trkpt>
      <trkpt lat="49.83253" lon="2.40322">
        <ele>35.9</ele>
        <time>2021-07-11T14:01:45Z</time>
      </trkpt>
      <trkpt lat="49.83253" lon="2.40322">
        <ele>35.9</ele>
        <time>2021-07-11T14:01:46Z</time>
      </trkpt>
      <trkpt lat="49.83252" lon="2.40323">
        <ele>35.9</ele>
        <time>2021-07-11T14:01:47Z</time>
      </trkpt>
      <trkpt lat="49.83251" lon="2.40324">
        <ele>35.9</ele>
        <time>2021-07-11T14:01:48Z</time>
      </trkpt>
      <trkpt lat="49.8325" lon="2.40324">
        <ele>35.9</ele>
        <time>2021-07-11T14:01:49Z</time>
      </trkpt>
      <trkpt lat="49.83249" lon="2.40325">
        <ele>35.9</ele>
        <time>2021-07-11T14:01:50Z</time>
      </trkpt>
      <trkpt lat="49.83248" lon="2.40326">
        <ele>35.8</ele>
        <time>2021-07-11T14:01:52Z</time>
      </trkpt>
      <trkpt lat="49.83247" lon="2.40326">
        <ele>35.8</ele>
        <time>2021-07-11T14:01:53Z</time>
      </trkpt>
      <trkpt lat="49.83246" lon="2.40327">
        <ele>35.8</ele>
        <time>2021-07-11T14:01:54Z</time>
      </trkpt>
      <trkpt lat="49.83245" lon="2.40328">
        <ele>35.8</ele>
        <time>2021-07-11T14:01:55Z</time>
      </trkpt>
      <trkpt lat="49.83244" lon="2.40329">
        <ele>35.8</ele>
        <time>2021-07-11T14:01:56Z</time>
      </trkpt>
      <trkpt lat="49.83243" lon="2.4033">
        <ele>35.8</ele>
        <time>2021-07-11T14:01:57Z</time>
      </trkpt>
      <trkpt lat="49.83241" lon="2.40331">
        <ele>35.7</ele>
        <time>2021-07-11T14:01:58Z</time>
      </trkpt>
      <trkpt lat="49.83241" lon="2.40331">
        <ele>35.7</ele>
        <time>2021-07-11T14:01:59Z</time>
      </trkpt>
      <trkpt lat="49.8324" lon="2.40332">
        <ele>35.7</ele>
        <time>2021-07-11T14:02:00Z</time>
      </trkpt>
      <trkpt lat="49.83239" lon="2.40332">
        <ele>35.7</ele>
        <time>2021-07-11T14:02:01Z</time>
      </trkpt>
      <trkpt lat="49.83238" lon="2.40333">
        <ele>35.7</ele>
        <time>2021-07-11T14:02:03Z</time>
      </trkpt>
      <trkpt lat="49.83237" lon="2.40334">
        <ele>35.7</ele>
        <time>2021-07-11T14:02:04Z</time>
      </trkpt>
      <trkpt lat="49.83236" lon="2.40335">
        <ele>35.6</ele>
        <time>2021-07-11T14:02:05Z</time>
      </trkpt>
      <trkpt lat="49.83234" lon="2.40336">
        <ele>35.6</ele>
        <time>2021-07-11T14:02:06Z</time>
      </trkpt>
      <trkpt lat="49.83234" lon="2.40336">
        <ele>35.6</ele>
        <time>2021-07-11T14:02:07Z</time>
      </trkpt>
      <trkpt lat="49.83232" lon="2.40338">
        <ele>35.6</ele>
        <time>2021-07-11T14:02:08Z</time>
      </trkpt>
      <trkpt lat="49.83231" lon="2.40338">
        <ele>35.6</ele>
        <time>2021-07-11T14:02:09Z</time>
      </trkpt>
      <trkpt lat="49.8323" lon="2.40338">
        <ele>35.5</ele>
        <time>2021-07-11T14:02:10Z</time>
      </trkpt>
      <trkpt lat="49.83228" lon="2.4034">
        <ele>35.5</ele>
        <time>2021-07-11T14:02:11Z</time>
      </trkpt>
      <trkpt lat="49.83227" lon="2.4034">
        <ele>35.5</ele>
        <time>2021-07-11T14:02:12Z</time>
      </trkpt>
      <trkpt lat="49.83227" lon="2.40341">
        <ele>35.5</ele>
        <time>2021-07-11T14:02:13Z</time>
      </trkpt>
      <trkpt lat="49.83225" lon="2.40343">
        <ele>35.4</ele>
        <time>2021-07-11T14:02:15Z</time>
      </trkpt>
      <trkpt lat="49.83224" lon="2.40344">
        <ele>35.4</ele>
        <time>2021-07-11T14:02:16Z</time>
      </trkpt>
      <trkpt lat="49.83223" lon="2.40344">
        <ele>35.4</ele>
        <time>2021-07-11T14:02:17Z</time>
      </trkpt>
      <trkpt lat="49.83221" lon="2.40346">
        <ele>35.4</ele>
        <time>2021-07-11T14:02:18Z</time>
      </trkpt>
      <trkpt lat="49.83221" lon="2.40347">
        <ele>35.3</ele>
        <time>2021-07-11T14:02:19Z</time>
      </trkpt>
      <trkpt lat="49.8322" lon="2.40347">
        <ele>35.3</ele>
        <time>2021-07-11T14:02:20Z</time>
      </trkpt>
      <trkpt lat="49.83219" lon="2.40349">
        <ele>35.3</ele>
        <time>2021-07-11T14:02:21Z</time>
      </trkpt>
      <trkpt lat="49.83218" lon="2.4035">
        <ele>35.3</ele>
        <time>2021-07-11T14:02:22Z</time>
      </trkpt>
      <trkpt lat="49.83217" lon="2.40351">
        <ele>35.2</ele>
        <time>2021-07-11T14:02:23Z</time>
      </trkpt>
      <trkpt lat="49.83216" lon="2.40352">
        <ele>35.2</ele>
        <time>2021-07-11T14:02:24Z</time>
      </trkpt>
      <trkpt lat="49.83215" lon="2.40353">
        <ele>35.2</ele>
        <time>2021-07-11T14:02:26Z</time>
      </trkpt>
      <trkpt lat="49.83213" lon="2.40354">
        <ele>35.1</ele>
        <time>2021-07-11T14:02:27Z</time>
      </trkpt>
      <trkpt lat="49.83212" lon="2.40355">
        <ele>35.1</ele>
        <time>2021-07-11T14:02:28Z</time>
      </trkpt>
      <trkpt lat="49.83211" lon="2.40355">
        <ele>35.1</ele>
        <time>2021-07-11T14:02:29Z</time>
      </trkpt>
      <trkpt lat="49.83209" lon="2.40357">
        <ele>35</ele>
        <time>2021-07-11T14:02:30Z</time>
      </trkpt>
      <trkpt lat="49.83208" lon="2.40357">
        <ele>35</ele>
        <time>2021-07-11T14:02:31Z</time>
      </trkpt>
      <trkpt lat="49.83208" lon="2.40358">
        <ele>35</ele>
        <time>2021-07-11T14:02:32Z</time>
      </trkpt>
      <trkpt lat="49.83207" lon="2.40359">
        <ele>35</ele>
        <time>2021-07-11T14:02:33Z</time>
      </trkpt>
      <trkpt lat="49.83206" lon="2.4036">
        <ele>34.9</ele>
        <time>2021-07-11T14:02:34Z</time>
      </trkpt>
      <trkpt lat="49.83205" lon="2.4036">
        <ele>34.9</ele>
        <time>2021-07-11T14:02:35Z</time>
      </trkpt>
      <trkpt lat="49.83203" lon="2.40362">
        <ele>34.9</ele>
        <time>2021-07-11T14:02:37Z</time>
      </trkpt>
      <trkpt lat="49.83202" lon="2.40362">
        <ele>34.8</ele>
        <time>2021-07-11T14:02:38Z</time>
      </trkpt>
      <trkpt lat="49.83201" lon="2.40363">
        <ele>34.8</ele>
        <time>2021-07-11T14:02:39Z</time>
      </trkpt>
      <trkpt lat="49.832" lon="2.40364">
        <ele>34.8</ele>
        <time>2021-07-11T14:02:40Z</time>
      </trkpt>
      <trkpt lat="49.83199" lon="2.40364">
        <ele>34.7</ele>
        <time>2021-07-11T14:02:41Z</time>
      </trkpt>
      <trkpt lat="49.83197" lon="2.40365">
        <ele>34.7</ele>
        <time>2021-07-11T14:02:42Z</time>
      </trkpt>
      <trkpt lat="49.83196" lon="2.40366">
        <ele>34.6</ele>
        <time>2021-07-11T14:02:43Z</time>
      </trkpt>
      <trkpt lat="49.83195" lon="2.40366">
        <ele>34.6</ele>
        <time>2021-07-11T14:02:44Z</time>
      </trkpt>
      <trkpt lat="49.83194" lon="2.40367">
        <ele>34.5</ele>
        <time>2021-07-11T14:02:45Z</time>
      </trkpt>
      <trkpt lat="49.83193" lon="2.40368">
        <ele>34.5</ele>
        <time>2021-07-11T14:02:46Z</time>
      </trkpt>
      <trkpt lat="49.83191" lon="2.4037">
        <ele>34.4</ele>
        <time>2021-07-11T14:02:48Z</time>
      </trkpt>
      <trkpt lat="49.8319" lon="2.4037">
        <ele>34.4</ele>
        <time>2021-07-11T14:02:49Z</time>
      </trkpt>
      <trkpt lat="49.8319" lon="2.40371">
        <ele>34.3</ele>
        <time>2021-07-11T14:02:50Z</time>
      </trkpt>
      <trkpt lat="49.83188" lon="2.40374">
        <ele>34.2</ele>
        <time>2021-07-11T14:02:51Z</time>
      </trkpt>
      <trkpt lat="49.83187" lon="2.40375">
        <ele>34.2</ele>
        <time>2021-07-11T14:02:52Z</time>
      </trkpt>
      <trkpt lat="49.83187" lon="2.40376">
        <ele>34.2</ele>
        <time>2021-07-11T14:02:53Z</time>
      </trkpt>
      <trkpt lat="49.83186" lon="2.40377">
        <ele>34.1</ele>
        <time>2021-07-11T14:02:54Z</time>
      </trkpt>
      <trkpt lat="49.83185" lon="2.40379">
        <ele>34.1</ele>
        <time>2021-07-11T14:02:55Z</time>
      </trkpt>
      <trkpt lat="49.83184" lon="2.4038">
        <ele>34</ele>
        <time>2021-07-11T14:02:56Z</time>
      </trkpt>
      <trkpt lat="49.83183" lon="2.40381">
        <ele>34</ele>
        <time>2021-07-11T14:02:58Z</time>
      </trkpt>
      <trkpt lat="49.83182" lon="2.40383">
        <ele>33.9</ele>
        <time>2021-07-11T14:02:59Z</time>
      </trkpt>
      <trkpt lat="49.83182" lon="2.40385">
        <ele>33.9</ele>
        <time>2021-07-11T14:03:00Z</time>
      </trkpt>
      <trkpt lat="49.83182" lon="2.40387">
        <ele>33.8</ele>
        <time>2021-07-11T14:03:02Z</time>
      </trkpt>
      <trkpt lat="49.83182" lon="2.40388">
        <ele>33.8</ele>
        <time>2021-07-11T14:03:03Z</time>
      </trkpt>
      <trkpt lat="49.83183" lon="2.40388">
        <ele>33.8</ele>
        <time>2021-07-11T14:03:05Z</time>
      </trkpt>
      <trkpt lat="49.83183" lon="2.40388">
        <ele>33.8</ele>
        <time>2021-07-11T14:03:06Z</time>
      </trkpt>
      <trkpt lat="49.83183" lon="2.40388">
        <ele>33.8</ele>
        <time>2021-07-11T14:03:07Z</time>
      </trkpt>
      <trkpt lat="49.83183" lon="2.40387">
        <ele>33.7</ele>
        <time>2021-07-11T14:03:08Z</time>
      </trkpt>
      <trkpt lat="49.83183" lon="2.40387">
        <ele>33.7</ele>
        <time>2021-07-11T14:03:10Z</time>
      </trkpt>
      <trkpt lat="49.83183" lon="2.40388">
        <ele>33.7</ele>
        <time>2021-07-11T14:03:11Z</time>
      </trkpt>
      <trkpt lat="49.83182" lon="2.40389">
        <ele>33.7</ele>
        <time>2021-07-11T14:03:12Z</time>
      </trkpt>
      <trkpt lat="49.83182" lon="2.40392">
        <ele>33.6</ele>
        <time>2021-07-11T14:03:14Z</time>
      </trkpt>
      <trkpt lat="49.83182" lon="2.40393">
        <ele>33.6</ele>
        <time>2021-07-11T14:03:15Z</time>
      </trkpt>
      <trkpt lat="49.83182" lon="2.40394">
        <ele>33.6</ele>
        <time>2021-07-11T14:03:17Z</time>
      </trkpt>
      <trkpt lat="49.83182" lon="2.40394">
        <ele>33.5</ele>
        <time>2021-07-11T14:03:18Z</time>
      </trkpt>
      <trkpt lat="49.83181" lon="2.40394">
        <ele>33.5</ele>
        <time>2021-07-11T14:03:19Z</time>
      </trkpt>
      <trkpt lat="49.83181" lon="2.40394">
        <ele>33.5</ele>
        <time>2021-07-11T14:03:20Z</time>
      </trkpt>
      <trkpt lat="49.8318" lon="2.40394">
        <ele>33.5</ele>
        <time>2021-07-11T14:03:21Z</time>
      </trkpt>
      <trkpt lat="49.8318" lon="2.40395">
        <ele>33.5</ele>
        <time>2021-07-11T14:03:23Z</time>
      </trkpt>
      <trkpt lat="49.83179" lon="2.40396">
        <ele>33.4</ele>
        <time>2021-07-11T14:03:24Z</time>
      </trkpt>
      <trkpt lat="49.83177" lon="2.40397">
        <ele>33.4</ele>
        <time>2021-07-11T14:03:25Z</time>
      </trkpt>
      <trkpt lat="49.83176" lon="2.40399">
        <ele>33.3</ele>
        <time>2021-07-11T14:03:26Z</time>
      </trkpt>
      <trkpt lat="49.83175" lon="2.404">
        <ele>33.2</ele>
        <time>2021-07-11T14:03:27Z</time>
      </trkpt>
      <trkpt lat="49.83173" lon="2.40401">
        <ele>33.2</ele>
        <time>2021-07-11T14:03:28Z</time>
      </trkpt>
      <trkpt lat="49.83172" lon="2.40402">
        <ele>33.1</ele>
        <time>2021-07-11T14:03:29Z</time>
      </trkpt>
      <trkpt lat="49.83171" lon="2.40403">
        <ele>33.1</ele>
        <time>2021-07-11T14:03:30Z</time>
      </trkpt>
      <trkpt lat="49.8317" lon="2.40404">
        <ele>33</ele>
        <time>2021-07-11T14:03:31Z</time>
      </trkpt>
      <trkpt lat="49.83168" lon="2.40405">
        <ele>32.9</ele>
        <time>2021-07-11T14:03:33Z</time>
      </trkpt>
      <trkpt lat="49.83167" lon="2.40406">
        <ele>32.9</ele>
        <time>2021-07-11T14:03:34Z</time>
      </trkpt>
      <trkpt lat="49.83166" lon="2.40406">
        <ele>32.9</ele>
        <time>2021-07-11T14:03:35Z</time>
      </trkpt>
      <trkpt lat="49.83164" lon="2.40407">
        <ele>32.8</ele>
        <time>2021-07-11T14:03:36Z</time>
      </trkpt>
      <trkpt lat="49.83163" lon="2.40408">
        <ele>32.8</ele>
        <time>2021-07-11T14:03:37Z</time>
      </trkpt>
      <trkpt lat="49.83162" lon="2.40408">
        <ele>32.8</ele>
        <time>2021-07-11T14:03:38Z</time>
      </trkpt>
      <trkpt lat="49.8316" lon="2.40409">
        <ele>32.7</ele>
        <time>2021-07-11T14:03:39Z</time>
      </trkpt>
      <trkpt lat="49.8316" lon="2.4041">
        <ele>32.7</ele>
        <time>2021-07-11T14:03:40Z</time>
      </trkpt>
      <trkpt lat="49.83159" lon="2.4041">
        <ele>32.6</ele>
        <time>2021-07-11T14:03:41Z</time>
      </trkpt>
      <trkpt lat="49.83157" lon="2.40412">
        <ele>32.6</ele>
        <time>2021-07-11T14:03:42Z</time>
      </trkpt>
      <trkpt lat="49.83156" lon="2.40412">
        <ele>32.6</ele>
        <time>2021-07-11T14:03:44Z</time>
      </trkpt>
      <trkpt lat="49.83156" lon="2.40413">
        <ele>32.6</ele>
        <time>2021-07-11T14:03:45Z</time>
      </trkpt>
      <trkpt lat="49.83155" lon="2.40414">
        <ele>32.5</ele>
        <time>2021-07-11T14:03:46Z</time>
      </trkpt>
      <trkpt lat="49.83153" lon="2.40414">
        <ele>32.5</ele>
        <time>2021-07-11T14:03:47Z</time>
      </trkpt>
      <trkpt lat="49.83152" lon="2.40415">
        <ele>32.5</ele>
        <time>2021-07-11T14:03:48Z</time>
      </trkpt>
      <trkpt lat="49.83151" lon="2.40416">
        <ele>32.5</ele>
        <time>2021-07-11T14:03:49Z</time>
      </trkpt>
      <trkpt lat="49.8315" lon="2.40416">
        <ele>32.5</ele>
        <time>2021-07-11T14:03:50Z</time>
      </trkpt>
      <trkpt lat="49.83148" lon="2.40417">
        <ele>32.4</ele>
        <time>2021-07-11T14:03:51Z</time>
      </trkpt>
      <trkpt lat="49.83147" lon="2.40417">
        <ele>32.4</ele>
        <time>2021-07-11T14:03:53Z</time>
      </trkpt>
      <trkpt lat="49.83146" lon="2.40417">
        <ele>32.4</ele>
        <time>2021-07-11T14:03:54Z</time>
      </trkpt>
      <trkpt lat="49.83145" lon="2.40418">
        <ele>32.4</ele>
        <time>2021-07-11T14:03:55Z</time>
      </trkpt>
      <trkpt lat="49.83144" lon="2.40419">
        <ele>32.4</ele>
        <time>2021-07-11T14:03:56Z</time>
      </trkpt>
      <trkpt lat="49.83142" lon="2.4042">
        <ele>32.4</ele>
        <time>2021-07-11T14:03:57Z</time>
      </trkpt>
      <trkpt lat="49.83141" lon="2.40421">
        <ele>32.3</ele>
        <time>2021-07-11T14:03:58Z</time>
      </trkpt>
      <trkpt lat="49.8314" lon="2.40421">
        <ele>32.3</ele>
        <time>2021-07-11T14:04:00Z</time>
      </trkpt>
      <trkpt lat="49.83139" lon="2.40422">
        <ele>32.3</ele>
        <time>2021-07-11T14:04:01Z</time>
      </trkpt>
      <trkpt lat="49.83138" lon="2.40423">
        <ele>32.3</ele>
        <time>2021-07-11T14:04:02Z</time>
      </trkpt>
      <trkpt lat="49.83137" lon="2.40424">
        <ele>32.3</ele>
        <time>2021-07-11T14:04:03Z</time>
      </trkpt>
      <trkpt lat="49.83136" lon="2.40424">
        <ele>32.3</ele>
        <time>2021-07-11T14:04:04Z</time>
      </trkpt>
      <trkpt lat="49.83135" lon="2.40425">
        <ele>32.2</ele>
        <time>2021-07-11T14:04:05Z</time>
      </trkpt>
      <trkpt lat="49.83135" lon="2.40427">
        <ele>32.2</ele>
        <time>2021-07-11T14:04:06Z</time>
      </trkpt>
      <trkpt lat="49.83134" lon="2.40428">
        <ele>32.2</ele>
        <time>2021-07-11T14:04:08Z</time>
      </trkpt>
      <trkpt lat="49.83133" lon="2.4043">
        <ele>32.2</ele>
        <time>2021-07-11T14:04:09Z</time>
      </trkpt>
      <trkpt lat="49.83132" lon="2.40432">
        <ele>32.2</ele>
        <time>2021-07-11T14:04:11Z</time>
      </trkpt>
      <trkpt lat="49.83132" lon="2.40433">
        <ele>32.2</ele>
        <time>2021-07-11T14:04:12Z</time>
      </trkpt>
      <trkpt lat="49.83132" lon="2.40434">
        <ele>32.2</ele>
        <time>2021-07-11T14:04:13Z</time>
      </trkpt>
      <trkpt lat="49.83132" lon="2.40435">
        <ele>32.2</ele>
        <time>2021-07-11T14:04:15Z</time>
      </trkpt>
      <trkpt lat="49.83132" lon="2.40435">
        <ele>32.2</ele>
        <time>2021-07-11T14:04:16Z</time>
      </trkpt>
      <trkpt lat="49.83133" lon="2.40435">
        <ele>32.2</ele>
        <time>2021-07-11T14:04:17Z</time>
      </trkpt>
      <trkpt lat="49.83133" lon="2.40436">
        <ele>32.2</ele>
        <time>2021-07-11T14:04:19Z</time>
      </trkpt>
      <trkpt lat="49.83133" lon="2.40436">
        <ele>32.2</ele>
        <time>2021-07-11T14:04:20Z</time>
      </trkpt>
      <trkpt lat="49.83133" lon="2.40436">
        <ele>32.2</ele>
        <time>2021-07-11T14:04:22Z</time>
      </trkpt>
      <trkpt lat="49.83133" lon="2.40436">
        <ele>32.2</ele>
        <time>2021-07-11T14:04:23Z</time>
      </trkpt>
      <trkpt lat="49.83134" lon="2.40436">
        <ele>32.2</ele>
        <time>2021-07-11T14:04:25Z</time>
      </trkpt>
      <trkpt lat="49.83134" lon="2.40436">
        <ele>32.2</ele>
        <time>2021-07-11T14:04:27Z</time>
      </trkpt>
      <trkpt lat="49.83134" lon="2.40436">
        <ele>32.2</ele>
        <time>2021-07-11T14:04:28Z</time>
      </trkpt>
      <trkpt lat="49.83134" lon="2.40436">
        <ele>32.2</ele>
        <time>2021-07-11T14:04:29Z</time>
      </trkpt>
      <trkpt lat="49.83135" lon="2.40434">
        <ele>32.2</ele>
        <time>2021-07-11T14:04:31Z</time>
      </trkpt>
      <trkpt lat="49.83135" lon="2.40434">
        <ele>32.2</ele>
        <time>2021-07-11T14:04:33Z</time>
      </trkpt>
      <trkpt lat="49.83135" lon="2.40434">
        <ele>32.2</ele>
        <time>2021-07-11T14:04:35Z</time>
      </trkpt>
      <trkpt lat="49.83135" lon="2.40434">
        <ele>32.2</ele>
        <time>2021-07-11T14:04:36Z</time>
      </trkpt>
      <trkpt lat="49.83135" lon="2.40434">
        <ele>32.2</ele>
        <time>2021-07-11T14:04:37Z</time>
      </trkpt>
      <trkpt lat="49.83135" lon="2.40434">
        <ele>32.2</ele>
        <time>2021-07-11T14:04:38Z</time>
      </trkpt>
      <trkpt lat="49.83135" lon="2.40434">
        <ele>32.2</ele>
        <time>2021-07-11T14:04:40Z</time>
      </trkpt>
      <trkpt lat="49.83135" lon="2.40434">
        <ele>32.2</ele>
        <time>2021-07-11T14:04:41Z</time>
      </trkpt>
      <trkpt lat="49.83135" lon="2.40434">
        <ele>32.2</ele>
        <time>2021-07-11T14:04:43Z</time>
      </trkpt>
      <trkpt lat="49.83135" lon="2.40434">
        <ele>32.2</ele>
        <time>2021-07-11T14:04:45Z</time>
      </trkpt>
      <trkpt lat="49.83135" lon="2.40434">
        <ele>32.2</ele>
        <time>2021-07-11T14:04:47Z</time>
      </trkpt>
      <trkpt lat="49.83135" lon="2.40434">
        <ele>32.2</ele>
        <time>2021-07-11T14:04:48Z</time>
      </trkpt>
      <trkpt lat="49.83135" lon="2.40433">
        <ele>32.2</ele>
        <time>2021-07-11T14:04:50Z</time>
      </trkpt>
      <trkpt lat="49.83135" lon="2.40433">
        <ele>32.2</ele>
        <time>2021-07-11T14:04:52Z</time>
      </trkpt>
      <trkpt lat="49.83135" lon="2.40433">
        <ele>32.2</ele>
        <time>2021-07-11T14:04:54Z</time>
      </trkpt>
      <trkpt lat="49.83135" lon="2.40433">
        <ele>32.2</ele>
        <time>2021-07-11T14:04:55Z</time>
      </trkpt>
      <trkpt lat="49.83135" lon="2.40433">
        <ele>32.2</ele>
        <time>2021-07-11T14:04:56Z</time>
      </trkpt>
      <trkpt lat="49.83135" lon="2.40433">
        <ele>32.2</ele>
        <time>2021-07-11T14:04:58Z</time>
      </trkpt>
      <trkpt lat="49.83135" lon="2.40433">
        <ele>32.2</ele>
        <time>2021-07-11T14:05:00Z</time>
      </trkpt>
      <trkpt lat="49.83135" lon="2.40433">
        <ele>32.2</ele>
        <time>2021-07-11T14:05:01Z</time>
      </trkpt>
      <trkpt lat="49.83135" lon="2.40433">
        <ele>32.2</ele>
        <time>2021-07-11T14:05:03Z</time>
      </trkpt>
      <trkpt lat="49.83135" lon="2.40433">
        <ele>32.2</ele>
        <time>2021-07-11T14:05:05Z</time>
      </trkpt>
      <trkpt lat="49.83135" lon="2.40433">
        <ele>32.2</ele>
        <time>2021-07-11T14:05:07Z</time>
      </trkpt>
      <trkpt lat="49.83135" lon="2.40433">
        <ele>32.2</ele>
        <time>2021-07-11T14:05:09Z</time>
      </trkpt>
      <trkpt lat="49.83135" lon="2.40433">
        <ele>32.2</ele>
        <time>2021-07-11T14:05:10Z</time>
      </trkpt>
      <trkpt lat="49.83135" lon="2.40433">
        <ele>32.2</ele>
        <time>2021-07-11T14:05:11Z</time>
      </trkpt>
      <trkpt lat="49.83135" lon="2.40433">
        <ele>32.2</ele>
        <time>2021-07-11T14:05:13Z</time>
      </trkpt>
      <trkpt lat="49.83135" lon="2.40433">
        <ele>32.2</ele>
        <time>2021-07-11T14:05:15Z</time>
      </trkpt>
      <trkpt lat="49.83135" lon="2.40433">
        <ele>32.2</ele>
        <time>2021-07-11T14:05:16Z</time>
      </trkpt>
      <trkpt lat="49.83135" lon="2.40433">
        <ele>32.2</ele>
        <time>2021-07-11T14:05:17Z</time>
      </trkpt>
      <trkpt lat="49.83135" lon="2.40433">
        <ele>32.2</ele>
        <time>2021-07-11T14:05:19Z</time>
      </trkpt>
      <trkpt lat="49.83135" lon="2.40433">
        <ele>32.2</ele>
        <time>2021-07-11T14:05:20Z</time>
      </trkpt>
      <trkpt lat="49.83135" lon="2.40433">
        <ele>32.2</ele>
        <time>2021-07-11T14:05:21Z</time>
      </trkpt>
      <trkpt lat="49.83135" lon="2.40433">
        <ele>32.2</ele>
        <time>2021-07-11T14:05:22Z</time>
      </trkpt>
      <trkpt lat="49.83135" lon="2.40433">
        <ele>32.2</ele>
        <time>2021-07-11T14:05:23Z</time>
      </trkpt>
      <trkpt lat="49.83135" lon="2.40433">
        <ele>32.2</ele>
        <time>2021-07-11T14:05:24Z</time>
      </trkpt>
      <trkpt lat="49.83135" lon="2.40433">
        <ele>32.2</ele>
        <time>2021-07-11T14:05:26Z</time>
      </trkpt>
      <trkpt lat="49.83135" lon="2.40433">
        <ele>32.2</ele>
        <time>2021-07-11T14:05:27Z</time>
      </trkpt>
      <trkpt lat="49.83135" lon="2.40433">
        <ele>32.2</ele>
        <time>2021-07-11T14:05:29Z</time>
      </trkpt>
      <trkpt lat="49.83135" lon="2.40433">
        <ele>32.2</ele>
        <time>2021-07-11T14:05:30Z</time>
      </trkpt>
      <trkpt lat="49.83135" lon="2.40433">
        <ele>32.2</ele>
        <time>2021-07-11T14:05:32Z</time>
      </trkpt>
      <trkpt lat="49.83135" lon="2.40433">
        <ele>32.2</ele>
        <time>2021-07-11T14:05:33Z</time>
      </trkpt>
      <trkpt lat="49.83135" lon="2.40433">
        <ele>32.2</ele>
        <time>2021-07-11T14:05:34Z</time>
      </trkpt>
      <trkpt lat="49.83135" lon="2.40433">
        <ele>32.2</ele>
        <time>2021-07-11T14:05:36Z</time>
      </trkpt>
      <trkpt lat="49.83135" lon="2.40433">
        <ele>32.2</ele>
        <time>2021-07-11T14:05:38Z</time>
      </trkpt>
      <trkpt lat="49.83135" lon="2.40433">
        <ele>32.2</ele>
        <time>2021-07-11T14:05:40Z</time>
      </trkpt>
      <trkpt lat="49.83135" lon="2.40433">
        <ele>32.2</ele>
        <time>2021-07-11T14:05:41Z</time>
      </trkpt>
      <trkpt lat="49.83135" lon="2.40433">
        <ele>32.2</ele>
        <time>2021-07-11T14:05:43Z</time>
      </trkpt>
      <trkpt lat="49.83135" lon="2.40433">
        <ele>32.2</ele>
        <time>2021-07-11T14:05:45Z</time>
      </trkpt>
      <trkpt lat="49.83135" lon="2.40433">
        <ele>32.2</ele>
        <time>2021-07-11T14:05:46Z</time>
      </trkpt>
      <trkpt lat="49.83135" lon="2.40433">
        <ele>32.2</ele>
        <time>2021-07-11T14:05:48Z</time>
      </trkpt>
      <trkpt lat="49.83135" lon="2.40433">
        <ele>32.2</ele>
        <time>2021-07-11T14:05:49Z</time>
      </trkpt>
      <trkpt lat="49.83135" lon="2.40433">
        <ele>32.2</ele>
        <time>2021-07-11T14:05:51Z</time>
      </trkpt>
      <trkpt lat="49.83135" lon="2.40433">
        <ele>32.2</ele>
        <time>2021-07-11T14:05:53Z</time>
      </trkpt>
      <trkpt lat="49.83135" lon="2.40433">
        <ele>32.2</ele>
        <time>2021-07-11T14:05:54Z</time>
      </trkpt>
      <trkpt lat="49.83135" lon="2.40433">
        <ele>32.2</ele>
        <time>2021-07-11T14:05:55Z</time>
      </trkpt>
      <trkpt lat="49.83135" lon="2.40433">
        <ele>32.2</ele>
        <time>2021-07-11T14:05:56Z</time>
      </trkpt>
      <trkpt lat="49.83135" lon="2.40433">
        <ele>32.2</ele>
        <time>2021-07-11T14:05:58Z</time>
      </trkpt>
      <trkpt lat="49.83135" lon="2.40433">
        <ele>32.2</ele>
        <time>2021-07-11T14:05:59Z</time>
      </trkpt>
      <trkpt lat="49.83135" lon="2.40433">
        <ele>32.2</ele>
        <time>2021-07-11T14:06:01Z</time>
      </trkpt>
      <trkpt lat="49.83135" lon="2.40433">
        <ele>32.2</ele>
        <time>2021-07-11T14:06:03Z</time>
      </trkpt>
      <trkpt lat="49.83135" lon="2.40433">
        <ele>32.2</ele>
        <time>2021-07-11T14:06:05Z</time>
      </trkpt>
      <trkpt lat="49.83135" lon="2.40433">
        <ele>32.2</ele>
        <time>2021-07-11T14:06:07Z</time>
      </trkpt>
      <trkpt lat="49.83135" lon="2.40433">
        <ele>32.2</ele>
        <time>2021-07-11T14:06:08Z</time>
      </trkpt>
      <trkpt lat="49.83135" lon="2.40433">
        <ele>32.2</ele>
        <time>2021-07-11T14:06:09Z</time>
      </trkpt>
      <trkpt lat="49.83135" lon="2.40433">
        <ele>32.2</ele>
        <time>2021-07-11T14:06:11Z</time>
      </trkpt>
      <trkpt lat="49.83135" lon="2.40433">
        <ele>32.2</ele>
        <time>2021-07-11T14:06:13Z</time>
      </trkpt>
      <trkpt lat="49.83135" lon="2.40433">
        <ele>32.2</ele>
        <time>2021-07-11T14:06:15Z</time>
      </trkpt>
      <trkpt lat="49.83135" lon="2.40433">
        <ele>32.2</ele>
        <time>2021-07-11T14:06:17Z</time>
      </trkpt>
      <trkpt lat="49.83135" lon="2.40433">
        <ele>32.2</ele>
        <time>2021-07-11T14:06:18Z</time>
      </trkpt>
      <trkpt lat="49.83135" lon="2.40433">
        <ele>32.2</ele>
        <time>2021-07-11T14:06:20Z</time>
      </trkpt>
      <trkpt lat="49.83135" lon="2.40433">
        <ele>32.2</ele>
        <time>2021-07-11T14:06:22Z</time>
      </trkpt>
      <trkpt lat="49.83135" lon="2.40433">
        <ele>32.2</ele>
        <time>2021-07-11T14:06:23Z</time>
      </trkpt>
      <trkpt lat="49.83135" lon="2.40433">
        <ele>32.2</ele>
        <time>2021-07-11T14:06:25Z</time>
      </trkpt>
      <trkpt lat="49.83135" lon="2.40433">
        <ele>32.2</ele>
        <time>2021-07-11T14:06:26Z</time>
      </trkpt>
      <trkpt lat="49.83135" lon="2.40433">
        <ele>32.2</ele>
        <time>2021-07-11T14:06:28Z</time>
      </trkpt>
      <trkpt lat="49.83135" lon="2.40433">
        <ele>32.2</ele>
        <time>2021-07-11T14:06:29Z</time>
      </trkpt>
      <trkpt lat="49.83135" lon="2.40433">
        <ele>32.2</ele>
        <time>2021-07-11T14:06:30Z</time>
      </trkpt>
      <trkpt lat="49.83135" lon="2.40433">
        <ele>32.2</ele>
        <time>2021-07-11T14:06:31Z</time>
      </trkpt>
      <trkpt lat="49.83135" lon="2.40433">
        <ele>32.2</ele>
        <time>2021-07-11T14:06:33Z</time>
      </trkpt>
      <trkpt lat="49.83135" lon="2.40433">
        <ele>32.2</ele>
        <time>2021-07-11T14:06:35Z</time>
      </trkpt>
      <trkpt lat="49.83135" lon="2.40433">
        <ele>32.2</ele>
        <time>2021-07-11T14:06:36Z</time>
      </trkpt>
      <trkpt lat="49.83135" lon="2.40433">
        <ele>32.2</ele>
        <time>2021-07-11T14:06:38Z</time>
      </trkpt>
      <trkpt lat="49.83135" lon="2.40433">
        <ele>32.2</ele>
        <time>2021-07-11T14:06:39Z</time>
      </trkpt>
      <trkpt lat="49.83135" lon="2.40433">
        <ele>32.2</ele>
        <time>2021-07-11T14:06:41Z</time>
      </trkpt>
      <trkpt lat="49.83135" lon="2.40433">
        <ele>32.2</ele>
        <time>2021-07-11T14:06:43Z</time>
      </trkpt>
      <trkpt lat="49.83135" lon="2.40433">
        <ele>32.2</ele>
        <time>2021-07-11T14:06:45Z</time>
      </trkpt>
      <trkpt lat="49.83135" lon="2.40433">
        <ele>32.2</ele>
        <time>2021-07-11T14:06:47Z</time>
      </trkpt>
      <trkpt lat="49.83135" lon="2.40433">
        <ele>32.2</ele>
        <time>2021-07-11T14:06:49Z</time>
      </trkpt>
      <trkpt lat="49.83135" lon="2.40433">
        <ele>32.2</ele>
        <time>2021-07-11T14:06:50Z</time>
      </trkpt>
      <trkpt lat="49.83135" lon="2.40433">
        <ele>32.2</ele>
        <time>2021-07-11T14:06:51Z</time>
      </trkpt>
      <trkpt lat="49.83135" lon="2.40433">
        <ele>32.2</ele>
        <time>2021-07-11T14:06:53Z</time>
      </trkpt>
      <trkpt lat="49.83135" lon="2.40433">
        <ele>32.2</ele>
        <time>2021-07-11T14:06:55Z</time>
      </trkpt>
      <trkpt lat="49.83135" lon="2.40433">
        <ele>32.2</ele>
        <time>2021-07-11T14:06:56Z</time>
      </trkpt>
      <trkpt lat="49.83135" lon="2.40433">
        <ele>32.2</ele>
        <time>2021-07-11T14:06:58Z</time>
      </trkpt>
      <trkpt lat="49.83135" lon="2.40433">
        <ele>32.2</ele>
        <time>2021-07-11T14:06:59Z</time>
      </trkpt>
      <trkpt lat="49.83135" lon="2.40433">
        <ele>32.2</ele>
        <time>2021-07-11T14:07:01Z</time>
      </trkpt>
      <trkpt lat="49.83135" lon="2.40433">
        <ele>32.2</ele>
        <time>2021-07-11T14:07:03Z</time>
      </trkpt>
      <trkpt lat="49.83135" lon="2.40433">
        <ele>32.2</ele>
        <time>2021-07-11T14:07:04Z</time>
      </trkpt>
      <trkpt lat="49.83135" lon="2.40433">
        <ele>32.2</ele>
        <time>2021-07-11T14:07:06Z</time>
      </trkpt>
      <trkpt lat="49.83135" lon="2.40433">
        <ele>32.2</ele>
        <time>2021-07-11T14:07:07Z</time>
      </trkpt>
      <trkpt lat="49.83135" lon="2.40433">
        <ele>32.2</ele>
        <time>2021-07-11T14:07:09Z</time>
      </trkpt>
      <trkpt lat="49.83135" lon="2.40433">
        <ele>32.2</ele>
        <time>2021-07-11T14:07:11Z</time>
      </trkpt>
      <trkpt lat="49.83135" lon="2.40433">
        <ele>32.2</ele>
        <time>2021-07-11T14:07:12Z</time>
      </trkpt>
      <trkpt lat="49.83135" lon="2.40433">
        <ele>32.2</ele>
        <time>2021-07-11T14:07:14Z</time>
      </trkpt>
      <trkpt lat="49.83135" lon="2.40433">
        <ele>32.2</ele>
        <time>2021-07-11T14:07:15Z</time>
      </trkpt>
      <trkpt lat="49.83135" lon="2.40433">
        <ele>32.2</ele>
        <time>2021-07-11T14:07:17Z</time>
      </trkpt>
      <trkpt lat="49.83135" lon="2.40433">
        <ele>32.2</ele>
        <time>2021-07-11T14:07:18Z</time>
      </trkpt>
      <trkpt lat="49.83135" lon="2.40433">
        <ele>32.2</ele>
        <time>2021-07-11T14:07:20Z</time>
      </trkpt>
      <trkpt lat="49.83135" lon="2.40433">
        <ele>32.2</ele>
        <time>2021-07-11T14:07:22Z</time>
      </trkpt>
      <trkpt lat="49.83135" lon="2.40433">
        <ele>32.2</ele>
        <time>2021-07-11T14:07:24Z</time>
      </trkpt>
      <trkpt lat="49.83135" lon="2.40433">
        <ele>32.2</ele>
        <time>2021-07-11T14:07:25Z</time>
      </trkpt>
      <trkpt lat="49.83135" lon="2.40433">
        <ele>32.2</ele>
        <time>2021-07-11T14:07:27Z</time>
      </trkpt>
      <trkpt lat="49.83135" lon="2.40433">
        <ele>32.2</ele>
        <time>2021-07-11T14:07:29Z</time>
      </trkpt>
      <trkpt lat="49.83135" lon="2.40433">
        <ele>32.2</ele>
        <time>2021-07-11T14:07:31Z</time>
      </trkpt>
      <trkpt lat="49.83135" lon="2.40433">
        <ele>32.2</ele>
        <time>2021-07-11T14:07:32Z</time>
      </trkpt>
      <trkpt lat="49.83135" lon="2.40433">
        <ele>32.2</ele>
        <time>2021-07-11T14:07:33Z</time>
      </trkpt>
      <trkpt lat="49.83135" lon="2.40433">
        <ele>32.2</ele>
        <time>2021-07-11T14:07:35Z</time>
      </trkpt>
      <trkpt lat="49.83135" lon="2.40433">
        <ele>32.2</ele>
        <time>2021-07-11T14:07:36Z</time>
      </trkpt>
      <trkpt lat="49.83135" lon="2.40433">
        <ele>32.2</ele>
        <time>2021-07-11T14:07:37Z</time>
      </trkpt>
      <trkpt lat="49.83135" lon="2.40433">
        <ele>32.2</ele>
        <time>2021-07-11T14:07:39Z</time>
      </trkpt>
      <trkpt lat="49.83135" lon="2.40433">
        <ele>32.2</ele>
        <time>2021-07-11T14:07:41Z</time>
      </trkpt>
      <trkpt lat="49.83135" lon="2.40433">
        <ele>32.2</ele>
        <time>2021-07-11T14:07:42Z</time>
      </trkpt>
      <trkpt lat="49.83135" lon="2.40433">
        <ele>32.2</ele>
        <time>2021-07-11T14:07:44Z</time>
      </trkpt>
      <trkpt lat="49.83135" lon="2.40433">
        <ele>32.2</ele>
        <time>2021-07-11T14:07:45Z</time>
      </trkpt>
      <trkpt lat="49.83135" lon="2.40433">
        <ele>32.2</ele>
        <time>2021-07-11T14:07:47Z</time>
      </trkpt>
      <trkpt lat="49.83135" lon="2.40433">
        <ele>32.2</ele>
        <time>2021-07-11T14:07:48Z</time>
      </trkpt>
      <trkpt lat="49.83135" lon="2.40433">
        <ele>32.2</ele>
        <time>2021-07-11T14:07:50Z</time>
      </trkpt>
      <trkpt lat="49.83135" lon="2.40433">
        <ele>32.2</ele>
        <time>2021-07-11T14:07:51Z</time>
      </trkpt>
      <trkpt lat="49.83135" lon="2.40433">
        <ele>32.2</ele>
        <time>2021-07-11T14:07:53Z</time>
      </trkpt>
      <trkpt lat="49.83135" lon="2.40433">
        <ele>32.2</ele>
        <time>2021-07-11T14:07:55Z</time>
      </trkpt>
      <trkpt lat="49.83135" lon="2.40433">
        <ele>32.2</ele>
        <time>2021-07-11T14:07:57Z</time>
      </trkpt>
      <trkpt lat="49.83135" lon="2.40433">
        <ele>32.2</ele>
        <time>2021-07-11T14:07:58Z</time>
      </trkpt>
      <trkpt lat="49.83134" lon="2.40433">
        <ele>32.1</ele>
        <time>2021-07-11T14:08:00Z</time>
      </trkpt>
      <trkpt lat="49.83134" lon="2.40433">
        <ele>32.1</ele>
        <time>2021-07-11T14:08:01Z</time>
      </trkpt>
      <trkpt lat="49.83133" lon="2.40434">
        <ele>32.1</ele>
        <time>2021-07-11T14:08:02Z</time>
      </trkpt>
      <trkpt lat="49.83132" lon="2.40434">
        <ele>32.1</ele>
        <time>2021-07-11T14:08:03Z</time>
      </trkpt>
      <trkpt lat="49.83131" lon="2.40435">
        <ele>32.1</ele>
        <time>2021-07-11T14:08:04Z</time>
      </trkpt>
      <trkpt lat="49.83131" lon="2.40437">
        <ele>32.1</ele>
        <time>2021-07-11T14:08:05Z</time>
      </trkpt>
      <trkpt lat="49.8313" lon="2.40437">
        <ele>32.1</ele>
        <time>2021-07-11T14:08:07Z</time>
      </trkpt>
      <trkpt lat="49.83129" lon="2.40438">
        <ele>32.1</ele>
        <time>2021-07-11T14:08:08Z</time>
      </trkpt>
      <trkpt lat="49.83127" lon="2.40439">
        <ele>32.1</ele>
        <time>2021-07-11T14:08:09Z</time>
      </trkpt>
      <trkpt lat="49.83127" lon="2.4044">
        <ele>32.1</ele>
        <time>2021-07-11T14:08:10Z</time>
      </trkpt>
      <trkpt lat="49.83126" lon="2.40442">
        <ele>32</ele>
        <time>2021-07-11T14:08:11Z</time>
      </trkpt>
      <trkpt lat="49.83125" lon="2.40442">
        <ele>32</ele>
        <time>2021-07-11T14:08:12Z</time>
      </trkpt>
      <trkpt lat="49.83124" lon="2.40443">
        <ele>31.9</ele>
        <time>2021-07-11T14:08:13Z</time>
      </trkpt>
      <trkpt lat="49.83122" lon="2.40443">
        <ele>31.9</ele>
        <time>2021-07-11T14:08:14Z</time>
      </trkpt>
      <trkpt lat="49.83122" lon="2.40444">
        <ele>31.9</ele>
        <time>2021-07-11T14:08:15Z</time>
      </trkpt>
      <trkpt lat="49.83122" lon="2.40442">
        <ele>31.8</ele>
        <time>2021-07-11T14:08:16Z</time>
      </trkpt>
      <trkpt lat="49.83122" lon="2.40441">
        <ele>31.8</ele>
        <time>2021-07-11T14:08:18Z</time>
      </trkpt>
      <trkpt lat="49.8312" lon="2.40442">
        <ele>31.7</ele>
        <time>2021-07-11T14:08:19Z</time>
      </trkpt>
      <trkpt lat="49.83119" lon="2.40443">
        <ele>31.7</ele>
        <time>2021-07-11T14:08:20Z</time>
      </trkpt>
      <trkpt lat="49.83117" lon="2.40444">
        <ele>31.6</ele>
        <time>2021-07-11T14:08:21Z</time>
      </trkpt>
      <trkpt lat="49.83116" lon="2.40444">
        <ele>31.6</ele>
        <time>2021-07-11T14:08:23Z</time>
      </trkpt>
      <trkpt lat="49.83114" lon="2.40445">
        <ele>31.5</ele>
        <time>2021-07-11T14:08:24Z</time>
      </trkpt>
      <trkpt lat="49.83113" lon="2.40446">
        <ele>31.5</ele>
        <time>2021-07-11T14:08:25Z</time>
      </trkpt>
      <trkpt lat="49.83111" lon="2.40446">
        <ele>31.4</ele>
        <time>2021-07-11T14:08:26Z</time>
      </trkpt>
      <trkpt lat="49.8311" lon="2.40447">
        <ele>31.4</ele>
        <time>2021-07-11T14:08:27Z</time>
      </trkpt>
      <trkpt lat="49.83108" lon="2.40448">
        <ele>31.3</ele>
        <time>2021-07-11T14:08:28Z</time>
      </trkpt>
      <trkpt lat="49.83107" lon="2.40449">
        <ele>31.3</ele>
        <time>2021-07-11T14:08:29Z</time>
      </trkpt>
      <trkpt lat="49.83105" lon="2.4045">
        <ele>31.2</ele>
        <time>2021-07-11T14:08:30Z</time>
      </trkpt>
      <trkpt lat="49.83104" lon="2.40451">
        <ele>31.2</ele>
        <time>2021-07-11T14:08:31Z</time>
      </trkpt>
      <trkpt lat="49.83102" lon="2.40452">
        <ele>31.1</ele>
        <time>2021-07-11T14:08:32Z</time>
      </trkpt>
      <trkpt lat="49.83101" lon="2.40453">
        <ele>31.1</ele>
        <time>2021-07-11T14:08:33Z</time>
      </trkpt>
      <trkpt lat="49.831" lon="2.40454">
        <ele>31</ele>
        <time>2021-07-11T14:08:34Z</time>
      </trkpt>
      <trkpt lat="49.83098" lon="2.40455">
        <ele>31</ele>
        <time>2021-07-11T14:08:35Z</time>
      </trkpt>
      <trkpt lat="49.83097" lon="2.40455">
        <ele>30.9</ele>
        <time>2021-07-11T14:08:36Z</time>
      </trkpt>
      <trkpt lat="49.83096" lon="2.40456">
        <ele>30.9</ele>
        <time>2021-07-11T14:08:37Z</time>
      </trkpt>
      <trkpt lat="49.83094" lon="2.40457">
        <ele>30.9</ele>
        <time>2021-07-11T14:08:38Z</time>
      </trkpt>
      <trkpt lat="49.83093" lon="2.40458">
        <ele>30.8</ele>
        <time>2021-07-11T14:08:40Z</time>
      </trkpt>
      <trkpt lat="49.83092" lon="2.40459">
        <ele>30.8</ele>
        <time>2021-07-11T14:08:41Z</time>
      </trkpt>
      <trkpt lat="49.8309" lon="2.4046">
        <ele>30.7</ele>
        <time>2021-07-11T14:08:42Z</time>
      </trkpt>
      <trkpt lat="49.83089" lon="2.40461">
        <ele>30.7</ele>
        <time>2021-07-11T14:08:43Z</time>
      </trkpt>
      <trkpt lat="49.83087" lon="2.40462">
        <ele>30.7</ele>
        <time>2021-07-11T14:08:44Z</time>
      </trkpt>
      <trkpt lat="49.83086" lon="2.40463">
        <ele>30.6</ele>
        <time>2021-07-11T14:08:45Z</time>
      </trkpt>
      <trkpt lat="49.83085" lon="2.40464">
        <ele>30.6</ele>
        <time>2021-07-11T14:08:46Z</time>
      </trkpt>
      <trkpt lat="49.83084" lon="2.40465">
        <ele>30.6</ele>
        <time>2021-07-11T14:08:47Z</time>
      </trkpt>
      <trkpt lat="49.83083" lon="2.40466">
        <ele>30.6</ele>
        <time>2021-07-11T14:08:48Z</time>
      </trkpt>
      <trkpt lat="49.83082" lon="2.40467">
        <ele>30.5</ele>
        <time>2021-07-11T14:08:49Z</time>
      </trkpt>
      <trkpt lat="49.83081" lon="2.40468">
        <ele>30.5</ele>
        <time>2021-07-11T14:08:51Z</time>
      </trkpt>
      <trkpt lat="49.8308" lon="2.40469">
        <ele>30.5</ele>
        <time>2021-07-11T14:08:52Z</time>
      </trkpt>
      <trkpt lat="49.83078" lon="2.40471">
        <ele>30.4</ele>
        <time>2021-07-11T14:08:54Z</time>
      </trkpt>
      <trkpt lat="49.83076" lon="2.40472">
        <ele>30.4</ele>
        <time>2021-07-11T14:08:55Z</time>
      </trkpt>
      <trkpt lat="49.83075" lon="2.40473">
        <ele>30.4</ele>
        <time>2021-07-11T14:08:56Z</time>
      </trkpt>
      <trkpt lat="49.83074" lon="2.40474">
        <ele>30.4</ele>
        <time>2021-07-11T14:08:57Z</time>
      </trkpt>
      <trkpt lat="49.83073" lon="2.40475">
        <ele>30.3</ele>
        <time>2021-07-11T14:08:58Z</time>
      </trkpt>
      <trkpt lat="49.83072" lon="2.40476">
        <ele>30.3</ele>
        <time>2021-07-11T14:08:59Z</time>
      </trkpt>
      <trkpt lat="49.8307" lon="2.40477">
        <ele>30.3</ele>
        <time>2021-07-11T14:09:00Z</time>
      </trkpt>
      <trkpt lat="49.83069" lon="2.40478">
        <ele>30.3</ele>
        <time>2021-07-11T14:09:02Z</time>
      </trkpt>
      <trkpt lat="49.83068" lon="2.40478">
        <ele>30.3</ele>
        <time>2021-07-11T14:09:03Z</time>
      </trkpt>
      <trkpt lat="49.83066" lon="2.40479">
        <ele>30.3</ele>
        <time>2021-07-11T14:09:04Z</time>
      </trkpt>
      <trkpt lat="49.83064" lon="2.4048">
        <ele>30.2</ele>
        <time>2021-07-11T14:09:05Z</time>
      </trkpt>
      <trkpt lat="49.83063" lon="2.40482">
        <ele>30.2</ele>
        <time>2021-07-11T14:09:06Z</time>
      </trkpt>
      <trkpt lat="49.83061" lon="2.40483">
        <ele>30.2</ele>
        <time>2021-07-11T14:09:07Z</time>
      </trkpt>
      <trkpt lat="49.8306" lon="2.40485">
        <ele>30.2</ele>
        <time>2021-07-11T14:09:08Z</time>
      </trkpt>
      <trkpt lat="49.83059" lon="2.40486">
        <ele>30.2</ele>
        <time>2021-07-11T14:09:10Z</time>
      </trkpt>
      <trkpt lat="49.83058" lon="2.40488">
        <ele>30.2</ele>
        <time>2021-07-11T14:09:11Z</time>
      </trkpt>
      <trkpt lat="49.83056" lon="2.4049">
        <ele>30.2</ele>
        <time>2021-07-11T14:09:12Z</time>
      </trkpt>
      <trkpt lat="49.83056" lon="2.40491">
        <ele>30.2</ele>
        <time>2021-07-11T14:09:13Z</time>
      </trkpt>
      <trkpt lat="49.83055" lon="2.40492">
        <ele>30.2</ele>
        <time>2021-07-11T14:09:14Z</time>
      </trkpt>
      <trkpt lat="49.83054" lon="2.40494">
        <ele>30.1</ele>
        <time>2021-07-11T14:09:15Z</time>
      </trkpt>
      <trkpt lat="49.83053" lon="2.40496">
        <ele>30.1</ele>
        <time>2021-07-11T14:09:16Z</time>
      </trkpt>
      <trkpt lat="49.83051" lon="2.40497">
        <ele>30.1</ele>
        <time>2021-07-11T14:09:18Z</time>
      </trkpt>
      <trkpt lat="49.8305" lon="2.40499">
        <ele>30.1</ele>
        <time>2021-07-11T14:09:19Z</time>
      </trkpt>
      <trkpt lat="49.83049" lon="2.405">
        <ele>30.1</ele>
        <time>2021-07-11T14:09:20Z</time>
      </trkpt>
      <trkpt lat="49.83048" lon="2.40501">
        <ele>30.1</ele>
        <time>2021-07-11T14:09:21Z</time>
      </trkpt>
      <trkpt lat="49.83046" lon="2.40502">
        <ele>30.1</ele>
        <time>2021-07-11T14:09:22Z</time>
      </trkpt>
      <trkpt lat="49.83045" lon="2.40503">
        <ele>30.1</ele>
        <time>2021-07-11T14:09:24Z</time>
      </trkpt>
      <trkpt lat="49.83044" lon="2.40504">
        <ele>30.1</ele>
        <time>2021-07-11T14:09:25Z</time>
      </trkpt>
      <trkpt lat="49.83042" lon="2.40505">
        <ele>30.1</ele>
        <time>2021-07-11T14:09:26Z</time>
      </trkpt>
      <trkpt lat="49.8304" lon="2.40506">
        <ele>30.1</ele>
        <time>2021-07-11T14:09:27Z</time>
      </trkpt>
      <trkpt lat="49.83039" lon="2.40506">
        <ele>30.1</ele>
        <time>2021-07-11T14:09:28Z</time>
      </trkpt>
      <trkpt lat="49.83038" lon="2.40506">
        <ele>30.1</ele>
        <time>2021-07-11T14:09:29Z</time>
      </trkpt>
      <trkpt lat="49.83037" lon="2.40507">
        <ele>30.1</ele>
        <time>2021-07-11T14:09:30Z</time>
      </trkpt>
      <trkpt lat="49.83035" lon="2.40508">
        <ele>30.1</ele>
        <time>2021-07-11T14:09:32Z</time>
      </trkpt>
      <trkpt lat="49.83034" lon="2.40509">
        <ele>30.1</ele>
        <time>2021-07-11T14:09:33Z</time>
      </trkpt>
      <trkpt lat="49.83032" lon="2.4051">
        <ele>30.1</ele>
        <time>2021-07-11T14:09:34Z</time>
      </trkpt>
      <trkpt lat="49.83031" lon="2.40511">
        <ele>30.1</ele>
        <time>2021-07-11T14:09:35Z</time>
      </trkpt>
      <trkpt lat="49.83029" lon="2.40511">
        <ele>30.1</ele>
        <time>2021-07-11T14:09:36Z</time>
      </trkpt>
      <trkpt lat="49.83028" lon="2.40512">
        <ele>30.1</ele>
        <time>2021-07-11T14:09:37Z</time>
      </trkpt>
      <trkpt lat="49.83026" lon="2.40513">
        <ele>30.1</ele>
        <time>2021-07-11T14:09:39Z</time>
      </trkpt>
      <trkpt lat="49.83025" lon="2.40514">
        <ele>30.1</ele>
        <time>2021-07-11T14:09:40Z</time>
      </trkpt>
      <trkpt lat="49.83024" lon="2.40515">
        <ele>30.1</ele>
        <time>2021-07-11T14:09:41Z</time>
      </trkpt>
      <trkpt lat="49.83022" lon="2.40516">
        <ele>30.1</ele>
        <time>2021-07-11T14:09:42Z</time>
      </trkpt>
      <trkpt lat="49.83021" lon="2.40517">
        <ele>30.1</ele>
        <time>2021-07-11T14:09:43Z</time>
      </trkpt>
      <trkpt lat="49.8302" lon="2.40517">
        <ele>30.1</ele>
        <time>2021-07-11T14:09:44Z</time>
      </trkpt>
      <trkpt lat="49.83019" lon="2.40519">
        <ele>30.1</ele>
        <time>2021-07-11T14:09:45Z</time>
      </trkpt>
      <trkpt lat="49.83018" lon="2.40519">
        <ele>30.1</ele>
        <time>2021-07-11T14:09:46Z</time>
      </trkpt>
      <trkpt lat="49.83017" lon="2.4052">
        <ele>30.1</ele>
        <time>2021-07-11T14:09:47Z</time>
      </trkpt>
      <trkpt lat="49.83016" lon="2.40521">
        <ele>30.1</ele>
        <time>2021-07-11T14:09:48Z</time>
      </trkpt>
      <trkpt lat="49.83014" lon="2.40522">
        <ele>30.1</ele>
        <time>2021-07-11T14:09:49Z</time>
      </trkpt>
      <trkpt lat="49.83013" lon="2.40523">
        <ele>30.2</ele>
        <time>2021-07-11T14:09:50Z</time>
      </trkpt>
      <trkpt lat="49.83012" lon="2.40524">
        <ele>30.2</ele>
        <time>2021-07-11T14:09:51Z</time>
      </trkpt>
      <trkpt lat="49.83011" lon="2.40524">
        <ele>30.2</ele>
        <time>2021-07-11T14:09:53Z</time>
      </trkpt>
      <trkpt lat="49.8301" lon="2.40526">
        <ele>30.2</ele>
        <time>2021-07-11T14:09:54Z</time>
      </trkpt>
      <trkpt lat="49.83009" lon="2.40526">
        <ele>30.2</ele>
        <time>2021-07-11T14:09:55Z</time>
      </trkpt>
      <trkpt lat="49.83008" lon="2.40527">
        <ele>30.2</ele>
        <time>2021-07-11T14:09:56Z</time>
      </trkpt>
      <trkpt lat="49.83006" lon="2.40528">
        <ele>30.2</ele>
        <time>2021-07-11T14:09:57Z</time>
      </trkpt>
      <trkpt lat="49.83004" lon="2.4053">
        <ele>30.2</ele>
        <time>2021-07-11T14:09:58Z</time>
      </trkpt>
      <trkpt lat="49.83003" lon="2.4053">
        <ele>30.2</ele>
        <time>2021-07-11T14:09:59Z</time>
      </trkpt>
      <trkpt lat="49.83003" lon="2.40531">
        <ele>30.2</ele>
        <time>2021-07-11T14:10:00Z</time>
      </trkpt>
      <trkpt lat="49.83001" lon="2.40532">
        <ele>30.2</ele>
        <time>2021-07-11T14:10:01Z</time>
      </trkpt>
      <trkpt lat="49.83" lon="2.40533">
        <ele>30.2</ele>
        <time>2021-07-11T14:10:02Z</time>
      </trkpt>
      <trkpt lat="49.82999" lon="2.40534">
        <ele>30.2</ele>
        <time>2021-07-11T14:10:03Z</time>
      </trkpt>
      <trkpt lat="49.82997" lon="2.40536">
        <ele>30.2</ele>
        <time>2021-07-11T14:10:04Z</time>
      </trkpt>
      <trkpt lat="49.82996" lon="2.40536">
        <ele>30.2</ele>
        <time>2021-07-11T14:10:05Z</time>
      </trkpt>
      <trkpt lat="49.82996" lon="2.40537">
        <ele>30.2</ele>
        <time>2021-07-11T14:10:06Z</time>
      </trkpt>
      <trkpt lat="49.82994" lon="2.40539">
        <ele>30.2</ele>
        <time>2021-07-11T14:10:08Z</time>
      </trkpt>
      <trkpt lat="49.82993" lon="2.4054">
        <ele>30.2</ele>
        <time>2021-07-11T14:10:09Z</time>
      </trkpt>
      <trkpt lat="49.82992" lon="2.40541">
        <ele>30.2</ele>
        <time>2021-07-11T14:10:10Z</time>
      </trkpt>
      <trkpt lat="49.82991" lon="2.40541">
        <ele>30.2</ele>
        <time>2021-07-11T14:10:11Z</time>
      </trkpt>
      <trkpt lat="49.8299" lon="2.40542">
        <ele>30.3</ele>
        <time>2021-07-11T14:10:12Z</time>
      </trkpt>
      <trkpt lat="49.82989" lon="2.40543">
        <ele>30.3</ele>
        <time>2021-07-11T14:10:13Z</time>
      </trkpt>
      <trkpt lat="49.82988" lon="2.40544">
        <ele>30.3</ele>
        <time>2021-07-11T14:10:14Z</time>
      </trkpt>
      <trkpt lat="49.82987" lon="2.40546">
        <ele>30.3</ele>
        <time>2021-07-11T14:10:15Z</time>
      </trkpt>
      <trkpt lat="49.82986" lon="2.40547">
        <ele>30.3</ele>
        <time>2021-07-11T14:10:17Z</time>
      </trkpt>
      <trkpt lat="49.82985" lon="2.4055">
        <ele>30.3</ele>
        <time>2021-07-11T14:10:19Z</time>
      </trkpt>
      <trkpt lat="49.82984" lon="2.40551">
        <ele>30.3</ele>
        <time>2021-07-11T14:10:20Z</time>
      </trkpt>
      <trkpt lat="49.82983" lon="2.40552">
        <ele>30.3</ele>
        <time>2021-07-11T14:10:21Z</time>
      </trkpt>
      <trkpt lat="49.82982" lon="2.40554">
        <ele>30.3</ele>
        <time>2021-07-11T14:10:22Z</time>
      </trkpt>
      <trkpt lat="49.8298" lon="2.40557">
        <ele>30.3</ele>
        <time>2021-07-11T14:10:23Z</time>
      </trkpt>
      <trkpt lat="49.8298" lon="2.40558">
        <ele>30.3</ele>
        <time>2021-07-11T14:10:25Z</time>
      </trkpt>
      <trkpt lat="49.82979" lon="2.40559">
        <ele>30.3</ele>
        <time>2021-07-11T14:10:26Z</time>
      </trkpt>
      <trkpt lat="49.82978" lon="2.40561">
        <ele>30.4</ele>
        <time>2021-07-11T14:10:27Z</time>
      </trkpt>
      <trkpt lat="49.82978" lon="2.40562">
        <ele>30.4</ele>
        <time>2021-07-11T14:10:28Z</time>
      </trkpt>
      <trkpt lat="49.82977" lon="2.40563">
        <ele>30.4</ele>
        <time>2021-07-11T14:10:29Z</time>
      </trkpt>
      <trkpt lat="49.82976" lon="2.40564">
        <ele>30.4</ele>
        <time>2021-07-11T14:10:30Z</time>
      </trkpt>
      <trkpt lat="49.82975" lon="2.40565">
        <ele>30.4</ele>
        <time>2021-07-11T14:10:31Z</time>
      </trkpt>
      <trkpt lat="49.82973" lon="2.40566">
        <ele>30.4</ele>
        <time>2021-07-11T14:10:33Z</time>
      </trkpt>
      <trkpt lat="49.82972" lon="2.40567">
        <ele>30.4</ele>
        <time>2021-07-11T14:10:34Z</time>
      </trkpt>
      <trkpt lat="49.82971" lon="2.40567">
        <ele>30.4</ele>
        <time>2021-07-11T14:10:35Z</time>
      </trkpt>
      <trkpt lat="49.8297" lon="2.40568">
        <ele>30.4</ele>
        <time>2021-07-11T14:10:36Z</time>
      </trkpt>
      <trkpt lat="49.82968" lon="2.40569">
        <ele>30.5</ele>
        <time>2021-07-11T14:10:38Z</time>
      </trkpt>
      <trkpt lat="49.82967" lon="2.4057">
        <ele>30.5</ele>
        <time>2021-07-11T14:10:39Z</time>
      </trkpt>
      <trkpt lat="49.82966" lon="2.40571">
        <ele>30.5</ele>
        <time>2021-07-11T14:10:41Z</time>
      </trkpt>
      <trkpt lat="49.82965" lon="2.40572">
        <ele>30.5</ele>
        <time>2021-07-11T14:10:42Z</time>
      </trkpt>
      <trkpt lat="49.82964" lon="2.40573">
        <ele>30.5</ele>
        <time>2021-07-11T14:10:43Z</time>
      </trkpt>
      <trkpt lat="49.82963" lon="2.40574">
        <ele>30.5</ele>
        <time>2021-07-11T14:10:44Z</time>
      </trkpt>
      <trkpt lat="49.82962" lon="2.40574">
        <ele>30.6</ele>
        <time>2021-07-11T14:10:45Z</time>
      </trkpt>
      <trkpt lat="49.8296" lon="2.40575">
        <ele>30.6</ele>
        <time>2021-07-11T14:10:46Z</time>
      </trkpt>
      <trkpt lat="49.82959" lon="2.40575">
        <ele>30.6</ele>
        <time>2021-07-11T14:10:47Z</time>
      </trkpt>
      <trkpt lat="49.82958" lon="2.40576">
        <ele>30.6</ele>
        <time>2021-07-11T14:10:49Z</time>
      </trkpt>
      <trkpt lat="49.82956" lon="2.40576">
        <ele>30.6</ele>
        <time>2021-07-11T14:10:50Z</time>
      </trkpt>
      <trkpt lat="49.82954" lon="2.40577">
        <ele>30.6</ele>
        <time>2021-07-11T14:10:51Z</time>
      </trkpt>
      <trkpt lat="49.82953" lon="2.40577">
        <ele>30.7</ele>
        <time>2021-07-11T14:10:52Z</time>
      </trkpt>
      <trkpt lat="49.82952" lon="2.40578">
        <ele>30.7</ele>
        <time>2021-07-11T14:10:53Z</time>
      </trkpt>
      <trkpt lat="49.82951" lon="2.40578">
        <ele>30.7</ele>
        <time>2021-07-11T14:10:54Z</time>
      </trkpt>
      <trkpt lat="49.8295" lon="2.40579">
        <ele>30.7</ele>
        <time>2021-07-11T14:10:56Z</time>
      </trkpt>
      <trkpt lat="49.82949" lon="2.40579">
        <ele>30.7</ele>
        <time>2021-07-11T14:10:57Z</time>
      </trkpt>
      <trkpt lat="49.82947" lon="2.4058">
        <ele>30.7</ele>
        <time>2021-07-11T14:10:58Z</time>
      </trkpt>
      <trkpt lat="49.82946" lon="2.4058">
        <ele>30.7</ele>
        <time>2021-07-11T14:10:59Z</time>
      </trkpt>
      <trkpt lat="49.82945" lon="2.4058">
        <ele>30.7</ele>
        <time>2021-07-11T14:11:00Z</time>
      </trkpt>
      <trkpt lat="49.82944" lon="2.40581">
        <ele>30.8</ele>
        <time>2021-07-11T14:11:01Z</time>
      </trkpt>
      <trkpt lat="49.82943" lon="2.40581">
        <ele>30.8</ele>
        <time>2021-07-11T14:11:02Z</time>
      </trkpt>
      <trkpt lat="49.82942" lon="2.40582">
        <ele>30.8</ele>
        <time>2021-07-11T14:11:03Z</time>
      </trkpt>
      <trkpt lat="49.82941" lon="2.40582">
        <ele>30.8</ele>
        <time>2021-07-11T14:11:04Z</time>
      </trkpt>
      <trkpt lat="49.8294" lon="2.40582">
        <ele>30.8</ele>
        <time>2021-07-11T14:11:05Z</time>
      </trkpt>
      <trkpt lat="49.82938" lon="2.40583">
        <ele>30.8</ele>
        <time>2021-07-11T14:11:07Z</time>
      </trkpt>
      <trkpt lat="49.82936" lon="2.40583">
        <ele>30.9</ele>
        <time>2021-07-11T14:11:08Z</time>
      </trkpt>
      <trkpt lat="49.82935" lon="2.40584">
        <ele>30.9</ele>
        <time>2021-07-11T14:11:09Z</time>
      </trkpt>
      <trkpt lat="49.82934" lon="2.40584">
        <ele>30.9</ele>
        <time>2021-07-11T14:11:10Z</time>
      </trkpt>
      <trkpt lat="49.82933" lon="2.40584">
        <ele>30.9</ele>
        <time>2021-07-11T14:11:12Z</time>
      </trkpt>
      <trkpt lat="49.82931" lon="2.40585">
        <ele>30.9</ele>
        <time>2021-07-11T14:11:13Z</time>
      </trkpt>
      <trkpt lat="49.8293" lon="2.40585">
        <ele>31</ele>
        <time>2021-07-11T14:11:14Z</time>
      </trkpt>
      <trkpt lat="49.82929" lon="2.40586">
        <ele>31</ele>
        <time>2021-07-11T14:11:15Z</time>
      </trkpt>
      <trkpt lat="49.82928" lon="2.40586">
        <ele>31</ele>
        <time>2021-07-11T14:11:16Z</time>
      </trkpt>
      <trkpt lat="49.82926" lon="2.40587">
        <ele>31</ele>
        <time>2021-07-11T14:11:17Z</time>
      </trkpt>
      <trkpt lat="49.82925" lon="2.40587">
        <ele>31</ele>
        <time>2021-07-11T14:11:19Z</time>
      </trkpt>
      <trkpt lat="49.82923" lon="2.40588">
        <ele>31.1</ele>
        <time>2021-07-11T14:11:20Z</time>
      </trkpt>
      <trkpt lat="49.82922" lon="2.40588">
        <ele>31.1</ele>
        <time>2021-07-11T14:11:21Z</time>
      </trkpt>
      <trkpt lat="49.82921" lon="2.40589">
        <ele>31.1</ele>
        <time>2021-07-11T14:11:22Z</time>
      </trkpt>
      <trkpt lat="49.8292" lon="2.40589">
        <ele>31.1</ele>
        <time>2021-07-11T14:11:23Z</time>
      </trkpt>
      <trkpt lat="49.82919" lon="2.40588">
        <ele>31.1</ele>
        <time>2021-07-11T14:11:25Z</time>
      </trkpt>
      <trkpt lat="49.82918" lon="2.40587">
        <ele>31.1</ele>
        <time>2021-07-11T14:11:26Z</time>
      </trkpt>
      <trkpt lat="49.82917" lon="2.40585">
        <ele>31.1</ele>
        <time>2021-07-11T14:11:27Z</time>
      </trkpt>
      <trkpt lat="49.82916" lon="2.40584">
        <ele>31.1</ele>
        <time>2021-07-11T14:11:28Z</time>
      </trkpt>
      <trkpt lat="49.82915" lon="2.40584">
        <ele>31.1</ele>
        <time>2021-07-11T14:11:29Z</time>
      </trkpt>
      <trkpt lat="49.82914" lon="2.40584">
        <ele>31.1</ele>
        <time>2021-07-11T14:11:30Z</time>
      </trkpt>
      <trkpt lat="49.82912" lon="2.40584">
        <ele>31.1</ele>
        <time>2021-07-11T14:11:31Z</time>
      </trkpt>
      <trkpt lat="49.82911" lon="2.40584">
        <ele>31.1</ele>
        <time>2021-07-11T14:11:32Z</time>
      </trkpt>
      <trkpt lat="49.8291" lon="2.40585">
        <ele>31.1</ele>
        <time>2021-07-11T14:11:33Z</time>
      </trkpt>
      <trkpt lat="49.82907" lon="2.40587">
        <ele>31.1</ele>
        <time>2021-07-11T14:11:35Z</time>
      </trkpt>
      <trkpt lat="49.82906" lon="2.40588">
        <ele>31.1</ele>
        <time>2021-07-11T14:11:36Z</time>
      </trkpt>
      <trkpt lat="49.82905" lon="2.40589">
        <ele>31.1</ele>
        <time>2021-07-11T14:11:37Z</time>
      </trkpt>
      <trkpt lat="49.82903" lon="2.4059">
        <ele>31.1</ele>
        <time>2021-07-11T14:11:39Z</time>
      </trkpt>
      <trkpt lat="49.82902" lon="2.40591">
        <ele>31.1</ele>
        <time>2021-07-11T14:11:40Z</time>
      </trkpt>
      <trkpt lat="49.82901" lon="2.40592">
        <ele>31.1</ele>
        <time>2021-07-11T14:11:41Z</time>
      </trkpt>
      <trkpt lat="49.829" lon="2.40593">
        <ele>31.1</ele>
        <time>2021-07-11T14:11:42Z</time>
      </trkpt>
      <trkpt lat="49.82898" lon="2.40594">
        <ele>31.2</ele>
        <time>2021-07-11T14:11:43Z</time>
      </trkpt>
      <trkpt lat="49.82897" lon="2.40594">
        <ele>31.2</ele>
        <time>2021-07-11T14:11:44Z</time>
      </trkpt>
      <trkpt lat="49.82896" lon="2.40595">
        <ele>31.2</ele>
        <time>2021-07-11T14:11:45Z</time>
      </trkpt>
      <trkpt lat="49.82895" lon="2.40595">
        <ele>31.2</ele>
        <time>2021-07-11T14:11:46Z</time>
      </trkpt>
      <trkpt lat="49.82893" lon="2.40596">
        <ele>31.2</ele>
        <time>2021-07-11T14:11:47Z</time>
      </trkpt>
      <trkpt lat="49.82892" lon="2.40596">
        <ele>31.2</ele>
        <time>2021-07-11T14:11:49Z</time>
      </trkpt>
      <trkpt lat="49.82891" lon="2.40597">
        <ele>31.2</ele>
        <time>2021-07-11T14:11:50Z</time>
      </trkpt>
      <trkpt lat="49.82889" lon="2.40597">
        <ele>31.2</ele>
        <time>2021-07-11T14:11:51Z</time>
      </trkpt>
      <trkpt lat="49.82888" lon="2.40597">
        <ele>31.2</ele>
        <time>2021-07-11T14:11:52Z</time>
      </trkpt>
      <trkpt lat="49.82887" lon="2.40598">
        <ele>31.2</ele>
        <time>2021-07-11T14:11:53Z</time>
      </trkpt>
      <trkpt lat="49.82886" lon="2.40599">
        <ele>31.2</ele>
        <time>2021-07-11T14:11:54Z</time>
      </trkpt>
      <trkpt lat="49.82885" lon="2.40599">
        <ele>31.2</ele>
        <time>2021-07-11T14:11:55Z</time>
      </trkpt>
      <trkpt lat="49.82884" lon="2.406">
        <ele>31.3</ele>
        <time>2021-07-11T14:11:57Z</time>
      </trkpt>
      <trkpt lat="49.82883" lon="2.40601">
        <ele>31.3</ele>
        <time>2021-07-11T14:11:58Z</time>
      </trkpt>
      <trkpt lat="49.82881" lon="2.40601">
        <ele>31.3</ele>
        <time>2021-07-11T14:11:59Z</time>
      </trkpt>
      <trkpt lat="49.8288" lon="2.40601">
        <ele>31.2</ele>
        <time>2021-07-11T14:12:00Z</time>
      </trkpt>
      <trkpt lat="49.82879" lon="2.40601">
        <ele>31.2</ele>
        <time>2021-07-11T14:12:01Z</time>
      </trkpt>
      <trkpt lat="49.82878" lon="2.40602">
        <ele>31.2</ele>
        <time>2021-07-11T14:12:03Z</time>
      </trkpt>
      <trkpt lat="49.82877" lon="2.40601">
        <ele>31.2</ele>
        <time>2021-07-11T14:12:04Z</time>
      </trkpt>
      <trkpt lat="49.82875" lon="2.40601">
        <ele>31.2</ele>
        <time>2021-07-11T14:12:06Z</time>
      </trkpt>
      <trkpt lat="49.82874" lon="2.40602">
        <ele>31.2</ele>
        <time>2021-07-11T14:12:07Z</time>
      </trkpt>
      <trkpt lat="49.82874" lon="2.40602">
        <ele>31.2</ele>
        <time>2021-07-11T14:12:08Z</time>
      </trkpt>
      <trkpt lat="49.82874" lon="2.40602">
        <ele>31.2</ele>
        <time>2021-07-11T14:12:10Z</time>
      </trkpt>
      <trkpt lat="49.82873" lon="2.40602">
        <ele>31.2</ele>
        <time>2021-07-11T14:12:11Z</time>
      </trkpt>
      <trkpt lat="49.82873" lon="2.40602">
        <ele>31.2</ele>
        <time>2021-07-11T14:12:13Z</time>
      </trkpt>
      <trkpt lat="49.82873" lon="2.40602">
        <ele>31.2</ele>
        <time>2021-07-11T14:12:14Z</time>
      </trkpt>
      <trkpt lat="49.82873" lon="2.40602">
        <ele>31.2</ele>
        <time>2021-07-11T14:12:16Z</time>
      </trkpt>
      <trkpt lat="49.82873" lon="2.40603">
        <ele>31.2</ele>
        <time>2021-07-11T14:12:18Z</time>
      </trkpt>
      <trkpt lat="49.82874" lon="2.40603">
        <ele>31.2</ele>
        <time>2021-07-11T14:12:19Z</time>
      </trkpt>
      <trkpt lat="49.82874" lon="2.40603">
        <ele>31.2</ele>
        <time>2021-07-11T14:12:20Z</time>
      </trkpt>
      <trkpt lat="49.82874" lon="2.40603">
        <ele>31.2</ele>
        <time>2021-07-11T14:12:22Z</time>
      </trkpt>
      <trkpt lat="49.82874" lon="2.40603">
        <ele>31.2</ele>
        <time>2021-07-11T14:12:23Z</time>
      </trkpt>
      <trkpt lat="49.82874" lon="2.40603">
        <ele>31.2</ele>
        <time>2021-07-11T14:12:25Z</time>
      </trkpt>
      <trkpt lat="49.82874" lon="2.40603">
        <ele>31.2</ele>
        <time>2021-07-11T14:12:27Z</time>
      </trkpt>
      <trkpt lat="49.82875" lon="2.40604">
        <ele>31.2</ele>
        <time>2021-07-11T14:12:29Z</time>
      </trkpt>
      <trkpt lat="49.82875" lon="2.40604">
        <ele>31.2</ele>
        <time>2021-07-11T14:12:31Z</time>
      </trkpt>
      <trkpt lat="49.82875" lon="2.40604">
        <ele>31.2</ele>
        <time>2021-07-11T14:12:32Z</time>
      </trkpt>
      <trkpt lat="49.82875" lon="2.40604">
        <ele>31.2</ele>
        <time>2021-07-11T14:12:34Z</time>
      </trkpt>
      <trkpt lat="49.82875" lon="2.40604">
        <ele>31.2</ele>
        <time>2021-07-11T14:12:35Z</time>
      </trkpt>
      <trkpt lat="49.82875" lon="2.40604">
        <ele>31.2</ele>
        <time>2021-07-11T14:12:37Z</time>
      </trkpt>
      <trkpt lat="49.82875" lon="2.40604">
        <ele>31.2</ele>
        <time>2021-07-11T14:12:39Z</time>
      </trkpt>
      <trkpt lat="49.82875" lon="2.40604">
        <ele>31.2</ele>
        <time>2021-07-11T14:12:41Z</time>
      </trkpt>
      <trkpt lat="49.82875" lon="2.40604">
        <ele>31.2</ele>
        <time>2021-07-11T14:12:42Z</time>
      </trkpt>
      <trkpt lat="49.82874" lon="2.40604">
        <ele>31.2</ele>
        <time>2021-07-11T14:12:43Z</time>
      </trkpt>
      <trkpt lat="49.82873" lon="2.40604">
        <ele>31.2</ele>
        <time>2021-07-11T14:12:44Z</time>
      </trkpt>
      <trkpt lat="49.82872" lon="2.40604">
        <ele>31.1</ele>
        <time>2021-07-11T14:12:45Z</time>
      </trkpt>
      <trkpt lat="49.8287" lon="2.40604">
        <ele>31.1</ele>
        <time>2021-07-11T14:12:46Z</time>
      </trkpt>
      <trkpt lat="49.82868" lon="2.40604">
        <ele>31.1</ele>
        <time>2021-07-11T14:12:48Z</time>
      </trkpt>
      <trkpt lat="49.82867" lon="2.40604">
        <ele>31.1</ele>
        <time>2021-07-11T14:12:49Z</time>
      </trkpt>
      <trkpt lat="49.82865" lon="2.40604">
        <ele>31</ele>
        <time>2021-07-11T14:12:50Z</time>
      </trkpt>
      <trkpt lat="49.82864" lon="2.40605">
        <ele>31</ele>
        <time>2021-07-11T14:12:51Z</time>
      </trkpt>
      <trkpt lat="49.82862" lon="2.40605">
        <ele>31</ele>
        <time>2021-07-11T14:12:52Z</time>
      </trkpt>
      <trkpt lat="49.82861" lon="2.40605">
        <ele>31</ele>
        <time>2021-07-11T14:12:53Z</time>
      </trkpt>
      <trkpt lat="49.8286" lon="2.40605">
        <ele>31</ele>
        <time>2021-07-11T14:12:54Z</time>
      </trkpt>
      <trkpt lat="49.8286" lon="2.40606">
        <ele>31</ele>
        <time>2021-07-11T14:12:55Z</time>
      </trkpt>
      <trkpt lat="49.82859" lon="2.40606">
        <ele>31</ele>
        <time>2021-07-11T14:12:57Z</time>
      </trkpt>
      <trkpt lat="49.82858" lon="2.40605">
        <ele>30.9</ele>
        <time>2021-07-11T14:12:58Z</time>
      </trkpt>
      <trkpt lat="49.82857" lon="2.40605">
        <ele>30.9</ele>
        <time>2021-07-11T14:12:59Z</time>
      </trkpt>
      <trkpt lat="49.82855" lon="2.40604">
        <ele>30.9</ele>
        <time>2021-07-11T14:13:00Z</time>
      </trkpt>
      <trkpt lat="49.82854" lon="2.40603">
        <ele>30.9</ele>
        <time>2021-07-11T14:13:01Z</time>
      </trkpt>
      <trkpt lat="49.82853" lon="2.40603">
        <ele>30.9</ele>
        <time>2021-07-11T14:13:02Z</time>
      </trkpt>
      <trkpt lat="49.82852" lon="2.40602">
        <ele>30.8</ele>
        <time>2021-07-11T14:13:03Z</time>
      </trkpt>
      <trkpt lat="49.82852" lon="2.406">
        <ele>30.8</ele>
        <time>2021-07-11T14:13:05Z</time>
      </trkpt>
      <trkpt lat="49.8285" lon="2.40599">
        <ele>30.8</ele>
        <time>2021-07-11T14:13:06Z</time>
      </trkpt>
      <trkpt lat="49.82848" lon="2.40598">
        <ele>30.8</ele>
        <time>2021-07-11T14:13:07Z</time>
      </trkpt>
      <trkpt lat="49.82847" lon="2.40598">
        <ele>30.8</ele>
        <time>2021-07-11T14:13:08Z</time>
      </trkpt>
      <trkpt lat="49.82845" lon="2.40597">
        <ele>30.8</ele>
        <time>2021-07-11T14:13:09Z</time>
      </trkpt>
      <trkpt lat="49.82843" lon="2.40596">
        <ele>30.8</ele>
        <time>2021-07-11T14:13:10Z</time>
      </trkpt>
      <trkpt lat="49.82842" lon="2.40596">
        <ele>30.8</ele>
        <time>2021-07-11T14:13:12Z</time>
      </trkpt>
      <trkpt lat="49.82841" lon="2.40595">
        <ele>30.8</ele>
        <time>2021-07-11T14:13:13Z</time>
      </trkpt>
      <trkpt lat="49.82839" lon="2.40595">
        <ele>30.8</ele>
        <time>2021-07-11T14:13:14Z</time>
      </trkpt>
      <trkpt lat="49.82838" lon="2.40594">
        <ele>30.8</ele>
        <time>2021-07-11T14:13:16Z</time>
      </trkpt>
      <trkpt lat="49.82837" lon="2.40593">
        <ele>30.8</ele>
        <time>2021-07-11T14:13:17Z</time>
      </trkpt>
      <trkpt lat="49.82837" lon="2.40593">
        <ele>30.8</ele>
        <time>2021-07-11T14:13:18Z</time>
      </trkpt>
      <trkpt lat="49.82838" lon="2.40593">
        <ele>30.8</ele>
        <time>2021-07-11T14:13:20Z</time>
      </trkpt>
      <trkpt lat="49.82838" lon="2.40593">
        <ele>30.8</ele>
        <time>2021-07-11T14:13:22Z</time>
      </trkpt>
      <trkpt lat="49.82838" lon="2.40593">
        <ele>30.8</ele>
        <time>2021-07-11T14:13:23Z</time>
      </trkpt>
      <trkpt lat="49.82838" lon="2.40593">
        <ele>30.8</ele>
        <time>2021-07-11T14:13:25Z</time>
      </trkpt>
      <trkpt lat="49.82838" lon="2.40593">
        <ele>30.8</ele>
        <time>2021-07-11T14:13:26Z</time>
      </trkpt>
      <trkpt lat="49.82838" lon="2.40593">
        <ele>30.8</ele>
        <time>2021-07-11T14:13:28Z</time>
      </trkpt>
      <trkpt lat="49.82838" lon="2.40593">
        <ele>30.8</ele>
        <time>2021-07-11T14:13:30Z</time>
      </trkpt>
      <trkpt lat="49.82838" lon="2.40593">
        <ele>30.8</ele>
        <time>2021-07-11T14:13:31Z</time>
      </trkpt>
      <trkpt lat="49.82838" lon="2.40593">
        <ele>30.8</ele>
        <time>2021-07-11T14:13:33Z</time>
      </trkpt>
      <trkpt lat="49.82838" lon="2.40593">
        <ele>30.8</ele>
        <time>2021-07-11T14:13:35Z</time>
      </trkpt>
      <trkpt lat="49.82838" lon="2.40593">
        <ele>30.8</ele>
        <time>2021-07-11T14:13:36Z</time>
      </trkpt>
      <trkpt lat="49.82838" lon="2.40593">
        <ele>30.8</ele>
        <time>2021-07-11T14:13:38Z</time>
      </trkpt>
      <trkpt lat="49.82838" lon="2.40593">
        <ele>30.8</ele>
        <time>2021-07-11T14:13:40Z</time>
      </trkpt>
      <trkpt lat="49.82838" lon="2.40593">
        <ele>30.8</ele>
        <time>2021-07-11T14:13:41Z</time>
      </trkpt>
      <trkpt lat="49.82838" lon="2.40593">
        <ele>30.8</ele>
        <time>2021-07-11T14:13:42Z</time>
      </trkpt>
      <trkpt lat="49.82838" lon="2.40593">
        <ele>30.8</ele>
        <time>2021-07-11T14:13:43Z</time>
      </trkpt>
      <trkpt lat="49.82838" lon="2.40593">
        <ele>30.8</ele>
        <time>2021-07-11T14:13:44Z</time>
      </trkpt>
      <trkpt lat="49.82838" lon="2.40593">
        <ele>30.8</ele>
        <time>2021-07-11T14:13:46Z</time>
      </trkpt>
      <trkpt lat="49.82838" lon="2.40593">
        <ele>30.8</ele>
        <time>2021-07-11T14:13:47Z</time>
      </trkpt>
      <trkpt lat="49.82838" lon="2.40593">
        <ele>30.8</ele>
        <time>2021-07-11T14:13:49Z</time>
      </trkpt>
      <trkpt lat="49.82838" lon="2.40593">
        <ele>30.8</ele>
        <time>2021-07-11T14:13:50Z</time>
      </trkpt>
      <trkpt lat="49.82838" lon="2.40593">
        <ele>30.8</ele>
        <time>2021-07-11T14:13:52Z</time>
      </trkpt>
      <trkpt lat="49.82838" lon="2.40593">
        <ele>30.8</ele>
        <time>2021-07-11T14:13:53Z</time>
      </trkpt>
      <trkpt lat="49.82838" lon="2.40593">
        <ele>30.8</ele>
        <time>2021-07-11T14:13:54Z</time>
      </trkpt>
      <trkpt lat="49.82838" lon="2.40593">
        <ele>30.8</ele>
        <time>2021-07-11T14:13:55Z</time>
      </trkpt>
      <trkpt lat="49.82838" lon="2.40593">
        <ele>30.8</ele>
        <time>2021-07-11T14:13:56Z</time>
      </trkpt>
      <trkpt lat="49.82838" lon="2.40593">
        <ele>30.8</ele>
        <time>2021-07-11T14:13:57Z</time>
      </trkpt>
      <trkpt lat="49.82838" lon="2.40593">
        <ele>30.8</ele>
        <time>2021-07-11T14:13:59Z</time>
      </trkpt>
      <trkpt lat="49.82838" lon="2.40593">
        <ele>30.8</ele>
        <time>2021-07-11T14:14:00Z</time>
      </trkpt>
      <trkpt lat="49.82838" lon="2.40593">
        <ele>30.8</ele>
        <time>2021-07-11T14:14:02Z</time>
      </trkpt>
      <trkpt lat="49.82838" lon="2.40593">
        <ele>30.8</ele>
        <time>2021-07-11T14:14:04Z</time>
      </trkpt>
      <trkpt lat="49.82838" lon="2.40593">
        <ele>30.8</ele>
        <time>2021-07-11T14:14:05Z</time>
      </trkpt>
      <trkpt lat="49.82838" lon="2.40593">
        <ele>30.8</ele>
        <time>2021-07-11T14:14:07Z</time>
      </trkpt>
      <trkpt lat="49.82838" lon="2.40593">
        <ele>30.8</ele>
        <time>2021-07-11T14:14:08Z</time>
      </trkpt>
      <trkpt lat="49.82838" lon="2.40593">
        <ele>30.8</ele>
        <time>2021-07-11T14:14:09Z</time>
      </trkpt>
      <trkpt lat="49.82838" lon="2.40593">
        <ele>30.8</ele>
        <time>2021-07-11T14:14:11Z</time>
      </trkpt>
      <trkpt lat="49.82838" lon="2.40593">
        <ele>30.8</ele>
        <time>2021-07-11T14:14:12Z</time>
      </trkpt>
      <trkpt lat="49.82838" lon="2.40593">
        <ele>30.8</ele>
        <time>2021-07-11T14:14:14Z</time>
      </trkpt>
      <trkpt lat="49.82838" lon="2.40593">
        <ele>30.8</ele>
        <time>2021-07-11T14:14:16Z</time>
      </trkpt>
      <trkpt lat="49.82838" lon="2.40593">
        <ele>30.8</ele>
        <time>2021-07-11T14:14:18Z</time>
      </trkpt>
      <trkpt lat="49.82838" lon="2.40593">
        <ele>30.8</ele>
        <time>2021-07-11T14:14:19Z</time>
      </trkpt>
      <trkpt lat="49.82838" lon="2.40593">
        <ele>30.8</ele>
        <time>2021-07-11T14:14:21Z</time>
      </trkpt>
      <trkpt lat="49.82838" lon="2.40593">
        <ele>30.8</ele>
        <time>2021-07-11T14:14:23Z</time>
      </trkpt>
      <trkpt lat="49.82838" lon="2.40593">
        <ele>30.8</ele>
        <time>2021-07-11T14:14:25Z</time>
      </trkpt>
      <trkpt lat="49.82838" lon="2.40593">
        <ele>30.8</ele>
        <time>2021-07-11T14:14:26Z</time>
      </trkpt>
      <trkpt lat="49.82838" lon="2.40593">
        <ele>30.8</ele>
        <time>2021-07-11T14:14:28Z</time>
      </trkpt>
      <trkpt lat="49.82838" lon="2.40593">
        <ele>30.8</ele>
        <time>2021-07-11T14:14:29Z</time>
      </trkpt>
      <trkpt lat="49.82838" lon="2.40593">
        <ele>30.8</ele>
        <time>2021-07-11T14:14:31Z</time>
      </trkpt>
      <trkpt lat="49.82838" lon="2.40593">
        <ele>30.8</ele>
        <time>2021-07-11T14:14:33Z</time>
      </trkpt>
      <trkpt lat="49.82838" lon="2.40593">
        <ele>30.8</ele>
        <time>2021-07-11T14:14:35Z</time>
      </trkpt>
      <trkpt lat="49.82838" lon="2.40593">
        <ele>30.8</ele>
        <time>2021-07-11T14:14:37Z</time>
      </trkpt>
      <trkpt lat="49.82838" lon="2.40593">
        <ele>30.8</ele>
        <time>2021-07-11T14:14:39Z</time>
      </trkpt>
      <trkpt lat="49.82838" lon="2.40593">
        <ele>30.8</ele>
        <time>2021-07-11T14:14:40Z</time>
      </trkpt>
      <trkpt lat="49.82838" lon="2.40593">
        <ele>30.8</ele>
        <time>2021-07-11T14:14:42Z</time>
      </trkpt>
      <trkpt lat="49.82838" lon="2.40593">
        <ele>30.8</ele>
        <time>2021-07-11T14:14:44Z</time>
      </trkpt>
      <trkpt lat="49.82838" lon="2.40593">
        <ele>30.8</ele>
        <time>2021-07-11T14:14:46Z</time>
      </trkpt>
      <trkpt lat="49.82838" lon="2.40593">
        <ele>30.8</ele>
        <time>2021-07-11T14:14:48Z</time>
      </trkpt>
      <trkpt lat="49.82838" lon="2.40592">
        <ele>30.8</ele>
        <time>2021-07-11T14:14:49Z</time>
      </trkpt>
      <trkpt lat="49.82837" lon="2.40589">
        <ele>30.9</ele>
        <time>2021-07-11T14:14:51Z</time>
      </trkpt>
      <trkpt lat="49.82837" lon="2.4059">
        <ele>30.9</ele>
        <time>2021-07-11T14:14:52Z</time>
      </trkpt>
      <trkpt lat="49.82836" lon="2.40589">
        <ele>30.9</ele>
        <time>2021-07-11T14:14:54Z</time>
      </trkpt>
      <trkpt lat="49.82836" lon="2.40588">
        <ele>30.9</ele>
        <time>2021-07-11T14:14:55Z</time>
      </trkpt>
      <trkpt lat="49.82835" lon="2.40588">
        <ele>30.9</ele>
        <time>2021-07-11T14:14:56Z</time>
      </trkpt>
      <trkpt lat="49.82834" lon="2.40588">
        <ele>30.9</ele>
        <time>2021-07-11T14:14:57Z</time>
      </trkpt>
      <trkpt lat="49.82833" lon="2.40587">
        <ele>30.9</ele>
        <time>2021-07-11T14:14:59Z</time>
      </trkpt>
      <trkpt lat="49.82832" lon="2.40587">
        <ele>30.9</ele>
        <time>2021-07-11T14:15:00Z</time>
      </trkpt>
      <trkpt lat="49.82832" lon="2.40587">
        <ele>30.9</ele>
        <time>2021-07-11T14:15:02Z</time>
      </trkpt>
      <trkpt lat="49.82832" lon="2.40588">
        <ele>30.9</ele>
        <time>2021-07-11T14:15:03Z</time>
      </trkpt>
      <trkpt lat="49.82832" lon="2.40588">
        <ele>30.9</ele>
        <time>2021-07-11T14:15:05Z</time>
      </trkpt>
      <trkpt lat="49.82832" lon="2.40588">
        <ele>30.9</ele>
        <time>2021-07-11T14:15:07Z</time>
      </trkpt>
      <trkpt lat="49.82832" lon="2.40588">
        <ele>30.9</ele>
        <time>2021-07-11T14:15:08Z</time>
      </trkpt>
      <trkpt lat="49.82832" lon="2.40588">
        <ele>30.9</ele>
        <time>2021-07-11T14:15:09Z</time>
      </trkpt>
      <trkpt lat="49.82832" lon="2.40588">
        <ele>30.9</ele>
        <time>2021-07-11T14:15:10Z</time>
      </trkpt>
      <trkpt lat="49.82832" lon="2.40588">
        <ele>30.9</ele>
        <time>2021-07-11T14:15:12Z</time>
      </trkpt>
      <trkpt lat="49.82832" lon="2.40588">
        <ele>30.9</ele>
        <time>2021-07-11T14:15:13Z</time>
      </trkpt>
      <trkpt lat="49.82833" lon="2.40588">
        <ele>31</ele>
        <time>2021-07-11T14:15:15Z</time>
      </trkpt>
      <trkpt lat="49.82833" lon="2.40588">
        <ele>31</ele>
        <time>2021-07-11T14:15:17Z</time>
      </trkpt>
      <trkpt lat="49.82833" lon="2.40588">
        <ele>31</ele>
        <time>2021-07-11T14:15:18Z</time>
      </trkpt>
      <trkpt lat="49.82833" lon="2.40588">
        <ele>31</ele>
        <time>2021-07-11T14:15:20Z</time>
      </trkpt>
      <trkpt lat="49.82833" lon="2.40588">
        <ele>31</ele>
        <time>2021-07-11T14:15:21Z</time>
      </trkpt>
      <trkpt lat="49.82833" lon="2.40588">
        <ele>31</ele>
        <time>2021-07-11T14:15:23Z</time>
      </trkpt>
      <trkpt lat="49.82833" lon="2.40587">
        <ele>31</ele>
        <time>2021-07-11T14:15:24Z</time>
      </trkpt>
      <trkpt lat="49.82831" lon="2.40587">
        <ele>31</ele>
        <time>2021-07-11T14:15:26Z</time>
      </trkpt>
      <trkpt lat="49.82831" lon="2.40587">
        <ele>31</ele>
        <time>2021-07-11T14:15:27Z</time>
      </trkpt>
      <trkpt lat="49.8283" lon="2.40586">
        <ele>31</ele>
        <time>2021-07-11T14:15:28Z</time>
      </trkpt>
      <trkpt lat="49.82829" lon="2.40586">
        <ele>31</ele>
        <time>2021-07-11T14:15:30Z</time>
      </trkpt>
      <trkpt lat="49.82829" lon="2.40586">
        <ele>31</ele>
        <time>2021-07-11T14:15:31Z</time>
      </trkpt>
      <trkpt lat="49.82827" lon="2.40586">
        <ele>31.1</ele>
        <time>2021-07-11T14:15:33Z</time>
      </trkpt>
      <trkpt lat="49.82827" lon="2.40586">
        <ele>31.1</ele>
        <time>2021-07-11T14:15:34Z</time>
      </trkpt>
      <trkpt lat="49.82826" lon="2.40586">
        <ele>31.1</ele>
        <time>2021-07-11T14:15:36Z</time>
      </trkpt>
      <trkpt lat="49.82825" lon="2.40587">
        <ele>31.1</ele>
        <time>2021-07-11T14:15:38Z</time>
      </trkpt>
      <trkpt lat="49.82825" lon="2.40587">
        <ele>31.1</ele>
        <time>2021-07-11T14:15:39Z</time>
      </trkpt>
      <trkpt lat="49.82825" lon="2.40587">
        <ele>31.1</ele>
        <time>2021-07-11T14:15:41Z</time>
      </trkpt>
      <trkpt lat="49.82826" lon="2.40587">
        <ele>31.1</ele>
        <time>2021-07-11T14:15:43Z</time>
      </trkpt>
      <trkpt lat="49.82826" lon="2.40587">
        <ele>31.1</ele>
        <time>2021-07-11T14:15:44Z</time>
      </trkpt>
      <trkpt lat="49.82826" lon="2.40587">
        <ele>31.1</ele>
        <time>2021-07-11T14:15:46Z</time>
      </trkpt>
      <trkpt lat="49.82826" lon="2.40587">
        <ele>31.1</ele>
        <time>2021-07-11T14:15:47Z</time>
      </trkpt>
      <trkpt lat="49.82826" lon="2.40587">
        <ele>31.1</ele>
        <time>2021-07-11T14:15:48Z</time>
      </trkpt>
      <trkpt lat="49.82826" lon="2.40587">
        <ele>31.1</ele>
        <time>2021-07-11T14:15:50Z</time>
      </trkpt>
      <trkpt lat="49.82826" lon="2.40588">
        <ele>31.1</ele>
        <time>2021-07-11T14:15:52Z</time>
      </trkpt>
      <trkpt lat="49.82827" lon="2.40589">
        <ele>31.1</ele>
        <time>2021-07-11T14:15:54Z</time>
      </trkpt>
      <trkpt lat="49.82825" lon="2.40588">
        <ele>31.2</ele>
        <time>2021-07-11T14:15:56Z</time>
      </trkpt>
      <trkpt lat="49.82825" lon="2.40588">
        <ele>31.2</ele>
        <time>2021-07-11T14:15:57Z</time>
      </trkpt>
      <trkpt lat="49.82824" lon="2.40589">
        <ele>31.2</ele>
        <time>2021-07-11T14:15:59Z</time>
      </trkpt>
      <trkpt lat="49.82823" lon="2.40589">
        <ele>31.2</ele>
        <time>2021-07-11T14:16:00Z</time>
      </trkpt>
      <trkpt lat="49.82822" lon="2.40589">
        <ele>31.2</ele>
        <time>2021-07-11T14:16:02Z</time>
      </trkpt>
      <trkpt lat="49.82821" lon="2.40588">
        <ele>31.2</ele>
        <time>2021-07-11T14:16:03Z</time>
      </trkpt>
      <trkpt lat="49.8282" lon="2.40589">
        <ele>31.2</ele>
        <time>2021-07-11T14:16:04Z</time>
      </trkpt>
      <trkpt lat="49.82819" lon="2.40588">
        <ele>31.3</ele>
        <time>2021-07-11T14:16:06Z</time>
      </trkpt>
      <trkpt lat="49.82818" lon="2.40588">
        <ele>31.3</ele>
        <time>2021-07-11T14:16:07Z</time>
      </trkpt>
      <trkpt lat="49.82817" lon="2.40588">
        <ele>31.3</ele>
        <time>2021-07-11T14:16:08Z</time>
      </trkpt>
      <trkpt lat="49.82816" lon="2.40588">
        <ele>31.3</ele>
        <time>2021-07-11T14:16:09Z</time>
      </trkpt>
      <trkpt lat="49.82815" lon="2.40588">
        <ele>31.3</ele>
        <time>2021-07-11T14:16:10Z</time>
      </trkpt>
      <trkpt lat="49.82814" lon="2.40587">
        <ele>31.3</ele>
        <time>2021-07-11T14:16:11Z</time>
      </trkpt>
      <trkpt lat="49.82813" lon="2.40586">
        <ele>31.4</ele>
        <time>2021-07-11T14:16:12Z</time>
      </trkpt>
      <trkpt lat="49.82812" lon="2.40586">
        <ele>31.4</ele>
        <time>2021-07-11T14:16:14Z</time>
      </trkpt>
      <trkpt lat="49.8281" lon="2.40584">
        <ele>31.4</ele>
        <time>2021-07-11T14:16:16Z</time>
      </trkpt>
      <trkpt lat="49.8281" lon="2.40583">
        <ele>31.4</ele>
        <time>2021-07-11T14:16:17Z</time>
      </trkpt>
      <trkpt lat="49.82809" lon="2.40583">
        <ele>31.4</ele>
        <time>2021-07-11T14:16:19Z</time>
      </trkpt>
      <trkpt lat="49.82808" lon="2.40582">
        <ele>31.5</ele>
        <time>2021-07-11T14:16:20Z</time>
      </trkpt>
      <trkpt lat="49.82807" lon="2.40582">
        <ele>31.5</ele>
        <time>2021-07-11T14:16:21Z</time>
      </trkpt>
      <trkpt lat="49.82806" lon="2.40581">
        <ele>31.5</ele>
        <time>2021-07-11T14:16:22Z</time>
      </trkpt>
      <trkpt lat="49.82805" lon="2.40581">
        <ele>31.5</ele>
        <time>2021-07-11T14:16:23Z</time>
      </trkpt>
      <trkpt lat="49.82804" lon="2.40579">
        <ele>31.5</ele>
        <time>2021-07-11T14:16:25Z</time>
      </trkpt>
      <trkpt lat="49.82803" lon="2.40577">
        <ele>31.5</ele>
        <time>2021-07-11T14:16:27Z</time>
      </trkpt>
      <trkpt lat="49.82802" lon="2.40576">
        <ele>31.6</ele>
        <time>2021-07-11T14:16:28Z</time>
      </trkpt>
      <trkpt lat="49.82801" lon="2.40576">
        <ele>31.6</ele>
        <time>2021-07-11T14:16:29Z</time>
      </trkpt>
      <trkpt lat="49.82801" lon="2.40576">
        <ele>31.6</ele>
        <time>2021-07-11T14:16:30Z</time>
      </trkpt>
      <trkpt lat="49.828" lon="2.40575">
        <ele>31.6</ele>
        <time>2021-07-11T14:16:32Z</time>
      </trkpt>
      <trkpt lat="49.82799" lon="2.40575">
        <ele>31.6</ele>
        <time>2021-07-11T14:16:33Z</time>
      </trkpt>
      <trkpt lat="49.82798" lon="2.40576">
        <ele>31.6</ele>
        <time>2021-07-11T14:16:34Z</time>
      </trkpt>
      <trkpt lat="49.82797" lon="2.40576">
        <ele>31.6</ele>
        <time>2021-07-11T14:16:35Z</time>
      </trkpt>
      <trkpt lat="49.82796" lon="2.40576">
        <ele>31.6</ele>
        <time>2021-07-11T14:16:36Z</time>
      </trkpt>
      <trkpt lat="49.82794" lon="2.40575">
        <ele>31.7</ele>
        <time>2021-07-11T14:16:37Z</time>
      </trkpt>
      <trkpt lat="49.82794" lon="2.40574">
        <ele>31.7</ele>
        <time>2021-07-11T14:16:38Z</time>
      </trkpt>
      <trkpt lat="49.82793" lon="2.40574">
        <ele>31.7</ele>
        <time>2021-07-11T14:16:39Z</time>
      </trkpt>
      <trkpt lat="49.82792" lon="2.40573">
        <ele>31.7</ele>
        <time>2021-07-11T14:16:41Z</time>
      </trkpt>
      <trkpt lat="49.82791" lon="2.40572">
        <ele>31.7</ele>
        <time>2021-07-11T14:16:42Z</time>
      </trkpt>
      <trkpt lat="49.8279" lon="2.40571">
        <ele>31.7</ele>
        <time>2021-07-11T14:16:43Z</time>
      </trkpt>
      <trkpt lat="49.82788" lon="2.4057">
        <ele>31.7</ele>
        <time>2021-07-11T14:16:44Z</time>
      </trkpt>
      <trkpt lat="49.82787" lon="2.40569">
        <ele>31.8</ele>
        <time>2021-07-11T14:16:45Z</time>
      </trkpt>
      <trkpt lat="49.82787" lon="2.40568">
        <ele>31.8</ele>
        <time>2021-07-11T14:16:46Z</time>
      </trkpt>
      <trkpt lat="49.82785" lon="2.40567">
        <ele>31.8</ele>
        <time>2021-07-11T14:16:47Z</time>
      </trkpt>
      <trkpt lat="49.82784" lon="2.40566">
        <ele>31.8</ele>
        <time>2021-07-11T14:16:48Z</time>
      </trkpt>
      <trkpt lat="49.82783" lon="2.40566">
        <ele>31.8</ele>
        <time>2021-07-11T14:16:49Z</time>
      </trkpt>
      <trkpt lat="49.82783" lon="2.40566">
        <ele>31.8</ele>
        <time>2021-07-11T14:16:51Z</time>
      </trkpt>
      <trkpt lat="49.82783" lon="2.40565">
        <ele>31.8</ele>
        <time>2021-07-11T14:16:52Z</time>
      </trkpt>
      <trkpt lat="49.82782" lon="2.40565">
        <ele>31.8</ele>
        <time>2021-07-11T14:16:53Z</time>
      </trkpt>
      <trkpt lat="49.82781" lon="2.40564">
        <ele>31.8</ele>
        <time>2021-07-11T14:16:54Z</time>
      </trkpt>
      <trkpt lat="49.82779" lon="2.40564">
        <ele>31.9</ele>
        <time>2021-07-11T14:16:55Z</time>
      </trkpt>
      <trkpt lat="49.82778" lon="2.40563">
        <ele>31.9</ele>
        <time>2021-07-11T14:16:56Z</time>
      </trkpt>
      <trkpt lat="49.82776" lon="2.40562">
        <ele>31.9</ele>
        <time>2021-07-11T14:16:57Z</time>
      </trkpt>
      <trkpt lat="49.82775" lon="2.40562">
        <ele>31.9</ele>
        <time>2021-07-11T14:16:58Z</time>
      </trkpt>
      <trkpt lat="49.82772" lon="2.40561">
        <ele>31.9</ele>
        <time>2021-07-11T14:17:00Z</time>
      </trkpt>
      <trkpt lat="49.82771" lon="2.40561">
        <ele>32</ele>
        <time>2021-07-11T14:17:01Z</time>
      </trkpt>
      <trkpt lat="49.82768" lon="2.40561">
        <ele>32</ele>
        <time>2021-07-11T14:17:02Z</time>
      </trkpt>
      <trkpt lat="49.82767" lon="2.40561">
        <ele>32</ele>
        <time>2021-07-11T14:17:03Z</time>
      </trkpt>
      <trkpt lat="49.82766" lon="2.40561">
        <ele>32</ele>
        <time>2021-07-11T14:17:04Z</time>
      </trkpt>
      <trkpt lat="49.82764" lon="2.40561">
        <ele>32</ele>
        <time>2021-07-11T14:17:05Z</time>
      </trkpt>
      <trkpt lat="49.82763" lon="2.4056">
        <ele>32.1</ele>
        <time>2021-07-11T14:17:06Z</time>
      </trkpt>
      <trkpt lat="49.82761" lon="2.4056">
        <ele>32.1</ele>
        <time>2021-07-11T14:17:07Z</time>
      </trkpt>
      <trkpt lat="49.82758" lon="2.4056">
        <ele>32.1</ele>
        <time>2021-07-11T14:17:08Z</time>
      </trkpt>
      <trkpt lat="49.82757" lon="2.40559">
        <ele>32.1</ele>
        <time>2021-07-11T14:17:10Z</time>
      </trkpt>
      <trkpt lat="49.82756" lon="2.40559">
        <ele>32.2</ele>
        <time>2021-07-11T14:17:11Z</time>
      </trkpt>
      <trkpt lat="49.82754" lon="2.40559">
        <ele>32.2</ele>
        <time>2021-07-11T14:17:12Z</time>
      </trkpt>
      <trkpt lat="49.82753" lon="2.40559">
        <ele>32.2</ele>
        <time>2021-07-11T14:17:13Z</time>
      </trkpt>
      <trkpt lat="49.82751" lon="2.40559">
        <ele>32.2</ele>
        <time>2021-07-11T14:17:15Z</time>
      </trkpt>
      <trkpt lat="49.8275" lon="2.40559">
        <ele>32.2</ele>
        <time>2021-07-11T14:17:16Z</time>
      </trkpt>
      <trkpt lat="49.82748" lon="2.40559">
        <ele>32.2</ele>
        <time>2021-07-11T14:17:17Z</time>
      </trkpt>
      <trkpt lat="49.82746" lon="2.40559">
        <ele>32.3</ele>
        <time>2021-07-11T14:17:18Z</time>
      </trkpt>
      <trkpt lat="49.82745" lon="2.40559">
        <ele>32.3</ele>
        <time>2021-07-11T14:17:19Z</time>
      </trkpt>
      <trkpt lat="49.82743" lon="2.40559">
        <ele>32.3</ele>
        <time>2021-07-11T14:17:20Z</time>
      </trkpt>
      <trkpt lat="49.82742" lon="2.40559">
        <ele>32.3</ele>
        <time>2021-07-11T14:17:21Z</time>
      </trkpt>
      <trkpt lat="49.8274" lon="2.40558">
        <ele>32.3</ele>
        <time>2021-07-11T14:17:22Z</time>
      </trkpt>
      <trkpt lat="49.82739" lon="2.40558">
        <ele>32.3</ele>
        <time>2021-07-11T14:17:24Z</time>
      </trkpt>
      <trkpt lat="49.82738" lon="2.40558">
        <ele>32.4</ele>
        <time>2021-07-11T14:17:25Z</time>
      </trkpt>
      <trkpt lat="49.82736" lon="2.40558">
        <ele>32.4</ele>
        <time>2021-07-11T14:17:26Z</time>
      </trkpt>
      <trkpt lat="49.82735" lon="2.40557">
        <ele>32.4</ele>
        <time>2021-07-11T14:17:27Z</time>
      </trkpt>
      <trkpt lat="49.82733" lon="2.40556">
        <ele>32.4</ele>
        <time>2021-07-11T14:17:28Z</time>
      </trkpt>
      <trkpt lat="49.82731" lon="2.40555">
        <ele>32.4</ele>
        <time>2021-07-11T14:17:29Z</time>
      </trkpt>
      <trkpt lat="49.8273" lon="2.40555">
        <ele>32.4</ele>
        <time>2021-07-11T14:17:31Z</time>
      </trkpt>
      <trkpt lat="49.82728" lon="2.40554">
        <ele>32.5</ele>
        <time>2021-07-11T14:17:32Z</time>
      </trkpt>
      <trkpt lat="49.82727" lon="2.40554">
        <ele>32.5</ele>
        <time>2021-07-11T14:17:33Z</time>
      </trkpt>
      <trkpt lat="49.82726" lon="2.40553">
        <ele>32.5</ele>
        <time>2021-07-11T14:17:34Z</time>
      </trkpt>
      <trkpt lat="49.82725" lon="2.40553">
        <ele>32.5</ele>
        <time>2021-07-11T14:17:36Z</time>
      </trkpt>
      <trkpt lat="49.82723" lon="2.40552">
        <ele>32.5</ele>
        <time>2021-07-11T14:17:37Z</time>
      </trkpt>
      <trkpt lat="49.82722" lon="2.40552">
        <ele>32.5</ele>
        <time>2021-07-11T14:17:38Z</time>
      </trkpt>
      <trkpt lat="49.82721" lon="2.40551">
        <ele>32.5</ele>
        <time>2021-07-11T14:17:39Z</time>
      </trkpt>
      <trkpt lat="49.8272" lon="2.4055">
        <ele>32.6</ele>
        <time>2021-07-11T14:17:40Z</time>
      </trkpt>
      <trkpt lat="49.82719" lon="2.40548">
        <ele>32.6</ele>
        <time>2021-07-11T14:17:41Z</time>
      </trkpt>
      <trkpt lat="49.82718" lon="2.40546">
        <ele>32.6</ele>
        <time>2021-07-11T14:17:42Z</time>
      </trkpt>
      <trkpt lat="49.82716" lon="2.40545">
        <ele>32.6</ele>
        <time>2021-07-11T14:17:43Z</time>
      </trkpt>
      <trkpt lat="49.82715" lon="2.40543">
        <ele>32.7</ele>
        <time>2021-07-11T14:17:45Z</time>
      </trkpt>
      <trkpt lat="49.82714" lon="2.40542">
        <ele>32.7</ele>
        <time>2021-07-11T14:17:46Z</time>
      </trkpt>
      <trkpt lat="49.82712" lon="2.40541">
        <ele>32.7</ele>
        <time>2021-07-11T14:17:48Z</time>
      </trkpt>
      <trkpt lat="49.82711" lon="2.4054">
        <ele>32.7</ele>
        <time>2021-07-11T14:17:49Z</time>
      </trkpt>
      <trkpt lat="49.8271" lon="2.40539">
        <ele>32.8</ele>
        <time>2021-07-11T14:17:50Z</time>
      </trkpt>
      <trkpt lat="49.82709" lon="2.40539">
        <ele>32.8</ele>
        <time>2021-07-11T14:17:51Z</time>
      </trkpt>
      <trkpt lat="49.82708" lon="2.40538">
        <ele>32.8</ele>
        <time>2021-07-11T14:17:52Z</time>
      </trkpt>
      <trkpt lat="49.82707" lon="2.40537">
        <ele>32.8</ele>
        <time>2021-07-11T14:17:53Z</time>
      </trkpt>
      <trkpt lat="49.82706" lon="2.40537">
        <ele>32.8</ele>
        <time>2021-07-11T14:17:54Z</time>
      </trkpt>
      <trkpt lat="49.82705" lon="2.40536">
        <ele>32.9</ele>
        <time>2021-07-11T14:17:56Z</time>
      </trkpt>
      <trkpt lat="49.82704" lon="2.40535">
        <ele>32.9</ele>
        <time>2021-07-11T14:17:57Z</time>
      </trkpt>
      <trkpt lat="49.82703" lon="2.40534">
        <ele>32.9</ele>
        <time>2021-07-11T14:17:58Z</time>
      </trkpt>
      <trkpt lat="49.82702" lon="2.40534">
        <ele>32.9</ele>
        <time>2021-07-11T14:17:59Z</time>
      </trkpt>
      <trkpt lat="49.827" lon="2.40532">
        <ele>32.9</ele>
        <time>2021-07-11T14:18:00Z</time>
      </trkpt>
      <trkpt lat="49.82699" lon="2.40532">
        <ele>33</ele>
        <time>2021-07-11T14:18:01Z</time>
      </trkpt>
      <trkpt lat="49.82699" lon="2.40531">
        <ele>33</ele>
        <time>2021-07-11T14:18:02Z</time>
      </trkpt>
      <trkpt lat="49.82697" lon="2.40531">
        <ele>33</ele>
        <time>2021-07-11T14:18:03Z</time>
      </trkpt>
      <trkpt lat="49.82696" lon="2.4053">
        <ele>33</ele>
        <time>2021-07-11T14:18:05Z</time>
      </trkpt>
      <trkpt lat="49.82694" lon="2.40529">
        <ele>33.1</ele>
        <time>2021-07-11T14:18:07Z</time>
      </trkpt>
      <trkpt lat="49.82693" lon="2.40527">
        <ele>33.1</ele>
        <time>2021-07-11T14:18:08Z</time>
      </trkpt>
      <trkpt lat="49.82692" lon="2.40526">
        <ele>33.1</ele>
        <time>2021-07-11T14:18:09Z</time>
      </trkpt>
      <trkpt lat="49.82691" lon="2.40526">
        <ele>33.1</ele>
        <time>2021-07-11T14:18:10Z</time>
      </trkpt>
      <trkpt lat="49.8269" lon="2.40525">
        <ele>33.1</ele>
        <time>2021-07-11T14:18:11Z</time>
      </trkpt>
      <trkpt lat="49.82689" lon="2.40524">
        <ele>33.1</ele>
        <time>2021-07-11T14:18:12Z</time>
      </trkpt>
      <trkpt lat="49.82687" lon="2.40522">
        <ele>33.1</ele>
        <time>2021-07-11T14:18:14Z</time>
      </trkpt>
      <trkpt lat="49.82686" lon="2.40522">
        <ele>33.1</ele>
        <time>2021-07-11T14:18:15Z</time>
      </trkpt>
      <trkpt lat="49.82684" lon="2.4052">
        <ele>33.2</ele>
        <time>2021-07-11T14:18:17Z</time>
      </trkpt>
      <trkpt lat="49.82683" lon="2.40519">
        <ele>33.2</ele>
        <time>2021-07-11T14:18:18Z</time>
      </trkpt>
      <trkpt lat="49.82681" lon="2.40518">
        <ele>33.2</ele>
        <time>2021-07-11T14:18:19Z</time>
      </trkpt>
      <trkpt lat="49.82681" lon="2.40517">
        <ele>33.2</ele>
        <time>2021-07-11T14:18:20Z</time>
      </trkpt>
      <trkpt lat="49.8268" lon="2.40517">
        <ele>33.2</ele>
        <time>2021-07-11T14:18:21Z</time>
      </trkpt>
      <trkpt lat="49.82679" lon="2.40516">
        <ele>33.2</ele>
        <time>2021-07-11T14:18:22Z</time>
      </trkpt>
      <trkpt lat="49.82677" lon="2.40515">
        <ele>33.2</ele>
        <time>2021-07-11T14:18:23Z</time>
      </trkpt>
      <trkpt lat="49.82675" lon="2.40514">
        <ele>33.2</ele>
        <time>2021-07-11T14:18:25Z</time>
      </trkpt>
      <trkpt lat="49.82674" lon="2.40514">
        <ele>33.2</ele>
        <time>2021-07-11T14:18:26Z</time>
      </trkpt>
      <trkpt lat="49.82673" lon="2.40513">
        <ele>33.1</ele>
        <time>2021-07-11T14:18:27Z</time>
      </trkpt>
      <trkpt lat="49.82671" lon="2.40513">
        <ele>33.1</ele>
        <time>2021-07-11T14:18:28Z</time>
      </trkpt>
      <trkpt lat="49.8267" lon="2.40512">
        <ele>33.1</ele>
        <time>2021-07-11T14:18:29Z</time>
      </trkpt>
      <trkpt lat="49.82669" lon="2.40511">
        <ele>33.1</ele>
        <time>2021-07-11T14:18:30Z</time>
      </trkpt>
      <trkpt lat="49.82667" lon="2.40511">
        <ele>33.1</ele>
        <time>2021-07-11T14:18:31Z</time>
      </trkpt>
      <trkpt lat="49.82666" lon="2.4051">
        <ele>33.1</ele>
        <time>2021-07-11T14:18:32Z</time>
      </trkpt>
      <trkpt lat="49.82665" lon="2.40509">
        <ele>33.1</ele>
        <time>2021-07-11T14:18:34Z</time>
      </trkpt>
      <trkpt lat="49.82663" lon="2.40508">
        <ele>33.1</ele>
        <time>2021-07-11T14:18:35Z</time>
      </trkpt>
      <trkpt lat="49.82662" lon="2.40507">
        <ele>33.1</ele>
        <time>2021-07-11T14:18:36Z</time>
      </trkpt>
      <trkpt lat="49.82662" lon="2.40506">
        <ele>33.1</ele>
        <time>2021-07-11T14:18:37Z</time>
      </trkpt>
      <trkpt lat="49.8266" lon="2.40505">
        <ele>33.1</ele>
        <time>2021-07-11T14:18:38Z</time>
      </trkpt>
      <trkpt lat="49.82659" lon="2.40504">
        <ele>33.1</ele>
        <time>2021-07-11T14:18:40Z</time>
      </trkpt>
      <trkpt lat="49.82657" lon="2.40503">
        <ele>33.1</ele>
        <time>2021-07-11T14:18:41Z</time>
      </trkpt>
      <trkpt lat="49.82656" lon="2.40502">
        <ele>33.1</ele>
        <time>2021-07-11T14:18:42Z</time>
      </trkpt>
      <trkpt lat="49.82655" lon="2.40501">
        <ele>33.1</ele>
        <time>2021-07-11T14:18:43Z</time>
      </trkpt>
      <trkpt lat="49.82654" lon="2.405">
        <ele>33.1</ele>
        <time>2021-07-11T14:18:45Z</time>
      </trkpt>
      <trkpt lat="49.82653" lon="2.405">
        <ele>33.1</ele>
        <time>2021-07-11T14:18:46Z</time>
      </trkpt>
      <trkpt lat="49.82652" lon="2.40499">
        <ele>33.1</ele>
        <time>2021-07-11T14:18:47Z</time>
      </trkpt>
      <trkpt lat="49.82651" lon="2.40498">
        <ele>33.1</ele>
        <time>2021-07-11T14:18:48Z</time>
      </trkpt>
      <trkpt lat="49.8265" lon="2.40497">
        <ele>33.1</ele>
        <time>2021-07-11T14:18:49Z</time>
      </trkpt>
      <trkpt lat="49.82649" lon="2.40496">
        <ele>33.1</ele>
        <time>2021-07-11T14:18:50Z</time>
      </trkpt>
      <trkpt lat="49.82648" lon="2.40495">
        <ele>33</ele>
        <time>2021-07-11T14:18:51Z</time>
      </trkpt>
      <trkpt lat="49.82647" lon="2.40494">
        <ele>33</ele>
        <time>2021-07-11T14:18:52Z</time>
      </trkpt>
      <trkpt lat="49.82646" lon="2.40494">
        <ele>33</ele>
        <time>2021-07-11T14:18:53Z</time>
      </trkpt>
      <trkpt lat="49.82645" lon="2.40493">
        <ele>33</ele>
        <time>2021-07-11T14:18:55Z</time>
      </trkpt>
      <trkpt lat="49.82643" lon="2.40492">
        <ele>33</ele>
        <time>2021-07-11T14:18:57Z</time>
      </trkpt>
      <trkpt lat="49.82642" lon="2.40492">
        <ele>33</ele>
        <time>2021-07-11T14:18:58Z</time>
      </trkpt>
      <trkpt lat="49.8264" lon="2.40491">
        <ele>33</ele>
        <time>2021-07-11T14:18:59Z</time>
      </trkpt>
      <trkpt lat="49.82638" lon="2.4049">
        <ele>33</ele>
        <time>2021-07-11T14:19:01Z</time>
      </trkpt>
      <trkpt lat="49.82637" lon="2.40489">
        <ele>33</ele>
        <time>2021-07-11T14:19:02Z</time>
      </trkpt>
      <trkpt lat="49.82636" lon="2.40489">
        <ele>33</ele>
        <time>2021-07-11T14:19:03Z</time>
      </trkpt>
      <trkpt lat="49.82634" lon="2.40488">
        <ele>33</ele>
        <time>2021-07-11T14:19:04Z</time>
      </trkpt>
      <trkpt lat="49.82633" lon="2.40488">
        <ele>33</ele>
        <time>2021-07-11T14:19:05Z</time>
      </trkpt>
      <trkpt lat="49.82632" lon="2.40487">
        <ele>33</ele>
        <time>2021-07-11T14:19:06Z</time>
      </trkpt>
      <trkpt lat="49.8263" lon="2.40487">
        <ele>33</ele>
        <time>2021-07-11T14:19:08Z</time>
      </trkpt>
      <trkpt lat="49.82629" lon="2.40487">
        <ele>32.9</ele>
        <time>2021-07-11T14:19:09Z</time>
      </trkpt>
      <trkpt lat="49.82628" lon="2.40487">
        <ele>32.9</ele>
        <time>2021-07-11T14:19:10Z</time>
      </trkpt>
      <trkpt lat="49.82626" lon="2.40486">
        <ele>32.9</ele>
        <time>2021-07-11T14:19:12Z</time>
      </trkpt>
      <trkpt lat="49.82625" lon="2.40486">
        <ele>32.9</ele>
        <time>2021-07-11T14:19:13Z</time>
      </trkpt>
      <trkpt lat="49.82624" lon="2.40486">
        <ele>32.9</ele>
        <time>2021-07-11T14:19:14Z</time>
      </trkpt>
      <trkpt lat="49.82622" lon="2.40486">
        <ele>32.9</ele>
        <time>2021-07-11T14:19:15Z</time>
      </trkpt>
      <trkpt lat="49.82621" lon="2.40486">
        <ele>32.9</ele>
        <time>2021-07-11T14:19:16Z</time>
      </trkpt>
      <trkpt lat="49.8262" lon="2.40486">
        <ele>32.9</ele>
        <time>2021-07-11T14:19:17Z</time>
      </trkpt>
      <trkpt lat="49.82618" lon="2.40485">
        <ele>32.9</ele>
        <time>2021-07-11T14:19:19Z</time>
      </trkpt>
      <trkpt lat="49.82617" lon="2.40485">
        <ele>32.9</ele>
        <time>2021-07-11T14:19:20Z</time>
      </trkpt>
      <trkpt lat="49.82615" lon="2.40484">
        <ele>32.9</ele>
        <time>2021-07-11T14:19:21Z</time>
      </trkpt>
      <trkpt lat="49.82614" lon="2.40483">
        <ele>32.9</ele>
        <time>2021-07-11T14:19:22Z</time>
      </trkpt>
      <trkpt lat="49.82613" lon="2.40483">
        <ele>32.9</ele>
        <time>2021-07-11T14:19:23Z</time>
      </trkpt>
      <trkpt lat="49.82612" lon="2.40482">
        <ele>32.9</ele>
        <time>2021-07-11T14:19:24Z</time>
      </trkpt>
      <trkpt lat="49.8261" lon="2.40481">
        <ele>32.9</ele>
        <time>2021-07-11T14:19:25Z</time>
      </trkpt>
      <trkpt lat="49.82609" lon="2.40481">
        <ele>32.9</ele>
        <time>2021-07-11T14:19:26Z</time>
      </trkpt>
      <trkpt lat="49.82608" lon="2.4048">
        <ele>32.9</ele>
        <time>2021-07-11T14:19:28Z</time>
      </trkpt>
      <trkpt lat="49.82606" lon="2.40479">
        <ele>32.9</ele>
        <time>2021-07-11T14:19:29Z</time>
      </trkpt>
      <trkpt lat="49.82604" lon="2.40477">
        <ele>32.9</ele>
        <time>2021-07-11T14:19:31Z</time>
      </trkpt>
      <trkpt lat="49.82603" lon="2.40476">
        <ele>32.9</ele>
        <time>2021-07-11T14:19:32Z</time>
      </trkpt>
      <trkpt lat="49.82602" lon="2.40475">
        <ele>32.9</ele>
        <time>2021-07-11T14:19:33Z</time>
      </trkpt>
      <trkpt lat="49.826" lon="2.40474">
        <ele>32.9</ele>
        <time>2021-07-11T14:19:35Z</time>
      </trkpt>
      <trkpt lat="49.82599" lon="2.40473">
        <ele>32.9</ele>
        <time>2021-07-11T14:19:36Z</time>
      </trkpt>
      <trkpt lat="49.82597" lon="2.40472">
        <ele>32.9</ele>
        <time>2021-07-11T14:19:38Z</time>
      </trkpt>
      <trkpt lat="49.82595" lon="2.40471">
        <ele>32.9</ele>
        <time>2021-07-11T14:19:39Z</time>
      </trkpt>
      <trkpt lat="49.82593" lon="2.40471">
        <ele>32.9</ele>
        <time>2021-07-11T14:19:40Z</time>
      </trkpt>
      <trkpt lat="49.82592" lon="2.4047">
        <ele>32.9</ele>
        <time>2021-07-11T14:19:41Z</time>
      </trkpt>
      <trkpt lat="49.82592" lon="2.4047">
        <ele>32.9</ele>
        <time>2021-07-11T14:19:42Z</time>
      </trkpt>
      <trkpt lat="49.8259" lon="2.4047">
        <ele>32.9</ele>
        <time>2021-07-11T14:19:43Z</time>
      </trkpt>
      <trkpt lat="49.82589" lon="2.40469">
        <ele>32.9</ele>
        <time>2021-07-11T14:19:44Z</time>
      </trkpt>
      <trkpt lat="49.82588" lon="2.40468">
        <ele>32.9</ele>
        <time>2021-07-11T14:19:45Z</time>
      </trkpt>
      <trkpt lat="49.82586" lon="2.40467">
        <ele>32.9</ele>
        <time>2021-07-11T14:19:46Z</time>
      </trkpt>
      <trkpt lat="49.82584" lon="2.40466">
        <ele>32.9</ele>
        <time>2021-07-11T14:19:47Z</time>
      </trkpt>
      <trkpt lat="49.82583" lon="2.40466">
        <ele>32.9</ele>
        <time>2021-07-11T14:19:49Z</time>
      </trkpt>
      <trkpt lat="49.82582" lon="2.40466">
        <ele>32.9</ele>
        <time>2021-07-11T14:19:50Z</time>
      </trkpt>
      <trkpt lat="49.8258" lon="2.40464">
        <ele>32.9</ele>
        <time>2021-07-11T14:19:51Z</time>
      </trkpt>
      <trkpt lat="49.82579" lon="2.40464">
        <ele>32.9</ele>
        <time>2021-07-11T14:19:52Z</time>
      </trkpt>
      <trkpt lat="49.82579" lon="2.40464">
        <ele>32.9</ele>
        <time>2021-07-11T14:19:53Z</time>
      </trkpt>
      <trkpt lat="49.82576" lon="2.40463">
        <ele>32.9</ele>
        <time>2021-07-11T14:19:54Z</time>
      </trkpt>
      <trkpt lat="49.82576" lon="2.40462">
        <ele>32.9</ele>
        <time>2021-07-11T14:19:55Z</time>
      </trkpt>
      <trkpt lat="49.82575" lon="2.40462">
        <ele>32.9</ele>
        <time>2021-07-11T14:19:56Z</time>
      </trkpt>
      <trkpt lat="49.82574" lon="2.40461">
        <ele>32.9</ele>
        <time>2021-07-11T14:19:58Z</time>
      </trkpt>
      <trkpt lat="49.82573" lon="2.4046">
        <ele>32.9</ele>
        <time>2021-07-11T14:19:59Z</time>
      </trkpt>
      <trkpt lat="49.82571" lon="2.40459">
        <ele>32.9</ele>
        <time>2021-07-11T14:20:01Z</time>
      </trkpt>
      <trkpt lat="49.8257" lon="2.40458">
        <ele>32.9</ele>
        <time>2021-07-11T14:20:02Z</time>
      </trkpt>
      <trkpt lat="49.82568" lon="2.40456">
        <ele>33</ele>
        <time>2021-07-11T14:20:04Z</time>
      </trkpt>
      <trkpt lat="49.82567" lon="2.40456">
        <ele>33</ele>
        <time>2021-07-11T14:20:05Z</time>
      </trkpt>
      <trkpt lat="49.82566" lon="2.40455">
        <ele>33</ele>
        <time>2021-07-11T14:20:06Z</time>
      </trkpt>
      <trkpt lat="49.82565" lon="2.40453">
        <ele>33</ele>
        <time>2021-07-11T14:20:07Z</time>
      </trkpt>
      <trkpt lat="49.82564" lon="2.40452">
        <ele>33</ele>
        <time>2021-07-11T14:20:08Z</time>
      </trkpt>
      <trkpt lat="49.82563" lon="2.40451">
        <ele>33</ele>
        <time>2021-07-11T14:20:09Z</time>
      </trkpt>
      <trkpt lat="49.82562" lon="2.4045">
        <ele>33</ele>
        <time>2021-07-11T14:20:10Z</time>
      </trkpt>
      <trkpt lat="49.8256" lon="2.40449">
        <ele>33</ele>
        <time>2021-07-11T14:20:12Z</time>
      </trkpt>
      <trkpt lat="49.8256" lon="2.40448">
        <ele>33</ele>
        <time>2021-07-11T14:20:13Z</time>
      </trkpt>
      <trkpt lat="49.82558" lon="2.40446">
        <ele>33</ele>
        <time>2021-07-11T14:20:15Z</time>
      </trkpt>
      <trkpt lat="49.82557" lon="2.40445">
        <ele>33</ele>
        <time>2021-07-11T14:20:16Z</time>
      </trkpt>
      <trkpt lat="49.82556" lon="2.40444">
        <ele>33</ele>
        <time>2021-07-11T14:20:17Z</time>
      </trkpt>
      <trkpt lat="49.82554" lon="2.40443">
        <ele>33</ele>
        <time>2021-07-11T14:20:19Z</time>
      </trkpt>
      <trkpt lat="49.82553" lon="2.40442">
        <ele>33</ele>
        <time>2021-07-11T14:20:20Z</time>
      </trkpt>
      <trkpt lat="49.82552" lon="2.40441">
        <ele>33</ele>
        <time>2021-07-11T14:20:21Z</time>
      </trkpt>
      <trkpt lat="49.82551" lon="2.4044">
        <ele>33</ele>
        <time>2021-07-11T14:20:22Z</time>
      </trkpt>
      <trkpt lat="49.82551" lon="2.40439">
        <ele>33</ele>
        <time>2021-07-11T14:20:23Z</time>
      </trkpt>
      <trkpt lat="49.8255" lon="2.40438">
        <ele>33</ele>
        <time>2021-07-11T14:20:24Z</time>
      </trkpt>
      <trkpt lat="49.82549" lon="2.40437">
        <ele>33</ele>
        <time>2021-07-11T14:20:25Z</time>
      </trkpt>
      <trkpt lat="49.82548" lon="2.40436">
        <ele>33.1</ele>
        <time>2021-07-11T14:20:26Z</time>
      </trkpt>
      <trkpt lat="49.82547" lon="2.40435">
        <ele>33.1</ele>
        <time>2021-07-11T14:20:27Z</time>
      </trkpt>
      <trkpt lat="49.82546" lon="2.40434">
        <ele>33.1</ele>
        <time>2021-07-11T14:20:28Z</time>
      </trkpt>
      <trkpt lat="49.82544" lon="2.40433">
        <ele>33.1</ele>
        <time>2021-07-11T14:20:30Z</time>
      </trkpt>
      <trkpt lat="49.82543" lon="2.40432">
        <ele>33.1</ele>
        <time>2021-07-11T14:20:31Z</time>
      </trkpt>
      <trkpt lat="49.82542" lon="2.40432">
        <ele>33.1</ele>
        <time>2021-07-11T14:20:32Z</time>
      </trkpt>
      <trkpt lat="49.82541" lon="2.40431">
        <ele>33.1</ele>
        <time>2021-07-11T14:20:33Z</time>
      </trkpt>
      <trkpt lat="49.8254" lon="2.4043">
        <ele>33.1</ele>
        <time>2021-07-11T14:20:34Z</time>
      </trkpt>
      <trkpt lat="49.82539" lon="2.40429">
        <ele>33.1</ele>
        <time>2021-07-11T14:20:35Z</time>
      </trkpt>
      <trkpt lat="49.82538" lon="2.40429">
        <ele>33.1</ele>
        <time>2021-07-11T14:20:36Z</time>
      </trkpt>
      <trkpt lat="49.82537" lon="2.40428">
        <ele>33.1</ele>
        <time>2021-07-11T14:20:38Z</time>
      </trkpt>
      <trkpt lat="49.82536" lon="2.40427">
        <ele>33.1</ele>
        <time>2021-07-11T14:20:39Z</time>
      </trkpt>
      <trkpt lat="49.82534" lon="2.40426">
        <ele>33.1</ele>
        <time>2021-07-11T14:20:40Z</time>
      </trkpt>
      <trkpt lat="49.82533" lon="2.40426">
        <ele>33.1</ele>
        <time>2021-07-11T14:20:41Z</time>
      </trkpt>
      <trkpt lat="49.82532" lon="2.40425">
        <ele>33.1</ele>
        <time>2021-07-11T14:20:42Z</time>
      </trkpt>
      <trkpt lat="49.82531" lon="2.40424">
        <ele>33.1</ele>
        <time>2021-07-11T14:20:43Z</time>
      </trkpt>
      <trkpt lat="49.8253" lon="2.40424">
        <ele>33.1</ele>
        <time>2021-07-11T14:20:45Z</time>
      </trkpt>
      <trkpt lat="49.82529" lon="2.40424">
        <ele>33.1</ele>
        <time>2021-07-11T14:20:46Z</time>
      </trkpt>
      <trkpt lat="49.82528" lon="2.40424">
        <ele>33.1</ele>
        <time>2021-07-11T14:20:48Z</time>
      </trkpt>
      <trkpt lat="49.82528" lon="2.40424">
        <ele>33.1</ele>
        <time>2021-07-11T14:20:49Z</time>
      </trkpt>
      <trkpt lat="49.82528" lon="2.40425">
        <ele>33.1</ele>
        <time>2021-07-11T14:20:50Z</time>
      </trkpt>
      <trkpt lat="49.82528" lon="2.40425">
        <ele>33.1</ele>
        <time>2021-07-11T14:20:52Z</time>
      </trkpt>
      <trkpt lat="49.82528" lon="2.40425">
        <ele>33.1</ele>
        <time>2021-07-11T14:20:53Z</time>
      </trkpt>
      <trkpt lat="49.82527" lon="2.40424">
        <ele>33.1</ele>
        <time>2021-07-11T14:20:54Z</time>
      </trkpt>
      <trkpt lat="49.82526" lon="2.40424">
        <ele>33.1</ele>
        <time>2021-07-11T14:20:55Z</time>
      </trkpt>
      <trkpt lat="49.82525" lon="2.40423">
        <ele>33.1</ele>
        <time>2021-07-11T14:20:56Z</time>
      </trkpt>
      <trkpt lat="49.82524" lon="2.40423">
        <ele>33.1</ele>
        <time>2021-07-11T14:20:57Z</time>
      </trkpt>
      <trkpt lat="49.82523" lon="2.40422">
        <ele>33.1</ele>
        <time>2021-07-11T14:20:58Z</time>
      </trkpt>
      <trkpt lat="49.82521" lon="2.40421">
        <ele>33.1</ele>
        <time>2021-07-11T14:21:00Z</time>
      </trkpt>
      <trkpt lat="49.8252" lon="2.4042">
        <ele>33.1</ele>
        <time>2021-07-11T14:21:01Z</time>
      </trkpt>
      <trkpt lat="49.82519" lon="2.4042">
        <ele>33.2</ele>
        <time>2021-07-11T14:21:02Z</time>
      </trkpt>
      <trkpt lat="49.82518" lon="2.40419">
        <ele>33.2</ele>
        <time>2021-07-11T14:21:03Z</time>
      </trkpt>
      <trkpt lat="49.82517" lon="2.40417">
        <ele>33.2</ele>
        <time>2021-07-11T14:21:04Z</time>
      </trkpt>
      <trkpt lat="49.82516" lon="2.40416">
        <ele>33.2</ele>
        <time>2021-07-11T14:21:05Z</time>
      </trkpt>
      <trkpt lat="49.82514" lon="2.40415">
        <ele>33.2</ele>
        <time>2021-07-11T14:21:06Z</time>
      </trkpt>
      <trkpt lat="49.82512" lon="2.40413">
        <ele>33.2</ele>
        <time>2021-07-11T14:21:07Z</time>
      </trkpt>
      <trkpt lat="49.82512" lon="2.40412">
        <ele>33.2</ele>
        <time>2021-07-11T14:21:09Z</time>
      </trkpt>
      <trkpt lat="49.82511" lon="2.40412">
        <ele>33.2</ele>
        <time>2021-07-11T14:21:10Z</time>
      </trkpt>
      <trkpt lat="49.82509" lon="2.4041">
        <ele>33.2</ele>
        <time>2021-07-11T14:21:11Z</time>
      </trkpt>
      <trkpt lat="49.82508" lon="2.40409">
        <ele>33.2</ele>
        <time>2021-07-11T14:21:12Z</time>
      </trkpt>
      <trkpt lat="49.82507" lon="2.40408">
        <ele>33.2</ele>
        <time>2021-07-11T14:21:13Z</time>
      </trkpt>
      <trkpt lat="49.82505" lon="2.40407">
        <ele>33.2</ele>
        <time>2021-07-11T14:21:14Z</time>
      </trkpt>
      <trkpt lat="49.82504" lon="2.40406">
        <ele>33.2</ele>
        <time>2021-07-11T14:21:15Z</time>
      </trkpt>
      <trkpt lat="49.82503" lon="2.40405">
        <ele>33.2</ele>
        <time>2021-07-11T14:21:16Z</time>
      </trkpt>
      <trkpt lat="49.82501" lon="2.40403">
        <ele>33.2</ele>
        <time>2021-07-11T14:21:18Z</time>
      </trkpt>
      <trkpt lat="49.825" lon="2.40403">
        <ele>33.2</ele>
        <time>2021-07-11T14:21:19Z</time>
      </trkpt>
      <trkpt lat="49.82499" lon="2.40402">
        <ele>33.2</ele>
        <time>2021-07-11T14:21:20Z</time>
      </trkpt>
      <trkpt lat="49.82498" lon="2.40401">
        <ele>33.2</ele>
        <time>2021-07-11T14:21:21Z</time>
      </trkpt>
      <trkpt lat="49.82497" lon="2.404">
        <ele>33.2</ele>
        <time>2021-07-11T14:21:22Z</time>
      </trkpt>
      <trkpt lat="49.82494" lon="2.40399">
        <ele>33.3</ele>
        <time>2021-07-11T14:21:23Z</time>
      </trkpt>
      <trkpt lat="49.82493" lon="2.40399">
        <ele>33.3</ele>
        <time>2021-07-11T14:21:25Z</time>
      </trkpt>
      <trkpt lat="49.82492" lon="2.40398">
        <ele>33.3</ele>
        <time>2021-07-11T14:21:26Z</time>
      </trkpt>
      <trkpt lat="49.82491" lon="2.40398">
        <ele>33.3</ele>
        <time>2021-07-11T14:21:27Z</time>
      </trkpt>
      <trkpt lat="49.8249" lon="2.40397">
        <ele>33.3</ele>
        <time>2021-07-11T14:21:28Z</time>
      </trkpt>
      <trkpt lat="49.82489" lon="2.40397">
        <ele>33.3</ele>
        <time>2021-07-11T14:21:29Z</time>
      </trkpt>
      <trkpt lat="49.82487" lon="2.40396">
        <ele>33.3</ele>
        <time>2021-07-11T14:21:30Z</time>
      </trkpt>
      <trkpt lat="49.82486" lon="2.40396">
        <ele>33.3</ele>
        <time>2021-07-11T14:21:32Z</time>
      </trkpt>
      <trkpt lat="49.82485" lon="2.40395">
        <ele>33.3</ele>
        <time>2021-07-11T14:21:33Z</time>
      </trkpt>
      <trkpt lat="49.82482" lon="2.40395">
        <ele>33.3</ele>
        <time>2021-07-11T14:21:34Z</time>
      </trkpt>
      <trkpt lat="49.82482" lon="2.40394">
        <ele>33.3</ele>
        <time>2021-07-11T14:21:35Z</time>
      </trkpt>
      <trkpt lat="49.82481" lon="2.40394">
        <ele>33.3</ele>
        <time>2021-07-11T14:21:36Z</time>
      </trkpt>
      <trkpt lat="49.8248" lon="2.40394">
        <ele>33.3</ele>
        <time>2021-07-11T14:21:37Z</time>
      </trkpt>
      <trkpt lat="49.82478" lon="2.40393">
        <ele>33.3</ele>
        <time>2021-07-11T14:21:38Z</time>
      </trkpt>
      <trkpt lat="49.82477" lon="2.40393">
        <ele>33.4</ele>
        <time>2021-07-11T14:21:40Z</time>
      </trkpt>
      <trkpt lat="49.82475" lon="2.40392">
        <ele>33.4</ele>
        <time>2021-07-11T14:21:41Z</time>
      </trkpt>
      <trkpt lat="49.82474" lon="2.40392">
        <ele>33.4</ele>
        <time>2021-07-11T14:21:42Z</time>
      </trkpt>
      <trkpt lat="49.82474" lon="2.40392">
        <ele>33.4</ele>
        <time>2021-07-11T14:21:43Z</time>
      </trkpt>
      <trkpt lat="49.82472" lon="2.40391">
        <ele>33.4</ele>
        <time>2021-07-11T14:21:44Z</time>
      </trkpt>
      <trkpt lat="49.82471" lon="2.40391">
        <ele>33.4</ele>
        <time>2021-07-11T14:21:45Z</time>
      </trkpt>
      <trkpt lat="49.8247" lon="2.40391">
        <ele>33.4</ele>
        <time>2021-07-11T14:21:46Z</time>
      </trkpt>
      <trkpt lat="49.82468" lon="2.4039">
        <ele>33.4</ele>
        <time>2021-07-11T14:21:48Z</time>
      </trkpt>
      <trkpt lat="49.82467" lon="2.40389">
        <ele>33.4</ele>
        <time>2021-07-11T14:21:49Z</time>
      </trkpt>
      <trkpt lat="49.82466" lon="2.40389">
        <ele>33.4</ele>
        <time>2021-07-11T14:21:50Z</time>
      </trkpt>
      <trkpt lat="49.82465" lon="2.40387">
        <ele>33.4</ele>
        <time>2021-07-11T14:21:51Z</time>
      </trkpt>
      <trkpt lat="49.82464" lon="2.40386">
        <ele>33.4</ele>
        <time>2021-07-11T14:21:52Z</time>
      </trkpt>
      <trkpt lat="49.82463" lon="2.40385">
        <ele>33.5</ele>
        <time>2021-07-11T14:21:53Z</time>
      </trkpt>
      <trkpt lat="49.82462" lon="2.40384">
        <ele>33.5</ele>
        <time>2021-07-11T14:21:54Z</time>
      </trkpt>
      <trkpt lat="49.82461" lon="2.40383">
        <ele>33.5</ele>
        <time>2021-07-11T14:21:56Z</time>
      </trkpt>
      <trkpt lat="49.82459" lon="2.40382">
        <ele>33.5</ele>
        <time>2021-07-11T14:21:58Z</time>
      </trkpt>
      <trkpt lat="49.82457" lon="2.40381">
        <ele>33.5</ele>
        <time>2021-07-11T14:21:59Z</time>
      </trkpt>
      <trkpt lat="49.82456" lon="2.4038">
        <ele>33.5</ele>
        <time>2021-07-11T14:22:01Z</time>
      </trkpt>
      <trkpt lat="49.82454" lon="2.4038">
        <ele>33.5</ele>
        <time>2021-07-11T14:22:02Z</time>
      </trkpt>
      <trkpt lat="49.82453" lon="2.40378">
        <ele>33.5</ele>
        <time>2021-07-11T14:22:03Z</time>
      </trkpt>
      <trkpt lat="49.82452" lon="2.40378">
        <ele>33.5</ele>
        <time>2021-07-11T14:22:04Z</time>
      </trkpt>
      <trkpt lat="49.82451" lon="2.40377">
        <ele>33.5</ele>
        <time>2021-07-11T14:22:05Z</time>
      </trkpt>
      <trkpt lat="49.8245" lon="2.40376">
        <ele>33.5</ele>
        <time>2021-07-11T14:22:06Z</time>
      </trkpt>
      <trkpt lat="49.82449" lon="2.40375">
        <ele>33.6</ele>
        <time>2021-07-11T14:22:07Z</time>
      </trkpt>
      <trkpt lat="49.82448" lon="2.40374">
        <ele>33.6</ele>
        <time>2021-07-11T14:22:09Z</time>
      </trkpt>
      <trkpt lat="49.82446" lon="2.40372">
        <ele>33.6</ele>
        <time>2021-07-11T14:22:10Z</time>
      </trkpt>
      <trkpt lat="49.82445" lon="2.40372">
        <ele>33.6</ele>
        <time>2021-07-11T14:22:11Z</time>
      </trkpt>
      <trkpt lat="49.82445" lon="2.40371">
        <ele>33.6</ele>
        <time>2021-07-11T14:22:12Z</time>
      </trkpt>
      <trkpt lat="49.82443" lon="2.40369">
        <ele>33.6</ele>
        <time>2021-07-11T14:22:13Z</time>
      </trkpt>
      <trkpt lat="49.82442" lon="2.40368">
        <ele>33.6</ele>
        <time>2021-07-11T14:22:14Z</time>
      </trkpt>
      <trkpt lat="49.82442" lon="2.40367">
        <ele>33.7</ele>
        <time>2021-07-11T14:22:15Z</time>
      </trkpt>
      <trkpt lat="49.82441" lon="2.40366">
        <ele>33.7</ele>
        <time>2021-07-11T14:22:16Z</time>
      </trkpt>
      <trkpt lat="49.8244" lon="2.40365">
        <ele>33.7</ele>
        <time>2021-07-11T14:22:18Z</time>
      </trkpt>
      <trkpt lat="49.82439" lon="2.40364">
        <ele>33.7</ele>
        <time>2021-07-11T14:22:19Z</time>
      </trkpt>
      <trkpt lat="49.82437" lon="2.40363">
        <ele>33.7</ele>
        <time>2021-07-11T14:22:20Z</time>
      </trkpt>
      <trkpt lat="49.82436" lon="2.40362">
        <ele>33.7</ele>
        <time>2021-07-11T14:22:21Z</time>
      </trkpt>
      <trkpt lat="49.82436" lon="2.40362">
        <ele>33.7</ele>
        <time>2021-07-11T14:22:22Z</time>
      </trkpt>
      <trkpt lat="49.82434" lon="2.40361">
        <ele>33.7</ele>
        <time>2021-07-11T14:22:23Z</time>
      </trkpt>
      <trkpt lat="49.82433" lon="2.4036">
        <ele>33.8</ele>
        <time>2021-07-11T14:22:24Z</time>
      </trkpt>
      <trkpt lat="49.82431" lon="2.40359">
        <ele>33.8</ele>
        <time>2021-07-11T14:22:25Z</time>
      </trkpt>
      <trkpt lat="49.8243" lon="2.40358">
        <ele>33.8</ele>
        <time>2021-07-11T14:22:27Z</time>
      </trkpt>
      <trkpt lat="49.82429" lon="2.40358">
        <ele>33.8</ele>
        <time>2021-07-11T14:22:28Z</time>
      </trkpt>
      <trkpt lat="49.82428" lon="2.40356">
        <ele>33.8</ele>
        <time>2021-07-11T14:22:29Z</time>
      </trkpt>
      <trkpt lat="49.82427" lon="2.40356">
        <ele>33.8</ele>
        <time>2021-07-11T14:22:30Z</time>
      </trkpt>
      <trkpt lat="49.82426" lon="2.40355">
        <ele>33.8</ele>
        <time>2021-07-11T14:22:31Z</time>
      </trkpt>
      <trkpt lat="49.82425" lon="2.40354">
        <ele>33.8</ele>
        <time>2021-07-11T14:22:32Z</time>
      </trkpt>
      <trkpt lat="49.82424" lon="2.40354">
        <ele>33.8</ele>
        <time>2021-07-11T14:22:33Z</time>
      </trkpt>
      <trkpt lat="49.82423" lon="2.40353">
        <ele>33.8</ele>
        <time>2021-07-11T14:22:35Z</time>
      </trkpt>
      <trkpt lat="49.82421" lon="2.40352">
        <ele>33.8</ele>
        <time>2021-07-11T14:22:36Z</time>
      </trkpt>
      <trkpt lat="49.8242" lon="2.40352">
        <ele>33.8</ele>
        <time>2021-07-11T14:22:37Z</time>
      </trkpt>
      <trkpt lat="49.82419" lon="2.40352">
        <ele>33.8</ele>
        <time>2021-07-11T14:22:38Z</time>
      </trkpt>
      <trkpt lat="49.82417" lon="2.40351">
        <ele>33.8</ele>
        <time>2021-07-11T14:22:39Z</time>
      </trkpt>
      <trkpt lat="49.82416" lon="2.40351">
        <ele>33.8</ele>
        <time>2021-07-11T14:22:40Z</time>
      </trkpt>
      <trkpt lat="49.82415" lon="2.4035">
        <ele>33.8</ele>
        <time>2021-07-11T14:22:41Z</time>
      </trkpt>
      <trkpt lat="49.82414" lon="2.40349">
        <ele>33.8</ele>
        <time>2021-07-11T14:22:42Z</time>
      </trkpt>
      <trkpt lat="49.82413" lon="2.40348">
        <ele>33.8</ele>
        <time>2021-07-11T14:22:44Z</time>
      </trkpt>
      <trkpt lat="49.82412" lon="2.40348">
        <ele>33.8</ele>
        <time>2021-07-11T14:22:45Z</time>
      </trkpt>
      <trkpt lat="49.8241" lon="2.40346">
        <ele>33.8</ele>
        <time>2021-07-11T14:22:46Z</time>
      </trkpt>
      <trkpt lat="49.82409" lon="2.40346">
        <ele>33.8</ele>
        <time>2021-07-11T14:22:47Z</time>
      </trkpt>
      <trkpt lat="49.82408" lon="2.40346">
        <ele>33.8</ele>
        <time>2021-07-11T14:22:48Z</time>
      </trkpt>
      <trkpt lat="49.82407" lon="2.40345">
        <ele>33.8</ele>
        <time>2021-07-11T14:22:50Z</time>
      </trkpt>
      <trkpt lat="49.82406" lon="2.40345">
        <ele>33.8</ele>
        <time>2021-07-11T14:22:51Z</time>
      </trkpt>
      <trkpt lat="49.82405" lon="2.40344">
        <ele>33.8</ele>
        <time>2021-07-11T14:22:52Z</time>
      </trkpt>
      <trkpt lat="49.82403" lon="2.40343">
        <ele>33.8</ele>
        <time>2021-07-11T14:22:54Z</time>
      </trkpt>
      <trkpt lat="49.82402" lon="2.40343">
        <ele>33.7</ele>
        <time>2021-07-11T14:22:55Z</time>
      </trkpt>
      <trkpt lat="49.824" lon="2.40342">
        <ele>33.7</ele>
        <time>2021-07-11T14:22:56Z</time>
      </trkpt>
      <trkpt lat="49.82399" lon="2.40342">
        <ele>33.7</ele>
        <time>2021-07-11T14:22:57Z</time>
      </trkpt>
      <trkpt lat="49.82398" lon="2.40342">
        <ele>33.7</ele>
        <time>2021-07-11T14:22:58Z</time>
      </trkpt>
      <trkpt lat="49.82396" lon="2.40341">
        <ele>33.7</ele>
        <time>2021-07-11T14:22:59Z</time>
      </trkpt>
      <trkpt lat="49.82395" lon="2.4034">
        <ele>33.7</ele>
        <time>2021-07-11T14:23:00Z</time>
      </trkpt>
      <trkpt lat="49.82394" lon="2.4034">
        <ele>33.7</ele>
        <time>2021-07-11T14:23:01Z</time>
      </trkpt>
      <trkpt lat="49.82393" lon="2.40339">
        <ele>33.7</ele>
        <time>2021-07-11T14:23:02Z</time>
      </trkpt>
      <trkpt lat="49.82392" lon="2.40338">
        <ele>33.7</ele>
        <time>2021-07-11T14:23:04Z</time>
      </trkpt>
      <trkpt lat="49.82391" lon="2.40338">
        <ele>33.7</ele>
        <time>2021-07-11T14:23:05Z</time>
      </trkpt>
      <trkpt lat="49.82389" lon="2.40336">
        <ele>33.7</ele>
        <time>2021-07-11T14:23:06Z</time>
      </trkpt>
      <trkpt lat="49.82388" lon="2.40336">
        <ele>33.7</ele>
        <time>2021-07-11T14:23:07Z</time>
      </trkpt>
      <trkpt lat="49.82388" lon="2.40335">
        <ele>33.7</ele>
        <time>2021-07-11T14:23:08Z</time>
      </trkpt>
      <trkpt lat="49.82386" lon="2.40334">
        <ele>33.7</ele>
        <time>2021-07-11T14:23:09Z</time>
      </trkpt>
      <trkpt lat="49.82385" lon="2.40333">
        <ele>33.7</ele>
        <time>2021-07-11T14:23:10Z</time>
      </trkpt>
      <trkpt lat="49.82384" lon="2.40332">
        <ele>33.7</ele>
        <time>2021-07-11T14:23:11Z</time>
      </trkpt>
      <trkpt lat="49.82382" lon="2.40331">
        <ele>33.7</ele>
        <time>2021-07-11T14:23:12Z</time>
      </trkpt>
      <trkpt lat="49.82381" lon="2.4033">
        <ele>33.7</ele>
        <time>2021-07-11T14:23:14Z</time>
      </trkpt>
      <trkpt lat="49.82381" lon="2.40329">
        <ele>33.7</ele>
        <time>2021-07-11T14:23:15Z</time>
      </trkpt>
      <trkpt lat="49.82379" lon="2.40328">
        <ele>33.7</ele>
        <time>2021-07-11T14:23:16Z</time>
      </trkpt>
      <trkpt lat="49.82378" lon="2.40327">
        <ele>33.7</ele>
        <time>2021-07-11T14:23:17Z</time>
      </trkpt>
      <trkpt lat="49.82377" lon="2.40327">
        <ele>33.7</ele>
        <time>2021-07-11T14:23:18Z</time>
      </trkpt>
      <trkpt lat="49.82376" lon="2.40326">
        <ele>33.7</ele>
        <time>2021-07-11T14:23:19Z</time>
      </trkpt>
      <trkpt lat="49.82374" lon="2.40325">
        <ele>33.8</ele>
        <time>2021-07-11T14:23:21Z</time>
      </trkpt>
      <trkpt lat="49.82373" lon="2.40324">
        <ele>33.8</ele>
        <time>2021-07-11T14:23:22Z</time>
      </trkpt>
      <trkpt lat="49.82371" lon="2.40323">
        <ele>33.8</ele>
        <time>2021-07-11T14:23:23Z</time>
      </trkpt>
      <trkpt lat="49.8237" lon="2.40322">
        <ele>33.8</ele>
        <time>2021-07-11T14:23:24Z</time>
      </trkpt>
      <trkpt lat="49.82369" lon="2.40321">
        <ele>33.8</ele>
        <time>2021-07-11T14:23:25Z</time>
      </trkpt>
      <trkpt lat="49.82367" lon="2.4032">
        <ele>33.8</ele>
        <time>2021-07-11T14:23:26Z</time>
      </trkpt>
      <trkpt lat="49.82366" lon="2.40319">
        <ele>33.8</ele>
        <time>2021-07-11T14:23:28Z</time>
      </trkpt>
      <trkpt lat="49.82365" lon="2.40319">
        <ele>33.8</ele>
        <time>2021-07-11T14:23:29Z</time>
      </trkpt>
      <trkpt lat="49.82364" lon="2.40318">
        <ele>33.8</ele>
        <time>2021-07-11T14:23:30Z</time>
      </trkpt>
      <trkpt lat="49.82363" lon="2.40317">
        <ele>33.8</ele>
        <time>2021-07-11T14:23:31Z</time>
      </trkpt>
      <trkpt lat="49.82362" lon="2.40316">
        <ele>33.9</ele>
        <time>2021-07-11T14:23:32Z</time>
      </trkpt>
      <trkpt lat="49.82361" lon="2.40316">
        <ele>33.9</ele>
        <time>2021-07-11T14:23:33Z</time>
      </trkpt>
      <trkpt lat="49.8236" lon="2.40315">
        <ele>33.9</ele>
        <time>2021-07-11T14:23:34Z</time>
      </trkpt>
      <trkpt lat="49.82359" lon="2.40314">
        <ele>33.9</ele>
        <time>2021-07-11T14:23:35Z</time>
      </trkpt>
      <trkpt lat="49.82358" lon="2.40313">
        <ele>33.9</ele>
        <time>2021-07-11T14:23:37Z</time>
      </trkpt>
      <trkpt lat="49.82357" lon="2.40312">
        <ele>33.9</ele>
        <time>2021-07-11T14:23:38Z</time>
      </trkpt>
      <trkpt lat="49.82356" lon="2.40312">
        <ele>33.9</ele>
        <time>2021-07-11T14:23:39Z</time>
      </trkpt>
      <trkpt lat="49.82356" lon="2.40311">
        <ele>33.9</ele>
        <time>2021-07-11T14:23:40Z</time>
      </trkpt>
      <trkpt lat="49.82355" lon="2.40311">
        <ele>33.9</ele>
        <time>2021-07-11T14:23:41Z</time>
      </trkpt>
      <trkpt lat="49.82354" lon="2.4031">
        <ele>34</ele>
        <time>2021-07-11T14:23:42Z</time>
      </trkpt>
      <trkpt lat="49.82353" lon="2.40309">
        <ele>34</ele>
        <time>2021-07-11T14:23:43Z</time>
      </trkpt>
      <trkpt lat="49.82352" lon="2.40308">
        <ele>34</ele>
        <time>2021-07-11T14:23:45Z</time>
      </trkpt>
      <trkpt lat="49.82351" lon="2.40307">
        <ele>34</ele>
        <time>2021-07-11T14:23:46Z</time>
      </trkpt>
      <trkpt lat="49.82349" lon="2.40306">
        <ele>34</ele>
        <time>2021-07-11T14:23:47Z</time>
      </trkpt>
      <trkpt lat="49.82348" lon="2.40306">
        <ele>34</ele>
        <time>2021-07-11T14:23:48Z</time>
      </trkpt>
      <trkpt lat="49.82347" lon="2.40305">
        <ele>34.1</ele>
        <time>2021-07-11T14:23:49Z</time>
      </trkpt>
      <trkpt lat="49.82346" lon="2.40304">
        <ele>34.1</ele>
        <time>2021-07-11T14:23:50Z</time>
      </trkpt>
      <trkpt lat="49.82345" lon="2.40303">
        <ele>34.1</ele>
        <time>2021-07-11T14:23:51Z</time>
      </trkpt>
      <trkpt lat="49.82344" lon="2.40303">
        <ele>34.1</ele>
        <time>2021-07-11T14:23:53Z</time>
      </trkpt>
      <trkpt lat="49.82343" lon="2.40302">
        <ele>34.1</ele>
        <time>2021-07-11T14:23:54Z</time>
      </trkpt>
      <trkpt lat="49.82342" lon="2.40301">
        <ele>34.2</ele>
        <time>2021-07-11T14:23:55Z</time>
      </trkpt>
      <trkpt lat="49.82341" lon="2.40301">
        <ele>34.2</ele>
        <time>2021-07-11T14:23:56Z</time>
      </trkpt>
      <trkpt lat="49.82339" lon="2.403">
        <ele>34.2</ele>
        <time>2021-07-11T14:23:57Z</time>
      </trkpt>
      <trkpt lat="49.82338" lon="2.403">
        <ele>34.2</ele>
        <time>2021-07-11T14:23:58Z</time>
      </trkpt>
      <trkpt lat="49.82337" lon="2.40299">
        <ele>34.2</ele>
        <time>2021-07-11T14:23:59Z</time>
      </trkpt>
      <trkpt lat="49.82335" lon="2.40299">
        <ele>34.3</ele>
        <time>2021-07-11T14:24:01Z</time>
      </trkpt>
      <trkpt lat="49.82334" lon="2.40299">
        <ele>34.3</ele>
        <time>2021-07-11T14:24:02Z</time>
      </trkpt>
      <trkpt lat="49.82333" lon="2.40299">
        <ele>34.3</ele>
        <time>2021-07-11T14:24:03Z</time>
      </trkpt>
      <trkpt lat="49.82331" lon="2.40299">
        <ele>34.3</ele>
        <time>2021-07-11T14:24:04Z</time>
      </trkpt>
      <trkpt lat="49.8233" lon="2.40299">
        <ele>34.3</ele>
        <time>2021-07-11T14:24:05Z</time>
      </trkpt>
      <trkpt lat="49.8233" lon="2.40299">
        <ele>34.3</ele>
        <time>2021-07-11T14:24:06Z</time>
      </trkpt>
      <trkpt lat="49.82328" lon="2.40299">
        <ele>34.4</ele>
        <time>2021-07-11T14:24:08Z</time>
      </trkpt>
      <trkpt lat="49.82327" lon="2.40299">
        <ele>34.4</ele>
        <time>2021-07-11T14:24:09Z</time>
      </trkpt>
      <trkpt lat="49.82326" lon="2.40299">
        <ele>34.4</ele>
        <time>2021-07-11T14:24:10Z</time>
      </trkpt>
      <trkpt lat="49.82324" lon="2.40299">
        <ele>34.4</ele>
        <time>2021-07-11T14:24:11Z</time>
      </trkpt>
      <trkpt lat="49.82323" lon="2.40299">
        <ele>34.5</ele>
        <time>2021-07-11T14:24:12Z</time>
      </trkpt>
      <trkpt lat="49.82322" lon="2.40298">
        <ele>34.5</ele>
        <time>2021-07-11T14:24:13Z</time>
      </trkpt>
      <trkpt lat="49.8232" lon="2.40297">
        <ele>34.5</ele>
        <time>2021-07-11T14:24:15Z</time>
      </trkpt>
      <trkpt lat="49.8232" lon="2.40297">
        <ele>34.5</ele>
        <time>2021-07-11T14:24:16Z</time>
      </trkpt>
      <trkpt lat="49.82319" lon="2.40296">
        <ele>34.5</ele>
        <time>2021-07-11T14:24:17Z</time>
      </trkpt>
      <trkpt lat="49.82318" lon="2.40296">
        <ele>34.5</ele>
        <time>2021-07-11T14:24:18Z</time>
      </trkpt>
      <trkpt lat="49.82317" lon="2.40296">
        <ele>34.6</ele>
        <time>2021-07-11T14:24:19Z</time>
      </trkpt>
      <trkpt lat="49.82316" lon="2.40295">
        <ele>34.6</ele>
        <time>2021-07-11T14:24:20Z</time>
      </trkpt>
      <trkpt lat="49.82315" lon="2.40295">
        <ele>34.6</ele>
        <time>2021-07-11T14:24:21Z</time>
      </trkpt>
      <trkpt lat="49.82314" lon="2.40294">
        <ele>34.6</ele>
        <time>2021-07-11T14:24:22Z</time>
      </trkpt>
      <trkpt lat="49.82313" lon="2.40294">
        <ele>34.6</ele>
        <time>2021-07-11T14:24:24Z</time>
      </trkpt>
      <trkpt lat="49.82312" lon="2.40293">
        <ele>34.6</ele>
        <time>2021-07-11T14:24:25Z</time>
      </trkpt>
      <trkpt lat="49.8231" lon="2.40293">
        <ele>34.6</ele>
        <time>2021-07-11T14:24:26Z</time>
      </trkpt>
      <trkpt lat="49.82309" lon="2.40293">
        <ele>34.7</ele>
        <time>2021-07-11T14:24:27Z</time>
      </trkpt>
      <trkpt lat="49.82307" lon="2.40293">
        <ele>34.7</ele>
        <time>2021-07-11T14:24:28Z</time>
      </trkpt>
      <trkpt lat="49.82306" lon="2.40293">
        <ele>34.7</ele>
        <time>2021-07-11T14:24:29Z</time>
      </trkpt>
      <trkpt lat="49.82306" lon="2.40293">
        <ele>34.7</ele>
        <time>2021-07-11T14:24:30Z</time>
      </trkpt>
      <trkpt lat="49.82304" lon="2.40293">
        <ele>34.7</ele>
        <time>2021-07-11T14:24:32Z</time>
      </trkpt>
      <trkpt lat="49.82303" lon="2.40293">
        <ele>34.7</ele>
        <time>2021-07-11T14:24:33Z</time>
      </trkpt>
      <trkpt lat="49.82302" lon="2.40294">
        <ele>34.8</ele>
        <time>2021-07-11T14:24:35Z</time>
      </trkpt>
      <trkpt lat="49.82302" lon="2.40295">
        <ele>34.8</ele>
        <time>2021-07-11T14:24:36Z</time>
      </trkpt>
      <trkpt lat="49.82301" lon="2.40297">
        <ele>34.8</ele>
        <time>2021-07-11T14:24:38Z</time>
      </trkpt>
      <trkpt lat="49.82301" lon="2.40298">
        <ele>34.8</ele>
        <time>2021-07-11T14:24:39Z</time>
      </trkpt>
      <trkpt lat="49.82301" lon="2.40299">
        <ele>34.8</ele>
        <time>2021-07-11T14:24:40Z</time>
      </trkpt>
      <trkpt lat="49.823" lon="2.40299">
        <ele>34.8</ele>
        <time>2021-07-11T14:24:42Z</time>
      </trkpt>
      <trkpt lat="49.82299" lon="2.40299">
        <ele>34.8</ele>
        <time>2021-07-11T14:24:43Z</time>
      </trkpt>
      <trkpt lat="49.82298" lon="2.40299">
        <ele>34.9</ele>
        <time>2021-07-11T14:24:44Z</time>
      </trkpt>
      <trkpt lat="49.82297" lon="2.40298">
        <ele>34.9</ele>
        <time>2021-07-11T14:24:46Z</time>
      </trkpt>
      <trkpt lat="49.82296" lon="2.40298">
        <ele>34.9</ele>
        <time>2021-07-11T14:24:47Z</time>
      </trkpt>
      <trkpt lat="49.82295" lon="2.40298">
        <ele>34.9</ele>
        <time>2021-07-11T14:24:48Z</time>
      </trkpt>
      <trkpt lat="49.82293" lon="2.40296">
        <ele>34.9</ele>
        <time>2021-07-11T14:24:49Z</time>
      </trkpt>
      <trkpt lat="49.82292" lon="2.40296">
        <ele>34.9</ele>
        <time>2021-07-11T14:24:50Z</time>
      </trkpt>
      <trkpt lat="49.82291" lon="2.40295">
        <ele>35</ele>
        <time>2021-07-11T14:24:51Z</time>
      </trkpt>
      <trkpt lat="49.8229" lon="2.40294">
        <ele>35</ele>
        <time>2021-07-11T14:24:52Z</time>
      </trkpt>
      <trkpt lat="49.82289" lon="2.40293">
        <ele>35</ele>
        <time>2021-07-11T14:24:53Z</time>
      </trkpt>
      <trkpt lat="49.82288" lon="2.40291">
        <ele>35</ele>
        <time>2021-07-11T14:24:55Z</time>
      </trkpt>
      <trkpt lat="49.82287" lon="2.4029">
        <ele>35</ele>
        <time>2021-07-11T14:24:56Z</time>
      </trkpt>
      <trkpt lat="49.82285" lon="2.40288">
        <ele>35</ele>
        <time>2021-07-11T14:24:57Z</time>
      </trkpt>
      <trkpt lat="49.82284" lon="2.40286">
        <ele>35.1</ele>
        <time>2021-07-11T14:24:59Z</time>
      </trkpt>
      <trkpt lat="49.82282" lon="2.40283">
        <ele>35.1</ele>
        <time>2021-07-11T14:25:00Z</time>
      </trkpt>
      <trkpt lat="49.82282" lon="2.40283">
        <ele>35.1</ele>
        <time>2021-07-11T14:25:01Z</time>
      </trkpt>
      <trkpt lat="49.82281" lon="2.40282">
        <ele>35.1</ele>
        <time>2021-07-11T14:25:02Z</time>
      </trkpt>
      <trkpt lat="49.8228" lon="2.4028">
        <ele>35.1</ele>
        <time>2021-07-11T14:25:03Z</time>
      </trkpt>
      <trkpt lat="49.82278" lon="2.40278">
        <ele>35.1</ele>
        <time>2021-07-11T14:25:04Z</time>
      </trkpt>
      <trkpt lat="49.82277" lon="2.40277">
        <ele>35.2</ele>
        <time>2021-07-11T14:25:06Z</time>
      </trkpt>
      <trkpt lat="49.82276" lon="2.40276">
        <ele>35.2</ele>
        <time>2021-07-11T14:25:07Z</time>
      </trkpt>
      <trkpt lat="49.82274" lon="2.40274">
        <ele>35.2</ele>
        <time>2021-07-11T14:25:08Z</time>
      </trkpt>
      <trkpt lat="49.82274" lon="2.40272">
        <ele>35.2</ele>
        <time>2021-07-11T14:25:09Z</time>
      </trkpt>
      <trkpt lat="49.82273" lon="2.40271">
        <ele>35.2</ele>
        <time>2021-07-11T14:25:10Z</time>
      </trkpt>
      <trkpt lat="49.82272" lon="2.4027">
        <ele>35.2</ele>
        <time>2021-07-11T14:25:11Z</time>
      </trkpt>
      <trkpt lat="49.82271" lon="2.40269">
        <ele>35.3</ele>
        <time>2021-07-11T14:25:12Z</time>
      </trkpt>
      <trkpt lat="49.8227" lon="2.40268">
        <ele>35.3</ele>
        <time>2021-07-11T14:25:14Z</time>
      </trkpt>
      <trkpt lat="49.82269" lon="2.40268">
        <ele>35.3</ele>
        <time>2021-07-11T14:25:15Z</time>
      </trkpt>
      <trkpt lat="49.82268" lon="2.40267">
        <ele>35.3</ele>
        <time>2021-07-11T14:25:16Z</time>
      </trkpt>
      <trkpt lat="49.82267" lon="2.40267">
        <ele>35.3</ele>
        <time>2021-07-11T14:25:17Z</time>
      </trkpt>
      <trkpt lat="49.82265" lon="2.40266">
        <ele>35.3</ele>
        <time>2021-07-11T14:25:18Z</time>
      </trkpt>
      <trkpt lat="49.82264" lon="2.40265">
        <ele>35.4</ele>
        <time>2021-07-11T14:25:20Z</time>
      </trkpt>
      <trkpt lat="49.82263" lon="2.40265">
        <ele>35.4</ele>
        <time>2021-07-11T14:25:21Z</time>
      </trkpt>
      <trkpt lat="49.82262" lon="2.40264">
        <ele>35.4</ele>
        <time>2021-07-11T14:25:22Z</time>
      </trkpt>
      <trkpt lat="49.82261" lon="2.40264">
        <ele>35.4</ele>
        <time>2021-07-11T14:25:23Z</time>
      </trkpt>
      <trkpt lat="49.82258" lon="2.40262">
        <ele>35.4</ele>
        <time>2021-07-11T14:25:24Z</time>
      </trkpt>
      <trkpt lat="49.82257" lon="2.40262">
        <ele>35.4</ele>
        <time>2021-07-11T14:25:26Z</time>
      </trkpt>
      <trkpt lat="49.82256" lon="2.40261">
        <ele>35.5</ele>
        <time>2021-07-11T14:25:27Z</time>
      </trkpt>
      <trkpt lat="49.82256" lon="2.40261">
        <ele>35.5</ele>
        <time>2021-07-11T14:25:28Z</time>
      </trkpt>
      <trkpt lat="49.82255" lon="2.4026">
        <ele>35.5</ele>
        <time>2021-07-11T14:25:29Z</time>
      </trkpt>
      <trkpt lat="49.82253" lon="2.40259">
        <ele>35.5</ele>
        <time>2021-07-11T14:25:30Z</time>
      </trkpt>
      <trkpt lat="49.82252" lon="2.40258">
        <ele>35.5</ele>
        <time>2021-07-11T14:25:31Z</time>
      </trkpt>
      <trkpt lat="49.8225" lon="2.40257">
        <ele>35.5</ele>
        <time>2021-07-11T14:25:33Z</time>
      </trkpt>
      <trkpt lat="49.82249" lon="2.40256">
        <ele>35.5</ele>
        <time>2021-07-11T14:25:34Z</time>
      </trkpt>
      <trkpt lat="49.82248" lon="2.40254">
        <ele>35.6</ele>
        <time>2021-07-11T14:25:35Z</time>
      </trkpt>
      <trkpt lat="49.82247" lon="2.40253">
        <ele>35.6</ele>
        <time>2021-07-11T14:25:36Z</time>
      </trkpt>
      <trkpt lat="49.82247" lon="2.40252">
        <ele>35.6</ele>
        <time>2021-07-11T14:25:37Z</time>
      </trkpt>
      <trkpt lat="49.82245" lon="2.40251">
        <ele>35.6</ele>
        <time>2021-07-11T14:25:39Z</time>
      </trkpt>
      <trkpt lat="49.82244" lon="2.4025">
        <ele>35.6</ele>
        <time>2021-07-11T14:25:40Z</time>
      </trkpt>
      <trkpt lat="49.82243" lon="2.4025">
        <ele>35.6</ele>
        <time>2021-07-11T14:25:41Z</time>
      </trkpt>
      <trkpt lat="49.82242" lon="2.40249">
        <ele>35.7</ele>
        <time>2021-07-11T14:25:42Z</time>
      </trkpt>
      <trkpt lat="49.8224" lon="2.40248">
        <ele>35.7</ele>
        <time>2021-07-11T14:25:43Z</time>
      </trkpt>
      <trkpt lat="49.82239" lon="2.40247">
        <ele>35.7</ele>
        <time>2021-07-11T14:25:44Z</time>
      </trkpt>
      <trkpt lat="49.82238" lon="2.40247">
        <ele>35.7</ele>
        <time>2021-07-11T14:25:45Z</time>
      </trkpt>
      <trkpt lat="49.82236" lon="2.40246">
        <ele>35.7</ele>
        <time>2021-07-11T14:25:47Z</time>
      </trkpt>
      <trkpt lat="49.82235" lon="2.40245">
        <ele>35.7</ele>
        <time>2021-07-11T14:25:48Z</time>
      </trkpt>
      <trkpt lat="49.82233" lon="2.40244">
        <ele>35.8</ele>
        <time>2021-07-11T14:25:49Z</time>
      </trkpt>
      <trkpt lat="49.82232" lon="2.40244">
        <ele>35.8</ele>
        <time>2021-07-11T14:25:50Z</time>
      </trkpt>
      <trkpt lat="49.82231" lon="2.40243">
        <ele>35.8</ele>
        <time>2021-07-11T14:25:51Z</time>
      </trkpt>
      <trkpt lat="49.8223" lon="2.40243">
        <ele>35.8</ele>
        <time>2021-07-11T14:25:52Z</time>
      </trkpt>
      <trkpt lat="49.82229" lon="2.40241">
        <ele>35.8</ele>
        <time>2021-07-11T14:25:53Z</time>
      </trkpt>
      <trkpt lat="49.82227" lon="2.4024">
        <ele>35.8</ele>
        <time>2021-07-11T14:25:55Z</time>
      </trkpt>
      <trkpt lat="49.82226" lon="2.4024">
        <ele>35.8</ele>
        <time>2021-07-11T14:25:56Z</time>
      </trkpt>
      <trkpt lat="49.82225" lon="2.40239">
        <ele>35.9</ele>
        <time>2021-07-11T14:25:57Z</time>
      </trkpt>
      <trkpt lat="49.82224" lon="2.40238">
        <ele>35.9</ele>
        <time>2021-07-11T14:25:59Z</time>
      </trkpt>
      <trkpt lat="49.82223" lon="2.40237">
        <ele>35.9</ele>
        <time>2021-07-11T14:26:00Z</time>
      </trkpt>
      <trkpt lat="49.82222" lon="2.40237">
        <ele>35.9</ele>
        <time>2021-07-11T14:26:01Z</time>
      </trkpt>
      <trkpt lat="49.82221" lon="2.40236">
        <ele>35.9</ele>
        <time>2021-07-11T14:26:02Z</time>
      </trkpt>
      <trkpt lat="49.82219" lon="2.40235">
        <ele>35.9</ele>
        <time>2021-07-11T14:26:04Z</time>
      </trkpt>
      <trkpt lat="49.82218" lon="2.40234">
        <ele>35.9</ele>
        <time>2021-07-11T14:26:06Z</time>
      </trkpt>
      <trkpt lat="49.82218" lon="2.40234">
        <ele>35.9</ele>
        <time>2021-07-11T14:26:07Z</time>
      </trkpt>
      <trkpt lat="49.82217" lon="2.40232">
        <ele>35.9</ele>
        <time>2021-07-11T14:26:09Z</time>
      </trkpt>
      <trkpt lat="49.82218" lon="2.40232">
        <ele>35.9</ele>
        <time>2021-07-11T14:26:10Z</time>
      </trkpt>
      <trkpt lat="49.82218" lon="2.40232">
        <ele>35.9</ele>
        <time>2021-07-11T14:26:12Z</time>
      </trkpt>
      <trkpt lat="49.82218" lon="2.40232">
        <ele>35.9</ele>
        <time>2021-07-11T14:26:14Z</time>
      </trkpt>
      <trkpt lat="49.82218" lon="2.40233">
        <ele>35.9</ele>
        <time>2021-07-11T14:26:15Z</time>
      </trkpt>
      <trkpt lat="49.82218" lon="2.40233">
        <ele>35.9</ele>
        <time>2021-07-11T14:26:16Z</time>
      </trkpt>
      <trkpt lat="49.82219" lon="2.40232">
        <ele>35.9</ele>
        <time>2021-07-11T14:26:18Z</time>
      </trkpt>
      <trkpt lat="49.82219" lon="2.40232">
        <ele>35.9</ele>
        <time>2021-07-11T14:26:19Z</time>
      </trkpt>
      <trkpt lat="49.82219" lon="2.40232">
        <ele>35.9</ele>
        <time>2021-07-11T14:26:21Z</time>
      </trkpt>
      <trkpt lat="49.82219" lon="2.40232">
        <ele>35.9</ele>
        <time>2021-07-11T14:26:22Z</time>
      </trkpt>
      <trkpt lat="49.82219" lon="2.40232">
        <ele>35.9</ele>
        <time>2021-07-11T14:26:23Z</time>
      </trkpt>
      <trkpt lat="49.82219" lon="2.40233">
        <ele>35.9</ele>
        <time>2021-07-11T14:26:25Z</time>
      </trkpt>
      <trkpt lat="49.8222" lon="2.40235">
        <ele>35.9</ele>
        <time>2021-07-11T14:26:27Z</time>
      </trkpt>
      <trkpt lat="49.82219" lon="2.40235">
        <ele>35.9</ele>
        <time>2021-07-11T14:26:29Z</time>
      </trkpt>
      <trkpt lat="49.82218" lon="2.40233">
        <ele>36</ele>
        <time>2021-07-11T14:26:30Z</time>
      </trkpt>
      <trkpt lat="49.82218" lon="2.40233">
        <ele>36</ele>
        <time>2021-07-11T14:26:31Z</time>
      </trkpt>
      <trkpt lat="49.82217" lon="2.40233">
        <ele>36</ele>
        <time>2021-07-11T14:26:33Z</time>
      </trkpt>
      <trkpt lat="49.82217" lon="2.40234">
        <ele>36</ele>
        <time>2021-07-11T14:26:34Z</time>
      </trkpt>
      <trkpt lat="49.82217" lon="2.40234">
        <ele>36</ele>
        <time>2021-07-11T14:26:36Z</time>
      </trkpt>
      <trkpt lat="49.82217" lon="2.40235">
        <ele>36</ele>
        <time>2021-07-11T14:26:37Z</time>
      </trkpt>
      <trkpt lat="49.82216" lon="2.40236">
        <ele>36</ele>
        <time>2021-07-11T14:26:38Z</time>
      </trkpt>
      <trkpt lat="49.82216" lon="2.40236">
        <ele>36</ele>
        <time>2021-07-11T14:26:39Z</time>
      </trkpt>
      <trkpt lat="49.82216" lon="2.40236">
        <ele>36</ele>
        <time>2021-07-11T14:26:41Z</time>
      </trkpt>
      <trkpt lat="49.82215" lon="2.40236">
        <ele>36</ele>
        <time>2021-07-11T14:26:42Z</time>
      </trkpt>
      <trkpt lat="49.82214" lon="2.40235">
        <ele>36</ele>
        <time>2021-07-11T14:26:43Z</time>
      </trkpt>
      <trkpt lat="49.82213" lon="2.40235">
        <ele>36</ele>
        <time>2021-07-11T14:26:45Z</time>
      </trkpt>
      <trkpt lat="49.82212" lon="2.40234">
        <ele>36</ele>
        <time>2021-07-11T14:26:46Z</time>
      </trkpt>
      <trkpt lat="49.82209" lon="2.40233">
        <ele>36</ele>
        <time>2021-07-11T14:26:48Z</time>
      </trkpt>
      <trkpt lat="49.82208" lon="2.40232">
        <ele>36</ele>
        <time>2021-07-11T14:26:49Z</time>
      </trkpt>
      <trkpt lat="49.82206" lon="2.40232">
        <ele>36</ele>
        <time>2021-07-11T14:26:50Z</time>
      </trkpt>
      <trkpt lat="49.82205" lon="2.40231">
        <ele>36</ele>
        <time>2021-07-11T14:26:51Z</time>
      </trkpt>
      <trkpt lat="49.82204" lon="2.4023">
        <ele>36.1</ele>
        <time>2021-07-11T14:26:52Z</time>
      </trkpt>
      <trkpt lat="49.82202" lon="2.40228">
        <ele>36.1</ele>
        <time>2021-07-11T14:26:53Z</time>
      </trkpt>
      <trkpt lat="49.82201" lon="2.40228">
        <ele>36.1</ele>
        <time>2021-07-11T14:26:55Z</time>
      </trkpt>
      <trkpt lat="49.822" lon="2.40227">
        <ele>36.1</ele>
        <time>2021-07-11T14:26:56Z</time>
      </trkpt>
      <trkpt lat="49.82199" lon="2.40226">
        <ele>36.1</ele>
        <time>2021-07-11T14:26:57Z</time>
      </trkpt>
      <trkpt lat="49.82198" lon="2.40225">
        <ele>36.1</ele>
        <time>2021-07-11T14:26:58Z</time>
      </trkpt>
      <trkpt lat="49.82197" lon="2.40224">
        <ele>36.1</ele>
        <time>2021-07-11T14:26:59Z</time>
      </trkpt>
      <trkpt lat="49.82195" lon="2.40223">
        <ele>36.1</ele>
        <time>2021-07-11T14:27:00Z</time>
      </trkpt>
      <trkpt lat="49.82194" lon="2.40221">
        <ele>36.1</ele>
        <time>2021-07-11T14:27:01Z</time>
      </trkpt>
      <trkpt lat="49.82193" lon="2.40221">
        <ele>36.1</ele>
        <time>2021-07-11T14:27:03Z</time>
      </trkpt>
      <trkpt lat="49.82192" lon="2.4022">
        <ele>36.1</ele>
        <time>2021-07-11T14:27:04Z</time>
      </trkpt>
      <trkpt lat="49.8219" lon="2.40218">
        <ele>36.1</ele>
        <time>2021-07-11T14:27:05Z</time>
      </trkpt>
      <trkpt lat="49.82189" lon="2.40218">
        <ele>36.2</ele>
        <time>2021-07-11T14:27:06Z</time>
      </trkpt>
      <trkpt lat="49.82189" lon="2.40217">
        <ele>36.2</ele>
        <time>2021-07-11T14:27:07Z</time>
      </trkpt>
      <trkpt lat="49.82187" lon="2.40216">
        <ele>36.2</ele>
        <time>2021-07-11T14:27:08Z</time>
      </trkpt>
      <trkpt lat="49.82186" lon="2.40216">
        <ele>36.2</ele>
        <time>2021-07-11T14:27:10Z</time>
      </trkpt>
      <trkpt lat="49.82185" lon="2.40215">
        <ele>36.2</ele>
        <time>2021-07-11T14:27:11Z</time>
      </trkpt>
      <trkpt lat="49.82183" lon="2.40214">
        <ele>36.2</ele>
        <time>2021-07-11T14:27:12Z</time>
      </trkpt>
      <trkpt lat="49.82182" lon="2.40214">
        <ele>36.2</ele>
        <time>2021-07-11T14:27:13Z</time>
      </trkpt>
      <trkpt lat="49.82181" lon="2.40213">
        <ele>36.2</ele>
        <time>2021-07-11T14:27:14Z</time>
      </trkpt>
      <trkpt lat="49.8218" lon="2.40212">
        <ele>36.2</ele>
        <time>2021-07-11T14:27:15Z</time>
      </trkpt>
      <trkpt lat="49.82179" lon="2.40211">
        <ele>36.2</ele>
        <time>2021-07-11T14:27:16Z</time>
      </trkpt>
      <trkpt lat="49.82178" lon="2.40211">
        <ele>36.2</ele>
        <time>2021-07-11T14:27:18Z</time>
      </trkpt>
      <trkpt lat="49.82177" lon="2.4021">
        <ele>36.2</ele>
        <time>2021-07-11T14:27:19Z</time>
      </trkpt>
      <trkpt lat="49.82176" lon="2.40209">
        <ele>36.2</ele>
        <time>2021-07-11T14:27:20Z</time>
      </trkpt>
      <trkpt lat="49.82174" lon="2.40209">
        <ele>36.3</ele>
        <time>2021-07-11T14:27:21Z</time>
      </trkpt>
      <trkpt lat="49.82173" lon="2.40208">
        <ele>36.3</ele>
        <time>2021-07-11T14:27:22Z</time>
      </trkpt>
      <trkpt lat="49.82172" lon="2.40208">
        <ele>36.3</ele>
        <time>2021-07-11T14:27:23Z</time>
      </trkpt>
      <trkpt lat="49.8217" lon="2.40207">
        <ele>36.3</ele>
        <time>2021-07-11T14:27:25Z</time>
      </trkpt>
      <trkpt lat="49.82169" lon="2.40207">
        <ele>36.3</ele>
        <time>2021-07-11T14:27:26Z</time>
      </trkpt>
      <trkpt lat="49.82168" lon="2.40206">
        <ele>36.3</ele>
        <time>2021-07-11T14:27:27Z</time>
      </trkpt>
      <trkpt lat="49.82167" lon="2.40205">
        <ele>36.3</ele>
        <time>2021-07-11T14:27:28Z</time>
      </trkpt>
      <trkpt lat="49.82166" lon="2.40205">
        <ele>36.3</ele>
        <time>2021-07-11T14:27:29Z</time>
      </trkpt>
      <trkpt lat="49.82165" lon="2.40205">
        <ele>36.3</ele>
        <time>2021-07-11T14:27:30Z</time>
      </trkpt>
      <trkpt lat="49.82163" lon="2.40204">
        <ele>36.3</ele>
        <time>2021-07-11T14:27:32Z</time>
      </trkpt>
      <trkpt lat="49.82162" lon="2.40203">
        <ele>36.3</ele>
        <time>2021-07-11T14:27:33Z</time>
      </trkpt>
      <trkpt lat="49.82161" lon="2.40202">
        <ele>36.3</ele>
        <time>2021-07-11T14:27:34Z</time>
      </trkpt>
      <trkpt lat="49.82159" lon="2.40202">
        <ele>36.4</ele>
        <time>2021-07-11T14:27:35Z</time>
      </trkpt>
      <trkpt lat="49.82157" lon="2.40201">
        <ele>36.4</ele>
        <time>2021-07-11T14:27:36Z</time>
      </trkpt>
      <trkpt lat="49.82156" lon="2.402">
        <ele>36.4</ele>
        <time>2021-07-11T14:27:38Z</time>
      </trkpt>
      <trkpt lat="49.82155" lon="2.402">
        <ele>36.4</ele>
        <time>2021-07-11T14:27:39Z</time>
      </trkpt>
      <trkpt lat="49.82154" lon="2.40199">
        <ele>36.4</ele>
        <time>2021-07-11T14:27:40Z</time>
      </trkpt>
      <trkpt lat="49.82153" lon="2.40198">
        <ele>36.4</ele>
        <time>2021-07-11T14:27:41Z</time>
      </trkpt>
      <trkpt lat="49.82152" lon="2.40198">
        <ele>36.4</ele>
        <time>2021-07-11T14:27:42Z</time>
      </trkpt>
      <trkpt lat="49.8215" lon="2.40197">
        <ele>36.4</ele>
        <time>2021-07-11T14:27:43Z</time>
      </trkpt>
      <trkpt lat="49.82149" lon="2.40197">
        <ele>36.4</ele>
        <time>2021-07-11T14:27:44Z</time>
      </trkpt>
      <trkpt lat="49.82147" lon="2.40196">
        <ele>36.4</ele>
        <time>2021-07-11T14:27:45Z</time>
      </trkpt>
      <trkpt lat="49.82146" lon="2.40196">
        <ele>36.4</ele>
        <time>2021-07-11T14:27:47Z</time>
      </trkpt>
      <trkpt lat="49.82145" lon="2.40195">
        <ele>36.5</ele>
        <time>2021-07-11T14:27:48Z</time>
      </trkpt>
      <trkpt lat="49.82143" lon="2.40194">
        <ele>36.5</ele>
        <time>2021-07-11T14:27:49Z</time>
      </trkpt>
      <trkpt lat="49.82142" lon="2.40194">
        <ele>36.5</ele>
        <time>2021-07-11T14:27:50Z</time>
      </trkpt>
      <trkpt lat="49.8214" lon="2.40193">
        <ele>36.5</ele>
        <time>2021-07-11T14:27:51Z</time>
      </trkpt>
      <trkpt lat="49.82139" lon="2.40192">
        <ele>36.5</ele>
        <time>2021-07-11T14:27:52Z</time>
      </trkpt>
      <trkpt lat="49.82137" lon="2.40191">
        <ele>36.5</ele>
        <time>2021-07-11T14:27:53Z</time>
      </trkpt>
      <trkpt lat="49.82136" lon="2.40191">
        <ele>36.5</ele>
        <time>2021-07-11T14:27:55Z</time>
      </trkpt>
      <trkpt lat="49.82136" lon="2.4019">
        <ele>36.5</ele>
        <time>2021-07-11T14:27:56Z</time>
      </trkpt>
      <trkpt lat="49.82134" lon="2.4019">
        <ele>36.5</ele>
        <time>2021-07-11T14:27:57Z</time>
      </trkpt>
      <trkpt lat="49.82133" lon="2.40189">
        <ele>36.5</ele>
        <time>2021-07-11T14:27:58Z</time>
      </trkpt>
      <trkpt lat="49.82132" lon="2.40189">
        <ele>36.5</ele>
        <time>2021-07-11T14:27:59Z</time>
      </trkpt>
      <trkpt lat="49.82131" lon="2.40188">
        <ele>36.5</ele>
        <time>2021-07-11T14:28:00Z</time>
      </trkpt>
      <trkpt lat="49.8213" lon="2.40188">
        <ele>36.5</ele>
        <time>2021-07-11T14:28:01Z</time>
      </trkpt>
      <trkpt lat="49.82129" lon="2.40188">
        <ele>36.5</ele>
        <time>2021-07-11T14:28:03Z</time>
      </trkpt>
      <trkpt lat="49.82128" lon="2.40187">
        <ele>36.6</ele>
        <time>2021-07-11T14:28:04Z</time>
      </trkpt>
      <trkpt lat="49.82127" lon="2.40187">
        <ele>36.6</ele>
        <time>2021-07-11T14:28:05Z</time>
      </trkpt>
      <trkpt lat="49.82126" lon="2.40187">
        <ele>36.6</ele>
        <time>2021-07-11T14:28:06Z</time>
      </trkpt>
      <trkpt lat="49.82125" lon="2.40186">
        <ele>36.6</ele>
        <time>2021-07-11T14:28:07Z</time>
      </trkpt>
      <trkpt lat="49.82124" lon="2.40185">
        <ele>36.6</ele>
        <time>2021-07-11T14:28:08Z</time>
      </trkpt>
      <trkpt lat="49.82123" lon="2.40185">
        <ele>36.6</ele>
        <time>2021-07-11T14:28:09Z</time>
      </trkpt>
      <trkpt lat="49.82121" lon="2.40184">
        <ele>36.6</ele>
        <time>2021-07-11T14:28:11Z</time>
      </trkpt>
      <trkpt lat="49.8212" lon="2.40184">
        <ele>36.6</ele>
        <time>2021-07-11T14:28:12Z</time>
      </trkpt>
      <trkpt lat="49.82119" lon="2.40183">
        <ele>36.6</ele>
        <time>2021-07-11T14:28:13Z</time>
      </trkpt>
      <trkpt lat="49.82118" lon="2.40182">
        <ele>36.6</ele>
        <time>2021-07-11T14:28:14Z</time>
      </trkpt>
      <trkpt lat="49.82118" lon="2.40181">
        <ele>36.6</ele>
        <time>2021-07-11T14:28:15Z</time>
      </trkpt>
      <trkpt lat="49.82117" lon="2.4018">
        <ele>36.6</ele>
        <time>2021-07-11T14:28:16Z</time>
      </trkpt>
      <trkpt lat="49.82116" lon="2.40179">
        <ele>36.6</ele>
        <time>2021-07-11T14:28:17Z</time>
      </trkpt>
      <trkpt lat="49.82115" lon="2.40178">
        <ele>36.6</ele>
        <time>2021-07-11T14:28:18Z</time>
      </trkpt>
      <trkpt lat="49.82114" lon="2.40176">
        <ele>36.6</ele>
        <time>2021-07-11T14:28:20Z</time>
      </trkpt>
      <trkpt lat="49.82113" lon="2.40175">
        <ele>36.6</ele>
        <time>2021-07-11T14:28:21Z</time>
      </trkpt>
      <trkpt lat="49.82113" lon="2.40174">
        <ele>36.6</ele>
        <time>2021-07-11T14:28:22Z</time>
      </trkpt>
      <trkpt lat="49.82112" lon="2.40174">
        <ele>36.6</ele>
        <time>2021-07-11T14:28:23Z</time>
      </trkpt>
      <trkpt lat="49.82111" lon="2.40173">
        <ele>36.6</ele>
        <time>2021-07-11T14:28:24Z</time>
      </trkpt>
      <trkpt lat="49.8211" lon="2.40172">
        <ele>36.6</ele>
        <time>2021-07-11T14:28:25Z</time>
      </trkpt>
      <trkpt lat="49.82109" lon="2.40171">
        <ele>36.6</ele>
        <time>2021-07-11T14:28:26Z</time>
      </trkpt>
      <trkpt lat="49.82107" lon="2.4017">
        <ele>36.6</ele>
        <time>2021-07-11T14:28:27Z</time>
      </trkpt>
      <trkpt lat="49.82106" lon="2.4017">
        <ele>36.6</ele>
        <time>2021-07-11T14:28:29Z</time>
      </trkpt>
      <trkpt lat="49.82105" lon="2.4017">
        <ele>36.6</ele>
        <time>2021-07-11T14:28:30Z</time>
      </trkpt>
      <trkpt lat="49.82104" lon="2.4017">
        <ele>36.6</ele>
        <time>2021-07-11T14:28:31Z</time>
      </trkpt>
      <trkpt lat="49.82103" lon="2.40169">
        <ele>36.6</ele>
        <time>2021-07-11T14:28:32Z</time>
      </trkpt>
      <trkpt lat="49.82102" lon="2.40169">
        <ele>36.6</ele>
        <time>2021-07-11T14:28:33Z</time>
      </trkpt>
      <trkpt lat="49.82101" lon="2.40168">
        <ele>36.6</ele>
        <time>2021-07-11T14:28:34Z</time>
      </trkpt>
      <trkpt lat="49.82099" lon="2.40168">
        <ele>36.6</ele>
        <time>2021-07-11T14:28:35Z</time>
      </trkpt>
      <trkpt lat="49.82098" lon="2.40167">
        <ele>36.6</ele>
        <time>2021-07-11T14:28:37Z</time>
      </trkpt>
      <trkpt lat="49.82097" lon="2.40165">
        <ele>36.6</ele>
        <time>2021-07-11T14:28:38Z</time>
      </trkpt>
      <trkpt lat="49.82096" lon="2.40164">
        <ele>36.6</ele>
        <time>2021-07-11T14:28:39Z</time>
      </trkpt>
      <trkpt lat="49.82095" lon="2.40164">
        <ele>36.7</ele>
        <time>2021-07-11T14:28:40Z</time>
      </trkpt>
      <trkpt lat="49.82094" lon="2.40163">
        <ele>36.7</ele>
        <time>2021-07-11T14:28:41Z</time>
      </trkpt>
      <trkpt lat="49.82093" lon="2.40161">
        <ele>36.7</ele>
        <time>2021-07-11T14:28:42Z</time>
      </trkpt>
      <trkpt lat="49.82091" lon="2.4016">
        <ele>36.7</ele>
        <time>2021-07-11T14:28:43Z</time>
      </trkpt>
      <trkpt lat="49.8209" lon="2.40159">
        <ele>36.7</ele>
        <time>2021-07-11T14:28:45Z</time>
      </trkpt>
      <trkpt lat="49.8209" lon="2.40158">
        <ele>36.7</ele>
        <time>2021-07-11T14:28:46Z</time>
      </trkpt>
      <trkpt lat="49.82088" lon="2.40156">
        <ele>36.7</ele>
        <time>2021-07-11T14:28:47Z</time>
      </trkpt>
      <trkpt lat="49.82087" lon="2.40156">
        <ele>36.7</ele>
        <time>2021-07-11T14:28:48Z</time>
      </trkpt>
      <trkpt lat="49.82086" lon="2.40155">
        <ele>36.7</ele>
        <time>2021-07-11T14:28:49Z</time>
      </trkpt>
      <trkpt lat="49.82084" lon="2.40154">
        <ele>36.7</ele>
        <time>2021-07-11T14:28:50Z</time>
      </trkpt>
      <trkpt lat="49.82083" lon="2.40153">
        <ele>36.7</ele>
        <time>2021-07-11T14:28:51Z</time>
      </trkpt>
      <trkpt lat="49.82083" lon="2.40153">
        <ele>36.7</ele>
        <time>2021-07-11T14:28:52Z</time>
      </trkpt>
      <trkpt lat="49.82081" lon="2.40152">
        <ele>36.8</ele>
        <time>2021-07-11T14:28:54Z</time>
      </trkpt>
      <trkpt lat="49.8208" lon="2.40151">
        <ele>36.8</ele>
        <time>2021-07-11T14:28:55Z</time>
      </trkpt>
      <trkpt lat="49.82078" lon="2.4015">
        <ele>36.8</ele>
        <time>2021-07-11T14:28:56Z</time>
      </trkpt>
      <trkpt lat="49.82077" lon="2.40149">
        <ele>36.8</ele>
        <time>2021-07-11T14:28:57Z</time>
      </trkpt>
      <trkpt lat="49.82077" lon="2.40148">
        <ele>36.8</ele>
        <time>2021-07-11T14:28:58Z</time>
      </trkpt>
      <trkpt lat="49.82075" lon="2.40147">
        <ele>36.8</ele>
        <time>2021-07-11T14:28:59Z</time>
      </trkpt>
      <trkpt lat="49.82074" lon="2.40146">
        <ele>36.8</ele>
        <time>2021-07-11T14:29:00Z</time>
      </trkpt>
      <trkpt lat="49.82073" lon="2.40145">
        <ele>36.9</ele>
        <time>2021-07-11T14:29:02Z</time>
      </trkpt>
      <trkpt lat="49.82072" lon="2.40144">
        <ele>36.9</ele>
        <time>2021-07-11T14:29:03Z</time>
      </trkpt>
      <trkpt lat="49.8207" lon="2.40142">
        <ele>36.9</ele>
        <time>2021-07-11T14:29:04Z</time>
      </trkpt>
      <trkpt lat="49.82069" lon="2.40141">
        <ele>36.9</ele>
        <time>2021-07-11T14:29:06Z</time>
      </trkpt>
      <trkpt lat="49.82068" lon="2.4014">
        <ele>36.9</ele>
        <time>2021-07-11T14:29:07Z</time>
      </trkpt>
      <trkpt lat="49.82067" lon="2.40139">
        <ele>36.9</ele>
        <time>2021-07-11T14:29:08Z</time>
      </trkpt>
      <trkpt lat="49.82066" lon="2.40138">
        <ele>37</ele>
        <time>2021-07-11T14:29:09Z</time>
      </trkpt>
      <trkpt lat="49.82064" lon="2.40137">
        <ele>37</ele>
        <time>2021-07-11T14:29:10Z</time>
      </trkpt>
      <trkpt lat="49.82063" lon="2.40136">
        <ele>37</ele>
        <time>2021-07-11T14:29:11Z</time>
      </trkpt>
      <trkpt lat="49.82061" lon="2.40135">
        <ele>37</ele>
        <time>2021-07-11T14:29:12Z</time>
      </trkpt>
      <trkpt lat="49.8206" lon="2.40134">
        <ele>37</ele>
        <time>2021-07-11T14:29:14Z</time>
      </trkpt>
      <trkpt lat="49.82059" lon="2.40134">
        <ele>37</ele>
        <time>2021-07-11T14:29:15Z</time>
      </trkpt>
      <trkpt lat="49.82057" lon="2.40133">
        <ele>37</ele>
        <time>2021-07-11T14:29:16Z</time>
      </trkpt>
      <trkpt lat="49.82057" lon="2.40132">
        <ele>37</ele>
        <time>2021-07-11T14:29:17Z</time>
      </trkpt>
      <trkpt lat="49.82056" lon="2.40132">
        <ele>37</ele>
        <time>2021-07-11T14:29:18Z</time>
      </trkpt>
      <trkpt lat="49.82054" lon="2.40131">
        <ele>37</ele>
        <time>2021-07-11T14:29:19Z</time>
      </trkpt>
      <trkpt lat="49.82053" lon="2.40131">
        <ele>37.1</ele>
        <time>2021-07-11T14:29:20Z</time>
      </trkpt>
      <trkpt lat="49.82052" lon="2.40131">
        <ele>37.1</ele>
        <time>2021-07-11T14:29:22Z</time>
      </trkpt>
      <trkpt lat="49.82051" lon="2.4013">
        <ele>37.1</ele>
        <time>2021-07-11T14:29:23Z</time>
      </trkpt>
      <trkpt lat="49.82049" lon="2.40129">
        <ele>37.1</ele>
        <time>2021-07-11T14:29:24Z</time>
      </trkpt>
      <trkpt lat="49.82049" lon="2.40129">
        <ele>37.1</ele>
        <time>2021-07-11T14:29:25Z</time>
      </trkpt>
      <trkpt lat="49.82047" lon="2.40127">
        <ele>37.1</ele>
        <time>2021-07-11T14:29:26Z</time>
      </trkpt>
      <trkpt lat="49.82046" lon="2.40127">
        <ele>37.1</ele>
        <time>2021-07-11T14:29:27Z</time>
      </trkpt>
      <trkpt lat="49.82045" lon="2.40126">
        <ele>37</ele>
        <time>2021-07-11T14:29:28Z</time>
      </trkpt>
      <trkpt lat="49.82043" lon="2.40125">
        <ele>37</ele>
        <time>2021-07-11T14:29:29Z</time>
      </trkpt>
      <trkpt lat="49.82042" lon="2.40124">
        <ele>37</ele>
        <time>2021-07-11T14:29:31Z</time>
      </trkpt>
      <trkpt lat="49.82042" lon="2.40124">
        <ele>37</ele>
        <time>2021-07-11T14:29:32Z</time>
      </trkpt>
      <trkpt lat="49.82039" lon="2.40122">
        <ele>37</ele>
        <time>2021-07-11T14:29:33Z</time>
      </trkpt>
      <trkpt lat="49.82039" lon="2.40122">
        <ele>37</ele>
        <time>2021-07-11T14:29:34Z</time>
      </trkpt>
      <trkpt lat="49.82038" lon="2.40121">
        <ele>37</ele>
        <time>2021-07-11T14:29:35Z</time>
      </trkpt>
      <trkpt lat="49.82036" lon="2.4012">
        <ele>37</ele>
        <time>2021-07-11T14:29:36Z</time>
      </trkpt>
      <trkpt lat="49.82035" lon="2.4012">
        <ele>37</ele>
        <time>2021-07-11T14:29:37Z</time>
      </trkpt>
      <trkpt lat="49.82034" lon="2.40119">
        <ele>37</ele>
        <time>2021-07-11T14:29:39Z</time>
      </trkpt>
      <trkpt lat="49.82033" lon="2.40119">
        <ele>37</ele>
        <time>2021-07-11T14:29:40Z</time>
      </trkpt>
      <trkpt lat="49.82032" lon="2.40118">
        <ele>37</ele>
        <time>2021-07-11T14:29:41Z</time>
      </trkpt>
      <trkpt lat="49.82031" lon="2.40117">
        <ele>37</ele>
        <time>2021-07-11T14:29:42Z</time>
      </trkpt>
      <trkpt lat="49.82029" lon="2.40116">
        <ele>37</ele>
        <time>2021-07-11T14:29:43Z</time>
      </trkpt>
      <trkpt lat="49.82029" lon="2.40115">
        <ele>37</ele>
        <time>2021-07-11T14:29:44Z</time>
      </trkpt>
      <trkpt lat="49.82028" lon="2.40115">
        <ele>37</ele>
        <time>2021-07-11T14:29:45Z</time>
      </trkpt>
      <trkpt lat="49.82027" lon="2.40114">
        <ele>37</ele>
        <time>2021-07-11T14:29:46Z</time>
      </trkpt>
      <trkpt lat="49.82026" lon="2.40114">
        <ele>37</ele>
        <time>2021-07-11T14:29:48Z</time>
      </trkpt>
      <trkpt lat="49.82025" lon="2.40113">
        <ele>37</ele>
        <time>2021-07-11T14:29:49Z</time>
      </trkpt>
      <trkpt lat="49.82023" lon="2.40112">
        <ele>37</ele>
        <time>2021-07-11T14:29:50Z</time>
      </trkpt>
      <trkpt lat="49.82022" lon="2.40111">
        <ele>37</ele>
        <time>2021-07-11T14:29:51Z</time>
      </trkpt>
      <trkpt lat="49.82021" lon="2.40111">
        <ele>37</ele>
        <time>2021-07-11T14:29:52Z</time>
      </trkpt>
      <trkpt lat="49.8202" lon="2.4011">
        <ele>37</ele>
        <time>2021-07-11T14:29:53Z</time>
      </trkpt>
      <trkpt lat="49.82018" lon="2.40109">
        <ele>37</ele>
        <time>2021-07-11T14:29:54Z</time>
      </trkpt>
      <trkpt lat="49.82016" lon="2.40107">
        <ele>37</ele>
        <time>2021-07-11T14:29:55Z</time>
      </trkpt>
      <trkpt lat="49.82016" lon="2.40107">
        <ele>37</ele>
        <time>2021-07-11T14:29:57Z</time>
      </trkpt>
      <trkpt lat="49.82015" lon="2.40106">
        <ele>37</ele>
        <time>2021-07-11T14:29:58Z</time>
      </trkpt>
      <trkpt lat="49.82013" lon="2.40105">
        <ele>37</ele>
        <time>2021-07-11T14:29:59Z</time>
      </trkpt>
      <trkpt lat="49.82012" lon="2.40105">
        <ele>37</ele>
        <time>2021-07-11T14:30:00Z</time>
      </trkpt>
      <trkpt lat="49.82011" lon="2.40104">
        <ele>37</ele>
        <time>2021-07-11T14:30:01Z</time>
      </trkpt>
      <trkpt lat="49.8201" lon="2.40104">
        <ele>37</ele>
        <time>2021-07-11T14:30:02Z</time>
      </trkpt>
      <trkpt lat="49.82009" lon="2.40103">
        <ele>37</ele>
        <time>2021-07-11T14:30:03Z</time>
      </trkpt>
      <trkpt lat="49.82008" lon="2.40103">
        <ele>37</ele>
        <time>2021-07-11T14:30:05Z</time>
      </trkpt>
      <trkpt lat="49.82007" lon="2.40103">
        <ele>37</ele>
        <time>2021-07-11T14:30:06Z</time>
      </trkpt>
      <trkpt lat="49.82006" lon="2.40102">
        <ele>37</ele>
        <time>2021-07-11T14:30:07Z</time>
      </trkpt>
      <trkpt lat="49.82005" lon="2.40102">
        <ele>37</ele>
        <time>2021-07-11T14:30:08Z</time>
      </trkpt>
      <trkpt lat="49.82003" lon="2.401">
        <ele>37.1</ele>
        <time>2021-07-11T14:30:09Z</time>
      </trkpt>
      <trkpt lat="49.82002" lon="2.401">
        <ele>37.1</ele>
        <time>2021-07-11T14:30:10Z</time>
      </trkpt>
      <trkpt lat="49.82001" lon="2.40099">
        <ele>37.1</ele>
        <time>2021-07-11T14:30:11Z</time>
      </trkpt>
      <trkpt lat="49.81999" lon="2.40098">
        <ele>37.1</ele>
        <time>2021-07-11T14:30:12Z</time>
      </trkpt>
      <trkpt lat="49.81998" lon="2.40098">
        <ele>37.1</ele>
        <time>2021-07-11T14:30:14Z</time>
      </trkpt>
      <trkpt lat="49.81998" lon="2.40097">
        <ele>37.1</ele>
        <time>2021-07-11T14:30:15Z</time>
      </trkpt>
      <trkpt lat="49.81995" lon="2.40095">
        <ele>37.1</ele>
        <time>2021-07-11T14:30:16Z</time>
      </trkpt>
      <trkpt lat="49.81995" lon="2.40095">
        <ele>37.1</ele>
        <time>2021-07-11T14:30:17Z</time>
      </trkpt>
      <trkpt lat="49.81994" lon="2.40094">
        <ele>37.1</ele>
        <time>2021-07-11T14:30:18Z</time>
      </trkpt>
      <trkpt lat="49.81992" lon="2.40093">
        <ele>37.1</ele>
        <time>2021-07-11T14:30:19Z</time>
      </trkpt>
      <trkpt lat="49.81991" lon="2.40093">
        <ele>37.1</ele>
        <time>2021-07-11T14:30:20Z</time>
      </trkpt>
      <trkpt lat="49.8199" lon="2.40092">
        <ele>37.1</ele>
        <time>2021-07-11T14:30:22Z</time>
      </trkpt>
      <trkpt lat="49.81989" lon="2.40091">
        <ele>37.1</ele>
        <time>2021-07-11T14:30:23Z</time>
      </trkpt>
      <trkpt lat="49.81986" lon="2.4009">
        <ele>37.1</ele>
        <time>2021-07-11T14:30:24Z</time>
      </trkpt>
      <trkpt lat="49.81986" lon="2.40089">
        <ele>37.1</ele>
        <time>2021-07-11T14:30:25Z</time>
      </trkpt>
      <trkpt lat="49.81985" lon="2.40089">
        <ele>37.1</ele>
        <time>2021-07-11T14:30:26Z</time>
      </trkpt>
      <trkpt lat="49.81983" lon="2.40088">
        <ele>37.1</ele>
        <time>2021-07-11T14:30:27Z</time>
      </trkpt>
      <trkpt lat="49.81982" lon="2.40088">
        <ele>37.1</ele>
        <time>2021-07-11T14:30:28Z</time>
      </trkpt>
      <trkpt lat="49.81981" lon="2.40087">
        <ele>37.1</ele>
        <time>2021-07-11T14:30:30Z</time>
      </trkpt>
      <trkpt lat="49.81979" lon="2.40086">
        <ele>37</ele>
        <time>2021-07-11T14:30:31Z</time>
      </trkpt>
      <trkpt lat="49.81978" lon="2.40086">
        <ele>37</ele>
        <time>2021-07-11T14:30:32Z</time>
      </trkpt>
      <trkpt lat="49.81977" lon="2.40085">
        <ele>37</ele>
        <time>2021-07-11T14:30:33Z</time>
      </trkpt>
      <trkpt lat="49.81975" lon="2.40084">
        <ele>37</ele>
        <time>2021-07-11T14:30:34Z</time>
      </trkpt>
      <trkpt lat="49.81975" lon="2.40084">
        <ele>37</ele>
        <time>2021-07-11T14:30:35Z</time>
      </trkpt>
      <trkpt lat="49.81974" lon="2.40083">
        <ele>36.9</ele>
        <time>2021-07-11T14:30:36Z</time>
      </trkpt>
      <trkpt lat="49.81972" lon="2.40082">
        <ele>36.9</ele>
        <time>2021-07-11T14:30:38Z</time>
      </trkpt>
      <trkpt lat="49.81971" lon="2.40082">
        <ele>36.9</ele>
        <time>2021-07-11T14:30:39Z</time>
      </trkpt>
      <trkpt lat="49.8197" lon="2.40082">
        <ele>36.9</ele>
        <time>2021-07-11T14:30:40Z</time>
      </trkpt>
      <trkpt lat="49.81968" lon="2.4008">
        <ele>36.8</ele>
        <time>2021-07-11T14:30:41Z</time>
      </trkpt>
      <trkpt lat="49.81968" lon="2.4008">
        <ele>36.8</ele>
        <time>2021-07-11T14:30:42Z</time>
      </trkpt>
      <trkpt lat="49.81967" lon="2.40079">
        <ele>36.8</ele>
        <time>2021-07-11T14:30:43Z</time>
      </trkpt>
      <trkpt lat="49.81966" lon="2.40079">
        <ele>36.7</ele>
        <time>2021-07-11T14:30:45Z</time>
      </trkpt>
      <trkpt lat="49.81965" lon="2.40078">
        <ele>36.7</ele>
        <time>2021-07-11T14:30:46Z</time>
      </trkpt>
      <trkpt lat="49.81963" lon="2.40078">
        <ele>36.7</ele>
        <time>2021-07-11T14:30:48Z</time>
      </trkpt>
      <trkpt lat="49.81961" lon="2.40077">
        <ele>36.6</ele>
        <time>2021-07-11T14:30:50Z</time>
      </trkpt>
      <trkpt lat="49.81961" lon="2.40077">
        <ele>36.6</ele>
        <time>2021-07-11T14:30:51Z</time>
      </trkpt>
      <trkpt lat="49.8196" lon="2.40076">
        <ele>36.6</ele>
        <time>2021-07-11T14:30:52Z</time>
      </trkpt>
      <trkpt lat="49.8196" lon="2.40075">
        <ele>36.6</ele>
        <time>2021-07-11T14:30:54Z</time>
      </trkpt>
      <trkpt lat="49.81961" lon="2.40075">
        <ele>36.5</ele>
        <time>2021-07-11T14:30:56Z</time>
      </trkpt>
      <trkpt lat="49.81962" lon="2.40075">
        <ele>36.5</ele>
        <time>2021-07-11T14:30:58Z</time>
      </trkpt>
      <trkpt lat="49.81962" lon="2.40075">
        <ele>36.5</ele>
        <time>2021-07-11T14:31:00Z</time>
      </trkpt>
      <trkpt lat="49.81962" lon="2.40075">
        <ele>36.5</ele>
        <time>2021-07-11T14:31:02Z</time>
      </trkpt>
      <trkpt lat="49.81962" lon="2.40075">
        <ele>36.5</ele>
        <time>2021-07-11T14:31:04Z</time>
      </trkpt>
      <trkpt lat="49.81962" lon="2.40075">
        <ele>36.5</ele>
        <time>2021-07-11T14:31:05Z</time>
      </trkpt>
      <trkpt lat="49.81962" lon="2.40075">
        <ele>36.5</ele>
        <time>2021-07-11T14:31:06Z</time>
      </trkpt>
      <trkpt lat="49.81962" lon="2.40075">
        <ele>36.5</ele>
        <time>2021-07-11T14:31:08Z</time>
      </trkpt>
      <trkpt lat="49.81962" lon="2.40075">
        <ele>36.5</ele>
        <time>2021-07-11T14:31:09Z</time>
      </trkpt>
      <trkpt lat="49.81961" lon="2.40075">
        <ele>36.4</ele>
        <time>2021-07-11T14:31:11Z</time>
      </trkpt>
      <trkpt lat="49.8196" lon="2.40075">
        <ele>36.4</ele>
        <time>2021-07-11T14:31:12Z</time>
      </trkpt>
      <trkpt lat="49.81959" lon="2.40075">
        <ele>36.4</ele>
        <time>2021-07-11T14:31:14Z</time>
      </trkpt>
      <trkpt lat="49.81959" lon="2.40075">
        <ele>36.4</ele>
        <time>2021-07-11T14:31:15Z</time>
      </trkpt>
      <trkpt lat="49.81958" lon="2.40075">
        <ele>36.4</ele>
        <time>2021-07-11T14:31:16Z</time>
      </trkpt>
      <trkpt lat="49.81957" lon="2.40075">
        <ele>36.3</ele>
        <time>2021-07-11T14:31:18Z</time>
      </trkpt>
      <trkpt lat="49.81957" lon="2.40074">
        <ele>36.3</ele>
        <time>2021-07-11T14:31:19Z</time>
      </trkpt>
      <trkpt lat="49.81956" lon="2.40073">
        <ele>36.3</ele>
        <time>2021-07-11T14:31:20Z</time>
      </trkpt>
      <trkpt lat="49.81955" lon="2.40072">
        <ele>36.2</ele>
        <time>2021-07-11T14:31:22Z</time>
      </trkpt>
      <trkpt lat="49.81954" lon="2.40072">
        <ele>36.2</ele>
        <time>2021-07-11T14:31:23Z</time>
      </trkpt>
      <trkpt lat="49.81953" lon="2.40071">
        <ele>36.2</ele>
        <time>2021-07-11T14:31:24Z</time>
      </trkpt>
      <trkpt lat="49.81952" lon="2.4007">
        <ele>36.1</ele>
        <time>2021-07-11T14:31:26Z</time>
      </trkpt>
      <trkpt lat="49.81951" lon="2.40069">
        <ele>36.1</ele>
        <time>2021-07-11T14:31:27Z</time>
      </trkpt>
      <trkpt lat="49.8195" lon="2.40068">
        <ele>36</ele>
        <time>2021-07-11T14:31:28Z</time>
      </trkpt>
      <trkpt lat="49.81949" lon="2.40067">
        <ele>36</ele>
        <time>2021-07-11T14:31:30Z</time>
      </trkpt>
      <trkpt lat="49.81948" lon="2.40066">
        <ele>35.9</ele>
        <time>2021-07-11T14:31:31Z</time>
      </trkpt>
      <trkpt lat="49.81947" lon="2.40065">
        <ele>35.9</ele>
        <time>2021-07-11T14:31:32Z</time>
      </trkpt>
      <trkpt lat="49.81946" lon="2.40065">
        <ele>35.9</ele>
        <time>2021-07-11T14:31:34Z</time>
      </trkpt>
      <trkpt lat="49.81945" lon="2.40064">
        <ele>35.8</ele>
        <time>2021-07-11T14:31:35Z</time>
      </trkpt>
      <trkpt lat="49.81945" lon="2.40063">
        <ele>35.8</ele>
        <time>2021-07-11T14:31:36Z</time>
      </trkpt>
      <trkpt lat="49.81945" lon="2.40062">
        <ele>35.8</ele>
        <time>2021-07-11T14:31:37Z</time>
      </trkpt>
      <trkpt lat="49.81945" lon="2.40061">
        <ele>35.8</ele>
        <time>2021-07-11T14:31:39Z</time>
      </trkpt>
      <trkpt lat="49.81945" lon="2.4006">
        <ele>35.7</ele>
        <time>2021-07-11T14:31:40Z</time>
      </trkpt>
      <trkpt lat="49.81945" lon="2.40059">
        <ele>35.6</ele>
        <time>2021-07-11T14:31:42Z</time>
      </trkpt>
      <trkpt lat="49.81944" lon="2.40059">
        <ele>35.6</ele>
        <time>2021-07-11T14:31:43Z</time>
      </trkpt>
      <trkpt lat="49.81943" lon="2.40058">
        <ele>35.6</ele>
        <time>2021-07-11T14:31:44Z</time>
      </trkpt>
      <trkpt lat="49.81942" lon="2.40058">
        <ele>35.6</ele>
        <time>2021-07-11T14:31:46Z</time>
      </trkpt>
      <trkpt lat="49.81941" lon="2.40058">
        <ele>35.6</ele>
        <time>2021-07-11T14:31:47Z</time>
      </trkpt>
      <trkpt lat="49.81941" lon="2.40056">
        <ele>35.6</ele>
        <time>2021-07-11T14:31:49Z</time>
      </trkpt>
      <trkpt lat="49.81941" lon="2.40054">
        <ele>35.6</ele>
        <time>2021-07-11T14:31:50Z</time>
      </trkpt>
      <trkpt lat="49.81941" lon="2.40053">
        <ele>35.6</ele>
        <time>2021-07-11T14:31:51Z</time>
      </trkpt>
      <trkpt lat="49.81942" lon="2.40051">
        <ele>35.3</ele>
        <time>2021-07-11T14:31:52Z</time>
      </trkpt>
      <trkpt lat="49.81943" lon="2.40049">
        <ele>35.1</ele>
        <time>2021-07-11T14:31:53Z</time>
      </trkpt>
      <trkpt lat="49.81945" lon="2.40047">
        <ele>35</ele>
        <time>2021-07-11T14:31:54Z</time>
      </trkpt>
      <trkpt lat="49.81945" lon="2.40046">
        <ele>34.9</ele>
        <time>2021-07-11T14:31:55Z</time>
      </trkpt>
      <trkpt lat="49.81946" lon="2.40046">
        <ele>34.8</ele>
        <time>2021-07-11T14:31:56Z</time>
      </trkpt>
      <trkpt lat="49.81948" lon="2.40044">
        <ele>34.7</ele>
        <time>2021-07-11T14:31:58Z</time>
      </trkpt>
      <trkpt lat="49.81948" lon="2.40043">
        <ele>34.6</ele>
        <time>2021-07-11T14:31:59Z</time>
      </trkpt>
      <trkpt lat="49.81949" lon="2.40042">
        <ele>34.5</ele>
        <time>2021-07-11T14:32:00Z</time>
      </trkpt>
      <trkpt lat="49.8195" lon="2.40042">
        <ele>34.4</ele>
        <time>2021-07-11T14:32:01Z</time>
      </trkpt>
      <trkpt lat="49.81951" lon="2.4004">
        <ele>34.3</ele>
        <time>2021-07-11T14:32:02Z</time>
      </trkpt>
      <trkpt lat="49.81952" lon="2.40039">
        <ele>34.3</ele>
        <time>2021-07-11T14:32:03Z</time>
      </trkpt>
      <trkpt lat="49.81952" lon="2.40038">
        <ele>34.2</ele>
        <time>2021-07-11T14:32:04Z</time>
      </trkpt>
      <trkpt lat="49.81953" lon="2.40037">
        <ele>34.1</ele>
        <time>2021-07-11T14:32:05Z</time>
      </trkpt>
      <trkpt lat="49.81954" lon="2.40036">
        <ele>34</ele>
        <time>2021-07-11T14:32:07Z</time>
      </trkpt>
      <trkpt lat="49.81954" lon="2.40035">
        <ele>33.9</ele>
        <time>2021-07-11T14:32:08Z</time>
      </trkpt>
      <trkpt lat="49.81955" lon="2.40034">
        <ele>33.8</ele>
        <time>2021-07-11T14:32:09Z</time>
      </trkpt>
      <trkpt lat="49.81956" lon="2.40033">
        <ele>33.7</ele>
        <time>2021-07-11T14:32:10Z</time>
      </trkpt>
      <trkpt lat="49.81957" lon="2.40031">
        <ele>33.6</ele>
        <time>2021-07-11T14:32:11Z</time>
      </trkpt>
      <trkpt lat="49.81958" lon="2.4003">
        <ele>33.5</ele>
        <time>2021-07-11T14:32:12Z</time>
      </trkpt>
      <trkpt lat="49.81959" lon="2.40029">
        <ele>33.5</ele>
        <time>2021-07-11T14:32:13Z</time>
      </trkpt>
      <trkpt lat="49.8196" lon="2.40029">
        <ele>33.4</ele>
        <time>2021-07-11T14:32:14Z</time>
      </trkpt>
      <trkpt lat="49.81961" lon="2.40028">
        <ele>33.3</ele>
        <time>2021-07-11T14:32:15Z</time>
      </trkpt>
      <trkpt lat="49.81961" lon="2.40027">
        <ele>33.2</ele>
        <time>2021-07-11T14:32:17Z</time>
      </trkpt>
      <trkpt lat="49.81962" lon="2.40027">
        <ele>33.2</ele>
        <time>2021-07-11T14:32:18Z</time>
      </trkpt>
      <trkpt lat="49.81964" lon="2.40024">
        <ele>32.9</ele>
        <time>2021-07-11T14:32:19Z</time>
      </trkpt>
      <trkpt lat="49.81965" lon="2.40023">
        <ele>32.8</ele>
        <time>2021-07-11T14:32:20Z</time>
      </trkpt>
      <trkpt lat="49.81967" lon="2.4002">
        <ele>32.6</ele>
        <time>2021-07-11T14:32:21Z</time>
      </trkpt>
      <trkpt lat="49.81968" lon="2.40019">
        <ele>32.5</ele>
        <time>2021-07-11T14:32:22Z</time>
      </trkpt>
      <trkpt lat="49.81969" lon="2.40015">
        <ele>32.4</ele>
        <time>2021-07-11T14:32:23Z</time>
      </trkpt>
      <trkpt lat="49.8197" lon="2.40011">
        <ele>32.2</ele>
        <time>2021-07-11T14:32:25Z</time>
      </trkpt>
      <trkpt lat="49.81971" lon="2.40009">
        <ele>32.1</ele>
        <time>2021-07-11T14:32:26Z</time>
      </trkpt>
      <trkpt lat="49.81971" lon="2.40008">
        <ele>32</ele>
        <time>2021-07-11T14:32:27Z</time>
      </trkpt>
      <trkpt lat="49.81973" lon="2.40005">
        <ele>31.9</ele>
        <time>2021-07-11T14:32:28Z</time>
      </trkpt>
      <trkpt lat="49.81973" lon="2.40004">
        <ele>31.9</ele>
        <time>2021-07-11T14:32:30Z</time>
      </trkpt>
      <trkpt lat="49.81974" lon="2.40003">
        <ele>31.8</ele>
        <time>2021-07-11T14:32:31Z</time>
      </trkpt>
      <trkpt lat="49.81975" lon="2.40002">
        <ele>31.8</ele>
        <time>2021-07-11T14:32:32Z</time>
      </trkpt>
      <trkpt lat="49.81976" lon="2.4">
        <ele>31.7</ele>
        <time>2021-07-11T14:32:33Z</time>
      </trkpt>
      <trkpt lat="49.81977" lon="2.39999">
        <ele>31.6</ele>
        <time>2021-07-11T14:32:34Z</time>
      </trkpt>
      <trkpt lat="49.81977" lon="2.39998">
        <ele>31.6</ele>
        <time>2021-07-11T14:32:35Z</time>
      </trkpt>
      <trkpt lat="49.81978" lon="2.39997">
        <ele>31.6</ele>
        <time>2021-07-11T14:32:36Z</time>
      </trkpt>
      <trkpt lat="49.81979" lon="2.39995">
        <ele>31.5</ele>
        <time>2021-07-11T14:32:38Z</time>
      </trkpt>
      <trkpt lat="49.8198" lon="2.39994">
        <ele>31.5</ele>
        <time>2021-07-11T14:32:39Z</time>
      </trkpt>
      <trkpt lat="49.81981" lon="2.39992">
        <ele>31.4</ele>
        <time>2021-07-11T14:32:40Z</time>
      </trkpt>
      <trkpt lat="49.81982" lon="2.3999">
        <ele>31.4</ele>
        <time>2021-07-11T14:32:41Z</time>
      </trkpt>
      <trkpt lat="49.81983" lon="2.39989">
        <ele>31.3</ele>
        <time>2021-07-11T14:32:42Z</time>
      </trkpt>
      <trkpt lat="49.81984" lon="2.39988">
        <ele>31.3</ele>
        <time>2021-07-11T14:32:43Z</time>
      </trkpt>
      <trkpt lat="49.81985" lon="2.39986">
        <ele>31.3</ele>
        <time>2021-07-11T14:32:44Z</time>
      </trkpt>
      <trkpt lat="49.81986" lon="2.39985">
        <ele>31.2</ele>
        <time>2021-07-11T14:32:46Z</time>
      </trkpt>
      <trkpt lat="49.81987" lon="2.39984">
        <ele>31.2</ele>
        <time>2021-07-11T14:32:47Z</time>
      </trkpt>
      <trkpt lat="49.81988" lon="2.39983">
        <ele>31.2</ele>
        <time>2021-07-11T14:32:48Z</time>
      </trkpt>
      <trkpt lat="49.81988" lon="2.39981">
        <ele>31.2</ele>
        <time>2021-07-11T14:32:49Z</time>
      </trkpt>
      <trkpt lat="49.81988" lon="2.39979">
        <ele>31.2</ele>
        <time>2021-07-11T14:32:50Z</time>
      </trkpt>
      <trkpt lat="49.81989" lon="2.39976">
        <ele>31.1</ele>
        <time>2021-07-11T14:32:51Z</time>
      </trkpt>
      <trkpt lat="49.81989" lon="2.39975">
        <ele>31.1</ele>
        <time>2021-07-11T14:32:52Z</time>
      </trkpt>
      <trkpt lat="49.8199" lon="2.39974">
        <ele>31.1</ele>
        <time>2021-07-11T14:32:53Z</time>
      </trkpt>
      <trkpt lat="49.81991" lon="2.39972">
        <ele>31</ele>
        <time>2021-07-11T14:32:54Z</time>
      </trkpt>
      <trkpt lat="49.81992" lon="2.39971">
        <ele>31</ele>
        <time>2021-07-11T14:32:56Z</time>
      </trkpt>
      <trkpt lat="49.81993" lon="2.39969">
        <ele>31</ele>
        <time>2021-07-11T14:32:57Z</time>
      </trkpt>
      <trkpt lat="49.81994" lon="2.39968">
        <ele>31</ele>
        <time>2021-07-11T14:32:58Z</time>
      </trkpt>
      <trkpt lat="49.81994" lon="2.39966">
        <ele>31</ele>
        <time>2021-07-11T14:32:59Z</time>
      </trkpt>
      <trkpt lat="49.81995" lon="2.39965">
        <ele>31</ele>
        <time>2021-07-11T14:33:00Z</time>
      </trkpt>
      <trkpt lat="49.81997" lon="2.39963">
        <ele>30.9</ele>
        <time>2021-07-11T14:33:01Z</time>
      </trkpt>
      <trkpt lat="49.81998" lon="2.39962">
        <ele>30.9</ele>
        <time>2021-07-11T14:33:02Z</time>
      </trkpt>
      <trkpt lat="49.81999" lon="2.39959">
        <ele>30.9</ele>
        <time>2021-07-11T14:33:03Z</time>
      </trkpt>
      <trkpt lat="49.82" lon="2.39958">
        <ele>30.9</ele>
        <time>2021-07-11T14:33:05Z</time>
      </trkpt>
      <trkpt lat="49.82" lon="2.39957">
        <ele>30.9</ele>
        <time>2021-07-11T14:33:06Z</time>
      </trkpt>
      <trkpt lat="49.82002" lon="2.39955">
        <ele>30.9</ele>
        <time>2021-07-11T14:33:07Z</time>
      </trkpt>
      <trkpt lat="49.82002" lon="2.39954">
        <ele>30.9</ele>
        <time>2021-07-11T14:33:08Z</time>
      </trkpt>
      <trkpt lat="49.82003" lon="2.39953">
        <ele>30.9</ele>
        <time>2021-07-11T14:33:09Z</time>
      </trkpt>
      <trkpt lat="49.82004" lon="2.3995">
        <ele>30.8</ele>
        <time>2021-07-11T14:33:10Z</time>
      </trkpt>
      <trkpt lat="49.82005" lon="2.39949">
        <ele>30.8</ele>
        <time>2021-07-11T14:33:11Z</time>
      </trkpt>
      <trkpt lat="49.82005" lon="2.39948">
        <ele>30.8</ele>
        <time>2021-07-11T14:33:12Z</time>
      </trkpt>
      <trkpt lat="49.82006" lon="2.39946">
        <ele>30.8</ele>
        <time>2021-07-11T14:33:14Z</time>
      </trkpt>
      <trkpt lat="49.82007" lon="2.39945">
        <ele>30.8</ele>
        <time>2021-07-11T14:33:15Z</time>
      </trkpt>
      <trkpt lat="49.82009" lon="2.39943">
        <ele>30.8</ele>
        <time>2021-07-11T14:33:16Z</time>
      </trkpt>
      <trkpt lat="49.82009" lon="2.39942">
        <ele>30.8</ele>
        <time>2021-07-11T14:33:17Z</time>
      </trkpt>
      <trkpt lat="49.8201" lon="2.39941">
        <ele>30.8</ele>
        <time>2021-07-11T14:33:18Z</time>
      </trkpt>
      <trkpt lat="49.82011" lon="2.3994">
        <ele>30.8</ele>
        <time>2021-07-11T14:33:19Z</time>
      </trkpt>
      <trkpt lat="49.82012" lon="2.39939">
        <ele>30.8</ele>
        <time>2021-07-11T14:33:20Z</time>
      </trkpt>
      <trkpt lat="49.82013" lon="2.39938">
        <ele>30.8</ele>
        <time>2021-07-11T14:33:21Z</time>
      </trkpt>
      <trkpt lat="49.82013" lon="2.39937">
        <ele>30.8</ele>
        <time>2021-07-11T14:33:23Z</time>
      </trkpt>
      <trkpt lat="49.82014" lon="2.39935">
        <ele>30.8</ele>
        <time>2021-07-11T14:33:24Z</time>
      </trkpt>
      <trkpt lat="49.82015" lon="2.39935">
        <ele>30.8</ele>
        <time>2021-07-11T14:33:25Z</time>
      </trkpt>
      <trkpt lat="49.82016" lon="2.39934">
        <ele>30.8</ele>
        <time>2021-07-11T14:33:26Z</time>
      </trkpt>
      <trkpt lat="49.82017" lon="2.39933">
        <ele>30.7</ele>
        <time>2021-07-11T14:33:27Z</time>
      </trkpt>
      <trkpt lat="49.82018" lon="2.39932">
        <ele>30.7</ele>
        <time>2021-07-11T14:33:28Z</time>
      </trkpt>
      <trkpt lat="49.82019" lon="2.39932">
        <ele>30.7</ele>
        <time>2021-07-11T14:33:29Z</time>
      </trkpt>
      <trkpt lat="49.8202" lon="2.39931">
        <ele>30.7</ele>
        <time>2021-07-11T14:33:30Z</time>
      </trkpt>
      <trkpt lat="49.82021" lon="2.3993">
        <ele>30.7</ele>
        <time>2021-07-11T14:33:31Z</time>
      </trkpt>
      <trkpt lat="49.82022" lon="2.39929">
        <ele>30.7</ele>
        <time>2021-07-11T14:33:32Z</time>
      </trkpt>
      <trkpt lat="49.82023" lon="2.39929">
        <ele>30.7</ele>
        <time>2021-07-11T14:33:34Z</time>
      </trkpt>
      <trkpt lat="49.82024" lon="2.39928">
        <ele>30.7</ele>
        <time>2021-07-11T14:33:35Z</time>
      </trkpt>
      <trkpt lat="49.82025" lon="2.39927">
        <ele>30.7</ele>
        <time>2021-07-11T14:33:36Z</time>
      </trkpt>
      <trkpt lat="49.82026" lon="2.39926">
        <ele>30.7</ele>
        <time>2021-07-11T14:33:37Z</time>
      </trkpt>
      <trkpt lat="49.82027" lon="2.39926">
        <ele>30.7</ele>
        <time>2021-07-11T14:33:38Z</time>
      </trkpt>
      <trkpt lat="49.82029" lon="2.39925">
        <ele>30.7</ele>
        <time>2021-07-11T14:33:39Z</time>
      </trkpt>
      <trkpt lat="49.8203" lon="2.39925">
        <ele>30.7</ele>
        <time>2021-07-11T14:33:40Z</time>
      </trkpt>
      <trkpt lat="49.82031" lon="2.39924">
        <ele>30.7</ele>
        <time>2021-07-11T14:33:41Z</time>
      </trkpt>
      <trkpt lat="49.82032" lon="2.39924">
        <ele>30.7</ele>
        <time>2021-07-11T14:33:42Z</time>
      </trkpt>
      <trkpt lat="49.82033" lon="2.39923">
        <ele>30.7</ele>
        <time>2021-07-11T14:33:43Z</time>
      </trkpt>
      <trkpt lat="49.82034" lon="2.39922">
        <ele>30.7</ele>
        <time>2021-07-11T14:33:45Z</time>
      </trkpt>
      <trkpt lat="49.82035" lon="2.39922">
        <ele>30.7</ele>
        <time>2021-07-11T14:33:46Z</time>
      </trkpt>
      <trkpt lat="49.82036" lon="2.39921">
        <ele>30.7</ele>
        <time>2021-07-11T14:33:47Z</time>
      </trkpt>
      <trkpt lat="49.82037" lon="2.3992">
        <ele>30.7</ele>
        <time>2021-07-11T14:33:48Z</time>
      </trkpt>
      <trkpt lat="49.82039" lon="2.39918">
        <ele>30.7</ele>
        <time>2021-07-11T14:33:50Z</time>
      </trkpt>
      <trkpt lat="49.8204" lon="2.39917">
        <ele>30.7</ele>
        <time>2021-07-11T14:33:51Z</time>
      </trkpt>
      <trkpt lat="49.82042" lon="2.39915">
        <ele>30.7</ele>
        <time>2021-07-11T14:33:52Z</time>
      </trkpt>
      <trkpt lat="49.82042" lon="2.39915">
        <ele>30.7</ele>
        <time>2021-07-11T14:33:53Z</time>
      </trkpt>
      <trkpt lat="49.82043" lon="2.39914">
        <ele>30.6</ele>
        <time>2021-07-11T14:33:54Z</time>
      </trkpt>
      <trkpt lat="49.82044" lon="2.39913">
        <ele>30.6</ele>
        <time>2021-07-11T14:33:55Z</time>
      </trkpt>
      <trkpt lat="49.82046" lon="2.39912">
        <ele>30.6</ele>
        <time>2021-07-11T14:33:57Z</time>
      </trkpt>
      <trkpt lat="49.82047" lon="2.39911">
        <ele>30.6</ele>
        <time>2021-07-11T14:33:58Z</time>
      </trkpt>
      <trkpt lat="49.82048" lon="2.39909">
        <ele>30.6</ele>
        <time>2021-07-11T14:33:59Z</time>
      </trkpt>
      <trkpt lat="49.8205" lon="2.39908">
        <ele>30.6</ele>
        <time>2021-07-11T14:34:01Z</time>
      </trkpt>
      <trkpt lat="49.82051" lon="2.39907">
        <ele>30.6</ele>
        <time>2021-07-11T14:34:02Z</time>
      </trkpt>
      <trkpt lat="49.82052" lon="2.39907">
        <ele>30.6</ele>
        <time>2021-07-11T14:34:03Z</time>
      </trkpt>
      <trkpt lat="49.82054" lon="2.39905">
        <ele>30.6</ele>
        <time>2021-07-11T14:34:04Z</time>
      </trkpt>
      <trkpt lat="49.82054" lon="2.39904">
        <ele>30.6</ele>
        <time>2021-07-11T14:34:05Z</time>
      </trkpt>
      <trkpt lat="49.82055" lon="2.39904">
        <ele>30.6</ele>
        <time>2021-07-11T14:34:06Z</time>
      </trkpt>
      <trkpt lat="49.82057" lon="2.39901">
        <ele>30.6</ele>
        <time>2021-07-11T14:34:07Z</time>
      </trkpt>
      <trkpt lat="49.82057" lon="2.39901">
        <ele>30.6</ele>
        <time>2021-07-11T14:34:08Z</time>
      </trkpt>
      <trkpt lat="49.82058" lon="2.399">
        <ele>30.6</ele>
        <time>2021-07-11T14:34:09Z</time>
      </trkpt>
      <trkpt lat="49.82059" lon="2.39899">
        <ele>30.6</ele>
        <time>2021-07-11T14:34:10Z</time>
      </trkpt>
      <trkpt lat="49.8206" lon="2.39898">
        <ele>30.6</ele>
        <time>2021-07-11T14:34:12Z</time>
      </trkpt>
      <trkpt lat="49.82061" lon="2.39897">
        <ele>30.6</ele>
        <time>2021-07-11T14:34:13Z</time>
      </trkpt>
      <trkpt lat="49.82062" lon="2.39895">
        <ele>30.6</ele>
        <time>2021-07-11T14:34:14Z</time>
      </trkpt>
      <trkpt lat="49.82063" lon="2.39894">
        <ele>30.6</ele>
        <time>2021-07-11T14:34:15Z</time>
      </trkpt>
      <trkpt lat="49.82064" lon="2.39894">
        <ele>30.6</ele>
        <time>2021-07-11T14:34:16Z</time>
      </trkpt>
      <trkpt lat="49.82066" lon="2.39892">
        <ele>30.6</ele>
        <time>2021-07-11T14:34:17Z</time>
      </trkpt>
      <trkpt lat="49.82067" lon="2.39892">
        <ele>30.6</ele>
        <time>2021-07-11T14:34:18Z</time>
      </trkpt>
      <trkpt lat="49.82067" lon="2.39891">
        <ele>30.5</ele>
        <time>2021-07-11T14:34:19Z</time>
      </trkpt>
      <trkpt lat="49.82068" lon="2.3989">
        <ele>30.5</ele>
        <time>2021-07-11T14:34:20Z</time>
      </trkpt>
      <trkpt lat="49.82069" lon="2.3989">
        <ele>30.5</ele>
        <time>2021-07-11T14:34:22Z</time>
      </trkpt>
      <trkpt lat="49.82071" lon="2.39889">
        <ele>30.5</ele>
        <time>2021-07-11T14:34:23Z</time>
      </trkpt>
      <trkpt lat="49.82072" lon="2.39888">
        <ele>30.5</ele>
        <time>2021-07-11T14:34:24Z</time>
      </trkpt>
      <trkpt lat="49.82073" lon="2.39887">
        <ele>30.5</ele>
        <time>2021-07-11T14:34:25Z</time>
      </trkpt>
      <trkpt lat="49.82074" lon="2.39887">
        <ele>30.5</ele>
        <time>2021-07-11T14:34:26Z</time>
      </trkpt>
      <trkpt lat="49.82076" lon="2.39885">
        <ele>30.5</ele>
        <time>2021-07-11T14:34:27Z</time>
      </trkpt>
      <trkpt lat="49.82076" lon="2.39884">
        <ele>30.5</ele>
        <time>2021-07-11T14:34:28Z</time>
      </trkpt>
      <trkpt lat="49.82077" lon="2.39884">
        <ele>30.5</ele>
        <time>2021-07-11T14:34:29Z</time>
      </trkpt>
      <trkpt lat="49.82078" lon="2.39883">
        <ele>30.5</ele>
        <time>2021-07-11T14:34:31Z</time>
      </trkpt>
      <trkpt lat="49.82079" lon="2.39882">
        <ele>30.5</ele>
        <time>2021-07-11T14:34:32Z</time>
      </trkpt>
      <trkpt lat="49.8208" lon="2.39882">
        <ele>30.5</ele>
        <time>2021-07-11T14:34:33Z</time>
      </trkpt>
      <trkpt lat="49.82082" lon="2.3988">
        <ele>30.5</ele>
        <time>2021-07-11T14:34:34Z</time>
      </trkpt>
      <trkpt lat="49.82083" lon="2.39879">
        <ele>30.5</ele>
        <time>2021-07-11T14:34:35Z</time>
      </trkpt>
      <trkpt lat="49.82083" lon="2.39879">
        <ele>30.5</ele>
        <time>2021-07-11T14:34:36Z</time>
      </trkpt>
      <trkpt lat="49.82085" lon="2.39878">
        <ele>30.5</ele>
        <time>2021-07-11T14:34:37Z</time>
      </trkpt>
      <trkpt lat="49.82086" lon="2.39877">
        <ele>30.5</ele>
        <time>2021-07-11T14:34:38Z</time>
      </trkpt>
      <trkpt lat="49.82087" lon="2.39876">
        <ele>30.5</ele>
        <time>2021-07-11T14:34:39Z</time>
      </trkpt>
      <trkpt lat="49.82088" lon="2.39875">
        <ele>30.5</ele>
        <time>2021-07-11T14:34:41Z</time>
      </trkpt>
      <trkpt lat="49.82088" lon="2.39873">
        <ele>30.5</ele>
        <time>2021-07-11T14:34:42Z</time>
      </trkpt>
      <trkpt lat="49.82089" lon="2.39872">
        <ele>30.4</ele>
        <time>2021-07-11T14:34:43Z</time>
      </trkpt>
      <trkpt lat="49.8209" lon="2.39872">
        <ele>30.4</ele>
        <time>2021-07-11T14:34:44Z</time>
      </trkpt>
      <trkpt lat="49.82091" lon="2.39871">
        <ele>30.4</ele>
        <time>2021-07-11T14:34:45Z</time>
      </trkpt>
      <trkpt lat="49.82092" lon="2.39869">
        <ele>30.4</ele>
        <time>2021-07-11T14:34:46Z</time>
      </trkpt>
      <trkpt lat="49.82093" lon="2.39868">
        <ele>30.4</ele>
        <time>2021-07-11T14:34:47Z</time>
      </trkpt>
      <trkpt lat="49.82094" lon="2.39868">
        <ele>30.4</ele>
        <time>2021-07-11T14:34:48Z</time>
      </trkpt>
      <trkpt lat="49.82095" lon="2.39867">
        <ele>30.4</ele>
        <time>2021-07-11T14:34:49Z</time>
      </trkpt>
      <trkpt lat="49.82096" lon="2.39866">
        <ele>30.4</ele>
        <time>2021-07-11T14:34:51Z</time>
      </trkpt>
      <trkpt lat="49.82097" lon="2.39865">
        <ele>30.4</ele>
        <time>2021-07-11T14:34:52Z</time>
      </trkpt>
      <trkpt lat="49.82098" lon="2.39864">
        <ele>30.4</ele>
        <time>2021-07-11T14:34:53Z</time>
      </trkpt>
      <trkpt lat="49.82099" lon="2.39863">
        <ele>30.4</ele>
        <time>2021-07-11T14:34:54Z</time>
      </trkpt>
      <trkpt lat="49.821" lon="2.39862">
        <ele>30.4</ele>
        <time>2021-07-11T14:34:55Z</time>
      </trkpt>
      <trkpt lat="49.821" lon="2.39861">
        <ele>30.4</ele>
        <time>2021-07-11T14:34:56Z</time>
      </trkpt>
      <trkpt lat="49.82101" lon="2.39859">
        <ele>30.4</ele>
        <time>2021-07-11T14:34:57Z</time>
      </trkpt>
      <trkpt lat="49.82102" lon="2.39858">
        <ele>30.4</ele>
        <time>2021-07-11T14:34:58Z</time>
      </trkpt>
      <trkpt lat="49.82103" lon="2.39857">
        <ele>30.4</ele>
        <time>2021-07-11T14:35:00Z</time>
      </trkpt>
      <trkpt lat="49.82104" lon="2.39856">
        <ele>30.4</ele>
        <time>2021-07-11T14:35:01Z</time>
      </trkpt>
      <trkpt lat="49.82105" lon="2.39855">
        <ele>30.4</ele>
        <time>2021-07-11T14:35:02Z</time>
      </trkpt>
      <trkpt lat="49.82106" lon="2.39853">
        <ele>30.4</ele>
        <time>2021-07-11T14:35:03Z</time>
      </trkpt>
      <trkpt lat="49.82107" lon="2.39852">
        <ele>30.4</ele>
        <time>2021-07-11T14:35:04Z</time>
      </trkpt>
      <trkpt lat="49.82108" lon="2.39852">
        <ele>30.4</ele>
        <time>2021-07-11T14:35:05Z</time>
      </trkpt>
      <trkpt lat="49.82109" lon="2.39851">
        <ele>30.4</ele>
        <time>2021-07-11T14:35:06Z</time>
      </trkpt>
      <trkpt lat="49.8211" lon="2.3985">
        <ele>30.4</ele>
        <time>2021-07-11T14:35:07Z</time>
      </trkpt>
      <trkpt lat="49.82111" lon="2.39849">
        <ele>30.4</ele>
        <time>2021-07-11T14:35:08Z</time>
      </trkpt>
      <trkpt lat="49.82112" lon="2.39848">
        <ele>30.4</ele>
        <time>2021-07-11T14:35:10Z</time>
      </trkpt>
      <trkpt lat="49.82113" lon="2.39847">
        <ele>30.4</ele>
        <time>2021-07-11T14:35:11Z</time>
      </trkpt>
      <trkpt lat="49.82114" lon="2.39846">
        <ele>30.4</ele>
        <time>2021-07-11T14:35:12Z</time>
      </trkpt>
      <trkpt lat="49.82116" lon="2.39845">
        <ele>30.3</ele>
        <time>2021-07-11T14:35:13Z</time>
      </trkpt>
      <trkpt lat="49.82117" lon="2.39844">
        <ele>30.3</ele>
        <time>2021-07-11T14:35:14Z</time>
      </trkpt>
      <trkpt lat="49.82117" lon="2.39844">
        <ele>30.3</ele>
        <time>2021-07-11T14:35:15Z</time>
      </trkpt>
      <trkpt lat="49.82119" lon="2.39842">
        <ele>30.3</ele>
        <time>2021-07-11T14:35:16Z</time>
      </trkpt>
      <trkpt lat="49.8212" lon="2.39841">
        <ele>30.3</ele>
        <time>2021-07-11T14:35:18Z</time>
      </trkpt>
      <trkpt lat="49.82121" lon="2.3984">
        <ele>30.3</ele>
        <time>2021-07-11T14:35:19Z</time>
      </trkpt>
      <trkpt lat="49.82122" lon="2.39839">
        <ele>30.3</ele>
        <time>2021-07-11T14:35:20Z</time>
      </trkpt>
      <trkpt lat="49.82123" lon="2.39838">
        <ele>30.3</ele>
        <time>2021-07-11T14:35:21Z</time>
      </trkpt>
      <trkpt lat="49.82124" lon="2.39837">
        <ele>30.3</ele>
        <time>2021-07-11T14:35:22Z</time>
      </trkpt>
      <trkpt lat="49.82125" lon="2.39836">
        <ele>30.3</ele>
        <time>2021-07-11T14:35:23Z</time>
      </trkpt>
      <trkpt lat="49.82127" lon="2.39835">
        <ele>30.3</ele>
        <time>2021-07-11T14:35:24Z</time>
      </trkpt>
      <trkpt lat="49.82128" lon="2.39834">
        <ele>30.3</ele>
        <time>2021-07-11T14:35:26Z</time>
      </trkpt>
      <trkpt lat="49.82129" lon="2.39833">
        <ele>30.2</ele>
        <time>2021-07-11T14:35:27Z</time>
      </trkpt>
      <trkpt lat="49.8213" lon="2.39832">
        <ele>30.2</ele>
        <time>2021-07-11T14:35:28Z</time>
      </trkpt>
      <trkpt lat="49.82131" lon="2.39832">
        <ele>30.2</ele>
        <time>2021-07-11T14:35:29Z</time>
      </trkpt>
      <trkpt lat="49.82133" lon="2.39831">
        <ele>30.2</ele>
        <time>2021-07-11T14:35:30Z</time>
      </trkpt>
      <trkpt lat="49.82134" lon="2.3983">
        <ele>30.2</ele>
        <time>2021-07-11T14:35:31Z</time>
      </trkpt>
      <trkpt lat="49.82135" lon="2.39829">
        <ele>30.2</ele>
        <time>2021-07-11T14:35:32Z</time>
      </trkpt>
      <trkpt lat="49.82136" lon="2.39828">
        <ele>30.2</ele>
        <time>2021-07-11T14:35:33Z</time>
      </trkpt>
      <trkpt lat="49.82137" lon="2.39828">
        <ele>30.2</ele>
        <time>2021-07-11T14:35:35Z</time>
      </trkpt>
      <trkpt lat="49.82139" lon="2.39827">
        <ele>30.2</ele>
        <time>2021-07-11T14:35:36Z</time>
      </trkpt>
      <trkpt lat="49.8214" lon="2.39826">
        <ele>30.2</ele>
        <time>2021-07-11T14:35:37Z</time>
      </trkpt>
      <trkpt lat="49.82141" lon="2.39826">
        <ele>30.2</ele>
        <time>2021-07-11T14:35:38Z</time>
      </trkpt>
      <trkpt lat="49.82142" lon="2.39825">
        <ele>30.2</ele>
        <time>2021-07-11T14:35:39Z</time>
      </trkpt>
      <trkpt lat="49.82143" lon="2.39824">
        <ele>30.2</ele>
        <time>2021-07-11T14:35:40Z</time>
      </trkpt>
      <trkpt lat="49.82144" lon="2.39823">
        <ele>30.2</ele>
        <time>2021-07-11T14:35:41Z</time>
      </trkpt>
      <trkpt lat="49.82145" lon="2.39823">
        <ele>30.2</ele>
        <time>2021-07-11T14:35:42Z</time>
      </trkpt>
      <trkpt lat="49.82146" lon="2.39822">
        <ele>30.2</ele>
        <time>2021-07-11T14:35:43Z</time>
      </trkpt>
      <trkpt lat="49.82148" lon="2.3982">
        <ele>30.2</ele>
        <time>2021-07-11T14:35:45Z</time>
      </trkpt>
      <trkpt lat="49.82149" lon="2.39819">
        <ele>30.2</ele>
        <time>2021-07-11T14:35:46Z</time>
      </trkpt>
      <trkpt lat="49.82149" lon="2.39818">
        <ele>30.2</ele>
        <time>2021-07-11T14:35:47Z</time>
      </trkpt>
      <trkpt lat="49.8215" lon="2.39816">
        <ele>30.2</ele>
        <time>2021-07-11T14:35:48Z</time>
      </trkpt>
      <trkpt lat="49.82151" lon="2.39815">
        <ele>30.2</ele>
        <time>2021-07-11T14:35:50Z</time>
      </trkpt>
      <trkpt lat="49.82152" lon="2.39814">
        <ele>30.2</ele>
        <time>2021-07-11T14:35:51Z</time>
      </trkpt>
      <trkpt lat="49.82152" lon="2.39812">
        <ele>30.2</ele>
        <time>2021-07-11T14:35:52Z</time>
      </trkpt>
      <trkpt lat="49.82153" lon="2.39811">
        <ele>30.2</ele>
        <time>2021-07-11T14:35:53Z</time>
      </trkpt>
      <trkpt lat="49.82154" lon="2.39809">
        <ele>30.2</ele>
        <time>2021-07-11T14:35:54Z</time>
      </trkpt>
      <trkpt lat="49.82155" lon="2.39808">
        <ele>30.2</ele>
        <time>2021-07-11T14:35:55Z</time>
      </trkpt>
      <trkpt lat="49.82156" lon="2.39806">
        <ele>30.2</ele>
        <time>2021-07-11T14:35:56Z</time>
      </trkpt>
      <trkpt lat="49.82157" lon="2.39805">
        <ele>30.2</ele>
        <time>2021-07-11T14:35:57Z</time>
      </trkpt>
      <trkpt lat="49.82158" lon="2.39804">
        <ele>30.2</ele>
        <time>2021-07-11T14:35:59Z</time>
      </trkpt>
      <trkpt lat="49.82159" lon="2.39804">
        <ele>30.2</ele>
        <time>2021-07-11T14:36:00Z</time>
      </trkpt>
      <trkpt lat="49.8216" lon="2.39802">
        <ele>30.2</ele>
        <time>2021-07-11T14:36:01Z</time>
      </trkpt>
      <trkpt lat="49.82161" lon="2.39801">
        <ele>30.2</ele>
        <time>2021-07-11T14:36:02Z</time>
      </trkpt>
      <trkpt lat="49.82162" lon="2.398">
        <ele>30.2</ele>
        <time>2021-07-11T14:36:03Z</time>
      </trkpt>
      <trkpt lat="49.82163" lon="2.39799">
        <ele>30.2</ele>
        <time>2021-07-11T14:36:05Z</time>
      </trkpt>
      <trkpt lat="49.82165" lon="2.39798">
        <ele>30.2</ele>
        <time>2021-07-11T14:36:06Z</time>
      </trkpt>
      <trkpt lat="49.82166" lon="2.39797">
        <ele>30.2</ele>
        <time>2021-07-11T14:36:07Z</time>
      </trkpt>
      <trkpt lat="49.82167" lon="2.39796">
        <ele>30.2</ele>
        <time>2021-07-11T14:36:09Z</time>
      </trkpt>
      <trkpt lat="49.82168" lon="2.39796">
        <ele>30.2</ele>
        <time>2021-07-11T14:36:10Z</time>
      </trkpt>
      <trkpt lat="49.82169" lon="2.39795">
        <ele>30.2</ele>
        <time>2021-07-11T14:36:11Z</time>
      </trkpt>
      <trkpt lat="49.8217" lon="2.39794">
        <ele>30.2</ele>
        <time>2021-07-11T14:36:12Z</time>
      </trkpt>
      <trkpt lat="49.82172" lon="2.39793">
        <ele>30.2</ele>
        <time>2021-07-11T14:36:13Z</time>
      </trkpt>
      <trkpt lat="49.82172" lon="2.39792">
        <ele>30.2</ele>
        <time>2021-07-11T14:36:14Z</time>
      </trkpt>
      <trkpt lat="49.82173" lon="2.39792">
        <ele>30.2</ele>
        <time>2021-07-11T14:36:15Z</time>
      </trkpt>
      <trkpt lat="49.82174" lon="2.39791">
        <ele>30.2</ele>
        <time>2021-07-11T14:36:16Z</time>
      </trkpt>
      <trkpt lat="49.82175" lon="2.3979">
        <ele>30.2</ele>
        <time>2021-07-11T14:36:18Z</time>
      </trkpt>
      <trkpt lat="49.82176" lon="2.39789">
        <ele>30.2</ele>
        <time>2021-07-11T14:36:19Z</time>
      </trkpt>
      <trkpt lat="49.82178" lon="2.39788">
        <ele>30.2</ele>
        <time>2021-07-11T14:36:20Z</time>
      </trkpt>
      <trkpt lat="49.82179" lon="2.39787">
        <ele>30.2</ele>
        <time>2021-07-11T14:36:21Z</time>
      </trkpt>
      <trkpt lat="49.8218" lon="2.39786">
        <ele>30.2</ele>
        <time>2021-07-11T14:36:22Z</time>
      </trkpt>
      <trkpt lat="49.82181" lon="2.39786">
        <ele>30.2</ele>
        <time>2021-07-11T14:36:23Z</time>
      </trkpt>
      <trkpt lat="49.82182" lon="2.39785">
        <ele>30.2</ele>
        <time>2021-07-11T14:36:24Z</time>
      </trkpt>
      <trkpt lat="49.82183" lon="2.39784">
        <ele>30.2</ele>
        <time>2021-07-11T14:36:25Z</time>
      </trkpt>
      <trkpt lat="49.82184" lon="2.39783">
        <ele>30.2</ele>
        <time>2021-07-11T14:36:27Z</time>
      </trkpt>
      <trkpt lat="49.82185" lon="2.39782">
        <ele>30.2</ele>
        <time>2021-07-11T14:36:28Z</time>
      </trkpt>
      <trkpt lat="49.82186" lon="2.3978">
        <ele>30.2</ele>
        <time>2021-07-11T14:36:29Z</time>
      </trkpt>
      <trkpt lat="49.82187" lon="2.3978">
        <ele>30.3</ele>
        <time>2021-07-11T14:36:30Z</time>
      </trkpt>
      <trkpt lat="49.82188" lon="2.39779">
        <ele>30.3</ele>
        <time>2021-07-11T14:36:31Z</time>
      </trkpt>
      <trkpt lat="49.8219" lon="2.39777">
        <ele>30.3</ele>
        <time>2021-07-11T14:36:32Z</time>
      </trkpt>
      <trkpt lat="49.82191" lon="2.39777">
        <ele>30.3</ele>
        <time>2021-07-11T14:36:33Z</time>
      </trkpt>
      <trkpt lat="49.82191" lon="2.39777">
        <ele>30.3</ele>
        <time>2021-07-11T14:36:34Z</time>
      </trkpt>
      <trkpt lat="49.82193" lon="2.39775">
        <ele>30.3</ele>
        <time>2021-07-11T14:36:35Z</time>
      </trkpt>
      <trkpt lat="49.82194" lon="2.39775">
        <ele>30.3</ele>
        <time>2021-07-11T14:36:37Z</time>
      </trkpt>
      <trkpt lat="49.82195" lon="2.39774">
        <ele>30.3</ele>
        <time>2021-07-11T14:36:38Z</time>
      </trkpt>
      <trkpt lat="49.82196" lon="2.39773">
        <ele>30.3</ele>
        <time>2021-07-11T14:36:39Z</time>
      </trkpt>
      <trkpt lat="49.82197" lon="2.39772">
        <ele>30.3</ele>
        <time>2021-07-11T14:36:40Z</time>
      </trkpt>
      <trkpt lat="49.82199" lon="2.39771">
        <ele>30.3</ele>
        <time>2021-07-11T14:36:41Z</time>
      </trkpt>
      <trkpt lat="49.822" lon="2.3977">
        <ele>30.3</ele>
        <time>2021-07-11T14:36:42Z</time>
      </trkpt>
      <trkpt lat="49.82201" lon="2.39769">
        <ele>30.3</ele>
        <time>2021-07-11T14:36:43Z</time>
      </trkpt>
      <trkpt lat="49.82202" lon="2.39768">
        <ele>30.3</ele>
        <time>2021-07-11T14:36:44Z</time>
      </trkpt>
      <trkpt lat="49.82203" lon="2.39768">
        <ele>30.3</ele>
        <time>2021-07-11T14:36:45Z</time>
      </trkpt>
      <trkpt lat="49.82204" lon="2.39767">
        <ele>30.3</ele>
        <time>2021-07-11T14:36:47Z</time>
      </trkpt>
      <trkpt lat="49.82205" lon="2.39766">
        <ele>30.3</ele>
        <time>2021-07-11T14:36:48Z</time>
      </trkpt>
      <trkpt lat="49.82206" lon="2.39765">
        <ele>30.4</ele>
        <time>2021-07-11T14:36:49Z</time>
      </trkpt>
      <trkpt lat="49.82207" lon="2.39764">
        <ele>30.4</ele>
        <time>2021-07-11T14:36:50Z</time>
      </trkpt>
      <trkpt lat="49.82208" lon="2.39764">
        <ele>30.4</ele>
        <time>2021-07-11T14:36:51Z</time>
      </trkpt>
      <trkpt lat="49.82209" lon="2.39763">
        <ele>30.4</ele>
        <time>2021-07-11T14:36:52Z</time>
      </trkpt>
      <trkpt lat="49.8221" lon="2.39762">
        <ele>30.4</ele>
        <time>2021-07-11T14:36:53Z</time>
      </trkpt>
      <trkpt lat="49.82211" lon="2.39761">
        <ele>30.4</ele>
        <time>2021-07-11T14:36:54Z</time>
      </trkpt>
      <trkpt lat="49.82212" lon="2.3976">
        <ele>30.4</ele>
        <time>2021-07-11T14:36:56Z</time>
      </trkpt>
      <trkpt lat="49.82213" lon="2.39759">
        <ele>30.4</ele>
        <time>2021-07-11T14:36:57Z</time>
      </trkpt>
      <trkpt lat="49.82214" lon="2.39757">
        <ele>30.4</ele>
        <time>2021-07-11T14:36:58Z</time>
      </trkpt>
      <trkpt lat="49.82215" lon="2.39756">
        <ele>30.4</ele>
        <time>2021-07-11T14:36:59Z</time>
      </trkpt>
      <trkpt lat="49.82215" lon="2.39755">
        <ele>30.4</ele>
        <time>2021-07-11T14:37:00Z</time>
      </trkpt>
      <trkpt lat="49.82216" lon="2.39754">
        <ele>30.4</ele>
        <time>2021-07-11T14:37:01Z</time>
      </trkpt>
      <trkpt lat="49.82217" lon="2.39752">
        <ele>30.4</ele>
        <time>2021-07-11T14:37:02Z</time>
      </trkpt>
      <trkpt lat="49.82218" lon="2.39751">
        <ele>30.4</ele>
        <time>2021-07-11T14:37:04Z</time>
      </trkpt>
      <trkpt lat="49.82219" lon="2.3975">
        <ele>30.4</ele>
        <time>2021-07-11T14:37:05Z</time>
      </trkpt>
      <trkpt lat="49.8222" lon="2.39749">
        <ele>30.4</ele>
        <time>2021-07-11T14:37:06Z</time>
      </trkpt>
      <trkpt lat="49.82221" lon="2.39748">
        <ele>30.4</ele>
        <time>2021-07-11T14:37:07Z</time>
      </trkpt>
      <trkpt lat="49.82222" lon="2.39747">
        <ele>30.4</ele>
        <time>2021-07-11T14:37:08Z</time>
      </trkpt>
      <trkpt lat="49.82223" lon="2.39746">
        <ele>30.4</ele>
        <time>2021-07-11T14:37:09Z</time>
      </trkpt>
      <trkpt lat="49.82224" lon="2.39745">
        <ele>30.4</ele>
        <time>2021-07-11T14:37:10Z</time>
      </trkpt>
      <trkpt lat="49.82224" lon="2.39745">
        <ele>30.4</ele>
        <time>2021-07-11T14:37:12Z</time>
      </trkpt>
      <trkpt lat="49.82225" lon="2.39744">
        <ele>30.4</ele>
        <time>2021-07-11T14:37:13Z</time>
      </trkpt>
      <trkpt lat="49.82226" lon="2.39743">
        <ele>30.4</ele>
        <time>2021-07-11T14:37:14Z</time>
      </trkpt>
      <trkpt lat="49.82227" lon="2.39742">
        <ele>30.5</ele>
        <time>2021-07-11T14:37:15Z</time>
      </trkpt>
      <trkpt lat="49.82228" lon="2.39741">
        <ele>30.5</ele>
        <time>2021-07-11T14:37:16Z</time>
      </trkpt>
      <trkpt lat="49.82229" lon="2.39741">
        <ele>30.5</ele>
        <time>2021-07-11T14:37:17Z</time>
      </trkpt>
      <trkpt lat="49.8223" lon="2.3974">
        <ele>30.5</ele>
        <time>2021-07-11T14:37:18Z</time>
      </trkpt>
      <trkpt lat="49.82231" lon="2.3974">
        <ele>30.5</ele>
        <time>2021-07-11T14:37:20Z</time>
      </trkpt>
      <trkpt lat="49.82232" lon="2.39739">
        <ele>30.5</ele>
        <time>2021-07-11T14:37:21Z</time>
      </trkpt>
      <trkpt lat="49.82235" lon="2.39739">
        <ele>30.5</ele>
        <time>2021-07-11T14:37:22Z</time>
      </trkpt>
      <trkpt lat="49.82235" lon="2.39739">
        <ele>30.5</ele>
        <time>2021-07-11T14:37:23Z</time>
      </trkpt>
      <trkpt lat="49.82236" lon="2.39739">
        <ele>30.5</ele>
        <time>2021-07-11T14:37:24Z</time>
      </trkpt>
      <trkpt lat="49.82238" lon="2.39738">
        <ele>30.5</ele>
        <time>2021-07-11T14:37:25Z</time>
      </trkpt>
      <trkpt lat="49.82239" lon="2.39738">
        <ele>30.5</ele>
        <time>2021-07-11T14:37:26Z</time>
      </trkpt>
      <trkpt lat="49.8224" lon="2.39738">
        <ele>30.5</ele>
        <time>2021-07-11T14:37:27Z</time>
      </trkpt>
      <trkpt lat="49.82242" lon="2.39738">
        <ele>30.5</ele>
        <time>2021-07-11T14:37:28Z</time>
      </trkpt>
      <trkpt lat="49.82243" lon="2.39738">
        <ele>30.5</ele>
        <time>2021-07-11T14:37:30Z</time>
      </trkpt>
      <trkpt lat="49.82244" lon="2.39738">
        <ele>30.5</ele>
        <time>2021-07-11T14:37:31Z</time>
      </trkpt>
      <trkpt lat="49.82245" lon="2.39738">
        <ele>30.5</ele>
        <time>2021-07-11T14:37:32Z</time>
      </trkpt>
      <trkpt lat="49.82246" lon="2.39738">
        <ele>30.5</ele>
        <time>2021-07-11T14:37:33Z</time>
      </trkpt>
      <trkpt lat="49.82248" lon="2.39738">
        <ele>30.5</ele>
        <time>2021-07-11T14:37:35Z</time>
      </trkpt>
      <trkpt lat="49.8225" lon="2.39738">
        <ele>30.5</ele>
        <time>2021-07-11T14:37:36Z</time>
      </trkpt>
      <trkpt lat="49.82251" lon="2.39738">
        <ele>30.5</ele>
        <time>2021-07-11T14:37:37Z</time>
      </trkpt>
      <trkpt lat="49.82252" lon="2.39738">
        <ele>30.5</ele>
        <time>2021-07-11T14:37:38Z</time>
      </trkpt>
      <trkpt lat="49.82254" lon="2.39738">
        <ele>30.5</ele>
        <time>2021-07-11T14:37:40Z</time>
      </trkpt>
      <trkpt lat="49.82255" lon="2.39738">
        <ele>30.5</ele>
        <time>2021-07-11T14:37:41Z</time>
      </trkpt>
      <trkpt lat="49.82257" lon="2.39737">
        <ele>30.5</ele>
        <time>2021-07-11T14:37:42Z</time>
      </trkpt>
      <trkpt lat="49.82258" lon="2.39737">
        <ele>30.5</ele>
        <time>2021-07-11T14:37:43Z</time>
      </trkpt>
      <trkpt lat="49.82259" lon="2.39737">
        <ele>30.5</ele>
        <time>2021-07-11T14:37:44Z</time>
      </trkpt>
      <trkpt lat="49.82261" lon="2.39736">
        <ele>30.5</ele>
        <time>2021-07-11T14:37:45Z</time>
      </trkpt>
      <trkpt lat="49.82262" lon="2.39736">
        <ele>30.5</ele>
        <time>2021-07-11T14:37:46Z</time>
      </trkpt>
      <trkpt lat="49.82263" lon="2.39736">
        <ele>30.5</ele>
        <time>2021-07-11T14:37:47Z</time>
      </trkpt>
      <trkpt lat="49.82265" lon="2.39735">
        <ele>30.5</ele>
        <time>2021-07-11T14:37:48Z</time>
      </trkpt>
      <trkpt lat="49.82266" lon="2.39735">
        <ele>30.5</ele>
        <time>2021-07-11T14:37:50Z</time>
      </trkpt>
      <trkpt lat="49.82267" lon="2.39735">
        <ele>30.5</ele>
        <time>2021-07-11T14:37:51Z</time>
      </trkpt>
      <trkpt lat="49.82268" lon="2.39735">
        <ele>30.5</ele>
        <time>2021-07-11T14:37:52Z</time>
      </trkpt>
      <trkpt lat="49.8227" lon="2.39734">
        <ele>30.5</ele>
        <time>2021-07-11T14:37:53Z</time>
      </trkpt>
      <trkpt lat="49.82271" lon="2.39734">
        <ele>30.5</ele>
        <time>2021-07-11T14:37:54Z</time>
      </trkpt>
      <trkpt lat="49.82273" lon="2.39734">
        <ele>30.4</ele>
        <time>2021-07-11T14:37:55Z</time>
      </trkpt>
      <trkpt lat="49.82274" lon="2.39734">
        <ele>30.4</ele>
        <time>2021-07-11T14:37:56Z</time>
      </trkpt>
      <trkpt lat="49.82276" lon="2.39733">
        <ele>30.4</ele>
        <time>2021-07-11T14:37:57Z</time>
      </trkpt>
      <trkpt lat="49.82277" lon="2.39733">
        <ele>30.4</ele>
        <time>2021-07-11T14:37:58Z</time>
      </trkpt>
      <trkpt lat="49.82278" lon="2.39733">
        <ele>30.4</ele>
        <time>2021-07-11T14:38:00Z</time>
      </trkpt>
      <trkpt lat="49.82279" lon="2.39733">
        <ele>30.4</ele>
        <time>2021-07-11T14:38:01Z</time>
      </trkpt>
      <trkpt lat="49.8228" lon="2.39733">
        <ele>30.4</ele>
        <time>2021-07-11T14:38:02Z</time>
      </trkpt>
      <trkpt lat="49.82281" lon="2.39733">
        <ele>30.4</ele>
        <time>2021-07-11T14:38:03Z</time>
      </trkpt>
      <trkpt lat="49.82282" lon="2.39733">
        <ele>30.4</ele>
        <time>2021-07-11T14:38:04Z</time>
      </trkpt>
      <trkpt lat="49.82283" lon="2.39733">
        <ele>30.3</ele>
        <time>2021-07-11T14:38:05Z</time>
      </trkpt>
      <trkpt lat="49.82284" lon="2.39733">
        <ele>30.3</ele>
        <time>2021-07-11T14:38:06Z</time>
      </trkpt>
      <trkpt lat="49.82286" lon="2.39733">
        <ele>30.3</ele>
        <time>2021-07-11T14:38:07Z</time>
      </trkpt>
      <trkpt lat="49.82287" lon="2.39733">
        <ele>30.3</ele>
        <time>2021-07-11T14:38:09Z</time>
      </trkpt>
      <trkpt lat="49.82288" lon="2.39733">
        <ele>30.3</ele>
        <time>2021-07-11T14:38:10Z</time>
      </trkpt>
      <trkpt lat="49.82289" lon="2.39732">
        <ele>30.3</ele>
        <time>2021-07-11T14:38:11Z</time>
      </trkpt>
      <trkpt lat="49.82289" lon="2.39732">
        <ele>30.3</ele>
        <time>2021-07-11T14:38:12Z</time>
      </trkpt>
      <trkpt lat="49.8229" lon="2.39731">
        <ele>30.3</ele>
        <time>2021-07-11T14:38:13Z</time>
      </trkpt>
      <trkpt lat="49.82291" lon="2.39731">
        <ele>30.3</ele>
        <time>2021-07-11T14:38:14Z</time>
      </trkpt>
      <trkpt lat="49.82292" lon="2.39731">
        <ele>30.3</ele>
        <time>2021-07-11T14:38:15Z</time>
      </trkpt>
      <trkpt lat="49.82294" lon="2.39731">
        <ele>30.2</ele>
        <time>2021-07-11T14:38:16Z</time>
      </trkpt>
      <trkpt lat="49.82294" lon="2.39731">
        <ele>30.2</ele>
        <time>2021-07-11T14:38:17Z</time>
      </trkpt>
      <trkpt lat="49.82295" lon="2.39731">
        <ele>30.2</ele>
        <time>2021-07-11T14:38:19Z</time>
      </trkpt>
      <trkpt lat="49.82296" lon="2.39731">
        <ele>30.2</ele>
        <time>2021-07-11T14:38:20Z</time>
      </trkpt>
      <trkpt lat="49.82298" lon="2.39731">
        <ele>30.2</ele>
        <time>2021-07-11T14:38:21Z</time>
      </trkpt>
      <trkpt lat="49.82299" lon="2.39731">
        <ele>30.2</ele>
        <time>2021-07-11T14:38:22Z</time>
      </trkpt>
      <trkpt lat="49.823" lon="2.39731">
        <ele>30.2</ele>
        <time>2021-07-11T14:38:23Z</time>
      </trkpt>
      <trkpt lat="49.82301" lon="2.39731">
        <ele>30.2</ele>
        <time>2021-07-11T14:38:24Z</time>
      </trkpt>
      <trkpt lat="49.82302" lon="2.39731">
        <ele>30.2</ele>
        <time>2021-07-11T14:38:25Z</time>
      </trkpt>
      <trkpt lat="49.82303" lon="2.39731">
        <ele>30.2</ele>
        <time>2021-07-11T14:38:26Z</time>
      </trkpt>
      <trkpt lat="49.82304" lon="2.39731">
        <ele>30.2</ele>
        <time>2021-07-11T14:38:28Z</time>
      </trkpt>
      <trkpt lat="49.82306" lon="2.3973">
        <ele>30.2</ele>
        <time>2021-07-11T14:38:29Z</time>
      </trkpt>
      <trkpt lat="49.82307" lon="2.3973">
        <ele>30.2</ele>
        <time>2021-07-11T14:38:30Z</time>
      </trkpt>
      <trkpt lat="49.82308" lon="2.3973">
        <ele>30.2</ele>
        <time>2021-07-11T14:38:31Z</time>
      </trkpt>
      <trkpt lat="49.82309" lon="2.3973">
        <ele>30.2</ele>
        <time>2021-07-11T14:38:32Z</time>
      </trkpt>
      <trkpt lat="49.8231" lon="2.3973">
        <ele>30.2</ele>
        <time>2021-07-11T14:38:33Z</time>
      </trkpt>
      <trkpt lat="49.82311" lon="2.3973">
        <ele>30.2</ele>
        <time>2021-07-11T14:38:34Z</time>
      </trkpt>
      <trkpt lat="49.82313" lon="2.3973">
        <ele>30.2</ele>
        <time>2021-07-11T14:38:35Z</time>
      </trkpt>
      <trkpt lat="49.82314" lon="2.3973">
        <ele>30.2</ele>
        <time>2021-07-11T14:38:37Z</time>
      </trkpt>
      <trkpt lat="49.82315" lon="2.3973">
        <ele>30.2</ele>
        <time>2021-07-11T14:38:38Z</time>
      </trkpt>
      <trkpt lat="49.82316" lon="2.3973">
        <ele>30.2</ele>
        <time>2021-07-11T14:38:39Z</time>
      </trkpt>
      <trkpt lat="49.82317" lon="2.3973">
        <ele>30.2</ele>
        <time>2021-07-11T14:38:40Z</time>
      </trkpt>
      <trkpt lat="49.82318" lon="2.39729">
        <ele>30.2</ele>
        <time>2021-07-11T14:38:41Z</time>
      </trkpt>
      <trkpt lat="49.82319" lon="2.39729">
        <ele>30.2</ele>
        <time>2021-07-11T14:38:42Z</time>
      </trkpt>
      <trkpt lat="49.82321" lon="2.39729">
        <ele>30.2</ele>
        <time>2021-07-11T14:38:43Z</time>
      </trkpt>
      <trkpt lat="49.82322" lon="2.39729">
        <ele>30.2</ele>
        <time>2021-07-11T14:38:44Z</time>
      </trkpt>
      <trkpt lat="49.82323" lon="2.39729">
        <ele>30.2</ele>
        <time>2021-07-11T14:38:46Z</time>
      </trkpt>
      <trkpt lat="49.82324" lon="2.39729">
        <ele>30.2</ele>
        <time>2021-07-11T14:38:47Z</time>
      </trkpt>
      <trkpt lat="49.82325" lon="2.39729">
        <ele>30.2</ele>
        <time>2021-07-11T14:38:48Z</time>
      </trkpt>
      <trkpt lat="49.82327" lon="2.3973">
        <ele>30.2</ele>
        <time>2021-07-11T14:38:49Z</time>
      </trkpt>
      <trkpt lat="49.82328" lon="2.3973">
        <ele>30.2</ele>
        <time>2021-07-11T14:38:50Z</time>
      </trkpt>
      <trkpt lat="49.82329" lon="2.3973">
        <ele>30.2</ele>
        <time>2021-07-11T14:38:51Z</time>
      </trkpt>
      <trkpt lat="49.8233" lon="2.3973">
        <ele>30.2</ele>
        <time>2021-07-11T14:38:52Z</time>
      </trkpt>
      <trkpt lat="49.82331" lon="2.3973">
        <ele>30.2</ele>
        <time>2021-07-11T14:38:53Z</time>
      </trkpt>
      <trkpt lat="49.82333" lon="2.3973">
        <ele>30.2</ele>
        <time>2021-07-11T14:38:55Z</time>
      </trkpt>
      <trkpt lat="49.82334" lon="2.3973">
        <ele>30.2</ele>
        <time>2021-07-11T14:38:56Z</time>
      </trkpt>
      <trkpt lat="49.82335" lon="2.3973">
        <ele>30.2</ele>
        <time>2021-07-11T14:38:57Z</time>
      </trkpt>
      <trkpt lat="49.82337" lon="2.39729">
        <ele>30.2</ele>
        <time>2021-07-11T14:38:58Z</time>
      </trkpt>
      <trkpt lat="49.82338" lon="2.39729">
        <ele>30.2</ele>
        <time>2021-07-11T14:38:59Z</time>
      </trkpt>
      <trkpt lat="49.82339" lon="2.39729">
        <ele>30.2</ele>
        <time>2021-07-11T14:39:00Z</time>
      </trkpt>
      <trkpt lat="49.8234" lon="2.39729">
        <ele>30.2</ele>
        <time>2021-07-11T14:39:01Z</time>
      </trkpt>
      <trkpt lat="49.82342" lon="2.39728">
        <ele>30.2</ele>
        <time>2021-07-11T14:39:02Z</time>
      </trkpt>
      <trkpt lat="49.82344" lon="2.39728">
        <ele>30.2</ele>
        <time>2021-07-11T14:39:03Z</time>
      </trkpt>
      <trkpt lat="49.82345" lon="2.39728">
        <ele>30.2</ele>
        <time>2021-07-11T14:39:05Z</time>
      </trkpt>
      <trkpt lat="49.82346" lon="2.39728">
        <ele>30.2</ele>
        <time>2021-07-11T14:39:06Z</time>
      </trkpt>
      <trkpt lat="49.82348" lon="2.39728">
        <ele>30.2</ele>
        <time>2021-07-11T14:39:07Z</time>
      </trkpt>
      <trkpt lat="49.82349" lon="2.39727">
        <ele>30.3</ele>
        <time>2021-07-11T14:39:08Z</time>
      </trkpt>
      <trkpt lat="49.82349" lon="2.39727">
        <ele>30.3</ele>
        <time>2021-07-11T14:39:09Z</time>
      </trkpt>
      <trkpt lat="49.82351" lon="2.39727">
        <ele>30.3</ele>
        <time>2021-07-11T14:39:10Z</time>
      </trkpt>
      <trkpt lat="49.82352" lon="2.39726">
        <ele>30.3</ele>
        <time>2021-07-11T14:39:11Z</time>
      </trkpt>
      <trkpt lat="49.82353" lon="2.39726">
        <ele>30.3</ele>
        <time>2021-07-11T14:39:12Z</time>
      </trkpt>
      <trkpt lat="49.82355" lon="2.39726">
        <ele>30.3</ele>
        <time>2021-07-11T14:39:14Z</time>
      </trkpt>
      <trkpt lat="49.82356" lon="2.39726">
        <ele>30.3</ele>
        <time>2021-07-11T14:39:15Z</time>
      </trkpt>
      <trkpt lat="49.82357" lon="2.39725">
        <ele>30.3</ele>
        <time>2021-07-11T14:39:16Z</time>
      </trkpt>
      <trkpt lat="49.82358" lon="2.39725">
        <ele>30.3</ele>
        <time>2021-07-11T14:39:17Z</time>
      </trkpt>
      <trkpt lat="49.8236" lon="2.39724">
        <ele>30.3</ele>
        <time>2021-07-11T14:39:18Z</time>
      </trkpt>
      <trkpt lat="49.82361" lon="2.39723">
        <ele>30.3</ele>
        <time>2021-07-11T14:39:19Z</time>
      </trkpt>
      <trkpt lat="49.82363" lon="2.39722">
        <ele>30.3</ele>
        <time>2021-07-11T14:39:20Z</time>
      </trkpt>
      <trkpt lat="49.82364" lon="2.39722">
        <ele>30.3</ele>
        <time>2021-07-11T14:39:21Z</time>
      </trkpt>
      <trkpt lat="49.82366" lon="2.39721">
        <ele>30.3</ele>
        <time>2021-07-11T14:39:23Z</time>
      </trkpt>
      <trkpt lat="49.82367" lon="2.3972">
        <ele>30.3</ele>
        <time>2021-07-11T14:39:24Z</time>
      </trkpt>
      <trkpt lat="49.82369" lon="2.39719">
        <ele>30.3</ele>
        <time>2021-07-11T14:39:25Z</time>
      </trkpt>
      <trkpt lat="49.8237" lon="2.39718">
        <ele>30.3</ele>
        <time>2021-07-11T14:39:26Z</time>
      </trkpt>
      <trkpt lat="49.82371" lon="2.39718">
        <ele>30.3</ele>
        <time>2021-07-11T14:39:27Z</time>
      </trkpt>
      <trkpt lat="49.82373" lon="2.39717">
        <ele>30.3</ele>
        <time>2021-07-11T14:39:28Z</time>
      </trkpt>
      <trkpt lat="49.82374" lon="2.39716">
        <ele>30.3</ele>
        <time>2021-07-11T14:39:29Z</time>
      </trkpt>
      <trkpt lat="49.82376" lon="2.39715">
        <ele>30.3</ele>
        <time>2021-07-11T14:39:30Z</time>
      </trkpt>
      <trkpt lat="49.82377" lon="2.39714">
        <ele>30.3</ele>
        <time>2021-07-11T14:39:32Z</time>
      </trkpt>
      <trkpt lat="49.82378" lon="2.39713">
        <ele>30.3</ele>
        <time>2021-07-11T14:39:33Z</time>
      </trkpt>
      <trkpt lat="49.82379" lon="2.39712">
        <ele>30.3</ele>
        <time>2021-07-11T14:39:34Z</time>
      </trkpt>
      <trkpt lat="49.82381" lon="2.39711">
        <ele>30.3</ele>
        <time>2021-07-11T14:39:35Z</time>
      </trkpt>
      <trkpt lat="49.82382" lon="2.39711">
        <ele>30.3</ele>
        <time>2021-07-11T14:39:36Z</time>
      </trkpt>
      <trkpt lat="49.82383" lon="2.3971">
        <ele>30.3</ele>
        <time>2021-07-11T14:39:37Z</time>
      </trkpt>
      <trkpt lat="49.82384" lon="2.39709">
        <ele>30.3</ele>
        <time>2021-07-11T14:39:38Z</time>
      </trkpt>
      <trkpt lat="49.82385" lon="2.39708">
        <ele>30.3</ele>
        <time>2021-07-11T14:39:39Z</time>
      </trkpt>
      <trkpt lat="49.82386" lon="2.39708">
        <ele>30.3</ele>
        <time>2021-07-11T14:39:40Z</time>
      </trkpt>
      <trkpt lat="49.82388" lon="2.39707">
        <ele>30.3</ele>
        <time>2021-07-11T14:39:42Z</time>
      </trkpt>
      <trkpt lat="49.82389" lon="2.39706">
        <ele>30.3</ele>
        <time>2021-07-11T14:39:43Z</time>
      </trkpt>
      <trkpt lat="49.8239" lon="2.39706">
        <ele>30.3</ele>
        <time>2021-07-11T14:39:44Z</time>
      </trkpt>
      <trkpt lat="49.82391" lon="2.39705">
        <ele>30.3</ele>
        <time>2021-07-11T14:39:45Z</time>
      </trkpt>
      <trkpt lat="49.82393" lon="2.39705">
        <ele>30.3</ele>
        <time>2021-07-11T14:39:46Z</time>
      </trkpt>
      <trkpt lat="49.82394" lon="2.39704">
        <ele>30.3</ele>
        <time>2021-07-11T14:39:47Z</time>
      </trkpt>
      <trkpt lat="49.82395" lon="2.39704">
        <ele>30.3</ele>
        <time>2021-07-11T14:39:48Z</time>
      </trkpt>
      <trkpt lat="49.82397" lon="2.39703">
        <ele>30.3</ele>
        <time>2021-07-11T14:39:49Z</time>
      </trkpt>
      <trkpt lat="49.82398" lon="2.39703">
        <ele>30.3</ele>
        <time>2021-07-11T14:39:50Z</time>
      </trkpt>
      <trkpt lat="49.82399" lon="2.39703">
        <ele>30.3</ele>
        <time>2021-07-11T14:39:52Z</time>
      </trkpt>
      <trkpt lat="49.82401" lon="2.39703">
        <ele>30.3</ele>
        <time>2021-07-11T14:39:53Z</time>
      </trkpt>
      <trkpt lat="49.82402" lon="2.39703">
        <ele>30.3</ele>
        <time>2021-07-11T14:39:54Z</time>
      </trkpt>
      <trkpt lat="49.82404" lon="2.39703">
        <ele>30.3</ele>
        <time>2021-07-11T14:39:55Z</time>
      </trkpt>
      <trkpt lat="49.82405" lon="2.39703">
        <ele>30.3</ele>
        <time>2021-07-11T14:39:56Z</time>
      </trkpt>
      <trkpt lat="49.82407" lon="2.39703">
        <ele>30.3</ele>
        <time>2021-07-11T14:39:57Z</time>
      </trkpt>
      <trkpt lat="49.82408" lon="2.39704">
        <ele>30.3</ele>
        <time>2021-07-11T14:39:58Z</time>
      </trkpt>
      <trkpt lat="49.82411" lon="2.39704">
        <ele>30.3</ele>
        <time>2021-07-11T14:39:59Z</time>
      </trkpt>
      <trkpt lat="49.82411" lon="2.39705">
        <ele>30.3</ele>
        <time>2021-07-11T14:40:01Z</time>
      </trkpt>
      <trkpt lat="49.82412" lon="2.39705">
        <ele>30.3</ele>
        <time>2021-07-11T14:40:02Z</time>
      </trkpt>
      <trkpt lat="49.82413" lon="2.39705">
        <ele>30.3</ele>
        <time>2021-07-11T14:40:03Z</time>
      </trkpt>
      <trkpt lat="49.82414" lon="2.39705">
        <ele>30.3</ele>
        <time>2021-07-11T14:40:04Z</time>
      </trkpt>
      <trkpt lat="49.82415" lon="2.39706">
        <ele>30.3</ele>
        <time>2021-07-11T14:40:05Z</time>
      </trkpt>
      <trkpt lat="49.82417" lon="2.39706">
        <ele>30.3</ele>
        <time>2021-07-11T14:40:06Z</time>
      </trkpt>
      <trkpt lat="49.82418" lon="2.39705">
        <ele>30.3</ele>
        <time>2021-07-11T14:40:07Z</time>
      </trkpt>
      <trkpt lat="49.82419" lon="2.39705">
        <ele>30.3</ele>
        <time>2021-07-11T14:40:09Z</time>
      </trkpt>
      <trkpt lat="49.8242" lon="2.39704">
        <ele>30.3</ele>
        <time>2021-07-11T14:40:10Z</time>
      </trkpt>
      <trkpt lat="49.82421" lon="2.39704">
        <ele>30.3</ele>
        <time>2021-07-11T14:40:11Z</time>
      </trkpt>
      <trkpt lat="49.82423" lon="2.39703">
        <ele>30.3</ele>
        <time>2021-07-11T14:40:12Z</time>
      </trkpt>
      <trkpt lat="49.82424" lon="2.39702">
        <ele>30.3</ele>
        <time>2021-07-11T14:40:13Z</time>
      </trkpt>
      <trkpt lat="49.82425" lon="2.39702">
        <ele>30.3</ele>
        <time>2021-07-11T14:40:14Z</time>
      </trkpt>
      <trkpt lat="49.82426" lon="2.39702">
        <ele>30.3</ele>
        <time>2021-07-11T14:40:15Z</time>
      </trkpt>
      <trkpt lat="49.82428" lon="2.39701">
        <ele>30.3</ele>
        <time>2021-07-11T14:40:16Z</time>
      </trkpt>
      <trkpt lat="49.82429" lon="2.397">
        <ele>30.4</ele>
        <time>2021-07-11T14:40:18Z</time>
      </trkpt>
      <trkpt lat="49.8243" lon="2.397">
        <ele>30.4</ele>
        <time>2021-07-11T14:40:19Z</time>
      </trkpt>
      <trkpt lat="49.82431" lon="2.397">
        <ele>30.4</ele>
        <time>2021-07-11T14:40:20Z</time>
      </trkpt>
      <trkpt lat="49.82433" lon="2.39699">
        <ele>30.4</ele>
        <time>2021-07-11T14:40:21Z</time>
      </trkpt>
      <trkpt lat="49.82435" lon="2.39698">
        <ele>30.4</ele>
        <time>2021-07-11T14:40:22Z</time>
      </trkpt>
      <trkpt lat="49.82435" lon="2.39697">
        <ele>30.4</ele>
        <time>2021-07-11T14:40:23Z</time>
      </trkpt>
      <trkpt lat="49.82436" lon="2.39696">
        <ele>30.4</ele>
        <time>2021-07-11T14:40:24Z</time>
      </trkpt>
      <trkpt lat="49.82437" lon="2.39695">
        <ele>30.4</ele>
        <time>2021-07-11T14:40:25Z</time>
      </trkpt>
      <trkpt lat="49.82438" lon="2.39694">
        <ele>30.4</ele>
        <time>2021-07-11T14:40:26Z</time>
      </trkpt>
      <trkpt lat="49.8244" lon="2.39691">
        <ele>30.4</ele>
        <time>2021-07-11T14:40:28Z</time>
      </trkpt>
      <trkpt lat="49.8244" lon="2.3969">
        <ele>30.5</ele>
        <time>2021-07-11T14:40:29Z</time>
      </trkpt>
      <trkpt lat="49.82441" lon="2.39689">
        <ele>30.5</ele>
        <time>2021-07-11T14:40:30Z</time>
      </trkpt>
      <trkpt lat="49.82441" lon="2.39687">
        <ele>30.5</ele>
        <time>2021-07-11T14:40:31Z</time>
      </trkpt>
      <trkpt lat="49.82441" lon="2.39685">
        <ele>30.5</ele>
        <time>2021-07-11T14:40:32Z</time>
      </trkpt>
      <trkpt lat="49.82442" lon="2.39684">
        <ele>30.5</ele>
        <time>2021-07-11T14:40:33Z</time>
      </trkpt>
      <trkpt lat="49.82443" lon="2.39682">
        <ele>30.5</ele>
        <time>2021-07-11T14:40:34Z</time>
      </trkpt>
      <trkpt lat="49.82443" lon="2.39681">
        <ele>30.5</ele>
        <time>2021-07-11T14:40:35Z</time>
      </trkpt>
      <trkpt lat="49.82444" lon="2.39679">
        <ele>30.5</ele>
        <time>2021-07-11T14:40:37Z</time>
      </trkpt>
      <trkpt lat="49.82444" lon="2.39678">
        <ele>30.5</ele>
        <time>2021-07-11T14:40:38Z</time>
      </trkpt>
      <trkpt lat="49.82445" lon="2.39676">
        <ele>30.6</ele>
        <time>2021-07-11T14:40:39Z</time>
      </trkpt>
      <trkpt lat="49.82446" lon="2.39675">
        <ele>30.6</ele>
        <time>2021-07-11T14:40:40Z</time>
      </trkpt>
      <trkpt lat="49.82447" lon="2.39673">
        <ele>30.6</ele>
        <time>2021-07-11T14:40:41Z</time>
      </trkpt>
      <trkpt lat="49.82447" lon="2.39672">
        <ele>30.6</ele>
        <time>2021-07-11T14:40:42Z</time>
      </trkpt>
      <trkpt lat="49.82448" lon="2.39671">
        <ele>30.6</ele>
        <time>2021-07-11T14:40:43Z</time>
      </trkpt>
      <trkpt lat="49.82449" lon="2.39669">
        <ele>30.6</ele>
        <time>2021-07-11T14:40:44Z</time>
      </trkpt>
      <trkpt lat="49.8245" lon="2.39668">
        <ele>30.6</ele>
        <time>2021-07-11T14:40:46Z</time>
      </trkpt>
      <trkpt lat="49.82452" lon="2.39667">
        <ele>30.6</ele>
        <time>2021-07-11T14:40:47Z</time>
      </trkpt>
      <trkpt lat="49.82453" lon="2.39666">
        <ele>30.7</ele>
        <time>2021-07-11T14:40:48Z</time>
      </trkpt>
      <trkpt lat="49.82454" lon="2.39665">
        <ele>30.7</ele>
        <time>2021-07-11T14:40:49Z</time>
      </trkpt>
      <trkpt lat="49.82454" lon="2.39664">
        <ele>30.7</ele>
        <time>2021-07-11T14:40:50Z</time>
      </trkpt>
      <trkpt lat="49.82455" lon="2.39663">
        <ele>30.7</ele>
        <time>2021-07-11T14:40:51Z</time>
      </trkpt>
      <trkpt lat="49.82456" lon="2.39661">
        <ele>30.7</ele>
        <time>2021-07-11T14:40:52Z</time>
      </trkpt>
      <trkpt lat="49.82457" lon="2.3966">
        <ele>30.7</ele>
        <time>2021-07-11T14:40:53Z</time>
      </trkpt>
      <trkpt lat="49.82458" lon="2.39659">
        <ele>30.7</ele>
        <time>2021-07-11T14:40:55Z</time>
      </trkpt>
      <trkpt lat="49.82459" lon="2.39657">
        <ele>30.7</ele>
        <time>2021-07-11T14:40:56Z</time>
      </trkpt>
      <trkpt lat="49.8246" lon="2.39656">
        <ele>30.7</ele>
        <time>2021-07-11T14:40:57Z</time>
      </trkpt>
      <trkpt lat="49.82462" lon="2.39654">
        <ele>30.7</ele>
        <time>2021-07-11T14:40:58Z</time>
      </trkpt>
      <trkpt lat="49.82463" lon="2.39653">
        <ele>30.8</ele>
        <time>2021-07-11T14:40:59Z</time>
      </trkpt>
      <trkpt lat="49.82463" lon="2.39652">
        <ele>30.8</ele>
        <time>2021-07-11T14:41:00Z</time>
      </trkpt>
      <trkpt lat="49.82465" lon="2.3965">
        <ele>30.8</ele>
        <time>2021-07-11T14:41:01Z</time>
      </trkpt>
      <trkpt lat="49.82465" lon="2.39649">
        <ele>30.8</ele>
        <time>2021-07-11T14:41:02Z</time>
      </trkpt>
      <trkpt lat="49.82466" lon="2.39648">
        <ele>30.8</ele>
        <time>2021-07-11T14:41:03Z</time>
      </trkpt>
      <trkpt lat="49.82467" lon="2.39647">
        <ele>30.8</ele>
        <time>2021-07-11T14:41:05Z</time>
      </trkpt>
      <trkpt lat="49.82468" lon="2.39645">
        <ele>30.8</ele>
        <time>2021-07-11T14:41:06Z</time>
      </trkpt>
      <trkpt lat="49.8247" lon="2.39643">
        <ele>30.8</ele>
        <time>2021-07-11T14:41:07Z</time>
      </trkpt>
      <trkpt lat="49.8247" lon="2.39642">
        <ele>30.8</ele>
        <time>2021-07-11T14:41:08Z</time>
      </trkpt>
      <trkpt lat="49.82471" lon="2.39641">
        <ele>30.8</ele>
        <time>2021-07-11T14:41:09Z</time>
      </trkpt>
      <trkpt lat="49.82471" lon="2.39639">
        <ele>30.8</ele>
        <time>2021-07-11T14:41:10Z</time>
      </trkpt>
      <trkpt lat="49.82472" lon="2.39638">
        <ele>30.8</ele>
        <time>2021-07-11T14:41:11Z</time>
      </trkpt>
      <trkpt lat="49.82473" lon="2.39636">
        <ele>30.8</ele>
        <time>2021-07-11T14:41:13Z</time>
      </trkpt>
      <trkpt lat="49.82474" lon="2.39634">
        <ele>30.8</ele>
        <time>2021-07-11T14:41:14Z</time>
      </trkpt>
      <trkpt lat="49.82474" lon="2.39633">
        <ele>30.8</ele>
        <time>2021-07-11T14:41:15Z</time>
      </trkpt>
      <trkpt lat="49.82475" lon="2.39632">
        <ele>30.8</ele>
        <time>2021-07-11T14:41:16Z</time>
      </trkpt>
      <trkpt lat="49.82475" lon="2.39632">
        <ele>30.8</ele>
        <time>2021-07-11T14:41:17Z</time>
      </trkpt>
      <trkpt lat="49.82476" lon="2.3963">
        <ele>30.8</ele>
        <time>2021-07-11T14:41:18Z</time>
      </trkpt>
      <trkpt lat="49.82477" lon="2.39629">
        <ele>30.8</ele>
        <time>2021-07-11T14:41:19Z</time>
      </trkpt>
      <trkpt lat="49.82478" lon="2.39627">
        <ele>30.8</ele>
        <time>2021-07-11T14:41:21Z</time>
      </trkpt>
      <trkpt lat="49.82479" lon="2.39626">
        <ele>30.8</ele>
        <time>2021-07-11T14:41:22Z</time>
      </trkpt>
      <trkpt lat="49.82479" lon="2.39624">
        <ele>30.8</ele>
        <time>2021-07-11T14:41:23Z</time>
      </trkpt>
      <trkpt lat="49.8248" lon="2.39623">
        <ele>30.9</ele>
        <time>2021-07-11T14:41:24Z</time>
      </trkpt>
      <trkpt lat="49.82482" lon="2.39621">
        <ele>30.9</ele>
        <time>2021-07-11T14:41:25Z</time>
      </trkpt>
      <trkpt lat="49.82482" lon="2.3962">
        <ele>30.9</ele>
        <time>2021-07-11T14:41:26Z</time>
      </trkpt>
      <trkpt lat="49.82483" lon="2.39619">
        <ele>30.9</ele>
        <time>2021-07-11T14:41:27Z</time>
      </trkpt>
      <trkpt lat="49.82485" lon="2.39617">
        <ele>30.9</ele>
        <time>2021-07-11T14:41:28Z</time>
      </trkpt>
      <trkpt lat="49.82486" lon="2.39616">
        <ele>30.9</ele>
        <time>2021-07-11T14:41:30Z</time>
      </trkpt>
      <trkpt lat="49.82486" lon="2.39615">
        <ele>30.9</ele>
        <time>2021-07-11T14:41:31Z</time>
      </trkpt>
      <trkpt lat="49.82487" lon="2.39613">
        <ele>30.9</ele>
        <time>2021-07-11T14:41:32Z</time>
      </trkpt>
      <trkpt lat="49.82488" lon="2.39612">
        <ele>30.9</ele>
        <time>2021-07-11T14:41:33Z</time>
      </trkpt>
      <trkpt lat="49.82489" lon="2.39611">
        <ele>30.9</ele>
        <time>2021-07-11T14:41:34Z</time>
      </trkpt>
      <trkpt lat="49.8249" lon="2.39609">
        <ele>30.9</ele>
        <time>2021-07-11T14:41:35Z</time>
      </trkpt>
      <trkpt lat="49.8249" lon="2.39607">
        <ele>31</ele>
        <time>2021-07-11T14:41:37Z</time>
      </trkpt>
      <trkpt lat="49.82491" lon="2.39606">
        <ele>31</ele>
        <time>2021-07-11T14:41:38Z</time>
      </trkpt>
      <trkpt lat="49.82492" lon="2.39603">
        <ele>31</ele>
        <time>2021-07-11T14:41:40Z</time>
      </trkpt>
      <trkpt lat="49.82492" lon="2.39601">
        <ele>31</ele>
        <time>2021-07-11T14:41:41Z</time>
      </trkpt>
      <trkpt lat="49.82493" lon="2.39597">
        <ele>31</ele>
        <time>2021-07-11T14:41:43Z</time>
      </trkpt>
      <trkpt lat="49.82493" lon="2.39596">
        <ele>31</ele>
        <time>2021-07-11T14:41:44Z</time>
      </trkpt>
      <trkpt lat="49.82492" lon="2.39593">
        <ele>31</ele>
        <time>2021-07-11T14:41:45Z</time>
      </trkpt>
      <trkpt lat="49.82492" lon="2.39592">
        <ele>31</ele>
        <time>2021-07-11T14:41:47Z</time>
      </trkpt>
      <trkpt lat="49.82491" lon="2.39591">
        <ele>31.1</ele>
        <time>2021-07-11T14:41:48Z</time>
      </trkpt>
      <trkpt lat="49.82489" lon="2.3959">
        <ele>31.1</ele>
        <time>2021-07-11T14:41:49Z</time>
      </trkpt>
      <trkpt lat="49.82489" lon="2.3959">
        <ele>31.1</ele>
        <time>2021-07-11T14:41:50Z</time>
      </trkpt>
      <trkpt lat="49.82488" lon="2.3959">
        <ele>31.1</ele>
        <time>2021-07-11T14:41:52Z</time>
      </trkpt>
      <trkpt lat="49.82487" lon="2.3959">
        <ele>31.1</ele>
        <time>2021-07-11T14:41:53Z</time>
      </trkpt>
      <trkpt lat="49.82486" lon="2.3959">
        <ele>31.1</ele>
        <time>2021-07-11T14:41:55Z</time>
      </trkpt>
      <trkpt lat="49.82486" lon="2.3959">
        <ele>31.1</ele>
        <time>2021-07-11T14:41:56Z</time>
      </trkpt>
      <trkpt lat="49.82485" lon="2.3959">
        <ele>31.1</ele>
        <time>2021-07-11T14:41:57Z</time>
      </trkpt>
      <trkpt lat="49.82485" lon="2.3959">
        <ele>31.1</ele>
        <time>2021-07-11T14:41:59Z</time>
      </trkpt>
      <trkpt lat="49.82485" lon="2.3959">
        <ele>31.1</ele>
        <time>2021-07-11T14:42:01Z</time>
      </trkpt>
      <trkpt lat="49.82486" lon="2.3959">
        <ele>31.1</ele>
        <time>2021-07-11T14:42:03Z</time>
      </trkpt>
      <trkpt lat="49.82486" lon="2.3959">
        <ele>31.1</ele>
        <time>2021-07-11T14:42:04Z</time>
      </trkpt>
      <trkpt lat="49.82486" lon="2.3959">
        <ele>31.1</ele>
        <time>2021-07-11T14:42:05Z</time>
      </trkpt>
      <trkpt lat="49.82486" lon="2.3959">
        <ele>31.1</ele>
        <time>2021-07-11T14:42:07Z</time>
      </trkpt>
      <trkpt lat="49.82486" lon="2.3959">
        <ele>31.1</ele>
        <time>2021-07-11T14:42:09Z</time>
      </trkpt>
      <trkpt lat="49.82486" lon="2.3959">
        <ele>31.1</ele>
        <time>2021-07-11T14:42:10Z</time>
      </trkpt>
      <trkpt lat="49.82486" lon="2.3959">
        <ele>31.1</ele>
        <time>2021-07-11T14:42:12Z</time>
      </trkpt>
      <trkpt lat="49.82487" lon="2.3959">
        <ele>31.1</ele>
        <time>2021-07-11T14:42:13Z</time>
      </trkpt>
      <trkpt lat="49.82487" lon="2.39591">
        <ele>31.1</ele>
        <time>2021-07-11T14:42:14Z</time>
      </trkpt>
      <trkpt lat="49.82487" lon="2.39592">
        <ele>31.1</ele>
        <time>2021-07-11T14:42:15Z</time>
      </trkpt>
      <trkpt lat="49.82488" lon="2.39592">
        <ele>31.1</ele>
        <time>2021-07-11T14:42:16Z</time>
      </trkpt>
      <trkpt lat="49.82489" lon="2.39593">
        <ele>31.1</ele>
        <time>2021-07-11T14:42:18Z</time>
      </trkpt>
      <trkpt lat="49.8249" lon="2.39594">
        <ele>31.1</ele>
        <time>2021-07-11T14:42:19Z</time>
      </trkpt>
      <trkpt lat="49.82491" lon="2.39595">
        <ele>31.1</ele>
        <time>2021-07-11T14:42:20Z</time>
      </trkpt>
      <trkpt lat="49.82492" lon="2.39598">
        <ele>31.2</ele>
        <time>2021-07-11T14:42:22Z</time>
      </trkpt>
      <trkpt lat="49.82493" lon="2.39598">
        <ele>31.2</ele>
        <time>2021-07-11T14:42:23Z</time>
      </trkpt>
      <trkpt lat="49.82494" lon="2.39599">
        <ele>31.2</ele>
        <time>2021-07-11T14:42:24Z</time>
      </trkpt>
      <trkpt lat="49.82493" lon="2.39601">
        <ele>31.2</ele>
        <time>2021-07-11T14:42:26Z</time>
      </trkpt>
      <trkpt lat="49.82492" lon="2.39602">
        <ele>31.2</ele>
        <time>2021-07-11T14:42:27Z</time>
      </trkpt>
      <trkpt lat="49.82491" lon="2.39604">
        <ele>31.2</ele>
        <time>2021-07-11T14:42:29Z</time>
      </trkpt>
      <trkpt lat="49.8249" lon="2.39604">
        <ele>31.2</ele>
        <time>2021-07-11T14:42:30Z</time>
      </trkpt>
      <trkpt lat="49.8249" lon="2.39604">
        <ele>31.2</ele>
        <time>2021-07-11T14:42:32Z</time>
      </trkpt>
      <trkpt lat="49.82489" lon="2.39604">
        <ele>31.2</ele>
        <time>2021-07-11T14:42:34Z</time>
      </trkpt>
      <trkpt lat="49.82489" lon="2.39604">
        <ele>31.2</ele>
        <time>2021-07-11T14:42:36Z</time>
      </trkpt>
      <trkpt lat="49.82488" lon="2.39604">
        <ele>31.2</ele>
        <time>2021-07-11T14:42:38Z</time>
      </trkpt>
      <trkpt lat="49.82488" lon="2.39604">
        <ele>31.2</ele>
        <time>2021-07-11T14:42:39Z</time>
      </trkpt>
      <trkpt lat="49.82488" lon="2.39604">
        <ele>31.2</ele>
        <time>2021-07-11T14:42:41Z</time>
      </trkpt>
      <trkpt lat="49.82488" lon="2.39604">
        <ele>31.2</ele>
        <time>2021-07-11T14:42:42Z</time>
      </trkpt>
      <trkpt lat="49.82488" lon="2.39604">
        <ele>31.2</ele>
        <time>2021-07-11T14:42:44Z</time>
      </trkpt>
      <trkpt lat="49.82488" lon="2.39604">
        <ele>31.2</ele>
        <time>2021-07-11T14:42:46Z</time>
      </trkpt>
      <trkpt lat="49.82488" lon="2.39604">
        <ele>31.2</ele>
        <time>2021-07-11T14:42:47Z</time>
      </trkpt>
      <trkpt lat="49.82488" lon="2.39604">
        <ele>31.2</ele>
        <time>2021-07-11T14:42:49Z</time>
      </trkpt>
      <trkpt lat="49.82488" lon="2.39604">
        <ele>31.2</ele>
        <time>2021-07-11T14:42:50Z</time>
      </trkpt>
      <trkpt lat="49.82488" lon="2.39604">
        <ele>31.2</ele>
        <time>2021-07-11T14:42:51Z</time>
      </trkpt>
      <trkpt lat="49.82488" lon="2.39604">
        <ele>31.2</ele>
        <time>2021-07-11T14:42:52Z</time>
      </trkpt>
      <trkpt lat="49.82488" lon="2.39604">
        <ele>31.2</ele>
        <time>2021-07-11T14:42:54Z</time>
      </trkpt>
      <trkpt lat="49.82488" lon="2.39604">
        <ele>31.2</ele>
        <time>2021-07-11T14:42:56Z</time>
      </trkpt>
      <trkpt lat="49.82488" lon="2.39604">
        <ele>31.2</ele>
        <time>2021-07-11T14:42:58Z</time>
      </trkpt>
      <trkpt lat="49.82488" lon="2.39604">
        <ele>31.2</ele>
        <time>2021-07-11T14:43:00Z</time>
      </trkpt>
      <trkpt lat="49.82488" lon="2.39604">
        <ele>31.2</ele>
        <time>2021-07-11T14:43:02Z</time>
      </trkpt>
      <trkpt lat="49.82488" lon="2.39604">
        <ele>31.2</ele>
        <time>2021-07-11T14:43:04Z</time>
      </trkpt>
      <trkpt lat="49.82488" lon="2.39604">
        <ele>31.2</ele>
        <time>2021-07-11T14:43:05Z</time>
      </trkpt>
      <trkpt lat="49.82488" lon="2.39604">
        <ele>31.2</ele>
        <time>2021-07-11T14:43:07Z</time>
      </trkpt>
      <trkpt lat="49.82488" lon="2.39604">
        <ele>31.2</ele>
        <time>2021-07-11T14:43:09Z</time>
      </trkpt>
      <trkpt lat="49.82488" lon="2.39604">
        <ele>31.2</ele>
        <time>2021-07-11T14:43:10Z</time>
      </trkpt>
      <trkpt lat="49.82488" lon="2.39604">
        <ele>31.2</ele>
        <time>2021-07-11T14:43:11Z</time>
      </trkpt>
      <trkpt lat="49.82488" lon="2.39604">
        <ele>31.2</ele>
        <time>2021-07-11T14:43:13Z</time>
      </trkpt>
      <trkpt lat="49.82488" lon="2.39604">
        <ele>31.2</ele>
        <time>2021-07-11T14:43:15Z</time>
      </trkpt>
      <trkpt lat="49.82488" lon="2.39604">
        <ele>31.2</ele>
        <time>2021-07-11T14:43:17Z</time>
      </trkpt>
      <trkpt lat="49.82488" lon="2.39604">
        <ele>31.2</ele>
        <time>2021-07-11T14:43:18Z</time>
      </trkpt>
      <trkpt lat="49.82488" lon="2.39604">
        <ele>31.2</ele>
        <time>2021-07-11T14:43:20Z</time>
      </trkpt>
      <trkpt lat="49.82488" lon="2.39604">
        <ele>31.2</ele>
        <time>2021-07-11T14:43:22Z</time>
      </trkpt>
      <trkpt lat="49.82486" lon="2.39603">
        <ele>31.2</ele>
        <time>2021-07-11T14:43:23Z</time>
      </trkpt>
      <trkpt lat="49.82484" lon="2.39602">
        <ele>31.2</ele>
        <time>2021-07-11T14:43:25Z</time>
      </trkpt>
      <trkpt lat="49.82485" lon="2.39601">
        <ele>31.2</ele>
        <time>2021-07-11T14:43:27Z</time>
      </trkpt>
      <trkpt lat="49.82487" lon="2.396">
        <ele>31.3</ele>
        <time>2021-07-11T14:43:28Z</time>
      </trkpt>
      <trkpt lat="49.82489" lon="2.39599">
        <ele>31.3</ele>
        <time>2021-07-11T14:43:29Z</time>
      </trkpt>
      <trkpt lat="49.8249" lon="2.39599">
        <ele>31.3</ele>
        <time>2021-07-11T14:43:31Z</time>
      </trkpt>
      <trkpt lat="49.82491" lon="2.39598">
        <ele>31.3</ele>
        <time>2021-07-11T14:43:32Z</time>
      </trkpt>
      <trkpt lat="49.82493" lon="2.39597">
        <ele>31.3</ele>
        <time>2021-07-11T14:43:33Z</time>
      </trkpt>
      <trkpt lat="49.82493" lon="2.39596">
        <ele>31.3</ele>
        <time>2021-07-11T14:43:35Z</time>
      </trkpt>
      <trkpt lat="49.82494" lon="2.39595">
        <ele>31.3</ele>
        <time>2021-07-11T14:43:36Z</time>
      </trkpt>
      <trkpt lat="49.82495" lon="2.39595">
        <ele>31.3</ele>
        <time>2021-07-11T14:43:37Z</time>
      </trkpt>
      <trkpt lat="49.82496" lon="2.39595">
        <ele>31.3</ele>
        <time>2021-07-11T14:43:39Z</time>
      </trkpt>
      <trkpt lat="49.82497" lon="2.39595">
        <ele>31.3</ele>
        <time>2021-07-11T14:43:40Z</time>
      </trkpt>
      <trkpt lat="49.82499" lon="2.39593">
        <ele>31.3</ele>
        <time>2021-07-11T14:43:41Z</time>
      </trkpt>
      <trkpt lat="49.82499" lon="2.39591">
        <ele>31.4</ele>
        <time>2021-07-11T14:43:42Z</time>
      </trkpt>
      <trkpt lat="49.825" lon="2.3959">
        <ele>31.4</ele>
        <time>2021-07-11T14:43:43Z</time>
      </trkpt>
      <trkpt lat="49.825" lon="2.39589">
        <ele>31.4</ele>
        <time>2021-07-11T14:43:44Z</time>
      </trkpt>
      <trkpt lat="49.82501" lon="2.39587">
        <ele>31.4</ele>
        <time>2021-07-11T14:43:45Z</time>
      </trkpt>
      <trkpt lat="49.82501" lon="2.39585">
        <ele>31.4</ele>
        <time>2021-07-11T14:43:46Z</time>
      </trkpt>
      <trkpt lat="49.82502" lon="2.39583">
        <ele>31.4</ele>
        <time>2021-07-11T14:43:47Z</time>
      </trkpt>
      <trkpt lat="49.82503" lon="2.39582">
        <ele>31.4</ele>
        <time>2021-07-11T14:43:48Z</time>
      </trkpt>
      <trkpt lat="49.82504" lon="2.3958">
        <ele>31.5</ele>
        <time>2021-07-11T14:43:50Z</time>
      </trkpt>
      <trkpt lat="49.82505" lon="2.39578">
        <ele>31.5</ele>
        <time>2021-07-11T14:43:51Z</time>
      </trkpt>
      <trkpt lat="49.82506" lon="2.39576">
        <ele>31.5</ele>
        <time>2021-07-11T14:43:52Z</time>
      </trkpt>
      <trkpt lat="49.82506" lon="2.39575">
        <ele>31.5</ele>
        <time>2021-07-11T14:43:53Z</time>
      </trkpt>
      <trkpt lat="49.82506" lon="2.39574">
        <ele>31.5</ele>
        <time>2021-07-11T14:43:54Z</time>
      </trkpt>
      <trkpt lat="49.82507" lon="2.39573">
        <ele>31.5</ele>
        <time>2021-07-11T14:43:55Z</time>
      </trkpt>
      <trkpt lat="49.82508" lon="2.39571">
        <ele>31.5</ele>
        <time>2021-07-11T14:43:56Z</time>
      </trkpt>
      <trkpt lat="49.82509" lon="2.3957">
        <ele>31.6</ele>
        <time>2021-07-11T14:43:58Z</time>
      </trkpt>
      <trkpt lat="49.8251" lon="2.39568">
        <ele>31.6</ele>
        <time>2021-07-11T14:43:59Z</time>
      </trkpt>
      <trkpt lat="49.82512" lon="2.39567">
        <ele>31.6</ele>
        <time>2021-07-11T14:44:00Z</time>
      </trkpt>
      <trkpt lat="49.82512" lon="2.39566">
        <ele>31.6</ele>
        <time>2021-07-11T14:44:01Z</time>
      </trkpt>
      <trkpt lat="49.82513" lon="2.39565">
        <ele>31.6</ele>
        <time>2021-07-11T14:44:02Z</time>
      </trkpt>
      <trkpt lat="49.82513" lon="2.39564">
        <ele>31.6</ele>
        <time>2021-07-11T14:44:03Z</time>
      </trkpt>
      <trkpt lat="49.82514" lon="2.39562">
        <ele>31.7</ele>
        <time>2021-07-11T14:44:04Z</time>
      </trkpt>
      <trkpt lat="49.82515" lon="2.3956">
        <ele>31.7</ele>
        <time>2021-07-11T14:44:05Z</time>
      </trkpt>
      <trkpt lat="49.82516" lon="2.39558">
        <ele>31.7</ele>
        <time>2021-07-11T14:44:07Z</time>
      </trkpt>
      <trkpt lat="49.82518" lon="2.39557">
        <ele>31.7</ele>
        <time>2021-07-11T14:44:08Z</time>
      </trkpt>
      <trkpt lat="49.8252" lon="2.39555">
        <ele>31.8</ele>
        <time>2021-07-11T14:44:09Z</time>
      </trkpt>
      <trkpt lat="49.82521" lon="2.39554">
        <ele>31.8</ele>
        <time>2021-07-11T14:44:10Z</time>
      </trkpt>
      <trkpt lat="49.82522" lon="2.39552">
        <ele>31.8</ele>
        <time>2021-07-11T14:44:11Z</time>
      </trkpt>
      <trkpt lat="49.82523" lon="2.3955">
        <ele>31.8</ele>
        <time>2021-07-11T14:44:12Z</time>
      </trkpt>
      <trkpt lat="49.82524" lon="2.39549">
        <ele>31.9</ele>
        <time>2021-07-11T14:44:14Z</time>
      </trkpt>
      <trkpt lat="49.82525" lon="2.39547">
        <ele>31.9</ele>
        <time>2021-07-11T14:44:15Z</time>
      </trkpt>
      <trkpt lat="49.82526" lon="2.39546">
        <ele>31.9</ele>
        <time>2021-07-11T14:44:16Z</time>
      </trkpt>
      <trkpt lat="49.82528" lon="2.39544">
        <ele>32</ele>
        <time>2021-07-11T14:44:17Z</time>
      </trkpt>
      <trkpt lat="49.82529" lon="2.39543">
        <ele>32</ele>
        <time>2021-07-11T14:44:18Z</time>
      </trkpt>
      <trkpt lat="49.8253" lon="2.39542">
        <ele>32</ele>
        <time>2021-07-11T14:44:19Z</time>
      </trkpt>
      <trkpt lat="49.82532" lon="2.3954">
        <ele>32.1</ele>
        <time>2021-07-11T14:44:20Z</time>
      </trkpt>
      <trkpt lat="49.82533" lon="2.39539">
        <ele>32.1</ele>
        <time>2021-07-11T14:44:22Z</time>
      </trkpt>
      <trkpt lat="49.82534" lon="2.39538">
        <ele>32.2</ele>
        <time>2021-07-11T14:44:23Z</time>
      </trkpt>
      <trkpt lat="49.82535" lon="2.39537">
        <ele>32.2</ele>
        <time>2021-07-11T14:44:24Z</time>
      </trkpt>
      <trkpt lat="49.82536" lon="2.39536">
        <ele>32.2</ele>
        <time>2021-07-11T14:44:25Z</time>
      </trkpt>
      <trkpt lat="49.82537" lon="2.39534">
        <ele>32.3</ele>
        <time>2021-07-11T14:44:26Z</time>
      </trkpt>
      <trkpt lat="49.82538" lon="2.39533">
        <ele>32.3</ele>
        <time>2021-07-11T14:44:27Z</time>
      </trkpt>
      <trkpt lat="49.82538" lon="2.39532">
        <ele>32.3</ele>
        <time>2021-07-11T14:44:28Z</time>
      </trkpt>
      <trkpt lat="49.8254" lon="2.39529">
        <ele>32.4</ele>
        <time>2021-07-11T14:44:30Z</time>
      </trkpt>
      <trkpt lat="49.8254" lon="2.39528">
        <ele>32.4</ele>
        <time>2021-07-11T14:44:31Z</time>
      </trkpt>
      <trkpt lat="49.82541" lon="2.39527">
        <ele>32.5</ele>
        <time>2021-07-11T14:44:32Z</time>
      </trkpt>
      <trkpt lat="49.82542" lon="2.39526">
        <ele>32.5</ele>
        <time>2021-07-11T14:44:33Z</time>
      </trkpt>
      <trkpt lat="49.82543" lon="2.39524">
        <ele>32.5</ele>
        <time>2021-07-11T14:44:34Z</time>
      </trkpt>
      <trkpt lat="49.82544" lon="2.39522">
        <ele>32.6</ele>
        <time>2021-07-11T14:44:35Z</time>
      </trkpt>
      <trkpt lat="49.82545" lon="2.39521">
        <ele>32.6</ele>
        <time>2021-07-11T14:44:37Z</time>
      </trkpt>
      <trkpt lat="49.82545" lon="2.3952">
        <ele>32.7</ele>
        <time>2021-07-11T14:44:38Z</time>
      </trkpt>
      <trkpt lat="49.82547" lon="2.39517">
        <ele>32.7</ele>
        <time>2021-07-11T14:44:39Z</time>
      </trkpt>
      <trkpt lat="49.82547" lon="2.39516">
        <ele>32.8</ele>
        <time>2021-07-11T14:44:40Z</time>
      </trkpt>
      <trkpt lat="49.82548" lon="2.39515">
        <ele>32.8</ele>
        <time>2021-07-11T14:44:41Z</time>
      </trkpt>
      <trkpt lat="49.82548" lon="2.39514">
        <ele>32.8</ele>
        <time>2021-07-11T14:44:42Z</time>
      </trkpt>
      <trkpt lat="49.82549" lon="2.39512">
        <ele>32.8</ele>
        <time>2021-07-11T14:44:43Z</time>
      </trkpt>
      <trkpt lat="49.82549" lon="2.3951">
        <ele>32.9</ele>
        <time>2021-07-11T14:44:45Z</time>
      </trkpt>
      <trkpt lat="49.82549" lon="2.39509">
        <ele>32.9</ele>
        <time>2021-07-11T14:44:46Z</time>
      </trkpt>
      <trkpt lat="49.8255" lon="2.39507">
        <ele>32.9</ele>
        <time>2021-07-11T14:44:47Z</time>
      </trkpt>
      <trkpt lat="49.8255" lon="2.39505">
        <ele>32.9</ele>
        <time>2021-07-11T14:44:48Z</time>
      </trkpt>
      <trkpt lat="49.82549" lon="2.39504">
        <ele>32.9</ele>
        <time>2021-07-11T14:44:49Z</time>
      </trkpt>
      <trkpt lat="49.82549" lon="2.39502">
        <ele>32.9</ele>
        <time>2021-07-11T14:44:51Z</time>
      </trkpt>
      <trkpt lat="49.82549" lon="2.395">
        <ele>32.9</ele>
        <time>2021-07-11T14:44:52Z</time>
      </trkpt>
      <trkpt lat="49.82548" lon="2.39498">
        <ele>32.9</ele>
        <time>2021-07-11T14:44:53Z</time>
      </trkpt>
      <trkpt lat="49.82548" lon="2.39497">
        <ele>32.9</ele>
        <time>2021-07-11T14:44:54Z</time>
      </trkpt>
      <trkpt lat="49.82547" lon="2.39495">
        <ele>32.9</ele>
        <time>2021-07-11T14:44:55Z</time>
      </trkpt>
      <trkpt lat="49.82547" lon="2.39494">
        <ele>33</ele>
        <time>2021-07-11T14:44:56Z</time>
      </trkpt>
      <trkpt lat="49.82546" lon="2.39492">
        <ele>33</ele>
        <time>2021-07-11T14:44:58Z</time>
      </trkpt>
      <trkpt lat="49.82546" lon="2.39491">
        <ele>33.1</ele>
        <time>2021-07-11T14:44:59Z</time>
      </trkpt>
      <trkpt lat="49.82545" lon="2.3949">
        <ele>33.1</ele>
        <time>2021-07-11T14:45:00Z</time>
      </trkpt>
      <trkpt lat="49.82544" lon="2.39488">
        <ele>33.1</ele>
        <time>2021-07-11T14:45:01Z</time>
      </trkpt>
      <trkpt lat="49.82543" lon="2.39487">
        <ele>33.2</ele>
        <time>2021-07-11T14:45:02Z</time>
      </trkpt>
      <trkpt lat="49.82542" lon="2.39485">
        <ele>33.3</ele>
        <time>2021-07-11T14:45:03Z</time>
      </trkpt>
      <trkpt lat="49.82541" lon="2.39484">
        <ele>33.3</ele>
        <time>2021-07-11T14:45:05Z</time>
      </trkpt>
      <trkpt lat="49.82541" lon="2.39482">
        <ele>33.4</ele>
        <time>2021-07-11T14:45:06Z</time>
      </trkpt>
      <trkpt lat="49.8254" lon="2.39481">
        <ele>33.4</ele>
        <time>2021-07-11T14:45:07Z</time>
      </trkpt>
      <trkpt lat="49.82539" lon="2.3948">
        <ele>33.4</ele>
        <time>2021-07-11T14:45:08Z</time>
      </trkpt>
      <trkpt lat="49.82538" lon="2.39478">
        <ele>33.5</ele>
        <time>2021-07-11T14:45:09Z</time>
      </trkpt>
      <trkpt lat="49.82537" lon="2.39476">
        <ele>33.6</ele>
        <time>2021-07-11T14:45:10Z</time>
      </trkpt>
      <trkpt lat="49.82537" lon="2.39474">
        <ele>33.6</ele>
        <time>2021-07-11T14:45:12Z</time>
      </trkpt>
      <trkpt lat="49.82535" lon="2.39472">
        <ele>33.7</ele>
        <time>2021-07-11T14:45:13Z</time>
      </trkpt>
      <trkpt lat="49.82532" lon="2.3947">
        <ele>33.8</ele>
        <time>2021-07-11T14:45:14Z</time>
      </trkpt>
      <trkpt lat="49.82532" lon="2.3947">
        <ele>33.8</ele>
        <time>2021-07-11T14:45:15Z</time>
      </trkpt>
      <trkpt lat="49.8253" lon="2.39469">
        <ele>33.9</ele>
        <time>2021-07-11T14:45:17Z</time>
      </trkpt>
      <trkpt lat="49.82529" lon="2.39468">
        <ele>34</ele>
        <time>2021-07-11T14:45:18Z</time>
      </trkpt>
      <trkpt lat="49.82527" lon="2.39468">
        <ele>34</ele>
        <time>2021-07-11T14:45:19Z</time>
      </trkpt>
      <trkpt lat="49.82524" lon="2.39468">
        <ele>34.1</ele>
        <time>2021-07-11T14:45:21Z</time>
      </trkpt>
      <trkpt lat="49.82523" lon="2.39468">
        <ele>34.2</ele>
        <time>2021-07-11T14:45:22Z</time>
      </trkpt>
      <trkpt lat="49.82521" lon="2.39467">
        <ele>34.2</ele>
        <time>2021-07-11T14:45:23Z</time>
      </trkpt>
      <trkpt lat="49.8252" lon="2.39467">
        <ele>34.3</ele>
        <time>2021-07-11T14:45:25Z</time>
      </trkpt>
      <trkpt lat="49.8252" lon="2.39466">
        <ele>34.3</ele>
        <time>2021-07-11T14:45:27Z</time>
      </trkpt>
      <trkpt lat="49.8252" lon="2.39464">
        <ele>34.3</ele>
        <time>2021-07-11T14:45:29Z</time>
      </trkpt>
      <trkpt lat="49.8252" lon="2.39463">
        <ele>34.4</ele>
        <time>2021-07-11T14:45:30Z</time>
      </trkpt>
      <trkpt lat="49.82521" lon="2.39462">
        <ele>34.4</ele>
        <time>2021-07-11T14:45:32Z</time>
      </trkpt>
      <trkpt lat="49.82522" lon="2.39462">
        <ele>34.4</ele>
        <time>2021-07-11T14:45:34Z</time>
      </trkpt>
      <trkpt lat="49.82523" lon="2.39462">
        <ele>34.5</ele>
        <time>2021-07-11T14:45:36Z</time>
      </trkpt>
      <trkpt lat="49.82523" lon="2.39462">
        <ele>34.5</ele>
        <time>2021-07-11T14:45:37Z</time>
      </trkpt>
      <trkpt lat="49.82523" lon="2.39462">
        <ele>34.5</ele>
        <time>2021-07-11T14:45:39Z</time>
      </trkpt>
      <trkpt lat="49.82523" lon="2.39462">
        <ele>34.5</ele>
        <time>2021-07-11T14:45:41Z</time>
      </trkpt>
      <trkpt lat="49.82523" lon="2.39462">
        <ele>34.5</ele>
        <time>2021-07-11T14:45:42Z</time>
      </trkpt>
      <trkpt lat="49.82523" lon="2.39462">
        <ele>34.5</ele>
        <time>2021-07-11T14:45:43Z</time>
      </trkpt>
      <trkpt lat="49.82524" lon="2.39462">
        <ele>34.5</ele>
        <time>2021-07-11T14:45:45Z</time>
      </trkpt>
      <trkpt lat="49.82524" lon="2.39463">
        <ele>34.5</ele>
        <time>2021-07-11T14:45:47Z</time>
      </trkpt>
      <trkpt lat="49.82524" lon="2.39463">
        <ele>34.5</ele>
        <time>2021-07-11T14:45:49Z</time>
      </trkpt>
      <trkpt lat="49.82524" lon="2.39463">
        <ele>34.5</ele>
        <time>2021-07-11T14:45:50Z</time>
      </trkpt>
      <trkpt lat="49.82524" lon="2.39463">
        <ele>34.5</ele>
        <time>2021-07-11T14:45:52Z</time>
      </trkpt>
      <trkpt lat="49.82524" lon="2.39463">
        <ele>34.5</ele>
        <time>2021-07-11T14:45:54Z</time>
      </trkpt>
      <trkpt lat="49.82524" lon="2.39463">
        <ele>34.5</ele>
        <time>2021-07-11T14:45:56Z</time>
      </trkpt>
      <trkpt lat="49.82524" lon="2.39463">
        <ele>34.5</ele>
        <time>2021-07-11T14:45:57Z</time>
      </trkpt>
      <trkpt lat="49.82523" lon="2.39463">
        <ele>34.6</ele>
        <time>2021-07-11T14:45:58Z</time>
      </trkpt>
      <trkpt lat="49.82522" lon="2.39464">
        <ele>34.6</ele>
        <time>2021-07-11T14:46:00Z</time>
      </trkpt>
      <trkpt lat="49.82521" lon="2.39466">
        <ele>34.6</ele>
        <time>2021-07-11T14:46:02Z</time>
      </trkpt>
      <trkpt lat="49.82521" lon="2.39468">
        <ele>34.7</ele>
        <time>2021-07-11T14:46:04Z</time>
      </trkpt>
      <trkpt lat="49.8252" lon="2.39469">
        <ele>34.7</ele>
        <time>2021-07-11T14:46:06Z</time>
      </trkpt>
      <trkpt lat="49.8252" lon="2.39469">
        <ele>34.7</ele>
        <time>2021-07-11T14:46:07Z</time>
      </trkpt>
      <trkpt lat="49.82519" lon="2.39469">
        <ele>34.7</ele>
        <time>2021-07-11T14:46:09Z</time>
      </trkpt>
      <trkpt lat="49.82519" lon="2.3947">
        <ele>34.8</ele>
        <time>2021-07-11T14:46:11Z</time>
      </trkpt>
      <trkpt lat="49.82518" lon="2.39471">
        <ele>34.8</ele>
        <time>2021-07-11T14:46:13Z</time>
      </trkpt>
      <trkpt lat="49.82518" lon="2.39471">
        <ele>34.8</ele>
        <time>2021-07-11T14:46:14Z</time>
      </trkpt>
      <trkpt lat="49.82517" lon="2.39471">
        <ele>34.9</ele>
        <time>2021-07-11T14:46:16Z</time>
      </trkpt>
      <trkpt lat="49.82516" lon="2.39472">
        <ele>34.9</ele>
        <time>2021-07-11T14:46:17Z</time>
      </trkpt>
      <trkpt lat="49.82515" lon="2.39472">
        <ele>34.9</ele>
        <time>2021-07-11T14:46:19Z</time>
      </trkpt>
      <trkpt lat="49.82515" lon="2.39473">
        <ele>34.9</ele>
        <time>2021-07-11T14:46:20Z</time>
      </trkpt>
      <trkpt lat="49.82514" lon="2.39473">
        <ele>35</ele>
        <time>2021-07-11T14:46:22Z</time>
      </trkpt>
      <trkpt lat="49.82513" lon="2.39473">
        <ele>35</ele>
        <time>2021-07-11T14:46:23Z</time>
      </trkpt>
      <trkpt lat="49.82511" lon="2.39473">
        <ele>35.1</ele>
        <time>2021-07-11T14:46:25Z</time>
      </trkpt>
      <trkpt lat="49.8251" lon="2.39473">
        <ele>35.1</ele>
        <time>2021-07-11T14:46:26Z</time>
      </trkpt>
      <trkpt lat="49.82509" lon="2.39473">
        <ele>35.2</ele>
        <time>2021-07-11T14:46:27Z</time>
      </trkpt>
      <trkpt lat="49.82508" lon="2.39473">
        <ele>35.2</ele>
        <time>2021-07-11T14:46:29Z</time>
      </trkpt>
      <trkpt lat="49.82507" lon="2.39473">
        <ele>35.2</ele>
        <time>2021-07-11T14:46:30Z</time>
      </trkpt>
      <trkpt lat="49.82506" lon="2.39472">
        <ele>35.3</ele>
        <time>2021-07-11T14:46:31Z</time>
      </trkpt>
      <trkpt lat="49.82504" lon="2.39472">
        <ele>35.4</ele>
        <time>2021-07-11T14:46:32Z</time>
      </trkpt>
      <trkpt lat="49.82503" lon="2.39471">
        <ele>35.4</ele>
        <time>2021-07-11T14:46:34Z</time>
      </trkpt>
      <trkpt lat="49.82501" lon="2.3947">
        <ele>35.5</ele>
        <time>2021-07-11T14:46:35Z</time>
      </trkpt>
      <trkpt lat="49.82499" lon="2.39468">
        <ele>35.6</ele>
        <time>2021-07-11T14:46:36Z</time>
      </trkpt>
      <trkpt lat="49.82499" lon="2.39468">
        <ele>35.6</ele>
        <time>2021-07-11T14:46:38Z</time>
      </trkpt>
      <trkpt lat="49.82498" lon="2.39467">
        <ele>35.6</ele>
        <time>2021-07-11T14:46:39Z</time>
      </trkpt>
      <trkpt lat="49.82497" lon="2.39466">
        <ele>35.7</ele>
        <time>2021-07-11T14:46:40Z</time>
      </trkpt>
      <trkpt lat="49.82497" lon="2.39464">
        <ele>35.7</ele>
        <time>2021-07-11T14:46:42Z</time>
      </trkpt>
      <trkpt lat="49.82497" lon="2.39462">
        <ele>35.8</ele>
        <time>2021-07-11T14:46:43Z</time>
      </trkpt>
      <trkpt lat="49.82497" lon="2.39459">
        <ele>35.8</ele>
        <time>2021-07-11T14:46:45Z</time>
      </trkpt>
      <trkpt lat="49.82496" lon="2.39459">
        <ele>35.9</ele>
        <time>2021-07-11T14:46:47Z</time>
      </trkpt>
      <trkpt lat="49.82496" lon="2.3946">
        <ele>35.9</ele>
        <time>2021-07-11T14:46:48Z</time>
      </trkpt>
      <trkpt lat="49.82496" lon="2.39459">
        <ele>35.9</ele>
        <time>2021-07-11T14:46:49Z</time>
      </trkpt>
      <trkpt lat="49.82496" lon="2.39459">
        <ele>35.9</ele>
        <time>2021-07-11T14:46:51Z</time>
      </trkpt>
      <trkpt lat="49.82496" lon="2.39457">
        <ele>35.9</ele>
        <time>2021-07-11T14:46:52Z</time>
      </trkpt>
      <trkpt lat="49.82495" lon="2.39455">
        <ele>36</ele>
        <time>2021-07-11T14:46:53Z</time>
      </trkpt>
      <trkpt lat="49.82495" lon="2.39452">
        <ele>36.1</ele>
        <time>2021-07-11T14:46:54Z</time>
      </trkpt>
      <trkpt lat="49.82494" lon="2.39448">
        <ele>36.1</ele>
        <time>2021-07-11T14:46:55Z</time>
      </trkpt>
      <trkpt lat="49.82494" lon="2.39446">
        <ele>36.2</ele>
        <time>2021-07-11T14:46:57Z</time>
      </trkpt>
      <trkpt lat="49.82494" lon="2.39444">
        <ele>36.3</ele>
        <time>2021-07-11T14:46:58Z</time>
      </trkpt>
      <trkpt lat="49.82494" lon="2.39442">
        <ele>36.3</ele>
        <time>2021-07-11T14:46:59Z</time>
      </trkpt>
      <trkpt lat="49.82494" lon="2.39439">
        <ele>36.4</ele>
        <time>2021-07-11T14:47:00Z</time>
      </trkpt>
      <trkpt lat="49.82494" lon="2.39437">
        <ele>36.4</ele>
        <time>2021-07-11T14:47:01Z</time>
      </trkpt>
      <trkpt lat="49.82494" lon="2.39434">
        <ele>36.5</ele>
        <time>2021-07-11T14:47:02Z</time>
      </trkpt>
      <trkpt lat="49.82494" lon="2.39433">
        <ele>36.5</ele>
        <time>2021-07-11T14:47:04Z</time>
      </trkpt>
      <trkpt lat="49.82493" lon="2.39431">
        <ele>36.5</ele>
        <time>2021-07-11T14:47:05Z</time>
      </trkpt>
      <trkpt lat="49.82493" lon="2.39429">
        <ele>36.6</ele>
        <time>2021-07-11T14:47:06Z</time>
      </trkpt>
      <trkpt lat="49.82492" lon="2.39427">
        <ele>36.6</ele>
        <time>2021-07-11T14:47:07Z</time>
      </trkpt>
      <trkpt lat="49.82492" lon="2.39426">
        <ele>36.7</ele>
        <time>2021-07-11T14:47:08Z</time>
      </trkpt>
      <trkpt lat="49.82491" lon="2.39424">
        <ele>36.7</ele>
        <time>2021-07-11T14:47:10Z</time>
      </trkpt>
      <trkpt lat="49.82491" lon="2.39422">
        <ele>36.8</ele>
        <time>2021-07-11T14:47:11Z</time>
      </trkpt>
      <trkpt lat="49.82491" lon="2.39419">
        <ele>36.9</ele>
        <time>2021-07-11T14:47:12Z</time>
      </trkpt>
      <trkpt lat="49.8249" lon="2.39417">
        <ele>36.9</ele>
        <time>2021-07-11T14:47:13Z</time>
      </trkpt>
      <trkpt lat="49.8249" lon="2.39416">
        <ele>36.9</ele>
        <time>2021-07-11T14:47:14Z</time>
      </trkpt>
      <trkpt lat="49.8249" lon="2.39413">
        <ele>37</ele>
        <time>2021-07-11T14:47:15Z</time>
      </trkpt>
      <trkpt lat="49.8249" lon="2.39411">
        <ele>37</ele>
        <time>2021-07-11T14:47:17Z</time>
      </trkpt>
      <trkpt lat="49.8249" lon="2.39408">
        <ele>37.1</ele>
        <time>2021-07-11T14:47:18Z</time>
      </trkpt>
      <trkpt lat="49.82489" lon="2.39406">
        <ele>37.1</ele>
        <time>2021-07-11T14:47:19Z</time>
      </trkpt>
      <trkpt lat="49.82489" lon="2.39404">
        <ele>37.2</ele>
        <time>2021-07-11T14:47:20Z</time>
      </trkpt>
      <trkpt lat="49.82489" lon="2.39402">
        <ele>37.2</ele>
        <time>2021-07-11T14:47:21Z</time>
      </trkpt>
      <trkpt lat="49.82488" lon="2.39398">
        <ele>37.3</ele>
        <time>2021-07-11T14:47:22Z</time>
      </trkpt>
      <trkpt lat="49.82488" lon="2.39396">
        <ele>37.4</ele>
        <time>2021-07-11T14:47:24Z</time>
      </trkpt>
      <trkpt lat="49.82487" lon="2.39395">
        <ele>37.4</ele>
        <time>2021-07-11T14:47:25Z</time>
      </trkpt>
      <trkpt lat="49.82487" lon="2.39393">
        <ele>37.4</ele>
        <time>2021-07-11T14:47:26Z</time>
      </trkpt>
      <trkpt lat="49.82487" lon="2.39392">
        <ele>37.5</ele>
        <time>2021-07-11T14:47:27Z</time>
      </trkpt>
      <trkpt lat="49.82486" lon="2.3939">
        <ele>37.5</ele>
        <time>2021-07-11T14:47:28Z</time>
      </trkpt>
      <trkpt lat="49.82486" lon="2.39388">
        <ele>37.5</ele>
        <time>2021-07-11T14:47:29Z</time>
      </trkpt>
      <trkpt lat="49.82486" lon="2.39386">
        <ele>37.6</ele>
        <time>2021-07-11T14:47:31Z</time>
      </trkpt>
      <trkpt lat="49.82485" lon="2.39384">
        <ele>37.6</ele>
        <time>2021-07-11T14:47:32Z</time>
      </trkpt>
      <trkpt lat="49.82485" lon="2.3938">
        <ele>37.7</ele>
        <time>2021-07-11T14:47:33Z</time>
      </trkpt>
      <trkpt lat="49.82485" lon="2.39379">
        <ele>37.7</ele>
        <time>2021-07-11T14:47:34Z</time>
      </trkpt>
      <trkpt lat="49.82484" lon="2.39378">
        <ele>37.8</ele>
        <time>2021-07-11T14:47:35Z</time>
      </trkpt>
      <trkpt lat="49.82484" lon="2.39376">
        <ele>37.8</ele>
        <time>2021-07-11T14:47:37Z</time>
      </trkpt>
      <trkpt lat="49.82484" lon="2.39374">
        <ele>37.8</ele>
        <time>2021-07-11T14:47:38Z</time>
      </trkpt>
      <trkpt lat="49.82484" lon="2.39372">
        <ele>37.9</ele>
        <time>2021-07-11T14:47:39Z</time>
      </trkpt>
      <trkpt lat="49.82483" lon="2.39369">
        <ele>37.9</ele>
        <time>2021-07-11T14:47:40Z</time>
      </trkpt>
      <trkpt lat="49.82482" lon="2.39368">
        <ele>38</ele>
        <time>2021-07-11T14:47:41Z</time>
      </trkpt>
      <trkpt lat="49.82482" lon="2.39367">
        <ele>38</ele>
        <time>2021-07-11T14:47:42Z</time>
      </trkpt>
      <trkpt lat="49.82481" lon="2.39365">
        <ele>38</ele>
        <time>2021-07-11T14:47:44Z</time>
      </trkpt>
      <trkpt lat="49.82481" lon="2.39364">
        <ele>38.1</ele>
        <time>2021-07-11T14:47:45Z</time>
      </trkpt>
      <trkpt lat="49.8248" lon="2.39361">
        <ele>38.1</ele>
        <time>2021-07-11T14:47:47Z</time>
      </trkpt>
      <trkpt lat="49.82479" lon="2.39357">
        <ele>38.2</ele>
        <time>2021-07-11T14:47:48Z</time>
      </trkpt>
      <trkpt lat="49.82479" lon="2.39356">
        <ele>38.3</ele>
        <time>2021-07-11T14:47:50Z</time>
      </trkpt>
      <trkpt lat="49.82479" lon="2.39354">
        <ele>38.3</ele>
        <time>2021-07-11T14:47:51Z</time>
      </trkpt>
      <trkpt lat="49.82478" lon="2.39352">
        <ele>38.4</ele>
        <time>2021-07-11T14:47:52Z</time>
      </trkpt>
      <trkpt lat="49.82478" lon="2.3935">
        <ele>38.4</ele>
        <time>2021-07-11T14:47:53Z</time>
      </trkpt>
      <trkpt lat="49.82478" lon="2.39348">
        <ele>38.5</ele>
        <time>2021-07-11T14:47:54Z</time>
      </trkpt>
      <trkpt lat="49.82478" lon="2.39345">
        <ele>38.6</ele>
        <time>2021-07-11T14:47:55Z</time>
      </trkpt>
      <trkpt lat="49.82478" lon="2.39343">
        <ele>38.6</ele>
        <time>2021-07-11T14:47:57Z</time>
      </trkpt>
      <trkpt lat="49.82477" lon="2.39341">
        <ele>38.7</ele>
        <time>2021-07-11T14:47:58Z</time>
      </trkpt>
      <trkpt lat="49.82477" lon="2.39338">
        <ele>38.8</ele>
        <time>2021-07-11T14:47:59Z</time>
      </trkpt>
      <trkpt lat="49.82477" lon="2.39335">
        <ele>38.9</ele>
        <time>2021-07-11T14:48:01Z</time>
      </trkpt>
      <trkpt lat="49.82477" lon="2.39332">
        <ele>39</ele>
        <time>2021-07-11T14:48:02Z</time>
      </trkpt>
      <trkpt lat="49.82478" lon="2.39328">
        <ele>39</ele>
        <time>2021-07-11T14:48:04Z</time>
      </trkpt>
      <trkpt lat="49.82478" lon="2.39327">
        <ele>39.1</ele>
        <time>2021-07-11T14:48:05Z</time>
      </trkpt>
      <trkpt lat="49.82479" lon="2.39325">
        <ele>39.2</ele>
        <time>2021-07-11T14:48:07Z</time>
      </trkpt>
      <trkpt lat="49.82481" lon="2.39325">
        <ele>39.2</ele>
        <time>2021-07-11T14:48:08Z</time>
      </trkpt>
      <trkpt lat="49.82482" lon="2.39325">
        <ele>39.3</ele>
        <time>2021-07-11T14:48:09Z</time>
      </trkpt>
      <trkpt lat="49.82483" lon="2.39324">
        <ele>39.3</ele>
        <time>2021-07-11T14:48:11Z</time>
      </trkpt>
      <trkpt lat="49.82483" lon="2.39323">
        <ele>39.4</ele>
        <time>2021-07-11T14:48:12Z</time>
      </trkpt>
      <trkpt lat="49.82483" lon="2.39321">
        <ele>39.4</ele>
        <time>2021-07-11T14:48:13Z</time>
      </trkpt>
      <trkpt lat="49.82482" lon="2.3932">
        <ele>39.5</ele>
        <time>2021-07-11T14:48:14Z</time>
      </trkpt>
      <trkpt lat="49.82482" lon="2.39318">
        <ele>39.5</ele>
        <time>2021-07-11T14:48:16Z</time>
      </trkpt>
      <trkpt lat="49.82482" lon="2.39316">
        <ele>39.5</ele>
        <time>2021-07-11T14:48:17Z</time>
      </trkpt>
      <trkpt lat="49.82481" lon="2.39316">
        <ele>39.5</ele>
        <time>2021-07-11T14:48:18Z</time>
      </trkpt>
      <trkpt lat="49.8248" lon="2.39319">
        <ele>39.5</ele>
        <time>2021-07-11T14:48:19Z</time>
      </trkpt>
      <trkpt lat="49.82479" lon="2.39319">
        <ele>39.5</ele>
        <time>2021-07-11T14:48:20Z</time>
      </trkpt>
      <trkpt lat="49.82479" lon="2.3932">
        <ele>39.5</ele>
        <time>2021-07-11T14:48:21Z</time>
      </trkpt>
      <trkpt lat="49.82478" lon="2.3932">
        <ele>39.5</ele>
        <time>2021-07-11T14:48:22Z</time>
      </trkpt>
      <trkpt lat="49.82478" lon="2.39319">
        <ele>39.5</ele>
        <time>2021-07-11T14:48:24Z</time>
      </trkpt>
      <trkpt lat="49.82478" lon="2.39319">
        <ele>39.5</ele>
        <time>2021-07-11T14:48:25Z</time>
      </trkpt>
      <trkpt lat="49.82478" lon="2.39318">
        <ele>39.5</ele>
        <time>2021-07-11T14:48:26Z</time>
      </trkpt>
      <trkpt lat="49.82479" lon="2.39316">
        <ele>39.5</ele>
        <time>2021-07-11T14:48:28Z</time>
      </trkpt>
      <trkpt lat="49.8248" lon="2.39315">
        <ele>39.5</ele>
        <time>2021-07-11T14:48:29Z</time>
      </trkpt>
      <trkpt lat="49.8248" lon="2.39314">
        <ele>39.5</ele>
        <time>2021-07-11T14:48:30Z</time>
      </trkpt>
      <trkpt lat="49.82481" lon="2.39314">
        <ele>39.5</ele>
        <time>2021-07-11T14:48:32Z</time>
      </trkpt>
      <trkpt lat="49.82482" lon="2.39314">
        <ele>39.5</ele>
        <time>2021-07-11T14:48:33Z</time>
      </trkpt>
      <trkpt lat="49.82483" lon="2.39315">
        <ele>39.6</ele>
        <time>2021-07-11T14:48:34Z</time>
      </trkpt>
      <trkpt lat="49.82484" lon="2.39315">
        <ele>39.6</ele>
        <time>2021-07-11T14:48:36Z</time>
      </trkpt>
      <trkpt lat="49.82485" lon="2.39316">
        <ele>39.6</ele>
        <time>2021-07-11T14:48:37Z</time>
      </trkpt>
      <trkpt lat="49.82486" lon="2.39317">
        <ele>39.6</ele>
        <time>2021-07-11T14:48:38Z</time>
      </trkpt>
      <trkpt lat="49.82486" lon="2.39318">
        <ele>39.6</ele>
        <time>2021-07-11T14:48:39Z</time>
      </trkpt>
      <trkpt lat="49.82487" lon="2.39319">
        <ele>39.6</ele>
        <time>2021-07-11T14:48:40Z</time>
      </trkpt>
      <trkpt lat="49.82488" lon="2.3932">
        <ele>39.6</ele>
        <time>2021-07-11T14:48:42Z</time>
      </trkpt>
      <trkpt lat="49.82488" lon="2.39321">
        <ele>39.6</ele>
        <time>2021-07-11T14:48:43Z</time>
      </trkpt>
      <trkpt lat="49.82489" lon="2.39321">
        <ele>39.6</ele>
        <time>2021-07-11T14:48:44Z</time>
      </trkpt>
      <trkpt lat="49.8249" lon="2.3932">
        <ele>39.6</ele>
        <time>2021-07-11T14:48:45Z</time>
      </trkpt>
      <trkpt lat="49.82491" lon="2.39318">
        <ele>39.6</ele>
        <time>2021-07-11T14:48:46Z</time>
      </trkpt>
      <trkpt lat="49.8249" lon="2.39315">
        <ele>39.7</ele>
        <time>2021-07-11T14:48:47Z</time>
      </trkpt>
      <trkpt lat="49.8249" lon="2.39314">
        <ele>39.7</ele>
        <time>2021-07-11T14:48:49Z</time>
      </trkpt>
      <trkpt lat="49.8249" lon="2.39313">
        <ele>39.7</ele>
        <time>2021-07-11T14:48:50Z</time>
      </trkpt>
      <trkpt lat="49.82489" lon="2.39309">
        <ele>39.7</ele>
        <time>2021-07-11T14:48:52Z</time>
      </trkpt>
      <trkpt lat="49.82489" lon="2.39307">
        <ele>39.7</ele>
        <time>2021-07-11T14:48:53Z</time>
      </trkpt>
      <trkpt lat="49.82489" lon="2.39306">
        <ele>39.7</ele>
        <time>2021-07-11T14:48:54Z</time>
      </trkpt>
      <trkpt lat="49.82489" lon="2.39304">
        <ele>39.7</ele>
        <time>2021-07-11T14:48:55Z</time>
      </trkpt>
      <trkpt lat="49.82488" lon="2.39302">
        <ele>39.7</ele>
        <time>2021-07-11T14:48:56Z</time>
      </trkpt>
      <trkpt lat="49.82488" lon="2.393">
        <ele>39.7</ele>
        <time>2021-07-11T14:48:57Z</time>
      </trkpt>
      <trkpt lat="49.82487" lon="2.39299">
        <ele>39.7</ele>
        <time>2021-07-11T14:48:59Z</time>
      </trkpt>
      <trkpt lat="49.82487" lon="2.39297">
        <ele>39.8</ele>
        <time>2021-07-11T14:49:00Z</time>
      </trkpt>
      <trkpt lat="49.82486" lon="2.39295">
        <ele>39.8</ele>
        <time>2021-07-11T14:49:02Z</time>
      </trkpt>
      <trkpt lat="49.82485" lon="2.39294">
        <ele>39.8</ele>
        <time>2021-07-11T14:49:03Z</time>
      </trkpt>
      <trkpt lat="49.82484" lon="2.39291">
        <ele>39.8</ele>
        <time>2021-07-11T14:49:05Z</time>
      </trkpt>
      <trkpt lat="49.82484" lon="2.39289">
        <ele>39.8</ele>
        <time>2021-07-11T14:49:06Z</time>
      </trkpt>
      <trkpt lat="49.82484" lon="2.39288">
        <ele>39.8</ele>
        <time>2021-07-11T14:49:07Z</time>
      </trkpt>
      <trkpt lat="49.82483" lon="2.39286">
        <ele>39.8</ele>
        <time>2021-07-11T14:49:08Z</time>
      </trkpt>
      <trkpt lat="49.82482" lon="2.39285">
        <ele>39.8</ele>
        <time>2021-07-11T14:49:09Z</time>
      </trkpt>
      <trkpt lat="49.82481" lon="2.39282">
        <ele>39.9</ele>
        <time>2021-07-11T14:49:10Z</time>
      </trkpt>
      <trkpt lat="49.82481" lon="2.39281">
        <ele>39.9</ele>
        <time>2021-07-11T14:49:12Z</time>
      </trkpt>
      <trkpt lat="49.8248" lon="2.3928">
        <ele>39.9</ele>
        <time>2021-07-11T14:49:13Z</time>
      </trkpt>
      <trkpt lat="49.8248" lon="2.39278">
        <ele>39.9</ele>
        <time>2021-07-11T14:49:14Z</time>
      </trkpt>
      <trkpt lat="49.82479" lon="2.39277">
        <ele>39.9</ele>
        <time>2021-07-11T14:49:15Z</time>
      </trkpt>
      <trkpt lat="49.82478" lon="2.39275">
        <ele>39.9</ele>
        <time>2021-07-11T14:49:16Z</time>
      </trkpt>
      <trkpt lat="49.82478" lon="2.39274">
        <ele>39.9</ele>
        <time>2021-07-11T14:49:17Z</time>
      </trkpt>
      <trkpt lat="49.82477" lon="2.39272">
        <ele>39.9</ele>
        <time>2021-07-11T14:49:19Z</time>
      </trkpt>
      <trkpt lat="49.82476" lon="2.3927">
        <ele>39.9</ele>
        <time>2021-07-11T14:49:20Z</time>
      </trkpt>
      <trkpt lat="49.82476" lon="2.39268">
        <ele>39.8</ele>
        <time>2021-07-11T14:49:21Z</time>
      </trkpt>
      <trkpt lat="49.82474" lon="2.39265">
        <ele>39.8</ele>
        <time>2021-07-11T14:49:22Z</time>
      </trkpt>
      <trkpt lat="49.82474" lon="2.39264">
        <ele>39.8</ele>
        <time>2021-07-11T14:49:23Z</time>
      </trkpt>
      <trkpt lat="49.82473" lon="2.39263">
        <ele>39.8</ele>
        <time>2021-07-11T14:49:24Z</time>
      </trkpt>
      <trkpt lat="49.82473" lon="2.39261">
        <ele>39.7</ele>
        <time>2021-07-11T14:49:26Z</time>
      </trkpt>
      <trkpt lat="49.82472" lon="2.39259">
        <ele>39.7</ele>
        <time>2021-07-11T14:49:27Z</time>
      </trkpt>
      <trkpt lat="49.82473" lon="2.39255">
        <ele>39.7</ele>
        <time>2021-07-11T14:49:28Z</time>
      </trkpt>
      <trkpt lat="49.82473" lon="2.39254">
        <ele>39.6</ele>
        <time>2021-07-11T14:49:29Z</time>
      </trkpt>
      <trkpt lat="49.82473" lon="2.39253">
        <ele>39.6</ele>
        <time>2021-07-11T14:49:30Z</time>
      </trkpt>
      <trkpt lat="49.82474" lon="2.39251">
        <ele>39.6</ele>
        <time>2021-07-11T14:49:31Z</time>
      </trkpt>
      <trkpt lat="49.82474" lon="2.39249">
        <ele>39.6</ele>
        <time>2021-07-11T14:49:32Z</time>
      </trkpt>
      <trkpt lat="49.82474" lon="2.39245">
        <ele>39.6</ele>
        <time>2021-07-11T14:49:34Z</time>
      </trkpt>
      <trkpt lat="49.82474" lon="2.39244">
        <ele>39.6</ele>
        <time>2021-07-11T14:49:35Z</time>
      </trkpt>
      <trkpt lat="49.82474" lon="2.39243">
        <ele>39.6</ele>
        <time>2021-07-11T14:49:36Z</time>
      </trkpt>
      <trkpt lat="49.82474" lon="2.3924">
        <ele>39.7</ele>
        <time>2021-07-11T14:49:37Z</time>
      </trkpt>
      <trkpt lat="49.82474" lon="2.39238">
        <ele>39.7</ele>
        <time>2021-07-11T14:49:38Z</time>
      </trkpt>
      <trkpt lat="49.82473" lon="2.39237">
        <ele>39.7</ele>
        <time>2021-07-11T14:49:39Z</time>
      </trkpt>
      <trkpt lat="49.82473" lon="2.39233">
        <ele>39.7</ele>
        <time>2021-07-11T14:49:40Z</time>
      </trkpt>
      <trkpt lat="49.82473" lon="2.39232">
        <ele>39.8</ele>
        <time>2021-07-11T14:49:42Z</time>
      </trkpt>
      <trkpt lat="49.82473" lon="2.39231">
        <ele>39.8</ele>
        <time>2021-07-11T14:49:43Z</time>
      </trkpt>
      <trkpt lat="49.82473" lon="2.39229">
        <ele>39.8</ele>
        <time>2021-07-11T14:49:44Z</time>
      </trkpt>
      <trkpt lat="49.82473" lon="2.39227">
        <ele>39.8</ele>
        <time>2021-07-11T14:49:45Z</time>
      </trkpt>
      <trkpt lat="49.82473" lon="2.39226">
        <ele>39.8</ele>
        <time>2021-07-11T14:49:46Z</time>
      </trkpt>
      <trkpt lat="49.82473" lon="2.39222">
        <ele>39.9</ele>
        <time>2021-07-11T14:49:47Z</time>
      </trkpt>
      <trkpt lat="49.82472" lon="2.39221">
        <ele>39.9</ele>
        <time>2021-07-11T14:49:48Z</time>
      </trkpt>
      <trkpt lat="49.82472" lon="2.39219">
        <ele>39.9</ele>
        <time>2021-07-11T14:49:50Z</time>
      </trkpt>
      <trkpt lat="49.82472" lon="2.39218">
        <ele>40</ele>
        <time>2021-07-11T14:49:51Z</time>
      </trkpt>
      <trkpt lat="49.82471" lon="2.39216">
        <ele>40</ele>
        <time>2021-07-11T14:49:52Z</time>
      </trkpt>
      <trkpt lat="49.82471" lon="2.39215">
        <ele>40</ele>
        <time>2021-07-11T14:49:53Z</time>
      </trkpt>
      <trkpt lat="49.82471" lon="2.39213">
        <ele>40</ele>
        <time>2021-07-11T14:49:54Z</time>
      </trkpt>
      <trkpt lat="49.82471" lon="2.3921">
        <ele>40</ele>
        <time>2021-07-11T14:49:55Z</time>
      </trkpt>
      <trkpt lat="49.8247" lon="2.39207">
        <ele>40.1</ele>
        <time>2021-07-11T14:49:57Z</time>
      </trkpt>
      <trkpt lat="49.8247" lon="2.39206">
        <ele>40.1</ele>
        <time>2021-07-11T14:49:58Z</time>
      </trkpt>
      <trkpt lat="49.8247" lon="2.39204">
        <ele>40.1</ele>
        <time>2021-07-11T14:49:59Z</time>
      </trkpt>
      <trkpt lat="49.82469" lon="2.39202">
        <ele>40.2</ele>
        <time>2021-07-11T14:50:00Z</time>
      </trkpt>
      <trkpt lat="49.82469" lon="2.39199">
        <ele>40.2</ele>
        <time>2021-07-11T14:50:02Z</time>
      </trkpt>
      <trkpt lat="49.82469" lon="2.39197">
        <ele>40.2</ele>
        <time>2021-07-11T14:50:03Z</time>
      </trkpt>
      <trkpt lat="49.82469" lon="2.39195">
        <ele>40.3</ele>
        <time>2021-07-11T14:50:04Z</time>
      </trkpt>
      <trkpt lat="49.82469" lon="2.39191">
        <ele>40.3</ele>
        <time>2021-07-11T14:50:05Z</time>
      </trkpt>
      <trkpt lat="49.82469" lon="2.3919">
        <ele>40.3</ele>
        <time>2021-07-11T14:50:07Z</time>
      </trkpt>
      <trkpt lat="49.82469" lon="2.39189">
        <ele>40.4</ele>
        <time>2021-07-11T14:50:08Z</time>
      </trkpt>
      <trkpt lat="49.82469" lon="2.39187">
        <ele>40.4</ele>
        <time>2021-07-11T14:50:09Z</time>
      </trkpt>
      <trkpt lat="49.82469" lon="2.39185">
        <ele>40.4</ele>
        <time>2021-07-11T14:50:10Z</time>
      </trkpt>
      <trkpt lat="49.82469" lon="2.39182">
        <ele>40.5</ele>
        <time>2021-07-11T14:50:11Z</time>
      </trkpt>
      <trkpt lat="49.82469" lon="2.3918">
        <ele>40.5</ele>
        <time>2021-07-11T14:50:12Z</time>
      </trkpt>
      <trkpt lat="49.82469" lon="2.39177">
        <ele>40.6</ele>
        <time>2021-07-11T14:50:14Z</time>
      </trkpt>
      <trkpt lat="49.82469" lon="2.39175">
        <ele>40.6</ele>
        <time>2021-07-11T14:50:15Z</time>
      </trkpt>
      <trkpt lat="49.82469" lon="2.39173">
        <ele>40.6</ele>
        <time>2021-07-11T14:50:16Z</time>
      </trkpt>
      <trkpt lat="49.82468" lon="2.3917">
        <ele>40.7</ele>
        <time>2021-07-11T14:50:17Z</time>
      </trkpt>
      <trkpt lat="49.82469" lon="2.39168">
        <ele>40.7</ele>
        <time>2021-07-11T14:50:18Z</time>
      </trkpt>
      <trkpt lat="49.82469" lon="2.39166">
        <ele>40.8</ele>
        <time>2021-07-11T14:50:19Z</time>
      </trkpt>
      <trkpt lat="49.82469" lon="2.39163">
        <ele>40.8</ele>
        <time>2021-07-11T14:50:21Z</time>
      </trkpt>
      <trkpt lat="49.82468" lon="2.39161">
        <ele>40.9</ele>
        <time>2021-07-11T14:50:22Z</time>
      </trkpt>
      <trkpt lat="49.82468" lon="2.39159">
        <ele>40.9</ele>
        <time>2021-07-11T14:50:23Z</time>
      </trkpt>
      <trkpt lat="49.82468" lon="2.39157">
        <ele>41</ele>
        <time>2021-07-11T14:50:24Z</time>
      </trkpt>
      <trkpt lat="49.82468" lon="2.39154">
        <ele>41</ele>
        <time>2021-07-11T14:50:25Z</time>
      </trkpt>
      <trkpt lat="49.82468" lon="2.39152">
        <ele>41</ele>
        <time>2021-07-11T14:50:26Z</time>
      </trkpt>
      <trkpt lat="49.82468" lon="2.39149">
        <ele>41.1</ele>
        <time>2021-07-11T14:50:27Z</time>
      </trkpt>
      <trkpt lat="49.82468" lon="2.39148">
        <ele>41.1</ele>
        <time>2021-07-11T14:50:29Z</time>
      </trkpt>
      <trkpt lat="49.82467" lon="2.39146">
        <ele>41.1</ele>
        <time>2021-07-11T14:50:30Z</time>
      </trkpt>
      <trkpt lat="49.82467" lon="2.39145">
        <ele>41.2</ele>
        <time>2021-07-11T14:50:31Z</time>
      </trkpt>
      <trkpt lat="49.82467" lon="2.39143">
        <ele>41.2</ele>
        <time>2021-07-11T14:50:32Z</time>
      </trkpt>
      <trkpt lat="49.82467" lon="2.39141">
        <ele>41.3</ele>
        <time>2021-07-11T14:50:33Z</time>
      </trkpt>
      <trkpt lat="49.82467" lon="2.39139">
        <ele>41.3</ele>
        <time>2021-07-11T14:50:34Z</time>
      </trkpt>
      <trkpt lat="49.82467" lon="2.39137">
        <ele>41.3</ele>
        <time>2021-07-11T14:50:35Z</time>
      </trkpt>
      <trkpt lat="49.82468" lon="2.39135">
        <ele>41.4</ele>
        <time>2021-07-11T14:50:37Z</time>
      </trkpt>
      <trkpt lat="49.82468" lon="2.39132">
        <ele>41.4</ele>
        <time>2021-07-11T14:50:38Z</time>
      </trkpt>
      <trkpt lat="49.82468" lon="2.3913">
        <ele>41.5</ele>
        <time>2021-07-11T14:50:39Z</time>
      </trkpt>
      <trkpt lat="49.82468" lon="2.39129">
        <ele>41.5</ele>
        <time>2021-07-11T14:50:40Z</time>
      </trkpt>
      <trkpt lat="49.82468" lon="2.39127">
        <ele>41.5</ele>
        <time>2021-07-11T14:50:41Z</time>
      </trkpt>
      <trkpt lat="49.82468" lon="2.39126">
        <ele>41.6</ele>
        <time>2021-07-11T14:50:42Z</time>
      </trkpt>
      <trkpt lat="49.82468" lon="2.39124">
        <ele>41.6</ele>
        <time>2021-07-11T14:50:44Z</time>
      </trkpt>
      <trkpt lat="49.82469" lon="2.39122">
        <ele>41.6</ele>
        <time>2021-07-11T14:50:45Z</time>
      </trkpt>
      <trkpt lat="49.82469" lon="2.39121">
        <ele>41.7</ele>
        <time>2021-07-11T14:50:46Z</time>
      </trkpt>
      <trkpt lat="49.82469" lon="2.39119">
        <ele>41.7</ele>
        <time>2021-07-11T14:50:47Z</time>
      </trkpt>
      <trkpt lat="49.82469" lon="2.39117">
        <ele>41.7</ele>
        <time>2021-07-11T14:50:48Z</time>
      </trkpt>
      <trkpt lat="49.82469" lon="2.39115">
        <ele>41.8</ele>
        <time>2021-07-11T14:50:49Z</time>
      </trkpt>
      <trkpt lat="49.82469" lon="2.39113">
        <ele>41.8</ele>
        <time>2021-07-11T14:50:51Z</time>
      </trkpt>
      <trkpt lat="49.82469" lon="2.39111">
        <ele>41.9</ele>
        <time>2021-07-11T14:50:52Z</time>
      </trkpt>
      <trkpt lat="49.82469" lon="2.39109">
        <ele>41.9</ele>
        <time>2021-07-11T14:50:53Z</time>
      </trkpt>
      <trkpt lat="49.82469" lon="2.39107">
        <ele>41.9</ele>
        <time>2021-07-11T14:50:54Z</time>
      </trkpt>
      <trkpt lat="49.82469" lon="2.39105">
        <ele>42</ele>
        <time>2021-07-11T14:50:55Z</time>
      </trkpt>
      <trkpt lat="49.82469" lon="2.39104">
        <ele>42</ele>
        <time>2021-07-11T14:50:56Z</time>
      </trkpt>
      <trkpt lat="49.82469" lon="2.39102">
        <ele>42.1</ele>
        <time>2021-07-11T14:50:57Z</time>
      </trkpt>
      <trkpt lat="49.82469" lon="2.391">
        <ele>42.1</ele>
        <time>2021-07-11T14:50:59Z</time>
      </trkpt>
      <trkpt lat="49.82469" lon="2.39098">
        <ele>42.1</ele>
        <time>2021-07-11T14:51:00Z</time>
      </trkpt>
      <trkpt lat="49.82469" lon="2.39097">
        <ele>42.2</ele>
        <time>2021-07-11T14:51:01Z</time>
      </trkpt>
      <trkpt lat="49.82469" lon="2.39093">
        <ele>42.2</ele>
        <time>2021-07-11T14:51:02Z</time>
      </trkpt>
      <trkpt lat="49.82469" lon="2.39092">
        <ele>42.3</ele>
        <time>2021-07-11T14:51:03Z</time>
      </trkpt>
      <trkpt lat="49.82469" lon="2.39091">
        <ele>42.3</ele>
        <time>2021-07-11T14:51:04Z</time>
      </trkpt>
      <trkpt lat="49.8247" lon="2.39087">
        <ele>42.4</ele>
        <time>2021-07-11T14:51:06Z</time>
      </trkpt>
      <trkpt lat="49.8247" lon="2.39086">
        <ele>42.4</ele>
        <time>2021-07-11T14:51:07Z</time>
      </trkpt>
      <trkpt lat="49.8247" lon="2.39085">
        <ele>42.4</ele>
        <time>2021-07-11T14:51:08Z</time>
      </trkpt>
      <trkpt lat="49.8247" lon="2.39083">
        <ele>42.4</ele>
        <time>2021-07-11T14:51:09Z</time>
      </trkpt>
      <trkpt lat="49.8247" lon="2.39082">
        <ele>42.5</ele>
        <time>2021-07-11T14:51:10Z</time>
      </trkpt>
      <trkpt lat="49.82471" lon="2.3908">
        <ele>42.5</ele>
        <time>2021-07-11T14:51:11Z</time>
      </trkpt>
      <trkpt lat="49.82471" lon="2.39077">
        <ele>42.6</ele>
        <time>2021-07-11T14:51:12Z</time>
      </trkpt>
      <trkpt lat="49.82471" lon="2.39076">
        <ele>42.6</ele>
        <time>2021-07-11T14:51:14Z</time>
      </trkpt>
      <trkpt lat="49.82471" lon="2.39074">
        <ele>42.6</ele>
        <time>2021-07-11T14:51:15Z</time>
      </trkpt>
      <trkpt lat="49.82471" lon="2.39071">
        <ele>42.7</ele>
        <time>2021-07-11T14:51:16Z</time>
      </trkpt>
      <trkpt lat="49.82471" lon="2.3907">
        <ele>42.7</ele>
        <time>2021-07-11T14:51:17Z</time>
      </trkpt>
      <trkpt lat="49.82471" lon="2.39069">
        <ele>42.8</ele>
        <time>2021-07-11T14:51:18Z</time>
      </trkpt>
      <trkpt lat="49.82471" lon="2.39067">
        <ele>42.8</ele>
        <time>2021-07-11T14:51:19Z</time>
      </trkpt>
      <trkpt lat="49.82471" lon="2.39065">
        <ele>42.9</ele>
        <time>2021-07-11T14:51:20Z</time>
      </trkpt>
      <trkpt lat="49.82471" lon="2.39063">
        <ele>42.9</ele>
        <time>2021-07-11T14:51:22Z</time>
      </trkpt>
      <trkpt lat="49.82471" lon="2.39061">
        <ele>42.9</ele>
        <time>2021-07-11T14:51:23Z</time>
      </trkpt>
      <trkpt lat="49.82471" lon="2.3906">
        <ele>43</ele>
        <time>2021-07-11T14:51:24Z</time>
      </trkpt>
      <trkpt lat="49.82471" lon="2.39058">
        <ele>43</ele>
        <time>2021-07-11T14:51:25Z</time>
      </trkpt>
      <trkpt lat="49.8247" lon="2.39055">
        <ele>43.1</ele>
        <time>2021-07-11T14:51:26Z</time>
      </trkpt>
      <trkpt lat="49.8247" lon="2.39054">
        <ele>43.1</ele>
        <time>2021-07-11T14:51:27Z</time>
      </trkpt>
      <trkpt lat="49.8247" lon="2.39052">
        <ele>43.2</ele>
        <time>2021-07-11T14:51:28Z</time>
      </trkpt>
      <trkpt lat="49.8247" lon="2.3905">
        <ele>43.2</ele>
        <time>2021-07-11T14:51:30Z</time>
      </trkpt>
      <trkpt lat="49.8247" lon="2.39048">
        <ele>43.3</ele>
        <time>2021-07-11T14:51:31Z</time>
      </trkpt>
      <trkpt lat="49.82469" lon="2.39047">
        <ele>43.3</ele>
        <time>2021-07-11T14:51:32Z</time>
      </trkpt>
      <trkpt lat="49.82468" lon="2.39045">
        <ele>43.3</ele>
        <time>2021-07-11T14:51:33Z</time>
      </trkpt>
      <trkpt lat="49.82468" lon="2.39044">
        <ele>43.4</ele>
        <time>2021-07-11T14:51:34Z</time>
      </trkpt>
      <trkpt lat="49.82468" lon="2.3904">
        <ele>43.5</ele>
        <time>2021-07-11T14:51:35Z</time>
      </trkpt>
      <trkpt lat="49.82468" lon="2.39039">
        <ele>43.5</ele>
        <time>2021-07-11T14:51:37Z</time>
      </trkpt>
      <trkpt lat="49.82468" lon="2.39038">
        <ele>43.5</ele>
        <time>2021-07-11T14:51:38Z</time>
      </trkpt>
      <trkpt lat="49.82467" lon="2.39036">
        <ele>43.6</ele>
        <time>2021-07-11T14:51:39Z</time>
      </trkpt>
      <trkpt lat="49.82467" lon="2.39037">
        <ele>43.6</ele>
        <time>2021-07-11T14:51:40Z</time>
      </trkpt>
      <trkpt lat="49.82466" lon="2.39035">
        <ele>43.6</ele>
        <time>2021-07-11T14:51:41Z</time>
      </trkpt>
      <trkpt lat="49.82466" lon="2.39033">
        <ele>43.7</ele>
        <time>2021-07-11T14:51:42Z</time>
      </trkpt>
      <trkpt lat="49.82467" lon="2.3903">
        <ele>43.8</ele>
        <time>2021-07-11T14:51:43Z</time>
      </trkpt>
      <trkpt lat="49.82467" lon="2.39028">
        <ele>43.8</ele>
        <time>2021-07-11T14:51:45Z</time>
      </trkpt>
      <trkpt lat="49.82467" lon="2.39027">
        <ele>43.8</ele>
        <time>2021-07-11T14:51:46Z</time>
      </trkpt>
      <trkpt lat="49.82467" lon="2.39025">
        <ele>43.9</ele>
        <time>2021-07-11T14:51:47Z</time>
      </trkpt>
      <trkpt lat="49.82467" lon="2.39023">
        <ele>43.9</ele>
        <time>2021-07-11T14:51:48Z</time>
      </trkpt>
      <trkpt lat="49.82467" lon="2.39022">
        <ele>44</ele>
        <time>2021-07-11T14:51:49Z</time>
      </trkpt>
      <trkpt lat="49.82467" lon="2.3902">
        <ele>44</ele>
        <time>2021-07-11T14:51:50Z</time>
      </trkpt>
      <trkpt lat="49.82466" lon="2.39018">
        <ele>44</ele>
        <time>2021-07-11T14:51:52Z</time>
      </trkpt>
      <trkpt lat="49.82466" lon="2.39016">
        <ele>44.1</ele>
        <time>2021-07-11T14:51:53Z</time>
      </trkpt>
      <trkpt lat="49.82466" lon="2.39013">
        <ele>44.2</ele>
        <time>2021-07-11T14:51:54Z</time>
      </trkpt>
      <trkpt lat="49.82466" lon="2.39012">
        <ele>44.2</ele>
        <time>2021-07-11T14:51:55Z</time>
      </trkpt>
      <trkpt lat="49.82466" lon="2.39011">
        <ele>44.2</ele>
        <time>2021-07-11T14:51:56Z</time>
      </trkpt>
      <trkpt lat="49.82466" lon="2.39009">
        <ele>44.3</ele>
        <time>2021-07-11T14:51:57Z</time>
      </trkpt>
      <trkpt lat="49.82467" lon="2.39008">
        <ele>44.3</ele>
        <time>2021-07-11T14:51:58Z</time>
      </trkpt>
      <trkpt lat="49.82467" lon="2.39007">
        <ele>44.3</ele>
        <time>2021-07-11T14:52:00Z</time>
      </trkpt>
      <trkpt lat="49.82468" lon="2.39006">
        <ele>44.4</ele>
        <time>2021-07-11T14:52:01Z</time>
      </trkpt>
      <trkpt lat="49.82468" lon="2.39004">
        <ele>44.4</ele>
        <time>2021-07-11T14:52:02Z</time>
      </trkpt>
      <trkpt lat="49.82468" lon="2.39003">
        <ele>44.5</ele>
        <time>2021-07-11T14:52:03Z</time>
      </trkpt>
      <trkpt lat="49.82468" lon="2.39001">
        <ele>44.5</ele>
        <time>2021-07-11T14:52:04Z</time>
      </trkpt>
      <trkpt lat="49.82467" lon="2.38999">
        <ele>44.6</ele>
        <time>2021-07-11T14:52:05Z</time>
      </trkpt>
      <trkpt lat="49.82467" lon="2.38997">
        <ele>44.6</ele>
        <time>2021-07-11T14:52:06Z</time>
      </trkpt>
      <trkpt lat="49.82467" lon="2.38995">
        <ele>44.7</ele>
        <time>2021-07-11T14:52:08Z</time>
      </trkpt>
      <trkpt lat="49.82467" lon="2.38992">
        <ele>44.7</ele>
        <time>2021-07-11T14:52:09Z</time>
      </trkpt>
      <trkpt lat="49.82467" lon="2.3899">
        <ele>44.8</ele>
        <time>2021-07-11T14:52:10Z</time>
      </trkpt>
      <trkpt lat="49.82467" lon="2.38989">
        <ele>44.8</ele>
        <time>2021-07-11T14:52:11Z</time>
      </trkpt>
      <trkpt lat="49.82467" lon="2.38986">
        <ele>44.9</ele>
        <time>2021-07-11T14:52:12Z</time>
      </trkpt>
      <trkpt lat="49.82468" lon="2.38984">
        <ele>44.9</ele>
        <time>2021-07-11T14:52:13Z</time>
      </trkpt>
      <trkpt lat="49.82468" lon="2.38983">
        <ele>45</ele>
        <time>2021-07-11T14:52:14Z</time>
      </trkpt>
      <trkpt lat="49.82468" lon="2.38981">
        <ele>45</ele>
        <time>2021-07-11T14:52:16Z</time>
      </trkpt>
      <trkpt lat="49.82468" lon="2.3898">
        <ele>45.1</ele>
        <time>2021-07-11T14:52:17Z</time>
      </trkpt>
      <trkpt lat="49.82468" lon="2.38978">
        <ele>45.1</ele>
        <time>2021-07-11T14:52:18Z</time>
      </trkpt>
      <trkpt lat="49.82468" lon="2.38977">
        <ele>45.2</ele>
        <time>2021-07-11T14:52:19Z</time>
      </trkpt>
      <trkpt lat="49.82467" lon="2.38975">
        <ele>45.2</ele>
        <time>2021-07-11T14:52:20Z</time>
      </trkpt>
      <trkpt lat="49.82467" lon="2.38973">
        <ele>45.3</ele>
        <time>2021-07-11T14:52:21Z</time>
      </trkpt>
      <trkpt lat="49.82467" lon="2.38971">
        <ele>45.3</ele>
        <time>2021-07-11T14:52:23Z</time>
      </trkpt>
      <trkpt lat="49.82467" lon="2.3897">
        <ele>45.4</ele>
        <time>2021-07-11T14:52:24Z</time>
      </trkpt>
      <trkpt lat="49.82467" lon="2.38968">
        <ele>45.4</ele>
        <time>2021-07-11T14:52:25Z</time>
      </trkpt>
      <trkpt lat="49.82466" lon="2.38966">
        <ele>45.5</ele>
        <time>2021-07-11T14:52:26Z</time>
      </trkpt>
      <trkpt lat="49.82466" lon="2.38964">
        <ele>45.6</ele>
        <time>2021-07-11T14:52:27Z</time>
      </trkpt>
      <trkpt lat="49.82466" lon="2.38963">
        <ele>45.6</ele>
        <time>2021-07-11T14:52:29Z</time>
      </trkpt>
      <trkpt lat="49.82465" lon="2.38961">
        <ele>46</ele>
        <time>2021-07-11T14:52:30Z</time>
      </trkpt>
      <trkpt lat="49.82465" lon="2.38959">
        <ele>46.2</ele>
        <time>2021-07-11T14:52:31Z</time>
      </trkpt>
      <trkpt lat="49.82466" lon="2.38959">
        <ele>46.2</ele>
        <time>2021-07-11T14:52:32Z</time>
      </trkpt>
      <trkpt lat="49.82466" lon="2.38958">
        <ele>46.2</ele>
        <time>2021-07-11T14:52:34Z</time>
      </trkpt>
      <trkpt lat="49.82467" lon="2.38956">
        <ele>46.3</ele>
        <time>2021-07-11T14:52:35Z</time>
      </trkpt>
      <trkpt lat="49.82467" lon="2.38954">
        <ele>46.3</ele>
        <time>2021-07-11T14:52:36Z</time>
      </trkpt>
      <trkpt lat="49.82468" lon="2.38953">
        <ele>46.3</ele>
        <time>2021-07-11T14:52:38Z</time>
      </trkpt>
      <trkpt lat="49.82468" lon="2.38951">
        <ele>46.4</ele>
        <time>2021-07-11T14:52:39Z</time>
      </trkpt>
      <trkpt lat="49.82469" lon="2.3895">
        <ele>46.4</ele>
        <time>2021-07-11T14:52:40Z</time>
      </trkpt>
      <trkpt lat="49.82469" lon="2.38948">
        <ele>46.5</ele>
        <time>2021-07-11T14:52:41Z</time>
      </trkpt>
      <trkpt lat="49.8247" lon="2.38945">
        <ele>46.6</ele>
        <time>2021-07-11T14:52:43Z</time>
      </trkpt>
      <trkpt lat="49.8247" lon="2.38944">
        <ele>46.6</ele>
        <time>2021-07-11T14:52:44Z</time>
      </trkpt>
      <trkpt lat="49.82471" lon="2.38942">
        <ele>46.6</ele>
        <time>2021-07-11T14:52:45Z</time>
      </trkpt>
      <trkpt lat="49.82471" lon="2.38941">
        <ele>46.7</ele>
        <time>2021-07-11T14:52:46Z</time>
      </trkpt>
      <trkpt lat="49.82472" lon="2.38939">
        <ele>46.8</ele>
        <time>2021-07-11T14:52:47Z</time>
      </trkpt>
      <trkpt lat="49.82473" lon="2.38938">
        <ele>46.8</ele>
        <time>2021-07-11T14:52:49Z</time>
      </trkpt>
      <trkpt lat="49.82474" lon="2.38937">
        <ele>46.9</ele>
        <time>2021-07-11T14:52:50Z</time>
      </trkpt>
      <trkpt lat="49.82474" lon="2.38934">
        <ele>47</ele>
        <time>2021-07-11T14:52:51Z</time>
      </trkpt>
      <trkpt lat="49.82474" lon="2.38933">
        <ele>47</ele>
        <time>2021-07-11T14:52:53Z</time>
      </trkpt>
      <trkpt lat="49.82475" lon="2.38932">
        <ele>47</ele>
        <time>2021-07-11T14:52:55Z</time>
      </trkpt>
      <trkpt lat="49.82475" lon="2.38933">
        <ele>47.1</ele>
        <time>2021-07-11T14:52:56Z</time>
      </trkpt>
      <trkpt lat="49.82476" lon="2.38933">
        <ele>47.1</ele>
        <time>2021-07-11T14:52:58Z</time>
      </trkpt>
      <trkpt lat="49.82477" lon="2.38933">
        <ele>47.1</ele>
        <time>2021-07-11T14:52:59Z</time>
      </trkpt>
      <trkpt lat="49.82477" lon="2.38933">
        <ele>47.2</ele>
        <time>2021-07-11T14:53:00Z</time>
      </trkpt>
      <trkpt lat="49.82479" lon="2.38933">
        <ele>47.3</ele>
        <time>2021-07-11T14:53:02Z</time>
      </trkpt>
      <trkpt lat="49.8248" lon="2.38933">
        <ele>47.3</ele>
        <time>2021-07-11T14:53:03Z</time>
      </trkpt>
      <trkpt lat="49.82481" lon="2.38933">
        <ele>47.4</ele>
        <time>2021-07-11T14:53:04Z</time>
      </trkpt>
      <trkpt lat="49.82482" lon="2.38933">
        <ele>47.4</ele>
        <time>2021-07-11T14:53:05Z</time>
      </trkpt>
      <trkpt lat="49.82483" lon="2.38932">
        <ele>47.4</ele>
        <time>2021-07-11T14:53:07Z</time>
      </trkpt>
      <trkpt lat="49.82483" lon="2.38932">
        <ele>47.5</ele>
        <time>2021-07-11T14:53:08Z</time>
      </trkpt>
      <trkpt lat="49.82485" lon="2.38932">
        <ele>47.6</ele>
        <time>2021-07-11T14:53:10Z</time>
      </trkpt>
      <trkpt lat="49.82486" lon="2.38931">
        <ele>47.6</ele>
        <time>2021-07-11T14:53:11Z</time>
      </trkpt>
      <trkpt lat="49.82487" lon="2.38931">
        <ele>47.7</ele>
        <time>2021-07-11T14:53:12Z</time>
      </trkpt>
      <trkpt lat="49.82488" lon="2.3893">
        <ele>47.7</ele>
        <time>2021-07-11T14:53:14Z</time>
      </trkpt>
      <trkpt lat="49.82489" lon="2.3893">
        <ele>47.8</ele>
        <time>2021-07-11T14:53:15Z</time>
      </trkpt>
      <trkpt lat="49.8249" lon="2.38929">
        <ele>47.8</ele>
        <time>2021-07-11T14:53:16Z</time>
      </trkpt>
      <trkpt lat="49.8249" lon="2.3893">
        <ele>47.8</ele>
        <time>2021-07-11T14:53:17Z</time>
      </trkpt>
      <trkpt lat="49.82491" lon="2.38929">
        <ele>47.9</ele>
        <time>2021-07-11T14:53:18Z</time>
      </trkpt>
      <trkpt lat="49.82492" lon="2.38929">
        <ele>47.9</ele>
        <time>2021-07-11T14:53:20Z</time>
      </trkpt>
      <trkpt lat="49.82494" lon="2.38929">
        <ele>48</ele>
        <time>2021-07-11T14:53:21Z</time>
      </trkpt>
      <trkpt lat="49.82495" lon="2.38928">
        <ele>48.1</ele>
        <time>2021-07-11T14:53:22Z</time>
      </trkpt>
      <trkpt lat="49.82496" lon="2.38928">
        <ele>48.1</ele>
        <time>2021-07-11T14:53:23Z</time>
      </trkpt>
      <trkpt lat="49.82497" lon="2.38928">
        <ele>48.2</ele>
        <time>2021-07-11T14:53:24Z</time>
      </trkpt>
      <trkpt lat="49.82498" lon="2.38928">
        <ele>48.2</ele>
        <time>2021-07-11T14:53:26Z</time>
      </trkpt>
      <trkpt lat="49.82498" lon="2.38928">
        <ele>48.3</ele>
        <time>2021-07-11T14:53:27Z</time>
      </trkpt>
      <trkpt lat="49.82498" lon="2.38928">
        <ele>48.3</ele>
        <time>2021-07-11T14:53:28Z</time>
      </trkpt>
      <trkpt lat="49.82499" lon="2.38927">
        <ele>48.3</ele>
        <time>2021-07-11T14:53:29Z</time>
      </trkpt>
      <trkpt lat="49.825" lon="2.38927">
        <ele>48.4</ele>
        <time>2021-07-11T14:53:31Z</time>
      </trkpt>
      <trkpt lat="49.82501" lon="2.38927">
        <ele>48.4</ele>
        <time>2021-07-11T14:53:32Z</time>
      </trkpt>
      <trkpt lat="49.82502" lon="2.38926">
        <ele>48.5</ele>
        <time>2021-07-11T14:53:33Z</time>
      </trkpt>
      <trkpt lat="49.82503" lon="2.38926">
        <ele>48.6</ele>
        <time>2021-07-11T14:53:34Z</time>
      </trkpt>
      <trkpt lat="49.82504" lon="2.38925">
        <ele>48.6</ele>
        <time>2021-07-11T14:53:35Z</time>
      </trkpt>
      <trkpt lat="49.82506" lon="2.38925">
        <ele>48.7</ele>
        <time>2021-07-11T14:53:37Z</time>
      </trkpt>
      <trkpt lat="49.82507" lon="2.38925">
        <ele>48.8</ele>
        <time>2021-07-11T14:53:38Z</time>
      </trkpt>
      <trkpt lat="49.82509" lon="2.38924">
        <ele>48.9</ele>
        <time>2021-07-11T14:53:40Z</time>
      </trkpt>
      <trkpt lat="49.82511" lon="2.38923">
        <ele>49</ele>
        <time>2021-07-11T14:53:41Z</time>
      </trkpt>
      <trkpt lat="49.82512" lon="2.38922">
        <ele>49.1</ele>
        <time>2021-07-11T14:53:42Z</time>
      </trkpt>
      <trkpt lat="49.82513" lon="2.38922">
        <ele>49.2</ele>
        <time>2021-07-11T14:53:43Z</time>
      </trkpt>
      <trkpt lat="49.82514" lon="2.38922">
        <ele>49.2</ele>
        <time>2021-07-11T14:53:45Z</time>
      </trkpt>
      <trkpt lat="49.82515" lon="2.38921">
        <ele>49.3</ele>
        <time>2021-07-11T14:53:46Z</time>
      </trkpt>
      <trkpt lat="49.82516" lon="2.3892">
        <ele>49.4</ele>
        <time>2021-07-11T14:53:47Z</time>
      </trkpt>
      <trkpt lat="49.82518" lon="2.38919">
        <ele>49.5</ele>
        <time>2021-07-11T14:53:48Z</time>
      </trkpt>
      <trkpt lat="49.82519" lon="2.38919">
        <ele>49.6</ele>
        <time>2021-07-11T14:53:50Z</time>
      </trkpt>
      <trkpt lat="49.8252" lon="2.38919">
        <ele>49.6</ele>
        <time>2021-07-11T14:53:51Z</time>
      </trkpt>
      <trkpt lat="49.82523" lon="2.38917">
        <ele>49.8</ele>
        <time>2021-07-11T14:53:53Z</time>
      </trkpt>
      <trkpt lat="49.82523" lon="2.38917">
        <ele>49.9</ele>
        <time>2021-07-11T14:53:54Z</time>
      </trkpt>
      <trkpt lat="49.82525" lon="2.38916">
        <ele>50</ele>
        <time>2021-07-11T14:53:55Z</time>
      </trkpt>
      <trkpt lat="49.82526" lon="2.38915">
        <ele>50.1</ele>
        <time>2021-07-11T14:53:56Z</time>
      </trkpt>
      <trkpt lat="49.82526" lon="2.38915">
        <ele>50.1</ele>
        <time>2021-07-11T14:53:58Z</time>
      </trkpt>
      <trkpt lat="49.82527" lon="2.38915">
        <ele>50.2</ele>
        <time>2021-07-11T14:53:59Z</time>
      </trkpt>
      <trkpt lat="49.82529" lon="2.38915">
        <ele>50.3</ele>
        <time>2021-07-11T14:54:00Z</time>
      </trkpt>
      <trkpt lat="49.82529" lon="2.38915">
        <ele>50.3</ele>
        <time>2021-07-11T14:54:01Z</time>
      </trkpt>
      <trkpt lat="49.8253" lon="2.38914">
        <ele>50.3</ele>
        <time>2021-07-11T14:54:03Z</time>
      </trkpt>
      <trkpt lat="49.82531" lon="2.38914">
        <ele>50.4</ele>
        <time>2021-07-11T14:54:04Z</time>
      </trkpt>
      <trkpt lat="49.82531" lon="2.38913">
        <ele>50.4</ele>
        <time>2021-07-11T14:54:05Z</time>
      </trkpt>
      <trkpt lat="49.82532" lon="2.38913">
        <ele>50.5</ele>
        <time>2021-07-11T14:54:06Z</time>
      </trkpt>
      <trkpt lat="49.82533" lon="2.38912">
        <ele>50.6</ele>
        <time>2021-07-11T14:54:08Z</time>
      </trkpt>
      <trkpt lat="49.82534" lon="2.38911">
        <ele>50.7</ele>
        <time>2021-07-11T14:54:09Z</time>
      </trkpt>
      <trkpt lat="49.82536" lon="2.38911">
        <ele>50.7</ele>
        <time>2021-07-11T14:54:10Z</time>
      </trkpt>
      <trkpt lat="49.82537" lon="2.3891">
        <ele>50.8</ele>
        <time>2021-07-11T14:54:11Z</time>
      </trkpt>
      <trkpt lat="49.82538" lon="2.3891">
        <ele>50.9</ele>
        <time>2021-07-11T14:54:12Z</time>
      </trkpt>
      <trkpt lat="49.82539" lon="2.38909">
        <ele>50.9</ele>
        <time>2021-07-11T14:54:14Z</time>
      </trkpt>
      <trkpt lat="49.8254" lon="2.38909">
        <ele>51</ele>
        <time>2021-07-11T14:54:15Z</time>
      </trkpt>
      <trkpt lat="49.82541" lon="2.38909">
        <ele>51.1</ele>
        <time>2021-07-11T14:54:16Z</time>
      </trkpt>
      <trkpt lat="49.82542" lon="2.38908">
        <ele>51.1</ele>
        <time>2021-07-11T14:54:17Z</time>
      </trkpt>
      <trkpt lat="49.82543" lon="2.38908">
        <ele>51.2</ele>
        <time>2021-07-11T14:54:19Z</time>
      </trkpt>
      <trkpt lat="49.82544" lon="2.38907">
        <ele>51.3</ele>
        <time>2021-07-11T14:54:20Z</time>
      </trkpt>
      <trkpt lat="49.82545" lon="2.38907">
        <ele>51.3</ele>
        <time>2021-07-11T14:54:21Z</time>
      </trkpt>
      <trkpt lat="49.82546" lon="2.38906">
        <ele>51.4</ele>
        <time>2021-07-11T14:54:22Z</time>
      </trkpt>
      <trkpt lat="49.82548" lon="2.38906">
        <ele>51.5</ele>
        <time>2021-07-11T14:54:23Z</time>
      </trkpt>
      <trkpt lat="49.82549" lon="2.38905">
        <ele>51.6</ele>
        <time>2021-07-11T14:54:25Z</time>
      </trkpt>
      <trkpt lat="49.8255" lon="2.38905">
        <ele>51.6</ele>
        <time>2021-07-11T14:54:26Z</time>
      </trkpt>
      <trkpt lat="49.82552" lon="2.38904">
        <ele>51.7</ele>
        <time>2021-07-11T14:54:27Z</time>
      </trkpt>
      <trkpt lat="49.82553" lon="2.38903">
        <ele>51.8</ele>
        <time>2021-07-11T14:54:28Z</time>
      </trkpt>
      <trkpt lat="49.82554" lon="2.38903">
        <ele>51.9</ele>
        <time>2021-07-11T14:54:29Z</time>
      </trkpt>
      <trkpt lat="49.82556" lon="2.38902">
        <ele>51.9</ele>
        <time>2021-07-11T14:54:31Z</time>
      </trkpt>
      <trkpt lat="49.82557" lon="2.38902">
        <ele>52</ele>
        <time>2021-07-11T14:54:32Z</time>
      </trkpt>
      <trkpt lat="49.8256" lon="2.38901">
        <ele>52.2</ele>
        <time>2021-07-11T14:54:33Z</time>
      </trkpt>
      <trkpt lat="49.82561" lon="2.38901">
        <ele>52.2</ele>
        <time>2021-07-11T14:54:34Z</time>
      </trkpt>
      <trkpt lat="49.82563" lon="2.389">
        <ele>52.3</ele>
        <time>2021-07-11T14:54:36Z</time>
      </trkpt>
      <trkpt lat="49.82565" lon="2.389">
        <ele>52.4</ele>
        <time>2021-07-11T14:54:37Z</time>
      </trkpt>
      <trkpt lat="49.82566" lon="2.38899">
        <ele>52.5</ele>
        <time>2021-07-11T14:54:38Z</time>
      </trkpt>
      <trkpt lat="49.82569" lon="2.38898">
        <ele>52.6</ele>
        <time>2021-07-11T14:54:40Z</time>
      </trkpt>
      <trkpt lat="49.82571" lon="2.38896">
        <ele>52.8</ele>
        <time>2021-07-11T14:54:41Z</time>
      </trkpt>
      <trkpt lat="49.82572" lon="2.38896">
        <ele>52.8</ele>
        <time>2021-07-11T14:54:42Z</time>
      </trkpt>
      <trkpt lat="49.82573" lon="2.38895">
        <ele>52.9</ele>
        <time>2021-07-11T14:54:43Z</time>
      </trkpt>
      <trkpt lat="49.82574" lon="2.38895">
        <ele>52.9</ele>
        <time>2021-07-11T14:54:45Z</time>
      </trkpt>
      <trkpt lat="49.82575" lon="2.38894">
        <ele>53</ele>
        <time>2021-07-11T14:54:46Z</time>
      </trkpt>
      <trkpt lat="49.82576" lon="2.38893">
        <ele>53</ele>
        <time>2021-07-11T14:54:47Z</time>
      </trkpt>
      <trkpt lat="49.82577" lon="2.38892">
        <ele>53.1</ele>
        <time>2021-07-11T14:54:48Z</time>
      </trkpt>
      <trkpt lat="49.82578" lon="2.38892">
        <ele>53.2</ele>
        <time>2021-07-11T14:54:49Z</time>
      </trkpt>
      <trkpt lat="49.8258" lon="2.38891">
        <ele>53.2</ele>
        <time>2021-07-11T14:54:51Z</time>
      </trkpt>
      <trkpt lat="49.82581" lon="2.38891">
        <ele>53.3</ele>
        <time>2021-07-11T14:54:52Z</time>
      </trkpt>
      <trkpt lat="49.82583" lon="2.38891">
        <ele>53.4</ele>
        <time>2021-07-11T14:54:53Z</time>
      </trkpt>
      <trkpt lat="49.82584" lon="2.3889">
        <ele>53.5</ele>
        <time>2021-07-11T14:54:54Z</time>
      </trkpt>
      <trkpt lat="49.82585" lon="2.38889">
        <ele>53.5</ele>
        <time>2021-07-11T14:54:56Z</time>
      </trkpt>
      <trkpt lat="49.82585" lon="2.38889">
        <ele>53.6</ele>
        <time>2021-07-11T14:54:57Z</time>
      </trkpt>
      <trkpt lat="49.82586" lon="2.38888">
        <ele>53.6</ele>
        <time>2021-07-11T14:54:58Z</time>
      </trkpt>
      <trkpt lat="49.82584" lon="2.38888">
        <ele>53.7</ele>
        <time>2021-07-11T14:54:59Z</time>
      </trkpt>
      <trkpt lat="49.82584" lon="2.38887">
        <ele>53.7</ele>
        <time>2021-07-11T14:55:00Z</time>
      </trkpt>
      <trkpt lat="49.82585" lon="2.38886">
        <ele>53.7</ele>
        <time>2021-07-11T14:55:02Z</time>
      </trkpt>
      <trkpt lat="49.82586" lon="2.38885">
        <ele>53.8</ele>
        <time>2021-07-11T14:55:03Z</time>
      </trkpt>
      <trkpt lat="49.82588" lon="2.38884">
        <ele>53.9</ele>
        <time>2021-07-11T14:55:05Z</time>
      </trkpt>
      <trkpt lat="49.82589" lon="2.38883">
        <ele>54</ele>
        <time>2021-07-11T14:55:06Z</time>
      </trkpt>
      <trkpt lat="49.82591" lon="2.38882">
        <ele>54.1</ele>
        <time>2021-07-11T14:55:07Z</time>
      </trkpt>
      <trkpt lat="49.82592" lon="2.38881">
        <ele>54.2</ele>
        <time>2021-07-11T14:55:09Z</time>
      </trkpt>
      <trkpt lat="49.82593" lon="2.3888">
        <ele>54.3</ele>
        <time>2021-07-11T14:55:10Z</time>
      </trkpt>
      <trkpt lat="49.82595" lon="2.38879">
        <ele>54.4</ele>
        <time>2021-07-11T14:55:12Z</time>
      </trkpt>
      <trkpt lat="49.82597" lon="2.38878">
        <ele>54.5</ele>
        <time>2021-07-11T14:55:13Z</time>
      </trkpt>
      <trkpt lat="49.82598" lon="2.38878">
        <ele>54.6</ele>
        <time>2021-07-11T14:55:14Z</time>
      </trkpt>
      <trkpt lat="49.82599" lon="2.38878">
        <ele>54.6</ele>
        <time>2021-07-11T14:55:15Z</time>
      </trkpt>
      <trkpt lat="49.826" lon="2.38877">
        <ele>54.7</ele>
        <time>2021-07-11T14:55:16Z</time>
      </trkpt>
      <trkpt lat="49.82602" lon="2.38877">
        <ele>54.8</ele>
        <time>2021-07-11T14:55:17Z</time>
      </trkpt>
      <trkpt lat="49.82604" lon="2.38876">
        <ele>55</ele>
        <time>2021-07-11T14:55:19Z</time>
      </trkpt>
      <trkpt lat="49.82605" lon="2.38876">
        <ele>55</ele>
        <time>2021-07-11T14:55:20Z</time>
      </trkpt>
      <trkpt lat="49.82606" lon="2.38875">
        <ele>55</ele>
        <time>2021-07-11T14:55:21Z</time>
      </trkpt>
      <trkpt lat="49.82607" lon="2.38875">
        <ele>55.1</ele>
        <time>2021-07-11T14:55:22Z</time>
      </trkpt>
      <trkpt lat="49.82608" lon="2.38875">
        <ele>55.2</ele>
        <time>2021-07-11T14:55:24Z</time>
      </trkpt>
      <trkpt lat="49.82608" lon="2.38874">
        <ele>55.2</ele>
        <time>2021-07-11T14:55:25Z</time>
      </trkpt>
      <trkpt lat="49.82609" lon="2.38874">
        <ele>55.2</ele>
        <time>2021-07-11T14:55:26Z</time>
      </trkpt>
      <trkpt lat="49.8261" lon="2.38874">
        <ele>55.3</ele>
        <time>2021-07-11T14:55:27Z</time>
      </trkpt>
      <trkpt lat="49.82611" lon="2.38873">
        <ele>55.4</ele>
        <time>2021-07-11T14:55:29Z</time>
      </trkpt>
      <trkpt lat="49.82612" lon="2.38873">
        <ele>55.4</ele>
        <time>2021-07-11T14:55:30Z</time>
      </trkpt>
      <trkpt lat="49.82613" lon="2.38873">
        <ele>55.5</ele>
        <time>2021-07-11T14:55:31Z</time>
      </trkpt>
      <trkpt lat="49.82614" lon="2.38873">
        <ele>55.5</ele>
        <time>2021-07-11T14:55:32Z</time>
      </trkpt>
      <trkpt lat="49.82615" lon="2.38872">
        <ele>55.6</ele>
        <time>2021-07-11T14:55:34Z</time>
      </trkpt>
      <trkpt lat="49.82615" lon="2.38872">
        <ele>55.6</ele>
        <time>2021-07-11T14:55:35Z</time>
      </trkpt>
      <trkpt lat="49.82615" lon="2.38873">
        <ele>55.6</ele>
        <time>2021-07-11T14:55:36Z</time>
      </trkpt>
      <trkpt lat="49.82616" lon="2.38872">
        <ele>55.7</ele>
        <time>2021-07-11T14:55:37Z</time>
      </trkpt>
      <trkpt lat="49.82617" lon="2.38872">
        <ele>55.8</ele>
        <time>2021-07-11T14:55:39Z</time>
      </trkpt>
      <trkpt lat="49.82618" lon="2.38871">
        <ele>55.8</ele>
        <time>2021-07-11T14:55:40Z</time>
      </trkpt>
      <trkpt lat="49.82619" lon="2.38871">
        <ele>55.9</ele>
        <time>2021-07-11T14:55:41Z</time>
      </trkpt>
      <trkpt lat="49.8262" lon="2.3887">
        <ele>55.9</ele>
        <time>2021-07-11T14:55:42Z</time>
      </trkpt>
      <trkpt lat="49.82622" lon="2.38869">
        <ele>56</ele>
        <time>2021-07-11T14:55:44Z</time>
      </trkpt>
      <trkpt lat="49.82623" lon="2.38869">
        <ele>56.1</ele>
        <time>2021-07-11T14:55:45Z</time>
      </trkpt>
      <trkpt lat="49.82625" lon="2.38868">
        <ele>56.2</ele>
        <time>2021-07-11T14:55:47Z</time>
      </trkpt>
      <trkpt lat="49.82627" lon="2.38867">
        <ele>56.3</ele>
        <time>2021-07-11T14:55:48Z</time>
      </trkpt>
      <trkpt lat="49.82628" lon="2.38867">
        <ele>56.3</ele>
        <time>2021-07-11T14:55:49Z</time>
      </trkpt>
      <trkpt lat="49.82629" lon="2.38867">
        <ele>56.4</ele>
        <time>2021-07-11T14:55:50Z</time>
      </trkpt>
      <trkpt lat="49.8263" lon="2.38866">
        <ele>56.4</ele>
        <time>2021-07-11T14:55:52Z</time>
      </trkpt>
      <trkpt lat="49.82631" lon="2.38866">
        <ele>56.5</ele>
        <time>2021-07-11T14:55:53Z</time>
      </trkpt>
      <trkpt lat="49.82632" lon="2.38866">
        <ele>56.5</ele>
        <time>2021-07-11T14:55:54Z</time>
      </trkpt>
      <trkpt lat="49.82635" lon="2.38865">
        <ele>56.7</ele>
        <time>2021-07-11T14:55:55Z</time>
      </trkpt>
      <trkpt lat="49.82636" lon="2.38864">
        <ele>56.7</ele>
        <time>2021-07-11T14:55:57Z</time>
      </trkpt>
      <trkpt lat="49.82637" lon="2.38864">
        <ele>56.8</ele>
        <time>2021-07-11T14:55:58Z</time>
      </trkpt>
      <trkpt lat="49.82638" lon="2.38863">
        <ele>56.8</ele>
        <time>2021-07-11T14:55:59Z</time>
      </trkpt>
      <trkpt lat="49.82639" lon="2.38863">
        <ele>56.9</ele>
        <time>2021-07-11T14:56:00Z</time>
      </trkpt>
      <trkpt lat="49.8264" lon="2.38863">
        <ele>56.9</ele>
        <time>2021-07-11T14:56:01Z</time>
      </trkpt>
      <trkpt lat="49.8264" lon="2.38863">
        <ele>56.9</ele>
        <time>2021-07-11T14:56:03Z</time>
      </trkpt>
      <trkpt lat="49.82641" lon="2.38862">
        <ele>56.9</ele>
        <time>2021-07-11T14:56:04Z</time>
      </trkpt>
      <trkpt lat="49.82641" lon="2.38861">
        <ele>57</ele>
        <time>2021-07-11T14:56:05Z</time>
      </trkpt>
      <trkpt lat="49.82642" lon="2.38861">
        <ele>57</ele>
        <time>2021-07-11T14:56:06Z</time>
      </trkpt>
      <trkpt lat="49.82643" lon="2.38861">
        <ele>57.1</ele>
        <time>2021-07-11T14:56:08Z</time>
      </trkpt>
      <trkpt lat="49.82644" lon="2.3886">
        <ele>57.1</ele>
        <time>2021-07-11T14:56:09Z</time>
      </trkpt>
      <trkpt lat="49.82644" lon="2.3886">
        <ele>57.1</ele>
        <time>2021-07-11T14:56:10Z</time>
      </trkpt>
      <trkpt lat="49.82645" lon="2.38859">
        <ele>57.2</ele>
        <time>2021-07-11T14:56:11Z</time>
      </trkpt>
      <trkpt lat="49.82646" lon="2.38858">
        <ele>57.3</ele>
        <time>2021-07-11T14:56:12Z</time>
      </trkpt>
      <trkpt lat="49.82648" lon="2.38858">
        <ele>57.3</ele>
        <time>2021-07-11T14:56:14Z</time>
      </trkpt>
      <trkpt lat="49.82649" lon="2.38857">
        <ele>57.4</ele>
        <time>2021-07-11T14:56:15Z</time>
      </trkpt>
      <trkpt lat="49.82651" lon="2.38856">
        <ele>57.5</ele>
        <time>2021-07-11T14:56:16Z</time>
      </trkpt>
      <trkpt lat="49.82652" lon="2.38856">
        <ele>57.5</ele>
        <time>2021-07-11T14:56:17Z</time>
      </trkpt>
      <trkpt lat="49.82653" lon="2.38855">
        <ele>57.6</ele>
        <time>2021-07-11T14:56:19Z</time>
      </trkpt>
      <trkpt lat="49.82654" lon="2.38854">
        <ele>57.6</ele>
        <time>2021-07-11T14:56:20Z</time>
      </trkpt>
      <trkpt lat="49.82655" lon="2.38854">
        <ele>57.7</ele>
        <time>2021-07-11T14:56:21Z</time>
      </trkpt>
      <trkpt lat="49.82656" lon="2.38853">
        <ele>57.7</ele>
        <time>2021-07-11T14:56:22Z</time>
      </trkpt>
      <trkpt lat="49.82658" lon="2.38853">
        <ele>57.8</ele>
        <time>2021-07-11T14:56:24Z</time>
      </trkpt>
      <trkpt lat="49.82659" lon="2.38852">
        <ele>57.9</ele>
        <time>2021-07-11T14:56:25Z</time>
      </trkpt>
      <trkpt lat="49.82661" lon="2.38852">
        <ele>57.9</ele>
        <time>2021-07-11T14:56:26Z</time>
      </trkpt>
      <trkpt lat="49.82662" lon="2.38851">
        <ele>58</ele>
        <time>2021-07-11T14:56:27Z</time>
      </trkpt>
      <trkpt lat="49.82663" lon="2.38851">
        <ele>58</ele>
        <time>2021-07-11T14:56:28Z</time>
      </trkpt>
      <trkpt lat="49.82664" lon="2.38851">
        <ele>58.1</ele>
        <time>2021-07-11T14:56:30Z</time>
      </trkpt>
      <trkpt lat="49.82665" lon="2.38851">
        <ele>58.1</ele>
        <time>2021-07-11T14:56:31Z</time>
      </trkpt>
      <trkpt lat="49.82667" lon="2.38851">
        <ele>58.2</ele>
        <time>2021-07-11T14:56:32Z</time>
      </trkpt>
      <trkpt lat="49.82668" lon="2.38851">
        <ele>58.2</ele>
        <time>2021-07-11T14:56:33Z</time>
      </trkpt>
      <trkpt lat="49.82669" lon="2.38851">
        <ele>58.3</ele>
        <time>2021-07-11T14:56:34Z</time>
      </trkpt>
      <trkpt lat="49.8267" lon="2.3885">
        <ele>58.3</ele>
        <time>2021-07-11T14:56:36Z</time>
      </trkpt>
      <trkpt lat="49.82672" lon="2.3885">
        <ele>58.4</ele>
        <time>2021-07-11T14:56:37Z</time>
      </trkpt>
      <trkpt lat="49.82673" lon="2.38849">
        <ele>58.4</ele>
        <time>2021-07-11T14:56:38Z</time>
      </trkpt>
      <trkpt lat="49.82676" lon="2.38849">
        <ele>58.5</ele>
        <time>2021-07-11T14:56:39Z</time>
      </trkpt>
      <trkpt lat="49.82677" lon="2.38849">
        <ele>58.6</ele>
        <time>2021-07-11T14:56:41Z</time>
      </trkpt>
      <trkpt lat="49.82678" lon="2.38849">
        <ele>58.6</ele>
        <time>2021-07-11T14:56:42Z</time>
      </trkpt>
      <trkpt lat="49.82679" lon="2.38849">
        <ele>58.6</ele>
        <time>2021-07-11T14:56:43Z</time>
      </trkpt>
      <trkpt lat="49.8268" lon="2.38849">
        <ele>58.7</ele>
        <time>2021-07-11T14:56:44Z</time>
      </trkpt>
      <trkpt lat="49.82682" lon="2.38849">
        <ele>58.8</ele>
        <time>2021-07-11T14:56:45Z</time>
      </trkpt>
      <trkpt lat="49.82683" lon="2.3885">
        <ele>58.8</ele>
        <time>2021-07-11T14:56:47Z</time>
      </trkpt>
      <trkpt lat="49.82683" lon="2.3885">
        <ele>58.8</ele>
        <time>2021-07-11T14:56:48Z</time>
      </trkpt>
      <trkpt lat="49.82684" lon="2.3885">
        <ele>58.8</ele>
        <time>2021-07-11T14:56:50Z</time>
      </trkpt>
      <trkpt lat="49.82685" lon="2.3885">
        <ele>58.9</ele>
        <time>2021-07-11T14:56:52Z</time>
      </trkpt>
      <trkpt lat="49.82685" lon="2.3885">
        <ele>58.9</ele>
        <time>2021-07-11T14:56:54Z</time>
      </trkpt>
      <trkpt lat="49.82686" lon="2.3885">
        <ele>58.9</ele>
        <time>2021-07-11T14:56:55Z</time>
      </trkpt>
      <trkpt lat="49.82687" lon="2.3885">
        <ele>58.9</ele>
        <time>2021-07-11T14:56:56Z</time>
      </trkpt>
      <trkpt lat="49.82687" lon="2.3885">
        <ele>59</ele>
        <time>2021-07-11T14:56:58Z</time>
      </trkpt>
      <trkpt lat="49.82688" lon="2.3885">
        <ele>59</ele>
        <time>2021-07-11T14:56:59Z</time>
      </trkpt>
      <trkpt lat="49.82688" lon="2.3885">
        <ele>59</ele>
        <time>2021-07-11T14:57:00Z</time>
      </trkpt>
      <trkpt lat="49.82689" lon="2.3885">
        <ele>59</ele>
        <time>2021-07-11T14:57:02Z</time>
      </trkpt>
      <trkpt lat="49.8269" lon="2.3885">
        <ele>59.1</ele>
        <time>2021-07-11T14:57:03Z</time>
      </trkpt>
      <trkpt lat="49.8269" lon="2.38851">
        <ele>59.1</ele>
        <time>2021-07-11T14:57:04Z</time>
      </trkpt>
      <trkpt lat="49.82691" lon="2.38851">
        <ele>59.1</ele>
        <time>2021-07-11T14:57:06Z</time>
      </trkpt>
      <trkpt lat="49.82692" lon="2.38851">
        <ele>59.1</ele>
        <time>2021-07-11T14:57:07Z</time>
      </trkpt>
      <trkpt lat="49.82692" lon="2.38851">
        <ele>59.2</ele>
        <time>2021-07-11T14:57:09Z</time>
      </trkpt>
      <trkpt lat="49.82693" lon="2.38851">
        <ele>59.2</ele>
        <time>2021-07-11T14:57:10Z</time>
      </trkpt>
      <trkpt lat="49.82695" lon="2.3885">
        <ele>59.3</ele>
        <time>2021-07-11T14:57:11Z</time>
      </trkpt>
      <trkpt lat="49.82696" lon="2.3885">
        <ele>59.3</ele>
        <time>2021-07-11T14:57:13Z</time>
      </trkpt>
      <trkpt lat="49.82697" lon="2.38849">
        <ele>59.3</ele>
        <time>2021-07-11T14:57:14Z</time>
      </trkpt>
      <trkpt lat="49.82698" lon="2.38849">
        <ele>59.4</ele>
        <time>2021-07-11T14:57:15Z</time>
      </trkpt>
      <trkpt lat="49.827" lon="2.38848">
        <ele>59.5</ele>
        <time>2021-07-11T14:57:16Z</time>
      </trkpt>
      <trkpt lat="49.82701" lon="2.38847">
        <ele>59.5</ele>
        <time>2021-07-11T14:57:18Z</time>
      </trkpt>
      <trkpt lat="49.82703" lon="2.38846">
        <ele>59.6</ele>
        <time>2021-07-11T14:57:19Z</time>
      </trkpt>
      <trkpt lat="49.82706" lon="2.38845">
        <ele>59.7</ele>
        <time>2021-07-11T14:57:21Z</time>
      </trkpt>
      <trkpt lat="49.82707" lon="2.38844">
        <ele>59.8</ele>
        <time>2021-07-11T14:57:22Z</time>
      </trkpt>
      <trkpt lat="49.8271" lon="2.38843">
        <ele>59.9</ele>
        <time>2021-07-11T14:57:23Z</time>
      </trkpt>
      <trkpt lat="49.82711" lon="2.38843">
        <ele>59.9</ele>
        <time>2021-07-11T14:57:24Z</time>
      </trkpt>
      <trkpt lat="49.82714" lon="2.38842">
        <ele>60.1</ele>
        <time>2021-07-11T14:57:26Z</time>
      </trkpt>
      <trkpt lat="49.82715" lon="2.38842">
        <ele>60.1</ele>
        <time>2021-07-11T14:57:27Z</time>
      </trkpt>
      <trkpt lat="49.82716" lon="2.38841">
        <ele>60.2</ele>
        <time>2021-07-11T14:57:28Z</time>
      </trkpt>
      <trkpt lat="49.82717" lon="2.3884">
        <ele>60.2</ele>
        <time>2021-07-11T14:57:30Z</time>
      </trkpt>
      <trkpt lat="49.82719" lon="2.38839">
        <ele>60.3</ele>
        <time>2021-07-11T14:57:31Z</time>
      </trkpt>
      <trkpt lat="49.8272" lon="2.38839">
        <ele>60.3</ele>
        <time>2021-07-11T14:57:32Z</time>
      </trkpt>
      <trkpt lat="49.82721" lon="2.38838">
        <ele>60.3</ele>
        <time>2021-07-11T14:57:33Z</time>
      </trkpt>
      <trkpt lat="49.82722" lon="2.38838">
        <ele>60.4</ele>
        <time>2021-07-11T14:57:35Z</time>
      </trkpt>
      <trkpt lat="49.82724" lon="2.38837">
        <ele>60.5</ele>
        <time>2021-07-11T14:57:36Z</time>
      </trkpt>
      <trkpt lat="49.82724" lon="2.38836">
        <ele>60.5</ele>
        <time>2021-07-11T14:57:37Z</time>
      </trkpt>
      <trkpt lat="49.82725" lon="2.38835">
        <ele>60.5</ele>
        <time>2021-07-11T14:57:38Z</time>
      </trkpt>
      <trkpt lat="49.82726" lon="2.38835">
        <ele>60.6</ele>
        <time>2021-07-11T14:57:40Z</time>
      </trkpt>
      <trkpt lat="49.82727" lon="2.38834">
        <ele>60.6</ele>
        <time>2021-07-11T14:57:41Z</time>
      </trkpt>
      <trkpt lat="49.82729" lon="2.38834">
        <ele>60.7</ele>
        <time>2021-07-11T14:57:42Z</time>
      </trkpt>
      <trkpt lat="49.82731" lon="2.38832">
        <ele>60.7</ele>
        <time>2021-07-11T14:57:44Z</time>
      </trkpt>
      <trkpt lat="49.82732" lon="2.38832">
        <ele>60.8</ele>
        <time>2021-07-11T14:57:45Z</time>
      </trkpt>
      <trkpt lat="49.82733" lon="2.38831">
        <ele>60.8</ele>
        <time>2021-07-11T14:57:46Z</time>
      </trkpt>
      <trkpt lat="49.82735" lon="2.3883">
        <ele>60.9</ele>
        <time>2021-07-11T14:57:47Z</time>
      </trkpt>
      <trkpt lat="49.82736" lon="2.38829">
        <ele>61</ele>
        <time>2021-07-11T14:57:49Z</time>
      </trkpt>
      <trkpt lat="49.82737" lon="2.38828">
        <ele>61</ele>
        <time>2021-07-11T14:57:50Z</time>
      </trkpt>
      <trkpt lat="49.82738" lon="2.38827">
        <ele>61</ele>
        <time>2021-07-11T14:57:51Z</time>
      </trkpt>
      <trkpt lat="49.82738" lon="2.38827">
        <ele>61.1</ele>
        <time>2021-07-11T14:57:52Z</time>
      </trkpt>
      <trkpt lat="49.82739" lon="2.38826">
        <ele>61.1</ele>
        <time>2021-07-11T14:57:53Z</time>
      </trkpt>
      <trkpt lat="49.8274" lon="2.38825">
        <ele>61.1</ele>
        <time>2021-07-11T14:57:55Z</time>
      </trkpt>
      <trkpt lat="49.8274" lon="2.38824">
        <ele>61.2</ele>
        <time>2021-07-11T14:57:56Z</time>
      </trkpt>
      <trkpt lat="49.82741" lon="2.38823">
        <ele>61.2</ele>
        <time>2021-07-11T14:57:57Z</time>
      </trkpt>
      <trkpt lat="49.82741" lon="2.38823">
        <ele>61.2</ele>
        <time>2021-07-11T14:57:58Z</time>
      </trkpt>
      <trkpt lat="49.82742" lon="2.38822">
        <ele>61.2</ele>
        <time>2021-07-11T14:58:00Z</time>
      </trkpt>
      <trkpt lat="49.82743" lon="2.38822">
        <ele>61.3</ele>
        <time>2021-07-11T14:58:01Z</time>
      </trkpt>
      <trkpt lat="49.82744" lon="2.38821">
        <ele>61.3</ele>
        <time>2021-07-11T14:58:02Z</time>
      </trkpt>
      <trkpt lat="49.82745" lon="2.3882">
        <ele>61.4</ele>
        <time>2021-07-11T14:58:03Z</time>
      </trkpt>
      <trkpt lat="49.82746" lon="2.38819">
        <ele>61.4</ele>
        <time>2021-07-11T14:58:04Z</time>
      </trkpt>
      <trkpt lat="49.82748" lon="2.38819">
        <ele>61.5</ele>
        <time>2021-07-11T14:58:06Z</time>
      </trkpt>
      <trkpt lat="49.82749" lon="2.38817">
        <ele>61.6</ele>
        <time>2021-07-11T14:58:07Z</time>
      </trkpt>
      <trkpt lat="49.8275" lon="2.38817">
        <ele>61.6</ele>
        <time>2021-07-11T14:58:08Z</time>
      </trkpt>
      <trkpt lat="49.82751" lon="2.38816">
        <ele>61.6</ele>
        <time>2021-07-11T14:58:09Z</time>
      </trkpt>
      <trkpt lat="49.82752" lon="2.38815">
        <ele>61.7</ele>
        <time>2021-07-11T14:58:10Z</time>
      </trkpt>
      <trkpt lat="49.82753" lon="2.38815">
        <ele>61.7</ele>
        <time>2021-07-11T14:58:12Z</time>
      </trkpt>
      <trkpt lat="49.82754" lon="2.38814">
        <ele>61.8</ele>
        <time>2021-07-11T14:58:13Z</time>
      </trkpt>
      <trkpt lat="49.82756" lon="2.38813">
        <ele>61.8</ele>
        <time>2021-07-11T14:58:15Z</time>
      </trkpt>
      <trkpt lat="49.82757" lon="2.38812">
        <ele>61.9</ele>
        <time>2021-07-11T14:58:16Z</time>
      </trkpt>
      <trkpt lat="49.82757" lon="2.38812">
        <ele>61.9</ele>
        <time>2021-07-11T14:58:17Z</time>
      </trkpt>
      <trkpt lat="49.82758" lon="2.38811">
        <ele>62</ele>
        <time>2021-07-11T14:58:18Z</time>
      </trkpt>
      <trkpt lat="49.8276" lon="2.3881">
        <ele>62</ele>
        <time>2021-07-11T14:58:20Z</time>
      </trkpt>
      <trkpt lat="49.82761" lon="2.38809">
        <ele>62.1</ele>
        <time>2021-07-11T14:58:21Z</time>
      </trkpt>
      <trkpt lat="49.82762" lon="2.38808">
        <ele>62.1</ele>
        <time>2021-07-11T14:58:22Z</time>
      </trkpt>
      <trkpt lat="49.82763" lon="2.38808">
        <ele>62.2</ele>
        <time>2021-07-11T14:58:23Z</time>
      </trkpt>
      <trkpt lat="49.82764" lon="2.38807">
        <ele>62.2</ele>
        <time>2021-07-11T14:58:24Z</time>
      </trkpt>
      <trkpt lat="49.82765" lon="2.38806">
        <ele>62.3</ele>
        <time>2021-07-11T14:58:26Z</time>
      </trkpt>
      <trkpt lat="49.82766" lon="2.38805">
        <ele>62.3</ele>
        <time>2021-07-11T14:58:27Z</time>
      </trkpt>
      <trkpt lat="49.82767" lon="2.38804">
        <ele>62.3</ele>
        <time>2021-07-11T14:58:28Z</time>
      </trkpt>
      <trkpt lat="49.82768" lon="2.38804">
        <ele>62.4</ele>
        <time>2021-07-11T14:58:29Z</time>
      </trkpt>
      <trkpt lat="49.82769" lon="2.38803">
        <ele>62.4</ele>
        <time>2021-07-11T14:58:30Z</time>
      </trkpt>
      <trkpt lat="49.8277" lon="2.38802">
        <ele>62.5</ele>
        <time>2021-07-11T14:58:32Z</time>
      </trkpt>
      <trkpt lat="49.82771" lon="2.38801">
        <ele>62.5</ele>
        <time>2021-07-11T14:58:33Z</time>
      </trkpt>
      <trkpt lat="49.82772" lon="2.38801">
        <ele>62.6</ele>
        <time>2021-07-11T14:58:34Z</time>
      </trkpt>
      <trkpt lat="49.82773" lon="2.38801">
        <ele>62.6</ele>
        <time>2021-07-11T14:58:36Z</time>
      </trkpt>
      <trkpt lat="49.82773" lon="2.38801">
        <ele>62.6</ele>
        <time>2021-07-11T14:58:37Z</time>
      </trkpt>
      <trkpt lat="49.82774" lon="2.388">
        <ele>62.7</ele>
        <time>2021-07-11T14:58:39Z</time>
      </trkpt>
      <trkpt lat="49.82775" lon="2.38799">
        <ele>62.7</ele>
        <time>2021-07-11T14:58:40Z</time>
      </trkpt>
      <trkpt lat="49.82777" lon="2.38798">
        <ele>62.8</ele>
        <time>2021-07-11T14:58:41Z</time>
      </trkpt>
      <trkpt lat="49.82778" lon="2.38797">
        <ele>62.8</ele>
        <time>2021-07-11T14:58:42Z</time>
      </trkpt>
      <trkpt lat="49.8278" lon="2.38795">
        <ele>62.9</ele>
        <time>2021-07-11T14:58:44Z</time>
      </trkpt>
      <trkpt lat="49.82781" lon="2.38795">
        <ele>62.9</ele>
        <time>2021-07-11T14:58:45Z</time>
      </trkpt>
      <trkpt lat="49.82781" lon="2.38794">
        <ele>63</ele>
        <time>2021-07-11T14:58:46Z</time>
      </trkpt>
      <trkpt lat="49.82783" lon="2.38792">
        <ele>63</ele>
        <time>2021-07-11T14:58:48Z</time>
      </trkpt>
      <trkpt lat="49.82784" lon="2.38791">
        <ele>63.1</ele>
        <time>2021-07-11T14:58:49Z</time>
      </trkpt>
      <trkpt lat="49.82785" lon="2.3879">
        <ele>63.1</ele>
        <time>2021-07-11T14:58:50Z</time>
      </trkpt>
      <trkpt lat="49.82786" lon="2.38789">
        <ele>63.2</ele>
        <time>2021-07-11T14:58:51Z</time>
      </trkpt>
      <trkpt lat="49.82787" lon="2.38788">
        <ele>63.2</ele>
        <time>2021-07-11T14:58:52Z</time>
      </trkpt>
      <trkpt lat="49.82788" lon="2.38787">
        <ele>63.3</ele>
        <time>2021-07-11T14:58:54Z</time>
      </trkpt>
      <trkpt lat="49.82789" lon="2.38787">
        <ele>63.3</ele>
        <time>2021-07-11T14:58:55Z</time>
      </trkpt>
      <trkpt lat="49.8279" lon="2.38786">
        <ele>63.4</ele>
        <time>2021-07-11T14:58:56Z</time>
      </trkpt>
      <trkpt lat="49.82791" lon="2.38784">
        <ele>63.4</ele>
        <time>2021-07-11T14:58:57Z</time>
      </trkpt>
      <trkpt lat="49.82792" lon="2.38784">
        <ele>63.5</ele>
        <time>2021-07-11T14:58:58Z</time>
      </trkpt>
      <trkpt lat="49.82793" lon="2.38783">
        <ele>63.5</ele>
        <time>2021-07-11T14:59:00Z</time>
      </trkpt>
      <trkpt lat="49.82794" lon="2.38783">
        <ele>63.5</ele>
        <time>2021-07-11T14:59:01Z</time>
      </trkpt>
      <trkpt lat="49.82794" lon="2.38782">
        <ele>63.5</ele>
        <time>2021-07-11T14:59:03Z</time>
      </trkpt>
      <trkpt lat="49.82795" lon="2.38782">
        <ele>63.6</ele>
        <time>2021-07-11T14:59:04Z</time>
      </trkpt>
      <trkpt lat="49.82796" lon="2.38781">
        <ele>63.6</ele>
        <time>2021-07-11T14:59:05Z</time>
      </trkpt>
      <trkpt lat="49.82797" lon="2.3878">
        <ele>63.6</ele>
        <time>2021-07-11T14:59:06Z</time>
      </trkpt>
      <trkpt lat="49.82798" lon="2.38779">
        <ele>63.7</ele>
        <time>2021-07-11T14:59:07Z</time>
      </trkpt>
      <trkpt lat="49.828" lon="2.38778">
        <ele>63.8</ele>
        <time>2021-07-11T14:59:09Z</time>
      </trkpt>
      <trkpt lat="49.82801" lon="2.38777">
        <ele>63.9</ele>
        <time>2021-07-11T14:59:10Z</time>
      </trkpt>
      <trkpt lat="49.82802" lon="2.38776">
        <ele>63.9</ele>
        <time>2021-07-11T14:59:11Z</time>
      </trkpt>
      <trkpt lat="49.82803" lon="2.38774">
        <ele>64</ele>
        <time>2021-07-11T14:59:12Z</time>
      </trkpt>
      <trkpt lat="49.82804" lon="2.38772">
        <ele>64</ele>
        <time>2021-07-11T14:59:13Z</time>
      </trkpt>
      <trkpt lat="49.82805" lon="2.3877">
        <ele>64.1</ele>
        <time>2021-07-11T14:59:14Z</time>
      </trkpt>
      <trkpt lat="49.82805" lon="2.38769">
        <ele>64.1</ele>
        <time>2021-07-11T14:59:16Z</time>
      </trkpt>
      <trkpt lat="49.82805" lon="2.38768">
        <ele>64.2</ele>
        <time>2021-07-11T14:59:17Z</time>
      </trkpt>
      <trkpt lat="49.82806" lon="2.38768">
        <ele>64.2</ele>
        <time>2021-07-11T14:59:18Z</time>
      </trkpt>
      <trkpt lat="49.82807" lon="2.38768">
        <ele>64.3</ele>
        <time>2021-07-11T14:59:19Z</time>
      </trkpt>
      <trkpt lat="49.82808" lon="2.38768">
        <ele>64.3</ele>
        <time>2021-07-11T14:59:21Z</time>
      </trkpt>
      <trkpt lat="49.8281" lon="2.38768">
        <ele>64.4</ele>
        <time>2021-07-11T14:59:22Z</time>
      </trkpt>
      <trkpt lat="49.82811" lon="2.38768">
        <ele>64.4</ele>
        <time>2021-07-11T14:59:23Z</time>
      </trkpt>
      <trkpt lat="49.82812" lon="2.38769">
        <ele>64.5</ele>
        <time>2021-07-11T14:59:24Z</time>
      </trkpt>
      <trkpt lat="49.82813" lon="2.38769">
        <ele>64.5</ele>
        <time>2021-07-11T14:59:25Z</time>
      </trkpt>
      <trkpt lat="49.82814" lon="2.38768">
        <ele>64.6</ele>
        <time>2021-07-11T14:59:27Z</time>
      </trkpt>
      <trkpt lat="49.82815" lon="2.38768">
        <ele>64.6</ele>
        <time>2021-07-11T14:59:28Z</time>
      </trkpt>
      <trkpt lat="49.82817" lon="2.38768">
        <ele>64.7</ele>
        <time>2021-07-11T14:59:29Z</time>
      </trkpt>
      <trkpt lat="49.82818" lon="2.38768">
        <ele>64.7</ele>
        <time>2021-07-11T14:59:30Z</time>
      </trkpt>
      <trkpt lat="49.82819" lon="2.38769">
        <ele>64.8</ele>
        <time>2021-07-11T14:59:32Z</time>
      </trkpt>
      <trkpt lat="49.82821" lon="2.38769">
        <ele>64.9</ele>
        <time>2021-07-11T14:59:33Z</time>
      </trkpt>
      <trkpt lat="49.82823" lon="2.38769">
        <ele>65</ele>
        <time>2021-07-11T14:59:35Z</time>
      </trkpt>
      <trkpt lat="49.82825" lon="2.3877">
        <ele>65.1</ele>
        <time>2021-07-11T14:59:36Z</time>
      </trkpt>
      <trkpt lat="49.82826" lon="2.38771">
        <ele>65.1</ele>
        <time>2021-07-11T14:59:37Z</time>
      </trkpt>
      <trkpt lat="49.82827" lon="2.38771">
        <ele>65.2</ele>
        <time>2021-07-11T14:59:38Z</time>
      </trkpt>
      <trkpt lat="49.82828" lon="2.38771">
        <ele>65.2</ele>
        <time>2021-07-11T14:59:40Z</time>
      </trkpt>
      <trkpt lat="49.82829" lon="2.38771">
        <ele>65.3</ele>
        <time>2021-07-11T14:59:41Z</time>
      </trkpt>
      <trkpt lat="49.8283" lon="2.38771">
        <ele>65.3</ele>
        <time>2021-07-11T14:59:42Z</time>
      </trkpt>
      <trkpt lat="49.82831" lon="2.38771">
        <ele>65.4</ele>
        <time>2021-07-11T14:59:43Z</time>
      </trkpt>
      <trkpt lat="49.82832" lon="2.38772">
        <ele>65.4</ele>
        <time>2021-07-11T14:59:44Z</time>
      </trkpt>
      <trkpt lat="49.82833" lon="2.38772">
        <ele>65.5</ele>
        <time>2021-07-11T14:59:45Z</time>
      </trkpt>
      <trkpt lat="49.82834" lon="2.38771">
        <ele>65.6</ele>
        <time>2021-07-11T14:59:47Z</time>
      </trkpt>
      <trkpt lat="49.82835" lon="2.38771">
        <ele>65.6</ele>
        <time>2021-07-11T14:59:48Z</time>
      </trkpt>
      <trkpt lat="49.82834" lon="2.3877">
        <ele>65.7</ele>
        <time>2021-07-11T14:59:49Z</time>
      </trkpt>
      <trkpt lat="49.82834" lon="2.3877">
        <ele>65.7</ele>
        <time>2021-07-11T14:59:50Z</time>
      </trkpt>
      <trkpt lat="49.82835" lon="2.3877">
        <ele>65.7</ele>
        <time>2021-07-11T14:59:52Z</time>
      </trkpt>
      <trkpt lat="49.82836" lon="2.38771">
        <ele>65.8</ele>
        <time>2021-07-11T14:59:53Z</time>
      </trkpt>
      <trkpt lat="49.82838" lon="2.38771">
        <ele>65.9</ele>
        <time>2021-07-11T14:59:55Z</time>
      </trkpt>
      <trkpt lat="49.82838" lon="2.38771">
        <ele>65.9</ele>
        <time>2021-07-11T14:59:56Z</time>
      </trkpt>
      <trkpt lat="49.82839" lon="2.38771">
        <ele>66</ele>
        <time>2021-07-11T14:59:57Z</time>
      </trkpt>
      <trkpt lat="49.82841" lon="2.38771">
        <ele>66</ele>
        <time>2021-07-11T14:59:58Z</time>
      </trkpt>
      <trkpt lat="49.82842" lon="2.38771">
        <ele>66.1</ele>
        <time>2021-07-11T15:00:00Z</time>
      </trkpt>
      <trkpt lat="49.82843" lon="2.38771">
        <ele>66.2</ele>
        <time>2021-07-11T15:00:01Z</time>
      </trkpt>
      <trkpt lat="49.82844" lon="2.38771">
        <ele>66.2</ele>
        <time>2021-07-11T15:00:02Z</time>
      </trkpt>
      <trkpt lat="49.82844" lon="2.38771">
        <ele>66.2</ele>
        <time>2021-07-11T15:00:03Z</time>
      </trkpt>
      <trkpt lat="49.82844" lon="2.38771">
        <ele>66.3</ele>
        <time>2021-07-11T15:00:05Z</time>
      </trkpt>
      <trkpt lat="49.82845" lon="2.38772">
        <ele>66.3</ele>
        <time>2021-07-11T15:00:06Z</time>
      </trkpt>
      <trkpt lat="49.82846" lon="2.38772">
        <ele>66.4</ele>
        <time>2021-07-11T15:00:07Z</time>
      </trkpt>
      <trkpt lat="49.82847" lon="2.38772">
        <ele>66.4</ele>
        <time>2021-07-11T15:00:09Z</time>
      </trkpt>
      <trkpt lat="49.82848" lon="2.38772">
        <ele>66.5</ele>
        <time>2021-07-11T15:00:11Z</time>
      </trkpt>
      <trkpt lat="49.82849" lon="2.38772">
        <ele>66.5</ele>
        <time>2021-07-11T15:00:12Z</time>
      </trkpt>
      <trkpt lat="49.82851" lon="2.38771">
        <ele>66.6</ele>
        <time>2021-07-11T15:00:13Z</time>
      </trkpt>
      <trkpt lat="49.82852" lon="2.38771">
        <ele>66.7</ele>
        <time>2021-07-11T15:00:14Z</time>
      </trkpt>
      <trkpt lat="49.82853" lon="2.38771">
        <ele>66.8</ele>
        <time>2021-07-11T15:00:16Z</time>
      </trkpt>
      <trkpt lat="49.82855" lon="2.3877">
        <ele>66.8</ele>
        <time>2021-07-11T15:00:17Z</time>
      </trkpt>
      <trkpt lat="49.82856" lon="2.3877">
        <ele>66.9</ele>
        <time>2021-07-11T15:00:18Z</time>
      </trkpt>
      <trkpt lat="49.82854" lon="2.3877">
        <ele>66.9</ele>
        <time>2021-07-11T15:00:19Z</time>
      </trkpt>
      <trkpt lat="49.82852" lon="2.38769">
        <ele>67</ele>
        <time>2021-07-11T15:00:20Z</time>
      </trkpt>
      <trkpt lat="49.82852" lon="2.38769">
        <ele>67</ele>
        <time>2021-07-11T15:00:22Z</time>
      </trkpt>
      <trkpt lat="49.82853" lon="2.38769">
        <ele>67.1</ele>
        <time>2021-07-11T15:00:23Z</time>
      </trkpt>
      <trkpt lat="49.82854" lon="2.38768">
        <ele>67.1</ele>
        <time>2021-07-11T15:00:24Z</time>
      </trkpt>
      <trkpt lat="49.82855" lon="2.38767">
        <ele>67.2</ele>
        <time>2021-07-11T15:00:25Z</time>
      </trkpt>
      <trkpt lat="49.82857" lon="2.38767">
        <ele>67.3</ele>
        <time>2021-07-11T15:00:27Z</time>
      </trkpt>
      <trkpt lat="49.82858" lon="2.38767">
        <ele>67.3</ele>
        <time>2021-07-11T15:00:28Z</time>
      </trkpt>
      <trkpt lat="49.82859" lon="2.38767">
        <ele>67.4</ele>
        <time>2021-07-11T15:00:29Z</time>
      </trkpt>
      <trkpt lat="49.82861" lon="2.38767">
        <ele>67.5</ele>
        <time>2021-07-11T15:00:30Z</time>
      </trkpt>
      <trkpt lat="49.82862" lon="2.38767">
        <ele>67.5</ele>
        <time>2021-07-11T15:00:31Z</time>
      </trkpt>
      <trkpt lat="49.82864" lon="2.38767">
        <ele>67.6</ele>
        <time>2021-07-11T15:00:33Z</time>
      </trkpt>
      <trkpt lat="49.82865" lon="2.38767">
        <ele>67.7</ele>
        <time>2021-07-11T15:00:34Z</time>
      </trkpt>
      <trkpt lat="49.82867" lon="2.38767">
        <ele>67.7</ele>
        <time>2021-07-11T15:00:35Z</time>
      </trkpt>
      <trkpt lat="49.82868" lon="2.38767">
        <ele>67.8</ele>
        <time>2021-07-11T15:00:36Z</time>
      </trkpt>
      <trkpt lat="49.8287" lon="2.38767">
        <ele>67.9</ele>
        <time>2021-07-11T15:00:37Z</time>
      </trkpt>
      <trkpt lat="49.82872" lon="2.38767">
        <ele>68</ele>
        <time>2021-07-11T15:00:39Z</time>
      </trkpt>
      <trkpt lat="49.82873" lon="2.38767">
        <ele>68</ele>
        <time>2021-07-11T15:00:40Z</time>
      </trkpt>
      <trkpt lat="49.82874" lon="2.38768">
        <ele>68</ele>
        <time>2021-07-11T15:00:41Z</time>
      </trkpt>
      <trkpt lat="49.82876" lon="2.38768">
        <ele>68.1</ele>
        <time>2021-07-11T15:00:42Z</time>
      </trkpt>
      <trkpt lat="49.82879" lon="2.38767">
        <ele>68.1</ele>
        <time>2021-07-11T15:00:44Z</time>
      </trkpt>
      <trkpt lat="49.82882" lon="2.38767">
        <ele>68.2</ele>
        <time>2021-07-11T15:00:45Z</time>
      </trkpt>
      <trkpt lat="49.82883" lon="2.38767">
        <ele>68.3</ele>
        <time>2021-07-11T15:00:46Z</time>
      </trkpt>
      <trkpt lat="49.82886" lon="2.38767">
        <ele>68.4</ele>
        <time>2021-07-11T15:00:48Z</time>
      </trkpt>
      <trkpt lat="49.82888" lon="2.38767">
        <ele>68.4</ele>
        <time>2021-07-11T15:00:49Z</time>
      </trkpt>
      <trkpt lat="49.82889" lon="2.38767">
        <ele>68.4</ele>
        <time>2021-07-11T15:00:50Z</time>
      </trkpt>
      <trkpt lat="49.82891" lon="2.38768">
        <ele>68.5</ele>
        <time>2021-07-11T15:00:51Z</time>
      </trkpt>
      <trkpt lat="49.82892" lon="2.38768">
        <ele>68.5</ele>
        <time>2021-07-11T15:00:53Z</time>
      </trkpt>
      <trkpt lat="49.82893" lon="2.38768">
        <ele>68.5</ele>
        <time>2021-07-11T15:00:54Z</time>
      </trkpt>
      <trkpt lat="49.82895" lon="2.38768">
        <ele>68.5</ele>
        <time>2021-07-11T15:00:55Z</time>
      </trkpt>
      <trkpt lat="49.82896" lon="2.38768">
        <ele>68.5</ele>
        <time>2021-07-11T15:00:56Z</time>
      </trkpt>
      <trkpt lat="49.82897" lon="2.38769">
        <ele>68.6</ele>
        <time>2021-07-11T15:00:57Z</time>
      </trkpt>
      <trkpt lat="49.82898" lon="2.38769">
        <ele>68.6</ele>
        <time>2021-07-11T15:00:59Z</time>
      </trkpt>
      <trkpt lat="49.82899" lon="2.38769">
        <ele>68.6</ele>
        <time>2021-07-11T15:01:00Z</time>
      </trkpt>
      <trkpt lat="49.829" lon="2.3877">
        <ele>68.6</ele>
        <time>2021-07-11T15:01:01Z</time>
      </trkpt>
      <trkpt lat="49.82901" lon="2.3877">
        <ele>68.6</ele>
        <time>2021-07-11T15:01:02Z</time>
      </trkpt>
      <trkpt lat="49.82901" lon="2.3877">
        <ele>68.6</ele>
        <time>2021-07-11T15:01:03Z</time>
      </trkpt>
      <trkpt lat="49.82902" lon="2.3877">
        <ele>68.6</ele>
        <time>2021-07-11T15:01:05Z</time>
      </trkpt>
      <trkpt lat="49.82904" lon="2.3877">
        <ele>68.6</ele>
        <time>2021-07-11T15:01:06Z</time>
      </trkpt>
      <trkpt lat="49.82905" lon="2.38771">
        <ele>68.6</ele>
        <time>2021-07-11T15:01:07Z</time>
      </trkpt>
      <trkpt lat="49.82906" lon="2.3877">
        <ele>68.6</ele>
        <time>2021-07-11T15:01:08Z</time>
      </trkpt>
      <trkpt lat="49.82908" lon="2.38771">
        <ele>68.6</ele>
        <time>2021-07-11T15:01:09Z</time>
      </trkpt>
      <trkpt lat="49.8291" lon="2.38771">
        <ele>68.6</ele>
        <time>2021-07-11T15:01:11Z</time>
      </trkpt>
      <trkpt lat="49.8291" lon="2.3877">
        <ele>68.6</ele>
        <time>2021-07-11T15:01:12Z</time>
      </trkpt>
      <trkpt lat="49.82911" lon="2.3877">
        <ele>68.6</ele>
        <time>2021-07-11T15:01:13Z</time>
      </trkpt>
      <trkpt lat="49.82911" lon="2.38769">
        <ele>68.6</ele>
        <time>2021-07-11T15:01:14Z</time>
      </trkpt>
      <trkpt lat="49.82912" lon="2.38769">
        <ele>68.6</ele>
        <time>2021-07-11T15:01:15Z</time>
      </trkpt>
      <trkpt lat="49.82914" lon="2.38768">
        <ele>68.5</ele>
        <time>2021-07-11T15:01:16Z</time>
      </trkpt>
      <trkpt lat="49.82915" lon="2.38768">
        <ele>68.5</ele>
        <time>2021-07-11T15:01:18Z</time>
      </trkpt>
      <trkpt lat="49.82916" lon="2.38768">
        <ele>68.5</ele>
        <time>2021-07-11T15:01:19Z</time>
      </trkpt>
      <trkpt lat="49.82917" lon="2.38767">
        <ele>68.5</ele>
        <time>2021-07-11T15:01:20Z</time>
      </trkpt>
      <trkpt lat="49.82918" lon="2.38767">
        <ele>68.5</ele>
        <time>2021-07-11T15:01:21Z</time>
      </trkpt>
      <trkpt lat="49.82919" lon="2.38767">
        <ele>68.4</ele>
        <time>2021-07-11T15:01:22Z</time>
      </trkpt>
      <trkpt lat="49.82921" lon="2.38767">
        <ele>68.4</ele>
        <time>2021-07-11T15:01:24Z</time>
      </trkpt>
      <trkpt lat="49.82922" lon="2.38767">
        <ele>68.4</ele>
        <time>2021-07-11T15:01:25Z</time>
      </trkpt>
      <trkpt lat="49.82923" lon="2.38767">
        <ele>68.4</ele>
        <time>2021-07-11T15:01:26Z</time>
      </trkpt>
      <trkpt lat="49.82924" lon="2.38767">
        <ele>68.4</ele>
        <time>2021-07-11T15:01:27Z</time>
      </trkpt>
      <trkpt lat="49.82925" lon="2.38766">
        <ele>68.3</ele>
        <time>2021-07-11T15:01:28Z</time>
      </trkpt>
      <trkpt lat="49.82926" lon="2.38765">
        <ele>68.3</ele>
        <time>2021-07-11T15:01:29Z</time>
      </trkpt>
      <trkpt lat="49.82927" lon="2.38765">
        <ele>68.3</ele>
        <time>2021-07-11T15:01:30Z</time>
      </trkpt>
      <trkpt lat="49.82928" lon="2.38765">
        <ele>68.2</ele>
        <time>2021-07-11T15:01:32Z</time>
      </trkpt>
      <trkpt lat="49.82929" lon="2.38765">
        <ele>68.2</ele>
        <time>2021-07-11T15:01:33Z</time>
      </trkpt>
      <trkpt lat="49.8293" lon="2.38764">
        <ele>68.2</ele>
        <time>2021-07-11T15:01:34Z</time>
      </trkpt>
      <trkpt lat="49.82931" lon="2.38764">
        <ele>68.2</ele>
        <time>2021-07-11T15:01:35Z</time>
      </trkpt>
      <trkpt lat="49.82932" lon="2.38764">
        <ele>68.1</ele>
        <time>2021-07-11T15:01:36Z</time>
      </trkpt>
      <trkpt lat="49.82935" lon="2.38764">
        <ele>68.1</ele>
        <time>2021-07-11T15:01:37Z</time>
      </trkpt>
      <trkpt lat="49.82935" lon="2.38764">
        <ele>68</ele>
        <time>2021-07-11T15:01:39Z</time>
      </trkpt>
      <trkpt lat="49.82936" lon="2.38764">
        <ele>68</ele>
        <time>2021-07-11T15:01:40Z</time>
      </trkpt>
      <trkpt lat="49.82938" lon="2.38762">
        <ele>68</ele>
        <time>2021-07-11T15:01:41Z</time>
      </trkpt>
      <trkpt lat="49.82939" lon="2.38762">
        <ele>67.9</ele>
        <time>2021-07-11T15:01:42Z</time>
      </trkpt>
      <trkpt lat="49.8294" lon="2.38761">
        <ele>67.9</ele>
        <time>2021-07-11T15:01:43Z</time>
      </trkpt>
      <trkpt lat="49.82942" lon="2.3876">
        <ele>67.9</ele>
        <time>2021-07-11T15:01:44Z</time>
      </trkpt>
      <trkpt lat="49.82943" lon="2.3876">
        <ele>67.8</ele>
        <time>2021-07-11T15:01:46Z</time>
      </trkpt>
      <trkpt lat="49.82944" lon="2.38759">
        <ele>67.8</ele>
        <time>2021-07-11T15:01:47Z</time>
      </trkpt>
      <trkpt lat="49.82945" lon="2.38759">
        <ele>67.8</ele>
        <time>2021-07-11T15:01:48Z</time>
      </trkpt>
      <trkpt lat="49.82946" lon="2.38759">
        <ele>67.8</ele>
        <time>2021-07-11T15:01:49Z</time>
      </trkpt>
      <trkpt lat="49.82947" lon="2.38758">
        <ele>67.7</ele>
        <time>2021-07-11T15:01:50Z</time>
      </trkpt>
      <trkpt lat="49.82948" lon="2.38758">
        <ele>67.7</ele>
        <time>2021-07-11T15:01:51Z</time>
      </trkpt>
      <trkpt lat="49.82949" lon="2.38758">
        <ele>67.7</ele>
        <time>2021-07-11T15:01:53Z</time>
      </trkpt>
      <trkpt lat="49.8295" lon="2.38757">
        <ele>67.6</ele>
        <time>2021-07-11T15:01:54Z</time>
      </trkpt>
      <trkpt lat="49.82951" lon="2.38758">
        <ele>67.6</ele>
        <time>2021-07-11T15:01:55Z</time>
      </trkpt>
      <trkpt lat="49.82952" lon="2.38758">
        <ele>67.6</ele>
        <time>2021-07-11T15:01:56Z</time>
      </trkpt>
      <trkpt lat="49.82953" lon="2.38759">
        <ele>67.5</ele>
        <time>2021-07-11T15:01:57Z</time>
      </trkpt>
      <trkpt lat="49.82954" lon="2.38759">
        <ele>67.5</ele>
        <time>2021-07-11T15:01:58Z</time>
      </trkpt>
      <trkpt lat="49.82955" lon="2.38759">
        <ele>67.5</ele>
        <time>2021-07-11T15:02:00Z</time>
      </trkpt>
      <trkpt lat="49.82955" lon="2.38759">
        <ele>67.5</ele>
        <time>2021-07-11T15:02:01Z</time>
      </trkpt>
      <trkpt lat="49.82956" lon="2.38759">
        <ele>67.4</ele>
        <time>2021-07-11T15:02:02Z</time>
      </trkpt>
      <trkpt lat="49.82957" lon="2.38758">
        <ele>67.4</ele>
        <time>2021-07-11T15:02:03Z</time>
      </trkpt>
      <trkpt lat="49.82958" lon="2.38758">
        <ele>67.4</ele>
        <time>2021-07-11T15:02:04Z</time>
      </trkpt>
      <trkpt lat="49.8296" lon="2.38758">
        <ele>67.3</ele>
        <time>2021-07-11T15:02:06Z</time>
      </trkpt>
      <trkpt lat="49.8296" lon="2.38758">
        <ele>67.3</ele>
        <time>2021-07-11T15:02:07Z</time>
      </trkpt>
      <trkpt lat="49.82961" lon="2.38759">
        <ele>67.3</ele>
        <time>2021-07-11T15:02:08Z</time>
      </trkpt>
      <trkpt lat="49.82962" lon="2.38759">
        <ele>67.2</ele>
        <time>2021-07-11T15:02:09Z</time>
      </trkpt>
      <trkpt lat="49.82964" lon="2.38759">
        <ele>67.2</ele>
        <time>2021-07-11T15:02:10Z</time>
      </trkpt>
      <trkpt lat="49.82965" lon="2.38759">
        <ele>67.1</ele>
        <time>2021-07-11T15:02:12Z</time>
      </trkpt>
      <trkpt lat="49.82966" lon="2.38759">
        <ele>67.1</ele>
        <time>2021-07-11T15:02:13Z</time>
      </trkpt>
      <trkpt lat="49.82967" lon="2.38758">
        <ele>67.1</ele>
        <time>2021-07-11T15:02:14Z</time>
      </trkpt>
      <trkpt lat="49.82969" lon="2.38757">
        <ele>67</ele>
        <time>2021-07-11T15:02:16Z</time>
      </trkpt>
      <trkpt lat="49.8297" lon="2.38756">
        <ele>67</ele>
        <time>2021-07-11T15:02:17Z</time>
      </trkpt>
      <trkpt lat="49.82972" lon="2.38755">
        <ele>66.9</ele>
        <time>2021-07-11T15:02:19Z</time>
      </trkpt>
      <trkpt lat="49.82974" lon="2.38755">
        <ele>66.8</ele>
        <time>2021-07-11T15:02:20Z</time>
      </trkpt>
      <trkpt lat="49.82976" lon="2.38754">
        <ele>66.7</ele>
        <time>2021-07-11T15:02:22Z</time>
      </trkpt>
      <trkpt lat="49.82977" lon="2.38753">
        <ele>66.6</ele>
        <time>2021-07-11T15:02:23Z</time>
      </trkpt>
      <trkpt lat="49.82978" lon="2.38753">
        <ele>66.6</ele>
        <time>2021-07-11T15:02:24Z</time>
      </trkpt>
      <trkpt lat="49.82979" lon="2.38752">
        <ele>66.5</ele>
        <time>2021-07-11T15:02:25Z</time>
      </trkpt>
      <trkpt lat="49.82981" lon="2.38751">
        <ele>66.4</ele>
        <time>2021-07-11T15:02:26Z</time>
      </trkpt>
      <trkpt lat="49.82982" lon="2.38751">
        <ele>66.4</ele>
        <time>2021-07-11T15:02:28Z</time>
      </trkpt>
      <trkpt lat="49.82983" lon="2.3875">
        <ele>66.3</ele>
        <time>2021-07-11T15:02:29Z</time>
      </trkpt>
      <trkpt lat="49.82985" lon="2.38749">
        <ele>66.1</ele>
        <time>2021-07-11T15:02:30Z</time>
      </trkpt>
      <trkpt lat="49.82987" lon="2.38748">
        <ele>66</ele>
        <time>2021-07-11T15:02:31Z</time>
      </trkpt>
      <trkpt lat="49.82988" lon="2.38747">
        <ele>65.9</ele>
        <time>2021-07-11T15:02:32Z</time>
      </trkpt>
      <trkpt lat="49.8299" lon="2.38746">
        <ele>65.8</ele>
        <time>2021-07-11T15:02:33Z</time>
      </trkpt>
      <trkpt lat="49.82992" lon="2.38745">
        <ele>65.7</ele>
        <time>2021-07-11T15:02:34Z</time>
      </trkpt>
      <trkpt lat="49.82993" lon="2.38744">
        <ele>65.6</ele>
        <time>2021-07-11T15:02:36Z</time>
      </trkpt>
      <trkpt lat="49.82994" lon="2.38743">
        <ele>65.5</ele>
        <time>2021-07-11T15:02:37Z</time>
      </trkpt>
      <trkpt lat="49.82996" lon="2.38742">
        <ele>65.3</ele>
        <time>2021-07-11T15:02:38Z</time>
      </trkpt>
      <trkpt lat="49.82997" lon="2.38742">
        <ele>65.3</ele>
        <time>2021-07-11T15:02:39Z</time>
      </trkpt>
      <trkpt lat="49.82998" lon="2.38742">
        <ele>65.2</ele>
        <time>2021-07-11T15:02:40Z</time>
      </trkpt>
      <trkpt lat="49.83" lon="2.38741">
        <ele>65.1</ele>
        <time>2021-07-11T15:02:41Z</time>
      </trkpt>
      <trkpt lat="49.83001" lon="2.38741">
        <ele>65</ele>
        <time>2021-07-11T15:02:43Z</time>
      </trkpt>
      <trkpt lat="49.83002" lon="2.38741">
        <ele>64.9</ele>
        <time>2021-07-11T15:02:44Z</time>
      </trkpt>
      <trkpt lat="49.83004" lon="2.38742">
        <ele>64.7</ele>
        <time>2021-07-11T15:02:46Z</time>
      </trkpt>
      <trkpt lat="49.83005" lon="2.38744">
        <ele>64.6</ele>
        <time>2021-07-11T15:02:47Z</time>
      </trkpt>
      <trkpt lat="49.83006" lon="2.38745">
        <ele>64.5</ele>
        <time>2021-07-11T15:02:48Z</time>
      </trkpt>
      <trkpt lat="49.83006" lon="2.38746">
        <ele>64.4</ele>
        <time>2021-07-11T15:02:49Z</time>
      </trkpt>
      <trkpt lat="49.83006" lon="2.38749">
        <ele>64.3</ele>
        <time>2021-07-11T15:02:51Z</time>
      </trkpt>
      <trkpt lat="49.83006" lon="2.3875">
        <ele>64.2</ele>
        <time>2021-07-11T15:02:52Z</time>
      </trkpt>
      <trkpt lat="49.83006" lon="2.3875">
        <ele>64.2</ele>
        <time>2021-07-11T15:02:53Z</time>
      </trkpt>
      <trkpt lat="49.83007" lon="2.3875">
        <ele>64.2</ele>
        <time>2021-07-11T15:02:55Z</time>
      </trkpt>
      <trkpt lat="49.83007" lon="2.38749">
        <ele>64.1</ele>
        <time>2021-07-11T15:02:57Z</time>
      </trkpt>
      <trkpt lat="49.83007" lon="2.38749">
        <ele>64.1</ele>
        <time>2021-07-11T15:02:58Z</time>
      </trkpt>
      <trkpt lat="49.83007" lon="2.38749">
        <ele>64.1</ele>
        <time>2021-07-11T15:02:59Z</time>
      </trkpt>
      <trkpt lat="49.83007" lon="2.38748">
        <ele>64</ele>
        <time>2021-07-11T15:03:01Z</time>
      </trkpt>
      <trkpt lat="49.83007" lon="2.38746">
        <ele>63.9</ele>
        <time>2021-07-11T15:03:02Z</time>
      </trkpt>
      <trkpt lat="49.83007" lon="2.38744">
        <ele>63.8</ele>
        <time>2021-07-11T15:03:03Z</time>
      </trkpt>
      <trkpt lat="49.83008" lon="2.38743">
        <ele>63.7</ele>
        <time>2021-07-11T15:03:04Z</time>
      </trkpt>
      <trkpt lat="49.83009" lon="2.38742">
        <ele>63.6</ele>
        <time>2021-07-11T15:03:05Z</time>
      </trkpt>
      <trkpt lat="49.8301" lon="2.38741">
        <ele>63.5</ele>
        <time>2021-07-11T15:03:07Z</time>
      </trkpt>
      <trkpt lat="49.83011" lon="2.38741">
        <ele>63.3</ele>
        <time>2021-07-11T15:03:08Z</time>
      </trkpt>
      <trkpt lat="49.83012" lon="2.38739">
        <ele>63.2</ele>
        <time>2021-07-11T15:03:09Z</time>
      </trkpt>
      <trkpt lat="49.83013" lon="2.38737">
        <ele>63</ele>
        <time>2021-07-11T15:03:10Z</time>
      </trkpt>
      <trkpt lat="49.83014" lon="2.38736">
        <ele>62.9</ele>
        <time>2021-07-11T15:03:11Z</time>
      </trkpt>
      <trkpt lat="49.83015" lon="2.38734">
        <ele>62.8</ele>
        <time>2021-07-11T15:03:13Z</time>
      </trkpt>
      <trkpt lat="49.83016" lon="2.38733">
        <ele>62.6</ele>
        <time>2021-07-11T15:03:14Z</time>
      </trkpt>
      <trkpt lat="49.83017" lon="2.38733">
        <ele>62.5</ele>
        <time>2021-07-11T15:03:15Z</time>
      </trkpt>
      <trkpt lat="49.83018" lon="2.38732">
        <ele>62.4</ele>
        <time>2021-07-11T15:03:16Z</time>
      </trkpt>
      <trkpt lat="49.83019" lon="2.38732">
        <ele>62.3</ele>
        <time>2021-07-11T15:03:17Z</time>
      </trkpt>
      <trkpt lat="49.8302" lon="2.38731">
        <ele>62.2</ele>
        <time>2021-07-11T15:03:18Z</time>
      </trkpt>
      <trkpt lat="49.83021" lon="2.38731">
        <ele>62</ele>
        <time>2021-07-11T15:03:20Z</time>
      </trkpt>
      <trkpt lat="49.83022" lon="2.38731">
        <ele>61.9</ele>
        <time>2021-07-11T15:03:21Z</time>
      </trkpt>
      <trkpt lat="49.83023" lon="2.38731">
        <ele>61.9</ele>
        <time>2021-07-11T15:03:22Z</time>
      </trkpt>
      <trkpt lat="49.83023" lon="2.3873">
        <ele>61.8</ele>
        <time>2021-07-11T15:03:23Z</time>
      </trkpt>
      <trkpt lat="49.83024" lon="2.3873">
        <ele>61.7</ele>
        <time>2021-07-11T15:03:24Z</time>
      </trkpt>
      <trkpt lat="49.83025" lon="2.3873">
        <ele>61.6</ele>
        <time>2021-07-11T15:03:25Z</time>
      </trkpt>
      <trkpt lat="49.83026" lon="2.38729">
        <ele>61.5</ele>
        <time>2021-07-11T15:03:27Z</time>
      </trkpt>
      <trkpt lat="49.83027" lon="2.38729">
        <ele>61.4</ele>
        <time>2021-07-11T15:03:28Z</time>
      </trkpt>
      <trkpt lat="49.83027" lon="2.38728">
        <ele>61.3</ele>
        <time>2021-07-11T15:03:29Z</time>
      </trkpt>
      <trkpt lat="49.83028" lon="2.38728">
        <ele>61.3</ele>
        <time>2021-07-11T15:03:30Z</time>
      </trkpt>
      <trkpt lat="49.83028" lon="2.38727">
        <ele>61.2</ele>
        <time>2021-07-11T15:03:32Z</time>
      </trkpt>
      <trkpt lat="49.83029" lon="2.38727">
        <ele>61.1</ele>
        <time>2021-07-11T15:03:33Z</time>
      </trkpt>
      <trkpt lat="49.8303" lon="2.38727">
        <ele>61</ele>
        <time>2021-07-11T15:03:34Z</time>
      </trkpt>
      <trkpt lat="49.83031" lon="2.38727">
        <ele>60.8</ele>
        <time>2021-07-11T15:03:35Z</time>
      </trkpt>
      <trkpt lat="49.83032" lon="2.38726">
        <ele>60.7</ele>
        <time>2021-07-11T15:03:37Z</time>
      </trkpt>
      <trkpt lat="49.83034" lon="2.38726">
        <ele>60.6</ele>
        <time>2021-07-11T15:03:38Z</time>
      </trkpt>
      <trkpt lat="49.83035" lon="2.38726">
        <ele>60.4</ele>
        <time>2021-07-11T15:03:39Z</time>
      </trkpt>
      <trkpt lat="49.83036" lon="2.38726">
        <ele>60.3</ele>
        <time>2021-07-11T15:03:40Z</time>
      </trkpt>
      <trkpt lat="49.83037" lon="2.38727">
        <ele>60.1</ele>
        <time>2021-07-11T15:03:41Z</time>
      </trkpt>
      <trkpt lat="49.83039" lon="2.38727">
        <ele>59.9</ele>
        <time>2021-07-11T15:03:42Z</time>
      </trkpt>
      <trkpt lat="49.83041" lon="2.38727">
        <ele>59.7</ele>
        <time>2021-07-11T15:03:43Z</time>
      </trkpt>
      <trkpt lat="49.83042" lon="2.38727">
        <ele>59.5</ele>
        <time>2021-07-11T15:03:45Z</time>
      </trkpt>
      <trkpt lat="49.83044" lon="2.38727">
        <ele>59.3</ele>
        <time>2021-07-11T15:03:46Z</time>
      </trkpt>
      <trkpt lat="49.83046" lon="2.38727">
        <ele>59.1</ele>
        <time>2021-07-11T15:03:47Z</time>
      </trkpt>
      <trkpt lat="49.83047" lon="2.38727">
        <ele>59</ele>
        <time>2021-07-11T15:03:48Z</time>
      </trkpt>
      <trkpt lat="49.83049" lon="2.38727">
        <ele>58.8</ele>
        <time>2021-07-11T15:03:49Z</time>
      </trkpt>
      <trkpt lat="49.8305" lon="2.38727">
        <ele>58.6</ele>
        <time>2021-07-11T15:03:50Z</time>
      </trkpt>
      <trkpt lat="49.83052" lon="2.38728">
        <ele>58.4</ele>
        <time>2021-07-11T15:03:51Z</time>
      </trkpt>
      <trkpt lat="49.83053" lon="2.38728">
        <ele>58.3</ele>
        <time>2021-07-11T15:03:52Z</time>
      </trkpt>
      <trkpt lat="49.83055" lon="2.38728">
        <ele>58.1</ele>
        <time>2021-07-11T15:03:54Z</time>
      </trkpt>
      <trkpt lat="49.83056" lon="2.38728">
        <ele>57.9</ele>
        <time>2021-07-11T15:03:55Z</time>
      </trkpt>
      <trkpt lat="49.83058" lon="2.38728">
        <ele>57.7</ele>
        <time>2021-07-11T15:03:56Z</time>
      </trkpt>
      <trkpt lat="49.83059" lon="2.38728">
        <ele>57.6</ele>
        <time>2021-07-11T15:03:57Z</time>
      </trkpt>
      <trkpt lat="49.8306" lon="2.38728">
        <ele>57.5</ele>
        <time>2021-07-11T15:03:58Z</time>
      </trkpt>
      <trkpt lat="49.83061" lon="2.38728">
        <ele>57.3</ele>
        <time>2021-07-11T15:03:59Z</time>
      </trkpt>
      <trkpt lat="49.83062" lon="2.38728">
        <ele>57.2</ele>
        <time>2021-07-11T15:04:01Z</time>
      </trkpt>
      <trkpt lat="49.83063" lon="2.38728">
        <ele>57.1</ele>
        <time>2021-07-11T15:04:02Z</time>
      </trkpt>
      <trkpt lat="49.83065" lon="2.38728">
        <ele>56.9</ele>
        <time>2021-07-11T15:04:03Z</time>
      </trkpt>
      <trkpt lat="49.83066" lon="2.38728">
        <ele>56.8</ele>
        <time>2021-07-11T15:04:04Z</time>
      </trkpt>
      <trkpt lat="49.83067" lon="2.38728">
        <ele>56.7</ele>
        <time>2021-07-11T15:04:05Z</time>
      </trkpt>
      <trkpt lat="49.83068" lon="2.38728">
        <ele>56.6</ele>
        <time>2021-07-11T15:04:06Z</time>
      </trkpt>
      <trkpt lat="49.83068" lon="2.38727">
        <ele>56.5</ele>
        <time>2021-07-11T15:04:07Z</time>
      </trkpt>
      <trkpt lat="49.83069" lon="2.38727">
        <ele>56.5</ele>
        <time>2021-07-11T15:04:08Z</time>
      </trkpt>
      <trkpt lat="49.8307" lon="2.38727">
        <ele>56.4</ele>
        <time>2021-07-11T15:04:10Z</time>
      </trkpt>
      <trkpt lat="49.83071" lon="2.38727">
        <ele>56.2</ele>
        <time>2021-07-11T15:04:11Z</time>
      </trkpt>
      <trkpt lat="49.83072" lon="2.38727">
        <ele>56.1</ele>
        <time>2021-07-11T15:04:12Z</time>
      </trkpt>
      <trkpt lat="49.83073" lon="2.38727">
        <ele>56</ele>
        <time>2021-07-11T15:04:13Z</time>
      </trkpt>
      <trkpt lat="49.83073" lon="2.38727">
        <ele>55.9</ele>
        <time>2021-07-11T15:04:14Z</time>
      </trkpt>
      <trkpt lat="49.83074" lon="2.38727">
        <ele>55.8</ele>
        <time>2021-07-11T15:04:15Z</time>
      </trkpt>
      <trkpt lat="49.83075" lon="2.38727">
        <ele>55.8</ele>
        <time>2021-07-11T15:04:17Z</time>
      </trkpt>
      <trkpt lat="49.83076" lon="2.38728">
        <ele>55.6</ele>
        <time>2021-07-11T15:04:18Z</time>
      </trkpt>
      <trkpt lat="49.83078" lon="2.38729">
        <ele>55.4</ele>
        <time>2021-07-11T15:04:19Z</time>
      </trkpt>
      <trkpt lat="49.83079" lon="2.3873">
        <ele>55.3</ele>
        <time>2021-07-11T15:04:20Z</time>
      </trkpt>
      <trkpt lat="49.8308" lon="2.3873">
        <ele>55.3</ele>
        <time>2021-07-11T15:04:21Z</time>
      </trkpt>
      <trkpt lat="49.83081" lon="2.38731">
        <ele>55.1</ele>
        <time>2021-07-11T15:04:22Z</time>
      </trkpt>
      <trkpt lat="49.83082" lon="2.38732">
        <ele>55.1</ele>
        <time>2021-07-11T15:04:23Z</time>
      </trkpt>
      <trkpt lat="49.83082" lon="2.38732">
        <ele>55</ele>
        <time>2021-07-11T15:04:25Z</time>
      </trkpt>
      <trkpt lat="49.83083" lon="2.38732">
        <ele>55</ele>
        <time>2021-07-11T15:04:26Z</time>
      </trkpt>
      <trkpt lat="49.83084" lon="2.38733">
        <ele>54.9</ele>
        <time>2021-07-11T15:04:27Z</time>
      </trkpt>
      <trkpt lat="49.83085" lon="2.38733">
        <ele>54.8</ele>
        <time>2021-07-11T15:04:28Z</time>
      </trkpt>
      <trkpt lat="49.83086" lon="2.38733">
        <ele>54.7</ele>
        <time>2021-07-11T15:04:29Z</time>
      </trkpt>
      <trkpt lat="49.83087" lon="2.38734">
        <ele>54.6</ele>
        <time>2021-07-11T15:04:30Z</time>
      </trkpt>
      <trkpt lat="49.83088" lon="2.38734">
        <ele>54.5</ele>
        <time>2021-07-11T15:04:31Z</time>
      </trkpt>
      <trkpt lat="49.83089" lon="2.38734">
        <ele>54.5</ele>
        <time>2021-07-11T15:04:33Z</time>
      </trkpt>
      <trkpt lat="49.8309" lon="2.38735">
        <ele>54.4</ele>
        <time>2021-07-11T15:04:34Z</time>
      </trkpt>
      <trkpt lat="49.83091" lon="2.38735">
        <ele>54.3</ele>
        <time>2021-07-11T15:04:35Z</time>
      </trkpt>
      <trkpt lat="49.83092" lon="2.38736">
        <ele>54.2</ele>
        <time>2021-07-11T15:04:36Z</time>
      </trkpt>
      <trkpt lat="49.83093" lon="2.38736">
        <ele>54.1</ele>
        <time>2021-07-11T15:04:37Z</time>
      </trkpt>
      <trkpt lat="49.83094" lon="2.38736">
        <ele>54.1</ele>
        <time>2021-07-11T15:04:38Z</time>
      </trkpt>
      <trkpt lat="49.83095" lon="2.38737">
        <ele>54</ele>
        <time>2021-07-11T15:04:40Z</time>
      </trkpt>
      <trkpt lat="49.83096" lon="2.38737">
        <ele>54</ele>
        <time>2021-07-11T15:04:41Z</time>
      </trkpt>
      <trkpt lat="49.83097" lon="2.38738">
        <ele>53.9</ele>
        <time>2021-07-11T15:04:42Z</time>
      </trkpt>
      <trkpt lat="49.83098" lon="2.38738">
        <ele>53.9</ele>
        <time>2021-07-11T15:04:43Z</time>
      </trkpt>
      <trkpt lat="49.83099" lon="2.38738">
        <ele>53.8</ele>
        <time>2021-07-11T15:04:44Z</time>
      </trkpt>
      <trkpt lat="49.831" lon="2.38739">
        <ele>53.8</ele>
        <time>2021-07-11T15:04:45Z</time>
      </trkpt>
      <trkpt lat="49.83101" lon="2.38739">
        <ele>53.7</ele>
        <time>2021-07-11T15:04:46Z</time>
      </trkpt>
      <trkpt lat="49.83102" lon="2.3874">
        <ele>53.7</ele>
        <time>2021-07-11T15:04:48Z</time>
      </trkpt>
      <trkpt lat="49.83103" lon="2.38741">
        <ele>53.6</ele>
        <time>2021-07-11T15:04:49Z</time>
      </trkpt>
      <trkpt lat="49.83104" lon="2.38741">
        <ele>53.6</ele>
        <time>2021-07-11T15:04:50Z</time>
      </trkpt>
      <trkpt lat="49.83104" lon="2.38741">
        <ele>53.5</ele>
        <time>2021-07-11T15:04:51Z</time>
      </trkpt>
      <trkpt lat="49.83105" lon="2.38742">
        <ele>53.5</ele>
        <time>2021-07-11T15:04:52Z</time>
      </trkpt>
      <trkpt lat="49.83107" lon="2.38743">
        <ele>53.4</ele>
        <time>2021-07-11T15:04:53Z</time>
      </trkpt>
      <trkpt lat="49.83109" lon="2.38744">
        <ele>53.3</ele>
        <time>2021-07-11T15:04:55Z</time>
      </trkpt>
      <trkpt lat="49.83109" lon="2.38744">
        <ele>53.3</ele>
        <time>2021-07-11T15:04:56Z</time>
      </trkpt>
      <trkpt lat="49.8311" lon="2.38745">
        <ele>53.2</ele>
        <time>2021-07-11T15:04:57Z</time>
      </trkpt>
      <trkpt lat="49.83111" lon="2.38746">
        <ele>53.2</ele>
        <time>2021-07-11T15:04:58Z</time>
      </trkpt>
      <trkpt lat="49.83113" lon="2.38745">
        <ele>53.1</ele>
        <time>2021-07-11T15:04:59Z</time>
      </trkpt>
      <trkpt lat="49.83115" lon="2.38745">
        <ele>53.1</ele>
        <time>2021-07-11T15:05:00Z</time>
      </trkpt>
      <trkpt lat="49.83116" lon="2.38745">
        <ele>53.1</ele>
        <time>2021-07-11T15:05:02Z</time>
      </trkpt>
      <trkpt lat="49.83117" lon="2.38745">
        <ele>53.1</ele>
        <time>2021-07-11T15:05:03Z</time>
      </trkpt>
      <trkpt lat="49.83119" lon="2.38746">
        <ele>53.1</ele>
        <time>2021-07-11T15:05:04Z</time>
      </trkpt>
      <trkpt lat="49.8312" lon="2.38746">
        <ele>53.1</ele>
        <time>2021-07-11T15:05:05Z</time>
      </trkpt>
      <trkpt lat="49.83122" lon="2.38746">
        <ele>53.2</ele>
        <time>2021-07-11T15:05:06Z</time>
      </trkpt>
      <trkpt lat="49.83124" lon="2.38747">
        <ele>53.2</ele>
        <time>2021-07-11T15:05:07Z</time>
      </trkpt>
      <trkpt lat="49.83125" lon="2.38747">
        <ele>53.2</ele>
        <time>2021-07-11T15:05:09Z</time>
      </trkpt>
      <trkpt lat="49.83126" lon="2.38747">
        <ele>53.2</ele>
        <time>2021-07-11T15:05:10Z</time>
      </trkpt>
      <trkpt lat="49.83127" lon="2.38748">
        <ele>53.2</ele>
        <time>2021-07-11T15:05:11Z</time>
      </trkpt>
      <trkpt lat="49.83128" lon="2.38748">
        <ele>53.2</ele>
        <time>2021-07-11T15:05:12Z</time>
      </trkpt>
      <trkpt lat="49.8313" lon="2.38748">
        <ele>53.2</ele>
        <time>2021-07-11T15:05:13Z</time>
      </trkpt>
      <trkpt lat="49.83131" lon="2.38749">
        <ele>53.2</ele>
        <time>2021-07-11T15:05:14Z</time>
      </trkpt>
      <trkpt lat="49.83132" lon="2.3875">
        <ele>53.2</ele>
        <time>2021-07-11T15:05:15Z</time>
      </trkpt>
      <trkpt lat="49.83133" lon="2.38751">
        <ele>53.2</ele>
        <time>2021-07-11T15:05:17Z</time>
      </trkpt>
      <trkpt lat="49.83134" lon="2.38751">
        <ele>53.2</ele>
        <time>2021-07-11T15:05:18Z</time>
      </trkpt>
      <trkpt lat="49.83135" lon="2.38752">
        <ele>53.3</ele>
        <time>2021-07-11T15:05:19Z</time>
      </trkpt>
      <trkpt lat="49.83136" lon="2.38752">
        <ele>53.3</ele>
        <time>2021-07-11T15:05:20Z</time>
      </trkpt>
      <trkpt lat="49.83138" lon="2.38753">
        <ele>53.3</ele>
        <time>2021-07-11T15:05:21Z</time>
      </trkpt>
      <trkpt lat="49.83139" lon="2.38753">
        <ele>53.3</ele>
        <time>2021-07-11T15:05:22Z</time>
      </trkpt>
      <trkpt lat="49.8314" lon="2.38753">
        <ele>53.3</ele>
        <time>2021-07-11T15:05:23Z</time>
      </trkpt>
      <trkpt lat="49.83141" lon="2.38754">
        <ele>53.3</ele>
        <time>2021-07-11T15:05:25Z</time>
      </trkpt>
      <trkpt lat="49.83142" lon="2.38754">
        <ele>53.4</ele>
        <time>2021-07-11T15:05:26Z</time>
      </trkpt>
      <trkpt lat="49.83143" lon="2.38754">
        <ele>53.4</ele>
        <time>2021-07-11T15:05:27Z</time>
      </trkpt>
      <trkpt lat="49.83144" lon="2.38754">
        <ele>53.4</ele>
        <time>2021-07-11T15:05:28Z</time>
      </trkpt>
      <trkpt lat="49.83145" lon="2.38754">
        <ele>53.4</ele>
        <time>2021-07-11T15:05:29Z</time>
      </trkpt>
      <trkpt lat="49.83146" lon="2.38754">
        <ele>53.4</ele>
        <time>2021-07-11T15:05:30Z</time>
      </trkpt>
      <trkpt lat="49.83147" lon="2.38755">
        <ele>53.4</ele>
        <time>2021-07-11T15:05:32Z</time>
      </trkpt>
      <trkpt lat="49.83148" lon="2.38755">
        <ele>53.5</ele>
        <time>2021-07-11T15:05:33Z</time>
      </trkpt>
      <trkpt lat="49.83149" lon="2.38755">
        <ele>53.5</ele>
        <time>2021-07-11T15:05:34Z</time>
      </trkpt>
      <trkpt lat="49.8315" lon="2.38755">
        <ele>53.5</ele>
        <time>2021-07-11T15:05:35Z</time>
      </trkpt>
      <trkpt lat="49.83151" lon="2.38756">
        <ele>53.5</ele>
        <time>2021-07-11T15:05:36Z</time>
      </trkpt>
      <trkpt lat="49.83152" lon="2.38756">
        <ele>53.6</ele>
        <time>2021-07-11T15:05:37Z</time>
      </trkpt>
      <trkpt lat="49.83153" lon="2.38756">
        <ele>53.6</ele>
        <time>2021-07-11T15:05:38Z</time>
      </trkpt>
      <trkpt lat="49.83154" lon="2.38757">
        <ele>53.6</ele>
        <time>2021-07-11T15:05:40Z</time>
      </trkpt>
      <trkpt lat="49.83155" lon="2.38758">
        <ele>53.6</ele>
        <time>2021-07-11T15:05:41Z</time>
      </trkpt>
      <trkpt lat="49.83155" lon="2.38759">
        <ele>53.7</ele>
        <time>2021-07-11T15:05:42Z</time>
      </trkpt>
      <trkpt lat="49.83156" lon="2.3876">
        <ele>53.7</ele>
        <time>2021-07-11T15:05:43Z</time>
      </trkpt>
      <trkpt lat="49.83157" lon="2.3876">
        <ele>53.7</ele>
        <time>2021-07-11T15:05:44Z</time>
      </trkpt>
      <trkpt lat="49.83157" lon="2.38761">
        <ele>53.7</ele>
        <time>2021-07-11T15:05:45Z</time>
      </trkpt>
      <trkpt lat="49.83158" lon="2.38761">
        <ele>53.8</ele>
        <time>2021-07-11T15:05:47Z</time>
      </trkpt>
      <trkpt lat="49.83159" lon="2.38762">
        <ele>53.8</ele>
        <time>2021-07-11T15:05:48Z</time>
      </trkpt>
      <trkpt lat="49.8316" lon="2.38762">
        <ele>53.8</ele>
        <time>2021-07-11T15:05:49Z</time>
      </trkpt>
      <trkpt lat="49.83161" lon="2.38763">
        <ele>53.8</ele>
        <time>2021-07-11T15:05:50Z</time>
      </trkpt>
      <trkpt lat="49.83162" lon="2.38764">
        <ele>53.9</ele>
        <time>2021-07-11T15:05:51Z</time>
      </trkpt>
      <trkpt lat="49.83164" lon="2.38765">
        <ele>53.9</ele>
        <time>2021-07-11T15:05:52Z</time>
      </trkpt>
      <trkpt lat="49.83165" lon="2.38765">
        <ele>54</ele>
        <time>2021-07-11T15:05:54Z</time>
      </trkpt>
      <trkpt lat="49.83166" lon="2.38766">
        <ele>54</ele>
        <time>2021-07-11T15:05:55Z</time>
      </trkpt>
      <trkpt lat="49.83167" lon="2.38767">
        <ele>54</ele>
        <time>2021-07-11T15:05:56Z</time>
      </trkpt>
      <trkpt lat="49.83168" lon="2.38768">
        <ele>54.1</ele>
        <time>2021-07-11T15:05:57Z</time>
      </trkpt>
      <trkpt lat="49.83169" lon="2.38768">
        <ele>54.1</ele>
        <time>2021-07-11T15:05:58Z</time>
      </trkpt>
      <trkpt lat="49.8317" lon="2.38768">
        <ele>54.1</ele>
        <time>2021-07-11T15:05:59Z</time>
      </trkpt>
      <trkpt lat="49.83171" lon="2.38769">
        <ele>54.2</ele>
        <time>2021-07-11T15:06:01Z</time>
      </trkpt>
      <trkpt lat="49.83172" lon="2.3877">
        <ele>54.2</ele>
        <time>2021-07-11T15:06:02Z</time>
      </trkpt>
      <trkpt lat="49.83174" lon="2.38771">
        <ele>54.3</ele>
        <time>2021-07-11T15:06:03Z</time>
      </trkpt>
      <trkpt lat="49.83175" lon="2.38772">
        <ele>54.3</ele>
        <time>2021-07-11T15:06:04Z</time>
      </trkpt>
      <trkpt lat="49.83175" lon="2.38772">
        <ele>54.3</ele>
        <time>2021-07-11T15:06:05Z</time>
      </trkpt>
      <trkpt lat="49.83177" lon="2.38773">
        <ele>54.4</ele>
        <time>2021-07-11T15:06:06Z</time>
      </trkpt>
      <trkpt lat="49.83178" lon="2.38774">
        <ele>54.4</ele>
        <time>2021-07-11T15:06:08Z</time>
      </trkpt>
      <trkpt lat="49.83179" lon="2.38775">
        <ele>54.5</ele>
        <time>2021-07-11T15:06:09Z</time>
      </trkpt>
      <trkpt lat="49.8318" lon="2.38775">
        <ele>54.5</ele>
        <time>2021-07-11T15:06:10Z</time>
      </trkpt>
      <trkpt lat="49.83183" lon="2.38776">
        <ele>54.7</ele>
        <time>2021-07-11T15:06:11Z</time>
      </trkpt>
      <trkpt lat="49.83184" lon="2.38777">
        <ele>54.7</ele>
        <time>2021-07-11T15:06:12Z</time>
      </trkpt>
      <trkpt lat="49.83186" lon="2.38777">
        <ele>54.8</ele>
        <time>2021-07-11T15:06:13Z</time>
      </trkpt>
      <trkpt lat="49.83187" lon="2.38778">
        <ele>54.8</ele>
        <time>2021-07-11T15:06:15Z</time>
      </trkpt>
      <trkpt lat="49.83189" lon="2.38779">
        <ele>54.9</ele>
        <time>2021-07-11T15:06:16Z</time>
      </trkpt>
      <trkpt lat="49.8319" lon="2.3878">
        <ele>54.9</ele>
        <time>2021-07-11T15:06:17Z</time>
      </trkpt>
      <trkpt lat="49.83191" lon="2.38781">
        <ele>55</ele>
        <time>2021-07-11T15:06:18Z</time>
      </trkpt>
      <trkpt lat="49.83193" lon="2.38782">
        <ele>55.1</ele>
        <time>2021-07-11T15:06:19Z</time>
      </trkpt>
      <trkpt lat="49.83194" lon="2.38783">
        <ele>55.1</ele>
        <time>2021-07-11T15:06:21Z</time>
      </trkpt>
      <trkpt lat="49.83195" lon="2.38785">
        <ele>55.2</ele>
        <time>2021-07-11T15:06:22Z</time>
      </trkpt>
      <trkpt lat="49.83198" lon="2.38787">
        <ele>55.3</ele>
        <time>2021-07-11T15:06:23Z</time>
      </trkpt>
      <trkpt lat="49.83199" lon="2.38788">
        <ele>55.4</ele>
        <time>2021-07-11T15:06:24Z</time>
      </trkpt>
      <trkpt lat="49.832" lon="2.38789">
        <ele>55.4</ele>
        <time>2021-07-11T15:06:25Z</time>
      </trkpt>
      <trkpt lat="49.83202" lon="2.3879">
        <ele>55.5</ele>
        <time>2021-07-11T15:06:26Z</time>
      </trkpt>
      <trkpt lat="49.83203" lon="2.38791">
        <ele>55.6</ele>
        <time>2021-07-11T15:06:28Z</time>
      </trkpt>
      <trkpt lat="49.83205" lon="2.38792">
        <ele>55.7</ele>
        <time>2021-07-11T15:06:29Z</time>
      </trkpt>
      <trkpt lat="49.83206" lon="2.38792">
        <ele>55.8</ele>
        <time>2021-07-11T15:06:30Z</time>
      </trkpt>
      <trkpt lat="49.83208" lon="2.38793">
        <ele>55.9</ele>
        <time>2021-07-11T15:06:31Z</time>
      </trkpt>
      <trkpt lat="49.8321" lon="2.38793">
        <ele>55.9</ele>
        <time>2021-07-11T15:06:32Z</time>
      </trkpt>
      <trkpt lat="49.83211" lon="2.38793">
        <ele>56</ele>
        <time>2021-07-11T15:06:34Z</time>
      </trkpt>
      <trkpt lat="49.83212" lon="2.38794">
        <ele>56.1</ele>
        <time>2021-07-11T15:06:35Z</time>
      </trkpt>
      <trkpt lat="49.83214" lon="2.38795">
        <ele>56.2</ele>
        <time>2021-07-11T15:06:36Z</time>
      </trkpt>
      <trkpt lat="49.83215" lon="2.38795">
        <ele>56.3</ele>
        <time>2021-07-11T15:06:37Z</time>
      </trkpt>
      <trkpt lat="49.83216" lon="2.38795">
        <ele>56.4</ele>
        <time>2021-07-11T15:06:38Z</time>
      </trkpt>
      <trkpt lat="49.83217" lon="2.38795">
        <ele>56.4</ele>
        <time>2021-07-11T15:06:39Z</time>
      </trkpt>
      <trkpt lat="49.83218" lon="2.38796">
        <ele>56.5</ele>
        <time>2021-07-11T15:06:41Z</time>
      </trkpt>
      <trkpt lat="49.83219" lon="2.38796">
        <ele>56.5</ele>
        <time>2021-07-11T15:06:42Z</time>
      </trkpt>
      <trkpt lat="49.83219" lon="2.38796">
        <ele>56.5</ele>
        <time>2021-07-11T15:06:43Z</time>
      </trkpt>
      <trkpt lat="49.8322" lon="2.38796">
        <ele>56.6</ele>
        <time>2021-07-11T15:06:44Z</time>
      </trkpt>
      <trkpt lat="49.83221" lon="2.38796">
        <ele>56.6</ele>
        <time>2021-07-11T15:06:45Z</time>
      </trkpt>
      <trkpt lat="49.83222" lon="2.38797">
        <ele>56.7</ele>
        <time>2021-07-11T15:06:47Z</time>
      </trkpt>
      <trkpt lat="49.83224" lon="2.38797">
        <ele>56.8</ele>
        <time>2021-07-11T15:06:48Z</time>
      </trkpt>
      <trkpt lat="49.83227" lon="2.38798">
        <ele>57</ele>
        <time>2021-07-11T15:06:50Z</time>
      </trkpt>
      <trkpt lat="49.83227" lon="2.38798">
        <ele>57.1</ele>
        <time>2021-07-11T15:06:51Z</time>
      </trkpt>
      <trkpt lat="49.83229" lon="2.38799">
        <ele>57.2</ele>
        <time>2021-07-11T15:06:52Z</time>
      </trkpt>
      <trkpt lat="49.8323" lon="2.38799">
        <ele>57.3</ele>
        <time>2021-07-11T15:06:53Z</time>
      </trkpt>
      <trkpt lat="49.83232" lon="2.38799">
        <ele>57.4</ele>
        <time>2021-07-11T15:06:55Z</time>
      </trkpt>
      <trkpt lat="49.83233" lon="2.38799">
        <ele>57.5</ele>
        <time>2021-07-11T15:06:56Z</time>
      </trkpt>
      <trkpt lat="49.83235" lon="2.388">
        <ele>57.6</ele>
        <time>2021-07-11T15:06:57Z</time>
      </trkpt>
      <trkpt lat="49.83237" lon="2.388">
        <ele>57.7</ele>
        <time>2021-07-11T15:06:58Z</time>
      </trkpt>
      <trkpt lat="49.83238" lon="2.38801">
        <ele>57.8</ele>
        <time>2021-07-11T15:06:59Z</time>
      </trkpt>
      <trkpt lat="49.83238" lon="2.38801">
        <ele>57.8</ele>
        <time>2021-07-11T15:07:01Z</time>
      </trkpt>
      <trkpt lat="49.83239" lon="2.38801">
        <ele>57.9</ele>
        <time>2021-07-11T15:07:02Z</time>
      </trkpt>
      <trkpt lat="49.8324" lon="2.388">
        <ele>58</ele>
        <time>2021-07-11T15:07:04Z</time>
      </trkpt>
      <trkpt lat="49.83241" lon="2.388">
        <ele>58</ele>
        <time>2021-07-11T15:07:05Z</time>
      </trkpt>
      <trkpt lat="49.83244" lon="2.38801">
        <ele>58.2</ele>
        <time>2021-07-11T15:07:07Z</time>
      </trkpt>
      <trkpt lat="49.83244" lon="2.38801">
        <ele>58.3</ele>
        <time>2021-07-11T15:07:08Z</time>
      </trkpt>
      <trkpt lat="49.83245" lon="2.38801">
        <ele>58.3</ele>
        <time>2021-07-11T15:07:09Z</time>
      </trkpt>
      <trkpt lat="49.83246" lon="2.38801">
        <ele>58.4</ele>
        <time>2021-07-11T15:07:10Z</time>
      </trkpt>
      <trkpt lat="49.83248" lon="2.38801">
        <ele>58.5</ele>
        <time>2021-07-11T15:07:12Z</time>
      </trkpt>
      <trkpt lat="49.83248" lon="2.38801">
        <ele>58.5</ele>
        <time>2021-07-11T15:07:13Z</time>
      </trkpt>
      <trkpt lat="49.83249" lon="2.38801">
        <ele>58.6</ele>
        <time>2021-07-11T15:07:14Z</time>
      </trkpt>
      <trkpt lat="49.83249" lon="2.38801">
        <ele>58.6</ele>
        <time>2021-07-11T15:07:16Z</time>
      </trkpt>
      <trkpt lat="49.83251" lon="2.38801">
        <ele>58.7</ele>
        <time>2021-07-11T15:07:17Z</time>
      </trkpt>
      <trkpt lat="49.83252" lon="2.38801">
        <ele>58.8</ele>
        <time>2021-07-11T15:07:18Z</time>
      </trkpt>
      <trkpt lat="49.83253" lon="2.38801">
        <ele>58.9</ele>
        <time>2021-07-11T15:07:20Z</time>
      </trkpt>
      <trkpt lat="49.83254" lon="2.38801">
        <ele>59</ele>
        <time>2021-07-11T15:07:21Z</time>
      </trkpt>
      <trkpt lat="49.83256" lon="2.38801">
        <ele>59</ele>
        <time>2021-07-11T15:07:22Z</time>
      </trkpt>
      <trkpt lat="49.83258" lon="2.38802">
        <ele>59.1</ele>
        <time>2021-07-11T15:07:24Z</time>
      </trkpt>
      <trkpt lat="49.83259" lon="2.38802">
        <ele>59.2</ele>
        <time>2021-07-11T15:07:25Z</time>
      </trkpt>
      <trkpt lat="49.83261" lon="2.38803">
        <ele>59.4</ele>
        <time>2021-07-11T15:07:27Z</time>
      </trkpt>
      <trkpt lat="49.83262" lon="2.38804">
        <ele>59.4</ele>
        <time>2021-07-11T15:07:28Z</time>
      </trkpt>
      <trkpt lat="49.83263" lon="2.38804">
        <ele>59.5</ele>
        <time>2021-07-11T15:07:29Z</time>
      </trkpt>
      <trkpt lat="49.83265" lon="2.38805">
        <ele>59.6</ele>
        <time>2021-07-11T15:07:30Z</time>
      </trkpt>
      <trkpt lat="49.83265" lon="2.38805">
        <ele>59.6</ele>
        <time>2021-07-11T15:07:32Z</time>
      </trkpt>
      <trkpt lat="49.83266" lon="2.38805">
        <ele>59.7</ele>
        <time>2021-07-11T15:07:33Z</time>
      </trkpt>
      <trkpt lat="49.83267" lon="2.38805">
        <ele>59.7</ele>
        <time>2021-07-11T15:07:34Z</time>
      </trkpt>
      <trkpt lat="49.83268" lon="2.38805">
        <ele>59.7</ele>
        <time>2021-07-11T15:07:35Z</time>
      </trkpt>
      <trkpt lat="49.83269" lon="2.38805">
        <ele>59.8</ele>
        <time>2021-07-11T15:07:36Z</time>
      </trkpt>
      <trkpt lat="49.8327" lon="2.38805">
        <ele>59.9</ele>
        <time>2021-07-11T15:07:38Z</time>
      </trkpt>
      <trkpt lat="49.83271" lon="2.38806">
        <ele>59.9</ele>
        <time>2021-07-11T15:07:39Z</time>
      </trkpt>
      <trkpt lat="49.8327" lon="2.38806">
        <ele>59.9</ele>
        <time>2021-07-11T15:07:40Z</time>
      </trkpt>
      <trkpt lat="49.83271" lon="2.38806">
        <ele>60</ele>
        <time>2021-07-11T15:07:42Z</time>
      </trkpt>
      <trkpt lat="49.83272" lon="2.38806">
        <ele>60</ele>
        <time>2021-07-11T15:07:43Z</time>
      </trkpt>
      <trkpt lat="49.83274" lon="2.38806">
        <ele>60.1</ele>
        <time>2021-07-11T15:07:44Z</time>
      </trkpt>
      <trkpt lat="49.83275" lon="2.38807">
        <ele>60.2</ele>
        <time>2021-07-11T15:07:45Z</time>
      </trkpt>
      <trkpt lat="49.83276" lon="2.38807">
        <ele>60.2</ele>
        <time>2021-07-11T15:07:46Z</time>
      </trkpt>
      <trkpt lat="49.83278" lon="2.38808">
        <ele>60.3</ele>
        <time>2021-07-11T15:07:48Z</time>
      </trkpt>
      <trkpt lat="49.83279" lon="2.38808">
        <ele>60.4</ele>
        <time>2021-07-11T15:07:49Z</time>
      </trkpt>
      <trkpt lat="49.8328" lon="2.38808">
        <ele>60.4</ele>
        <time>2021-07-11T15:07:50Z</time>
      </trkpt>
      <trkpt lat="49.83281" lon="2.38809">
        <ele>60.5</ele>
        <time>2021-07-11T15:07:51Z</time>
      </trkpt>
      <trkpt lat="49.83282" lon="2.3881">
        <ele>60.5</ele>
        <time>2021-07-11T15:07:52Z</time>
      </trkpt>
      <trkpt lat="49.83283" lon="2.38811">
        <ele>60.6</ele>
        <time>2021-07-11T15:07:54Z</time>
      </trkpt>
      <trkpt lat="49.83283" lon="2.38811">
        <ele>60.6</ele>
        <time>2021-07-11T15:07:55Z</time>
      </trkpt>
      <trkpt lat="49.83285" lon="2.38812">
        <ele>60.7</ele>
        <time>2021-07-11T15:07:57Z</time>
      </trkpt>
      <trkpt lat="49.83286" lon="2.38813">
        <ele>60.7</ele>
        <time>2021-07-11T15:07:58Z</time>
      </trkpt>
      <trkpt lat="49.83286" lon="2.38813">
        <ele>60.7</ele>
        <time>2021-07-11T15:07:59Z</time>
      </trkpt>
      <trkpt lat="49.83287" lon="2.38813">
        <ele>60.8</ele>
        <time>2021-07-11T15:08:00Z</time>
      </trkpt>
      <trkpt lat="49.83288" lon="2.38813">
        <ele>60.8</ele>
        <time>2021-07-11T15:08:02Z</time>
      </trkpt>
      <trkpt lat="49.83289" lon="2.38814">
        <ele>60.9</ele>
        <time>2021-07-11T15:08:03Z</time>
      </trkpt>
      <trkpt lat="49.83291" lon="2.38815">
        <ele>60.9</ele>
        <time>2021-07-11T15:08:04Z</time>
      </trkpt>
      <trkpt lat="49.83292" lon="2.38815">
        <ele>61</ele>
        <time>2021-07-11T15:08:05Z</time>
      </trkpt>
      <trkpt lat="49.83294" lon="2.38816">
        <ele>61.1</ele>
        <time>2021-07-11T15:08:07Z</time>
      </trkpt>
      <trkpt lat="49.83295" lon="2.38817">
        <ele>61.1</ele>
        <time>2021-07-11T15:08:08Z</time>
      </trkpt>
      <trkpt lat="49.83297" lon="2.38818">
        <ele>61.2</ele>
        <time>2021-07-11T15:08:09Z</time>
      </trkpt>
      <trkpt lat="49.83298" lon="2.38818">
        <ele>61.2</ele>
        <time>2021-07-11T15:08:10Z</time>
      </trkpt>
      <trkpt lat="49.83299" lon="2.38819">
        <ele>61.3</ele>
        <time>2021-07-11T15:08:11Z</time>
      </trkpt>
      <trkpt lat="49.833" lon="2.3882">
        <ele>61.3</ele>
        <time>2021-07-11T15:08:13Z</time>
      </trkpt>
      <trkpt lat="49.83301" lon="2.3882">
        <ele>61.4</ele>
        <time>2021-07-11T15:08:14Z</time>
      </trkpt>
      <trkpt lat="49.83302" lon="2.38821">
        <ele>61.4</ele>
        <time>2021-07-11T15:08:15Z</time>
      </trkpt>
      <trkpt lat="49.83304" lon="2.38822">
        <ele>61.5</ele>
        <time>2021-07-11T15:08:17Z</time>
      </trkpt>
      <trkpt lat="49.83305" lon="2.38823">
        <ele>61.6</ele>
        <time>2021-07-11T15:08:18Z</time>
      </trkpt>
      <trkpt lat="49.83306" lon="2.38824">
        <ele>61.6</ele>
        <time>2021-07-11T15:08:19Z</time>
      </trkpt>
      <trkpt lat="49.83307" lon="2.38824">
        <ele>61.6</ele>
        <time>2021-07-11T15:08:20Z</time>
      </trkpt>
      <trkpt lat="49.83307" lon="2.38825">
        <ele>61.7</ele>
        <time>2021-07-11T15:08:22Z</time>
      </trkpt>
      <trkpt lat="49.83308" lon="2.38825">
        <ele>61.7</ele>
        <time>2021-07-11T15:08:23Z</time>
      </trkpt>
      <trkpt lat="49.8331" lon="2.38826">
        <ele>61.7</ele>
        <time>2021-07-11T15:08:25Z</time>
      </trkpt>
      <trkpt lat="49.8331" lon="2.38826">
        <ele>61.8</ele>
        <time>2021-07-11T15:08:26Z</time>
      </trkpt>
      <trkpt lat="49.83312" lon="2.38828">
        <ele>61.8</ele>
        <time>2021-07-11T15:08:28Z</time>
      </trkpt>
      <trkpt lat="49.83313" lon="2.38829">
        <ele>61.9</ele>
        <time>2021-07-11T15:08:29Z</time>
      </trkpt>
      <trkpt lat="49.83315" lon="2.3883">
        <ele>62</ele>
        <time>2021-07-11T15:08:30Z</time>
      </trkpt>
      <trkpt lat="49.83316" lon="2.38831">
        <ele>62</ele>
        <time>2021-07-11T15:08:31Z</time>
      </trkpt>
      <trkpt lat="49.83318" lon="2.38832">
        <ele>62.1</ele>
        <time>2021-07-11T15:08:33Z</time>
      </trkpt>
      <trkpt lat="49.83319" lon="2.38833">
        <ele>62.2</ele>
        <time>2021-07-11T15:08:34Z</time>
      </trkpt>
      <trkpt lat="49.83321" lon="2.38834">
        <ele>62.2</ele>
        <time>2021-07-11T15:08:35Z</time>
      </trkpt>
      <trkpt lat="49.83322" lon="2.38834">
        <ele>62.2</ele>
        <time>2021-07-11T15:08:36Z</time>
      </trkpt>
      <trkpt lat="49.83323" lon="2.38834">
        <ele>62.3</ele>
        <time>2021-07-11T15:08:37Z</time>
      </trkpt>
      <trkpt lat="49.83324" lon="2.38835">
        <ele>62.4</ele>
        <time>2021-07-11T15:08:39Z</time>
      </trkpt>
      <trkpt lat="49.83326" lon="2.38836">
        <ele>62.4</ele>
        <time>2021-07-11T15:08:40Z</time>
      </trkpt>
      <trkpt lat="49.83327" lon="2.38836">
        <ele>62.5</ele>
        <time>2021-07-11T15:08:41Z</time>
      </trkpt>
      <trkpt lat="49.8333" lon="2.38838">
        <ele>62.6</ele>
        <time>2021-07-11T15:08:42Z</time>
      </trkpt>
      <trkpt lat="49.83331" lon="2.38838">
        <ele>62.6</ele>
        <time>2021-07-11T15:08:43Z</time>
      </trkpt>
      <trkpt lat="49.83333" lon="2.3884">
        <ele>62.7</ele>
        <time>2021-07-11T15:08:44Z</time>
      </trkpt>
      <trkpt lat="49.83335" lon="2.38841">
        <ele>62.8</ele>
        <time>2021-07-11T15:08:46Z</time>
      </trkpt>
      <trkpt lat="49.83336" lon="2.38842">
        <ele>62.9</ele>
        <time>2021-07-11T15:08:47Z</time>
      </trkpt>
      <trkpt lat="49.83338" lon="2.38843">
        <ele>62.9</ele>
        <time>2021-07-11T15:08:48Z</time>
      </trkpt>
      <trkpt lat="49.83339" lon="2.38846">
        <ele>63</ele>
        <time>2021-07-11T15:08:50Z</time>
      </trkpt>
      <trkpt lat="49.8334" lon="2.38846">
        <ele>63</ele>
        <time>2021-07-11T15:08:51Z</time>
      </trkpt>
      <trkpt lat="49.8334" lon="2.38847">
        <ele>63.1</ele>
        <time>2021-07-11T15:08:52Z</time>
      </trkpt>
      <trkpt lat="49.83342" lon="2.38848">
        <ele>63.1</ele>
        <time>2021-07-11T15:08:54Z</time>
      </trkpt>
      <trkpt lat="49.83339" lon="2.38849">
        <ele>63.2</ele>
        <time>2021-07-11T15:08:56Z</time>
      </trkpt>
      <trkpt lat="49.83339" lon="2.38849">
        <ele>63.2</ele>
        <time>2021-07-11T15:08:57Z</time>
      </trkpt>
      <trkpt lat="49.83339" lon="2.3885">
        <ele>63.3</ele>
        <time>2021-07-11T15:08:58Z</time>
      </trkpt>
      <trkpt lat="49.83338" lon="2.38849">
        <ele>63.3</ele>
        <time>2021-07-11T15:09:00Z</time>
      </trkpt>
      <trkpt lat="49.83338" lon="2.3885">
        <ele>63.3</ele>
        <time>2021-07-11T15:09:02Z</time>
      </trkpt>
      <trkpt lat="49.83338" lon="2.3885">
        <ele>63.3</ele>
        <time>2021-07-11T15:09:04Z</time>
      </trkpt>
      <trkpt lat="49.83338" lon="2.3885">
        <ele>63.3</ele>
        <time>2021-07-11T15:09:05Z</time>
      </trkpt>
      <trkpt lat="49.83338" lon="2.38851">
        <ele>63.3</ele>
        <time>2021-07-11T15:09:07Z</time>
      </trkpt>
      <trkpt lat="49.83338" lon="2.38851">
        <ele>63.4</ele>
        <time>2021-07-11T15:09:09Z</time>
      </trkpt>
      <trkpt lat="49.83338" lon="2.38851">
        <ele>63.4</ele>
        <time>2021-07-11T15:09:11Z</time>
      </trkpt>
      <trkpt lat="49.83338" lon="2.38851">
        <ele>63.4</ele>
        <time>2021-07-11T15:09:13Z</time>
      </trkpt>
      <trkpt lat="49.83338" lon="2.38851">
        <ele>63.4</ele>
        <time>2021-07-11T15:09:14Z</time>
      </trkpt>
      <trkpt lat="49.83337" lon="2.38851">
        <ele>63.4</ele>
        <time>2021-07-11T15:09:16Z</time>
      </trkpt>
      <trkpt lat="49.83337" lon="2.38851">
        <ele>63.4</ele>
        <time>2021-07-11T15:09:17Z</time>
      </trkpt>
      <trkpt lat="49.83337" lon="2.38851">
        <ele>63.4</ele>
        <time>2021-07-11T15:09:19Z</time>
      </trkpt>
      <trkpt lat="49.83337" lon="2.3885">
        <ele>63.4</ele>
        <time>2021-07-11T15:09:21Z</time>
      </trkpt>
      <trkpt lat="49.83335" lon="2.38848">
        <ele>63.5</ele>
        <time>2021-07-11T15:09:23Z</time>
      </trkpt>
      <trkpt lat="49.83334" lon="2.38847">
        <ele>63.5</ele>
        <time>2021-07-11T15:09:24Z</time>
      </trkpt>
      <trkpt lat="49.83333" lon="2.38846">
        <ele>63.6</ele>
        <time>2021-07-11T15:09:26Z</time>
      </trkpt>
      <trkpt lat="49.83333" lon="2.38847">
        <ele>63.6</ele>
        <time>2021-07-11T15:09:27Z</time>
      </trkpt>
      <trkpt lat="49.83335" lon="2.38849">
        <ele>63.7</ele>
        <time>2021-07-11T15:09:28Z</time>
      </trkpt>
      <trkpt lat="49.83335" lon="2.38846">
        <ele>63.7</ele>
        <time>2021-07-11T15:09:30Z</time>
      </trkpt>
      <trkpt lat="49.83335" lon="2.38846">
        <ele>63.7</ele>
        <time>2021-07-11T15:09:31Z</time>
      </trkpt>
      <trkpt lat="49.83335" lon="2.38845">
        <ele>63.8</ele>
        <time>2021-07-11T15:09:33Z</time>
      </trkpt>
      <trkpt lat="49.83334" lon="2.38844">
        <ele>63.8</ele>
        <time>2021-07-11T15:09:34Z</time>
      </trkpt>
      <trkpt lat="49.83336" lon="2.38843">
        <ele>63.8</ele>
        <time>2021-07-11T15:09:35Z</time>
      </trkpt>
      <trkpt lat="49.83337" lon="2.38843">
        <ele>63.9</ele>
        <time>2021-07-11T15:09:36Z</time>
      </trkpt>
      <trkpt lat="49.83338" lon="2.38843">
        <ele>63.9</ele>
        <time>2021-07-11T15:09:37Z</time>
      </trkpt>
      <trkpt lat="49.83341" lon="2.38846">
        <ele>64</ele>
        <time>2021-07-11T15:09:39Z</time>
      </trkpt>
      <trkpt lat="49.83342" lon="2.38847">
        <ele>64</ele>
        <time>2021-07-11T15:09:40Z</time>
      </trkpt>
      <trkpt lat="49.83343" lon="2.38847">
        <ele>64.1</ele>
        <time>2021-07-11T15:09:41Z</time>
      </trkpt>
      <trkpt lat="49.83345" lon="2.38848">
        <ele>64.2</ele>
        <time>2021-07-11T15:09:43Z</time>
      </trkpt>
      <trkpt lat="49.83348" lon="2.38849">
        <ele>64.2</ele>
        <time>2021-07-11T15:09:44Z</time>
      </trkpt>
      <trkpt lat="49.83349" lon="2.3885">
        <ele>64.3</ele>
        <time>2021-07-11T15:09:45Z</time>
      </trkpt>
      <trkpt lat="49.83349" lon="2.3885">
        <ele>64.3</ele>
        <time>2021-07-11T15:09:46Z</time>
      </trkpt>
      <trkpt lat="49.83351" lon="2.38851">
        <ele>64.3</ele>
        <time>2021-07-11T15:09:48Z</time>
      </trkpt>
      <trkpt lat="49.83352" lon="2.38851">
        <ele>64.3</ele>
        <time>2021-07-11T15:09:49Z</time>
      </trkpt>
      <trkpt lat="49.83352" lon="2.38851">
        <ele>64.3</ele>
        <time>2021-07-11T15:09:50Z</time>
      </trkpt>
      <trkpt lat="49.83354" lon="2.38852">
        <ele>64.4</ele>
        <time>2021-07-11T15:09:51Z</time>
      </trkpt>
      <trkpt lat="49.83355" lon="2.38853">
        <ele>64.4</ele>
        <time>2021-07-11T15:09:52Z</time>
      </trkpt>
      <trkpt lat="49.83357" lon="2.38854">
        <ele>64.5</ele>
        <time>2021-07-11T15:09:54Z</time>
      </trkpt>
      <trkpt lat="49.83358" lon="2.38854">
        <ele>64.5</ele>
        <time>2021-07-11T15:09:55Z</time>
      </trkpt>
      <trkpt lat="49.83359" lon="2.38855">
        <ele>64.5</ele>
        <time>2021-07-11T15:09:56Z</time>
      </trkpt>
      <trkpt lat="49.83362" lon="2.38856">
        <ele>64.6</ele>
        <time>2021-07-11T15:09:57Z</time>
      </trkpt>
      <trkpt lat="49.83363" lon="2.38857">
        <ele>64.6</ele>
        <time>2021-07-11T15:09:58Z</time>
      </trkpt>
      <trkpt lat="49.83364" lon="2.38857">
        <ele>64.7</ele>
        <time>2021-07-11T15:10:00Z</time>
      </trkpt>
      <trkpt lat="49.83366" lon="2.38858">
        <ele>64.7</ele>
        <time>2021-07-11T15:10:01Z</time>
      </trkpt>
      <trkpt lat="49.83368" lon="2.38858">
        <ele>64.8</ele>
        <time>2021-07-11T15:10:02Z</time>
      </trkpt>
      <trkpt lat="49.83369" lon="2.38858">
        <ele>64.8</ele>
        <time>2021-07-11T15:10:03Z</time>
      </trkpt>
      <trkpt lat="49.83369" lon="2.38858">
        <ele>64.8</ele>
        <time>2021-07-11T15:10:04Z</time>
      </trkpt>
      <trkpt lat="49.83371" lon="2.38859">
        <ele>64.9</ele>
        <time>2021-07-11T15:10:05Z</time>
      </trkpt>
      <trkpt lat="49.83372" lon="2.38859">
        <ele>64.9</ele>
        <time>2021-07-11T15:10:07Z</time>
      </trkpt>
      <trkpt lat="49.83374" lon="2.38859">
        <ele>64.9</ele>
        <time>2021-07-11T15:10:08Z</time>
      </trkpt>
      <trkpt lat="49.83376" lon="2.38859">
        <ele>65</ele>
        <time>2021-07-11T15:10:09Z</time>
      </trkpt>
      <trkpt lat="49.83377" lon="2.38859">
        <ele>65</ele>
        <time>2021-07-11T15:10:10Z</time>
      </trkpt>
      <trkpt lat="49.83379" lon="2.38859">
        <ele>65.1</ele>
        <time>2021-07-11T15:10:11Z</time>
      </trkpt>
      <trkpt lat="49.83379" lon="2.38859">
        <ele>65.1</ele>
        <time>2021-07-11T15:10:12Z</time>
      </trkpt>
      <trkpt lat="49.83379" lon="2.38858">
        <ele>65.1</ele>
        <time>2021-07-11T15:10:14Z</time>
      </trkpt>
      <trkpt lat="49.8338" lon="2.38858">
        <ele>65.1</ele>
        <time>2021-07-11T15:10:15Z</time>
      </trkpt>
      <trkpt lat="49.83381" lon="2.38858">
        <ele>65.1</ele>
        <time>2021-07-11T15:10:16Z</time>
      </trkpt>
      <trkpt lat="49.83383" lon="2.38858">
        <ele>65.2</ele>
        <time>2021-07-11T15:10:17Z</time>
      </trkpt>
      <trkpt lat="49.83384" lon="2.38858">
        <ele>65.2</ele>
        <time>2021-07-11T15:10:18Z</time>
      </trkpt>
      <trkpt lat="49.83386" lon="2.38859">
        <ele>65.3</ele>
        <time>2021-07-11T15:10:19Z</time>
      </trkpt>
      <trkpt lat="49.83387" lon="2.38859">
        <ele>65.3</ele>
        <time>2021-07-11T15:10:21Z</time>
      </trkpt>
      <trkpt lat="49.83388" lon="2.38859">
        <ele>65.3</ele>
        <time>2021-07-11T15:10:22Z</time>
      </trkpt>
      <trkpt lat="49.83389" lon="2.38859">
        <ele>65.4</ele>
        <time>2021-07-11T15:10:23Z</time>
      </trkpt>
      <trkpt lat="49.83391" lon="2.38859">
        <ele>65.4</ele>
        <time>2021-07-11T15:10:24Z</time>
      </trkpt>
      <trkpt lat="49.83393" lon="2.3886">
        <ele>65.5</ele>
        <time>2021-07-11T15:10:25Z</time>
      </trkpt>
      <trkpt lat="49.83394" lon="2.3886">
        <ele>65.5</ele>
        <time>2021-07-11T15:10:26Z</time>
      </trkpt>
      <trkpt lat="49.83395" lon="2.3886">
        <ele>65.5</ele>
        <time>2021-07-11T15:10:28Z</time>
      </trkpt>
      <trkpt lat="49.83396" lon="2.3886">
        <ele>65.5</ele>
        <time>2021-07-11T15:10:29Z</time>
      </trkpt>
      <trkpt lat="49.83397" lon="2.3886">
        <ele>65.6</ele>
        <time>2021-07-11T15:10:30Z</time>
      </trkpt>
      <trkpt lat="49.83398" lon="2.38861">
        <ele>65.6</ele>
        <time>2021-07-11T15:10:31Z</time>
      </trkpt>
      <trkpt lat="49.834" lon="2.38861">
        <ele>65.6</ele>
        <time>2021-07-11T15:10:32Z</time>
      </trkpt>
      <trkpt lat="49.83401" lon="2.38862">
        <ele>65.7</ele>
        <time>2021-07-11T15:10:34Z</time>
      </trkpt>
      <trkpt lat="49.83402" lon="2.38862">
        <ele>65.7</ele>
        <time>2021-07-11T15:10:35Z</time>
      </trkpt>
      <trkpt lat="49.83403" lon="2.38862">
        <ele>65.7</ele>
        <time>2021-07-11T15:10:36Z</time>
      </trkpt>
      <trkpt lat="49.83405" lon="2.38863">
        <ele>65.8</ele>
        <time>2021-07-11T15:10:37Z</time>
      </trkpt>
      <trkpt lat="49.83406" lon="2.38863">
        <ele>65.8</ele>
        <time>2021-07-11T15:10:38Z</time>
      </trkpt>
      <trkpt lat="49.83408" lon="2.38864">
        <ele>65.9</ele>
        <time>2021-07-11T15:10:39Z</time>
      </trkpt>
      <trkpt lat="49.83409" lon="2.38865">
        <ele>65.9</ele>
        <time>2021-07-11T15:10:41Z</time>
      </trkpt>
      <trkpt lat="49.8341" lon="2.38865">
        <ele>66</ele>
        <time>2021-07-11T15:10:42Z</time>
      </trkpt>
      <trkpt lat="49.83412" lon="2.38866">
        <ele>66</ele>
        <time>2021-07-11T15:10:43Z</time>
      </trkpt>
      <trkpt lat="49.83413" lon="2.38866">
        <ele>66.1</ele>
        <time>2021-07-11T15:10:44Z</time>
      </trkpt>
      <trkpt lat="49.83414" lon="2.38867">
        <ele>66.1</ele>
        <time>2021-07-11T15:10:45Z</time>
      </trkpt>
      <trkpt lat="49.83414" lon="2.38867">
        <ele>66.1</ele>
        <time>2021-07-11T15:10:46Z</time>
      </trkpt>
      <trkpt lat="49.83415" lon="2.38868">
        <ele>66.2</ele>
        <time>2021-07-11T15:10:48Z</time>
      </trkpt>
      <trkpt lat="49.83417" lon="2.38868">
        <ele>66.2</ele>
        <time>2021-07-11T15:10:49Z</time>
      </trkpt>
      <trkpt lat="49.83418" lon="2.38868">
        <ele>66.3</ele>
        <time>2021-07-11T15:10:50Z</time>
      </trkpt>
      <trkpt lat="49.8342" lon="2.38869">
        <ele>66.4</ele>
        <time>2021-07-11T15:10:51Z</time>
      </trkpt>
      <trkpt lat="49.83421" lon="2.38869">
        <ele>66.5</ele>
        <time>2021-07-11T15:10:52Z</time>
      </trkpt>
      <trkpt lat="49.83423" lon="2.38869">
        <ele>66.5</ele>
        <time>2021-07-11T15:10:54Z</time>
      </trkpt>
      <trkpt lat="49.83424" lon="2.3887">
        <ele>66.6</ele>
        <time>2021-07-11T15:10:55Z</time>
      </trkpt>
      <trkpt lat="49.83425" lon="2.3887">
        <ele>66.7</ele>
        <time>2021-07-11T15:10:56Z</time>
      </trkpt>
      <trkpt lat="49.83426" lon="2.3887">
        <ele>66.7</ele>
        <time>2021-07-11T15:10:57Z</time>
      </trkpt>
      <trkpt lat="49.83427" lon="2.3887">
        <ele>66.8</ele>
        <time>2021-07-11T15:10:58Z</time>
      </trkpt>
      <trkpt lat="49.83428" lon="2.3887">
        <ele>66.8</ele>
        <time>2021-07-11T15:11:00Z</time>
      </trkpt>
      <trkpt lat="49.83429" lon="2.3887">
        <ele>66.9</ele>
        <time>2021-07-11T15:11:01Z</time>
      </trkpt>
      <trkpt lat="49.8343" lon="2.38871">
        <ele>66.9</ele>
        <time>2021-07-11T15:11:02Z</time>
      </trkpt>
      <trkpt lat="49.83431" lon="2.38871">
        <ele>67</ele>
        <time>2021-07-11T15:11:03Z</time>
      </trkpt>
      <trkpt lat="49.83433" lon="2.38871">
        <ele>67.1</ele>
        <time>2021-07-11T15:11:04Z</time>
      </trkpt>
      <trkpt lat="49.83434" lon="2.38871">
        <ele>67.2</ele>
        <time>2021-07-11T15:11:06Z</time>
      </trkpt>
      <trkpt lat="49.83436" lon="2.38871">
        <ele>67.3</ele>
        <time>2021-07-11T15:11:07Z</time>
      </trkpt>
      <trkpt lat="49.83438" lon="2.38871">
        <ele>67.4</ele>
        <time>2021-07-11T15:11:08Z</time>
      </trkpt>
      <trkpt lat="49.8344" lon="2.38871">
        <ele>67.5</ele>
        <time>2021-07-11T15:11:09Z</time>
      </trkpt>
      <trkpt lat="49.83442" lon="2.38872">
        <ele>67.6</ele>
        <time>2021-07-11T15:11:11Z</time>
      </trkpt>
      <trkpt lat="49.83443" lon="2.38872">
        <ele>67.7</ele>
        <time>2021-07-11T15:11:12Z</time>
      </trkpt>
      <trkpt lat="49.83445" lon="2.38872">
        <ele>67.8</ele>
        <time>2021-07-11T15:11:13Z</time>
      </trkpt>
      <trkpt lat="49.83446" lon="2.38872">
        <ele>67.8</ele>
        <time>2021-07-11T15:11:14Z</time>
      </trkpt>
      <trkpt lat="49.83447" lon="2.38872">
        <ele>67.9</ele>
        <time>2021-07-11T15:11:15Z</time>
      </trkpt>
      <trkpt lat="49.83449" lon="2.38873">
        <ele>68</ele>
        <time>2021-07-11T15:11:17Z</time>
      </trkpt>
      <trkpt lat="49.8345" lon="2.38873">
        <ele>68</ele>
        <time>2021-07-11T15:11:18Z</time>
      </trkpt>
      <trkpt lat="49.8345" lon="2.38873">
        <ele>68.1</ele>
        <time>2021-07-11T15:11:19Z</time>
      </trkpt>
      <trkpt lat="49.83452" lon="2.38874">
        <ele>68.2</ele>
        <time>2021-07-11T15:11:20Z</time>
      </trkpt>
      <trkpt lat="49.83454" lon="2.38874">
        <ele>68.3</ele>
        <time>2021-07-11T15:11:22Z</time>
      </trkpt>
      <trkpt lat="49.83455" lon="2.38874">
        <ele>68.4</ele>
        <time>2021-07-11T15:11:23Z</time>
      </trkpt>
      <trkpt lat="49.83456" lon="2.38875">
        <ele>68.4</ele>
        <time>2021-07-11T15:11:24Z</time>
      </trkpt>
      <trkpt lat="49.83458" lon="2.38875">
        <ele>68.5</ele>
        <time>2021-07-11T15:11:25Z</time>
      </trkpt>
      <trkpt lat="49.83459" lon="2.38875">
        <ele>68.6</ele>
        <time>2021-07-11T15:11:27Z</time>
      </trkpt>
      <trkpt lat="49.8346" lon="2.38876">
        <ele>68.6</ele>
        <time>2021-07-11T15:11:28Z</time>
      </trkpt>
      <trkpt lat="49.83462" lon="2.38876">
        <ele>68.7</ele>
        <time>2021-07-11T15:11:30Z</time>
      </trkpt>
      <trkpt lat="49.83463" lon="2.38876">
        <ele>68.8</ele>
        <time>2021-07-11T15:11:31Z</time>
      </trkpt>
      <trkpt lat="49.83464" lon="2.38877">
        <ele>68.9</ele>
        <time>2021-07-11T15:11:32Z</time>
      </trkpt>
      <trkpt lat="49.83465" lon="2.38877">
        <ele>69</ele>
        <time>2021-07-11T15:11:34Z</time>
      </trkpt>
      <trkpt lat="49.83466" lon="2.38877">
        <ele>69</ele>
        <time>2021-07-11T15:11:35Z</time>
      </trkpt>
      <trkpt lat="49.83467" lon="2.38877">
        <ele>69.1</ele>
        <time>2021-07-11T15:11:36Z</time>
      </trkpt>
      <trkpt lat="49.83468" lon="2.38877">
        <ele>69.1</ele>
        <time>2021-07-11T15:11:37Z</time>
      </trkpt>
      <trkpt lat="49.83469" lon="2.38877">
        <ele>69.2</ele>
        <time>2021-07-11T15:11:39Z</time>
      </trkpt>
      <trkpt lat="49.8347" lon="2.38877">
        <ele>69.3</ele>
        <time>2021-07-11T15:11:40Z</time>
      </trkpt>
      <trkpt lat="49.83471" lon="2.38877">
        <ele>69.3</ele>
        <time>2021-07-11T15:11:41Z</time>
      </trkpt>
      <trkpt lat="49.83472" lon="2.38877">
        <ele>69.4</ele>
        <time>2021-07-11T15:11:42Z</time>
      </trkpt>
      <trkpt lat="49.83474" lon="2.38877">
        <ele>69.5</ele>
        <time>2021-07-11T15:11:44Z</time>
      </trkpt>
      <trkpt lat="49.83475" lon="2.38877">
        <ele>69.5</ele>
        <time>2021-07-11T15:11:45Z</time>
      </trkpt>
      <trkpt lat="49.83476" lon="2.38877">
        <ele>69.6</ele>
        <time>2021-07-11T15:11:46Z</time>
      </trkpt>
      <trkpt lat="49.83478" lon="2.38877">
        <ele>69.7</ele>
        <time>2021-07-11T15:11:47Z</time>
      </trkpt>
      <trkpt lat="49.83479" lon="2.38878">
        <ele>69.8</ele>
        <time>2021-07-11T15:11:49Z</time>
      </trkpt>
      <trkpt lat="49.8348" lon="2.38878">
        <ele>69.8</ele>
        <time>2021-07-11T15:11:50Z</time>
      </trkpt>
      <trkpt lat="49.83481" lon="2.38877">
        <ele>69.9</ele>
        <time>2021-07-11T15:11:51Z</time>
      </trkpt>
      <trkpt lat="49.83482" lon="2.38877">
        <ele>69.9</ele>
        <time>2021-07-11T15:11:52Z</time>
      </trkpt>
      <trkpt lat="49.83483" lon="2.38877">
        <ele>70</ele>
        <time>2021-07-11T15:11:54Z</time>
      </trkpt>
      <trkpt lat="49.83484" lon="2.38877">
        <ele>70.1</ele>
        <time>2021-07-11T15:11:55Z</time>
      </trkpt>
      <trkpt lat="49.83485" lon="2.38877">
        <ele>70.1</ele>
        <time>2021-07-11T15:11:56Z</time>
      </trkpt>
      <trkpt lat="49.83486" lon="2.38877">
        <ele>70.2</ele>
        <time>2021-07-11T15:11:57Z</time>
      </trkpt>
      <trkpt lat="49.83487" lon="2.38877">
        <ele>70.2</ele>
        <time>2021-07-11T15:11:59Z</time>
      </trkpt>
      <trkpt lat="49.83488" lon="2.38877">
        <ele>70.3</ele>
        <time>2021-07-11T15:12:00Z</time>
      </trkpt>
      <trkpt lat="49.83487" lon="2.38876">
        <ele>70.3</ele>
        <time>2021-07-11T15:12:01Z</time>
      </trkpt>
      <trkpt lat="49.83488" lon="2.38876">
        <ele>70.4</ele>
        <time>2021-07-11T15:12:02Z</time>
      </trkpt>
      <trkpt lat="49.83489" lon="2.38876">
        <ele>70.4</ele>
        <time>2021-07-11T15:12:04Z</time>
      </trkpt>
      <trkpt lat="49.83489" lon="2.38876">
        <ele>70.4</ele>
        <time>2021-07-11T15:12:05Z</time>
      </trkpt>
      <trkpt lat="49.8349" lon="2.38876">
        <ele>70.5</ele>
        <time>2021-07-11T15:12:06Z</time>
      </trkpt>
      <trkpt lat="49.83492" lon="2.38876">
        <ele>70.6</ele>
        <time>2021-07-11T15:12:07Z</time>
      </trkpt>
      <trkpt lat="49.83494" lon="2.38876">
        <ele>70.7</ele>
        <time>2021-07-11T15:12:09Z</time>
      </trkpt>
      <trkpt lat="49.83495" lon="2.38877">
        <ele>70.7</ele>
        <time>2021-07-11T15:12:10Z</time>
      </trkpt>
      <trkpt lat="49.83497" lon="2.38877">
        <ele>70.9</ele>
        <time>2021-07-11T15:12:12Z</time>
      </trkpt>
      <trkpt lat="49.83499" lon="2.38877">
        <ele>70.9</ele>
        <time>2021-07-11T15:12:13Z</time>
      </trkpt>
      <trkpt lat="49.83501" lon="2.38877">
        <ele>71</ele>
        <time>2021-07-11T15:12:14Z</time>
      </trkpt>
      <trkpt lat="49.83503" lon="2.38876">
        <ele>71.1</ele>
        <time>2021-07-11T15:12:16Z</time>
      </trkpt>
      <trkpt lat="49.83504" lon="2.38876">
        <ele>71.2</ele>
        <time>2021-07-11T15:12:17Z</time>
      </trkpt>
      <trkpt lat="49.83505" lon="2.38876">
        <ele>71.2</ele>
        <time>2021-07-11T15:12:18Z</time>
      </trkpt>
      <trkpt lat="49.83503" lon="2.38876">
        <ele>71.2</ele>
        <time>2021-07-11T15:12:19Z</time>
      </trkpt>
      <trkpt lat="49.83503" lon="2.38876">
        <ele>71.3</ele>
        <time>2021-07-11T15:12:20Z</time>
      </trkpt>
      <trkpt lat="49.83504" lon="2.38876">
        <ele>71.3</ele>
        <time>2021-07-11T15:12:21Z</time>
      </trkpt>
      <trkpt lat="49.83505" lon="2.38876">
        <ele>71.3</ele>
        <time>2021-07-11T15:12:23Z</time>
      </trkpt>
      <trkpt lat="49.83505" lon="2.38876">
        <ele>71.3</ele>
        <time>2021-07-11T15:12:24Z</time>
      </trkpt>
      <trkpt lat="49.83507" lon="2.38876">
        <ele>71.4</ele>
        <time>2021-07-11T15:12:26Z</time>
      </trkpt>
      <trkpt lat="49.83508" lon="2.38874">
        <ele>71.5</ele>
        <time>2021-07-11T15:12:27Z</time>
      </trkpt>
      <trkpt lat="49.83509" lon="2.38873">
        <ele>71.5</ele>
        <time>2021-07-11T15:12:29Z</time>
      </trkpt>
      <trkpt lat="49.8351" lon="2.38872">
        <ele>71.5</ele>
        <time>2021-07-11T15:12:30Z</time>
      </trkpt>
      <trkpt lat="49.83511" lon="2.38872">
        <ele>71.6</ele>
        <time>2021-07-11T15:12:31Z</time>
      </trkpt>
      <trkpt lat="49.83512" lon="2.38872">
        <ele>71.6</ele>
        <time>2021-07-11T15:12:33Z</time>
      </trkpt>
      <trkpt lat="49.83512" lon="2.38871">
        <ele>71.6</ele>
        <time>2021-07-11T15:12:34Z</time>
      </trkpt>
      <trkpt lat="49.83513" lon="2.3887">
        <ele>71.7</ele>
        <time>2021-07-11T15:12:35Z</time>
      </trkpt>
      <trkpt lat="49.83514" lon="2.38869">
        <ele>71.7</ele>
        <time>2021-07-11T15:12:37Z</time>
      </trkpt>
      <trkpt lat="49.83516" lon="2.38869">
        <ele>71.7</ele>
        <time>2021-07-11T15:12:38Z</time>
      </trkpt>
      <trkpt lat="49.83518" lon="2.38868">
        <ele>71.8</ele>
        <time>2021-07-11T15:12:39Z</time>
      </trkpt>
      <trkpt lat="49.83519" lon="2.38868">
        <ele>71.8</ele>
        <time>2021-07-11T15:12:41Z</time>
      </trkpt>
      <trkpt lat="49.83519" lon="2.38868">
        <ele>71.8</ele>
        <time>2021-07-11T15:12:42Z</time>
      </trkpt>
      <trkpt lat="49.83521" lon="2.38867">
        <ele>71.9</ele>
        <time>2021-07-11T15:12:43Z</time>
      </trkpt>
      <trkpt lat="49.83522" lon="2.38867">
        <ele>71.9</ele>
        <time>2021-07-11T15:12:44Z</time>
      </trkpt>
      <trkpt lat="49.83523" lon="2.38867">
        <ele>71.9</ele>
        <time>2021-07-11T15:12:46Z</time>
      </trkpt>
      <trkpt lat="49.83523" lon="2.38866">
        <ele>71.9</ele>
        <time>2021-07-11T15:12:47Z</time>
      </trkpt>
      <trkpt lat="49.83525" lon="2.38866">
        <ele>72</ele>
        <time>2021-07-11T15:12:48Z</time>
      </trkpt>
      <trkpt lat="49.83526" lon="2.38865">
        <ele>72</ele>
        <time>2021-07-11T15:12:50Z</time>
      </trkpt>
      <trkpt lat="49.83527" lon="2.38864">
        <ele>72</ele>
        <time>2021-07-11T15:12:51Z</time>
      </trkpt>
      <trkpt lat="49.83528" lon="2.38864">
        <ele>72</ele>
        <time>2021-07-11T15:12:52Z</time>
      </trkpt>
      <trkpt lat="49.83529" lon="2.38863">
        <ele>72</ele>
        <time>2021-07-11T15:12:53Z</time>
      </trkpt>
      <trkpt lat="49.8353" lon="2.38862">
        <ele>72</ele>
        <time>2021-07-11T15:12:54Z</time>
      </trkpt>
      <trkpt lat="49.83531" lon="2.38861">
        <ele>72</ele>
        <time>2021-07-11T15:12:55Z</time>
      </trkpt>
      <trkpt lat="49.83532" lon="2.38861">
        <ele>72</ele>
        <time>2021-07-11T15:12:57Z</time>
      </trkpt>
      <trkpt lat="49.83533" lon="2.38861">
        <ele>72</ele>
        <time>2021-07-11T15:12:58Z</time>
      </trkpt>
      <trkpt lat="49.83535" lon="2.38861">
        <ele>72.1</ele>
        <time>2021-07-11T15:12:59Z</time>
      </trkpt>
      <trkpt lat="49.83537" lon="2.3886">
        <ele>72.1</ele>
        <time>2021-07-11T15:13:01Z</time>
      </trkpt>
      <trkpt lat="49.83537" lon="2.3886">
        <ele>72.1</ele>
        <time>2021-07-11T15:13:02Z</time>
      </trkpt>
      <trkpt lat="49.83538" lon="2.38859">
        <ele>72.1</ele>
        <time>2021-07-11T15:13:03Z</time>
      </trkpt>
      <trkpt lat="49.83539" lon="2.38859">
        <ele>72.1</ele>
        <time>2021-07-11T15:13:04Z</time>
      </trkpt>
      <trkpt lat="49.8354" lon="2.38859">
        <ele>72.1</ele>
        <time>2021-07-11T15:13:06Z</time>
      </trkpt>
      <trkpt lat="49.83541" lon="2.38858">
        <ele>72</ele>
        <time>2021-07-11T15:13:07Z</time>
      </trkpt>
      <trkpt lat="49.83542" lon="2.38858">
        <ele>72</ele>
        <time>2021-07-11T15:13:08Z</time>
      </trkpt>
      <trkpt lat="49.83544" lon="2.38858">
        <ele>72</ele>
        <time>2021-07-11T15:13:09Z</time>
      </trkpt>
      <trkpt lat="49.83545" lon="2.38858">
        <ele>72</ele>
        <time>2021-07-11T15:13:11Z</time>
      </trkpt>
      <trkpt lat="49.83546" lon="2.38859">
        <ele>72</ele>
        <time>2021-07-11T15:13:12Z</time>
      </trkpt>
      <trkpt lat="49.83547" lon="2.38861">
        <ele>72</ele>
        <time>2021-07-11T15:13:14Z</time>
      </trkpt>
      <trkpt lat="49.83548" lon="2.38861">
        <ele>72</ele>
        <time>2021-07-11T15:13:15Z</time>
      </trkpt>
      <trkpt lat="49.83549" lon="2.38862">
        <ele>72</ele>
        <time>2021-07-11T15:13:17Z</time>
      </trkpt>
      <trkpt lat="49.83549" lon="2.38861">
        <ele>72</ele>
        <time>2021-07-11T15:13:18Z</time>
      </trkpt>
      <trkpt lat="49.83549" lon="2.38861">
        <ele>72</ele>
        <time>2021-07-11T15:13:20Z</time>
      </trkpt>
      <trkpt lat="49.8355" lon="2.38861">
        <ele>72</ele>
        <time>2021-07-11T15:13:22Z</time>
      </trkpt>
      <trkpt lat="49.8355" lon="2.3886">
        <ele>71.9</ele>
        <time>2021-07-11T15:13:23Z</time>
      </trkpt>
      <trkpt lat="49.8355" lon="2.3886">
        <ele>71.9</ele>
        <time>2021-07-11T15:13:25Z</time>
      </trkpt>
      <trkpt lat="49.8355" lon="2.3886">
        <ele>71.9</ele>
        <time>2021-07-11T15:13:26Z</time>
      </trkpt>
      <trkpt lat="49.83551" lon="2.38859">
        <ele>71.9</ele>
        <time>2021-07-11T15:13:28Z</time>
      </trkpt>
      <trkpt lat="49.83551" lon="2.38859">
        <ele>71.9</ele>
        <time>2021-07-11T15:13:30Z</time>
      </trkpt>
      <trkpt lat="49.83551" lon="2.38859">
        <ele>71.9</ele>
        <time>2021-07-11T15:13:31Z</time>
      </trkpt>
      <trkpt lat="49.83552" lon="2.38858">
        <ele>71.9</ele>
        <time>2021-07-11T15:13:33Z</time>
      </trkpt>
      <trkpt lat="49.83552" lon="2.38858">
        <ele>71.9</ele>
        <time>2021-07-11T15:13:34Z</time>
      </trkpt>
      <trkpt lat="49.83552" lon="2.38858">
        <ele>71.9</ele>
        <time>2021-07-11T15:13:36Z</time>
      </trkpt>
      <trkpt lat="49.83553" lon="2.38857">
        <ele>71.9</ele>
        <time>2021-07-11T15:13:37Z</time>
      </trkpt>
      <trkpt lat="49.83553" lon="2.38857">
        <ele>71.9</ele>
        <time>2021-07-11T15:13:38Z</time>
      </trkpt>
      <trkpt lat="49.83553" lon="2.38856">
        <ele>71.9</ele>
        <time>2021-07-11T15:13:39Z</time>
      </trkpt>
      <trkpt lat="49.83553" lon="2.38856">
        <ele>71.9</ele>
        <time>2021-07-11T15:13:41Z</time>
      </trkpt>
      <trkpt lat="49.83554" lon="2.38856">
        <ele>71.9</ele>
        <time>2021-07-11T15:13:42Z</time>
      </trkpt>
      <trkpt lat="49.83554" lon="2.38855">
        <ele>71.9</ele>
        <time>2021-07-11T15:13:43Z</time>
      </trkpt>
      <trkpt lat="49.83554" lon="2.38855">
        <ele>71.9</ele>
        <time>2021-07-11T15:13:44Z</time>
      </trkpt>
      <trkpt lat="49.83556" lon="2.38854">
        <ele>71.8</ele>
        <time>2021-07-11T15:13:46Z</time>
      </trkpt>
      <trkpt lat="49.83557" lon="2.38853">
        <ele>71.8</ele>
        <time>2021-07-11T15:13:47Z</time>
      </trkpt>
      <trkpt lat="49.83558" lon="2.38852">
        <ele>71.8</ele>
        <time>2021-07-11T15:13:48Z</time>
      </trkpt>
      <trkpt lat="49.83559" lon="2.38852">
        <ele>71.8</ele>
        <time>2021-07-11T15:13:49Z</time>
      </trkpt>
      <trkpt lat="49.83562" lon="2.3885">
        <ele>71.7</ele>
        <time>2021-07-11T15:13:51Z</time>
      </trkpt>
      <trkpt lat="49.83563" lon="2.3885">
        <ele>71.7</ele>
        <time>2021-07-11T15:13:52Z</time>
      </trkpt>
      <trkpt lat="49.83565" lon="2.38849">
        <ele>71.7</ele>
        <time>2021-07-11T15:13:54Z</time>
      </trkpt>
      <trkpt lat="49.83566" lon="2.38848">
        <ele>71.6</ele>
        <time>2021-07-11T15:13:55Z</time>
      </trkpt>
      <trkpt lat="49.83567" lon="2.38847">
        <ele>71.6</ele>
        <time>2021-07-11T15:13:56Z</time>
      </trkpt>
      <trkpt lat="49.83569" lon="2.38847">
        <ele>71.6</ele>
        <time>2021-07-11T15:13:57Z</time>
      </trkpt>
      <trkpt lat="49.8357" lon="2.38845">
        <ele>71.5</ele>
        <time>2021-07-11T15:13:58Z</time>
      </trkpt>
      <trkpt lat="49.83571" lon="2.38845">
        <ele>71.5</ele>
        <time>2021-07-11T15:14:00Z</time>
      </trkpt>
      <trkpt lat="49.83572" lon="2.38844">
        <ele>71.5</ele>
        <time>2021-07-11T15:14:01Z</time>
      </trkpt>
      <trkpt lat="49.83573" lon="2.38843">
        <ele>71.5</ele>
        <time>2021-07-11T15:14:02Z</time>
      </trkpt>
      <trkpt lat="49.83575" lon="2.38842">
        <ele>71.4</ele>
        <time>2021-07-11T15:14:04Z</time>
      </trkpt>
      <trkpt lat="49.83577" lon="2.3884">
        <ele>71.4</ele>
        <time>2021-07-11T15:14:05Z</time>
      </trkpt>
      <trkpt lat="49.83578" lon="2.3884">
        <ele>71.4</ele>
        <time>2021-07-11T15:14:06Z</time>
      </trkpt>
      <trkpt lat="49.83579" lon="2.38839">
        <ele>71.4</ele>
        <time>2021-07-11T15:14:07Z</time>
      </trkpt>
      <trkpt lat="49.8358" lon="2.38838">
        <ele>71.4</ele>
        <time>2021-07-11T15:14:08Z</time>
      </trkpt>
      <trkpt lat="49.83581" lon="2.38837">
        <ele>71.3</ele>
        <time>2021-07-11T15:14:09Z</time>
      </trkpt>
      <trkpt lat="49.83582" lon="2.38836">
        <ele>71.3</ele>
        <time>2021-07-11T15:14:11Z</time>
      </trkpt>
      <trkpt lat="49.83584" lon="2.38835">
        <ele>71.3</ele>
        <time>2021-07-11T15:14:12Z</time>
      </trkpt>
      <trkpt lat="49.83585" lon="2.38834">
        <ele>71.3</ele>
        <time>2021-07-11T15:14:13Z</time>
      </trkpt>
      <trkpt lat="49.83585" lon="2.38833">
        <ele>71.2</ele>
        <time>2021-07-11T15:14:14Z</time>
      </trkpt>
      <trkpt lat="49.83587" lon="2.38831">
        <ele>71.2</ele>
        <time>2021-07-11T15:14:15Z</time>
      </trkpt>
      <trkpt lat="49.83588" lon="2.3883">
        <ele>71.2</ele>
        <time>2021-07-11T15:14:17Z</time>
      </trkpt>
      <trkpt lat="49.83588" lon="2.38829">
        <ele>71.2</ele>
        <time>2021-07-11T15:14:18Z</time>
      </trkpt>
      <trkpt lat="49.83591" lon="2.38827">
        <ele>71.2</ele>
        <time>2021-07-11T15:14:19Z</time>
      </trkpt>
      <trkpt lat="49.83592" lon="2.38826">
        <ele>71.2</ele>
        <time>2021-07-11T15:14:21Z</time>
      </trkpt>
      <trkpt lat="49.83593" lon="2.38825">
        <ele>71.2</ele>
        <time>2021-07-11T15:14:22Z</time>
      </trkpt>
      <trkpt lat="49.83594" lon="2.38824">
        <ele>71.1</ele>
        <time>2021-07-11T15:14:23Z</time>
      </trkpt>
      <trkpt lat="49.83595" lon="2.38823">
        <ele>71.1</ele>
        <time>2021-07-11T15:14:24Z</time>
      </trkpt>
      <trkpt lat="49.83596" lon="2.38822">
        <ele>71.1</ele>
        <time>2021-07-11T15:14:25Z</time>
      </trkpt>
      <trkpt lat="49.83597" lon="2.38821">
        <ele>71.1</ele>
        <time>2021-07-11T15:14:27Z</time>
      </trkpt>
      <trkpt lat="49.83598" lon="2.3882">
        <ele>71.1</ele>
        <time>2021-07-11T15:14:28Z</time>
      </trkpt>
      <trkpt lat="49.83599" lon="2.38819">
        <ele>71.1</ele>
        <time>2021-07-11T15:14:29Z</time>
      </trkpt>
      <trkpt lat="49.836" lon="2.38819">
        <ele>71.1</ele>
        <time>2021-07-11T15:14:30Z</time>
      </trkpt>
      <trkpt lat="49.83602" lon="2.38817">
        <ele>71.1</ele>
        <time>2021-07-11T15:14:31Z</time>
      </trkpt>
      <trkpt lat="49.83603" lon="2.38817">
        <ele>71.1</ele>
        <time>2021-07-11T15:14:32Z</time>
      </trkpt>
      <trkpt lat="49.83603" lon="2.38816">
        <ele>71.1</ele>
        <time>2021-07-11T15:14:33Z</time>
      </trkpt>
      <trkpt lat="49.83604" lon="2.38815">
        <ele>71.1</ele>
        <time>2021-07-11T15:14:34Z</time>
      </trkpt>
      <trkpt lat="49.83605" lon="2.38814">
        <ele>71.1</ele>
        <time>2021-07-11T15:14:36Z</time>
      </trkpt>
      <trkpt lat="49.83606" lon="2.38813">
        <ele>71.1</ele>
        <time>2021-07-11T15:14:37Z</time>
      </trkpt>
      <trkpt lat="49.83608" lon="2.38812">
        <ele>71.1</ele>
        <time>2021-07-11T15:14:39Z</time>
      </trkpt>
      <trkpt lat="49.83609" lon="2.38811">
        <ele>71.1</ele>
        <time>2021-07-11T15:14:40Z</time>
      </trkpt>
      <trkpt lat="49.8361" lon="2.3881">
        <ele>71.1</ele>
        <time>2021-07-11T15:14:41Z</time>
      </trkpt>
      <trkpt lat="49.83611" lon="2.3881">
        <ele>71.1</ele>
        <time>2021-07-11T15:14:42Z</time>
      </trkpt>
      <trkpt lat="49.83612" lon="2.38809">
        <ele>71.1</ele>
        <time>2021-07-11T15:14:43Z</time>
      </trkpt>
      <trkpt lat="49.83613" lon="2.38808">
        <ele>71.1</ele>
        <time>2021-07-11T15:14:44Z</time>
      </trkpt>
      <trkpt lat="49.83614" lon="2.38807">
        <ele>71.1</ele>
        <time>2021-07-11T15:14:45Z</time>
      </trkpt>
      <trkpt lat="49.83615" lon="2.38806">
        <ele>71.1</ele>
        <time>2021-07-11T15:14:47Z</time>
      </trkpt>
      <trkpt lat="49.83616" lon="2.38805">
        <ele>71.1</ele>
        <time>2021-07-11T15:14:48Z</time>
      </trkpt>
      <trkpt lat="49.83617" lon="2.38804">
        <ele>71.1</ele>
        <time>2021-07-11T15:14:49Z</time>
      </trkpt>
      <trkpt lat="49.83618" lon="2.38804">
        <ele>71.1</ele>
        <time>2021-07-11T15:14:50Z</time>
      </trkpt>
      <trkpt lat="49.83619" lon="2.38803">
        <ele>71.1</ele>
        <time>2021-07-11T15:14:51Z</time>
      </trkpt>
      <trkpt lat="49.8362" lon="2.38801">
        <ele>71.1</ele>
        <time>2021-07-11T15:14:52Z</time>
      </trkpt>
      <trkpt lat="49.83622" lon="2.388">
        <ele>71.1</ele>
        <time>2021-07-11T15:14:53Z</time>
      </trkpt>
      <trkpt lat="49.83623" lon="2.38799">
        <ele>71.1</ele>
        <time>2021-07-11T15:14:55Z</time>
      </trkpt>
      <trkpt lat="49.83624" lon="2.38798">
        <ele>71.1</ele>
        <time>2021-07-11T15:14:56Z</time>
      </trkpt>
      <trkpt lat="49.83625" lon="2.38796">
        <ele>71.2</ele>
        <time>2021-07-11T15:14:57Z</time>
      </trkpt>
      <trkpt lat="49.83626" lon="2.38796">
        <ele>71.2</ele>
        <time>2021-07-11T15:14:58Z</time>
      </trkpt>
      <trkpt lat="49.83627" lon="2.38795">
        <ele>71.2</ele>
        <time>2021-07-11T15:14:59Z</time>
      </trkpt>
      <trkpt lat="49.83628" lon="2.38794">
        <ele>71.2</ele>
        <time>2021-07-11T15:15:00Z</time>
      </trkpt>
      <trkpt lat="49.83629" lon="2.38793">
        <ele>71.2</ele>
        <time>2021-07-11T15:15:02Z</time>
      </trkpt>
      <trkpt lat="49.8363" lon="2.38791">
        <ele>71.2</ele>
        <time>2021-07-11T15:15:03Z</time>
      </trkpt>
      <trkpt lat="49.83632" lon="2.3879">
        <ele>71.2</ele>
        <time>2021-07-11T15:15:04Z</time>
      </trkpt>
      <trkpt lat="49.83633" lon="2.38788">
        <ele>71.3</ele>
        <time>2021-07-11T15:15:05Z</time>
      </trkpt>
      <trkpt lat="49.83634" lon="2.38787">
        <ele>71.3</ele>
        <time>2021-07-11T15:15:06Z</time>
      </trkpt>
      <trkpt lat="49.83636" lon="2.38786">
        <ele>71.3</ele>
        <time>2021-07-11T15:15:07Z</time>
      </trkpt>
      <trkpt lat="49.83637" lon="2.38785">
        <ele>71.3</ele>
        <time>2021-07-11T15:15:08Z</time>
      </trkpt>
      <trkpt lat="49.83639" lon="2.38783">
        <ele>71.3</ele>
        <time>2021-07-11T15:15:10Z</time>
      </trkpt>
      <trkpt lat="49.83639" lon="2.38783">
        <ele>71.3</ele>
        <time>2021-07-11T15:15:11Z</time>
      </trkpt>
      <trkpt lat="49.8364" lon="2.38782">
        <ele>71.4</ele>
        <time>2021-07-11T15:15:12Z</time>
      </trkpt>
      <trkpt lat="49.83642" lon="2.3878">
        <ele>71.4</ele>
        <time>2021-07-11T15:15:13Z</time>
      </trkpt>
      <trkpt lat="49.83642" lon="2.38779">
        <ele>71.4</ele>
        <time>2021-07-11T15:15:14Z</time>
      </trkpt>
      <trkpt lat="49.83643" lon="2.38778">
        <ele>71.4</ele>
        <time>2021-07-11T15:15:15Z</time>
      </trkpt>
      <trkpt lat="49.83644" lon="2.38777">
        <ele>71.4</ele>
        <time>2021-07-11T15:15:17Z</time>
      </trkpt>
      <trkpt lat="49.83645" lon="2.38776">
        <ele>71.4</ele>
        <time>2021-07-11T15:15:18Z</time>
      </trkpt>
      <trkpt lat="49.83645" lon="2.38775">
        <ele>71.4</ele>
        <time>2021-07-11T15:15:19Z</time>
      </trkpt>
      <trkpt lat="49.83646" lon="2.38774">
        <ele>71.5</ele>
        <time>2021-07-11T15:15:20Z</time>
      </trkpt>
      <trkpt lat="49.83647" lon="2.38773">
        <ele>71.5</ele>
        <time>2021-07-11T15:15:21Z</time>
      </trkpt>
      <trkpt lat="49.83648" lon="2.38772">
        <ele>71.5</ele>
        <time>2021-07-11T15:15:22Z</time>
      </trkpt>
      <trkpt lat="49.8365" lon="2.3877">
        <ele>71.5</ele>
        <time>2021-07-11T15:15:24Z</time>
      </trkpt>
      <trkpt lat="49.8365" lon="2.38769">
        <ele>71.5</ele>
        <time>2021-07-11T15:15:25Z</time>
      </trkpt>
      <trkpt lat="49.83651" lon="2.38768">
        <ele>71.5</ele>
        <time>2021-07-11T15:15:26Z</time>
      </trkpt>
      <trkpt lat="49.83652" lon="2.38767">
        <ele>71.5</ele>
        <time>2021-07-11T15:15:27Z</time>
      </trkpt>
      <trkpt lat="49.83652" lon="2.38765">
        <ele>71.5</ele>
        <time>2021-07-11T15:15:28Z</time>
      </trkpt>
      <trkpt lat="49.83653" lon="2.38764">
        <ele>71.6</ele>
        <time>2021-07-11T15:15:29Z</time>
      </trkpt>
      <trkpt lat="49.83654" lon="2.38763">
        <ele>71.6</ele>
        <time>2021-07-11T15:15:31Z</time>
      </trkpt>
      <trkpt lat="49.83655" lon="2.38761">
        <ele>71.6</ele>
        <time>2021-07-11T15:15:32Z</time>
      </trkpt>
      <trkpt lat="49.83656" lon="2.3876">
        <ele>71.6</ele>
        <time>2021-07-11T15:15:33Z</time>
      </trkpt>
      <trkpt lat="49.83658" lon="2.38758">
        <ele>71.6</ele>
        <time>2021-07-11T15:15:34Z</time>
      </trkpt>
      <trkpt lat="49.83658" lon="2.38757">
        <ele>71.6</ele>
        <time>2021-07-11T15:15:35Z</time>
      </trkpt>
      <trkpt lat="49.83659" lon="2.38757">
        <ele>71.6</ele>
        <time>2021-07-11T15:15:36Z</time>
      </trkpt>
      <trkpt lat="49.83659" lon="2.38756">
        <ele>71.6</ele>
        <time>2021-07-11T15:15:38Z</time>
      </trkpt>
      <trkpt lat="49.8366" lon="2.38755">
        <ele>71.6</ele>
        <time>2021-07-11T15:15:39Z</time>
      </trkpt>
      <trkpt lat="49.8366" lon="2.38754">
        <ele>71.6</ele>
        <time>2021-07-11T15:15:40Z</time>
      </trkpt>
      <trkpt lat="49.83661" lon="2.38753">
        <ele>71.6</ele>
        <time>2021-07-11T15:15:41Z</time>
      </trkpt>
      <trkpt lat="49.83662" lon="2.38752">
        <ele>71.6</ele>
        <time>2021-07-11T15:15:42Z</time>
      </trkpt>
      <trkpt lat="49.83662" lon="2.38751">
        <ele>71.6</ele>
        <time>2021-07-11T15:15:43Z</time>
      </trkpt>
      <trkpt lat="49.83663" lon="2.3875">
        <ele>71.6</ele>
        <time>2021-07-11T15:15:45Z</time>
      </trkpt>
      <trkpt lat="49.83664" lon="2.38748">
        <ele>71.6</ele>
        <time>2021-07-11T15:15:46Z</time>
      </trkpt>
      <trkpt lat="49.83665" lon="2.38746">
        <ele>71.6</ele>
        <time>2021-07-11T15:15:48Z</time>
      </trkpt>
      <trkpt lat="49.83666" lon="2.38745">
        <ele>71.6</ele>
        <time>2021-07-11T15:15:49Z</time>
      </trkpt>
      <trkpt lat="49.83667" lon="2.38744">
        <ele>71.6</ele>
        <time>2021-07-11T15:15:50Z</time>
      </trkpt>
      <trkpt lat="49.83668" lon="2.38743">
        <ele>71.5</ele>
        <time>2021-07-11T15:15:51Z</time>
      </trkpt>
      <trkpt lat="49.83669" lon="2.38741">
        <ele>71.5</ele>
        <time>2021-07-11T15:15:52Z</time>
      </trkpt>
      <trkpt lat="49.8367" lon="2.3874">
        <ele>71.5</ele>
        <time>2021-07-11T15:15:54Z</time>
      </trkpt>
      <trkpt lat="49.83671" lon="2.38739">
        <ele>71.5</ele>
        <time>2021-07-11T15:15:55Z</time>
      </trkpt>
      <trkpt lat="49.83672" lon="2.38738">
        <ele>71.4</ele>
        <time>2021-07-11T15:15:56Z</time>
      </trkpt>
      <trkpt lat="49.83673" lon="2.38736">
        <ele>71.4</ele>
        <time>2021-07-11T15:15:58Z</time>
      </trkpt>
      <trkpt lat="49.83674" lon="2.38735">
        <ele>71.3</ele>
        <time>2021-07-11T15:15:59Z</time>
      </trkpt>
      <trkpt lat="49.83675" lon="2.38733">
        <ele>71.3</ele>
        <time>2021-07-11T15:16:01Z</time>
      </trkpt>
      <trkpt lat="49.83676" lon="2.38731">
        <ele>71.3</ele>
        <time>2021-07-11T15:16:02Z</time>
      </trkpt>
      <trkpt lat="49.83677" lon="2.3873">
        <ele>71.2</ele>
        <time>2021-07-11T15:16:03Z</time>
      </trkpt>
      <trkpt lat="49.83678" lon="2.38728">
        <ele>71.2</ele>
        <time>2021-07-11T15:16:05Z</time>
      </trkpt>
      <trkpt lat="49.8368" lon="2.38727">
        <ele>71.1</ele>
        <time>2021-07-11T15:16:06Z</time>
      </trkpt>
      <trkpt lat="49.83681" lon="2.38726">
        <ele>71.1</ele>
        <time>2021-07-11T15:16:07Z</time>
      </trkpt>
      <trkpt lat="49.83681" lon="2.38725">
        <ele>71</ele>
        <time>2021-07-11T15:16:08Z</time>
      </trkpt>
      <trkpt lat="49.83682" lon="2.38724">
        <ele>71</ele>
        <time>2021-07-11T15:16:09Z</time>
      </trkpt>
      <trkpt lat="49.83683" lon="2.38723">
        <ele>70.9</ele>
        <time>2021-07-11T15:16:10Z</time>
      </trkpt>
      <trkpt lat="49.83684" lon="2.38722">
        <ele>70.9</ele>
        <time>2021-07-11T15:16:12Z</time>
      </trkpt>
      <trkpt lat="49.83686" lon="2.3872">
        <ele>70.8</ele>
        <time>2021-07-11T15:16:13Z</time>
      </trkpt>
      <trkpt lat="49.83687" lon="2.3872">
        <ele>70.8</ele>
        <time>2021-07-11T15:16:14Z</time>
      </trkpt>
      <trkpt lat="49.83687" lon="2.38719">
        <ele>70.7</ele>
        <time>2021-07-11T15:16:15Z</time>
      </trkpt>
      <trkpt lat="49.83689" lon="2.38718">
        <ele>70.7</ele>
        <time>2021-07-11T15:16:16Z</time>
      </trkpt>
      <trkpt lat="49.8369" lon="2.38717">
        <ele>70.6</ele>
        <time>2021-07-11T15:16:17Z</time>
      </trkpt>
      <trkpt lat="49.83691" lon="2.38716">
        <ele>70.6</ele>
        <time>2021-07-11T15:16:19Z</time>
      </trkpt>
      <trkpt lat="49.83692" lon="2.38715">
        <ele>70.5</ele>
        <time>2021-07-11T15:16:20Z</time>
      </trkpt>
      <trkpt lat="49.83693" lon="2.38714">
        <ele>70.5</ele>
        <time>2021-07-11T15:16:21Z</time>
      </trkpt>
      <trkpt lat="49.83694" lon="2.38713">
        <ele>70.4</ele>
        <time>2021-07-11T15:16:22Z</time>
      </trkpt>
      <trkpt lat="49.83695" lon="2.38712">
        <ele>70.5</ele>
        <time>2021-07-11T15:16:23Z</time>
      </trkpt>
      <trkpt lat="49.83696" lon="2.38711">
        <ele>70.4</ele>
        <time>2021-07-11T15:16:25Z</time>
      </trkpt>
      <trkpt lat="49.83697" lon="2.3871">
        <ele>70.4</ele>
        <time>2021-07-11T15:16:26Z</time>
      </trkpt>
      <trkpt lat="49.83698" lon="2.3871">
        <ele>70.4</ele>
        <time>2021-07-11T15:16:27Z</time>
      </trkpt>
      <trkpt lat="49.83699" lon="2.3871">
        <ele>70.3</ele>
        <time>2021-07-11T15:16:28Z</time>
      </trkpt>
      <trkpt lat="49.837" lon="2.38709">
        <ele>70.3</ele>
        <time>2021-07-11T15:16:29Z</time>
      </trkpt>
      <trkpt lat="49.83702" lon="2.38709">
        <ele>70.2</ele>
        <time>2021-07-11T15:16:30Z</time>
      </trkpt>
      <trkpt lat="49.83702" lon="2.38708">
        <ele>70.2</ele>
        <time>2021-07-11T15:16:31Z</time>
      </trkpt>
      <trkpt lat="49.83703" lon="2.38708">
        <ele>70.2</ele>
        <time>2021-07-11T15:16:33Z</time>
      </trkpt>
      <trkpt lat="49.83705" lon="2.38707">
        <ele>70.1</ele>
        <time>2021-07-11T15:16:34Z</time>
      </trkpt>
      <trkpt lat="49.83706" lon="2.38707">
        <ele>70.1</ele>
        <time>2021-07-11T15:16:35Z</time>
      </trkpt>
      <trkpt lat="49.83708" lon="2.38706">
        <ele>70</ele>
        <time>2021-07-11T15:16:36Z</time>
      </trkpt>
      <trkpt lat="49.83709" lon="2.38705">
        <ele>70</ele>
        <time>2021-07-11T15:16:37Z</time>
      </trkpt>
      <trkpt lat="49.8371" lon="2.38705">
        <ele>69.9</ele>
        <time>2021-07-11T15:16:38Z</time>
      </trkpt>
      <trkpt lat="49.83711" lon="2.38703">
        <ele>69.8</ele>
        <time>2021-07-11T15:16:40Z</time>
      </trkpt>
      <trkpt lat="49.83712" lon="2.38703">
        <ele>69.8</ele>
        <time>2021-07-11T15:16:41Z</time>
      </trkpt>
      <trkpt lat="49.83713" lon="2.38702">
        <ele>69.8</ele>
        <time>2021-07-11T15:16:42Z</time>
      </trkpt>
      <trkpt lat="49.83714" lon="2.38701">
        <ele>69.7</ele>
        <time>2021-07-11T15:16:43Z</time>
      </trkpt>
      <trkpt lat="49.83716" lon="2.387">
        <ele>69.7</ele>
        <time>2021-07-11T15:16:44Z</time>
      </trkpt>
      <trkpt lat="49.83717" lon="2.38699">
        <ele>69.6</ele>
        <time>2021-07-11T15:16:45Z</time>
      </trkpt>
      <trkpt lat="49.83718" lon="2.38698">
        <ele>69.6</ele>
        <time>2021-07-11T15:16:46Z</time>
      </trkpt>
      <trkpt lat="49.8372" lon="2.38697">
        <ele>69.5</ele>
        <time>2021-07-11T15:16:48Z</time>
      </trkpt>
      <trkpt lat="49.83721" lon="2.38696">
        <ele>69.4</ele>
        <time>2021-07-11T15:16:49Z</time>
      </trkpt>
      <trkpt lat="49.83722" lon="2.38694">
        <ele>69.4</ele>
        <time>2021-07-11T15:16:50Z</time>
      </trkpt>
      <trkpt lat="49.83723" lon="2.38693">
        <ele>69.3</ele>
        <time>2021-07-11T15:16:51Z</time>
      </trkpt>
      <trkpt lat="49.83725" lon="2.38692">
        <ele>69.3</ele>
        <time>2021-07-11T15:16:52Z</time>
      </trkpt>
      <trkpt lat="49.83726" lon="2.38691">
        <ele>69.2</ele>
        <time>2021-07-11T15:16:53Z</time>
      </trkpt>
      <trkpt lat="49.83728" lon="2.3869">
        <ele>69.1</ele>
        <time>2021-07-11T15:16:55Z</time>
      </trkpt>
      <trkpt lat="49.83729" lon="2.38689">
        <ele>69.1</ele>
        <time>2021-07-11T15:16:56Z</time>
      </trkpt>
      <trkpt lat="49.8373" lon="2.38689">
        <ele>69</ele>
        <time>2021-07-11T15:16:57Z</time>
      </trkpt>
      <trkpt lat="49.83732" lon="2.38687">
        <ele>68.9</ele>
        <time>2021-07-11T15:16:58Z</time>
      </trkpt>
      <trkpt lat="49.83732" lon="2.38686">
        <ele>68.9</ele>
        <time>2021-07-11T15:16:59Z</time>
      </trkpt>
      <trkpt lat="49.83733" lon="2.38685">
        <ele>68.9</ele>
        <time>2021-07-11T15:17:00Z</time>
      </trkpt>
      <trkpt lat="49.83734" lon="2.38684">
        <ele>68.8</ele>
        <time>2021-07-11T15:17:01Z</time>
      </trkpt>
      <trkpt lat="49.83735" lon="2.38684">
        <ele>68.7</ele>
        <time>2021-07-11T15:17:03Z</time>
      </trkpt>
      <trkpt lat="49.83736" lon="2.38683">
        <ele>68.7</ele>
        <time>2021-07-11T15:17:04Z</time>
      </trkpt>
      <trkpt lat="49.83738" lon="2.38682">
        <ele>68.6</ele>
        <time>2021-07-11T15:17:05Z</time>
      </trkpt>
      <trkpt lat="49.83739" lon="2.38682">
        <ele>68.6</ele>
        <time>2021-07-11T15:17:06Z</time>
      </trkpt>
      <trkpt lat="49.8374" lon="2.38681">
        <ele>68.5</ele>
        <time>2021-07-11T15:17:07Z</time>
      </trkpt>
      <trkpt lat="49.83741" lon="2.3868">
        <ele>68.5</ele>
        <time>2021-07-11T15:17:08Z</time>
      </trkpt>
      <trkpt lat="49.83742" lon="2.3868">
        <ele>68.4</ele>
        <time>2021-07-11T15:17:09Z</time>
      </trkpt>
      <trkpt lat="49.83742" lon="2.38679">
        <ele>68.4</ele>
        <time>2021-07-11T15:17:11Z</time>
      </trkpt>
      <trkpt lat="49.83743" lon="2.38678">
        <ele>68.3</ele>
        <time>2021-07-11T15:17:12Z</time>
      </trkpt>
      <trkpt lat="49.83744" lon="2.38678">
        <ele>68.3</ele>
        <time>2021-07-11T15:17:13Z</time>
      </trkpt>
      <trkpt lat="49.83745" lon="2.38677">
        <ele>68.2</ele>
        <time>2021-07-11T15:17:14Z</time>
      </trkpt>
      <trkpt lat="49.83746" lon="2.38677">
        <ele>68.2</ele>
        <time>2021-07-11T15:17:15Z</time>
      </trkpt>
      <trkpt lat="49.83747" lon="2.38676">
        <ele>68.1</ele>
        <time>2021-07-11T15:17:16Z</time>
      </trkpt>
      <trkpt lat="49.83748" lon="2.38676">
        <ele>68.1</ele>
        <time>2021-07-11T15:17:17Z</time>
      </trkpt>
      <trkpt lat="49.83749" lon="2.38675">
        <ele>68</ele>
        <time>2021-07-11T15:17:19Z</time>
      </trkpt>
      <trkpt lat="49.8375" lon="2.38674">
        <ele>68</ele>
        <time>2021-07-11T15:17:20Z</time>
      </trkpt>
      <trkpt lat="49.83751" lon="2.38674">
        <ele>67.9</ele>
        <time>2021-07-11T15:17:21Z</time>
      </trkpt>
      <trkpt lat="49.83752" lon="2.38673">
        <ele>67.8</ele>
        <time>2021-07-11T15:17:22Z</time>
      </trkpt>
      <trkpt lat="49.83754" lon="2.38673">
        <ele>67.8</ele>
        <time>2021-07-11T15:17:23Z</time>
      </trkpt>
      <trkpt lat="49.83755" lon="2.38673">
        <ele>67.7</ele>
        <time>2021-07-11T15:17:24Z</time>
      </trkpt>
      <trkpt lat="49.83756" lon="2.38672">
        <ele>67.6</ele>
        <time>2021-07-11T15:17:25Z</time>
      </trkpt>
      <trkpt lat="49.83757" lon="2.38672">
        <ele>67.6</ele>
        <time>2021-07-11T15:17:27Z</time>
      </trkpt>
      <trkpt lat="49.83758" lon="2.38672">
        <ele>67.5</ele>
        <time>2021-07-11T15:17:28Z</time>
      </trkpt>
      <trkpt lat="49.8376" lon="2.38671">
        <ele>67.4</ele>
        <time>2021-07-11T15:17:29Z</time>
      </trkpt>
      <trkpt lat="49.83761" lon="2.38671">
        <ele>67.3</ele>
        <time>2021-07-11T15:17:30Z</time>
      </trkpt>
      <trkpt lat="49.83761" lon="2.3867">
        <ele>67.3</ele>
        <time>2021-07-11T15:17:31Z</time>
      </trkpt>
      <trkpt lat="49.83763" lon="2.3867">
        <ele>67.2</ele>
        <time>2021-07-11T15:17:32Z</time>
      </trkpt>
      <trkpt lat="49.83764" lon="2.38669">
        <ele>67.1</ele>
        <time>2021-07-11T15:17:33Z</time>
      </trkpt>
      <trkpt lat="49.83765" lon="2.38669">
        <ele>67</ele>
        <time>2021-07-11T15:17:35Z</time>
      </trkpt>
      <trkpt lat="49.83766" lon="2.38668">
        <ele>66.9</ele>
        <time>2021-07-11T15:17:36Z</time>
      </trkpt>
      <trkpt lat="49.83767" lon="2.38667">
        <ele>66.8</ele>
        <time>2021-07-11T15:17:37Z</time>
      </trkpt>
      <trkpt lat="49.83769" lon="2.38666">
        <ele>66.7</ele>
        <time>2021-07-11T15:17:38Z</time>
      </trkpt>
      <trkpt lat="49.8377" lon="2.38665">
        <ele>66.7</ele>
        <time>2021-07-11T15:17:39Z</time>
      </trkpt>
      <trkpt lat="49.83772" lon="2.38664">
        <ele>66.6</ele>
        <time>2021-07-11T15:17:40Z</time>
      </trkpt>
      <trkpt lat="49.83773" lon="2.38663">
        <ele>66.6</ele>
        <time>2021-07-11T15:17:42Z</time>
      </trkpt>
      <trkpt lat="49.83774" lon="2.38662">
        <ele>66.5</ele>
        <time>2021-07-11T15:17:43Z</time>
      </trkpt>
      <trkpt lat="49.83776" lon="2.38661">
        <ele>66.5</ele>
        <time>2021-07-11T15:17:44Z</time>
      </trkpt>
      <trkpt lat="49.83777" lon="2.3866">
        <ele>66.4</ele>
        <time>2021-07-11T15:17:45Z</time>
      </trkpt>
      <trkpt lat="49.83779" lon="2.38658">
        <ele>66.4</ele>
        <time>2021-07-11T15:17:47Z</time>
      </trkpt>
      <trkpt lat="49.8378" lon="2.38657">
        <ele>66.3</ele>
        <time>2021-07-11T15:17:48Z</time>
      </trkpt>
      <trkpt lat="49.83781" lon="2.38656">
        <ele>66.3</ele>
        <time>2021-07-11T15:17:49Z</time>
      </trkpt>
      <trkpt lat="49.83782" lon="2.38654">
        <ele>66.3</ele>
        <time>2021-07-11T15:17:50Z</time>
      </trkpt>
      <trkpt lat="49.83783" lon="2.38653">
        <ele>66.3</ele>
        <time>2021-07-11T15:17:51Z</time>
      </trkpt>
      <trkpt lat="49.83785" lon="2.38652">
        <ele>66.2</ele>
        <time>2021-07-11T15:17:52Z</time>
      </trkpt>
      <trkpt lat="49.83786" lon="2.3865">
        <ele>66.2</ele>
        <time>2021-07-11T15:17:54Z</time>
      </trkpt>
      <trkpt lat="49.83787" lon="2.38649">
        <ele>66.2</ele>
        <time>2021-07-11T15:17:55Z</time>
      </trkpt>
      <trkpt lat="49.83788" lon="2.38648">
        <ele>66.2</ele>
        <time>2021-07-11T15:17:56Z</time>
      </trkpt>
      <trkpt lat="49.83789" lon="2.38647">
        <ele>66.1</ele>
        <time>2021-07-11T15:17:57Z</time>
      </trkpt>
      <trkpt lat="49.8379" lon="2.38646">
        <ele>66.1</ele>
        <time>2021-07-11T15:17:58Z</time>
      </trkpt>
      <trkpt lat="49.83791" lon="2.38645">
        <ele>66.1</ele>
        <time>2021-07-11T15:17:59Z</time>
      </trkpt>
      <trkpt lat="49.83792" lon="2.38645">
        <ele>66.1</ele>
        <time>2021-07-11T15:18:00Z</time>
      </trkpt>
      <trkpt lat="49.83793" lon="2.38644">
        <ele>66.1</ele>
        <time>2021-07-11T15:18:02Z</time>
      </trkpt>
      <trkpt lat="49.83794" lon="2.38643">
        <ele>66.1</ele>
        <time>2021-07-11T15:18:03Z</time>
      </trkpt>
      <trkpt lat="49.83795" lon="2.38643">
        <ele>66</ele>
        <time>2021-07-11T15:18:04Z</time>
      </trkpt>
      <trkpt lat="49.83795" lon="2.38642">
        <ele>66</ele>
        <time>2021-07-11T15:18:05Z</time>
      </trkpt>
      <trkpt lat="49.83796" lon="2.38641">
        <ele>66</ele>
        <time>2021-07-11T15:18:06Z</time>
      </trkpt>
      <trkpt lat="49.83797" lon="2.38641">
        <ele>66</ele>
        <time>2021-07-11T15:18:07Z</time>
      </trkpt>
      <trkpt lat="49.83798" lon="2.3864">
        <ele>66</ele>
        <time>2021-07-11T15:18:09Z</time>
      </trkpt>
      <trkpt lat="49.83798" lon="2.3864">
        <ele>66</ele>
        <time>2021-07-11T15:18:10Z</time>
      </trkpt>
      <trkpt lat="49.83799" lon="2.38639">
        <ele>66</ele>
        <time>2021-07-11T15:18:11Z</time>
      </trkpt>
      <trkpt lat="49.83799" lon="2.38638">
        <ele>66</ele>
        <time>2021-07-11T15:18:12Z</time>
      </trkpt>
      <trkpt lat="49.838" lon="2.38637">
        <ele>65.9</ele>
        <time>2021-07-11T15:18:13Z</time>
      </trkpt>
      <trkpt lat="49.838" lon="2.38635">
        <ele>65.9</ele>
        <time>2021-07-11T15:18:14Z</time>
      </trkpt>
      <trkpt lat="49.83801" lon="2.38634">
        <ele>65.9</ele>
        <time>2021-07-11T15:18:15Z</time>
      </trkpt>
      <trkpt lat="49.83801" lon="2.38632">
        <ele>65.9</ele>
        <time>2021-07-11T15:18:17Z</time>
      </trkpt>
      <trkpt lat="49.83802" lon="2.38631">
        <ele>65.9</ele>
        <time>2021-07-11T15:18:18Z</time>
      </trkpt>
      <trkpt lat="49.83802" lon="2.38629">
        <ele>65.8</ele>
        <time>2021-07-11T15:18:19Z</time>
      </trkpt>
      <trkpt lat="49.83802" lon="2.38627">
        <ele>65.8</ele>
        <time>2021-07-11T15:18:20Z</time>
      </trkpt>
      <trkpt lat="49.83803" lon="2.38626">
        <ele>65.8</ele>
        <time>2021-07-11T15:18:21Z</time>
      </trkpt>
      <trkpt lat="49.83804" lon="2.38624">
        <ele>65.8</ele>
        <time>2021-07-11T15:18:22Z</time>
      </trkpt>
      <trkpt lat="49.83804" lon="2.38623">
        <ele>65.8</ele>
        <time>2021-07-11T15:18:23Z</time>
      </trkpt>
      <trkpt lat="49.83805" lon="2.38621">
        <ele>65.7</ele>
        <time>2021-07-11T15:18:25Z</time>
      </trkpt>
      <trkpt lat="49.83805" lon="2.38619">
        <ele>65.7</ele>
        <time>2021-07-11T15:18:26Z</time>
      </trkpt>
      <trkpt lat="49.83806" lon="2.38618">
        <ele>65.7</ele>
        <time>2021-07-11T15:18:27Z</time>
      </trkpt>
      <trkpt lat="49.83807" lon="2.38617">
        <ele>65.7</ele>
        <time>2021-07-11T15:18:28Z</time>
      </trkpt>
      <trkpt lat="49.83808" lon="2.38615">
        <ele>65.6</ele>
        <time>2021-07-11T15:18:29Z</time>
      </trkpt>
      <trkpt lat="49.83809" lon="2.38614">
        <ele>65.6</ele>
        <time>2021-07-11T15:18:31Z</time>
      </trkpt>
      <trkpt lat="49.8381" lon="2.38613">
        <ele>65.6</ele>
        <time>2021-07-11T15:18:32Z</time>
      </trkpt>
      <trkpt lat="49.83811" lon="2.38612">
        <ele>65.6</ele>
        <time>2021-07-11T15:18:33Z</time>
      </trkpt>
      <trkpt lat="49.83811" lon="2.38611">
        <ele>65.6</ele>
        <time>2021-07-11T15:18:34Z</time>
      </trkpt>
      <trkpt lat="49.83813" lon="2.3861">
        <ele>65.6</ele>
        <time>2021-07-11T15:18:35Z</time>
      </trkpt>
      <trkpt lat="49.83815" lon="2.38608">
        <ele>65.5</ele>
        <time>2021-07-11T15:18:36Z</time>
      </trkpt>
      <trkpt lat="49.83815" lon="2.38608">
        <ele>65.5</ele>
        <time>2021-07-11T15:18:38Z</time>
      </trkpt>
      <trkpt lat="49.83816" lon="2.38607">
        <ele>65.5</ele>
        <time>2021-07-11T15:18:39Z</time>
      </trkpt>
      <trkpt lat="49.83817" lon="2.38606">
        <ele>65.5</ele>
        <time>2021-07-11T15:18:40Z</time>
      </trkpt>
      <trkpt lat="49.83818" lon="2.38605">
        <ele>65.5</ele>
        <time>2021-07-11T15:18:41Z</time>
      </trkpt>
      <trkpt lat="49.83819" lon="2.38604">
        <ele>65.5</ele>
        <time>2021-07-11T15:18:42Z</time>
      </trkpt>
      <trkpt lat="49.8382" lon="2.38602">
        <ele>65.5</ele>
        <time>2021-07-11T15:18:43Z</time>
      </trkpt>
      <trkpt lat="49.83821" lon="2.38601">
        <ele>65.5</ele>
        <time>2021-07-11T15:18:44Z</time>
      </trkpt>
      <trkpt lat="49.83822" lon="2.386">
        <ele>65.5</ele>
        <time>2021-07-11T15:18:46Z</time>
      </trkpt>
      <trkpt lat="49.83823" lon="2.38598">
        <ele>65.4</ele>
        <time>2021-07-11T15:18:47Z</time>
      </trkpt>
      <trkpt lat="49.83824" lon="2.38597">
        <ele>65.4</ele>
        <time>2021-07-11T15:18:48Z</time>
      </trkpt>
      <trkpt lat="49.83825" lon="2.38596">
        <ele>65.4</ele>
        <time>2021-07-11T15:18:49Z</time>
      </trkpt>
      <trkpt lat="49.83826" lon="2.38595">
        <ele>65.4</ele>
        <time>2021-07-11T15:18:50Z</time>
      </trkpt>
      <trkpt lat="49.83828" lon="2.38593">
        <ele>65.4</ele>
        <time>2021-07-11T15:18:51Z</time>
      </trkpt>
      <trkpt lat="49.83828" lon="2.38593">
        <ele>65.4</ele>
        <time>2021-07-11T15:18:52Z</time>
      </trkpt>
      <trkpt lat="49.83829" lon="2.38592">
        <ele>65.4</ele>
        <time>2021-07-11T15:18:54Z</time>
      </trkpt>
      <trkpt lat="49.8383" lon="2.38592">
        <ele>65.4</ele>
        <time>2021-07-11T15:18:55Z</time>
      </trkpt>
      <trkpt lat="49.83831" lon="2.38592">
        <ele>65.4</ele>
        <time>2021-07-11T15:18:56Z</time>
      </trkpt>
      <trkpt lat="49.83831" lon="2.38591">
        <ele>65.4</ele>
        <time>2021-07-11T15:18:57Z</time>
      </trkpt>
      <trkpt lat="49.83832" lon="2.38591">
        <ele>65.4</ele>
        <time>2021-07-11T15:18:58Z</time>
      </trkpt>
      <trkpt lat="49.83833" lon="2.3859">
        <ele>65.4</ele>
        <time>2021-07-11T15:18:59Z</time>
      </trkpt>
      <trkpt lat="49.83834" lon="2.3859">
        <ele>65.4</ele>
        <time>2021-07-11T15:19:01Z</time>
      </trkpt>
      <trkpt lat="49.83835" lon="2.38589">
        <ele>65.4</ele>
        <time>2021-07-11T15:19:02Z</time>
      </trkpt>
      <trkpt lat="49.83836" lon="2.38589">
        <ele>65.4</ele>
        <time>2021-07-11T15:19:03Z</time>
      </trkpt>
      <trkpt lat="49.83837" lon="2.38589">
        <ele>65.4</ele>
        <time>2021-07-11T15:19:04Z</time>
      </trkpt>
      <trkpt lat="49.83838" lon="2.38588">
        <ele>65.4</ele>
        <time>2021-07-11T15:19:05Z</time>
      </trkpt>
      <trkpt lat="49.83839" lon="2.38588">
        <ele>65.5</ele>
        <time>2021-07-11T15:19:06Z</time>
      </trkpt>
      <trkpt lat="49.8384" lon="2.38587">
        <ele>65.5</ele>
        <time>2021-07-11T15:19:07Z</time>
      </trkpt>
      <trkpt lat="49.83841" lon="2.38587">
        <ele>65.5</ele>
        <time>2021-07-11T15:19:09Z</time>
      </trkpt>
      <trkpt lat="49.83842" lon="2.38586">
        <ele>65.5</ele>
        <time>2021-07-11T15:19:10Z</time>
      </trkpt>
      <trkpt lat="49.83844" lon="2.38585">
        <ele>65.5</ele>
        <time>2021-07-11T15:19:11Z</time>
      </trkpt>
      <trkpt lat="49.83844" lon="2.38584">
        <ele>65.5</ele>
        <time>2021-07-11T15:19:12Z</time>
      </trkpt>
      <trkpt lat="49.83845" lon="2.38584">
        <ele>65.5</ele>
        <time>2021-07-11T15:19:13Z</time>
      </trkpt>
      <trkpt lat="49.83846" lon="2.38583">
        <ele>65.5</ele>
        <time>2021-07-11T15:19:14Z</time>
      </trkpt>
      <trkpt lat="49.83848" lon="2.38582">
        <ele>65.5</ele>
        <time>2021-07-11T15:19:16Z</time>
      </trkpt>
      <trkpt lat="49.83849" lon="2.38582">
        <ele>65.5</ele>
        <time>2021-07-11T15:19:17Z</time>
      </trkpt>
      <trkpt lat="49.8385" lon="2.38581">
        <ele>65.5</ele>
        <time>2021-07-11T15:19:18Z</time>
      </trkpt>
      <trkpt lat="49.83851" lon="2.3858">
        <ele>65.5</ele>
        <time>2021-07-11T15:19:19Z</time>
      </trkpt>
      <trkpt lat="49.83852" lon="2.38579">
        <ele>65.5</ele>
        <time>2021-07-11T15:19:20Z</time>
      </trkpt>
      <trkpt lat="49.83853" lon="2.38579">
        <ele>65.5</ele>
        <time>2021-07-11T15:19:21Z</time>
      </trkpt>
      <trkpt lat="49.83854" lon="2.38578">
        <ele>65.5</ele>
        <time>2021-07-11T15:19:22Z</time>
      </trkpt>
      <trkpt lat="49.83855" lon="2.38578">
        <ele>65.5</ele>
        <time>2021-07-11T15:19:24Z</time>
      </trkpt>
      <trkpt lat="49.83856" lon="2.38577">
        <ele>65.4</ele>
        <time>2021-07-11T15:19:25Z</time>
      </trkpt>
      <trkpt lat="49.83857" lon="2.38577">
        <ele>65.4</ele>
        <time>2021-07-11T15:19:26Z</time>
      </trkpt>
      <trkpt lat="49.83858" lon="2.38576">
        <ele>65.4</ele>
        <time>2021-07-11T15:19:27Z</time>
      </trkpt>
      <trkpt lat="49.83859" lon="2.38575">
        <ele>65.4</ele>
        <time>2021-07-11T15:19:28Z</time>
      </trkpt>
      <trkpt lat="49.8386" lon="2.38574">
        <ele>65.4</ele>
        <time>2021-07-11T15:19:29Z</time>
      </trkpt>
      <trkpt lat="49.83861" lon="2.38573">
        <ele>65.4</ele>
        <time>2021-07-11T15:19:31Z</time>
      </trkpt>
      <trkpt lat="49.83862" lon="2.38572">
        <ele>65.4</ele>
        <time>2021-07-11T15:19:32Z</time>
      </trkpt>
      <trkpt lat="49.83864" lon="2.3857">
        <ele>65.3</ele>
        <time>2021-07-11T15:19:33Z</time>
      </trkpt>
      <trkpt lat="49.83865" lon="2.38569">
        <ele>65.3</ele>
        <time>2021-07-11T15:19:34Z</time>
      </trkpt>
      <trkpt lat="49.83866" lon="2.38569">
        <ele>65.3</ele>
        <time>2021-07-11T15:19:35Z</time>
      </trkpt>
      <trkpt lat="49.83867" lon="2.38568">
        <ele>65.3</ele>
        <time>2021-07-11T15:19:36Z</time>
      </trkpt>
      <trkpt lat="49.83868" lon="2.38567">
        <ele>65.2</ele>
        <time>2021-07-11T15:19:37Z</time>
      </trkpt>
      <trkpt lat="49.8387" lon="2.38566">
        <ele>65.2</ele>
        <time>2021-07-11T15:19:38Z</time>
      </trkpt>
      <trkpt lat="49.83871" lon="2.38565">
        <ele>65.2</ele>
        <time>2021-07-11T15:19:40Z</time>
      </trkpt>
      <trkpt lat="49.83872" lon="2.38564">
        <ele>65.2</ele>
        <time>2021-07-11T15:19:41Z</time>
      </trkpt>
      <trkpt lat="49.83874" lon="2.38563">
        <ele>65.1</ele>
        <time>2021-07-11T15:19:42Z</time>
      </trkpt>
      <trkpt lat="49.83874" lon="2.38563">
        <ele>65.1</ele>
        <time>2021-07-11T15:19:43Z</time>
      </trkpt>
      <trkpt lat="49.83875" lon="2.38562">
        <ele>65.1</ele>
        <time>2021-07-11T15:19:44Z</time>
      </trkpt>
      <trkpt lat="49.83876" lon="2.38561">
        <ele>65</ele>
        <time>2021-07-11T15:19:45Z</time>
      </trkpt>
      <trkpt lat="49.83877" lon="2.3856">
        <ele>65</ele>
        <time>2021-07-11T15:19:46Z</time>
      </trkpt>
      <trkpt lat="49.83878" lon="2.3856">
        <ele>65</ele>
        <time>2021-07-11T15:19:48Z</time>
      </trkpt>
      <trkpt lat="49.83879" lon="2.38559">
        <ele>65</ele>
        <time>2021-07-11T15:19:49Z</time>
      </trkpt>
      <trkpt lat="49.8388" lon="2.38559">
        <ele>64.9</ele>
        <time>2021-07-11T15:19:50Z</time>
      </trkpt>
      <trkpt lat="49.83881" lon="2.38558">
        <ele>64.9</ele>
        <time>2021-07-11T15:19:51Z</time>
      </trkpt>
      <trkpt lat="49.83882" lon="2.38557">
        <ele>64.9</ele>
        <time>2021-07-11T15:19:52Z</time>
      </trkpt>
      <trkpt lat="49.83883" lon="2.38556">
        <ele>64.9</ele>
        <time>2021-07-11T15:19:53Z</time>
      </trkpt>
      <trkpt lat="49.83884" lon="2.38555">
        <ele>64.8</ele>
        <time>2021-07-11T15:19:54Z</time>
      </trkpt>
      <trkpt lat="49.83886" lon="2.38554">
        <ele>64.8</ele>
        <time>2021-07-11T15:19:56Z</time>
      </trkpt>
      <trkpt lat="49.83886" lon="2.38553">
        <ele>64.7</ele>
        <time>2021-07-11T15:19:57Z</time>
      </trkpt>
      <trkpt lat="49.83887" lon="2.38552">
        <ele>64.7</ele>
        <time>2021-07-11T15:19:58Z</time>
      </trkpt>
      <trkpt lat="49.83888" lon="2.38551">
        <ele>64.7</ele>
        <time>2021-07-11T15:19:59Z</time>
      </trkpt>
      <trkpt lat="49.83889" lon="2.3855">
        <ele>64.7</ele>
        <time>2021-07-11T15:20:00Z</time>
      </trkpt>
      <trkpt lat="49.8389" lon="2.38549">
        <ele>64.6</ele>
        <time>2021-07-11T15:20:01Z</time>
      </trkpt>
      <trkpt lat="49.83891" lon="2.38548">
        <ele>64.6</ele>
        <time>2021-07-11T15:20:02Z</time>
      </trkpt>
      <trkpt lat="49.83892" lon="2.38546">
        <ele>64.5</ele>
        <time>2021-07-11T15:20:03Z</time>
      </trkpt>
      <trkpt lat="49.83894" lon="2.38544">
        <ele>64.5</ele>
        <time>2021-07-11T15:20:04Z</time>
      </trkpt>
      <trkpt lat="49.83895" lon="2.38543">
        <ele>64.4</ele>
        <time>2021-07-11T15:20:06Z</time>
      </trkpt>
      <trkpt lat="49.83895" lon="2.38542">
        <ele>64.4</ele>
        <time>2021-07-11T15:20:07Z</time>
      </trkpt>
      <trkpt lat="49.83897" lon="2.38541">
        <ele>64.3</ele>
        <time>2021-07-11T15:20:08Z</time>
      </trkpt>
      <trkpt lat="49.83898" lon="2.3854">
        <ele>64.3</ele>
        <time>2021-07-11T15:20:09Z</time>
      </trkpt>
      <trkpt lat="49.83899" lon="2.38539">
        <ele>64.3</ele>
        <time>2021-07-11T15:20:10Z</time>
      </trkpt>
      <trkpt lat="49.839" lon="2.38538">
        <ele>64.2</ele>
        <time>2021-07-11T15:20:11Z</time>
      </trkpt>
      <trkpt lat="49.83901" lon="2.38537">
        <ele>64.2</ele>
        <time>2021-07-11T15:20:12Z</time>
      </trkpt>
      <trkpt lat="49.83902" lon="2.38536">
        <ele>64.1</ele>
        <time>2021-07-11T15:20:13Z</time>
      </trkpt>
      <trkpt lat="49.83904" lon="2.38534">
        <ele>64.1</ele>
        <time>2021-07-11T15:20:15Z</time>
      </trkpt>
      <trkpt lat="49.83905" lon="2.38533">
        <ele>64</ele>
        <time>2021-07-11T15:20:16Z</time>
      </trkpt>
      <trkpt lat="49.83906" lon="2.38532">
        <ele>63.9</ele>
        <time>2021-07-11T15:20:17Z</time>
      </trkpt>
      <trkpt lat="49.83908" lon="2.38531">
        <ele>63.9</ele>
        <time>2021-07-11T15:20:18Z</time>
      </trkpt>
      <trkpt lat="49.83909" lon="2.38529">
        <ele>63.8</ele>
        <time>2021-07-11T15:20:19Z</time>
      </trkpt>
      <trkpt lat="49.8391" lon="2.38528">
        <ele>63.8</ele>
        <time>2021-07-11T15:20:20Z</time>
      </trkpt>
      <trkpt lat="49.83911" lon="2.38526">
        <ele>63.7</ele>
        <time>2021-07-11T15:20:21Z</time>
      </trkpt>
      <trkpt lat="49.83913" lon="2.38524">
        <ele>63.6</ele>
        <time>2021-07-11T15:20:22Z</time>
      </trkpt>
      <trkpt lat="49.83914" lon="2.38523">
        <ele>63.5</ele>
        <time>2021-07-11T15:20:24Z</time>
      </trkpt>
      <trkpt lat="49.83915" lon="2.38521">
        <ele>63.5</ele>
        <time>2021-07-11T15:20:25Z</time>
      </trkpt>
      <trkpt lat="49.83916" lon="2.38519">
        <ele>63.4</ele>
        <time>2021-07-11T15:20:26Z</time>
      </trkpt>
      <trkpt lat="49.83917" lon="2.38518">
        <ele>63.3</ele>
        <time>2021-07-11T15:20:27Z</time>
      </trkpt>
      <trkpt lat="49.83918" lon="2.38516">
        <ele>63.3</ele>
        <time>2021-07-11T15:20:28Z</time>
      </trkpt>
      <trkpt lat="49.83919" lon="2.38514">
        <ele>63.2</ele>
        <time>2021-07-11T15:20:29Z</time>
      </trkpt>
      <trkpt lat="49.8392" lon="2.38512">
        <ele>63.1</ele>
        <time>2021-07-11T15:20:30Z</time>
      </trkpt>
      <trkpt lat="49.83921" lon="2.38511">
        <ele>63</ele>
        <time>2021-07-11T15:20:31Z</time>
      </trkpt>
      <trkpt lat="49.83922" lon="2.38509">
        <ele>63</ele>
        <time>2021-07-11T15:20:33Z</time>
      </trkpt>
      <trkpt lat="49.83922" lon="2.38507">
        <ele>62.9</ele>
        <time>2021-07-11T15:20:34Z</time>
      </trkpt>
      <trkpt lat="49.83923" lon="2.38505">
        <ele>62.8</ele>
        <time>2021-07-11T15:20:35Z</time>
      </trkpt>
      <trkpt lat="49.83924" lon="2.38502">
        <ele>62.7</ele>
        <time>2021-07-11T15:20:36Z</time>
      </trkpt>
      <trkpt lat="49.83924" lon="2.38501">
        <ele>62.6</ele>
        <time>2021-07-11T15:20:37Z</time>
      </trkpt>
      <trkpt lat="49.83924" lon="2.38499">
        <ele>62.6</ele>
        <time>2021-07-11T15:20:38Z</time>
      </trkpt>
      <trkpt lat="49.83925" lon="2.38497">
        <ele>62.5</ele>
        <time>2021-07-11T15:20:39Z</time>
      </trkpt>
      <trkpt lat="49.83925" lon="2.38495">
        <ele>62.4</ele>
        <time>2021-07-11T15:20:41Z</time>
      </trkpt>
      <trkpt lat="49.83926" lon="2.38493">
        <ele>62.4</ele>
        <time>2021-07-11T15:20:42Z</time>
      </trkpt>
      <trkpt lat="49.83926" lon="2.38491">
        <ele>62.3</ele>
        <time>2021-07-11T15:20:43Z</time>
      </trkpt>
      <trkpt lat="49.83927" lon="2.38488">
        <ele>62.2</ele>
        <time>2021-07-11T15:20:44Z</time>
      </trkpt>
      <trkpt lat="49.83927" lon="2.38487">
        <ele>62.1</ele>
        <time>2021-07-11T15:20:45Z</time>
      </trkpt>
      <trkpt lat="49.83928" lon="2.38486">
        <ele>62.1</ele>
        <time>2021-07-11T15:20:46Z</time>
      </trkpt>
      <trkpt lat="49.83928" lon="2.38483">
        <ele>62</ele>
        <time>2021-07-11T15:20:47Z</time>
      </trkpt>
      <trkpt lat="49.83929" lon="2.38481">
        <ele>62</ele>
        <time>2021-07-11T15:20:49Z</time>
      </trkpt>
      <trkpt lat="49.83929" lon="2.3848">
        <ele>61.9</ele>
        <time>2021-07-11T15:20:50Z</time>
      </trkpt>
      <trkpt lat="49.8393" lon="2.38477">
        <ele>61.8</ele>
        <time>2021-07-11T15:20:51Z</time>
      </trkpt>
      <trkpt lat="49.8393" lon="2.38476">
        <ele>61.8</ele>
        <time>2021-07-11T15:20:52Z</time>
      </trkpt>
      <trkpt lat="49.8393" lon="2.38475">
        <ele>61.7</ele>
        <time>2021-07-11T15:20:53Z</time>
      </trkpt>
      <trkpt lat="49.8393" lon="2.38472">
        <ele>61.7</ele>
        <time>2021-07-11T15:20:54Z</time>
      </trkpt>
      <trkpt lat="49.83931" lon="2.3847">
        <ele>61.6</ele>
        <time>2021-07-11T15:20:55Z</time>
      </trkpt>
      <trkpt lat="49.83931" lon="2.38467">
        <ele>61.5</ele>
        <time>2021-07-11T15:20:57Z</time>
      </trkpt>
      <trkpt lat="49.83931" lon="2.38466">
        <ele>61.5</ele>
        <time>2021-07-11T15:20:58Z</time>
      </trkpt>
      <trkpt lat="49.83931" lon="2.38465">
        <ele>61.5</ele>
        <time>2021-07-11T15:20:59Z</time>
      </trkpt>
      <trkpt lat="49.83931" lon="2.38463">
        <ele>61.4</ele>
        <time>2021-07-11T15:21:00Z</time>
      </trkpt>
      <trkpt lat="49.83931" lon="2.38461">
        <ele>61.4</ele>
        <time>2021-07-11T15:21:01Z</time>
      </trkpt>
      <trkpt lat="49.83931" lon="2.3846">
        <ele>61.3</ele>
        <time>2021-07-11T15:21:02Z</time>
      </trkpt>
      <trkpt lat="49.83931" lon="2.38458">
        <ele>61.3</ele>
        <time>2021-07-11T15:21:03Z</time>
      </trkpt>
      <trkpt lat="49.83931" lon="2.38457">
        <ele>61.3</ele>
        <time>2021-07-11T15:21:04Z</time>
      </trkpt>
      <trkpt lat="49.83931" lon="2.38455">
        <ele>61.2</ele>
        <time>2021-07-11T15:21:06Z</time>
      </trkpt>
      <trkpt lat="49.83931" lon="2.38454">
        <ele>61.2</ele>
        <time>2021-07-11T15:21:07Z</time>
      </trkpt>
      <trkpt lat="49.83931" lon="2.38452">
        <ele>61.2</ele>
        <time>2021-07-11T15:21:08Z</time>
      </trkpt>
      <trkpt lat="49.83932" lon="2.38451">
        <ele>61.2</ele>
        <time>2021-07-11T15:21:09Z</time>
      </trkpt>
      <trkpt lat="49.83932" lon="2.38448">
        <ele>61.1</ele>
        <time>2021-07-11T15:21:10Z</time>
      </trkpt>
      <trkpt lat="49.83933" lon="2.38447">
        <ele>61.1</ele>
        <time>2021-07-11T15:21:11Z</time>
      </trkpt>
      <trkpt lat="49.83933" lon="2.38446">
        <ele>61.1</ele>
        <time>2021-07-11T15:21:12Z</time>
      </trkpt>
      <trkpt lat="49.83934" lon="2.38443">
        <ele>61.1</ele>
        <time>2021-07-11T15:21:14Z</time>
      </trkpt>
      <trkpt lat="49.83935" lon="2.38442">
        <ele>61.1</ele>
        <time>2021-07-11T15:21:15Z</time>
      </trkpt>
      <trkpt lat="49.83935" lon="2.38441">
        <ele>61.1</ele>
        <time>2021-07-11T15:21:16Z</time>
      </trkpt>
      <trkpt lat="49.83936" lon="2.38438">
        <ele>61</ele>
        <time>2021-07-11T15:21:17Z</time>
      </trkpt>
      <trkpt lat="49.83937" lon="2.38437">
        <ele>61</ele>
        <time>2021-07-11T15:21:18Z</time>
      </trkpt>
      <trkpt lat="49.83937" lon="2.38436">
        <ele>61</ele>
        <time>2021-07-11T15:21:19Z</time>
      </trkpt>
      <trkpt lat="49.83939" lon="2.38433">
        <ele>61</ele>
        <time>2021-07-11T15:21:21Z</time>
      </trkpt>
      <trkpt lat="49.83939" lon="2.38432">
        <ele>61</ele>
        <time>2021-07-11T15:21:22Z</time>
      </trkpt>
      <trkpt lat="49.8394" lon="2.38431">
        <ele>61</ele>
        <time>2021-07-11T15:21:23Z</time>
      </trkpt>
      <trkpt lat="49.83941" lon="2.3843">
        <ele>61</ele>
        <time>2021-07-11T15:21:24Z</time>
      </trkpt>
      <trkpt lat="49.83941" lon="2.38429">
        <ele>61</ele>
        <time>2021-07-11T15:21:25Z</time>
      </trkpt>
      <trkpt lat="49.83942" lon="2.38428">
        <ele>61</ele>
        <time>2021-07-11T15:21:26Z</time>
      </trkpt>
      <trkpt lat="49.83943" lon="2.38426">
        <ele>61</ele>
        <time>2021-07-11T15:21:27Z</time>
      </trkpt>
      <trkpt lat="49.83944" lon="2.38425">
        <ele>61</ele>
        <time>2021-07-11T15:21:29Z</time>
      </trkpt>
      <trkpt lat="49.83945" lon="2.38424">
        <ele>61</ele>
        <time>2021-07-11T15:21:30Z</time>
      </trkpt>
      <trkpt lat="49.83945" lon="2.38424">
        <ele>61</ele>
        <time>2021-07-11T15:21:31Z</time>
      </trkpt>
      <trkpt lat="49.83946" lon="2.38423">
        <ele>61</ele>
        <time>2021-07-11T15:21:32Z</time>
      </trkpt>
      <trkpt lat="49.83947" lon="2.38422">
        <ele>61</ele>
        <time>2021-07-11T15:21:33Z</time>
      </trkpt>
      <trkpt lat="49.83948" lon="2.38421">
        <ele>61</ele>
        <time>2021-07-11T15:21:34Z</time>
      </trkpt>
      <trkpt lat="49.83949" lon="2.38421">
        <ele>61</ele>
        <time>2021-07-11T15:21:35Z</time>
      </trkpt>
      <trkpt lat="49.8395" lon="2.3842">
        <ele>61.1</ele>
        <time>2021-07-11T15:21:37Z</time>
      </trkpt>
      <trkpt lat="49.83951" lon="2.38419">
        <ele>61.1</ele>
        <time>2021-07-11T15:21:38Z</time>
      </trkpt>
      <trkpt lat="49.83952" lon="2.38419">
        <ele>61.1</ele>
        <time>2021-07-11T15:21:39Z</time>
      </trkpt>
      <trkpt lat="49.83953" lon="2.38419">
        <ele>61.1</ele>
        <time>2021-07-11T15:21:40Z</time>
      </trkpt>
      <trkpt lat="49.83954" lon="2.38418">
        <ele>61.1</ele>
        <time>2021-07-11T15:21:41Z</time>
      </trkpt>
      <trkpt lat="49.83956" lon="2.38418">
        <ele>61.1</ele>
        <time>2021-07-11T15:21:42Z</time>
      </trkpt>
      <trkpt lat="49.83957" lon="2.38418">
        <ele>61.1</ele>
        <time>2021-07-11T15:21:44Z</time>
      </trkpt>
      <trkpt lat="49.83959" lon="2.38417">
        <ele>61.1</ele>
        <time>2021-07-11T15:21:45Z</time>
      </trkpt>
      <trkpt lat="49.8396" lon="2.38417">
        <ele>61.2</ele>
        <time>2021-07-11T15:21:46Z</time>
      </trkpt>
      <trkpt lat="49.83961" lon="2.38417">
        <ele>61.2</ele>
        <time>2021-07-11T15:21:47Z</time>
      </trkpt>
      <trkpt lat="49.83963" lon="2.38415">
        <ele>61.2</ele>
        <time>2021-07-11T15:21:48Z</time>
      </trkpt>
      <trkpt lat="49.83963" lon="2.38414">
        <ele>61.2</ele>
        <time>2021-07-11T15:21:49Z</time>
      </trkpt>
      <trkpt lat="49.83964" lon="2.38414">
        <ele>61.2</ele>
        <time>2021-07-11T15:21:51Z</time>
      </trkpt>
      <trkpt lat="49.83965" lon="2.38413">
        <ele>61.3</ele>
        <time>2021-07-11T15:21:52Z</time>
      </trkpt>
      <trkpt lat="49.83966" lon="2.38412">
        <ele>61.3</ele>
        <time>2021-07-11T15:21:53Z</time>
      </trkpt>
      <trkpt lat="49.83967" lon="2.38412">
        <ele>61.3</ele>
        <time>2021-07-11T15:21:54Z</time>
      </trkpt>
      <trkpt lat="49.83968" lon="2.38411">
        <ele>61.3</ele>
        <time>2021-07-11T15:21:55Z</time>
      </trkpt>
      <trkpt lat="49.8397" lon="2.3841">
        <ele>61.4</ele>
        <time>2021-07-11T15:21:56Z</time>
      </trkpt>
      <trkpt lat="49.83971" lon="2.38409">
        <ele>61.4</ele>
        <time>2021-07-11T15:21:57Z</time>
      </trkpt>
      <trkpt lat="49.83972" lon="2.38409">
        <ele>61.5</ele>
        <time>2021-07-11T15:21:59Z</time>
      </trkpt>
      <trkpt lat="49.83973" lon="2.38409">
        <ele>61.5</ele>
        <time>2021-07-11T15:22:00Z</time>
      </trkpt>
      <trkpt lat="49.83974" lon="2.38408">
        <ele>61.5</ele>
        <time>2021-07-11T15:22:01Z</time>
      </trkpt>
      <trkpt lat="49.83976" lon="2.38407">
        <ele>61.6</ele>
        <time>2021-07-11T15:22:02Z</time>
      </trkpt>
      <trkpt lat="49.83977" lon="2.38406">
        <ele>61.6</ele>
        <time>2021-07-11T15:22:03Z</time>
      </trkpt>
      <trkpt lat="49.83979" lon="2.38405">
        <ele>61.7</ele>
        <time>2021-07-11T15:22:04Z</time>
      </trkpt>
      <trkpt lat="49.8398" lon="2.38404">
        <ele>61.7</ele>
        <time>2021-07-11T15:22:06Z</time>
      </trkpt>
      <trkpt lat="49.83981" lon="2.38404">
        <ele>61.8</ele>
        <time>2021-07-11T15:22:07Z</time>
      </trkpt>
      <trkpt lat="49.83983" lon="2.38403">
        <ele>61.9</ele>
        <time>2021-07-11T15:22:08Z</time>
      </trkpt>
      <trkpt lat="49.83984" lon="2.38402">
        <ele>62</ele>
        <time>2021-07-11T15:22:09Z</time>
      </trkpt>
      <trkpt lat="49.83985" lon="2.38401">
        <ele>62</ele>
        <time>2021-07-11T15:22:10Z</time>
      </trkpt>
      <trkpt lat="49.83986" lon="2.384">
        <ele>62.1</ele>
        <time>2021-07-11T15:22:11Z</time>
      </trkpt>
      <trkpt lat="49.83986" lon="2.384">
        <ele>62.1</ele>
        <time>2021-07-11T15:22:13Z</time>
      </trkpt>
      <trkpt lat="49.83986" lon="2.384">
        <ele>62.2</ele>
        <time>2021-07-11T15:22:14Z</time>
      </trkpt>
      <trkpt lat="49.83987" lon="2.38399">
        <ele>62.2</ele>
        <time>2021-07-11T15:22:15Z</time>
      </trkpt>
      <trkpt lat="49.83988" lon="2.38398">
        <ele>62.3</ele>
        <time>2021-07-11T15:22:16Z</time>
      </trkpt>
      <trkpt lat="49.83989" lon="2.38397">
        <ele>62.4</ele>
        <time>2021-07-11T15:22:17Z</time>
      </trkpt>
      <trkpt lat="49.8399" lon="2.38397">
        <ele>62.5</ele>
        <time>2021-07-11T15:22:19Z</time>
      </trkpt>
      <trkpt lat="49.83991" lon="2.38396">
        <ele>62.6</ele>
        <time>2021-07-11T15:22:20Z</time>
      </trkpt>
      <trkpt lat="49.83992" lon="2.38395">
        <ele>62.6</ele>
        <time>2021-07-11T15:22:21Z</time>
      </trkpt>
      <trkpt lat="49.83994" lon="2.38395">
        <ele>62.8</ele>
        <time>2021-07-11T15:22:22Z</time>
      </trkpt>
      <trkpt lat="49.83996" lon="2.38393">
        <ele>62.9</ele>
        <time>2021-07-11T15:22:23Z</time>
      </trkpt>
      <trkpt lat="49.83996" lon="2.38393">
        <ele>63</ele>
        <time>2021-07-11T15:22:25Z</time>
      </trkpt>
      <trkpt lat="49.83997" lon="2.38392">
        <ele>63.1</ele>
        <time>2021-07-11T15:22:26Z</time>
      </trkpt>
      <trkpt lat="49.84" lon="2.38391">
        <ele>63.3</ele>
        <time>2021-07-11T15:22:28Z</time>
      </trkpt>
      <trkpt lat="49.84002" lon="2.3839">
        <ele>63.5</ele>
        <time>2021-07-11T15:22:29Z</time>
      </trkpt>
      <trkpt lat="49.84003" lon="2.38389">
        <ele>63.6</ele>
        <time>2021-07-11T15:22:30Z</time>
      </trkpt>
      <trkpt lat="49.84004" lon="2.38388">
        <ele>63.8</ele>
        <time>2021-07-11T15:22:31Z</time>
      </trkpt>
      <trkpt lat="49.84005" lon="2.38387">
        <ele>63.9</ele>
        <time>2021-07-11T15:22:32Z</time>
      </trkpt>
      <trkpt lat="49.84007" lon="2.38387">
        <ele>64.1</ele>
        <time>2021-07-11T15:22:33Z</time>
      </trkpt>
      <trkpt lat="49.84008" lon="2.38386">
        <ele>64.2</ele>
        <time>2021-07-11T15:22:35Z</time>
      </trkpt>
      <trkpt lat="49.84009" lon="2.38384">
        <ele>64.3</ele>
        <time>2021-07-11T15:22:36Z</time>
      </trkpt>
      <trkpt lat="49.84011" lon="2.38382">
        <ele>64.5</ele>
        <time>2021-07-11T15:22:38Z</time>
      </trkpt>
      <trkpt lat="49.84012" lon="2.38381">
        <ele>64.7</ele>
        <time>2021-07-11T15:22:39Z</time>
      </trkpt>
      <trkpt lat="49.84014" lon="2.3838">
        <ele>64.8</ele>
        <time>2021-07-11T15:22:40Z</time>
      </trkpt>
      <trkpt lat="49.84015" lon="2.38378">
        <ele>65</ele>
        <time>2021-07-11T15:22:42Z</time>
      </trkpt>
      <trkpt lat="49.84016" lon="2.38377">
        <ele>65.1</ele>
        <time>2021-07-11T15:22:43Z</time>
      </trkpt>
      <trkpt lat="49.84017" lon="2.38376">
        <ele>65.2</ele>
        <time>2021-07-11T15:22:44Z</time>
      </trkpt>
      <trkpt lat="49.84019" lon="2.38375">
        <ele>65.4</ele>
        <time>2021-07-11T15:22:46Z</time>
      </trkpt>
      <trkpt lat="49.8402" lon="2.38375">
        <ele>65.5</ele>
        <time>2021-07-11T15:22:47Z</time>
      </trkpt>
      <trkpt lat="49.84021" lon="2.38374">
        <ele>65.6</ele>
        <time>2021-07-11T15:22:48Z</time>
      </trkpt>
      <trkpt lat="49.84022" lon="2.38373">
        <ele>65.7</ele>
        <time>2021-07-11T15:22:50Z</time>
      </trkpt>
      <trkpt lat="49.84023" lon="2.38372">
        <ele>65.8</ele>
        <time>2021-07-11T15:22:51Z</time>
      </trkpt>
      <trkpt lat="49.84023" lon="2.38371">
        <ele>65.9</ele>
        <time>2021-07-11T15:22:52Z</time>
      </trkpt>
      <trkpt lat="49.84023" lon="2.3837">
        <ele>65.9</ele>
        <time>2021-07-11T15:22:54Z</time>
      </trkpt>
      <trkpt lat="49.84023" lon="2.3837">
        <ele>66</ele>
        <time>2021-07-11T15:22:55Z</time>
      </trkpt>
      <trkpt lat="49.84025" lon="2.38368">
        <ele>66.2</ele>
        <time>2021-07-11T15:22:57Z</time>
      </trkpt>
      <trkpt lat="49.84027" lon="2.38367">
        <ele>66.3</ele>
        <time>2021-07-11T15:22:58Z</time>
      </trkpt>
      <trkpt lat="49.84028" lon="2.38367">
        <ele>66.4</ele>
        <time>2021-07-11T15:22:59Z</time>
      </trkpt>
      <trkpt lat="49.84029" lon="2.38366">
        <ele>66.5</ele>
        <time>2021-07-11T15:23:01Z</time>
      </trkpt>
      <trkpt lat="49.84029" lon="2.38366">
        <ele>66.5</ele>
        <time>2021-07-11T15:23:02Z</time>
      </trkpt>
      <trkpt lat="49.8403" lon="2.38365">
        <ele>66.6</ele>
        <time>2021-07-11T15:23:03Z</time>
      </trkpt>
      <trkpt lat="49.84031" lon="2.38364">
        <ele>66.7</ele>
        <time>2021-07-11T15:23:05Z</time>
      </trkpt>
      <trkpt lat="49.84032" lon="2.38364">
        <ele>66.8</ele>
        <time>2021-07-11T15:23:06Z</time>
      </trkpt>
      <trkpt lat="49.84033" lon="2.38364">
        <ele>66.9</ele>
        <time>2021-07-11T15:23:07Z</time>
      </trkpt>
      <trkpt lat="49.84034" lon="2.38363">
        <ele>66.9</ele>
        <time>2021-07-11T15:23:08Z</time>
      </trkpt>
      <trkpt lat="49.84035" lon="2.38363">
        <ele>67</ele>
        <time>2021-07-11T15:23:10Z</time>
      </trkpt>
      <trkpt lat="49.84035" lon="2.38362">
        <ele>67.1</ele>
        <time>2021-07-11T15:23:11Z</time>
      </trkpt>
      <trkpt lat="49.84036" lon="2.38361">
        <ele>67.1</ele>
        <time>2021-07-11T15:23:12Z</time>
      </trkpt>
      <trkpt lat="49.84037" lon="2.38361">
        <ele>67.2</ele>
        <time>2021-07-11T15:23:14Z</time>
      </trkpt>
      <trkpt lat="49.84037" lon="2.3836">
        <ele>67.3</ele>
        <time>2021-07-11T15:23:15Z</time>
      </trkpt>
      <trkpt lat="49.84038" lon="2.38359">
        <ele>67.4</ele>
        <time>2021-07-11T15:23:16Z</time>
      </trkpt>
      <trkpt lat="49.8404" lon="2.38358">
        <ele>67.5</ele>
        <time>2021-07-11T15:23:17Z</time>
      </trkpt>
      <trkpt lat="49.84042" lon="2.38356">
        <ele>67.7</ele>
        <time>2021-07-11T15:23:19Z</time>
      </trkpt>
      <trkpt lat="49.84042" lon="2.38355">
        <ele>67.7</ele>
        <time>2021-07-11T15:23:20Z</time>
      </trkpt>
      <trkpt lat="49.84043" lon="2.38354">
        <ele>67.8</ele>
        <time>2021-07-11T15:23:21Z</time>
      </trkpt>
      <trkpt lat="49.84044" lon="2.38353">
        <ele>67.9</ele>
        <time>2021-07-11T15:23:22Z</time>
      </trkpt>
      <trkpt lat="49.84045" lon="2.38352">
        <ele>68</ele>
        <time>2021-07-11T15:23:24Z</time>
      </trkpt>
      <trkpt lat="49.84045" lon="2.38351">
        <ele>68</ele>
        <time>2021-07-11T15:23:25Z</time>
      </trkpt>
      <trkpt lat="49.84046" lon="2.3835">
        <ele>68.1</ele>
        <time>2021-07-11T15:23:26Z</time>
      </trkpt>
      <trkpt lat="49.84047" lon="2.38349">
        <ele>68.1</ele>
        <time>2021-07-11T15:23:27Z</time>
      </trkpt>
      <trkpt lat="49.84048" lon="2.38348">
        <ele>68.2</ele>
        <time>2021-07-11T15:23:29Z</time>
      </trkpt>
      <trkpt lat="49.84048" lon="2.38347">
        <ele>68.3</ele>
        <time>2021-07-11T15:23:30Z</time>
      </trkpt>
      <trkpt lat="49.84049" lon="2.38346">
        <ele>68.4</ele>
        <time>2021-07-11T15:23:31Z</time>
      </trkpt>
      <trkpt lat="49.84051" lon="2.38345">
        <ele>68.5</ele>
        <time>2021-07-11T15:23:33Z</time>
      </trkpt>
      <trkpt lat="49.84051" lon="2.38344">
        <ele>68.5</ele>
        <time>2021-07-11T15:23:34Z</time>
      </trkpt>
      <trkpt lat="49.84052" lon="2.38343">
        <ele>68.6</ele>
        <time>2021-07-11T15:23:35Z</time>
      </trkpt>
      <trkpt lat="49.84052" lon="2.38341">
        <ele>68.6</ele>
        <time>2021-07-11T15:23:36Z</time>
      </trkpt>
      <trkpt lat="49.84052" lon="2.3834">
        <ele>68.7</ele>
        <time>2021-07-11T15:23:38Z</time>
      </trkpt>
      <trkpt lat="49.84053" lon="2.38339">
        <ele>68.8</ele>
        <time>2021-07-11T15:23:39Z</time>
      </trkpt>
      <trkpt lat="49.84054" lon="2.38338">
        <ele>68.9</ele>
        <time>2021-07-11T15:23:40Z</time>
      </trkpt>
      <trkpt lat="49.84055" lon="2.38337">
        <ele>68.9</ele>
        <time>2021-07-11T15:23:41Z</time>
      </trkpt>
      <trkpt lat="49.84056" lon="2.38336">
        <ele>69</ele>
        <time>2021-07-11T15:23:43Z</time>
      </trkpt>
      <trkpt lat="49.84057" lon="2.38335">
        <ele>69.1</ele>
        <time>2021-07-11T15:23:44Z</time>
      </trkpt>
      <trkpt lat="49.84058" lon="2.38335">
        <ele>69.1</ele>
        <time>2021-07-11T15:23:45Z</time>
      </trkpt>
      <trkpt lat="49.84059" lon="2.38334">
        <ele>69.2</ele>
        <time>2021-07-11T15:23:46Z</time>
      </trkpt>
      <trkpt lat="49.84059" lon="2.38333">
        <ele>69.2</ele>
        <time>2021-07-11T15:23:47Z</time>
      </trkpt>
      <trkpt lat="49.8406" lon="2.38332">
        <ele>69.3</ele>
        <time>2021-07-11T15:23:48Z</time>
      </trkpt>
      <trkpt lat="49.84061" lon="2.38331">
        <ele>69.4</ele>
        <time>2021-07-11T15:23:50Z</time>
      </trkpt>
      <trkpt lat="49.84063" lon="2.38329">
        <ele>69.5</ele>
        <time>2021-07-11T15:23:51Z</time>
      </trkpt>
      <trkpt lat="49.84064" lon="2.38328">
        <ele>69.6</ele>
        <time>2021-07-11T15:23:52Z</time>
      </trkpt>
      <trkpt lat="49.84066" lon="2.38327">
        <ele>69.7</ele>
        <time>2021-07-11T15:23:54Z</time>
      </trkpt>
      <trkpt lat="49.84067" lon="2.38326">
        <ele>69.7</ele>
        <time>2021-07-11T15:23:55Z</time>
      </trkpt>
      <trkpt lat="49.84066" lon="2.38325">
        <ele>69.8</ele>
        <time>2021-07-11T15:23:56Z</time>
      </trkpt>
      <trkpt lat="49.84067" lon="2.38325">
        <ele>69.8</ele>
        <time>2021-07-11T15:23:58Z</time>
      </trkpt>
      <trkpt lat="49.84067" lon="2.38324">
        <ele>69.9</ele>
        <time>2021-07-11T15:23:59Z</time>
      </trkpt>
      <trkpt lat="49.84068" lon="2.38323">
        <ele>69.9</ele>
        <time>2021-07-11T15:24:00Z</time>
      </trkpt>
      <trkpt lat="49.84069" lon="2.38322">
        <ele>70</ele>
        <time>2021-07-11T15:24:01Z</time>
      </trkpt>
      <trkpt lat="49.8407" lon="2.38321">
        <ele>70</ele>
        <time>2021-07-11T15:24:03Z</time>
      </trkpt>
      <trkpt lat="49.84071" lon="2.3832">
        <ele>70.1</ele>
        <time>2021-07-11T15:24:04Z</time>
      </trkpt>
      <trkpt lat="49.84072" lon="2.38319">
        <ele>70.1</ele>
        <time>2021-07-11T15:24:05Z</time>
      </trkpt>
      <trkpt lat="49.84073" lon="2.38318">
        <ele>70.2</ele>
        <time>2021-07-11T15:24:06Z</time>
      </trkpt>
      <trkpt lat="49.84073" lon="2.38317">
        <ele>70.3</ele>
        <time>2021-07-11T15:24:08Z</time>
      </trkpt>
      <trkpt lat="49.84074" lon="2.38316">
        <ele>70.3</ele>
        <time>2021-07-11T15:24:09Z</time>
      </trkpt>
      <trkpt lat="49.84075" lon="2.38315">
        <ele>70.4</ele>
        <time>2021-07-11T15:24:10Z</time>
      </trkpt>
      <trkpt lat="49.84076" lon="2.38314">
        <ele>70.4</ele>
        <time>2021-07-11T15:24:11Z</time>
      </trkpt>
      <trkpt lat="49.84078" lon="2.38312">
        <ele>70.5</ele>
        <time>2021-07-11T15:24:13Z</time>
      </trkpt>
      <trkpt lat="49.84078" lon="2.38311">
        <ele>70.6</ele>
        <time>2021-07-11T15:24:14Z</time>
      </trkpt>
      <trkpt lat="49.84078" lon="2.3831">
        <ele>70.6</ele>
        <time>2021-07-11T15:24:15Z</time>
      </trkpt>
      <trkpt lat="49.84079" lon="2.38309">
        <ele>70.7</ele>
        <time>2021-07-11T15:24:16Z</time>
      </trkpt>
      <trkpt lat="49.84079" lon="2.38308">
        <ele>70.7</ele>
        <time>2021-07-11T15:24:18Z</time>
      </trkpt>
      <trkpt lat="49.8408" lon="2.38307">
        <ele>70.8</ele>
        <time>2021-07-11T15:24:19Z</time>
      </trkpt>
      <trkpt lat="49.84082" lon="2.38304">
        <ele>70.9</ele>
        <time>2021-07-11T15:24:21Z</time>
      </trkpt>
      <trkpt lat="49.84082" lon="2.38303">
        <ele>70.9</ele>
        <time>2021-07-11T15:24:22Z</time>
      </trkpt>
      <trkpt lat="49.84083" lon="2.38302">
        <ele>70.9</ele>
        <time>2021-07-11T15:24:23Z</time>
      </trkpt>
      <trkpt lat="49.84084" lon="2.383">
        <ele>71</ele>
        <time>2021-07-11T15:24:25Z</time>
      </trkpt>
      <trkpt lat="49.84085" lon="2.38299">
        <ele>71</ele>
        <time>2021-07-11T15:24:26Z</time>
      </trkpt>
      <trkpt lat="49.84085" lon="2.38298">
        <ele>71.1</ele>
        <time>2021-07-11T15:24:27Z</time>
      </trkpt>
      <trkpt lat="49.84086" lon="2.38297">
        <ele>71.1</ele>
        <time>2021-07-11T15:24:28Z</time>
      </trkpt>
      <trkpt lat="49.84087" lon="2.38296">
        <ele>71.2</ele>
        <time>2021-07-11T15:24:30Z</time>
      </trkpt>
      <trkpt lat="49.84088" lon="2.38295">
        <ele>71.2</ele>
        <time>2021-07-11T15:24:31Z</time>
      </trkpt>
      <trkpt lat="49.84089" lon="2.38294">
        <ele>71.2</ele>
        <time>2021-07-11T15:24:32Z</time>
      </trkpt>
      <trkpt lat="49.84089" lon="2.38293">
        <ele>71.3</ele>
        <time>2021-07-11T15:24:33Z</time>
      </trkpt>
      <trkpt lat="49.84089" lon="2.38291">
        <ele>71.3</ele>
        <time>2021-07-11T15:24:34Z</time>
      </trkpt>
      <trkpt lat="49.84089" lon="2.3829">
        <ele>71.3</ele>
        <time>2021-07-11T15:24:35Z</time>
      </trkpt>
      <trkpt lat="49.8409" lon="2.38289">
        <ele>71.4</ele>
        <time>2021-07-11T15:24:37Z</time>
      </trkpt>
      <trkpt lat="49.8409" lon="2.38288">
        <ele>71.4</ele>
        <time>2021-07-11T15:24:38Z</time>
      </trkpt>
      <trkpt lat="49.84092" lon="2.38286">
        <ele>71.4</ele>
        <time>2021-07-11T15:24:40Z</time>
      </trkpt>
      <trkpt lat="49.84093" lon="2.38285">
        <ele>71.5</ele>
        <time>2021-07-11T15:24:41Z</time>
      </trkpt>
      <trkpt lat="49.84094" lon="2.38283">
        <ele>71.5</ele>
        <time>2021-07-11T15:24:42Z</time>
      </trkpt>
      <trkpt lat="49.84095" lon="2.38282">
        <ele>71.5</ele>
        <time>2021-07-11T15:24:43Z</time>
      </trkpt>
      <trkpt lat="49.84097" lon="2.3828">
        <ele>71.6</ele>
        <time>2021-07-11T15:24:45Z</time>
      </trkpt>
      <trkpt lat="49.84098" lon="2.38279">
        <ele>71.6</ele>
        <time>2021-07-11T15:24:46Z</time>
      </trkpt>
      <trkpt lat="49.84099" lon="2.38278">
        <ele>71.6</ele>
        <time>2021-07-11T15:24:47Z</time>
      </trkpt>
      <trkpt lat="49.841" lon="2.38278">
        <ele>71.7</ele>
        <time>2021-07-11T15:24:48Z</time>
      </trkpt>
      <trkpt lat="49.841" lon="2.38278">
        <ele>71.7</ele>
        <time>2021-07-11T15:24:49Z</time>
      </trkpt>
      <trkpt lat="49.84102" lon="2.38277">
        <ele>71.7</ele>
        <time>2021-07-11T15:24:51Z</time>
      </trkpt>
      <trkpt lat="49.84103" lon="2.38275">
        <ele>71.7</ele>
        <time>2021-07-11T15:24:52Z</time>
      </trkpt>
      <trkpt lat="49.84105" lon="2.38272">
        <ele>71.8</ele>
        <time>2021-07-11T15:24:54Z</time>
      </trkpt>
      <trkpt lat="49.84106" lon="2.38272">
        <ele>71.8</ele>
        <time>2021-07-11T15:24:55Z</time>
      </trkpt>
      <trkpt lat="49.84108" lon="2.3827">
        <ele>71.8</ele>
        <time>2021-07-11T15:24:57Z</time>
      </trkpt>
      <trkpt lat="49.84109" lon="2.3827">
        <ele>71.8</ele>
        <time>2021-07-11T15:24:58Z</time>
      </trkpt>
      <trkpt lat="49.84111" lon="2.38268">
        <ele>71.8</ele>
        <time>2021-07-11T15:25:00Z</time>
      </trkpt>
      <trkpt lat="49.84112" lon="2.38268">
        <ele>71.9</ele>
        <time>2021-07-11T15:25:01Z</time>
      </trkpt>
      <trkpt lat="49.84113" lon="2.38266">
        <ele>71.9</ele>
        <time>2021-07-11T15:25:03Z</time>
      </trkpt>
      <trkpt lat="49.84114" lon="2.38266">
        <ele>71.9</ele>
        <time>2021-07-11T15:25:04Z</time>
      </trkpt>
      <trkpt lat="49.84115" lon="2.38266">
        <ele>71.9</ele>
        <time>2021-07-11T15:25:05Z</time>
      </trkpt>
      <trkpt lat="49.84116" lon="2.38265">
        <ele>71.9</ele>
        <time>2021-07-11T15:25:06Z</time>
      </trkpt>
      <trkpt lat="49.84117" lon="2.38264">
        <ele>71.9</ele>
        <time>2021-07-11T15:25:07Z</time>
      </trkpt>
      <trkpt lat="49.84118" lon="2.38263">
        <ele>71.9</ele>
        <time>2021-07-11T15:25:09Z</time>
      </trkpt>
      <trkpt lat="49.84119" lon="2.38262">
        <ele>71.9</ele>
        <time>2021-07-11T15:25:10Z</time>
      </trkpt>
      <trkpt lat="49.8412" lon="2.3826">
        <ele>72</ele>
        <time>2021-07-11T15:25:12Z</time>
      </trkpt>
      <trkpt lat="49.8412" lon="2.38259">
        <ele>72</ele>
        <time>2021-07-11T15:25:13Z</time>
      </trkpt>
      <trkpt lat="49.84121" lon="2.38257">
        <ele>72</ele>
        <time>2021-07-11T15:25:14Z</time>
      </trkpt>
      <trkpt lat="49.84122" lon="2.38256">
        <ele>72</ele>
        <time>2021-07-11T15:25:15Z</time>
      </trkpt>
      <trkpt lat="49.84123" lon="2.38255">
        <ele>72</ele>
        <time>2021-07-11T15:25:16Z</time>
      </trkpt>
      <trkpt lat="49.84124" lon="2.38253">
        <ele>72</ele>
        <time>2021-07-11T15:25:18Z</time>
      </trkpt>
      <trkpt lat="49.84125" lon="2.38253">
        <ele>72</ele>
        <time>2021-07-11T15:25:19Z</time>
      </trkpt>
      <trkpt lat="49.84127" lon="2.38251">
        <ele>72</ele>
        <time>2021-07-11T15:25:20Z</time>
      </trkpt>
      <trkpt lat="49.84127" lon="2.3825">
        <ele>72</ele>
        <time>2021-07-11T15:25:22Z</time>
      </trkpt>
      <trkpt lat="49.84128" lon="2.38249">
        <ele>72</ele>
        <time>2021-07-11T15:25:23Z</time>
      </trkpt>
      <trkpt lat="49.84129" lon="2.38248">
        <ele>72</ele>
        <time>2021-07-11T15:25:24Z</time>
      </trkpt>
      <trkpt lat="49.8413" lon="2.38247">
        <ele>72</ele>
        <time>2021-07-11T15:25:25Z</time>
      </trkpt>
      <trkpt lat="49.84131" lon="2.38246">
        <ele>72</ele>
        <time>2021-07-11T15:25:26Z</time>
      </trkpt>
      <trkpt lat="49.84132" lon="2.38244">
        <ele>72</ele>
        <time>2021-07-11T15:25:28Z</time>
      </trkpt>
      <trkpt lat="49.84133" lon="2.38243">
        <ele>72</ele>
        <time>2021-07-11T15:25:29Z</time>
      </trkpt>
      <trkpt lat="49.84135" lon="2.38241">
        <ele>72</ele>
        <time>2021-07-11T15:25:31Z</time>
      </trkpt>
      <trkpt lat="49.84136" lon="2.3824">
        <ele>72</ele>
        <time>2021-07-11T15:25:32Z</time>
      </trkpt>
      <trkpt lat="49.84138" lon="2.38238">
        <ele>72</ele>
        <time>2021-07-11T15:25:33Z</time>
      </trkpt>
      <trkpt lat="49.84138" lon="2.38237">
        <ele>72</ele>
        <time>2021-07-11T15:25:34Z</time>
      </trkpt>
      <trkpt lat="49.84139" lon="2.38236">
        <ele>72</ele>
        <time>2021-07-11T15:25:35Z</time>
      </trkpt>
      <trkpt lat="49.8414" lon="2.38235">
        <ele>72</ele>
        <time>2021-07-11T15:25:36Z</time>
      </trkpt>
      <trkpt lat="49.84141" lon="2.38233">
        <ele>72</ele>
        <time>2021-07-11T15:25:37Z</time>
      </trkpt>
      <trkpt lat="49.84142" lon="2.38232">
        <ele>72</ele>
        <time>2021-07-11T15:25:39Z</time>
      </trkpt>
      <trkpt lat="49.84143" lon="2.3823">
        <ele>72</ele>
        <time>2021-07-11T15:25:40Z</time>
      </trkpt>
      <trkpt lat="49.84144" lon="2.38229">
        <ele>72</ele>
        <time>2021-07-11T15:25:41Z</time>
      </trkpt>
      <trkpt lat="49.84145" lon="2.38228">
        <ele>71.9</ele>
        <time>2021-07-11T15:25:42Z</time>
      </trkpt>
      <trkpt lat="49.84146" lon="2.38227">
        <ele>71.9</ele>
        <time>2021-07-11T15:25:43Z</time>
      </trkpt>
      <trkpt lat="49.84147" lon="2.38226">
        <ele>71.9</ele>
        <time>2021-07-11T15:25:45Z</time>
      </trkpt>
      <trkpt lat="49.84148" lon="2.38225">
        <ele>71.9</ele>
        <time>2021-07-11T15:25:46Z</time>
      </trkpt>
      <trkpt lat="49.84149" lon="2.38224">
        <ele>71.9</ele>
        <time>2021-07-11T15:25:47Z</time>
      </trkpt>
      <trkpt lat="49.84149" lon="2.38223">
        <ele>71.9</ele>
        <time>2021-07-11T15:25:48Z</time>
      </trkpt>
      <trkpt lat="49.8415" lon="2.38222">
        <ele>71.9</ele>
        <time>2021-07-11T15:25:49Z</time>
      </trkpt>
      <trkpt lat="49.84151" lon="2.38221">
        <ele>71.9</ele>
        <time>2021-07-11T15:25:50Z</time>
      </trkpt>
      <trkpt lat="49.84151" lon="2.3822">
        <ele>71.9</ele>
        <time>2021-07-11T15:25:52Z</time>
      </trkpt>
      <trkpt lat="49.84152" lon="2.38219">
        <ele>71.9</ele>
        <time>2021-07-11T15:25:53Z</time>
      </trkpt>
      <trkpt lat="49.84152" lon="2.38219">
        <ele>71.9</ele>
        <time>2021-07-11T15:25:54Z</time>
      </trkpt>
      <trkpt lat="49.84152" lon="2.38219">
        <ele>71.9</ele>
        <time>2021-07-11T15:25:55Z</time>
      </trkpt>
      <trkpt lat="49.84152" lon="2.38218">
        <ele>71.9</ele>
        <time>2021-07-11T15:25:57Z</time>
      </trkpt>
      <trkpt lat="49.84153" lon="2.38216">
        <ele>71.9</ele>
        <time>2021-07-11T15:25:58Z</time>
      </trkpt>
      <trkpt lat="49.84154" lon="2.38215">
        <ele>71.9</ele>
        <time>2021-07-11T15:25:59Z</time>
      </trkpt>
      <trkpt lat="49.84155" lon="2.38213">
        <ele>71.9</ele>
        <time>2021-07-11T15:26:01Z</time>
      </trkpt>
      <trkpt lat="49.84156" lon="2.38212">
        <ele>71.9</ele>
        <time>2021-07-11T15:26:02Z</time>
      </trkpt>
      <trkpt lat="49.84157" lon="2.38211">
        <ele>71.9</ele>
        <time>2021-07-11T15:26:03Z</time>
      </trkpt>
      <trkpt lat="49.84158" lon="2.3821">
        <ele>71.9</ele>
        <time>2021-07-11T15:26:04Z</time>
      </trkpt>
      <trkpt lat="49.84159" lon="2.38208">
        <ele>71.9</ele>
        <time>2021-07-11T15:26:05Z</time>
      </trkpt>
      <trkpt lat="49.8416" lon="2.38207">
        <ele>71.9</ele>
        <time>2021-07-11T15:26:06Z</time>
      </trkpt>
      <trkpt lat="49.8416" lon="2.38205">
        <ele>71.9</ele>
        <time>2021-07-11T15:26:08Z</time>
      </trkpt>
      <trkpt lat="49.84161" lon="2.38204">
        <ele>71.9</ele>
        <time>2021-07-11T15:26:09Z</time>
      </trkpt>
      <trkpt lat="49.84163" lon="2.38201">
        <ele>71.9</ele>
        <time>2021-07-11T15:26:10Z</time>
      </trkpt>
      <trkpt lat="49.84163" lon="2.382">
        <ele>71.9</ele>
        <time>2021-07-11T15:26:11Z</time>
      </trkpt>
      <trkpt lat="49.84164" lon="2.38199">
        <ele>71.9</ele>
        <time>2021-07-11T15:26:12Z</time>
      </trkpt>
      <trkpt lat="49.84164" lon="2.38198">
        <ele>71.9</ele>
        <time>2021-07-11T15:26:13Z</time>
      </trkpt>
      <trkpt lat="49.84165" lon="2.38197">
        <ele>71.9</ele>
        <time>2021-07-11T15:26:15Z</time>
      </trkpt>
      <trkpt lat="49.84165" lon="2.38195">
        <ele>71.9</ele>
        <time>2021-07-11T15:26:16Z</time>
      </trkpt>
      <trkpt lat="49.84166" lon="2.38192">
        <ele>71.9</ele>
        <time>2021-07-11T15:26:17Z</time>
      </trkpt>
      <trkpt lat="49.84167" lon="2.38191">
        <ele>71.9</ele>
        <time>2021-07-11T15:26:18Z</time>
      </trkpt>
      <trkpt lat="49.84168" lon="2.3819">
        <ele>71.9</ele>
        <time>2021-07-11T15:26:19Z</time>
      </trkpt>
      <trkpt lat="49.84168" lon="2.38188">
        <ele>71.9</ele>
        <time>2021-07-11T15:26:21Z</time>
      </trkpt>
      <trkpt lat="49.84169" lon="2.38186">
        <ele>71.9</ele>
        <time>2021-07-11T15:26:22Z</time>
      </trkpt>
      <trkpt lat="49.8417" lon="2.38183">
        <ele>72</ele>
        <time>2021-07-11T15:26:23Z</time>
      </trkpt>
      <trkpt lat="49.8417" lon="2.38181">
        <ele>72</ele>
        <time>2021-07-11T15:26:24Z</time>
      </trkpt>
      <trkpt lat="49.84171" lon="2.3818">
        <ele>72</ele>
        <time>2021-07-11T15:26:25Z</time>
      </trkpt>
      <trkpt lat="49.84172" lon="2.38178">
        <ele>72</ele>
        <time>2021-07-11T15:26:26Z</time>
      </trkpt>
      <trkpt lat="49.84172" lon="2.38176">
        <ele>72</ele>
        <time>2021-07-11T15:26:28Z</time>
      </trkpt>
      <trkpt lat="49.84173" lon="2.38174">
        <ele>72</ele>
        <time>2021-07-11T15:26:29Z</time>
      </trkpt>
      <trkpt lat="49.84175" lon="2.38171">
        <ele>72</ele>
        <time>2021-07-11T15:26:31Z</time>
      </trkpt>
      <trkpt lat="49.84176" lon="2.38168">
        <ele>72</ele>
        <time>2021-07-11T15:26:32Z</time>
      </trkpt>
      <trkpt lat="49.84176" lon="2.38167">
        <ele>72</ele>
        <time>2021-07-11T15:26:33Z</time>
      </trkpt>
      <trkpt lat="49.84177" lon="2.38166">
        <ele>72</ele>
        <time>2021-07-11T15:26:34Z</time>
      </trkpt>
      <trkpt lat="49.84178" lon="2.38164">
        <ele>72.1</ele>
        <time>2021-07-11T15:26:35Z</time>
      </trkpt>
      <trkpt lat="49.84179" lon="2.38164">
        <ele>72.1</ele>
        <time>2021-07-11T15:26:37Z</time>
      </trkpt>
      <trkpt lat="49.84179" lon="2.38163">
        <ele>72.1</ele>
        <time>2021-07-11T15:26:38Z</time>
      </trkpt>
      <trkpt lat="49.8418" lon="2.38161">
        <ele>72.1</ele>
        <time>2021-07-11T15:26:39Z</time>
      </trkpt>
      <trkpt lat="49.84181" lon="2.38159">
        <ele>72.1</ele>
        <time>2021-07-11T15:26:40Z</time>
      </trkpt>
      <trkpt lat="49.84182" lon="2.38157">
        <ele>72.1</ele>
        <time>2021-07-11T15:26:41Z</time>
      </trkpt>
      <trkpt lat="49.84184" lon="2.38155">
        <ele>72.2</ele>
        <time>2021-07-11T15:26:43Z</time>
      </trkpt>
      <trkpt lat="49.84185" lon="2.38154">
        <ele>72.2</ele>
        <time>2021-07-11T15:26:44Z</time>
      </trkpt>
      <trkpt lat="49.84186" lon="2.38152">
        <ele>72.2</ele>
        <time>2021-07-11T15:26:46Z</time>
      </trkpt>
      <trkpt lat="49.84187" lon="2.38151">
        <ele>72.2</ele>
        <time>2021-07-11T15:26:47Z</time>
      </trkpt>
      <trkpt lat="49.84188" lon="2.38149">
        <ele>72.2</ele>
        <time>2021-07-11T15:26:49Z</time>
      </trkpt>
      <trkpt lat="49.84188" lon="2.38149">
        <ele>72.2</ele>
        <time>2021-07-11T15:26:50Z</time>
      </trkpt>
      <trkpt lat="49.84188" lon="2.38148">
        <ele>72.2</ele>
        <time>2021-07-11T15:26:51Z</time>
      </trkpt>
      <trkpt lat="49.84189" lon="2.38147">
        <ele>72.2</ele>
        <time>2021-07-11T15:26:52Z</time>
      </trkpt>
      <trkpt lat="49.8419" lon="2.38145">
        <ele>72.3</ele>
        <time>2021-07-11T15:26:53Z</time>
      </trkpt>
      <trkpt lat="49.84191" lon="2.38144">
        <ele>72.3</ele>
        <time>2021-07-11T15:26:55Z</time>
      </trkpt>
      <trkpt lat="49.84192" lon="2.38143">
        <ele>72.3</ele>
        <time>2021-07-11T15:26:56Z</time>
      </trkpt>
      <trkpt lat="49.84192" lon="2.38142">
        <ele>72.3</ele>
        <time>2021-07-11T15:26:57Z</time>
      </trkpt>
      <trkpt lat="49.84193" lon="2.3814">
        <ele>72.3</ele>
        <time>2021-07-11T15:26:58Z</time>
      </trkpt>
      <trkpt lat="49.84194" lon="2.38139">
        <ele>72.3</ele>
        <time>2021-07-11T15:26:59Z</time>
      </trkpt>
      <trkpt lat="49.84195" lon="2.38138">
        <ele>72.3</ele>
        <time>2021-07-11T15:27:00Z</time>
      </trkpt>
      <trkpt lat="49.84196" lon="2.38137">
        <ele>72.3</ele>
        <time>2021-07-11T15:27:02Z</time>
      </trkpt>
      <trkpt lat="49.84198" lon="2.38135">
        <ele>72.4</ele>
        <time>2021-07-11T15:27:03Z</time>
      </trkpt>
      <trkpt lat="49.84199" lon="2.38134">
        <ele>72.4</ele>
        <time>2021-07-11T15:27:04Z</time>
      </trkpt>
      <trkpt lat="49.842" lon="2.38133">
        <ele>72.4</ele>
        <time>2021-07-11T15:27:06Z</time>
      </trkpt>
      <trkpt lat="49.84201" lon="2.38132">
        <ele>72.4</ele>
        <time>2021-07-11T15:27:07Z</time>
      </trkpt>
      <trkpt lat="49.84202" lon="2.38131">
        <ele>72.4</ele>
        <time>2021-07-11T15:27:09Z</time>
      </trkpt>
      <trkpt lat="49.84203" lon="2.3813">
        <ele>72.4</ele>
        <time>2021-07-11T15:27:10Z</time>
      </trkpt>
      <trkpt lat="49.84203" lon="2.38129">
        <ele>72.4</ele>
        <time>2021-07-11T15:27:11Z</time>
      </trkpt>
      <trkpt lat="49.84204" lon="2.38128">
        <ele>72.4</ele>
        <time>2021-07-11T15:27:12Z</time>
      </trkpt>
      <trkpt lat="49.84205" lon="2.38127">
        <ele>72.4</ele>
        <time>2021-07-11T15:27:14Z</time>
      </trkpt>
      <trkpt lat="49.84206" lon="2.38126">
        <ele>72.4</ele>
        <time>2021-07-11T15:27:15Z</time>
      </trkpt>
      <trkpt lat="49.84207" lon="2.38125">
        <ele>72.4</ele>
        <time>2021-07-11T15:27:16Z</time>
      </trkpt>
      <trkpt lat="49.84208" lon="2.38124">
        <ele>72.5</ele>
        <time>2021-07-11T15:27:17Z</time>
      </trkpt>
      <trkpt lat="49.84209" lon="2.38122">
        <ele>72.5</ele>
        <time>2021-07-11T15:27:18Z</time>
      </trkpt>
      <trkpt lat="49.84209" lon="2.38121">
        <ele>72.5</ele>
        <time>2021-07-11T15:27:20Z</time>
      </trkpt>
      <trkpt lat="49.8421" lon="2.38119">
        <ele>72.5</ele>
        <time>2021-07-11T15:27:21Z</time>
      </trkpt>
      <trkpt lat="49.8421" lon="2.38118">
        <ele>72.5</ele>
        <time>2021-07-11T15:27:22Z</time>
      </trkpt>
      <trkpt lat="49.84212" lon="2.38118">
        <ele>72.5</ele>
        <time>2021-07-11T15:27:24Z</time>
      </trkpt>
      <trkpt lat="49.84212" lon="2.38119">
        <ele>72.5</ele>
        <time>2021-07-11T15:27:25Z</time>
      </trkpt>
      <trkpt lat="49.84213" lon="2.38119">
        <ele>72.5</ele>
        <time>2021-07-11T15:27:27Z</time>
      </trkpt>
      <trkpt lat="49.84213" lon="2.38121">
        <ele>72.5</ele>
        <time>2021-07-11T15:27:29Z</time>
      </trkpt>
      <trkpt lat="49.84213" lon="2.38122">
        <ele>72.5</ele>
        <time>2021-07-11T15:27:30Z</time>
      </trkpt>
      <trkpt lat="49.84213" lon="2.38122">
        <ele>72.5</ele>
        <time>2021-07-11T15:27:31Z</time>
      </trkpt>
      <trkpt lat="49.84213" lon="2.38122">
        <ele>72.5</ele>
        <time>2021-07-11T15:27:33Z</time>
      </trkpt>
      <trkpt lat="49.84214" lon="2.38122">
        <ele>72.5</ele>
        <time>2021-07-11T15:27:35Z</time>
      </trkpt>
      <trkpt lat="49.84214" lon="2.38122">
        <ele>72.5</ele>
        <time>2021-07-11T15:27:37Z</time>
      </trkpt>
      <trkpt lat="49.84214" lon="2.38122">
        <ele>72.5</ele>
        <time>2021-07-11T15:27:38Z</time>
      </trkpt>
      <trkpt lat="49.84213" lon="2.38122">
        <ele>72.5</ele>
        <time>2021-07-11T15:27:40Z</time>
      </trkpt>
      <trkpt lat="49.84213" lon="2.38122">
        <ele>72.5</ele>
        <time>2021-07-11T15:27:42Z</time>
      </trkpt>
      <trkpt lat="49.84213" lon="2.38122">
        <ele>72.5</ele>
        <time>2021-07-11T15:27:44Z</time>
      </trkpt>
      <trkpt lat="49.84212" lon="2.38121">
        <ele>72.5</ele>
        <time>2021-07-11T15:27:46Z</time>
      </trkpt>
      <trkpt lat="49.84212" lon="2.3812">
        <ele>72.5</ele>
        <time>2021-07-11T15:27:47Z</time>
      </trkpt>
      <trkpt lat="49.84211" lon="2.3812">
        <ele>72.6</ele>
        <time>2021-07-11T15:27:49Z</time>
      </trkpt>
      <trkpt lat="49.84211" lon="2.3812">
        <ele>72.6</ele>
        <time>2021-07-11T15:27:50Z</time>
      </trkpt>
      <trkpt lat="49.84211" lon="2.3812">
        <ele>72.6</ele>
        <time>2021-07-11T15:27:52Z</time>
      </trkpt>
      <trkpt lat="49.84211" lon="2.3812">
        <ele>72.6</ele>
        <time>2021-07-11T15:27:53Z</time>
      </trkpt>
      <trkpt lat="49.84211" lon="2.38121">
        <ele>72.6</ele>
        <time>2021-07-11T15:27:55Z</time>
      </trkpt>
      <trkpt lat="49.8421" lon="2.38121">
        <ele>72.6</ele>
        <time>2021-07-11T15:27:56Z</time>
      </trkpt>
      <trkpt lat="49.84208" lon="2.38119">
        <ele>72.6</ele>
        <time>2021-07-11T15:27:58Z</time>
      </trkpt>
      <trkpt lat="49.84208" lon="2.38118">
        <ele>72.6</ele>
        <time>2021-07-11T15:27:59Z</time>
      </trkpt>
      <trkpt lat="49.84207" lon="2.38117">
        <ele>72.6</ele>
        <time>2021-07-11T15:28:00Z</time>
      </trkpt>
      <trkpt lat="49.84207" lon="2.38114">
        <ele>72.6</ele>
        <time>2021-07-11T15:28:02Z</time>
      </trkpt>
      <trkpt lat="49.84207" lon="2.38112">
        <ele>72.6</ele>
        <time>2021-07-11T15:28:03Z</time>
      </trkpt>
      <trkpt lat="49.84207" lon="2.38111">
        <ele>72.7</ele>
        <time>2021-07-11T15:28:04Z</time>
      </trkpt>
      <trkpt lat="49.84207" lon="2.38107">
        <ele>72.7</ele>
        <time>2021-07-11T15:28:05Z</time>
      </trkpt>
      <trkpt lat="49.84207" lon="2.38106">
        <ele>72.7</ele>
        <time>2021-07-11T15:28:07Z</time>
      </trkpt>
      <trkpt lat="49.84208" lon="2.38105">
        <ele>72.7</ele>
        <time>2021-07-11T15:28:08Z</time>
      </trkpt>
      <trkpt lat="49.84209" lon="2.38104">
        <ele>72.7</ele>
        <time>2021-07-11T15:28:09Z</time>
      </trkpt>
      <trkpt lat="49.8421" lon="2.38101">
        <ele>72.7</ele>
        <time>2021-07-11T15:28:11Z</time>
      </trkpt>
      <trkpt lat="49.84212" lon="2.38101">
        <ele>72.8</ele>
        <time>2021-07-11T15:28:12Z</time>
      </trkpt>
      <trkpt lat="49.84213" lon="2.38102">
        <ele>72.8</ele>
        <time>2021-07-11T15:28:14Z</time>
      </trkpt>
      <trkpt lat="49.84214" lon="2.38103">
        <ele>72.8</ele>
        <time>2021-07-11T15:28:15Z</time>
      </trkpt>
      <trkpt lat="49.84214" lon="2.38103">
        <ele>72.8</ele>
        <time>2021-07-11T15:28:16Z</time>
      </trkpt>
      <trkpt lat="49.84214" lon="2.38104">
        <ele>72.8</ele>
        <time>2021-07-11T15:28:18Z</time>
      </trkpt>
      <trkpt lat="49.84214" lon="2.38104">
        <ele>72.8</ele>
        <time>2021-07-11T15:28:20Z</time>
      </trkpt>
      <trkpt lat="49.84214" lon="2.38104">
        <ele>72.8</ele>
        <time>2021-07-11T15:28:21Z</time>
      </trkpt>
      <trkpt lat="49.84214" lon="2.38104">
        <ele>72.8</ele>
        <time>2021-07-11T15:28:23Z</time>
      </trkpt>
      <trkpt lat="49.84214" lon="2.38104">
        <ele>72.8</ele>
        <time>2021-07-11T15:28:24Z</time>
      </trkpt>
      <trkpt lat="49.84215" lon="2.38103">
        <ele>72.8</ele>
        <time>2021-07-11T15:28:25Z</time>
      </trkpt>
      <trkpt lat="49.84215" lon="2.38102">
        <ele>72.8</ele>
        <time>2021-07-11T15:28:26Z</time>
      </trkpt>
      <trkpt lat="49.84216" lon="2.38101">
        <ele>72.8</ele>
        <time>2021-07-11T15:28:28Z</time>
      </trkpt>
      <trkpt lat="49.84217" lon="2.381">
        <ele>72.8</ele>
        <time>2021-07-11T15:28:29Z</time>
      </trkpt>
      <trkpt lat="49.84218" lon="2.38096">
        <ele>72.9</ele>
        <time>2021-07-11T15:28:30Z</time>
      </trkpt>
      <trkpt lat="49.84219" lon="2.38095">
        <ele>72.9</ele>
        <time>2021-07-11T15:28:31Z</time>
      </trkpt>
      <trkpt lat="49.8422" lon="2.38093">
        <ele>72.9</ele>
        <time>2021-07-11T15:28:33Z</time>
      </trkpt>
      <trkpt lat="49.8422" lon="2.38091">
        <ele>72.9</ele>
        <time>2021-07-11T15:28:34Z</time>
      </trkpt>
      <trkpt lat="49.84221" lon="2.3809">
        <ele>72.9</ele>
        <time>2021-07-11T15:28:35Z</time>
      </trkpt>
      <trkpt lat="49.84222" lon="2.38087">
        <ele>72.9</ele>
        <time>2021-07-11T15:28:37Z</time>
      </trkpt>
      <trkpt lat="49.84222" lon="2.38086">
        <ele>72.9</ele>
        <time>2021-07-11T15:28:38Z</time>
      </trkpt>
      <trkpt lat="49.84223" lon="2.38085">
        <ele>72.9</ele>
        <time>2021-07-11T15:28:39Z</time>
      </trkpt>
      <trkpt lat="49.84223" lon="2.38083">
        <ele>72.9</ele>
        <time>2021-07-11T15:28:40Z</time>
      </trkpt>
      <trkpt lat="49.84224" lon="2.38082">
        <ele>72.9</ele>
        <time>2021-07-11T15:28:41Z</time>
      </trkpt>
      <trkpt lat="49.84224" lon="2.3808">
        <ele>72.9</ele>
        <time>2021-07-11T15:28:42Z</time>
      </trkpt>
      <trkpt lat="49.84224" lon="2.38078">
        <ele>72.9</ele>
        <time>2021-07-11T15:28:44Z</time>
      </trkpt>
      <trkpt lat="49.84225" lon="2.38075">
        <ele>72.9</ele>
        <time>2021-07-11T15:28:45Z</time>
      </trkpt>
      <trkpt lat="49.84225" lon="2.38074">
        <ele>72.8</ele>
        <time>2021-07-11T15:28:46Z</time>
      </trkpt>
      <trkpt lat="49.84225" lon="2.38072">
        <ele>72.8</ele>
        <time>2021-07-11T15:28:47Z</time>
      </trkpt>
      <trkpt lat="49.84225" lon="2.38071">
        <ele>72.8</ele>
        <time>2021-07-11T15:28:48Z</time>
      </trkpt>
      <trkpt lat="49.84226" lon="2.38069">
        <ele>72.8</ele>
        <time>2021-07-11T15:28:50Z</time>
      </trkpt>
      <trkpt lat="49.84226" lon="2.38067">
        <ele>72.8</ele>
        <time>2021-07-11T15:28:51Z</time>
      </trkpt>
      <trkpt lat="49.84227" lon="2.38066">
        <ele>72.8</ele>
        <time>2021-07-11T15:28:52Z</time>
      </trkpt>
      <trkpt lat="49.84227" lon="2.38064">
        <ele>72.8</ele>
        <time>2021-07-11T15:28:54Z</time>
      </trkpt>
      <trkpt lat="49.84227" lon="2.38063">
        <ele>72.8</ele>
        <time>2021-07-11T15:28:55Z</time>
      </trkpt>
      <trkpt lat="49.84226" lon="2.38061">
        <ele>72.7</ele>
        <time>2021-07-11T15:28:56Z</time>
      </trkpt>
      <trkpt lat="49.84227" lon="2.38059">
        <ele>72.7</ele>
        <time>2021-07-11T15:28:58Z</time>
      </trkpt>
      <trkpt lat="49.84227" lon="2.38058">
        <ele>72.6</ele>
        <time>2021-07-11T15:28:59Z</time>
      </trkpt>
      <trkpt lat="49.84229" lon="2.38056">
        <ele>72.6</ele>
        <time>2021-07-11T15:29:00Z</time>
      </trkpt>
      <trkpt lat="49.84229" lon="2.38055">
        <ele>72.5</ele>
        <time>2021-07-11T15:29:02Z</time>
      </trkpt>
      <trkpt lat="49.8423" lon="2.38054">
        <ele>72.5</ele>
        <time>2021-07-11T15:29:03Z</time>
      </trkpt>
      <trkpt lat="49.84231" lon="2.38051">
        <ele>72.4</ele>
        <time>2021-07-11T15:29:06Z</time>
      </trkpt>
      <trkpt lat="49.84232" lon="2.3805">
        <ele>72.4</ele>
        <time>2021-07-11T15:29:07Z</time>
      </trkpt>
      <trkpt lat="49.84232" lon="2.3805">
        <ele>72.4</ele>
        <time>2021-07-11T15:29:09Z</time>
      </trkpt>
      <trkpt lat="49.84233" lon="2.38051">
        <ele>72.3</ele>
        <time>2021-07-11T15:29:10Z</time>
      </trkpt>
      <trkpt lat="49.84232" lon="2.38053">
        <ele>72.3</ele>
        <time>2021-07-11T15:29:11Z</time>
      </trkpt>
      <trkpt lat="49.84232" lon="2.38055">
        <ele>72.2</ele>
        <time>2021-07-11T15:29:12Z</time>
      </trkpt>
      <trkpt lat="49.84233" lon="2.38057">
        <ele>72.2</ele>
        <time>2021-07-11T15:29:14Z</time>
      </trkpt>
      <trkpt lat="49.84233" lon="2.38058">
        <ele>72.1</ele>
        <time>2021-07-11T15:29:15Z</time>
      </trkpt>
      <trkpt lat="49.84233" lon="2.38058">
        <ele>72.1</ele>
        <time>2021-07-11T15:29:16Z</time>
      </trkpt>
      <trkpt lat="49.84234" lon="2.38058">
        <ele>72.1</ele>
        <time>2021-07-11T15:29:18Z</time>
      </trkpt>
      <trkpt lat="49.84235" lon="2.38057">
        <ele>72.1</ele>
        <time>2021-07-11T15:29:20Z</time>
      </trkpt>
      <trkpt lat="49.84235" lon="2.38056">
        <ele>72</ele>
        <time>2021-07-11T15:29:21Z</time>
      </trkpt>
      <trkpt lat="49.84236" lon="2.38055">
        <ele>72</ele>
        <time>2021-07-11T15:29:23Z</time>
      </trkpt>
      <trkpt lat="49.84236" lon="2.38054">
        <ele>72</ele>
        <time>2021-07-11T15:29:25Z</time>
      </trkpt>
      <trkpt lat="49.84236" lon="2.38054">
        <ele>72</ele>
        <time>2021-07-11T15:29:26Z</time>
      </trkpt>
      <trkpt lat="49.84236" lon="2.38054">
        <ele>72</ele>
        <time>2021-07-11T15:29:27Z</time>
      </trkpt>
      <trkpt lat="49.84236" lon="2.38054">
        <ele>72</ele>
        <time>2021-07-11T15:29:28Z</time>
      </trkpt>
      <trkpt lat="49.84236" lon="2.38053">
        <ele>71.9</ele>
        <time>2021-07-11T15:29:30Z</time>
      </trkpt>
      <trkpt lat="49.84236" lon="2.38053">
        <ele>71.9</ele>
        <time>2021-07-11T15:29:31Z</time>
      </trkpt>
      <trkpt lat="49.84236" lon="2.38053">
        <ele>71.9</ele>
        <time>2021-07-11T15:29:33Z</time>
      </trkpt>
      <trkpt lat="49.84236" lon="2.38053">
        <ele>71.9</ele>
        <time>2021-07-11T15:29:34Z</time>
      </trkpt>
      <trkpt lat="49.84236" lon="2.38053">
        <ele>71.9</ele>
        <time>2021-07-11T15:29:35Z</time>
      </trkpt>
      <trkpt lat="49.84236" lon="2.38053">
        <ele>71.9</ele>
        <time>2021-07-11T15:29:37Z</time>
      </trkpt>
      <trkpt lat="49.84235" lon="2.38053">
        <ele>71.9</ele>
        <time>2021-07-11T15:29:38Z</time>
      </trkpt>
      <trkpt lat="49.84235" lon="2.38052">
        <ele>71.8</ele>
        <time>2021-07-11T15:29:39Z</time>
      </trkpt>
      <trkpt lat="49.84236" lon="2.38051">
        <ele>71.8</ele>
        <time>2021-07-11T15:29:41Z</time>
      </trkpt>
      <trkpt lat="49.84236" lon="2.3805">
        <ele>71.8</ele>
        <time>2021-07-11T15:29:42Z</time>
      </trkpt>
      <trkpt lat="49.84235" lon="2.38049">
        <ele>71.8</ele>
        <time>2021-07-11T15:29:43Z</time>
      </trkpt>
      <trkpt lat="49.84235" lon="2.38047">
        <ele>71.7</ele>
        <time>2021-07-11T15:29:45Z</time>
      </trkpt>
      <trkpt lat="49.84233" lon="2.38049">
        <ele>71.6</ele>
        <time>2021-07-11T15:29:46Z</time>
      </trkpt>
      <trkpt lat="49.84233" lon="2.3805">
        <ele>71.6</ele>
        <time>2021-07-11T15:29:48Z</time>
      </trkpt>
      <trkpt lat="49.84233" lon="2.38052">
        <ele>71.5</ele>
        <time>2021-07-11T15:29:49Z</time>
      </trkpt>
      <trkpt lat="49.84232" lon="2.38052">
        <ele>71.5</ele>
        <time>2021-07-11T15:29:50Z</time>
      </trkpt>
      <trkpt lat="49.84232" lon="2.38054">
        <ele>71.5</ele>
        <time>2021-07-11T15:29:52Z</time>
      </trkpt>
      <trkpt lat="49.84231" lon="2.38056">
        <ele>71.4</ele>
        <time>2021-07-11T15:29:54Z</time>
      </trkpt>
      <trkpt lat="49.8423" lon="2.38057">
        <ele>71.4</ele>
        <time>2021-07-11T15:29:55Z</time>
      </trkpt>
      <trkpt lat="49.84229" lon="2.38059">
        <ele>71.3</ele>
        <time>2021-07-11T15:29:57Z</time>
      </trkpt>
      <trkpt lat="49.84229" lon="2.38059">
        <ele>71.3</ele>
        <time>2021-07-11T15:29:58Z</time>
      </trkpt>
      <trkpt lat="49.84229" lon="2.3806">
        <ele>71.3</ele>
        <time>2021-07-11T15:30:00Z</time>
      </trkpt>
      <trkpt lat="49.84229" lon="2.3806">
        <ele>71.3</ele>
        <time>2021-07-11T15:30:02Z</time>
      </trkpt>
      <trkpt lat="49.84229" lon="2.3806">
        <ele>71.2</ele>
        <time>2021-07-11T15:30:03Z</time>
      </trkpt>
      <trkpt lat="49.84229" lon="2.3806">
        <ele>71.2</ele>
        <time>2021-07-11T15:30:05Z</time>
      </trkpt>
      <trkpt lat="49.84229" lon="2.3806">
        <ele>71.2</ele>
        <time>2021-07-11T15:30:07Z</time>
      </trkpt>
      <trkpt lat="49.84228" lon="2.3806">
        <ele>71.2</ele>
        <time>2021-07-11T15:30:09Z</time>
      </trkpt>
      <trkpt lat="49.84228" lon="2.3806">
        <ele>71.2</ele>
        <time>2021-07-11T15:30:11Z</time>
      </trkpt>
      <trkpt lat="49.84228" lon="2.3806">
        <ele>71.2</ele>
        <time>2021-07-11T15:30:12Z</time>
      </trkpt>
      <trkpt lat="49.84228" lon="2.38059">
        <ele>71.2</ele>
        <time>2021-07-11T15:30:14Z</time>
      </trkpt>
      <trkpt lat="49.84228" lon="2.38059">
        <ele>71.2</ele>
        <time>2021-07-11T15:30:16Z</time>
      </trkpt>
      <trkpt lat="49.84228" lon="2.38059">
        <ele>71.2</ele>
        <time>2021-07-11T15:30:18Z</time>
      </trkpt>
      <trkpt lat="49.84228" lon="2.38059">
        <ele>71.2</ele>
        <time>2021-07-11T15:30:19Z</time>
      </trkpt>
      <trkpt lat="49.84228" lon="2.38059">
        <ele>71.2</ele>
        <time>2021-07-11T15:30:21Z</time>
      </trkpt>
      <trkpt lat="49.84228" lon="2.38059">
        <ele>71.2</ele>
        <time>2021-07-11T15:30:22Z</time>
      </trkpt>
      <trkpt lat="49.84228" lon="2.38059">
        <ele>71.2</ele>
        <time>2021-07-11T15:30:24Z</time>
      </trkpt>
      <trkpt lat="49.84228" lon="2.38059">
        <ele>71.2</ele>
        <time>2021-07-11T15:30:26Z</time>
      </trkpt>
      <trkpt lat="49.84228" lon="2.38059">
        <ele>71.2</ele>
        <time>2021-07-11T15:30:27Z</time>
      </trkpt>
      <trkpt lat="49.84228" lon="2.38059">
        <ele>71.2</ele>
        <time>2021-07-11T15:30:29Z</time>
      </trkpt>
      <trkpt lat="49.84228" lon="2.38059">
        <ele>71.2</ele>
        <time>2021-07-11T15:30:30Z</time>
      </trkpt>
      <trkpt lat="49.84228" lon="2.38059">
        <ele>71.2</ele>
        <time>2021-07-11T15:30:31Z</time>
      </trkpt>
      <trkpt lat="49.84228" lon="2.38059">
        <ele>71.2</ele>
        <time>2021-07-11T15:30:32Z</time>
      </trkpt>
      <trkpt lat="49.84228" lon="2.38059">
        <ele>71.2</ele>
        <time>2021-07-11T15:30:33Z</time>
      </trkpt>
      <trkpt lat="49.84228" lon="2.38059">
        <ele>71.2</ele>
        <time>2021-07-11T15:30:35Z</time>
      </trkpt>
      <trkpt lat="49.84228" lon="2.38059">
        <ele>71.2</ele>
        <time>2021-07-11T15:30:37Z</time>
      </trkpt>
      <trkpt lat="49.84228" lon="2.38059">
        <ele>71.2</ele>
        <time>2021-07-11T15:30:39Z</time>
      </trkpt>
      <trkpt lat="49.84228" lon="2.38059">
        <ele>71.2</ele>
        <time>2021-07-11T15:30:40Z</time>
      </trkpt>
      <trkpt lat="49.84228" lon="2.38059">
        <ele>71.2</ele>
        <time>2021-07-11T15:30:42Z</time>
      </trkpt>
      <trkpt lat="49.84228" lon="2.38059">
        <ele>71.2</ele>
        <time>2021-07-11T15:30:43Z</time>
      </trkpt>
      <trkpt lat="49.84228" lon="2.38059">
        <ele>71.2</ele>
        <time>2021-07-11T15:30:45Z</time>
      </trkpt>
      <trkpt lat="49.84228" lon="2.38059">
        <ele>71.2</ele>
        <time>2021-07-11T15:30:47Z</time>
      </trkpt>
      <trkpt lat="49.84228" lon="2.38059">
        <ele>71.2</ele>
        <time>2021-07-11T15:30:48Z</time>
      </trkpt>
      <trkpt lat="49.84228" lon="2.38059">
        <ele>71.2</ele>
        <time>2021-07-11T15:30:50Z</time>
      </trkpt>
      <trkpt lat="49.84228" lon="2.38059">
        <ele>71.2</ele>
        <time>2021-07-11T15:30:52Z</time>
      </trkpt>
      <trkpt lat="49.84228" lon="2.38059">
        <ele>71.2</ele>
        <time>2021-07-11T15:30:53Z</time>
      </trkpt>
      <trkpt lat="49.84228" lon="2.38059">
        <ele>71.2</ele>
        <time>2021-07-11T15:30:55Z</time>
      </trkpt>
      <trkpt lat="49.84228" lon="2.38059">
        <ele>71.2</ele>
        <time>2021-07-11T15:30:56Z</time>
      </trkpt>
      <trkpt lat="49.84228" lon="2.38059">
        <ele>71.2</ele>
        <time>2021-07-11T15:30:58Z</time>
      </trkpt>
      <trkpt lat="49.84228" lon="2.38059">
        <ele>71.2</ele>
        <time>2021-07-11T15:30:59Z</time>
      </trkpt>
      <trkpt lat="49.84228" lon="2.38059">
        <ele>71.2</ele>
        <time>2021-07-11T15:31:00Z</time>
      </trkpt>
      <trkpt lat="49.84228" lon="2.38059">
        <ele>71.2</ele>
        <time>2021-07-11T15:31:01Z</time>
      </trkpt>
      <trkpt lat="49.84228" lon="2.38059">
        <ele>71.2</ele>
        <time>2021-07-11T15:31:03Z</time>
      </trkpt>
      <trkpt lat="49.84228" lon="2.38059">
        <ele>71.2</ele>
        <time>2021-07-11T15:31:05Z</time>
      </trkpt>
      <trkpt lat="49.84228" lon="2.38059">
        <ele>71.2</ele>
        <time>2021-07-11T15:31:06Z</time>
      </trkpt>
      <trkpt lat="49.84228" lon="2.38059">
        <ele>71.2</ele>
        <time>2021-07-11T15:31:07Z</time>
      </trkpt>
      <trkpt lat="49.84228" lon="2.38059">
        <ele>71.2</ele>
        <time>2021-07-11T15:31:09Z</time>
      </trkpt>
      <trkpt lat="49.84228" lon="2.38059">
        <ele>71.2</ele>
        <time>2021-07-11T15:31:11Z</time>
      </trkpt>
      <trkpt lat="49.84228" lon="2.38059">
        <ele>71.2</ele>
        <time>2021-07-11T15:31:13Z</time>
      </trkpt>
      <trkpt lat="49.84228" lon="2.38059">
        <ele>71.2</ele>
        <time>2021-07-11T15:31:15Z</time>
      </trkpt>
      <trkpt lat="49.84228" lon="2.38059">
        <ele>71.2</ele>
        <time>2021-07-11T15:31:17Z</time>
      </trkpt>
      <trkpt lat="49.84228" lon="2.38059">
        <ele>71.2</ele>
        <time>2021-07-11T15:31:19Z</time>
      </trkpt>
      <trkpt lat="49.84228" lon="2.38059">
        <ele>71.2</ele>
        <time>2021-07-11T15:31:20Z</time>
      </trkpt>
      <trkpt lat="49.84228" lon="2.38059">
        <ele>71.2</ele>
        <time>2021-07-11T15:31:21Z</time>
      </trkpt>
      <trkpt lat="49.84228" lon="2.38059">
        <ele>71.2</ele>
        <time>2021-07-11T15:31:23Z</time>
      </trkpt>
      <trkpt lat="49.84228" lon="2.38059">
        <ele>71.2</ele>
        <time>2021-07-11T15:31:24Z</time>
      </trkpt>
      <trkpt lat="49.84228" lon="2.38059">
        <ele>71.2</ele>
        <time>2021-07-11T15:31:26Z</time>
      </trkpt>
      <trkpt lat="49.84228" lon="2.38059">
        <ele>71.2</ele>
        <time>2021-07-11T15:31:27Z</time>
      </trkpt>
      <trkpt lat="49.84228" lon="2.38059">
        <ele>71.2</ele>
        <time>2021-07-11T15:31:28Z</time>
      </trkpt>
      <trkpt lat="49.84228" lon="2.38059">
        <ele>71.2</ele>
        <time>2021-07-11T15:31:30Z</time>
      </trkpt>
      <trkpt lat="49.84228" lon="2.38059">
        <ele>71.2</ele>
        <time>2021-07-11T15:31:31Z</time>
      </trkpt>
      <trkpt lat="49.84228" lon="2.38059">
        <ele>71.2</ele>
        <time>2021-07-11T15:31:32Z</time>
      </trkpt>
      <trkpt lat="49.84228" lon="2.38059">
        <ele>71.2</ele>
        <time>2021-07-11T15:31:34Z</time>
      </trkpt>
      <trkpt lat="49.84228" lon="2.38059">
        <ele>71.2</ele>
        <time>2021-07-11T15:31:35Z</time>
      </trkpt>
      <trkpt lat="49.84228" lon="2.38059">
        <ele>71.2</ele>
        <time>2021-07-11T15:31:36Z</time>
      </trkpt>
      <trkpt lat="49.84228" lon="2.38059">
        <ele>71.2</ele>
        <time>2021-07-11T15:31:38Z</time>
      </trkpt>
      <trkpt lat="49.84228" lon="2.38059">
        <ele>71.2</ele>
        <time>2021-07-11T15:31:39Z</time>
      </trkpt>
      <trkpt lat="49.84228" lon="2.38059">
        <ele>71.2</ele>
        <time>2021-07-11T15:31:41Z</time>
      </trkpt>
      <trkpt lat="49.84228" lon="2.38059">
        <ele>71.2</ele>
        <time>2021-07-11T15:31:42Z</time>
      </trkpt>
      <trkpt lat="49.84228" lon="2.38059">
        <ele>71.2</ele>
        <time>2021-07-11T15:31:44Z</time>
      </trkpt>
      <trkpt lat="49.84228" lon="2.38059">
        <ele>71.2</ele>
        <time>2021-07-11T15:31:46Z</time>
      </trkpt>
      <trkpt lat="49.84228" lon="2.38059">
        <ele>71.2</ele>
        <time>2021-07-11T15:31:48Z</time>
      </trkpt>
      <trkpt lat="49.84228" lon="2.38059">
        <ele>71.2</ele>
        <time>2021-07-11T15:31:50Z</time>
      </trkpt>
      <trkpt lat="49.84228" lon="2.38059">
        <ele>71.2</ele>
        <time>2021-07-11T15:31:51Z</time>
      </trkpt>
      <trkpt lat="49.84228" lon="2.38059">
        <ele>71.2</ele>
        <time>2021-07-11T15:31:53Z</time>
      </trkpt>
      <trkpt lat="49.84228" lon="2.38059">
        <ele>71.2</ele>
        <time>2021-07-11T15:31:55Z</time>
      </trkpt>
      <trkpt lat="49.84228" lon="2.38059">
        <ele>71.2</ele>
        <time>2021-07-11T15:31:57Z</time>
      </trkpt>
      <trkpt lat="49.84228" lon="2.38059">
        <ele>71.2</ele>
        <time>2021-07-11T15:31:58Z</time>
      </trkpt>
      <trkpt lat="49.84228" lon="2.38059">
        <ele>71.2</ele>
        <time>2021-07-11T15:31:59Z</time>
      </trkpt>
      <trkpt lat="49.84228" lon="2.38059">
        <ele>71.2</ele>
        <time>2021-07-11T15:32:01Z</time>
      </trkpt>
      <trkpt lat="49.84229" lon="2.38058">
        <ele>71.1</ele>
        <time>2021-07-11T15:32:02Z</time>
      </trkpt>
      <trkpt lat="49.8423" lon="2.38055">
        <ele>71</ele>
        <time>2021-07-11T15:32:04Z</time>
      </trkpt>
      <trkpt lat="49.84231" lon="2.38054">
        <ele>71</ele>
        <time>2021-07-11T15:32:05Z</time>
      </trkpt>
      <trkpt lat="49.84231" lon="2.38053">
        <ele>71</ele>
        <time>2021-07-11T15:32:06Z</time>
      </trkpt>
      <trkpt lat="49.84232" lon="2.38052">
        <ele>70.9</ele>
        <time>2021-07-11T15:32:07Z</time>
      </trkpt>
      <trkpt lat="49.84233" lon="2.38052">
        <ele>70.9</ele>
        <time>2021-07-11T15:32:08Z</time>
      </trkpt>
      <trkpt lat="49.84233" lon="2.38051">
        <ele>70.8</ele>
        <time>2021-07-11T15:32:09Z</time>
      </trkpt>
      <trkpt lat="49.84233" lon="2.3805">
        <ele>70.8</ele>
        <time>2021-07-11T15:32:11Z</time>
      </trkpt>
      <trkpt lat="49.84234" lon="2.38048">
        <ele>70.7</ele>
        <time>2021-07-11T15:32:12Z</time>
      </trkpt>
      <trkpt lat="49.84235" lon="2.38046">
        <ele>70.7</ele>
        <time>2021-07-11T15:32:13Z</time>
      </trkpt>
      <trkpt lat="49.84237" lon="2.38045">
        <ele>70.6</ele>
        <time>2021-07-11T15:32:15Z</time>
      </trkpt>
      <trkpt lat="49.84238" lon="2.38046">
        <ele>70.5</ele>
        <time>2021-07-11T15:32:16Z</time>
      </trkpt>
      <trkpt lat="49.84239" lon="2.38047">
        <ele>70.4</ele>
        <time>2021-07-11T15:32:18Z</time>
      </trkpt>
      <trkpt lat="49.8424" lon="2.38047">
        <ele>70.4</ele>
        <time>2021-07-11T15:32:19Z</time>
      </trkpt>
      <trkpt lat="49.84241" lon="2.38048">
        <ele>70.4</ele>
        <time>2021-07-11T15:32:20Z</time>
      </trkpt>
      <trkpt lat="49.84241" lon="2.38048">
        <ele>70.3</ele>
        <time>2021-07-11T15:32:22Z</time>
      </trkpt>
      <trkpt lat="49.84241" lon="2.38047">
        <ele>70.3</ele>
        <time>2021-07-11T15:32:23Z</time>
      </trkpt>
      <trkpt lat="49.84241" lon="2.38047">
        <ele>70.3</ele>
        <time>2021-07-11T15:32:24Z</time>
      </trkpt>
      <trkpt lat="49.84241" lon="2.38047">
        <ele>70.3</ele>
        <time>2021-07-11T15:32:26Z</time>
      </trkpt>
      <trkpt lat="49.84241" lon="2.38047">
        <ele>70.3</ele>
        <time>2021-07-11T15:32:28Z</time>
      </trkpt>
      <trkpt lat="49.84241" lon="2.38047">
        <ele>70.3</ele>
        <time>2021-07-11T15:32:29Z</time>
      </trkpt>
      <trkpt lat="49.8424" lon="2.38046">
        <ele>70.3</ele>
        <time>2021-07-11T15:32:31Z</time>
      </trkpt>
      <trkpt lat="49.8424" lon="2.38046">
        <ele>70.3</ele>
        <time>2021-07-11T15:32:32Z</time>
      </trkpt>
      <trkpt lat="49.8424" lon="2.38046">
        <ele>70.2</ele>
        <time>2021-07-11T15:32:34Z</time>
      </trkpt>
      <trkpt lat="49.8424" lon="2.38046">
        <ele>70.2</ele>
        <time>2021-07-11T15:32:35Z</time>
      </trkpt>
      <trkpt lat="49.84239" lon="2.38046">
        <ele>70.2</ele>
        <time>2021-07-11T15:32:36Z</time>
      </trkpt>
      <trkpt lat="49.84239" lon="2.38046">
        <ele>70.2</ele>
        <time>2021-07-11T15:32:38Z</time>
      </trkpt>
      <trkpt lat="49.84239" lon="2.38046">
        <ele>70.2</ele>
        <time>2021-07-11T15:32:40Z</time>
      </trkpt>
      <trkpt lat="49.84239" lon="2.38046">
        <ele>70.2</ele>
        <time>2021-07-11T15:32:41Z</time>
      </trkpt>
      <trkpt lat="49.84239" lon="2.38046">
        <ele>70.2</ele>
        <time>2021-07-11T15:32:42Z</time>
      </trkpt>
      <trkpt lat="49.84239" lon="2.38046">
        <ele>70.2</ele>
        <time>2021-07-11T15:32:43Z</time>
      </trkpt>
      <trkpt lat="49.84239" lon="2.38046">
        <ele>70.2</ele>
        <time>2021-07-11T15:32:45Z</time>
      </trkpt>
      <trkpt lat="49.84239" lon="2.38046">
        <ele>70.2</ele>
        <time>2021-07-11T15:32:47Z</time>
      </trkpt>
      <trkpt lat="49.84239" lon="2.38046">
        <ele>70.2</ele>
        <time>2021-07-11T15:32:48Z</time>
      </trkpt>
      <trkpt lat="49.84239" lon="2.38046">
        <ele>70.2</ele>
        <time>2021-07-11T15:32:50Z</time>
      </trkpt>
      <trkpt lat="49.84239" lon="2.38046">
        <ele>70.2</ele>
        <time>2021-07-11T15:32:52Z</time>
      </trkpt>
      <trkpt lat="49.84239" lon="2.38046">
        <ele>70.2</ele>
        <time>2021-07-11T15:32:53Z</time>
      </trkpt>
      <trkpt lat="49.84239" lon="2.38046">
        <ele>70.2</ele>
        <time>2021-07-11T15:32:54Z</time>
      </trkpt>
      <trkpt lat="49.84239" lon="2.38046">
        <ele>70.2</ele>
        <time>2021-07-11T15:32:56Z</time>
      </trkpt>
      <trkpt lat="49.84239" lon="2.38046">
        <ele>70.2</ele>
        <time>2021-07-11T15:32:57Z</time>
      </trkpt>
      <trkpt lat="49.84239" lon="2.38046">
        <ele>70.2</ele>
        <time>2021-07-11T15:32:58Z</time>
      </trkpt>
      <trkpt lat="49.84239" lon="2.38046">
        <ele>70.2</ele>
        <time>2021-07-11T15:33:00Z</time>
      </trkpt>
      <trkpt lat="49.84239" lon="2.38046">
        <ele>70.2</ele>
        <time>2021-07-11T15:33:02Z</time>
      </trkpt>
      <trkpt lat="49.84239" lon="2.38046">
        <ele>70.2</ele>
        <time>2021-07-11T15:33:03Z</time>
      </trkpt>
      <trkpt lat="49.84239" lon="2.38046">
        <ele>70.2</ele>
        <time>2021-07-11T15:33:04Z</time>
      </trkpt>
      <trkpt lat="49.84239" lon="2.38046">
        <ele>70.2</ele>
        <time>2021-07-11T15:33:06Z</time>
      </trkpt>
      <trkpt lat="49.84239" lon="2.38046">
        <ele>70.2</ele>
        <time>2021-07-11T15:33:07Z</time>
      </trkpt>
      <trkpt lat="49.84239" lon="2.38046">
        <ele>70.2</ele>
        <time>2021-07-11T15:33:09Z</time>
      </trkpt>
      <trkpt lat="49.84239" lon="2.38046">
        <ele>70.2</ele>
        <time>2021-07-11T15:33:10Z</time>
      </trkpt>
      <trkpt lat="49.84239" lon="2.38046">
        <ele>70.2</ele>
        <time>2021-07-11T15:33:11Z</time>
      </trkpt>
      <trkpt lat="49.84239" lon="2.38046">
        <ele>70.2</ele>
        <time>2021-07-11T15:33:13Z</time>
      </trkpt>
      <trkpt lat="49.84239" lon="2.38046">
        <ele>70.2</ele>
        <time>2021-07-11T15:33:14Z</time>
      </trkpt>
      <trkpt lat="49.84239" lon="2.38046">
        <ele>70.2</ele>
        <time>2021-07-11T15:33:16Z</time>
      </trkpt>
      <trkpt lat="49.84239" lon="2.38046">
        <ele>70.2</ele>
        <time>2021-07-11T15:33:18Z</time>
      </trkpt>
      <trkpt lat="49.84239" lon="2.38046">
        <ele>70.2</ele>
        <time>2021-07-11T15:33:20Z</time>
      </trkpt>
      <trkpt lat="49.84239" lon="2.38046">
        <ele>70.2</ele>
        <time>2021-07-11T15:33:22Z</time>
      </trkpt>
      <trkpt lat="49.84239" lon="2.38046">
        <ele>70.2</ele>
        <time>2021-07-11T15:33:24Z</time>
      </trkpt>
      <trkpt lat="49.84239" lon="2.38046">
        <ele>70.2</ele>
        <time>2021-07-11T15:33:26Z</time>
      </trkpt>
      <trkpt lat="49.84239" lon="2.38046">
        <ele>70.2</ele>
        <time>2021-07-11T15:33:27Z</time>
      </trkpt>
      <trkpt lat="49.84239" lon="2.38046">
        <ele>70.2</ele>
        <time>2021-07-11T15:33:29Z</time>
      </trkpt>
      <trkpt lat="49.84239" lon="2.38046">
        <ele>70.2</ele>
        <time>2021-07-11T15:33:30Z</time>
      </trkpt>
      <trkpt lat="49.84239" lon="2.38046">
        <ele>70.2</ele>
        <time>2021-07-11T15:33:32Z</time>
      </trkpt>
      <trkpt lat="49.84239" lon="2.38046">
        <ele>70.2</ele>
        <time>2021-07-11T15:33:34Z</time>
      </trkpt>
      <trkpt lat="49.84239" lon="2.38046">
        <ele>70.2</ele>
        <time>2021-07-11T15:33:36Z</time>
      </trkpt>
      <trkpt lat="49.84239" lon="2.38046">
        <ele>70.2</ele>
        <time>2021-07-11T15:33:38Z</time>
      </trkpt>
      <trkpt lat="49.84239" lon="2.38046">
        <ele>70.2</ele>
        <time>2021-07-11T15:33:39Z</time>
      </trkpt>
      <trkpt lat="49.84239" lon="2.38046">
        <ele>70.2</ele>
        <time>2021-07-11T15:33:40Z</time>
      </trkpt>
      <trkpt lat="49.84239" lon="2.38046">
        <ele>70.2</ele>
        <time>2021-07-11T15:33:42Z</time>
      </trkpt>
      <trkpt lat="49.84239" lon="2.38046">
        <ele>70.2</ele>
        <time>2021-07-11T15:33:43Z</time>
      </trkpt>
      <trkpt lat="49.84239" lon="2.38046">
        <ele>70.2</ele>
        <time>2021-07-11T15:33:45Z</time>
      </trkpt>
      <trkpt lat="49.84239" lon="2.38046">
        <ele>70.2</ele>
        <time>2021-07-11T15:33:47Z</time>
      </trkpt>
      <trkpt lat="49.84239" lon="2.38046">
        <ele>70.2</ele>
        <time>2021-07-11T15:33:49Z</time>
      </trkpt>
      <trkpt lat="49.84239" lon="2.38046">
        <ele>70.2</ele>
        <time>2021-07-11T15:33:51Z</time>
      </trkpt>
      <trkpt lat="49.84239" lon="2.38046">
        <ele>70.2</ele>
        <time>2021-07-11T15:33:52Z</time>
      </trkpt>
      <trkpt lat="49.84239" lon="2.38046">
        <ele>70.2</ele>
        <time>2021-07-11T15:33:54Z</time>
      </trkpt>
      <trkpt lat="49.84239" lon="2.38046">
        <ele>70.2</ele>
        <time>2021-07-11T15:33:55Z</time>
      </trkpt>
      <trkpt lat="49.84239" lon="2.38046">
        <ele>70.2</ele>
        <time>2021-07-11T15:33:57Z</time>
      </trkpt>
      <trkpt lat="49.84239" lon="2.38046">
        <ele>70.2</ele>
        <time>2021-07-11T15:33:58Z</time>
      </trkpt>
      <trkpt lat="49.84239" lon="2.38046">
        <ele>70.2</ele>
        <time>2021-07-11T15:33:59Z</time>
      </trkpt>
      <trkpt lat="49.84239" lon="2.38046">
        <ele>70.2</ele>
        <time>2021-07-11T15:34:01Z</time>
      </trkpt>
      <trkpt lat="49.84239" lon="2.38046">
        <ele>70.2</ele>
        <time>2021-07-11T15:34:03Z</time>
      </trkpt>
      <trkpt lat="49.84239" lon="2.38046">
        <ele>70.2</ele>
        <time>2021-07-11T15:34:05Z</time>
      </trkpt>
      <trkpt lat="49.84239" lon="2.38046">
        <ele>70.2</ele>
        <time>2021-07-11T15:34:06Z</time>
      </trkpt>
      <trkpt lat="49.84239" lon="2.38046">
        <ele>70.2</ele>
        <time>2021-07-11T15:34:07Z</time>
      </trkpt>
      <trkpt lat="49.84239" lon="2.38046">
        <ele>70.2</ele>
        <time>2021-07-11T15:34:09Z</time>
      </trkpt>
      <trkpt lat="49.84239" lon="2.38046">
        <ele>70.2</ele>
        <time>2021-07-11T15:34:11Z</time>
      </trkpt>
      <trkpt lat="49.84239" lon="2.38046">
        <ele>70.2</ele>
        <time>2021-07-11T15:34:13Z</time>
      </trkpt>
      <trkpt lat="49.84239" lon="2.38046">
        <ele>70.2</ele>
        <time>2021-07-11T15:34:14Z</time>
      </trkpt>
      <trkpt lat="49.84239" lon="2.38046">
        <ele>70.2</ele>
        <time>2021-07-11T15:34:15Z</time>
      </trkpt>
      <trkpt lat="49.84239" lon="2.38046">
        <ele>70.2</ele>
        <time>2021-07-11T15:34:17Z</time>
      </trkpt>
      <trkpt lat="49.84239" lon="2.38046">
        <ele>70.2</ele>
        <time>2021-07-11T15:34:19Z</time>
      </trkpt>
      <trkpt lat="49.84239" lon="2.38046">
        <ele>70.2</ele>
        <time>2021-07-11T15:34:20Z</time>
      </trkpt>
      <trkpt lat="49.84239" lon="2.38046">
        <ele>70.2</ele>
        <time>2021-07-11T15:34:21Z</time>
      </trkpt>
      <trkpt lat="49.84239" lon="2.38046">
        <ele>70.2</ele>
        <time>2021-07-11T15:34:23Z</time>
      </trkpt>
      <trkpt lat="49.84239" lon="2.38046">
        <ele>70.2</ele>
        <time>2021-07-11T15:34:24Z</time>
      </trkpt>
      <trkpt lat="49.84239" lon="2.38046">
        <ele>70.2</ele>
        <time>2021-07-11T15:34:25Z</time>
      </trkpt>
      <trkpt lat="49.84239" lon="2.38046">
        <ele>70.2</ele>
        <time>2021-07-11T15:34:26Z</time>
      </trkpt>
      <trkpt lat="49.84239" lon="2.38046">
        <ele>70.2</ele>
        <time>2021-07-11T15:34:28Z</time>
      </trkpt>
      <trkpt lat="49.84239" lon="2.38046">
        <ele>70.2</ele>
        <time>2021-07-11T15:34:30Z</time>
      </trkpt>
      <trkpt lat="49.84239" lon="2.38046">
        <ele>70.2</ele>
        <time>2021-07-11T15:34:32Z</time>
      </trkpt>
      <trkpt lat="49.84239" lon="2.38046">
        <ele>70.2</ele>
        <time>2021-07-11T15:34:34Z</time>
      </trkpt>
      <trkpt lat="49.84239" lon="2.38046">
        <ele>70.2</ele>
        <time>2021-07-11T15:34:35Z</time>
      </trkpt>
      <trkpt lat="49.84239" lon="2.38046">
        <ele>70.2</ele>
        <time>2021-07-11T15:34:37Z</time>
      </trkpt>
      <trkpt lat="49.84239" lon="2.38046">
        <ele>70.2</ele>
        <time>2021-07-11T15:34:39Z</time>
      </trkpt>
      <trkpt lat="49.84239" lon="2.38046">
        <ele>70.2</ele>
        <time>2021-07-11T15:34:41Z</time>
      </trkpt>
      <trkpt lat="49.84239" lon="2.38046">
        <ele>70.2</ele>
        <time>2021-07-11T15:34:43Z</time>
      </trkpt>
      <trkpt lat="49.84239" lon="2.38046">
        <ele>70.2</ele>
        <time>2021-07-11T15:34:44Z</time>
      </trkpt>
      <trkpt lat="49.84239" lon="2.38046">
        <ele>70.2</ele>
        <time>2021-07-11T15:34:46Z</time>
      </trkpt>
      <trkpt lat="49.84239" lon="2.38046">
        <ele>70.2</ele>
        <time>2021-07-11T15:34:48Z</time>
      </trkpt>
      <trkpt lat="49.84239" lon="2.38046">
        <ele>70.2</ele>
        <time>2021-07-11T15:34:50Z</time>
      </trkpt>
      <trkpt lat="49.84239" lon="2.38046">
        <ele>70.2</ele>
        <time>2021-07-11T15:34:52Z</time>
      </trkpt>
      <trkpt lat="49.84239" lon="2.38046">
        <ele>70.2</ele>
        <time>2021-07-11T15:34:53Z</time>
      </trkpt>
      <trkpt lat="49.84239" lon="2.38046">
        <ele>70.2</ele>
        <time>2021-07-11T15:34:54Z</time>
      </trkpt>
      <trkpt lat="49.84239" lon="2.38046">
        <ele>70.2</ele>
        <time>2021-07-11T15:34:56Z</time>
      </trkpt>
      <trkpt lat="49.84239" lon="2.38046">
        <ele>70.2</ele>
        <time>2021-07-11T15:34:57Z</time>
      </trkpt>
      <trkpt lat="49.84239" lon="2.38046">
        <ele>70.2</ele>
        <time>2021-07-11T15:34:59Z</time>
      </trkpt>
      <trkpt lat="49.84239" lon="2.38046">
        <ele>70.2</ele>
        <time>2021-07-11T15:35:00Z</time>
      </trkpt>
      <trkpt lat="49.84239" lon="2.38046">
        <ele>70.2</ele>
        <time>2021-07-11T15:35:02Z</time>
      </trkpt>
      <trkpt lat="49.84239" lon="2.38046">
        <ele>70.2</ele>
        <time>2021-07-11T15:35:03Z</time>
      </trkpt>
      <trkpt lat="49.84239" lon="2.38046">
        <ele>70.2</ele>
        <time>2021-07-11T15:35:04Z</time>
      </trkpt>
      <trkpt lat="49.84239" lon="2.38046">
        <ele>70.2</ele>
        <time>2021-07-11T15:35:05Z</time>
      </trkpt>
      <trkpt lat="49.84239" lon="2.38046">
        <ele>70.2</ele>
        <time>2021-07-11T15:35:07Z</time>
      </trkpt>
      <trkpt lat="49.84239" lon="2.38046">
        <ele>70.2</ele>
        <time>2021-07-11T15:35:09Z</time>
      </trkpt>
      <trkpt lat="49.84238" lon="2.38045">
        <ele>70.1</ele>
        <time>2021-07-11T15:35:10Z</time>
      </trkpt>
      <trkpt lat="49.84238" lon="2.38044">
        <ele>70.1</ele>
        <time>2021-07-11T15:35:11Z</time>
      </trkpt>
      <trkpt lat="49.84238" lon="2.38042">
        <ele>70</ele>
        <time>2021-07-11T15:35:13Z</time>
      </trkpt>
      <trkpt lat="49.84238" lon="2.3804">
        <ele>69.9</ele>
        <time>2021-07-11T15:35:14Z</time>
      </trkpt>
      <trkpt lat="49.84237" lon="2.38038">
        <ele>69.9</ele>
        <time>2021-07-11T15:35:15Z</time>
      </trkpt>
      <trkpt lat="49.84237" lon="2.38036">
        <ele>69.8</ele>
        <time>2021-07-11T15:35:16Z</time>
      </trkpt>
      <trkpt lat="49.84237" lon="2.38034">
        <ele>69.7</ele>
        <time>2021-07-11T15:35:18Z</time>
      </trkpt>
      <trkpt lat="49.84237" lon="2.38032">
        <ele>69.6</ele>
        <time>2021-07-11T15:35:19Z</time>
      </trkpt>
      <trkpt lat="49.84236" lon="2.38029">
        <ele>69.5</ele>
        <time>2021-07-11T15:35:20Z</time>
      </trkpt>
      <trkpt lat="49.84236" lon="2.38027">
        <ele>69.4</ele>
        <time>2021-07-11T15:35:21Z</time>
      </trkpt>
      <trkpt lat="49.84236" lon="2.38025">
        <ele>69.3</ele>
        <time>2021-07-11T15:35:22Z</time>
      </trkpt>
      <trkpt lat="49.84237" lon="2.38022">
        <ele>69.3</ele>
        <time>2021-07-11T15:35:23Z</time>
      </trkpt>
      <trkpt lat="49.84237" lon="2.3802">
        <ele>69.2</ele>
        <time>2021-07-11T15:35:24Z</time>
      </trkpt>
      <trkpt lat="49.84237" lon="2.38018">
        <ele>69.1</ele>
        <time>2021-07-11T15:35:26Z</time>
      </trkpt>
      <trkpt lat="49.84237" lon="2.38016">
        <ele>69</ele>
        <time>2021-07-11T15:35:27Z</time>
      </trkpt>
      <trkpt lat="49.84238" lon="2.38014">
        <ele>68.9</ele>
        <time>2021-07-11T15:35:28Z</time>
      </trkpt>
      <trkpt lat="49.84238" lon="2.38011">
        <ele>68.8</ele>
        <time>2021-07-11T15:35:29Z</time>
      </trkpt>
      <trkpt lat="49.84239" lon="2.38009">
        <ele>68.7</ele>
        <time>2021-07-11T15:35:31Z</time>
      </trkpt>
      <trkpt lat="49.84239" lon="2.38008">
        <ele>68.6</ele>
        <time>2021-07-11T15:35:32Z</time>
      </trkpt>
      <trkpt lat="49.84239" lon="2.38006">
        <ele>68.6</ele>
        <time>2021-07-11T15:35:33Z</time>
      </trkpt>
      <trkpt lat="49.8424" lon="2.38003">
        <ele>68.4</ele>
        <time>2021-07-11T15:35:35Z</time>
      </trkpt>
      <trkpt lat="49.84241" lon="2.38002">
        <ele>68.3</ele>
        <time>2021-07-11T15:35:36Z</time>
      </trkpt>
      <trkpt lat="49.84242" lon="2.38001">
        <ele>68.2</ele>
        <time>2021-07-11T15:35:37Z</time>
      </trkpt>
      <trkpt lat="49.84243" lon="2.38">
        <ele>68.2</ele>
        <time>2021-07-11T15:35:38Z</time>
      </trkpt>
      <trkpt lat="49.84243" lon="2.37998">
        <ele>68.1</ele>
        <time>2021-07-11T15:35:39Z</time>
      </trkpt>
      <trkpt lat="49.84244" lon="2.37996">
        <ele>68</ele>
        <time>2021-07-11T15:35:40Z</time>
      </trkpt>
      <trkpt lat="49.84244" lon="2.37994">
        <ele>67.9</ele>
        <time>2021-07-11T15:35:41Z</time>
      </trkpt>
      <trkpt lat="49.84245" lon="2.37993">
        <ele>67.8</ele>
        <time>2021-07-11T15:35:42Z</time>
      </trkpt>
      <trkpt lat="49.84245" lon="2.37991">
        <ele>67.8</ele>
        <time>2021-07-11T15:35:43Z</time>
      </trkpt>
      <trkpt lat="49.84245" lon="2.3799">
        <ele>67.7</ele>
        <time>2021-07-11T15:35:45Z</time>
      </trkpt>
      <trkpt lat="49.84245" lon="2.37989">
        <ele>67.6</ele>
        <time>2021-07-11T15:35:46Z</time>
      </trkpt>
      <trkpt lat="49.84246" lon="2.37987">
        <ele>67.5</ele>
        <time>2021-07-11T15:35:47Z</time>
      </trkpt>
      <trkpt lat="49.84247" lon="2.37985">
        <ele>67.5</ele>
        <time>2021-07-11T15:35:48Z</time>
      </trkpt>
      <trkpt lat="49.84248" lon="2.37983">
        <ele>67.4</ele>
        <time>2021-07-11T15:35:49Z</time>
      </trkpt>
      <trkpt lat="49.84248" lon="2.37981">
        <ele>67.3</ele>
        <time>2021-07-11T15:35:50Z</time>
      </trkpt>
      <trkpt lat="49.84249" lon="2.3798">
        <ele>67.2</ele>
        <time>2021-07-11T15:35:51Z</time>
      </trkpt>
      <trkpt lat="49.8425" lon="2.37978">
        <ele>67</ele>
        <time>2021-07-11T15:35:53Z</time>
      </trkpt>
      <trkpt lat="49.84251" lon="2.37976">
        <ele>66.9</ele>
        <time>2021-07-11T15:35:54Z</time>
      </trkpt>
      <trkpt lat="49.84252" lon="2.37974">
        <ele>66.8</ele>
        <time>2021-07-11T15:35:55Z</time>
      </trkpt>
      <trkpt lat="49.84253" lon="2.37972">
        <ele>66.7</ele>
        <time>2021-07-11T15:35:56Z</time>
      </trkpt>
      <trkpt lat="49.84254" lon="2.3797">
        <ele>66.6</ele>
        <time>2021-07-11T15:35:57Z</time>
      </trkpt>
      <trkpt lat="49.84255" lon="2.37968">
        <ele>66.5</ele>
        <time>2021-07-11T15:35:58Z</time>
      </trkpt>
      <trkpt lat="49.84256" lon="2.37967">
        <ele>66.4</ele>
        <time>2021-07-11T15:35:59Z</time>
      </trkpt>
      <trkpt lat="49.84257" lon="2.37965">
        <ele>66.3</ele>
        <time>2021-07-11T15:36:00Z</time>
      </trkpt>
      <trkpt lat="49.84258" lon="2.37963">
        <ele>66.2</ele>
        <time>2021-07-11T15:36:02Z</time>
      </trkpt>
      <trkpt lat="49.84259" lon="2.37962">
        <ele>66.1</ele>
        <time>2021-07-11T15:36:03Z</time>
      </trkpt>
      <trkpt lat="49.8426" lon="2.3796">
        <ele>66</ele>
        <time>2021-07-11T15:36:04Z</time>
      </trkpt>
      <trkpt lat="49.8426" lon="2.37958">
        <ele>65.9</ele>
        <time>2021-07-11T15:36:05Z</time>
      </trkpt>
      <trkpt lat="49.84261" lon="2.37957">
        <ele>65.8</ele>
        <time>2021-07-11T15:36:06Z</time>
      </trkpt>
      <trkpt lat="49.84262" lon="2.37955">
        <ele>65.7</ele>
        <time>2021-07-11T15:36:08Z</time>
      </trkpt>
      <trkpt lat="49.84263" lon="2.37953">
        <ele>65.6</ele>
        <time>2021-07-11T15:36:09Z</time>
      </trkpt>
      <trkpt lat="49.84264" lon="2.37952">
        <ele>65.6</ele>
        <time>2021-07-11T15:36:10Z</time>
      </trkpt>
      <trkpt lat="49.84265" lon="2.3795">
        <ele>65.5</ele>
        <time>2021-07-11T15:36:11Z</time>
      </trkpt>
      <trkpt lat="49.84266" lon="2.37948">
        <ele>65.3</ele>
        <time>2021-07-11T15:36:12Z</time>
      </trkpt>
      <trkpt lat="49.84267" lon="2.37947">
        <ele>65.3</ele>
        <time>2021-07-11T15:36:14Z</time>
      </trkpt>
      <trkpt lat="49.84268" lon="2.37946">
        <ele>65.2</ele>
        <time>2021-07-11T15:36:15Z</time>
      </trkpt>
      <trkpt lat="49.84269" lon="2.37945">
        <ele>65.1</ele>
        <time>2021-07-11T15:36:16Z</time>
      </trkpt>
      <trkpt lat="49.8427" lon="2.37944">
        <ele>65.1</ele>
        <time>2021-07-11T15:36:17Z</time>
      </trkpt>
      <trkpt lat="49.84271" lon="2.37943">
        <ele>65</ele>
        <time>2021-07-11T15:36:18Z</time>
      </trkpt>
      <trkpt lat="49.84272" lon="2.37942">
        <ele>64.9</ele>
        <time>2021-07-11T15:36:19Z</time>
      </trkpt>
      <trkpt lat="49.84273" lon="2.37941">
        <ele>64.9</ele>
        <time>2021-07-11T15:36:21Z</time>
      </trkpt>
      <trkpt lat="49.84274" lon="2.37941">
        <ele>64.8</ele>
        <time>2021-07-11T15:36:22Z</time>
      </trkpt>
      <trkpt lat="49.84275" lon="2.3794">
        <ele>64.8</ele>
        <time>2021-07-11T15:36:23Z</time>
      </trkpt>
      <trkpt lat="49.84276" lon="2.37938">
        <ele>64.7</ele>
        <time>2021-07-11T15:36:25Z</time>
      </trkpt>
      <trkpt lat="49.84277" lon="2.37937">
        <ele>64.6</ele>
        <time>2021-07-11T15:36:26Z</time>
      </trkpt>
      <trkpt lat="49.84277" lon="2.37936">
        <ele>64.6</ele>
        <time>2021-07-11T15:36:27Z</time>
      </trkpt>
      <trkpt lat="49.84278" lon="2.37934">
        <ele>64.5</ele>
        <time>2021-07-11T15:36:28Z</time>
      </trkpt>
      <trkpt lat="49.84279" lon="2.37933">
        <ele>64.4</ele>
        <time>2021-07-11T15:36:29Z</time>
      </trkpt>
      <trkpt lat="49.8428" lon="2.37931">
        <ele>64.4</ele>
        <time>2021-07-11T15:36:30Z</time>
      </trkpt>
      <trkpt lat="49.84281" lon="2.3793">
        <ele>64.3</ele>
        <time>2021-07-11T15:36:31Z</time>
      </trkpt>
      <trkpt lat="49.84282" lon="2.37929">
        <ele>64.2</ele>
        <time>2021-07-11T15:36:33Z</time>
      </trkpt>
      <trkpt lat="49.84283" lon="2.37928">
        <ele>64.2</ele>
        <time>2021-07-11T15:36:34Z</time>
      </trkpt>
      <trkpt lat="49.84284" lon="2.37927">
        <ele>64.1</ele>
        <time>2021-07-11T15:36:35Z</time>
      </trkpt>
      <trkpt lat="49.84285" lon="2.37927">
        <ele>64.1</ele>
        <time>2021-07-11T15:36:36Z</time>
      </trkpt>
      <trkpt lat="49.84286" lon="2.37926">
        <ele>64</ele>
        <time>2021-07-11T15:36:37Z</time>
      </trkpt>
      <trkpt lat="49.84287" lon="2.37925">
        <ele>63.9</ele>
        <time>2021-07-11T15:36:38Z</time>
      </trkpt>
      <trkpt lat="49.84288" lon="2.37924">
        <ele>63.9</ele>
        <time>2021-07-11T15:36:39Z</time>
      </trkpt>
      <trkpt lat="49.84289" lon="2.37923">
        <ele>63.8</ele>
        <time>2021-07-11T15:36:40Z</time>
      </trkpt>
      <trkpt lat="49.8429" lon="2.37922">
        <ele>63.7</ele>
        <time>2021-07-11T15:36:42Z</time>
      </trkpt>
      <trkpt lat="49.84292" lon="2.37921">
        <ele>63.6</ele>
        <time>2021-07-11T15:36:43Z</time>
      </trkpt>
      <trkpt lat="49.84293" lon="2.37921">
        <ele>63.6</ele>
        <time>2021-07-11T15:36:44Z</time>
      </trkpt>
      <trkpt lat="49.84294" lon="2.3792">
        <ele>63.5</ele>
        <time>2021-07-11T15:36:45Z</time>
      </trkpt>
      <trkpt lat="49.84295" lon="2.37919">
        <ele>63.5</ele>
        <time>2021-07-11T15:36:46Z</time>
      </trkpt>
      <trkpt lat="49.84296" lon="2.37919">
        <ele>63.4</ele>
        <time>2021-07-11T15:36:47Z</time>
      </trkpt>
      <trkpt lat="49.84298" lon="2.37917">
        <ele>63.3</ele>
        <time>2021-07-11T15:36:48Z</time>
      </trkpt>
      <trkpt lat="49.84299" lon="2.37917">
        <ele>63.2</ele>
        <time>2021-07-11T15:36:50Z</time>
      </trkpt>
      <trkpt lat="49.843" lon="2.37916">
        <ele>63.2</ele>
        <time>2021-07-11T15:36:51Z</time>
      </trkpt>
      <trkpt lat="49.84301" lon="2.37916">
        <ele>63.1</ele>
        <time>2021-07-11T15:36:52Z</time>
      </trkpt>
      <trkpt lat="49.84302" lon="2.37915">
        <ele>63.1</ele>
        <time>2021-07-11T15:36:53Z</time>
      </trkpt>
      <trkpt lat="49.84303" lon="2.37915">
        <ele>63.1</ele>
        <time>2021-07-11T15:36:54Z</time>
      </trkpt>
      <trkpt lat="49.84304" lon="2.37915">
        <ele>63.1</ele>
        <time>2021-07-11T15:36:55Z</time>
      </trkpt>
      <trkpt lat="49.84305" lon="2.37915">
        <ele>63.1</ele>
        <time>2021-07-11T15:36:56Z</time>
      </trkpt>
      <trkpt lat="49.84306" lon="2.37916">
        <ele>63</ele>
        <time>2021-07-11T15:36:57Z</time>
      </trkpt>
      <trkpt lat="49.84308" lon="2.37917">
        <ele>63</ele>
        <time>2021-07-11T15:36:59Z</time>
      </trkpt>
      <trkpt lat="49.84308" lon="2.37918">
        <ele>63</ele>
        <time>2021-07-11T15:37:00Z</time>
      </trkpt>
      <trkpt lat="49.84309" lon="2.37919">
        <ele>63</ele>
        <time>2021-07-11T15:37:01Z</time>
      </trkpt>
      <trkpt lat="49.84311" lon="2.37921">
        <ele>63</ele>
        <time>2021-07-11T15:37:02Z</time>
      </trkpt>
      <trkpt lat="49.84311" lon="2.37922">
        <ele>63</ele>
        <time>2021-07-11T15:37:03Z</time>
      </trkpt>
      <trkpt lat="49.84312" lon="2.37923">
        <ele>63</ele>
        <time>2021-07-11T15:37:04Z</time>
      </trkpt>
      <trkpt lat="49.84313" lon="2.37924">
        <ele>62.9</ele>
        <time>2021-07-11T15:37:05Z</time>
      </trkpt>
      <trkpt lat="49.84314" lon="2.37925">
        <ele>62.9</ele>
        <time>2021-07-11T15:37:07Z</time>
      </trkpt>
      <trkpt lat="49.84315" lon="2.37926">
        <ele>62.9</ele>
        <time>2021-07-11T15:37:08Z</time>
      </trkpt>
      <trkpt lat="49.84316" lon="2.37927">
        <ele>62.8</ele>
        <time>2021-07-11T15:37:09Z</time>
      </trkpt>
      <trkpt lat="49.84317" lon="2.37928">
        <ele>62.8</ele>
        <time>2021-07-11T15:37:10Z</time>
      </trkpt>
      <trkpt lat="49.84317" lon="2.37929">
        <ele>62.7</ele>
        <time>2021-07-11T15:37:11Z</time>
      </trkpt>
      <trkpt lat="49.84318" lon="2.3793">
        <ele>62.7</ele>
        <time>2021-07-11T15:37:12Z</time>
      </trkpt>
      <trkpt lat="49.84319" lon="2.37932">
        <ele>62.6</ele>
        <time>2021-07-11T15:37:13Z</time>
      </trkpt>
      <trkpt lat="49.8432" lon="2.37933">
        <ele>62.6</ele>
        <time>2021-07-11T15:37:15Z</time>
      </trkpt>
      <trkpt lat="49.84321" lon="2.37934">
        <ele>62.5</ele>
        <time>2021-07-11T15:37:16Z</time>
      </trkpt>
      <trkpt lat="49.84322" lon="2.37935">
        <ele>62.5</ele>
        <time>2021-07-11T15:37:17Z</time>
      </trkpt>
      <trkpt lat="49.84323" lon="2.37936">
        <ele>62.4</ele>
        <time>2021-07-11T15:37:18Z</time>
      </trkpt>
      <trkpt lat="49.84324" lon="2.37937">
        <ele>62.4</ele>
        <time>2021-07-11T15:37:19Z</time>
      </trkpt>
      <trkpt lat="49.84325" lon="2.37937">
        <ele>62.3</ele>
        <time>2021-07-11T15:37:20Z</time>
      </trkpt>
      <trkpt lat="49.84326" lon="2.37939">
        <ele>62.3</ele>
        <time>2021-07-11T15:37:21Z</time>
      </trkpt>
      <trkpt lat="49.84326" lon="2.37939">
        <ele>62.2</ele>
        <time>2021-07-11T15:37:23Z</time>
      </trkpt>
      <trkpt lat="49.84327" lon="2.3794">
        <ele>62.2</ele>
        <time>2021-07-11T15:37:24Z</time>
      </trkpt>
      <trkpt lat="49.84328" lon="2.37941">
        <ele>62.1</ele>
        <time>2021-07-11T15:37:25Z</time>
      </trkpt>
      <trkpt lat="49.84329" lon="2.37941">
        <ele>62.1</ele>
        <time>2021-07-11T15:37:26Z</time>
      </trkpt>
      <trkpt lat="49.8433" lon="2.37942">
        <ele>62</ele>
        <time>2021-07-11T15:37:27Z</time>
      </trkpt>
      <trkpt lat="49.84331" lon="2.37943">
        <ele>62</ele>
        <time>2021-07-11T15:37:28Z</time>
      </trkpt>
      <trkpt lat="49.84332" lon="2.37943">
        <ele>61.9</ele>
        <time>2021-07-11T15:37:29Z</time>
      </trkpt>
      <trkpt lat="49.84333" lon="2.37944">
        <ele>61.9</ele>
        <time>2021-07-11T15:37:31Z</time>
      </trkpt>
      <trkpt lat="49.84334" lon="2.37945">
        <ele>61.8</ele>
        <time>2021-07-11T15:37:32Z</time>
      </trkpt>
      <trkpt lat="49.84336" lon="2.37945">
        <ele>61.8</ele>
        <time>2021-07-11T15:37:33Z</time>
      </trkpt>
      <trkpt lat="49.84337" lon="2.37946">
        <ele>61.7</ele>
        <time>2021-07-11T15:37:34Z</time>
      </trkpt>
      <trkpt lat="49.84338" lon="2.37945">
        <ele>61.7</ele>
        <time>2021-07-11T15:37:35Z</time>
      </trkpt>
      <trkpt lat="49.84339" lon="2.37945">
        <ele>61.7</ele>
        <time>2021-07-11T15:37:36Z</time>
      </trkpt>
      <trkpt lat="49.8434" lon="2.37945">
        <ele>61.6</ele>
        <time>2021-07-11T15:37:37Z</time>
      </trkpt>
      <trkpt lat="49.84341" lon="2.37945">
        <ele>61.6</ele>
        <time>2021-07-11T15:37:39Z</time>
      </trkpt>
      <trkpt lat="49.84342" lon="2.37946">
        <ele>61.2</ele>
        <time>2021-07-11T15:37:40Z</time>
      </trkpt>
      <trkpt lat="49.84343" lon="2.37946">
        <ele>61.2</ele>
        <time>2021-07-11T15:37:41Z</time>
      </trkpt>
      <trkpt lat="49.84345" lon="2.37946">
        <ele>61.2</ele>
        <time>2021-07-11T15:37:42Z</time>
      </trkpt>
      <trkpt lat="49.84346" lon="2.37946">
        <ele>61.2</ele>
        <time>2021-07-11T15:37:44Z</time>
      </trkpt>
      <trkpt lat="49.84347" lon="2.37945">
        <ele>61.2</ele>
        <time>2021-07-11T15:37:45Z</time>
      </trkpt>
      <trkpt lat="49.84348" lon="2.37944">
        <ele>61.2</ele>
        <time>2021-07-11T15:37:46Z</time>
      </trkpt>
      <trkpt lat="49.84348" lon="2.37942">
        <ele>61.2</ele>
        <time>2021-07-11T15:37:48Z</time>
      </trkpt>
      <trkpt lat="49.84348" lon="2.37941">
        <ele>61.2</ele>
        <time>2021-07-11T15:37:49Z</time>
      </trkpt>
      <trkpt lat="49.84349" lon="2.37939">
        <ele>61.2</ele>
        <time>2021-07-11T15:37:50Z</time>
      </trkpt>
      <trkpt lat="49.84348" lon="2.37938">
        <ele>61.2</ele>
        <time>2021-07-11T15:37:51Z</time>
      </trkpt>
      <trkpt lat="49.84348" lon="2.37937">
        <ele>61.2</ele>
        <time>2021-07-11T15:37:52Z</time>
      </trkpt>
      <trkpt lat="49.84347" lon="2.37936">
        <ele>61.2</ele>
        <time>2021-07-11T15:37:53Z</time>
      </trkpt>
      <trkpt lat="49.84346" lon="2.37934">
        <ele>61.2</ele>
        <time>2021-07-11T15:37:55Z</time>
      </trkpt>
      <trkpt lat="49.84345" lon="2.37933">
        <ele>61.2</ele>
        <time>2021-07-11T15:37:56Z</time>
      </trkpt>
      <trkpt lat="49.84344" lon="2.37932">
        <ele>61.2</ele>
        <time>2021-07-11T15:37:57Z</time>
      </trkpt>
      <trkpt lat="49.84342" lon="2.37931">
        <ele>61.2</ele>
        <time>2021-07-11T15:37:58Z</time>
      </trkpt>
      <trkpt lat="49.84342" lon="2.3793">
        <ele>60.6</ele>
        <time>2021-07-11T15:37:59Z</time>
      </trkpt>
      <trkpt lat="49.84341" lon="2.37929">
        <ele>60.6</ele>
        <time>2021-07-11T15:38:00Z</time>
      </trkpt>
      <trkpt lat="49.8434" lon="2.37928">
        <ele>60.5</ele>
        <time>2021-07-11T15:38:01Z</time>
      </trkpt>
      <trkpt lat="49.84339" lon="2.37926">
        <ele>60.5</ele>
        <time>2021-07-11T15:38:02Z</time>
      </trkpt>
      <trkpt lat="49.84338" lon="2.37925">
        <ele>60.4</ele>
        <time>2021-07-11T15:38:03Z</time>
      </trkpt>
      <trkpt lat="49.84337" lon="2.37923">
        <ele>60.3</ele>
        <time>2021-07-11T15:38:04Z</time>
      </trkpt>
      <trkpt lat="49.84336" lon="2.37922">
        <ele>60.3</ele>
        <time>2021-07-11T15:38:06Z</time>
      </trkpt>
      <trkpt lat="49.84335" lon="2.37919">
        <ele>60.2</ele>
        <time>2021-07-11T15:38:07Z</time>
      </trkpt>
      <trkpt lat="49.84334" lon="2.37918">
        <ele>60.1</ele>
        <time>2021-07-11T15:38:08Z</time>
      </trkpt>
      <trkpt lat="49.84334" lon="2.37917">
        <ele>60.1</ele>
        <time>2021-07-11T15:38:09Z</time>
      </trkpt>
      <trkpt lat="49.84333" lon="2.37914">
        <ele>60</ele>
        <time>2021-07-11T15:38:10Z</time>
      </trkpt>
      <trkpt lat="49.84332" lon="2.37913">
        <ele>60</ele>
        <time>2021-07-11T15:38:11Z</time>
      </trkpt>
      <trkpt lat="49.84332" lon="2.37912">
        <ele>59.9</ele>
        <time>2021-07-11T15:38:12Z</time>
      </trkpt>
      <trkpt lat="49.8433" lon="2.3791">
        <ele>59.8</ele>
        <time>2021-07-11T15:38:13Z</time>
      </trkpt>
      <trkpt lat="49.84329" lon="2.37909">
        <ele>59.8</ele>
        <time>2021-07-11T15:38:14Z</time>
      </trkpt>
      <trkpt lat="49.84329" lon="2.37908">
        <ele>59.7</ele>
        <time>2021-07-11T15:38:15Z</time>
      </trkpt>
      <trkpt lat="49.84327" lon="2.37907">
        <ele>59.7</ele>
        <time>2021-07-11T15:38:16Z</time>
      </trkpt>
      <trkpt lat="49.84326" lon="2.37906">
        <ele>59.6</ele>
        <time>2021-07-11T15:38:18Z</time>
      </trkpt>
      <trkpt lat="49.84325" lon="2.37906">
        <ele>59.6</ele>
        <time>2021-07-11T15:38:19Z</time>
      </trkpt>
      <trkpt lat="49.84324" lon="2.37905">
        <ele>59.5</ele>
        <time>2021-07-11T15:38:20Z</time>
      </trkpt>
      <trkpt lat="49.84323" lon="2.37904">
        <ele>59.5</ele>
        <time>2021-07-11T15:38:21Z</time>
      </trkpt>
      <trkpt lat="49.84322" lon="2.37903">
        <ele>59.4</ele>
        <time>2021-07-11T15:38:22Z</time>
      </trkpt>
      <trkpt lat="49.8432" lon="2.37902">
        <ele>59.3</ele>
        <time>2021-07-11T15:38:23Z</time>
      </trkpt>
      <trkpt lat="49.84319" lon="2.379">
        <ele>59.3</ele>
        <time>2021-07-11T15:38:25Z</time>
      </trkpt>
      <trkpt lat="49.84318" lon="2.37899">
        <ele>59.2</ele>
        <time>2021-07-11T15:38:26Z</time>
      </trkpt>
      <trkpt lat="49.84316" lon="2.37897">
        <ele>59.1</ele>
        <time>2021-07-11T15:38:27Z</time>
      </trkpt>
      <trkpt lat="49.84315" lon="2.37897">
        <ele>59.1</ele>
        <time>2021-07-11T15:38:28Z</time>
      </trkpt>
      <trkpt lat="49.84315" lon="2.37896">
        <ele>59</ele>
        <time>2021-07-11T15:38:29Z</time>
      </trkpt>
      <trkpt lat="49.84314" lon="2.37895">
        <ele>59</ele>
        <time>2021-07-11T15:38:30Z</time>
      </trkpt>
      <trkpt lat="49.84313" lon="2.37894">
        <ele>58.9</ele>
        <time>2021-07-11T15:38:31Z</time>
      </trkpt>
      <trkpt lat="49.84312" lon="2.37893">
        <ele>58.9</ele>
        <time>2021-07-11T15:38:32Z</time>
      </trkpt>
      <trkpt lat="49.84311" lon="2.37892">
        <ele>58.8</ele>
        <time>2021-07-11T15:38:33Z</time>
      </trkpt>
      <trkpt lat="49.8431" lon="2.37891">
        <ele>58.8</ele>
        <time>2021-07-11T15:38:34Z</time>
      </trkpt>
      <trkpt lat="49.84309" lon="2.37889">
        <ele>58.7</ele>
        <time>2021-07-11T15:38:36Z</time>
      </trkpt>
      <trkpt lat="49.84308" lon="2.37888">
        <ele>58.7</ele>
        <time>2021-07-11T15:38:37Z</time>
      </trkpt>
      <trkpt lat="49.84307" lon="2.37887">
        <ele>58.6</ele>
        <time>2021-07-11T15:38:38Z</time>
      </trkpt>
      <trkpt lat="49.84305" lon="2.37887">
        <ele>58.5</ele>
        <time>2021-07-11T15:38:39Z</time>
      </trkpt>
      <trkpt lat="49.84304" lon="2.37886">
        <ele>58.5</ele>
        <time>2021-07-11T15:38:41Z</time>
      </trkpt>
      <trkpt lat="49.84303" lon="2.37885">
        <ele>58.4</ele>
        <time>2021-07-11T15:38:42Z</time>
      </trkpt>
      <trkpt lat="49.84302" lon="2.37884">
        <ele>58.4</ele>
        <time>2021-07-11T15:38:43Z</time>
      </trkpt>
      <trkpt lat="49.843" lon="2.37883">
        <ele>58.3</ele>
        <time>2021-07-11T15:38:45Z</time>
      </trkpt>
      <trkpt lat="49.84299" lon="2.37882">
        <ele>58.2</ele>
        <time>2021-07-11T15:38:46Z</time>
      </trkpt>
      <trkpt lat="49.84297" lon="2.37881">
        <ele>58.1</ele>
        <time>2021-07-11T15:38:47Z</time>
      </trkpt>
      <trkpt lat="49.84295" lon="2.37879">
        <ele>58.1</ele>
        <time>2021-07-11T15:38:49Z</time>
      </trkpt>
      <trkpt lat="49.84294" lon="2.37879">
        <ele>58</ele>
        <time>2021-07-11T15:38:50Z</time>
      </trkpt>
      <trkpt lat="49.84293" lon="2.37878">
        <ele>58</ele>
        <time>2021-07-11T15:38:51Z</time>
      </trkpt>
      <trkpt lat="49.84291" lon="2.37877">
        <ele>57.9</ele>
        <time>2021-07-11T15:38:52Z</time>
      </trkpt>
      <trkpt lat="49.84289" lon="2.37875">
        <ele>57.8</ele>
        <time>2021-07-11T15:38:53Z</time>
      </trkpt>
      <trkpt lat="49.84288" lon="2.37874">
        <ele>57.8</ele>
        <time>2021-07-11T15:38:54Z</time>
      </trkpt>
      <trkpt lat="49.84286" lon="2.37872">
        <ele>57.7</ele>
        <time>2021-07-11T15:38:55Z</time>
      </trkpt>
      <trkpt lat="49.84285" lon="2.37871">
        <ele>57.6</ele>
        <time>2021-07-11T15:38:57Z</time>
      </trkpt>
      <trkpt lat="49.84285" lon="2.37871">
        <ele>57.6</ele>
        <time>2021-07-11T15:38:58Z</time>
      </trkpt>
      <trkpt lat="49.84284" lon="2.37869">
        <ele>57.6</ele>
        <time>2021-07-11T15:38:59Z</time>
      </trkpt>
      <trkpt lat="49.84282" lon="2.37868">
        <ele>57.5</ele>
        <time>2021-07-11T15:39:00Z</time>
      </trkpt>
      <trkpt lat="49.84281" lon="2.37867">
        <ele>57.5</ele>
        <time>2021-07-11T15:39:01Z</time>
      </trkpt>
      <trkpt lat="49.8428" lon="2.37865">
        <ele>57.4</ele>
        <time>2021-07-11T15:39:03Z</time>
      </trkpt>
      <trkpt lat="49.84279" lon="2.37864">
        <ele>57.3</ele>
        <time>2021-07-11T15:39:04Z</time>
      </trkpt>
      <trkpt lat="49.84277" lon="2.37863">
        <ele>57.3</ele>
        <time>2021-07-11T15:39:05Z</time>
      </trkpt>
      <trkpt lat="49.84276" lon="2.37861">
        <ele>57.2</ele>
        <time>2021-07-11T15:39:06Z</time>
      </trkpt>
      <trkpt lat="49.84275" lon="2.3786">
        <ele>57.2</ele>
        <time>2021-07-11T15:39:07Z</time>
      </trkpt>
      <trkpt lat="49.84274" lon="2.37859">
        <ele>57.1</ele>
        <time>2021-07-11T15:39:08Z</time>
      </trkpt>
      <trkpt lat="49.84272" lon="2.37857">
        <ele>57.1</ele>
        <time>2021-07-11T15:39:10Z</time>
      </trkpt>
      <trkpt lat="49.84271" lon="2.37856">
        <ele>57</ele>
        <time>2021-07-11T15:39:11Z</time>
      </trkpt>
      <trkpt lat="49.8427" lon="2.37855">
        <ele>57</ele>
        <time>2021-07-11T15:39:12Z</time>
      </trkpt>
      <trkpt lat="49.84268" lon="2.37853">
        <ele>56.9</ele>
        <time>2021-07-11T15:39:13Z</time>
      </trkpt>
      <trkpt lat="49.84267" lon="2.37852">
        <ele>56.8</ele>
        <time>2021-07-11T15:39:15Z</time>
      </trkpt>
      <trkpt lat="49.84266" lon="2.37851">
        <ele>56.8</ele>
        <time>2021-07-11T15:39:16Z</time>
      </trkpt>
      <trkpt lat="49.84265" lon="2.3785">
        <ele>56.7</ele>
        <time>2021-07-11T15:39:17Z</time>
      </trkpt>
      <trkpt lat="49.84263" lon="2.37848">
        <ele>56.7</ele>
        <time>2021-07-11T15:39:18Z</time>
      </trkpt>
      <trkpt lat="49.84262" lon="2.37847">
        <ele>56.6</ele>
        <time>2021-07-11T15:39:19Z</time>
      </trkpt>
      <trkpt lat="49.84261" lon="2.37847">
        <ele>56.6</ele>
        <time>2021-07-11T15:39:20Z</time>
      </trkpt>
      <trkpt lat="49.8426" lon="2.37846">
        <ele>56.6</ele>
        <time>2021-07-11T15:39:21Z</time>
      </trkpt>
      <trkpt lat="49.84259" lon="2.37844">
        <ele>56.5</ele>
        <time>2021-07-11T15:39:22Z</time>
      </trkpt>
      <trkpt lat="49.84258" lon="2.37843">
        <ele>56.5</ele>
        <time>2021-07-11T15:39:23Z</time>
      </trkpt>
      <trkpt lat="49.84257" lon="2.37842">
        <ele>56.4</ele>
        <time>2021-07-11T15:39:24Z</time>
      </trkpt>
      <trkpt lat="49.84256" lon="2.37841">
        <ele>56.4</ele>
        <time>2021-07-11T15:39:25Z</time>
      </trkpt>
      <trkpt lat="49.84255" lon="2.3784">
        <ele>56.3</ele>
        <time>2021-07-11T15:39:26Z</time>
      </trkpt>
      <trkpt lat="49.84254" lon="2.37838">
        <ele>56.3</ele>
        <time>2021-07-11T15:39:28Z</time>
      </trkpt>
      <trkpt lat="49.84252" lon="2.37837">
        <ele>56.2</ele>
        <time>2021-07-11T15:39:29Z</time>
      </trkpt>
      <trkpt lat="49.84252" lon="2.37835">
        <ele>56.2</ele>
        <time>2021-07-11T15:39:30Z</time>
      </trkpt>
      <trkpt lat="49.84251" lon="2.37834">
        <ele>56.1</ele>
        <time>2021-07-11T15:39:31Z</time>
      </trkpt>
      <trkpt lat="49.84251" lon="2.37833">
        <ele>56.1</ele>
        <time>2021-07-11T15:39:32Z</time>
      </trkpt>
      <trkpt lat="49.84251" lon="2.37831">
        <ele>56.1</ele>
        <time>2021-07-11T15:39:33Z</time>
      </trkpt>
      <trkpt lat="49.8425" lon="2.3783">
        <ele>56</ele>
        <time>2021-07-11T15:39:34Z</time>
      </trkpt>
      <trkpt lat="49.8425" lon="2.37828">
        <ele>56</ele>
        <time>2021-07-11T15:39:35Z</time>
      </trkpt>
      <trkpt lat="49.84249" lon="2.37826">
        <ele>56</ele>
        <time>2021-07-11T15:39:36Z</time>
      </trkpt>
      <trkpt lat="49.84249" lon="2.37824">
        <ele>54.2</ele>
        <time>2021-07-11T15:39:37Z</time>
      </trkpt>
      <trkpt lat="49.84249" lon="2.37822">
        <ele>54</ele>
        <time>2021-07-11T15:39:39Z</time>
      </trkpt>
      <trkpt lat="49.84248" lon="2.3782">
        <ele>53.7</ele>
        <time>2021-07-11T15:39:40Z</time>
      </trkpt>
      <trkpt lat="49.84248" lon="2.37819">
        <ele>53.6</ele>
        <time>2021-07-11T15:39:41Z</time>
      </trkpt>
      <trkpt lat="49.84249" lon="2.37817">
        <ele>53.3</ele>
        <time>2021-07-11T15:39:43Z</time>
      </trkpt>
      <trkpt lat="49.8425" lon="2.37817">
        <ele>53.2</ele>
        <time>2021-07-11T15:39:44Z</time>
      </trkpt>
      <trkpt lat="49.84251" lon="2.37816">
        <ele>53</ele>
        <time>2021-07-11T15:39:46Z</time>
      </trkpt>
      <trkpt lat="49.84251" lon="2.37815">
        <ele>52.9</ele>
        <time>2021-07-11T15:39:48Z</time>
      </trkpt>
      <trkpt lat="49.84251" lon="2.37815">
        <ele>52.8</ele>
        <time>2021-07-11T15:39:49Z</time>
      </trkpt>
      <trkpt lat="49.84252" lon="2.37816">
        <ele>52.7</ele>
        <time>2021-07-11T15:39:50Z</time>
      </trkpt>
      <trkpt lat="49.84252" lon="2.37817">
        <ele>52.7</ele>
        <time>2021-07-11T15:39:51Z</time>
      </trkpt>
      <trkpt lat="49.84253" lon="2.37817">
        <ele>52.5</ele>
        <time>2021-07-11T15:39:53Z</time>
      </trkpt>
      <trkpt lat="49.84253" lon="2.37817">
        <ele>52.5</ele>
        <time>2021-07-11T15:39:54Z</time>
      </trkpt>
      <trkpt lat="49.84253" lon="2.37817">
        <ele>52.4</ele>
        <time>2021-07-11T15:39:55Z</time>
      </trkpt>
      <trkpt lat="49.84254" lon="2.37817">
        <ele>52.4</ele>
        <time>2021-07-11T15:39:56Z</time>
      </trkpt>
      <trkpt lat="49.84254" lon="2.37818">
        <ele>52.3</ele>
        <time>2021-07-11T15:39:58Z</time>
      </trkpt>
      <trkpt lat="49.84254" lon="2.37818">
        <ele>52.2</ele>
        <time>2021-07-11T15:39:59Z</time>
      </trkpt>
      <trkpt lat="49.84254" lon="2.37819">
        <ele>52.1</ele>
        <time>2021-07-11T15:40:00Z</time>
      </trkpt>
      <trkpt lat="49.84255" lon="2.3782">
        <ele>51.9</ele>
        <time>2021-07-11T15:40:02Z</time>
      </trkpt>
      <trkpt lat="49.84255" lon="2.3782">
        <ele>51.9</ele>
        <time>2021-07-11T15:40:03Z</time>
      </trkpt>
      <trkpt lat="49.84256" lon="2.37822">
        <ele>51.7</ele>
        <time>2021-07-11T15:40:05Z</time>
      </trkpt>
      <trkpt lat="49.84256" lon="2.37822">
        <ele>51.6</ele>
        <time>2021-07-11T15:40:07Z</time>
      </trkpt>
      <trkpt lat="49.84257" lon="2.37822">
        <ele>51.5</ele>
        <time>2021-07-11T15:40:08Z</time>
      </trkpt>
      <trkpt lat="49.84257" lon="2.37821">
        <ele>51.4</ele>
        <time>2021-07-11T15:40:09Z</time>
      </trkpt>
      <trkpt lat="49.84257" lon="2.3782">
        <ele>51.3</ele>
        <time>2021-07-11T15:40:10Z</time>
      </trkpt>
      <trkpt lat="49.84257" lon="2.37819">
        <ele>51.2</ele>
        <time>2021-07-11T15:40:12Z</time>
      </trkpt>
      <trkpt lat="49.84257" lon="2.37818">
        <ele>51</ele>
        <time>2021-07-11T15:40:14Z</time>
      </trkpt>
      <trkpt lat="49.84256" lon="2.37817">
        <ele>50.9</ele>
        <time>2021-07-11T15:40:15Z</time>
      </trkpt>
      <trkpt lat="49.84256" lon="2.37816">
        <ele>50.7</ele>
        <time>2021-07-11T15:40:16Z</time>
      </trkpt>
      <trkpt lat="49.84255" lon="2.37814">
        <ele>50.5</ele>
        <time>2021-07-11T15:40:18Z</time>
      </trkpt>
      <trkpt lat="49.84255" lon="2.37813">
        <ele>50.4</ele>
        <time>2021-07-11T15:40:19Z</time>
      </trkpt>
      <trkpt lat="49.84254" lon="2.37812">
        <ele>50.2</ele>
        <time>2021-07-11T15:40:20Z</time>
      </trkpt>
      <trkpt lat="49.84254" lon="2.37811">
        <ele>50.1</ele>
        <time>2021-07-11T15:40:21Z</time>
      </trkpt>
      <trkpt lat="49.84254" lon="2.3781">
        <ele>50</ele>
        <time>2021-07-11T15:40:22Z</time>
      </trkpt>
      <trkpt lat="49.84254" lon="2.37809">
        <ele>49.8</ele>
        <time>2021-07-11T15:40:24Z</time>
      </trkpt>
      <trkpt lat="49.84253" lon="2.37807">
        <ele>49.6</ele>
        <time>2021-07-11T15:40:26Z</time>
      </trkpt>
      <trkpt lat="49.84253" lon="2.37806">
        <ele>49.4</ele>
        <time>2021-07-11T15:40:27Z</time>
      </trkpt>
      <trkpt lat="49.84254" lon="2.37804">
        <ele>49.2</ele>
        <time>2021-07-11T15:40:29Z</time>
      </trkpt>
      <trkpt lat="49.84254" lon="2.37803">
        <ele>49</ele>
        <time>2021-07-11T15:40:30Z</time>
      </trkpt>
      <trkpt lat="49.84255" lon="2.37801">
        <ele>48.8</ele>
        <time>2021-07-11T15:40:31Z</time>
      </trkpt>
      <trkpt lat="49.84255" lon="2.378">
        <ele>48.7</ele>
        <time>2021-07-11T15:40:32Z</time>
      </trkpt>
      <trkpt lat="49.84256" lon="2.37799">
        <ele>48.5</ele>
        <time>2021-07-11T15:40:33Z</time>
      </trkpt>
      <trkpt lat="49.84256" lon="2.37798">
        <ele>48.3</ele>
        <time>2021-07-11T15:40:34Z</time>
      </trkpt>
      <trkpt lat="49.84256" lon="2.37798">
        <ele>48.2</ele>
        <time>2021-07-11T15:40:36Z</time>
      </trkpt>
      <trkpt lat="49.84256" lon="2.37797">
        <ele>48.1</ele>
        <time>2021-07-11T15:40:37Z</time>
      </trkpt>
      <trkpt lat="49.84256" lon="2.37796">
        <ele>47.9</ele>
        <time>2021-07-11T15:40:38Z</time>
      </trkpt>
      <trkpt lat="49.84256" lon="2.37796">
        <ele>47.9</ele>
        <time>2021-07-11T15:40:39Z</time>
      </trkpt>
      <trkpt lat="49.84257" lon="2.37795">
        <ele>47.8</ele>
        <time>2021-07-11T15:40:40Z</time>
      </trkpt>
      <trkpt lat="49.84257" lon="2.37793">
        <ele>47.5</ele>
        <time>2021-07-11T15:40:42Z</time>
      </trkpt>
      <trkpt lat="49.84258" lon="2.37792">
        <ele>47.3</ele>
        <time>2021-07-11T15:40:43Z</time>
      </trkpt>
      <trkpt lat="49.84258" lon="2.3779">
        <ele>47.1</ele>
        <time>2021-07-11T15:40:44Z</time>
      </trkpt>
      <trkpt lat="49.84259" lon="2.37788">
        <ele>46.9</ele>
        <time>2021-07-11T15:40:46Z</time>
      </trkpt>
      <trkpt lat="49.84258" lon="2.37787">
        <ele>46.8</ele>
        <time>2021-07-11T15:40:47Z</time>
      </trkpt>
      <trkpt lat="49.84258" lon="2.37788">
        <ele>46.7</ele>
        <time>2021-07-11T15:40:48Z</time>
      </trkpt>
      <trkpt lat="49.84258" lon="2.37787">
        <ele>46.7</ele>
        <time>2021-07-11T15:40:49Z</time>
      </trkpt>
      <trkpt lat="49.84258" lon="2.37786">
        <ele>46.5</ele>
        <time>2021-07-11T15:40:50Z</time>
      </trkpt>
      <trkpt lat="49.84258" lon="2.37784">
        <ele>46.3</ele>
        <time>2021-07-11T15:40:52Z</time>
      </trkpt>
      <trkpt lat="49.84259" lon="2.37782">
        <ele>46.1</ele>
        <time>2021-07-11T15:40:53Z</time>
      </trkpt>
      <trkpt lat="49.84259" lon="2.37781">
        <ele>46</ele>
        <time>2021-07-11T15:40:54Z</time>
      </trkpt>
      <trkpt lat="49.84259" lon="2.37779">
        <ele>45.8</ele>
        <time>2021-07-11T15:40:55Z</time>
      </trkpt>
      <trkpt lat="49.84258" lon="2.37778">
        <ele>45.7</ele>
        <time>2021-07-11T15:40:56Z</time>
      </trkpt>
      <trkpt lat="49.84258" lon="2.37777">
        <ele>45.5</ele>
        <time>2021-07-11T15:40:57Z</time>
      </trkpt>
      <trkpt lat="49.84258" lon="2.37775">
        <ele>45.4</ele>
        <time>2021-07-11T15:40:59Z</time>
      </trkpt>
      <trkpt lat="49.84258" lon="2.37774">
        <ele>45.3</ele>
        <time>2021-07-11T15:41:00Z</time>
      </trkpt>
      <trkpt lat="49.84258" lon="2.37773">
        <ele>45.1</ele>
        <time>2021-07-11T15:41:01Z</time>
      </trkpt>
      <trkpt lat="49.84258" lon="2.37771">
        <ele>45</ele>
        <time>2021-07-11T15:41:02Z</time>
      </trkpt>
      <trkpt lat="49.84259" lon="2.3777">
        <ele>44.8</ele>
        <time>2021-07-11T15:41:03Z</time>
      </trkpt>
      <trkpt lat="49.84259" lon="2.37768">
        <ele>44.6</ele>
        <time>2021-07-11T15:41:05Z</time>
      </trkpt>
      <trkpt lat="49.84259" lon="2.37766">
        <ele>44.4</ele>
        <time>2021-07-11T15:41:06Z</time>
      </trkpt>
      <trkpt lat="49.8426" lon="2.37765">
        <ele>44.3</ele>
        <time>2021-07-11T15:41:07Z</time>
      </trkpt>
      <trkpt lat="49.8426" lon="2.37764">
        <ele>44.2</ele>
        <time>2021-07-11T15:41:08Z</time>
      </trkpt>
      <trkpt lat="49.84261" lon="2.37762">
        <ele>44</ele>
        <time>2021-07-11T15:41:09Z</time>
      </trkpt>
      <trkpt lat="49.84261" lon="2.37761">
        <ele>43.8</ele>
        <time>2021-07-11T15:41:10Z</time>
      </trkpt>
      <trkpt lat="49.84262" lon="2.37759">
        <ele>43.6</ele>
        <time>2021-07-11T15:41:12Z</time>
      </trkpt>
      <trkpt lat="49.84263" lon="2.37758">
        <ele>43.4</ele>
        <time>2021-07-11T15:41:13Z</time>
      </trkpt>
      <trkpt lat="49.84263" lon="2.37757">
        <ele>43.3</ele>
        <time>2021-07-11T15:41:14Z</time>
      </trkpt>
      <trkpt lat="49.84263" lon="2.37757">
        <ele>43.2</ele>
        <time>2021-07-11T15:41:15Z</time>
      </trkpt>
      <trkpt lat="49.84264" lon="2.37756">
        <ele>43.1</ele>
        <time>2021-07-11T15:41:16Z</time>
      </trkpt>
      <trkpt lat="49.84264" lon="2.37755">
        <ele>43</ele>
        <time>2021-07-11T15:41:17Z</time>
      </trkpt>
      <trkpt lat="49.84264" lon="2.37753">
        <ele>42.8</ele>
        <time>2021-07-11T15:41:19Z</time>
      </trkpt>
      <trkpt lat="49.84265" lon="2.37752">
        <ele>42.7</ele>
        <time>2021-07-11T15:41:20Z</time>
      </trkpt>
      <trkpt lat="49.84265" lon="2.3775">
        <ele>42.5</ele>
        <time>2021-07-11T15:41:21Z</time>
      </trkpt>
      <trkpt lat="49.84266" lon="2.37749">
        <ele>42.4</ele>
        <time>2021-07-11T15:41:22Z</time>
      </trkpt>
      <trkpt lat="49.84266" lon="2.37747">
        <ele>42.2</ele>
        <time>2021-07-11T15:41:24Z</time>
      </trkpt>
      <trkpt lat="49.84266" lon="2.37747">
        <ele>42.2</ele>
        <time>2021-07-11T15:41:25Z</time>
      </trkpt>
      <trkpt lat="49.84267" lon="2.37747">
        <ele>42.1</ele>
        <time>2021-07-11T15:41:26Z</time>
      </trkpt>
      <trkpt lat="49.84267" lon="2.37747">
        <ele>42</ele>
        <time>2021-07-11T15:41:27Z</time>
      </trkpt>
      <trkpt lat="49.84268" lon="2.37747">
        <ele>41.9</ele>
        <time>2021-07-11T15:41:28Z</time>
      </trkpt>
      <trkpt lat="49.84269" lon="2.37745">
        <ele>41.7</ele>
        <time>2021-07-11T15:41:29Z</time>
      </trkpt>
      <trkpt lat="49.84269" lon="2.37744">
        <ele>41.6</ele>
        <time>2021-07-11T15:41:31Z</time>
      </trkpt>
      <trkpt lat="49.8427" lon="2.37744">
        <ele>41.5</ele>
        <time>2021-07-11T15:41:32Z</time>
      </trkpt>
      <trkpt lat="49.84271" lon="2.37743">
        <ele>41.4</ele>
        <time>2021-07-11T15:41:33Z</time>
      </trkpt>
      <trkpt lat="49.84271" lon="2.37742">
        <ele>41.3</ele>
        <time>2021-07-11T15:41:34Z</time>
      </trkpt>
      <trkpt lat="49.84272" lon="2.37741">
        <ele>41.2</ele>
        <time>2021-07-11T15:41:35Z</time>
      </trkpt>
      <trkpt lat="49.84272" lon="2.3774">
        <ele>41</ele>
        <time>2021-07-11T15:41:36Z</time>
      </trkpt>
      <trkpt lat="49.84273" lon="2.37739">
        <ele>40.9</ele>
        <time>2021-07-11T15:41:38Z</time>
      </trkpt>
      <trkpt lat="49.84273" lon="2.37738">
        <ele>40.7</ele>
        <time>2021-07-11T15:41:39Z</time>
      </trkpt>
      <trkpt lat="49.84274" lon="2.37737">
        <ele>40.6</ele>
        <time>2021-07-11T15:41:40Z</time>
      </trkpt>
      <trkpt lat="49.84274" lon="2.37736">
        <ele>40.5</ele>
        <time>2021-07-11T15:41:41Z</time>
      </trkpt>
      <trkpt lat="49.84274" lon="2.37734">
        <ele>40.4</ele>
        <time>2021-07-11T15:41:42Z</time>
      </trkpt>
      <trkpt lat="49.84275" lon="2.37733">
        <ele>40.2</ele>
        <time>2021-07-11T15:41:43Z</time>
      </trkpt>
      <trkpt lat="49.84275" lon="2.37732">
        <ele>40.1</ele>
        <time>2021-07-11T15:41:45Z</time>
      </trkpt>
      <trkpt lat="49.84276" lon="2.3773">
        <ele>39.9</ele>
        <time>2021-07-11T15:41:46Z</time>
      </trkpt>
      <trkpt lat="49.84277" lon="2.37728">
        <ele>39.7</ele>
        <time>2021-07-11T15:41:47Z</time>
      </trkpt>
      <trkpt lat="49.84277" lon="2.37727">
        <ele>39.6</ele>
        <time>2021-07-11T15:41:48Z</time>
      </trkpt>
      <trkpt lat="49.84278" lon="2.37726">
        <ele>39.5</ele>
        <time>2021-07-11T15:41:49Z</time>
      </trkpt>
      <trkpt lat="49.84278" lon="2.37725">
        <ele>39.4</ele>
        <time>2021-07-11T15:41:50Z</time>
      </trkpt>
      <trkpt lat="49.84278" lon="2.37724">
        <ele>39.3</ele>
        <time>2021-07-11T15:41:52Z</time>
      </trkpt>
      <trkpt lat="49.84278" lon="2.37723">
        <ele>39.2</ele>
        <time>2021-07-11T15:41:53Z</time>
      </trkpt>
      <trkpt lat="49.84279" lon="2.37722">
        <ele>39.1</ele>
        <time>2021-07-11T15:41:54Z</time>
      </trkpt>
      <trkpt lat="49.8428" lon="2.3772">
        <ele>38.9</ele>
        <time>2021-07-11T15:41:55Z</time>
      </trkpt>
      <trkpt lat="49.8428" lon="2.37719">
        <ele>38.8</ele>
        <time>2021-07-11T15:41:56Z</time>
      </trkpt>
      <trkpt lat="49.84281" lon="2.37718">
        <ele>38.7</ele>
        <time>2021-07-11T15:41:57Z</time>
      </trkpt>
      <trkpt lat="49.84281" lon="2.37716">
        <ele>38.5</ele>
        <time>2021-07-11T15:41:59Z</time>
      </trkpt>
      <trkpt lat="49.84282" lon="2.37715">
        <ele>38.4</ele>
        <time>2021-07-11T15:42:00Z</time>
      </trkpt>
      <trkpt lat="49.84282" lon="2.37713">
        <ele>38.2</ele>
        <time>2021-07-11T15:42:02Z</time>
      </trkpt>
      <trkpt lat="49.84282" lon="2.37711">
        <ele>38.1</ele>
        <time>2021-07-11T15:42:03Z</time>
      </trkpt>
      <trkpt lat="49.84283" lon="2.37708">
        <ele>37.8</ele>
        <time>2021-07-11T15:42:05Z</time>
      </trkpt>
      <trkpt lat="49.84283" lon="2.37707">
        <ele>37.7</ele>
        <time>2021-07-11T15:42:06Z</time>
      </trkpt>
      <trkpt lat="49.84283" lon="2.37706">
        <ele>37.6</ele>
        <time>2021-07-11T15:42:07Z</time>
      </trkpt>
      <trkpt lat="49.84283" lon="2.37703">
        <ele>37.5</ele>
        <time>2021-07-11T15:42:08Z</time>
      </trkpt>
      <trkpt lat="49.84283" lon="2.37702">
        <ele>37.3</ele>
        <time>2021-07-11T15:42:09Z</time>
      </trkpt>
      <trkpt lat="49.84283" lon="2.37699">
        <ele>37.1</ele>
        <time>2021-07-11T15:42:11Z</time>
      </trkpt>
      <trkpt lat="49.84284" lon="2.37696">
        <ele>36.9</ele>
        <time>2021-07-11T15:42:12Z</time>
      </trkpt>
      <trkpt lat="49.84284" lon="2.37695">
        <ele>36.8</ele>
        <time>2021-07-11T15:42:13Z</time>
      </trkpt>
      <trkpt lat="49.84283" lon="2.37694">
        <ele>36.7</ele>
        <time>2021-07-11T15:42:14Z</time>
      </trkpt>
      <trkpt lat="49.84283" lon="2.37692">
        <ele>36.6</ele>
        <time>2021-07-11T15:42:15Z</time>
      </trkpt>
      <trkpt lat="49.84284" lon="2.3769">
        <ele>36.4</ele>
        <time>2021-07-11T15:42:16Z</time>
      </trkpt>
      <trkpt lat="49.84284" lon="2.37688">
        <ele>36.3</ele>
        <time>2021-07-11T15:42:17Z</time>
      </trkpt>
      <trkpt lat="49.84284" lon="2.37687">
        <ele>36.2</ele>
        <time>2021-07-11T15:42:19Z</time>
      </trkpt>
      <trkpt lat="49.84285" lon="2.37685">
        <ele>36.1</ele>
        <time>2021-07-11T15:42:20Z</time>
      </trkpt>
      <trkpt lat="49.84285" lon="2.37684">
        <ele>36</ele>
        <time>2021-07-11T15:42:21Z</time>
      </trkpt>
      <trkpt lat="49.84285" lon="2.37682">
        <ele>35.9</ele>
        <time>2021-07-11T15:42:22Z</time>
      </trkpt>
      <trkpt lat="49.84285" lon="2.3768">
        <ele>35.7</ele>
        <time>2021-07-11T15:42:23Z</time>
      </trkpt>
      <trkpt lat="49.84285" lon="2.37678">
        <ele>35.6</ele>
        <time>2021-07-11T15:42:25Z</time>
      </trkpt>
      <trkpt lat="49.84285" lon="2.37677">
        <ele>35.5</ele>
        <time>2021-07-11T15:42:26Z</time>
      </trkpt>
      <trkpt lat="49.84286" lon="2.37676">
        <ele>35.4</ele>
        <time>2021-07-11T15:42:27Z</time>
      </trkpt>
      <trkpt lat="49.84286" lon="2.37674">
        <ele>35.3</ele>
        <time>2021-07-11T15:42:28Z</time>
      </trkpt>
      <trkpt lat="49.84286" lon="2.37672">
        <ele>35.2</ele>
        <time>2021-07-11T15:42:30Z</time>
      </trkpt>
      <trkpt lat="49.84287" lon="2.37671">
        <ele>35.1</ele>
        <time>2021-07-11T15:42:31Z</time>
      </trkpt>
      <trkpt lat="49.84288" lon="2.3767">
        <ele>35</ele>
        <time>2021-07-11T15:42:33Z</time>
      </trkpt>
      <trkpt lat="49.84288" lon="2.3767">
        <ele>35</ele>
        <time>2021-07-11T15:42:34Z</time>
      </trkpt>
      <trkpt lat="49.84288" lon="2.37669">
        <ele>35</ele>
        <time>2021-07-11T15:42:35Z</time>
      </trkpt>
      <trkpt lat="49.84288" lon="2.37668">
        <ele>34.9</ele>
        <time>2021-07-11T15:42:36Z</time>
      </trkpt>
      <trkpt lat="49.84288" lon="2.37667">
        <ele>34.8</ele>
        <time>2021-07-11T15:42:38Z</time>
      </trkpt>
      <trkpt lat="49.84289" lon="2.37666">
        <ele>34.8</ele>
        <time>2021-07-11T15:42:39Z</time>
      </trkpt>
      <trkpt lat="49.84289" lon="2.37664">
        <ele>34.6</ele>
        <time>2021-07-11T15:42:40Z</time>
      </trkpt>
      <trkpt lat="49.8429" lon="2.37662">
        <ele>34.5</ele>
        <time>2021-07-11T15:42:42Z</time>
      </trkpt>
      <trkpt lat="49.8429" lon="2.3766">
        <ele>34.4</ele>
        <time>2021-07-11T15:42:43Z</time>
      </trkpt>
      <trkpt lat="49.8429" lon="2.37659">
        <ele>34.3</ele>
        <time>2021-07-11T15:42:44Z</time>
      </trkpt>
      <trkpt lat="49.84291" lon="2.37657">
        <ele>34.2</ele>
        <time>2021-07-11T15:42:46Z</time>
      </trkpt>
      <trkpt lat="49.84291" lon="2.37656">
        <ele>34.2</ele>
        <time>2021-07-11T15:42:47Z</time>
      </trkpt>
      <trkpt lat="49.84292" lon="2.37655">
        <ele>34.1</ele>
        <time>2021-07-11T15:42:48Z</time>
      </trkpt>
      <trkpt lat="49.84292" lon="2.37654">
        <ele>34.1</ele>
        <time>2021-07-11T15:42:50Z</time>
      </trkpt>
      <trkpt lat="49.84292" lon="2.37653">
        <ele>34</ele>
        <time>2021-07-11T15:42:51Z</time>
      </trkpt>
      <trkpt lat="49.84293" lon="2.37652">
        <ele>33.9</ele>
        <time>2021-07-11T15:42:52Z</time>
      </trkpt>
      <trkpt lat="49.84293" lon="2.3765">
        <ele>33.9</ele>
        <time>2021-07-11T15:42:53Z</time>
      </trkpt>
      <trkpt lat="49.84293" lon="2.37649">
        <ele>33.8</ele>
        <time>2021-07-11T15:42:55Z</time>
      </trkpt>
      <trkpt lat="49.84294" lon="2.37647">
        <ele>33.7</ele>
        <time>2021-07-11T15:42:56Z</time>
      </trkpt>
      <trkpt lat="49.84294" lon="2.37647">
        <ele>33.7</ele>
        <time>2021-07-11T15:42:57Z</time>
      </trkpt>
      <trkpt lat="49.84295" lon="2.37646">
        <ele>33.7</ele>
        <time>2021-07-11T15:42:58Z</time>
      </trkpt>
      <trkpt lat="49.84295" lon="2.37645">
        <ele>33.6</ele>
        <time>2021-07-11T15:42:59Z</time>
      </trkpt>
      <trkpt lat="49.84296" lon="2.37644">
        <ele>33.6</ele>
        <time>2021-07-11T15:43:01Z</time>
      </trkpt>
      <trkpt lat="49.84296" lon="2.37643">
        <ele>33.5</ele>
        <time>2021-07-11T15:43:02Z</time>
      </trkpt>
      <trkpt lat="49.84297" lon="2.37642">
        <ele>33.5</ele>
        <time>2021-07-11T15:43:03Z</time>
      </trkpt>
      <trkpt lat="49.84297" lon="2.37641">
        <ele>33.4</ele>
        <time>2021-07-11T15:43:04Z</time>
      </trkpt>
      <trkpt lat="49.84298" lon="2.37639">
        <ele>33.4</ele>
        <time>2021-07-11T15:43:06Z</time>
      </trkpt>
      <trkpt lat="49.84298" lon="2.37638">
        <ele>33.4</ele>
        <time>2021-07-11T15:43:07Z</time>
      </trkpt>
      <trkpt lat="49.84299" lon="2.37636">
        <ele>33.3</ele>
        <time>2021-07-11T15:43:09Z</time>
      </trkpt>
      <trkpt lat="49.843" lon="2.37635">
        <ele>33.3</ele>
        <time>2021-07-11T15:43:10Z</time>
      </trkpt>
      <trkpt lat="49.84301" lon="2.37633">
        <ele>33.2</ele>
        <time>2021-07-11T15:43:12Z</time>
      </trkpt>
      <trkpt lat="49.84301" lon="2.37632">
        <ele>33.2</ele>
        <time>2021-07-11T15:43:13Z</time>
      </trkpt>
      <trkpt lat="49.84302" lon="2.37631">
        <ele>33.2</ele>
        <time>2021-07-11T15:43:14Z</time>
      </trkpt>
      <trkpt lat="49.84302" lon="2.37629">
        <ele>33.1</ele>
        <time>2021-07-11T15:43:15Z</time>
      </trkpt>
      <trkpt lat="49.84302" lon="2.37627">
        <ele>33.1</ele>
        <time>2021-07-11T15:43:17Z</time>
      </trkpt>
      <trkpt lat="49.84303" lon="2.37625">
        <ele>33.1</ele>
        <time>2021-07-11T15:43:18Z</time>
      </trkpt>
      <trkpt lat="49.84303" lon="2.37623">
        <ele>33</ele>
        <time>2021-07-11T15:43:19Z</time>
      </trkpt>
      <trkpt lat="49.84303" lon="2.37619">
        <ele>33</ele>
        <time>2021-07-11T15:43:21Z</time>
      </trkpt>
      <trkpt lat="49.84304" lon="2.37617">
        <ele>33</ele>
        <time>2021-07-11T15:43:22Z</time>
      </trkpt>
      <trkpt lat="49.84304" lon="2.37614">
        <ele>33</ele>
        <time>2021-07-11T15:43:23Z</time>
      </trkpt>
      <trkpt lat="49.84305" lon="2.37612">
        <ele>33</ele>
        <time>2021-07-11T15:43:24Z</time>
      </trkpt>
      <trkpt lat="49.84305" lon="2.3761">
        <ele>33</ele>
        <time>2021-07-11T15:43:26Z</time>
      </trkpt>
      <trkpt lat="49.84305" lon="2.37608">
        <ele>33</ele>
        <time>2021-07-11T15:43:27Z</time>
      </trkpt>
      <trkpt lat="49.84306" lon="2.37605">
        <ele>33</ele>
        <time>2021-07-11T15:43:28Z</time>
      </trkpt>
      <trkpt lat="49.84306" lon="2.37602">
        <ele>33.1</ele>
        <time>2021-07-11T15:43:29Z</time>
      </trkpt>
      <trkpt lat="49.84307" lon="2.37601">
        <ele>33.1</ele>
        <time>2021-07-11T15:43:31Z</time>
      </trkpt>
      <trkpt lat="49.84307" lon="2.376">
        <ele>33.1</ele>
        <time>2021-07-11T15:43:32Z</time>
      </trkpt>
      <trkpt lat="49.84307" lon="2.37598">
        <ele>33.1</ele>
        <time>2021-07-11T15:43:33Z</time>
      </trkpt>
      <trkpt lat="49.84308" lon="2.37596">
        <ele>33.1</ele>
        <time>2021-07-11T15:43:35Z</time>
      </trkpt>
      <trkpt lat="49.84308" lon="2.37595">
        <ele>33.2</ele>
        <time>2021-07-11T15:43:36Z</time>
      </trkpt>
      <trkpt lat="49.84308" lon="2.37593">
        <ele>33.2</ele>
        <time>2021-07-11T15:43:38Z</time>
      </trkpt>
      <trkpt lat="49.84308" lon="2.3759">
        <ele>33.2</ele>
        <time>2021-07-11T15:43:39Z</time>
      </trkpt>
      <trkpt lat="49.84309" lon="2.37589">
        <ele>33.3</ele>
        <time>2021-07-11T15:43:41Z</time>
      </trkpt>
      <trkpt lat="49.84309" lon="2.37587">
        <ele>33.3</ele>
        <time>2021-07-11T15:43:42Z</time>
      </trkpt>
      <trkpt lat="49.84309" lon="2.37586">
        <ele>33.3</ele>
        <time>2021-07-11T15:43:43Z</time>
      </trkpt>
      <trkpt lat="49.84311" lon="2.37583">
        <ele>33.4</ele>
        <time>2021-07-11T15:43:44Z</time>
      </trkpt>
      <trkpt lat="49.84311" lon="2.37582">
        <ele>33.4</ele>
        <time>2021-07-11T15:43:46Z</time>
      </trkpt>
      <trkpt lat="49.84312" lon="2.37581">
        <ele>33.4</ele>
        <time>2021-07-11T15:43:47Z</time>
      </trkpt>
      <trkpt lat="49.84313" lon="2.3758">
        <ele>33.5</ele>
        <time>2021-07-11T15:43:49Z</time>
      </trkpt>
      <trkpt lat="49.84314" lon="2.3758">
        <ele>33.5</ele>
        <time>2021-07-11T15:43:50Z</time>
      </trkpt>
      <trkpt lat="49.84316" lon="2.3758">
        <ele>33.5</ele>
        <time>2021-07-11T15:43:52Z</time>
      </trkpt>
      <trkpt lat="49.84316" lon="2.3758">
        <ele>33.5</ele>
        <time>2021-07-11T15:43:53Z</time>
      </trkpt>
      <trkpt lat="49.84316" lon="2.3758">
        <ele>33.5</ele>
        <time>2021-07-11T15:43:55Z</time>
      </trkpt>
      <trkpt lat="49.84316" lon="2.37581">
        <ele>33.5</ele>
        <time>2021-07-11T15:43:56Z</time>
      </trkpt>
      <trkpt lat="49.84316" lon="2.37581">
        <ele>33.5</ele>
        <time>2021-07-11T15:43:58Z</time>
      </trkpt>
      <trkpt lat="49.84316" lon="2.37583">
        <ele>33.4</ele>
        <time>2021-07-11T15:43:59Z</time>
      </trkpt>
      <trkpt lat="49.84316" lon="2.37585">
        <ele>33.4</ele>
        <time>2021-07-11T15:44:00Z</time>
      </trkpt>
      <trkpt lat="49.84316" lon="2.37587">
        <ele>33.4</ele>
        <time>2021-07-11T15:44:02Z</time>
      </trkpt>
      <trkpt lat="49.84316" lon="2.37588">
        <ele>33.4</ele>
        <time>2021-07-11T15:44:03Z</time>
      </trkpt>
      <trkpt lat="49.84316" lon="2.3759">
        <ele>33.4</ele>
        <time>2021-07-11T15:44:04Z</time>
      </trkpt>
      <trkpt lat="49.84316" lon="2.37593">
        <ele>33.4</ele>
        <time>2021-07-11T15:44:06Z</time>
      </trkpt>
      <trkpt lat="49.84316" lon="2.37596">
        <ele>33.4</ele>
        <time>2021-07-11T15:44:07Z</time>
      </trkpt>
      <trkpt lat="49.84316" lon="2.37598">
        <ele>33.4</ele>
        <time>2021-07-11T15:44:08Z</time>
      </trkpt>
      <trkpt lat="49.84317" lon="2.37601">
        <ele>33.4</ele>
        <time>2021-07-11T15:44:09Z</time>
      </trkpt>
      <trkpt lat="49.84317" lon="2.37603">
        <ele>33.4</ele>
        <time>2021-07-11T15:44:11Z</time>
      </trkpt>
      <trkpt lat="49.84318" lon="2.37604">
        <ele>33.4</ele>
        <time>2021-07-11T15:44:12Z</time>
      </trkpt>
      <trkpt lat="49.84319" lon="2.37607">
        <ele>33.4</ele>
        <time>2021-07-11T15:44:13Z</time>
      </trkpt>
      <trkpt lat="49.84319" lon="2.37608">
        <ele>33.4</ele>
        <time>2021-07-11T15:44:14Z</time>
      </trkpt>
      <trkpt lat="49.8432" lon="2.37609">
        <ele>33.4</ele>
        <time>2021-07-11T15:44:15Z</time>
      </trkpt>
      <trkpt lat="49.84321" lon="2.37611">
        <ele>33.4</ele>
        <time>2021-07-11T15:44:16Z</time>
      </trkpt>
      <trkpt lat="49.84322" lon="2.37613">
        <ele>33.4</ele>
        <time>2021-07-11T15:44:18Z</time>
      </trkpt>
      <trkpt lat="49.84322" lon="2.37615">
        <ele>33.4</ele>
        <time>2021-07-11T15:44:19Z</time>
      </trkpt>
      <trkpt lat="49.84324" lon="2.37617">
        <ele>33.4</ele>
        <time>2021-07-11T15:44:20Z</time>
      </trkpt>
      <trkpt lat="49.84325" lon="2.37619">
        <ele>33.5</ele>
        <time>2021-07-11T15:44:22Z</time>
      </trkpt>
      <trkpt lat="49.84326" lon="2.3762">
        <ele>33.5</ele>
        <time>2021-07-11T15:44:23Z</time>
      </trkpt>
      <trkpt lat="49.84327" lon="2.37619">
        <ele>33.5</ele>
        <time>2021-07-11T15:44:25Z</time>
      </trkpt>
      <trkpt lat="49.84328" lon="2.3762">
        <ele>33.5</ele>
        <time>2021-07-11T15:44:26Z</time>
      </trkpt>
      <trkpt lat="49.84329" lon="2.37622">
        <ele>33.5</ele>
        <time>2021-07-11T15:44:27Z</time>
      </trkpt>
      <trkpt lat="49.84331" lon="2.37625">
        <ele>33.5</ele>
        <time>2021-07-11T15:44:29Z</time>
      </trkpt>
      <trkpt lat="49.84332" lon="2.37626">
        <ele>33.5</ele>
        <time>2021-07-11T15:44:30Z</time>
      </trkpt>
      <trkpt lat="49.84333" lon="2.37629">
        <ele>33.6</ele>
        <time>2021-07-11T15:44:31Z</time>
      </trkpt>
      <trkpt lat="49.84334" lon="2.3763">
        <ele>33.6</ele>
        <time>2021-07-11T15:44:32Z</time>
      </trkpt>
      <trkpt lat="49.84334" lon="2.37631">
        <ele>33.6</ele>
        <time>2021-07-11T15:44:33Z</time>
      </trkpt>
      <trkpt lat="49.84335" lon="2.37632">
        <ele>33.6</ele>
        <time>2021-07-11T15:44:34Z</time>
      </trkpt>
      <trkpt lat="49.84337" lon="2.37634">
        <ele>33.6</ele>
        <time>2021-07-11T15:44:36Z</time>
      </trkpt>
      <trkpt lat="49.84337" lon="2.37635">
        <ele>33.6</ele>
        <time>2021-07-11T15:44:37Z</time>
      </trkpt>
      <trkpt lat="49.84338" lon="2.37636">
        <ele>33.7</ele>
        <time>2021-07-11T15:44:38Z</time>
      </trkpt>
      <trkpt lat="49.84338" lon="2.37636">
        <ele>33.7</ele>
        <time>2021-07-11T15:44:39Z</time>
      </trkpt>
      <trkpt lat="49.84339" lon="2.37637">
        <ele>33.7</ele>
        <time>2021-07-11T15:44:40Z</time>
      </trkpt>
      <trkpt lat="49.8434" lon="2.3764">
        <ele>33.7</ele>
        <time>2021-07-11T15:44:41Z</time>
      </trkpt>
      <trkpt lat="49.84341" lon="2.37641">
        <ele>33.7</ele>
        <time>2021-07-11T15:44:43Z</time>
      </trkpt>
      <trkpt lat="49.84341" lon="2.37642">
        <ele>33.7</ele>
        <time>2021-07-11T15:44:44Z</time>
      </trkpt>
      <trkpt lat="49.84343" lon="2.37644">
        <ele>33.7</ele>
        <time>2021-07-11T15:44:45Z</time>
      </trkpt>
      <trkpt lat="49.84344" lon="2.37645">
        <ele>33.8</ele>
        <time>2021-07-11T15:44:47Z</time>
      </trkpt>
      <trkpt lat="49.84345" lon="2.37646">
        <ele>33.8</ele>
        <time>2021-07-11T15:44:48Z</time>
      </trkpt>
      <trkpt lat="49.84346" lon="2.37647">
        <ele>33.8</ele>
        <time>2021-07-11T15:44:49Z</time>
      </trkpt>
      <trkpt lat="49.84346" lon="2.37646">
        <ele>33.8</ele>
        <time>2021-07-11T15:44:50Z</time>
      </trkpt>
      <trkpt lat="49.84346" lon="2.37646">
        <ele>33.8</ele>
        <time>2021-07-11T15:44:52Z</time>
      </trkpt>
      <trkpt lat="49.84347" lon="2.37646">
        <ele>33.8</ele>
        <time>2021-07-11T15:44:53Z</time>
      </trkpt>
      <trkpt lat="49.84348" lon="2.37647">
        <ele>33.8</ele>
        <time>2021-07-11T15:44:54Z</time>
      </trkpt>
      <trkpt lat="49.84349" lon="2.37648">
        <ele>33.8</ele>
        <time>2021-07-11T15:44:56Z</time>
      </trkpt>
      <trkpt lat="49.84349" lon="2.3765">
        <ele>33.9</ele>
        <time>2021-07-11T15:44:57Z</time>
      </trkpt>
      <trkpt lat="49.8435" lon="2.37651">
        <ele>33.9</ele>
        <time>2021-07-11T15:44:58Z</time>
      </trkpt>
      <trkpt lat="49.84351" lon="2.37652">
        <ele>33.9</ele>
        <time>2021-07-11T15:44:59Z</time>
      </trkpt>
      <trkpt lat="49.84352" lon="2.37653">
        <ele>33.9</ele>
        <time>2021-07-11T15:45:01Z</time>
      </trkpt>
      <trkpt lat="49.84353" lon="2.37653">
        <ele>33.9</ele>
        <time>2021-07-11T15:45:02Z</time>
      </trkpt>
      <trkpt lat="49.84354" lon="2.37655">
        <ele>33.9</ele>
        <time>2021-07-11T15:45:03Z</time>
      </trkpt>
      <trkpt lat="49.84356" lon="2.37657">
        <ele>33.9</ele>
        <time>2021-07-11T15:45:04Z</time>
      </trkpt>
      <trkpt lat="49.84357" lon="2.37658">
        <ele>34</ele>
        <time>2021-07-11T15:45:06Z</time>
      </trkpt>
      <trkpt lat="49.84358" lon="2.37658">
        <ele>34</ele>
        <time>2021-07-11T15:45:07Z</time>
      </trkpt>
      <trkpt lat="49.84359" lon="2.37659">
        <ele>34</ele>
        <time>2021-07-11T15:45:08Z</time>
      </trkpt>
      <trkpt lat="49.8436" lon="2.3766">
        <ele>34</ele>
        <time>2021-07-11T15:45:09Z</time>
      </trkpt>
      <trkpt lat="49.84361" lon="2.37661">
        <ele>34</ele>
        <time>2021-07-11T15:45:10Z</time>
      </trkpt>
      <trkpt lat="49.84362" lon="2.37661">
        <ele>34</ele>
        <time>2021-07-11T15:45:12Z</time>
      </trkpt>
      <trkpt lat="49.84362" lon="2.37662">
        <ele>34</ele>
        <time>2021-07-11T15:45:13Z</time>
      </trkpt>
      <trkpt lat="49.84363" lon="2.37664">
        <ele>34</ele>
        <time>2021-07-11T15:45:14Z</time>
      </trkpt>
      <trkpt lat="49.84364" lon="2.37665">
        <ele>34</ele>
        <time>2021-07-11T15:45:15Z</time>
      </trkpt>
      <trkpt lat="49.84366" lon="2.37666">
        <ele>34</ele>
        <time>2021-07-11T15:45:17Z</time>
      </trkpt>
      <trkpt lat="49.84368" lon="2.37668">
        <ele>34</ele>
        <time>2021-07-11T15:45:18Z</time>
      </trkpt>
      <trkpt lat="49.84368" lon="2.37668">
        <ele>34</ele>
        <time>2021-07-11T15:45:19Z</time>
      </trkpt>
      <trkpt lat="49.84369" lon="2.37669">
        <ele>34</ele>
        <time>2021-07-11T15:45:20Z</time>
      </trkpt>
      <trkpt lat="49.8437" lon="2.3767">
        <ele>34</ele>
        <time>2021-07-11T15:45:22Z</time>
      </trkpt>
      <trkpt lat="49.84371" lon="2.3767">
        <ele>34</ele>
        <time>2021-07-11T15:45:23Z</time>
      </trkpt>
      <trkpt lat="49.84373" lon="2.37672">
        <ele>34</ele>
        <time>2021-07-11T15:45:25Z</time>
      </trkpt>
      <trkpt lat="49.84374" lon="2.37673">
        <ele>34</ele>
        <time>2021-07-11T15:45:26Z</time>
      </trkpt>
      <trkpt lat="49.84375" lon="2.37674">
        <ele>34</ele>
        <time>2021-07-11T15:45:28Z</time>
      </trkpt>
      <trkpt lat="49.84376" lon="2.37674">
        <ele>34</ele>
        <time>2021-07-11T15:45:29Z</time>
      </trkpt>
      <trkpt lat="49.84377" lon="2.37675">
        <ele>34</ele>
        <time>2021-07-11T15:45:30Z</time>
      </trkpt>
      <trkpt lat="49.84377" lon="2.37675">
        <ele>33.9</ele>
        <time>2021-07-11T15:45:31Z</time>
      </trkpt>
      <trkpt lat="49.84378" lon="2.37676">
        <ele>33.9</ele>
        <time>2021-07-11T15:45:32Z</time>
      </trkpt>
      <trkpt lat="49.84379" lon="2.37677">
        <ele>33.9</ele>
        <time>2021-07-11T15:45:33Z</time>
      </trkpt>
      <trkpt lat="49.8438" lon="2.37678">
        <ele>33.9</ele>
        <time>2021-07-11T15:45:35Z</time>
      </trkpt>
      <trkpt lat="49.84381" lon="2.37678">
        <ele>33.9</ele>
        <time>2021-07-11T15:45:36Z</time>
      </trkpt>
      <trkpt lat="49.84382" lon="2.37679">
        <ele>33.9</ele>
        <time>2021-07-11T15:45:37Z</time>
      </trkpt>
      <trkpt lat="49.84383" lon="2.3768">
        <ele>33.9</ele>
        <time>2021-07-11T15:45:38Z</time>
      </trkpt>
      <trkpt lat="49.84384" lon="2.3768">
        <ele>33.9</ele>
        <time>2021-07-11T15:45:39Z</time>
      </trkpt>
      <trkpt lat="49.84385" lon="2.37681">
        <ele>33.9</ele>
        <time>2021-07-11T15:45:41Z</time>
      </trkpt>
      <trkpt lat="49.84386" lon="2.37682">
        <ele>33.9</ele>
        <time>2021-07-11T15:45:42Z</time>
      </trkpt>
      <trkpt lat="49.84387" lon="2.37683">
        <ele>33.9</ele>
        <time>2021-07-11T15:45:43Z</time>
      </trkpt>
      <trkpt lat="49.84388" lon="2.37685">
        <ele>33.9</ele>
        <time>2021-07-11T15:45:45Z</time>
      </trkpt>
      <trkpt lat="49.84389" lon="2.37686">
        <ele>33.8</ele>
        <time>2021-07-11T15:45:46Z</time>
      </trkpt>
      <trkpt lat="49.8439" lon="2.37688">
        <ele>33.8</ele>
        <time>2021-07-11T15:45:48Z</time>
      </trkpt>
      <trkpt lat="49.84391" lon="2.37689">
        <ele>33.8</ele>
        <time>2021-07-11T15:45:49Z</time>
      </trkpt>
      <trkpt lat="49.84393" lon="2.3769">
        <ele>33.8</ele>
        <time>2021-07-11T15:45:50Z</time>
      </trkpt>
      <trkpt lat="49.84393" lon="2.37691">
        <ele>33.8</ele>
        <time>2021-07-11T15:45:51Z</time>
      </trkpt>
      <trkpt lat="49.84394" lon="2.37692">
        <ele>33.8</ele>
        <time>2021-07-11T15:45:52Z</time>
      </trkpt>
      <trkpt lat="49.84396" lon="2.37693">
        <ele>33.8</ele>
        <time>2021-07-11T15:45:54Z</time>
      </trkpt>
      <trkpt lat="49.84397" lon="2.37694">
        <ele>33.8</ele>
        <time>2021-07-11T15:45:55Z</time>
      </trkpt>
      <trkpt lat="49.84397" lon="2.37695">
        <ele>33.8</ele>
        <time>2021-07-11T15:45:56Z</time>
      </trkpt>
      <trkpt lat="49.84399" lon="2.37696">
        <ele>33.8</ele>
        <time>2021-07-11T15:45:58Z</time>
      </trkpt>
      <trkpt lat="49.844" lon="2.37697">
        <ele>33.8</ele>
        <time>2021-07-11T15:45:59Z</time>
      </trkpt>
      <trkpt lat="49.84402" lon="2.37699">
        <ele>33.7</ele>
        <time>2021-07-11T15:46:00Z</time>
      </trkpt>
      <trkpt lat="49.84403" lon="2.37699">
        <ele>33.7</ele>
        <time>2021-07-11T15:46:01Z</time>
      </trkpt>
      <trkpt lat="49.84404" lon="2.377">
        <ele>33.7</ele>
        <time>2021-07-11T15:46:02Z</time>
      </trkpt>
      <trkpt lat="49.84406" lon="2.37701">
        <ele>33.7</ele>
        <time>2021-07-11T15:46:04Z</time>
      </trkpt>
      <trkpt lat="49.84406" lon="2.37701">
        <ele>33.7</ele>
        <time>2021-07-11T15:46:05Z</time>
      </trkpt>
      <trkpt lat="49.84407" lon="2.37702">
        <ele>33.7</ele>
        <time>2021-07-11T15:46:06Z</time>
      </trkpt>
      <trkpt lat="49.8441" lon="2.37703">
        <ele>33.7</ele>
        <time>2021-07-11T15:46:08Z</time>
      </trkpt>
      <trkpt lat="49.84411" lon="2.37702">
        <ele>33.7</ele>
        <time>2021-07-11T15:46:09Z</time>
      </trkpt>
      <trkpt lat="49.84413" lon="2.37703">
        <ele>33.7</ele>
        <time>2021-07-11T15:46:10Z</time>
      </trkpt>
      <trkpt lat="49.84414" lon="2.37703">
        <ele>33.7</ele>
        <time>2021-07-11T15:46:12Z</time>
      </trkpt>
      <trkpt lat="49.84415" lon="2.37704">
        <ele>33.7</ele>
        <time>2021-07-11T15:46:13Z</time>
      </trkpt>
      <trkpt lat="49.84416" lon="2.37704">
        <ele>33.7</ele>
        <time>2021-07-11T15:46:14Z</time>
      </trkpt>
      <trkpt lat="49.84417" lon="2.37705">
        <ele>33.7</ele>
        <time>2021-07-11T15:46:15Z</time>
      </trkpt>
      <trkpt lat="49.84418" lon="2.37706">
        <ele>33.7</ele>
        <time>2021-07-11T15:46:16Z</time>
      </trkpt>
      <trkpt lat="49.84419" lon="2.37706">
        <ele>33.7</ele>
        <time>2021-07-11T15:46:18Z</time>
      </trkpt>
      <trkpt lat="49.8442" lon="2.37707">
        <ele>33.7</ele>
        <time>2021-07-11T15:46:19Z</time>
      </trkpt>
      <trkpt lat="49.84422" lon="2.37708">
        <ele>33.6</ele>
        <time>2021-07-11T15:46:21Z</time>
      </trkpt>
      <trkpt lat="49.84424" lon="2.3771">
        <ele>33.6</ele>
        <time>2021-07-11T15:46:22Z</time>
      </trkpt>
      <trkpt lat="49.84425" lon="2.3771">
        <ele>33.6</ele>
        <time>2021-07-11T15:46:24Z</time>
      </trkpt>
      <trkpt lat="49.84426" lon="2.37711">
        <ele>33.6</ele>
        <time>2021-07-11T15:46:25Z</time>
      </trkpt>
      <trkpt lat="49.84427" lon="2.37711">
        <ele>33.6</ele>
        <time>2021-07-11T15:46:27Z</time>
      </trkpt>
      <trkpt lat="49.84428" lon="2.37712">
        <ele>33.6</ele>
        <time>2021-07-11T15:46:28Z</time>
      </trkpt>
      <trkpt lat="49.84429" lon="2.37713">
        <ele>33.6</ele>
        <time>2021-07-11T15:46:29Z</time>
      </trkpt>
      <trkpt lat="49.8443" lon="2.37713">
        <ele>33.6</ele>
        <time>2021-07-11T15:46:30Z</time>
      </trkpt>
      <trkpt lat="49.84431" lon="2.37714">
        <ele>33.6</ele>
        <time>2021-07-11T15:46:32Z</time>
      </trkpt>
      <trkpt lat="49.84432" lon="2.37714">
        <ele>33.6</ele>
        <time>2021-07-11T15:46:33Z</time>
      </trkpt>
      <trkpt lat="49.84433" lon="2.37715">
        <ele>33.6</ele>
        <time>2021-07-11T15:46:34Z</time>
      </trkpt>
      <trkpt lat="49.84434" lon="2.37716">
        <ele>33.6</ele>
        <time>2021-07-11T15:46:36Z</time>
      </trkpt>
      <trkpt lat="49.84435" lon="2.37716">
        <ele>33.6</ele>
        <time>2021-07-11T15:46:37Z</time>
      </trkpt>
      <trkpt lat="49.84436" lon="2.37717">
        <ele>33.6</ele>
        <time>2021-07-11T15:46:39Z</time>
      </trkpt>
      <trkpt lat="49.84437" lon="2.37717">
        <ele>33.6</ele>
        <time>2021-07-11T15:46:40Z</time>
      </trkpt>
      <trkpt lat="49.84438" lon="2.37718">
        <ele>33.6</ele>
        <time>2021-07-11T15:46:41Z</time>
      </trkpt>
      <trkpt lat="49.84439" lon="2.37718">
        <ele>33.6</ele>
        <time>2021-07-11T15:46:43Z</time>
      </trkpt>
      <trkpt lat="49.8444" lon="2.37719">
        <ele>33.6</ele>
        <time>2021-07-11T15:46:44Z</time>
      </trkpt>
      <trkpt lat="49.84441" lon="2.3772">
        <ele>33.6</ele>
        <time>2021-07-11T15:46:45Z</time>
      </trkpt>
      <trkpt lat="49.84442" lon="2.3772">
        <ele>33.6</ele>
        <time>2021-07-11T15:46:46Z</time>
      </trkpt>
      <trkpt lat="49.84444" lon="2.37721">
        <ele>33.6</ele>
        <time>2021-07-11T15:46:48Z</time>
      </trkpt>
      <trkpt lat="49.84446" lon="2.37721">
        <ele>33.5</ele>
        <time>2021-07-11T15:46:49Z</time>
      </trkpt>
      <trkpt lat="49.84447" lon="2.37722">
        <ele>33.5</ele>
        <time>2021-07-11T15:46:50Z</time>
      </trkpt>
      <trkpt lat="49.84448" lon="2.37723">
        <ele>33.5</ele>
        <time>2021-07-11T15:46:51Z</time>
      </trkpt>
      <trkpt lat="49.84449" lon="2.37723">
        <ele>33.5</ele>
        <time>2021-07-11T15:46:53Z</time>
      </trkpt>
      <trkpt lat="49.84449" lon="2.37724">
        <ele>33.5</ele>
        <time>2021-07-11T15:46:54Z</time>
      </trkpt>
      <trkpt lat="49.8445" lon="2.37724">
        <ele>33.5</ele>
        <time>2021-07-11T15:46:55Z</time>
      </trkpt>
      <trkpt lat="49.84451" lon="2.37724">
        <ele>33.5</ele>
        <time>2021-07-11T15:46:56Z</time>
      </trkpt>
      <trkpt lat="49.84452" lon="2.37725">
        <ele>33.5</ele>
        <time>2021-07-11T15:46:57Z</time>
      </trkpt>
      <trkpt lat="49.84453" lon="2.37726">
        <ele>33.5</ele>
        <time>2021-07-11T15:46:59Z</time>
      </trkpt>
      <trkpt lat="49.84454" lon="2.37726">
        <ele>33.5</ele>
        <time>2021-07-11T15:47:00Z</time>
      </trkpt>
      <trkpt lat="49.84455" lon="2.37727">
        <ele>33.5</ele>
        <time>2021-07-11T15:47:01Z</time>
      </trkpt>
      <trkpt lat="49.84456" lon="2.37727">
        <ele>33.4</ele>
        <time>2021-07-11T15:47:02Z</time>
      </trkpt>
      <trkpt lat="49.84457" lon="2.37728">
        <ele>33.4</ele>
        <time>2021-07-11T15:47:03Z</time>
      </trkpt>
      <trkpt lat="49.84459" lon="2.37729">
        <ele>33.4</ele>
        <time>2021-07-11T15:47:04Z</time>
      </trkpt>
      <trkpt lat="49.8446" lon="2.37729">
        <ele>33.4</ele>
        <time>2021-07-11T15:47:06Z</time>
      </trkpt>
      <trkpt lat="49.84461" lon="2.3773">
        <ele>33.4</ele>
        <time>2021-07-11T15:47:07Z</time>
      </trkpt>
      <trkpt lat="49.84463" lon="2.3773">
        <ele>33.4</ele>
        <time>2021-07-11T15:47:09Z</time>
      </trkpt>
      <trkpt lat="49.84464" lon="2.3773">
        <ele>33.4</ele>
        <time>2021-07-11T15:47:10Z</time>
      </trkpt>
      <trkpt lat="49.84465" lon="2.37731">
        <ele>33.3</ele>
        <time>2021-07-11T15:47:11Z</time>
      </trkpt>
      <trkpt lat="49.84467" lon="2.37731">
        <ele>33.3</ele>
        <time>2021-07-11T15:47:12Z</time>
      </trkpt>
      <trkpt lat="49.84469" lon="2.37731">
        <ele>33.3</ele>
        <time>2021-07-11T15:47:13Z</time>
      </trkpt>
      <trkpt lat="49.8447" lon="2.37731">
        <ele>33.3</ele>
        <time>2021-07-11T15:47:15Z</time>
      </trkpt>
      <trkpt lat="49.84471" lon="2.37732">
        <ele>33.3</ele>
        <time>2021-07-11T15:47:16Z</time>
      </trkpt>
      <trkpt lat="49.84472" lon="2.37732">
        <ele>33.3</ele>
        <time>2021-07-11T15:47:17Z</time>
      </trkpt>
      <trkpt lat="49.84472" lon="2.37732">
        <ele>33.3</ele>
        <time>2021-07-11T15:47:19Z</time>
      </trkpt>
      <trkpt lat="49.84473" lon="2.37732">
        <ele>33.2</ele>
        <time>2021-07-11T15:47:20Z</time>
      </trkpt>
      <trkpt lat="49.84474" lon="2.37733">
        <ele>33.2</ele>
        <time>2021-07-11T15:47:22Z</time>
      </trkpt>
      <trkpt lat="49.84475" lon="2.37733">
        <ele>33.2</ele>
        <time>2021-07-11T15:47:23Z</time>
      </trkpt>
      <trkpt lat="49.84475" lon="2.37733">
        <ele>33.2</ele>
        <time>2021-07-11T15:47:25Z</time>
      </trkpt>
      <trkpt lat="49.84476" lon="2.37733">
        <ele>33.2</ele>
        <time>2021-07-11T15:47:26Z</time>
      </trkpt>
      <trkpt lat="49.84477" lon="2.37733">
        <ele>33.2</ele>
        <time>2021-07-11T15:47:27Z</time>
      </trkpt>
      <trkpt lat="49.84478" lon="2.37733">
        <ele>33.2</ele>
        <time>2021-07-11T15:47:29Z</time>
      </trkpt>
      <trkpt lat="49.8448" lon="2.37733">
        <ele>33.1</ele>
        <time>2021-07-11T15:47:30Z</time>
      </trkpt>
      <trkpt lat="49.84482" lon="2.37734">
        <ele>33.1</ele>
        <time>2021-07-11T15:47:32Z</time>
      </trkpt>
      <trkpt lat="49.84483" lon="2.37734">
        <ele>33.1</ele>
        <time>2021-07-11T15:47:33Z</time>
      </trkpt>
      <trkpt lat="49.84484" lon="2.37734">
        <ele>33.1</ele>
        <time>2021-07-11T15:47:34Z</time>
      </trkpt>
      <trkpt lat="49.84485" lon="2.37733">
        <ele>33</ele>
        <time>2021-07-11T15:47:35Z</time>
      </trkpt>
      <trkpt lat="49.84487" lon="2.37733">
        <ele>33</ele>
        <time>2021-07-11T15:47:37Z</time>
      </trkpt>
      <trkpt lat="49.84488" lon="2.37732">
        <ele>33</ele>
        <time>2021-07-11T15:47:38Z</time>
      </trkpt>
      <trkpt lat="49.8449" lon="2.37731">
        <ele>33</ele>
        <time>2021-07-11T15:47:39Z</time>
      </trkpt>
      <trkpt lat="49.84492" lon="2.37731">
        <ele>32.9</ele>
        <time>2021-07-11T15:47:40Z</time>
      </trkpt>
      <trkpt lat="49.84493" lon="2.37731">
        <ele>32.9</ele>
        <time>2021-07-11T15:47:41Z</time>
      </trkpt>
      <trkpt lat="49.84493" lon="2.3773">
        <ele>32.9</ele>
        <time>2021-07-11T15:47:42Z</time>
      </trkpt>
      <trkpt lat="49.84495" lon="2.3773">
        <ele>32.9</ele>
        <time>2021-07-11T15:47:44Z</time>
      </trkpt>
      <trkpt lat="49.84496" lon="2.3773">
        <ele>32.9</ele>
        <time>2021-07-11T15:47:45Z</time>
      </trkpt>
      <trkpt lat="49.84497" lon="2.3773">
        <ele>32.8</ele>
        <time>2021-07-11T15:47:46Z</time>
      </trkpt>
      <trkpt lat="49.84498" lon="2.37729">
        <ele>32.8</ele>
        <time>2021-07-11T15:47:47Z</time>
      </trkpt>
      <trkpt lat="49.84499" lon="2.37729">
        <ele>32.8</ele>
        <time>2021-07-11T15:47:48Z</time>
      </trkpt>
      <trkpt lat="49.845" lon="2.37728">
        <ele>32.8</ele>
        <time>2021-07-11T15:47:49Z</time>
      </trkpt>
      <trkpt lat="49.84501" lon="2.37728">
        <ele>32.8</ele>
        <time>2021-07-11T15:47:51Z</time>
      </trkpt>
      <trkpt lat="49.84502" lon="2.37728">
        <ele>32.8</ele>
        <time>2021-07-11T15:47:52Z</time>
      </trkpt>
      <trkpt lat="49.84503" lon="2.37727">
        <ele>32.7</ele>
        <time>2021-07-11T15:47:53Z</time>
      </trkpt>
      <trkpt lat="49.84504" lon="2.37727">
        <ele>32.7</ele>
        <time>2021-07-11T15:47:54Z</time>
      </trkpt>
      <trkpt lat="49.84505" lon="2.37726">
        <ele>32.7</ele>
        <time>2021-07-11T15:47:55Z</time>
      </trkpt>
      <trkpt lat="49.84506" lon="2.37726">
        <ele>32.7</ele>
        <time>2021-07-11T15:47:57Z</time>
      </trkpt>
      <trkpt lat="49.84507" lon="2.37726">
        <ele>32.7</ele>
        <time>2021-07-11T15:47:58Z</time>
      </trkpt>
      <trkpt lat="49.84507" lon="2.37725">
        <ele>32.7</ele>
        <time>2021-07-11T15:47:59Z</time>
      </trkpt>
      <trkpt lat="49.84508" lon="2.37724">
        <ele>32.7</ele>
        <time>2021-07-11T15:48:00Z</time>
      </trkpt>
      <trkpt lat="49.84509" lon="2.37724">
        <ele>32.6</ele>
        <time>2021-07-11T15:48:01Z</time>
      </trkpt>
      <trkpt lat="49.84511" lon="2.37723">
        <ele>32.6</ele>
        <time>2021-07-11T15:48:02Z</time>
      </trkpt>
      <trkpt lat="49.84511" lon="2.37722">
        <ele>32.6</ele>
        <time>2021-07-11T15:48:03Z</time>
      </trkpt>
      <trkpt lat="49.84512" lon="2.37722">
        <ele>32.6</ele>
        <time>2021-07-11T15:48:05Z</time>
      </trkpt>
      <trkpt lat="49.84513" lon="2.37721">
        <ele>32.6</ele>
        <time>2021-07-11T15:48:06Z</time>
      </trkpt>
      <trkpt lat="49.84514" lon="2.3772">
        <ele>32.5</ele>
        <time>2021-07-11T15:48:07Z</time>
      </trkpt>
      <trkpt lat="49.84516" lon="2.37719">
        <ele>32.5</ele>
        <time>2021-07-11T15:48:08Z</time>
      </trkpt>
      <trkpt lat="49.84517" lon="2.37718">
        <ele>32.5</ele>
        <time>2021-07-11T15:48:09Z</time>
      </trkpt>
      <trkpt lat="49.84518" lon="2.37717">
        <ele>32.5</ele>
        <time>2021-07-11T15:48:11Z</time>
      </trkpt>
      <trkpt lat="49.84519" lon="2.37716">
        <ele>32.5</ele>
        <time>2021-07-11T15:48:12Z</time>
      </trkpt>
      <trkpt lat="49.8452" lon="2.37715">
        <ele>32.4</ele>
        <time>2021-07-11T15:48:13Z</time>
      </trkpt>
      <trkpt lat="49.8452" lon="2.37714">
        <ele>32.4</ele>
        <time>2021-07-11T15:48:14Z</time>
      </trkpt>
      <trkpt lat="49.84522" lon="2.37713">
        <ele>32.4</ele>
        <time>2021-07-11T15:48:15Z</time>
      </trkpt>
      <trkpt lat="49.84523" lon="2.37712">
        <ele>32.4</ele>
        <time>2021-07-11T15:48:16Z</time>
      </trkpt>
      <trkpt lat="49.84524" lon="2.37711">
        <ele>32.4</ele>
        <time>2021-07-11T15:48:18Z</time>
      </trkpt>
      <trkpt lat="49.84525" lon="2.37711">
        <ele>32.4</ele>
        <time>2021-07-11T15:48:19Z</time>
      </trkpt>
      <trkpt lat="49.84526" lon="2.3771">
        <ele>32.3</ele>
        <time>2021-07-11T15:48:20Z</time>
      </trkpt>
      <trkpt lat="49.84526" lon="2.37708">
        <ele>32.3</ele>
        <time>2021-07-11T15:48:21Z</time>
      </trkpt>
      <trkpt lat="49.84528" lon="2.37707">
        <ele>32.3</ele>
        <time>2021-07-11T15:48:22Z</time>
      </trkpt>
      <trkpt lat="49.84529" lon="2.37706">
        <ele>32.3</ele>
        <time>2021-07-11T15:48:23Z</time>
      </trkpt>
      <trkpt lat="49.84529" lon="2.37705">
        <ele>32.3</ele>
        <time>2021-07-11T15:48:25Z</time>
      </trkpt>
      <trkpt lat="49.8453" lon="2.37704">
        <ele>32.3</ele>
        <time>2021-07-11T15:48:26Z</time>
      </trkpt>
      <trkpt lat="49.84531" lon="2.37703">
        <ele>32.2</ele>
        <time>2021-07-11T15:48:27Z</time>
      </trkpt>
      <trkpt lat="49.84532" lon="2.37702">
        <ele>32.2</ele>
        <time>2021-07-11T15:48:28Z</time>
      </trkpt>
      <trkpt lat="49.84533" lon="2.37701">
        <ele>32.2</ele>
        <time>2021-07-11T15:48:29Z</time>
      </trkpt>
      <trkpt lat="49.84534" lon="2.377">
        <ele>32.2</ele>
        <time>2021-07-11T15:48:30Z</time>
      </trkpt>
      <trkpt lat="49.84535" lon="2.37699">
        <ele>32.2</ele>
        <time>2021-07-11T15:48:32Z</time>
      </trkpt>
      <trkpt lat="49.84536" lon="2.37698">
        <ele>32.2</ele>
        <time>2021-07-11T15:48:33Z</time>
      </trkpt>
      <trkpt lat="49.84537" lon="2.37696">
        <ele>32.2</ele>
        <time>2021-07-11T15:48:34Z</time>
      </trkpt>
      <trkpt lat="49.84538" lon="2.37695">
        <ele>32.2</ele>
        <time>2021-07-11T15:48:35Z</time>
      </trkpt>
      <trkpt lat="49.8454" lon="2.37694">
        <ele>32.1</ele>
        <time>2021-07-11T15:48:36Z</time>
      </trkpt>
      <trkpt lat="49.84541" lon="2.37693">
        <ele>32.1</ele>
        <time>2021-07-11T15:48:38Z</time>
      </trkpt>
      <trkpt lat="49.84541" lon="2.37692">
        <ele>32.1</ele>
        <time>2021-07-11T15:48:39Z</time>
      </trkpt>
      <trkpt lat="49.84542" lon="2.37691">
        <ele>32.1</ele>
        <time>2021-07-11T15:48:40Z</time>
      </trkpt>
      <trkpt lat="49.84543" lon="2.37689">
        <ele>32.1</ele>
        <time>2021-07-11T15:48:42Z</time>
      </trkpt>
      <trkpt lat="49.84544" lon="2.37688">
        <ele>32.1</ele>
        <time>2021-07-11T15:48:43Z</time>
      </trkpt>
      <trkpt lat="49.84545" lon="2.37686">
        <ele>32.1</ele>
        <time>2021-07-11T15:48:44Z</time>
      </trkpt>
      <trkpt lat="49.84545" lon="2.37685">
        <ele>32.1</ele>
        <time>2021-07-11T15:48:45Z</time>
      </trkpt>
      <trkpt lat="49.84546" lon="2.37682">
        <ele>32</ele>
        <time>2021-07-11T15:48:46Z</time>
      </trkpt>
      <trkpt lat="49.84547" lon="2.37681">
        <ele>32</ele>
        <time>2021-07-11T15:48:48Z</time>
      </trkpt>
      <trkpt lat="49.84547" lon="2.37679">
        <ele>32</ele>
        <time>2021-07-11T15:48:49Z</time>
      </trkpt>
      <trkpt lat="49.84548" lon="2.37677">
        <ele>32</ele>
        <time>2021-07-11T15:48:50Z</time>
      </trkpt>
      <trkpt lat="49.84549" lon="2.37675">
        <ele>32</ele>
        <time>2021-07-11T15:48:51Z</time>
      </trkpt>
      <trkpt lat="49.84549" lon="2.37673">
        <ele>32</ele>
        <time>2021-07-11T15:48:52Z</time>
      </trkpt>
      <trkpt lat="49.8455" lon="2.37671">
        <ele>32</ele>
        <time>2021-07-11T15:48:53Z</time>
      </trkpt>
      <trkpt lat="49.84551" lon="2.37669">
        <ele>32</ele>
        <time>2021-07-11T15:48:55Z</time>
      </trkpt>
      <trkpt lat="49.84551" lon="2.37668">
        <ele>32</ele>
        <time>2021-07-11T15:48:56Z</time>
      </trkpt>
      <trkpt lat="49.84552" lon="2.37664">
        <ele>32</ele>
        <time>2021-07-11T15:48:57Z</time>
      </trkpt>
      <trkpt lat="49.84552" lon="2.37663">
        <ele>32</ele>
        <time>2021-07-11T15:48:58Z</time>
      </trkpt>
      <trkpt lat="49.84553" lon="2.37662">
        <ele>32</ele>
        <time>2021-07-11T15:48:59Z</time>
      </trkpt>
      <trkpt lat="49.84553" lon="2.37659">
        <ele>32</ele>
        <time>2021-07-11T15:49:00Z</time>
      </trkpt>
      <trkpt lat="49.84554" lon="2.37658">
        <ele>32</ele>
        <time>2021-07-11T15:49:02Z</time>
      </trkpt>
      <trkpt lat="49.84554" lon="2.37656">
        <ele>32</ele>
        <time>2021-07-11T15:49:03Z</time>
      </trkpt>
      <trkpt lat="49.84554" lon="2.37655">
        <ele>32</ele>
        <time>2021-07-11T15:49:04Z</time>
      </trkpt>
      <trkpt lat="49.84555" lon="2.37653">
        <ele>32</ele>
        <time>2021-07-11T15:49:05Z</time>
      </trkpt>
      <trkpt lat="49.84555" lon="2.37652">
        <ele>32.1</ele>
        <time>2021-07-11T15:49:06Z</time>
      </trkpt>
      <trkpt lat="49.84556" lon="2.3765">
        <ele>32.1</ele>
        <time>2021-07-11T15:49:07Z</time>
      </trkpt>
      <trkpt lat="49.84556" lon="2.37648">
        <ele>32.1</ele>
        <time>2021-07-11T15:49:09Z</time>
      </trkpt>
      <trkpt lat="49.84557" lon="2.37646">
        <ele>32.1</ele>
        <time>2021-07-11T15:49:10Z</time>
      </trkpt>
      <trkpt lat="49.84557" lon="2.37645">
        <ele>32.1</ele>
        <time>2021-07-11T15:49:11Z</time>
      </trkpt>
      <trkpt lat="49.84558" lon="2.37643">
        <ele>32.1</ele>
        <time>2021-07-11T15:49:12Z</time>
      </trkpt>
      <trkpt lat="49.84558" lon="2.37642">
        <ele>32.1</ele>
        <time>2021-07-11T15:49:13Z</time>
      </trkpt>
      <trkpt lat="49.84559" lon="2.3764">
        <ele>32.1</ele>
        <time>2021-07-11T15:49:14Z</time>
      </trkpt>
      <trkpt lat="49.84559" lon="2.37639">
        <ele>32.2</ele>
        <time>2021-07-11T15:49:16Z</time>
      </trkpt>
      <trkpt lat="49.8456" lon="2.37637">
        <ele>32.2</ele>
        <time>2021-07-11T15:49:17Z</time>
      </trkpt>
      <trkpt lat="49.8456" lon="2.37635">
        <ele>32.2</ele>
        <time>2021-07-11T15:49:18Z</time>
      </trkpt>
      <trkpt lat="49.8456" lon="2.37634">
        <ele>32.2</ele>
        <time>2021-07-11T15:49:19Z</time>
      </trkpt>
      <trkpt lat="49.84561" lon="2.37632">
        <ele>32.2</ele>
        <time>2021-07-11T15:49:20Z</time>
      </trkpt>
      <trkpt lat="49.84561" lon="2.3763">
        <ele>32.2</ele>
        <time>2021-07-11T15:49:21Z</time>
      </trkpt>
      <trkpt lat="49.84561" lon="2.37629">
        <ele>32.3</ele>
        <time>2021-07-11T15:49:23Z</time>
      </trkpt>
      <trkpt lat="49.84561" lon="2.37627">
        <ele>32.3</ele>
        <time>2021-07-11T15:49:24Z</time>
      </trkpt>
      <trkpt lat="49.84561" lon="2.37625">
        <ele>32.3</ele>
        <time>2021-07-11T15:49:25Z</time>
      </trkpt>
      <trkpt lat="49.84562" lon="2.37623">
        <ele>32.3</ele>
        <time>2021-07-11T15:49:26Z</time>
      </trkpt>
      <trkpt lat="49.84562" lon="2.37621">
        <ele>32.3</ele>
        <time>2021-07-11T15:49:27Z</time>
      </trkpt>
      <trkpt lat="49.84562" lon="2.3762">
        <ele>32.3</ele>
        <time>2021-07-11T15:49:29Z</time>
      </trkpt>
      <trkpt lat="49.84562" lon="2.37618">
        <ele>32.4</ele>
        <time>2021-07-11T15:49:30Z</time>
      </trkpt>
      <trkpt lat="49.84563" lon="2.37616">
        <ele>32.4</ele>
        <time>2021-07-11T15:49:31Z</time>
      </trkpt>
      <trkpt lat="49.84563" lon="2.37615">
        <ele>32.4</ele>
        <time>2021-07-11T15:49:32Z</time>
      </trkpt>
      <trkpt lat="49.84563" lon="2.37613">
        <ele>32.4</ele>
        <time>2021-07-11T15:49:33Z</time>
      </trkpt>
      <trkpt lat="49.84564" lon="2.37611">
        <ele>32.4</ele>
        <time>2021-07-11T15:49:34Z</time>
      </trkpt>
      <trkpt lat="49.84564" lon="2.3761">
        <ele>32.5</ele>
        <time>2021-07-11T15:49:36Z</time>
      </trkpt>
      <trkpt lat="49.84565" lon="2.37608">
        <ele>32.5</ele>
        <time>2021-07-11T15:49:37Z</time>
      </trkpt>
      <trkpt lat="49.84565" lon="2.37606">
        <ele>32.5</ele>
        <time>2021-07-11T15:49:38Z</time>
      </trkpt>
      <trkpt lat="49.84566" lon="2.37604">
        <ele>32.5</ele>
        <time>2021-07-11T15:49:40Z</time>
      </trkpt>
      <trkpt lat="49.84566" lon="2.37602">
        <ele>32.5</ele>
        <time>2021-07-11T15:49:41Z</time>
      </trkpt>
      <trkpt lat="49.84567" lon="2.37601">
        <ele>32.6</ele>
        <time>2021-07-11T15:49:42Z</time>
      </trkpt>
      <trkpt lat="49.84568" lon="2.37599">
        <ele>32.6</ele>
        <time>2021-07-11T15:49:43Z</time>
      </trkpt>
      <trkpt lat="49.84568" lon="2.37597">
        <ele>32.6</ele>
        <time>2021-07-11T15:49:45Z</time>
      </trkpt>
      <trkpt lat="49.84569" lon="2.37596">
        <ele>32.6</ele>
        <time>2021-07-11T15:49:46Z</time>
      </trkpt>
      <trkpt lat="49.8457" lon="2.37594">
        <ele>32.7</ele>
        <time>2021-07-11T15:49:47Z</time>
      </trkpt>
      <trkpt lat="49.84572" lon="2.37591">
        <ele>32.7</ele>
        <time>2021-07-11T15:49:48Z</time>
      </trkpt>
      <trkpt lat="49.84572" lon="2.3759">
        <ele>32.7</ele>
        <time>2021-07-11T15:49:50Z</time>
      </trkpt>
      <trkpt lat="49.84573" lon="2.3759">
        <ele>32.7</ele>
        <time>2021-07-11T15:49:51Z</time>
      </trkpt>
      <trkpt lat="49.84573" lon="2.37588">
        <ele>32.8</ele>
        <time>2021-07-11T15:49:52Z</time>
      </trkpt>
      <trkpt lat="49.84574" lon="2.37586">
        <ele>32.8</ele>
        <time>2021-07-11T15:49:53Z</time>
      </trkpt>
      <trkpt lat="49.84575" lon="2.37585">
        <ele>32.8</ele>
        <time>2021-07-11T15:49:54Z</time>
      </trkpt>
      <trkpt lat="49.84576" lon="2.37583">
        <ele>32.8</ele>
        <time>2021-07-11T15:49:56Z</time>
      </trkpt>
      <trkpt lat="49.84577" lon="2.37582">
        <ele>32.9</ele>
        <time>2021-07-11T15:49:57Z</time>
      </trkpt>
      <trkpt lat="49.84577" lon="2.37581">
        <ele>32.9</ele>
        <time>2021-07-11T15:49:58Z</time>
      </trkpt>
      <trkpt lat="49.84579" lon="2.3758">
        <ele>32.9</ele>
        <time>2021-07-11T15:49:59Z</time>
      </trkpt>
      <trkpt lat="49.8458" lon="2.37579">
        <ele>32.9</ele>
        <time>2021-07-11T15:50:01Z</time>
      </trkpt>
      <trkpt lat="49.84581" lon="2.37577">
        <ele>33</ele>
        <time>2021-07-11T15:50:02Z</time>
      </trkpt>
      <trkpt lat="49.84582" lon="2.37575">
        <ele>33</ele>
        <time>2021-07-11T15:50:03Z</time>
      </trkpt>
      <trkpt lat="49.84584" lon="2.37572">
        <ele>33.1</ele>
        <time>2021-07-11T15:50:04Z</time>
      </trkpt>
      <trkpt lat="49.84585" lon="2.3757">
        <ele>33.1</ele>
        <time>2021-07-11T15:50:06Z</time>
      </trkpt>
      <trkpt lat="49.84585" lon="2.37569">
        <ele>33.1</ele>
        <time>2021-07-11T15:50:07Z</time>
      </trkpt>
      <trkpt lat="49.84586" lon="2.37567">
        <ele>33.1</ele>
        <time>2021-07-11T15:50:08Z</time>
      </trkpt>
      <trkpt lat="49.84587" lon="2.37566">
        <ele>33.2</ele>
        <time>2021-07-11T15:50:09Z</time>
      </trkpt>
      <trkpt lat="49.84588" lon="2.37564">
        <ele>33.2</ele>
        <time>2021-07-11T15:50:11Z</time>
      </trkpt>
      <trkpt lat="49.84589" lon="2.37562">
        <ele>33.2</ele>
        <time>2021-07-11T15:50:12Z</time>
      </trkpt>
      <trkpt lat="49.84591" lon="2.37561">
        <ele>33.3</ele>
        <time>2021-07-11T15:50:13Z</time>
      </trkpt>
      <trkpt lat="49.84592" lon="2.37559">
        <ele>33.3</ele>
        <time>2021-07-11T15:50:14Z</time>
      </trkpt>
      <trkpt lat="49.84594" lon="2.37556">
        <ele>33.4</ele>
        <time>2021-07-11T15:50:15Z</time>
      </trkpt>
      <trkpt lat="49.84594" lon="2.37555">
        <ele>33.4</ele>
        <time>2021-07-11T15:50:17Z</time>
      </trkpt>
      <trkpt lat="49.84595" lon="2.37554">
        <ele>33.4</ele>
        <time>2021-07-11T15:50:18Z</time>
      </trkpt>
      <trkpt lat="49.84596" lon="2.37553">
        <ele>33.5</ele>
        <time>2021-07-11T15:50:19Z</time>
      </trkpt>
      <trkpt lat="49.84597" lon="2.37552">
        <ele>33.5</ele>
        <time>2021-07-11T15:50:20Z</time>
      </trkpt>
      <trkpt lat="49.84598" lon="2.37551">
        <ele>33.5</ele>
        <time>2021-07-11T15:50:22Z</time>
      </trkpt>
      <trkpt lat="49.84599" lon="2.3755">
        <ele>33.5</ele>
        <time>2021-07-11T15:50:23Z</time>
      </trkpt>
      <trkpt lat="49.84599" lon="2.37549">
        <ele>33.5</ele>
        <time>2021-07-11T15:50:24Z</time>
      </trkpt>
      <trkpt lat="49.846" lon="2.37548">
        <ele>33.6</ele>
        <time>2021-07-11T15:50:26Z</time>
      </trkpt>
      <trkpt lat="49.84602" lon="2.37547">
        <ele>33.6</ele>
        <time>2021-07-11T15:50:27Z</time>
      </trkpt>
      <trkpt lat="49.84603" lon="2.37545">
        <ele>33.6</ele>
        <time>2021-07-11T15:50:28Z</time>
      </trkpt>
      <trkpt lat="49.84604" lon="2.37544">
        <ele>33.7</ele>
        <time>2021-07-11T15:50:29Z</time>
      </trkpt>
      <trkpt lat="49.84605" lon="2.37544">
        <ele>33.7</ele>
        <time>2021-07-11T15:50:31Z</time>
      </trkpt>
      <trkpt lat="49.84606" lon="2.37543">
        <ele>33.7</ele>
        <time>2021-07-11T15:50:32Z</time>
      </trkpt>
      <trkpt lat="49.84607" lon="2.37542">
        <ele>33.7</ele>
        <time>2021-07-11T15:50:33Z</time>
      </trkpt>
      <trkpt lat="49.84608" lon="2.37541">
        <ele>33.7</ele>
        <time>2021-07-11T15:50:34Z</time>
      </trkpt>
      <trkpt lat="49.84609" lon="2.3754">
        <ele>33.7</ele>
        <time>2021-07-11T15:50:36Z</time>
      </trkpt>
      <trkpt lat="49.8461" lon="2.37539">
        <ele>33.8</ele>
        <time>2021-07-11T15:50:37Z</time>
      </trkpt>
      <trkpt lat="49.84611" lon="2.37539">
        <ele>33.8</ele>
        <time>2021-07-11T15:50:38Z</time>
      </trkpt>
      <trkpt lat="49.84611" lon="2.37539">
        <ele>33.8</ele>
        <time>2021-07-11T15:50:39Z</time>
      </trkpt>
      <trkpt lat="49.84612" lon="2.37539">
        <ele>33.8</ele>
        <time>2021-07-11T15:50:41Z</time>
      </trkpt>
      <trkpt lat="49.84612" lon="2.37538">
        <ele>33.8</ele>
        <time>2021-07-11T15:50:42Z</time>
      </trkpt>
      <trkpt lat="49.84613" lon="2.37537">
        <ele>33.8</ele>
        <time>2021-07-11T15:50:43Z</time>
      </trkpt>
      <trkpt lat="49.84612" lon="2.37538">
        <ele>33.8</ele>
        <time>2021-07-11T15:50:44Z</time>
      </trkpt>
      <trkpt lat="49.84613" lon="2.37538">
        <ele>33.8</ele>
        <time>2021-07-11T15:50:45Z</time>
      </trkpt>
      <trkpt lat="49.84614" lon="2.37538">
        <ele>33.8</ele>
        <time>2021-07-11T15:50:46Z</time>
      </trkpt>
      <trkpt lat="49.84616" lon="2.37537">
        <ele>33.8</ele>
        <time>2021-07-11T15:50:48Z</time>
      </trkpt>
      <trkpt lat="49.84616" lon="2.37537">
        <ele>33.8</ele>
        <time>2021-07-11T15:50:49Z</time>
      </trkpt>
      <trkpt lat="49.84617" lon="2.37537">
        <ele>33.8</ele>
        <time>2021-07-11T15:50:50Z</time>
      </trkpt>
      <trkpt lat="49.84618" lon="2.37536">
        <ele>33.8</ele>
        <time>2021-07-11T15:50:51Z</time>
      </trkpt>
      <trkpt lat="49.84619" lon="2.37536">
        <ele>33.8</ele>
        <time>2021-07-11T15:50:52Z</time>
      </trkpt>
      <trkpt lat="49.8462" lon="2.37535">
        <ele>33.7</ele>
        <time>2021-07-11T15:50:53Z</time>
      </trkpt>
      <trkpt lat="49.84621" lon="2.37535">
        <ele>33.7</ele>
        <time>2021-07-11T15:50:55Z</time>
      </trkpt>
      <trkpt lat="49.84622" lon="2.37535">
        <ele>33.7</ele>
        <time>2021-07-11T15:50:56Z</time>
      </trkpt>
      <trkpt lat="49.84623" lon="2.37535">
        <ele>33.7</ele>
        <time>2021-07-11T15:50:57Z</time>
      </trkpt>
      <trkpt lat="49.84624" lon="2.37535">
        <ele>33.7</ele>
        <time>2021-07-11T15:50:59Z</time>
      </trkpt>
      <trkpt lat="49.84625" lon="2.37535">
        <ele>33.7</ele>
        <time>2021-07-11T15:51:00Z</time>
      </trkpt>
      <trkpt lat="49.84626" lon="2.37535">
        <ele>33.6</ele>
        <time>2021-07-11T15:51:02Z</time>
      </trkpt>
      <trkpt lat="49.84627" lon="2.37536">
        <ele>33.6</ele>
        <time>2021-07-11T15:51:03Z</time>
      </trkpt>
      <trkpt lat="49.84628" lon="2.37536">
        <ele>33.6</ele>
        <time>2021-07-11T15:51:04Z</time>
      </trkpt>
      <trkpt lat="49.84629" lon="2.37536">
        <ele>33.6</ele>
        <time>2021-07-11T15:51:06Z</time>
      </trkpt>
      <trkpt lat="49.84631" lon="2.37537">
        <ele>33.6</ele>
        <time>2021-07-11T15:51:08Z</time>
      </trkpt>
      <trkpt lat="49.84632" lon="2.37538">
        <ele>33.5</ele>
        <time>2021-07-11T15:51:09Z</time>
      </trkpt>
      <trkpt lat="49.84633" lon="2.37538">
        <ele>33.5</ele>
        <time>2021-07-11T15:51:10Z</time>
      </trkpt>
      <trkpt lat="49.84634" lon="2.37538">
        <ele>33.5</ele>
        <time>2021-07-11T15:51:11Z</time>
      </trkpt>
      <trkpt lat="49.84635" lon="2.37538">
        <ele>33.5</ele>
        <time>2021-07-11T15:51:12Z</time>
      </trkpt>
      <trkpt lat="49.84636" lon="2.37539">
        <ele>33.5</ele>
        <time>2021-07-11T15:51:14Z</time>
      </trkpt>
      <trkpt lat="49.84637" lon="2.37539">
        <ele>33.5</ele>
        <time>2021-07-11T15:51:15Z</time>
      </trkpt>
      <trkpt lat="49.84638" lon="2.37539">
        <ele>33.4</ele>
        <time>2021-07-11T15:51:16Z</time>
      </trkpt>
      <trkpt lat="49.84639" lon="2.37539">
        <ele>33.4</ele>
        <time>2021-07-11T15:51:17Z</time>
      </trkpt>
      <trkpt lat="49.8464" lon="2.37539">
        <ele>33.4</ele>
        <time>2021-07-11T15:51:18Z</time>
      </trkpt>
      <trkpt lat="49.84641" lon="2.3754">
        <ele>33.4</ele>
        <time>2021-07-11T15:51:20Z</time>
      </trkpt>
      <trkpt lat="49.84642" lon="2.3754">
        <ele>33.4</ele>
        <time>2021-07-11T15:51:21Z</time>
      </trkpt>
      <trkpt lat="49.84643" lon="2.37541">
        <ele>33.3</ele>
        <time>2021-07-11T15:51:22Z</time>
      </trkpt>
      <trkpt lat="49.84644" lon="2.37541">
        <ele>33.3</ele>
        <time>2021-07-11T15:51:23Z</time>
      </trkpt>
      <trkpt lat="49.84645" lon="2.37541">
        <ele>33.3</ele>
        <time>2021-07-11T15:51:24Z</time>
      </trkpt>
      <trkpt lat="49.84646" lon="2.37541">
        <ele>33.3</ele>
        <time>2021-07-11T15:51:26Z</time>
      </trkpt>
      <trkpt lat="49.84647" lon="2.37541">
        <ele>33.3</ele>
        <time>2021-07-11T15:51:27Z</time>
      </trkpt>
      <trkpt lat="49.84647" lon="2.37541">
        <ele>33.3</ele>
        <time>2021-07-11T15:51:28Z</time>
      </trkpt>
      <trkpt lat="49.84648" lon="2.37542">
        <ele>33.3</ele>
        <time>2021-07-11T15:51:29Z</time>
      </trkpt>
      <trkpt lat="49.84648" lon="2.37542">
        <ele>33.3</ele>
        <time>2021-07-11T15:51:31Z</time>
      </trkpt>
      <trkpt lat="49.84649" lon="2.37541">
        <ele>33.3</ele>
        <time>2021-07-11T15:51:32Z</time>
      </trkpt>
      <trkpt lat="49.8465" lon="2.37541">
        <ele>33.2</ele>
        <time>2021-07-11T15:51:33Z</time>
      </trkpt>
      <trkpt lat="49.84651" lon="2.3754">
        <ele>33.2</ele>
        <time>2021-07-11T15:51:34Z</time>
      </trkpt>
      <trkpt lat="49.84652" lon="2.3754">
        <ele>33.2</ele>
        <time>2021-07-11T15:51:35Z</time>
      </trkpt>
      <trkpt lat="49.84653" lon="2.37539">
        <ele>33.2</ele>
        <time>2021-07-11T15:51:37Z</time>
      </trkpt>
      <trkpt lat="49.84655" lon="2.37539">
        <ele>33.2</ele>
        <time>2021-07-11T15:51:38Z</time>
      </trkpt>
      <trkpt lat="49.84657" lon="2.37539">
        <ele>33.2</ele>
        <time>2021-07-11T15:51:40Z</time>
      </trkpt>
      <trkpt lat="49.84657" lon="2.37539">
        <ele>33.1</ele>
        <time>2021-07-11T15:51:41Z</time>
      </trkpt>
      <trkpt lat="49.84659" lon="2.37541">
        <ele>33.1</ele>
        <time>2021-07-11T15:51:43Z</time>
      </trkpt>
      <trkpt lat="49.84659" lon="2.37541">
        <ele>33.1</ele>
        <time>2021-07-11T15:51:44Z</time>
      </trkpt>
      <trkpt lat="49.84659" lon="2.37542">
        <ele>33.1</ele>
        <time>2021-07-11T15:51:46Z</time>
      </trkpt>
      <trkpt lat="49.84659" lon="2.37542">
        <ele>33.1</ele>
        <time>2021-07-11T15:51:47Z</time>
      </trkpt>
      <trkpt lat="49.84659" lon="2.37542">
        <ele>33.1</ele>
        <time>2021-07-11T15:51:48Z</time>
      </trkpt>
      <trkpt lat="49.84659" lon="2.37542">
        <ele>33.1</ele>
        <time>2021-07-11T15:51:49Z</time>
      </trkpt>
      <trkpt lat="49.84659" lon="2.37542">
        <ele>33.1</ele>
        <time>2021-07-11T15:51:50Z</time>
      </trkpt>
      <trkpt lat="49.84659" lon="2.37542">
        <ele>33.1</ele>
        <time>2021-07-11T15:51:52Z</time>
      </trkpt>
      <trkpt lat="49.84659" lon="2.37542">
        <ele>33.1</ele>
        <time>2021-07-11T15:51:53Z</time>
      </trkpt>
      <trkpt lat="49.84659" lon="2.37542">
        <ele>33.1</ele>
        <time>2021-07-11T15:51:54Z</time>
      </trkpt>
      <trkpt lat="49.8466" lon="2.37541">
        <ele>33.1</ele>
        <time>2021-07-11T15:51:56Z</time>
      </trkpt>
      <trkpt lat="49.84661" lon="2.37541">
        <ele>33.1</ele>
        <time>2021-07-11T15:51:57Z</time>
      </trkpt>
      <trkpt lat="49.84662" lon="2.37541">
        <ele>33.1</ele>
        <time>2021-07-11T15:51:58Z</time>
      </trkpt>
      <trkpt lat="49.84664" lon="2.3754">
        <ele>33</ele>
        <time>2021-07-11T15:51:59Z</time>
      </trkpt>
      <trkpt lat="49.84665" lon="2.3754">
        <ele>33</ele>
        <time>2021-07-11T15:52:01Z</time>
      </trkpt>
      <trkpt lat="49.84666" lon="2.3754">
        <ele>33</ele>
        <time>2021-07-11T15:52:02Z</time>
      </trkpt>
      <trkpt lat="49.84667" lon="2.3754">
        <ele>33</ele>
        <time>2021-07-11T15:52:03Z</time>
      </trkpt>
      <trkpt lat="49.84669" lon="2.3754">
        <ele>33</ele>
        <time>2021-07-11T15:52:04Z</time>
      </trkpt>
      <trkpt lat="49.8467" lon="2.3754">
        <ele>32.9</ele>
        <time>2021-07-11T15:52:06Z</time>
      </trkpt>
      <trkpt lat="49.84671" lon="2.3754">
        <ele>32.9</ele>
        <time>2021-07-11T15:52:07Z</time>
      </trkpt>
      <trkpt lat="49.84672" lon="2.3754">
        <ele>32.9</ele>
        <time>2021-07-11T15:52:08Z</time>
      </trkpt>
      <trkpt lat="49.84673" lon="2.3754">
        <ele>32.9</ele>
        <time>2021-07-11T15:52:09Z</time>
      </trkpt>
      <trkpt lat="49.84675" lon="2.37541">
        <ele>32.9</ele>
        <time>2021-07-11T15:52:11Z</time>
      </trkpt>
      <trkpt lat="49.84676" lon="2.3754">
        <ele>32.9</ele>
        <time>2021-07-11T15:52:12Z</time>
      </trkpt>
      <trkpt lat="49.84676" lon="2.3754">
        <ele>32.9</ele>
        <time>2021-07-11T15:52:13Z</time>
      </trkpt>
      <trkpt lat="49.84677" lon="2.3754">
        <ele>32.8</ele>
        <time>2021-07-11T15:52:14Z</time>
      </trkpt>
      <trkpt lat="49.84678" lon="2.3754">
        <ele>32.8</ele>
        <time>2021-07-11T15:52:15Z</time>
      </trkpt>
      <trkpt lat="49.84679" lon="2.3754">
        <ele>32.8</ele>
        <time>2021-07-11T15:52:17Z</time>
      </trkpt>
      <trkpt lat="49.8468" lon="2.3754">
        <ele>32.8</ele>
        <time>2021-07-11T15:52:18Z</time>
      </trkpt>
      <trkpt lat="49.84681" lon="2.37539">
        <ele>32.8</ele>
        <time>2021-07-11T15:52:19Z</time>
      </trkpt>
      <trkpt lat="49.84682" lon="2.37539">
        <ele>32.8</ele>
        <time>2021-07-11T15:52:20Z</time>
      </trkpt>
      <trkpt lat="49.84683" lon="2.37539">
        <ele>32.8</ele>
        <time>2021-07-11T15:52:22Z</time>
      </trkpt>
      <trkpt lat="49.84684" lon="2.3754">
        <ele>32.8</ele>
        <time>2021-07-11T15:52:23Z</time>
      </trkpt>
      <trkpt lat="49.84685" lon="2.3754">
        <ele>32.8</ele>
        <time>2021-07-11T15:52:24Z</time>
      </trkpt>
      <trkpt lat="49.84686" lon="2.3754">
        <ele>32.7</ele>
        <time>2021-07-11T15:52:25Z</time>
      </trkpt>
      <trkpt lat="49.84687" lon="2.3754">
        <ele>32.7</ele>
        <time>2021-07-11T15:52:27Z</time>
      </trkpt>
      <trkpt lat="49.84688" lon="2.37541">
        <ele>32.7</ele>
        <time>2021-07-11T15:52:28Z</time>
      </trkpt>
      <trkpt lat="49.8469" lon="2.37543">
        <ele>32.7</ele>
        <time>2021-07-11T15:52:30Z</time>
      </trkpt>
      <trkpt lat="49.8469" lon="2.37545">
        <ele>32.7</ele>
        <time>2021-07-11T15:52:32Z</time>
      </trkpt>
      <trkpt lat="49.8469" lon="2.37546">
        <ele>32.7</ele>
        <time>2021-07-11T15:52:33Z</time>
      </trkpt>
      <trkpt lat="49.84689" lon="2.37546">
        <ele>32.7</ele>
        <time>2021-07-11T15:52:35Z</time>
      </trkpt>
      <trkpt lat="49.84689" lon="2.37546">
        <ele>32.7</ele>
        <time>2021-07-11T15:52:36Z</time>
      </trkpt>
      <trkpt lat="49.84689" lon="2.37546">
        <ele>32.7</ele>
        <time>2021-07-11T15:52:37Z</time>
      </trkpt>
      <trkpt lat="49.84689" lon="2.37546">
        <ele>32.7</ele>
        <time>2021-07-11T15:52:38Z</time>
      </trkpt>
      <trkpt lat="49.84689" lon="2.37546">
        <ele>32.7</ele>
        <time>2021-07-11T15:52:39Z</time>
      </trkpt>
      <trkpt lat="49.8469" lon="2.37546">
        <ele>32.7</ele>
        <time>2021-07-11T15:52:41Z</time>
      </trkpt>
      <trkpt lat="49.84691" lon="2.37546">
        <ele>32.7</ele>
        <time>2021-07-11T15:52:42Z</time>
      </trkpt>
      <trkpt lat="49.84693" lon="2.37547">
        <ele>32.7</ele>
        <time>2021-07-11T15:52:44Z</time>
      </trkpt>
      <trkpt lat="49.84694" lon="2.37547">
        <ele>32.7</ele>
        <time>2021-07-11T15:52:45Z</time>
      </trkpt>
      <trkpt lat="49.84696" lon="2.37546">
        <ele>32.7</ele>
        <time>2021-07-11T15:52:46Z</time>
      </trkpt>
      <trkpt lat="49.84697" lon="2.37545">
        <ele>32.6</ele>
        <time>2021-07-11T15:52:48Z</time>
      </trkpt>
      <trkpt lat="49.84699" lon="2.37543">
        <ele>32.6</ele>
        <time>2021-07-11T15:52:50Z</time>
      </trkpt>
      <trkpt lat="49.847" lon="2.37542">
        <ele>32.6</ele>
        <time>2021-07-11T15:52:51Z</time>
      </trkpt>
      <trkpt lat="49.847" lon="2.37541">
        <ele>32.6</ele>
        <time>2021-07-11T15:52:52Z</time>
      </trkpt>
      <trkpt lat="49.84701" lon="2.3754">
        <ele>32.6</ele>
        <time>2021-07-11T15:52:53Z</time>
      </trkpt>
      <trkpt lat="49.84701" lon="2.37539">
        <ele>32.6</ele>
        <time>2021-07-11T15:52:55Z</time>
      </trkpt>
      <trkpt lat="49.84701" lon="2.37539">
        <ele>32.6</ele>
        <time>2021-07-11T15:52:57Z</time>
      </trkpt>
      <trkpt lat="49.84701" lon="2.37539">
        <ele>32.6</ele>
        <time>2021-07-11T15:52:59Z</time>
      </trkpt>
      <trkpt lat="49.84701" lon="2.37539">
        <ele>32.6</ele>
        <time>2021-07-11T15:53:00Z</time>
      </trkpt>
      <trkpt lat="49.84701" lon="2.3754">
        <ele>32.6</ele>
        <time>2021-07-11T15:53:02Z</time>
      </trkpt>
      <trkpt lat="49.84701" lon="2.3754">
        <ele>32.6</ele>
        <time>2021-07-11T15:53:03Z</time>
      </trkpt>
      <trkpt lat="49.84701" lon="2.3754">
        <ele>32.6</ele>
        <time>2021-07-11T15:53:05Z</time>
      </trkpt>
      <trkpt lat="49.84701" lon="2.3754">
        <ele>32.6</ele>
        <time>2021-07-11T15:53:06Z</time>
      </trkpt>
      <trkpt lat="49.84702" lon="2.37541">
        <ele>32.6</ele>
        <time>2021-07-11T15:53:07Z</time>
      </trkpt>
      <trkpt lat="49.84703" lon="2.37541">
        <ele>32.6</ele>
        <time>2021-07-11T15:53:09Z</time>
      </trkpt>
      <trkpt lat="49.84704" lon="2.37542">
        <ele>32.6</ele>
        <time>2021-07-11T15:53:10Z</time>
      </trkpt>
      <trkpt lat="49.84705" lon="2.37544">
        <ele>32.6</ele>
        <time>2021-07-11T15:53:11Z</time>
      </trkpt>
      <trkpt lat="49.84706" lon="2.37546">
        <ele>32.6</ele>
        <time>2021-07-11T15:53:13Z</time>
      </trkpt>
      <trkpt lat="49.84707" lon="2.37547">
        <ele>32.6</ele>
        <time>2021-07-11T15:53:14Z</time>
      </trkpt>
      <trkpt lat="49.84708" lon="2.37548">
        <ele>32.6</ele>
        <time>2021-07-11T15:53:16Z</time>
      </trkpt>
      <trkpt lat="49.84708" lon="2.37549">
        <ele>32.6</ele>
        <time>2021-07-11T15:53:17Z</time>
      </trkpt>
      <trkpt lat="49.84708" lon="2.37549">
        <ele>32.6</ele>
        <time>2021-07-11T15:53:18Z</time>
      </trkpt>
      <trkpt lat="49.84708" lon="2.3755">
        <ele>32.6</ele>
        <time>2021-07-11T15:53:20Z</time>
      </trkpt>
      <trkpt lat="49.84708" lon="2.3755">
        <ele>32.6</ele>
        <time>2021-07-11T15:53:21Z</time>
      </trkpt>
      <trkpt lat="49.84708" lon="2.37549">
        <ele>32.6</ele>
        <time>2021-07-11T15:53:22Z</time>
      </trkpt>
      <trkpt lat="49.84708" lon="2.37549">
        <ele>32.6</ele>
        <time>2021-07-11T15:53:24Z</time>
      </trkpt>
      <trkpt lat="49.84708" lon="2.37549">
        <ele>32.6</ele>
        <time>2021-07-11T15:53:25Z</time>
      </trkpt>
      <trkpt lat="49.84709" lon="2.37549">
        <ele>32.6</ele>
        <time>2021-07-11T15:53:26Z</time>
      </trkpt>
      <trkpt lat="49.84709" lon="2.3755">
        <ele>32.6</ele>
        <time>2021-07-11T15:53:28Z</time>
      </trkpt>
      <trkpt lat="49.8471" lon="2.3755">
        <ele>32.6</ele>
        <time>2021-07-11T15:53:29Z</time>
      </trkpt>
      <trkpt lat="49.84711" lon="2.3755">
        <ele>32.6</ele>
        <time>2021-07-11T15:53:30Z</time>
      </trkpt>
      <trkpt lat="49.84712" lon="2.37551">
        <ele>32.6</ele>
        <time>2021-07-11T15:53:31Z</time>
      </trkpt>
      <trkpt lat="49.84713" lon="2.37551">
        <ele>32.6</ele>
        <time>2021-07-11T15:53:32Z</time>
      </trkpt>
      <trkpt lat="49.84714" lon="2.37552">
        <ele>32.6</ele>
        <time>2021-07-11T15:53:34Z</time>
      </trkpt>
      <trkpt lat="49.84714" lon="2.37552">
        <ele>32.6</ele>
        <time>2021-07-11T15:53:35Z</time>
      </trkpt>
      <trkpt lat="49.84715" lon="2.37554">
        <ele>32.6</ele>
        <time>2021-07-11T15:53:37Z</time>
      </trkpt>
      <trkpt lat="49.84715" lon="2.37555">
        <ele>32.6</ele>
        <time>2021-07-11T15:53:39Z</time>
      </trkpt>
      <trkpt lat="49.84715" lon="2.37555">
        <ele>32.6</ele>
        <time>2021-07-11T15:53:41Z</time>
      </trkpt>
      <trkpt lat="49.84715" lon="2.37555">
        <ele>32.6</ele>
        <time>2021-07-11T15:53:42Z</time>
      </trkpt>
      <trkpt lat="49.84715" lon="2.37555">
        <ele>32.6</ele>
        <time>2021-07-11T15:53:44Z</time>
      </trkpt>
      <trkpt lat="49.84715" lon="2.37555">
        <ele>32.6</ele>
        <time>2021-07-11T15:53:45Z</time>
      </trkpt>
      <trkpt lat="49.84715" lon="2.37555">
        <ele>32.6</ele>
        <time>2021-07-11T15:53:47Z</time>
      </trkpt>
      <trkpt lat="49.84715" lon="2.37555">
        <ele>32.6</ele>
        <time>2021-07-11T15:53:48Z</time>
      </trkpt>
      <trkpt lat="49.84715" lon="2.37555">
        <ele>32.6</ele>
        <time>2021-07-11T15:53:49Z</time>
      </trkpt>
      <trkpt lat="49.84715" lon="2.37555">
        <ele>32.6</ele>
        <time>2021-07-11T15:53:50Z</time>
      </trkpt>
      <trkpt lat="49.84715" lon="2.37555">
        <ele>32.6</ele>
        <time>2021-07-11T15:53:52Z</time>
      </trkpt>
      <trkpt lat="49.84715" lon="2.37555">
        <ele>32.6</ele>
        <time>2021-07-11T15:53:54Z</time>
      </trkpt>
      <trkpt lat="49.84715" lon="2.37555">
        <ele>32.6</ele>
        <time>2021-07-11T15:53:55Z</time>
      </trkpt>
      <trkpt lat="49.84715" lon="2.37555">
        <ele>32.6</ele>
        <time>2021-07-11T15:53:56Z</time>
      </trkpt>
      <trkpt lat="49.84716" lon="2.37555">
        <ele>32.6</ele>
        <time>2021-07-11T15:53:57Z</time>
      </trkpt>
      <trkpt lat="49.84717" lon="2.37555">
        <ele>32.6</ele>
        <time>2021-07-11T15:53:58Z</time>
      </trkpt>
      <trkpt lat="49.84718" lon="2.37555">
        <ele>32.6</ele>
        <time>2021-07-11T15:53:59Z</time>
      </trkpt>
      <trkpt lat="49.84719" lon="2.37555">
        <ele>32.5</ele>
        <time>2021-07-11T15:54:01Z</time>
      </trkpt>
      <trkpt lat="49.8472" lon="2.37555">
        <ele>32.5</ele>
        <time>2021-07-11T15:54:02Z</time>
      </trkpt>
      <trkpt lat="49.84722" lon="2.37555">
        <ele>32.5</ele>
        <time>2021-07-11T15:54:03Z</time>
      </trkpt>
      <trkpt lat="49.84723" lon="2.37555">
        <ele>32.5</ele>
        <time>2021-07-11T15:54:04Z</time>
      </trkpt>
      <trkpt lat="49.84724" lon="2.37556">
        <ele>32.5</ele>
        <time>2021-07-11T15:54:05Z</time>
      </trkpt>
      <trkpt lat="49.84725" lon="2.37556">
        <ele>32.5</ele>
        <time>2021-07-11T15:54:07Z</time>
      </trkpt>
      <trkpt lat="49.84727" lon="2.37557">
        <ele>32.5</ele>
        <time>2021-07-11T15:54:08Z</time>
      </trkpt>
      <trkpt lat="49.84728" lon="2.37557">
        <ele>32.5</ele>
        <time>2021-07-11T15:54:09Z</time>
      </trkpt>
      <trkpt lat="49.8473" lon="2.37558">
        <ele>32.5</ele>
        <time>2021-07-11T15:54:11Z</time>
      </trkpt>
      <trkpt lat="49.84731" lon="2.37558">
        <ele>32.4</ele>
        <time>2021-07-11T15:54:12Z</time>
      </trkpt>
      <trkpt lat="49.84732" lon="2.37558">
        <ele>32.4</ele>
        <time>2021-07-11T15:54:13Z</time>
      </trkpt>
      <trkpt lat="49.84733" lon="2.37558">
        <ele>32.4</ele>
        <time>2021-07-11T15:54:14Z</time>
      </trkpt>
      <trkpt lat="49.84734" lon="2.37558">
        <ele>32.4</ele>
        <time>2021-07-11T15:54:15Z</time>
      </trkpt>
      <trkpt lat="49.84736" lon="2.37557">
        <ele>32.4</ele>
        <time>2021-07-11T15:54:16Z</time>
      </trkpt>
      <trkpt lat="49.84737" lon="2.37557">
        <ele>32.4</ele>
        <time>2021-07-11T15:54:18Z</time>
      </trkpt>
      <trkpt lat="49.84738" lon="2.37557">
        <ele>32.4</ele>
        <time>2021-07-11T15:54:19Z</time>
      </trkpt>
      <trkpt lat="49.84739" lon="2.37557">
        <ele>32.3</ele>
        <time>2021-07-11T15:54:20Z</time>
      </trkpt>
      <trkpt lat="49.8474" lon="2.37557">
        <ele>32.3</ele>
        <time>2021-07-11T15:54:21Z</time>
      </trkpt>
      <trkpt lat="49.84741" lon="2.37556">
        <ele>32.3</ele>
        <time>2021-07-11T15:54:22Z</time>
      </trkpt>
      <trkpt lat="49.84742" lon="2.37555">
        <ele>32.3</ele>
        <time>2021-07-11T15:54:24Z</time>
      </trkpt>
      <trkpt lat="49.84742" lon="2.37554">
        <ele>32.3</ele>
        <time>2021-07-11T15:54:25Z</time>
      </trkpt>
      <trkpt lat="49.84743" lon="2.37552">
        <ele>32.3</ele>
        <time>2021-07-11T15:54:26Z</time>
      </trkpt>
      <trkpt lat="49.84743" lon="2.3755">
        <ele>32.3</ele>
        <time>2021-07-11T15:54:27Z</time>
      </trkpt>
      <trkpt lat="49.84744" lon="2.37548">
        <ele>32.3</ele>
        <time>2021-07-11T15:54:29Z</time>
      </trkpt>
      <trkpt lat="49.84745" lon="2.37546">
        <ele>32.2</ele>
        <time>2021-07-11T15:54:30Z</time>
      </trkpt>
      <trkpt lat="49.84745" lon="2.37545">
        <ele>32.2</ele>
        <time>2021-07-11T15:54:31Z</time>
      </trkpt>
      <trkpt lat="49.84747" lon="2.37544">
        <ele>32.2</ele>
        <time>2021-07-11T15:54:33Z</time>
      </trkpt>
      <trkpt lat="49.84748" lon="2.37545">
        <ele>32.2</ele>
        <time>2021-07-11T15:54:35Z</time>
      </trkpt>
      <trkpt lat="49.8475" lon="2.37545">
        <ele>32.2</ele>
        <time>2021-07-11T15:54:37Z</time>
      </trkpt>
      <trkpt lat="49.8475" lon="2.37546">
        <ele>32.2</ele>
        <time>2021-07-11T15:54:38Z</time>
      </trkpt>
      <trkpt lat="49.8475" lon="2.37546">
        <ele>32.1</ele>
        <time>2021-07-11T15:54:39Z</time>
      </trkpt>
      <trkpt lat="49.8475" lon="2.37546">
        <ele>32.1</ele>
        <time>2021-07-11T15:54:40Z</time>
      </trkpt>
      <trkpt lat="49.8475" lon="2.37546">
        <ele>32.1</ele>
        <time>2021-07-11T15:54:42Z</time>
      </trkpt>
      <trkpt lat="49.8475" lon="2.37546">
        <ele>32.1</ele>
        <time>2021-07-11T15:54:44Z</time>
      </trkpt>
      <trkpt lat="49.8475" lon="2.37546">
        <ele>32.1</ele>
        <time>2021-07-11T15:54:45Z</time>
      </trkpt>
      <trkpt lat="49.8475" lon="2.37546">
        <ele>32.1</ele>
        <time>2021-07-11T15:54:46Z</time>
      </trkpt>
      <trkpt lat="49.8475" lon="2.37547">
        <ele>32.1</ele>
        <time>2021-07-11T15:54:47Z</time>
      </trkpt>
      <trkpt lat="49.8475" lon="2.37547">
        <ele>32.1</ele>
        <time>2021-07-11T15:54:49Z</time>
      </trkpt>
      <trkpt lat="49.8475" lon="2.37547">
        <ele>32.1</ele>
        <time>2021-07-11T15:54:51Z</time>
      </trkpt>
      <trkpt lat="49.84749" lon="2.37547">
        <ele>32.1</ele>
        <time>2021-07-11T15:54:53Z</time>
      </trkpt>
      <trkpt lat="49.84749" lon="2.37546">
        <ele>32.1</ele>
        <time>2021-07-11T15:54:55Z</time>
      </trkpt>
      <trkpt lat="49.84748" lon="2.37546">
        <ele>32.1</ele>
        <time>2021-07-11T15:54:57Z</time>
      </trkpt>
      <trkpt lat="49.84748" lon="2.37546">
        <ele>32.1</ele>
        <time>2021-07-11T15:54:59Z</time>
      </trkpt>
      <trkpt lat="49.84748" lon="2.37546">
        <ele>32.1</ele>
        <time>2021-07-11T15:55:00Z</time>
      </trkpt>
      <trkpt lat="49.84748" lon="2.37546">
        <ele>32.1</ele>
        <time>2021-07-11T15:55:02Z</time>
      </trkpt>
      <trkpt lat="49.84748" lon="2.37546">
        <ele>32.1</ele>
        <time>2021-07-11T15:55:03Z</time>
      </trkpt>
      <trkpt lat="49.84748" lon="2.37546">
        <ele>32.1</ele>
        <time>2021-07-11T15:55:04Z</time>
      </trkpt>
      <trkpt lat="49.84748" lon="2.37546">
        <ele>32.1</ele>
        <time>2021-07-11T15:55:06Z</time>
      </trkpt>
      <trkpt lat="49.84748" lon="2.37546">
        <ele>32.1</ele>
        <time>2021-07-11T15:55:07Z</time>
      </trkpt>
      <trkpt lat="49.84748" lon="2.37546">
        <ele>32.1</ele>
        <time>2021-07-11T15:55:09Z</time>
      </trkpt>
      <trkpt lat="49.84748" lon="2.37546">
        <ele>32.1</ele>
        <time>2021-07-11T15:55:11Z</time>
      </trkpt>
      <trkpt lat="49.84748" lon="2.37546">
        <ele>32.1</ele>
        <time>2021-07-11T15:55:12Z</time>
      </trkpt>
      <trkpt lat="49.84748" lon="2.37546">
        <ele>32.1</ele>
        <time>2021-07-11T15:55:14Z</time>
      </trkpt>
      <trkpt lat="49.84747" lon="2.37546">
        <ele>32.1</ele>
        <time>2021-07-11T15:55:15Z</time>
      </trkpt>
      <trkpt lat="49.84745" lon="2.37546">
        <ele>32.1</ele>
        <time>2021-07-11T15:55:16Z</time>
      </trkpt>
      <trkpt lat="49.84743" lon="2.37545">
        <ele>32</ele>
        <time>2021-07-11T15:55:18Z</time>
      </trkpt>
      <trkpt lat="49.84742" lon="2.37545">
        <ele>32</ele>
        <time>2021-07-11T15:55:20Z</time>
      </trkpt>
      <trkpt lat="49.84742" lon="2.37546">
        <ele>32</ele>
        <time>2021-07-11T15:55:21Z</time>
      </trkpt>
      <trkpt lat="49.84743" lon="2.37548">
        <ele>32</ele>
        <time>2021-07-11T15:55:22Z</time>
      </trkpt>
      <trkpt lat="49.84743" lon="2.37549">
        <ele>32</ele>
        <time>2021-07-11T15:55:24Z</time>
      </trkpt>
      <trkpt lat="49.84742" lon="2.37552">
        <ele>32</ele>
        <time>2021-07-11T15:55:26Z</time>
      </trkpt>
      <trkpt lat="49.84742" lon="2.37554">
        <ele>31.9</ele>
        <time>2021-07-11T15:55:28Z</time>
      </trkpt>
      <trkpt lat="49.84743" lon="2.37555">
        <ele>31.9</ele>
        <time>2021-07-11T15:55:29Z</time>
      </trkpt>
      <trkpt lat="49.84744" lon="2.37555">
        <ele>31.9</ele>
        <time>2021-07-11T15:55:31Z</time>
      </trkpt>
      <trkpt lat="49.84744" lon="2.37556">
        <ele>31.9</ele>
        <time>2021-07-11T15:55:33Z</time>
      </trkpt>
      <trkpt lat="49.84744" lon="2.37556">
        <ele>31.9</ele>
        <time>2021-07-11T15:55:35Z</time>
      </trkpt>
      <trkpt lat="49.84744" lon="2.37556">
        <ele>31.9</ele>
        <time>2021-07-11T15:55:37Z</time>
      </trkpt>
      <trkpt lat="49.84744" lon="2.37555">
        <ele>31.9</ele>
        <time>2021-07-11T15:55:39Z</time>
      </trkpt>
      <trkpt lat="49.84744" lon="2.37555">
        <ele>31.9</ele>
        <time>2021-07-11T15:55:40Z</time>
      </trkpt>
      <trkpt lat="49.84744" lon="2.37555">
        <ele>31.9</ele>
        <time>2021-07-11T15:55:41Z</time>
      </trkpt>
      <trkpt lat="49.84744" lon="2.37555">
        <ele>31.9</ele>
        <time>2021-07-11T15:55:43Z</time>
      </trkpt>
      <trkpt lat="49.84744" lon="2.37555">
        <ele>31.9</ele>
        <time>2021-07-11T15:55:44Z</time>
      </trkpt>
      <trkpt lat="49.84744" lon="2.37555">
        <ele>31.9</ele>
        <time>2021-07-11T15:55:45Z</time>
      </trkpt>
      <trkpt lat="49.84744" lon="2.37555">
        <ele>31.9</ele>
        <time>2021-07-11T15:55:46Z</time>
      </trkpt>
      <trkpt lat="49.84744" lon="2.37554">
        <ele>31.9</ele>
        <time>2021-07-11T15:55:48Z</time>
      </trkpt>
      <trkpt lat="49.84743" lon="2.37554">
        <ele>31.9</ele>
        <time>2021-07-11T15:55:49Z</time>
      </trkpt>
      <trkpt lat="49.84743" lon="2.37554">
        <ele>31.9</ele>
        <time>2021-07-11T15:55:50Z</time>
      </trkpt>
      <trkpt lat="49.84743" lon="2.37554">
        <ele>31.9</ele>
        <time>2021-07-11T15:55:52Z</time>
      </trkpt>
      <trkpt lat="49.84743" lon="2.37554">
        <ele>31.9</ele>
        <time>2021-07-11T15:55:54Z</time>
      </trkpt>
      <trkpt lat="49.84743" lon="2.37554">
        <ele>31.9</ele>
        <time>2021-07-11T15:55:56Z</time>
      </trkpt>
      <trkpt lat="49.84743" lon="2.37554">
        <ele>31.9</ele>
        <time>2021-07-11T15:55:57Z</time>
      </trkpt>
      <trkpt lat="49.84743" lon="2.37554">
        <ele>31.9</ele>
        <time>2021-07-11T15:55:58Z</time>
      </trkpt>
      <trkpt lat="49.84743" lon="2.37554">
        <ele>31.9</ele>
        <time>2021-07-11T15:55:59Z</time>
      </trkpt>
      <trkpt lat="49.84743" lon="2.37554">
        <ele>31.9</ele>
        <time>2021-07-11T15:56:00Z</time>
      </trkpt>
      <trkpt lat="49.84743" lon="2.37554">
        <ele>31.9</ele>
        <time>2021-07-11T15:56:01Z</time>
      </trkpt>
      <trkpt lat="49.84743" lon="2.37554">
        <ele>31.9</ele>
        <time>2021-07-11T15:56:03Z</time>
      </trkpt>
      <trkpt lat="49.84743" lon="2.37554">
        <ele>31.9</ele>
        <time>2021-07-11T15:56:05Z</time>
      </trkpt>
      <trkpt lat="49.84743" lon="2.37554">
        <ele>31.9</ele>
        <time>2021-07-11T15:56:06Z</time>
      </trkpt>
      <trkpt lat="49.84743" lon="2.37554">
        <ele>31.9</ele>
        <time>2021-07-11T15:56:08Z</time>
      </trkpt>
      <trkpt lat="49.84743" lon="2.37554">
        <ele>31.9</ele>
        <time>2021-07-11T15:56:10Z</time>
      </trkpt>
      <trkpt lat="49.84743" lon="2.37554">
        <ele>31.9</ele>
        <time>2021-07-11T15:56:11Z</time>
      </trkpt>
      <trkpt lat="49.84743" lon="2.37554">
        <ele>31.9</ele>
        <time>2021-07-11T15:56:13Z</time>
      </trkpt>
      <trkpt lat="49.84743" lon="2.37554">
        <ele>31.9</ele>
        <time>2021-07-11T15:56:15Z</time>
      </trkpt>
      <trkpt lat="49.84743" lon="2.37554">
        <ele>31.9</ele>
        <time>2021-07-11T15:56:17Z</time>
      </trkpt>
      <trkpt lat="49.84743" lon="2.37554">
        <ele>31.9</ele>
        <time>2021-07-11T15:56:19Z</time>
      </trkpt>
      <trkpt lat="49.84743" lon="2.37554">
        <ele>31.9</ele>
        <time>2021-07-11T15:56:21Z</time>
      </trkpt>
      <trkpt lat="49.84743" lon="2.37554">
        <ele>31.9</ele>
        <time>2021-07-11T15:56:22Z</time>
      </trkpt>
      <trkpt lat="49.84742" lon="2.37553">
        <ele>31.9</ele>
        <time>2021-07-11T15:56:24Z</time>
      </trkpt>
      <trkpt lat="49.84743" lon="2.37552">
        <ele>31.9</ele>
        <time>2021-07-11T15:56:25Z</time>
      </trkpt>
      <trkpt lat="49.84744" lon="2.37552">
        <ele>31.9</ele>
        <time>2021-07-11T15:56:26Z</time>
      </trkpt>
      <trkpt lat="49.84744" lon="2.37552">
        <ele>31.9</ele>
        <time>2021-07-11T15:56:28Z</time>
      </trkpt>
      <trkpt lat="49.84745" lon="2.37551">
        <ele>31.9</ele>
        <time>2021-07-11T15:56:29Z</time>
      </trkpt>
      <trkpt lat="49.84744" lon="2.37551">
        <ele>31.9</ele>
        <time>2021-07-11T15:56:30Z</time>
      </trkpt>
      <trkpt lat="49.84744" lon="2.37551">
        <ele>31.9</ele>
        <time>2021-07-11T15:56:31Z</time>
      </trkpt>
      <trkpt lat="49.84745" lon="2.37551">
        <ele>31.9</ele>
        <time>2021-07-11T15:56:32Z</time>
      </trkpt>
      <trkpt lat="49.84745" lon="2.37551">
        <ele>31.8</ele>
        <time>2021-07-11T15:56:33Z</time>
      </trkpt>
      <trkpt lat="49.84745" lon="2.37551">
        <ele>31.8</ele>
        <time>2021-07-11T15:56:35Z</time>
      </trkpt>
      <trkpt lat="49.84746" lon="2.37553">
        <ele>31.8</ele>
        <time>2021-07-11T15:56:36Z</time>
      </trkpt>
      <trkpt lat="49.84747" lon="2.37554">
        <ele>31.8</ele>
        <time>2021-07-11T15:56:37Z</time>
      </trkpt>
      <trkpt lat="49.84747" lon="2.37555">
        <ele>31.8</ele>
        <time>2021-07-11T15:56:38Z</time>
      </trkpt>
      <trkpt lat="49.84747" lon="2.37557">
        <ele>31.8</ele>
        <time>2021-07-11T15:56:40Z</time>
      </trkpt>
      <trkpt lat="49.84747" lon="2.37559">
        <ele>31.8</ele>
        <time>2021-07-11T15:56:41Z</time>
      </trkpt>
      <trkpt lat="49.84748" lon="2.37561">
        <ele>31.8</ele>
        <time>2021-07-11T15:56:42Z</time>
      </trkpt>
      <trkpt lat="49.8475" lon="2.37562">
        <ele>31.8</ele>
        <time>2021-07-11T15:56:44Z</time>
      </trkpt>
      <trkpt lat="49.84751" lon="2.37563">
        <ele>31.8</ele>
        <time>2021-07-11T15:56:45Z</time>
      </trkpt>
      <trkpt lat="49.84752" lon="2.37563">
        <ele>31.8</ele>
        <time>2021-07-11T15:56:46Z</time>
      </trkpt>
      <trkpt lat="49.84755" lon="2.37563">
        <ele>31.8</ele>
        <time>2021-07-11T15:56:47Z</time>
      </trkpt>
      <trkpt lat="49.84755" lon="2.37564">
        <ele>31.8</ele>
        <time>2021-07-11T15:56:48Z</time>
      </trkpt>
      <trkpt lat="49.84757" lon="2.37565">
        <ele>31.8</ele>
        <time>2021-07-11T15:56:50Z</time>
      </trkpt>
      <trkpt lat="49.84758" lon="2.37565">
        <ele>31.8</ele>
        <time>2021-07-11T15:56:51Z</time>
      </trkpt>
      <trkpt lat="49.84759" lon="2.37566">
        <ele>31.8</ele>
        <time>2021-07-11T15:56:52Z</time>
      </trkpt>
      <trkpt lat="49.8476" lon="2.37566">
        <ele>31.8</ele>
        <time>2021-07-11T15:56:53Z</time>
      </trkpt>
      <trkpt lat="49.84761" lon="2.37567">
        <ele>31.8</ele>
        <time>2021-07-11T15:56:54Z</time>
      </trkpt>
      <trkpt lat="49.84763" lon="2.37568">
        <ele>31.8</ele>
        <time>2021-07-11T15:56:56Z</time>
      </trkpt>
      <trkpt lat="49.84763" lon="2.37568">
        <ele>31.8</ele>
        <time>2021-07-11T15:56:57Z</time>
      </trkpt>
      <trkpt lat="49.84764" lon="2.37569">
        <ele>31.8</ele>
        <time>2021-07-11T15:56:58Z</time>
      </trkpt>
      <trkpt lat="49.84765" lon="2.37569">
        <ele>31.9</ele>
        <time>2021-07-11T15:56:59Z</time>
      </trkpt>
      <trkpt lat="49.84766" lon="2.3757">
        <ele>31.9</ele>
        <time>2021-07-11T15:57:00Z</time>
      </trkpt>
      <trkpt lat="49.84767" lon="2.3757">
        <ele>31.9</ele>
        <time>2021-07-11T15:57:02Z</time>
      </trkpt>
      <trkpt lat="49.84768" lon="2.37571">
        <ele>31.9</ele>
        <time>2021-07-11T15:57:03Z</time>
      </trkpt>
      <trkpt lat="49.8477" lon="2.37572">
        <ele>31.9</ele>
        <time>2021-07-11T15:57:05Z</time>
      </trkpt>
      <trkpt lat="49.84771" lon="2.37572">
        <ele>31.9</ele>
        <time>2021-07-11T15:57:06Z</time>
      </trkpt>
      <trkpt lat="49.84773" lon="2.37573">
        <ele>31.9</ele>
        <time>2021-07-11T15:57:07Z</time>
      </trkpt>
      <trkpt lat="49.84773" lon="2.37574">
        <ele>31.9</ele>
        <time>2021-07-11T15:57:08Z</time>
      </trkpt>
      <trkpt lat="49.84774" lon="2.37574">
        <ele>31.9</ele>
        <time>2021-07-11T15:57:10Z</time>
      </trkpt>
      <trkpt lat="49.84775" lon="2.37574">
        <ele>31.9</ele>
        <time>2021-07-11T15:57:11Z</time>
      </trkpt>
      <trkpt lat="49.84776" lon="2.37573">
        <ele>31.9</ele>
        <time>2021-07-11T15:57:12Z</time>
      </trkpt>
      <trkpt lat="49.84777" lon="2.37574">
        <ele>31.9</ele>
        <time>2021-07-11T15:57:13Z</time>
      </trkpt>
      <trkpt lat="49.84777" lon="2.37574">
        <ele>31.9</ele>
        <time>2021-07-11T15:57:14Z</time>
      </trkpt>
      <trkpt lat="49.84778" lon="2.37575">
        <ele>31.9</ele>
        <time>2021-07-11T15:57:16Z</time>
      </trkpt>
      <trkpt lat="49.84779" lon="2.37575">
        <ele>31.9</ele>
        <time>2021-07-11T15:57:17Z</time>
      </trkpt>
      <trkpt lat="49.84779" lon="2.37575">
        <ele>31.9</ele>
        <time>2021-07-11T15:57:18Z</time>
      </trkpt>
      <trkpt lat="49.8478" lon="2.37575">
        <ele>31.9</ele>
        <time>2021-07-11T15:57:19Z</time>
      </trkpt>
      <trkpt lat="49.84782" lon="2.37576">
        <ele>31.8</ele>
        <time>2021-07-11T15:57:21Z</time>
      </trkpt>
      <trkpt lat="49.84783" lon="2.37577">
        <ele>31.8</ele>
        <time>2021-07-11T15:57:22Z</time>
      </trkpt>
      <trkpt lat="49.84784" lon="2.37578">
        <ele>31.8</ele>
        <time>2021-07-11T15:57:23Z</time>
      </trkpt>
      <trkpt lat="49.84786" lon="2.37579">
        <ele>31.8</ele>
        <time>2021-07-11T15:57:25Z</time>
      </trkpt>
      <trkpt lat="49.84786" lon="2.37581">
        <ele>31.8</ele>
        <time>2021-07-11T15:57:26Z</time>
      </trkpt>
      <trkpt lat="49.84786" lon="2.37582">
        <ele>31.8</ele>
        <time>2021-07-11T15:57:27Z</time>
      </trkpt>
      <trkpt lat="49.84787" lon="2.37583">
        <ele>31.8</ele>
        <time>2021-07-11T15:57:28Z</time>
      </trkpt>
      <trkpt lat="49.84788" lon="2.37584">
        <ele>31.8</ele>
        <time>2021-07-11T15:57:30Z</time>
      </trkpt>
      <trkpt lat="49.84789" lon="2.37584">
        <ele>31.8</ele>
        <time>2021-07-11T15:57:31Z</time>
      </trkpt>
      <trkpt lat="49.8479" lon="2.37586">
        <ele>31.8</ele>
        <time>2021-07-11T15:57:33Z</time>
      </trkpt>
      <trkpt lat="49.84791" lon="2.37587">
        <ele>31.8</ele>
        <time>2021-07-11T15:57:34Z</time>
      </trkpt>
      <trkpt lat="49.84792" lon="2.37587">
        <ele>31.8</ele>
        <time>2021-07-11T15:57:36Z</time>
      </trkpt>
      <trkpt lat="49.84793" lon="2.37587">
        <ele>31.7</ele>
        <time>2021-07-11T15:57:37Z</time>
      </trkpt>
      <trkpt lat="49.84794" lon="2.37587">
        <ele>31.7</ele>
        <time>2021-07-11T15:57:38Z</time>
      </trkpt>
      <trkpt lat="49.84795" lon="2.37588">
        <ele>31.7</ele>
        <time>2021-07-11T15:57:39Z</time>
      </trkpt>
      <trkpt lat="49.84796" lon="2.37588">
        <ele>31.7</ele>
        <time>2021-07-11T15:57:40Z</time>
      </trkpt>
      <trkpt lat="49.84799" lon="2.37589">
        <ele>31.7</ele>
        <time>2021-07-11T15:57:41Z</time>
      </trkpt>
      <trkpt lat="49.848" lon="2.3759">
        <ele>31.7</ele>
        <time>2021-07-11T15:57:43Z</time>
      </trkpt>
      <trkpt lat="49.84801" lon="2.3759">
        <ele>31.6</ele>
        <time>2021-07-11T15:57:44Z</time>
      </trkpt>
      <trkpt lat="49.84802" lon="2.3759">
        <ele>31.6</ele>
        <time>2021-07-11T15:57:45Z</time>
      </trkpt>
      <trkpt lat="49.84803" lon="2.37591">
        <ele>31.6</ele>
        <time>2021-07-11T15:57:46Z</time>
      </trkpt>
      <trkpt lat="49.84804" lon="2.37592">
        <ele>31.6</ele>
        <time>2021-07-11T15:57:47Z</time>
      </trkpt>
      <trkpt lat="49.84806" lon="2.37593">
        <ele>31.6</ele>
        <time>2021-07-11T15:57:48Z</time>
      </trkpt>
      <trkpt lat="49.84807" lon="2.37594">
        <ele>31.5</ele>
        <time>2021-07-11T15:57:50Z</time>
      </trkpt>
      <trkpt lat="49.84808" lon="2.37595">
        <ele>31.5</ele>
        <time>2021-07-11T15:57:51Z</time>
      </trkpt>
      <trkpt lat="49.8481" lon="2.37597">
        <ele>31.5</ele>
        <time>2021-07-11T15:57:52Z</time>
      </trkpt>
      <trkpt lat="49.84811" lon="2.37598">
        <ele>31.5</ele>
        <time>2021-07-11T15:57:53Z</time>
      </trkpt>
      <trkpt lat="49.84812" lon="2.37599">
        <ele>31.5</ele>
        <time>2021-07-11T15:57:54Z</time>
      </trkpt>
      <trkpt lat="49.84813" lon="2.376">
        <ele>31.4</ele>
        <time>2021-07-11T15:57:56Z</time>
      </trkpt>
      <trkpt lat="49.84814" lon="2.37601">
        <ele>31.4</ele>
        <time>2021-07-11T15:57:57Z</time>
      </trkpt>
      <trkpt lat="49.84815" lon="2.37602">
        <ele>31.4</ele>
        <time>2021-07-11T15:57:58Z</time>
      </trkpt>
      <trkpt lat="49.84817" lon="2.37604">
        <ele>31.4</ele>
        <time>2021-07-11T15:57:59Z</time>
      </trkpt>
      <trkpt lat="49.84819" lon="2.37607">
        <ele>31.3</ele>
        <time>2021-07-11T15:58:01Z</time>
      </trkpt>
      <trkpt lat="49.8482" lon="2.37608">
        <ele>31.3</ele>
        <time>2021-07-11T15:58:02Z</time>
      </trkpt>
      <trkpt lat="49.84822" lon="2.37611">
        <ele>31.3</ele>
        <time>2021-07-11T15:58:04Z</time>
      </trkpt>
      <trkpt lat="49.84823" lon="2.37613">
        <ele>31.3</ele>
        <time>2021-07-11T15:58:05Z</time>
      </trkpt>
      <trkpt lat="49.84824" lon="2.37614">
        <ele>31.2</ele>
        <time>2021-07-11T15:58:06Z</time>
      </trkpt>
      <trkpt lat="49.84825" lon="2.37616">
        <ele>31.2</ele>
        <time>2021-07-11T15:58:07Z</time>
      </trkpt>
      <trkpt lat="49.84827" lon="2.37617">
        <ele>31.2</ele>
        <time>2021-07-11T15:58:08Z</time>
      </trkpt>
      <trkpt lat="49.84829" lon="2.3762">
        <ele>31.2</ele>
        <time>2021-07-11T15:58:09Z</time>
      </trkpt>
      <trkpt lat="49.84829" lon="2.37621">
        <ele>31.2</ele>
        <time>2021-07-11T15:58:11Z</time>
      </trkpt>
      <trkpt lat="49.8483" lon="2.37622">
        <ele>31.2</ele>
        <time>2021-07-11T15:58:12Z</time>
      </trkpt>
      <trkpt lat="49.84831" lon="2.37623">
        <ele>31.1</ele>
        <time>2021-07-11T15:58:13Z</time>
      </trkpt>
      <trkpt lat="49.84832" lon="2.37624">
        <ele>31.1</ele>
        <time>2021-07-11T15:58:14Z</time>
      </trkpt>
      <trkpt lat="49.84833" lon="2.37625">
        <ele>31.1</ele>
        <time>2021-07-11T15:58:15Z</time>
      </trkpt>
      <trkpt lat="49.84834" lon="2.37626">
        <ele>31.1</ele>
        <time>2021-07-11T15:58:16Z</time>
      </trkpt>
      <trkpt lat="49.84835" lon="2.37627">
        <ele>31.1</ele>
        <time>2021-07-11T15:58:18Z</time>
      </trkpt>
      <trkpt lat="49.84836" lon="2.37628">
        <ele>31.1</ele>
        <time>2021-07-11T15:58:19Z</time>
      </trkpt>
      <trkpt lat="49.84836" lon="2.3763">
        <ele>31.1</ele>
        <time>2021-07-11T15:58:20Z</time>
      </trkpt>
      <trkpt lat="49.84837" lon="2.37631">
        <ele>31.1</ele>
        <time>2021-07-11T15:58:21Z</time>
      </trkpt>
      <trkpt lat="49.84838" lon="2.37633">
        <ele>31.1</ele>
        <time>2021-07-11T15:58:22Z</time>
      </trkpt>
      <trkpt lat="49.84839" lon="2.37634">
        <ele>31.1</ele>
        <time>2021-07-11T15:58:24Z</time>
      </trkpt>
      <trkpt lat="49.8484" lon="2.37635">
        <ele>31.1</ele>
        <time>2021-07-11T15:58:25Z</time>
      </trkpt>
      <trkpt lat="49.8484" lon="2.37636">
        <ele>31.1</ele>
        <time>2021-07-11T15:58:26Z</time>
      </trkpt>
      <trkpt lat="49.8484" lon="2.37638">
        <ele>31.1</ele>
        <time>2021-07-11T15:58:28Z</time>
      </trkpt>
      <trkpt lat="49.8484" lon="2.37638">
        <ele>31.1</ele>
        <time>2021-07-11T15:58:30Z</time>
      </trkpt>
      <trkpt lat="49.8484" lon="2.37638">
        <ele>31.1</ele>
        <time>2021-07-11T15:58:32Z</time>
      </trkpt>
      <trkpt lat="49.8484" lon="2.37638">
        <ele>31.1</ele>
        <time>2021-07-11T15:58:33Z</time>
      </trkpt>
      <trkpt lat="49.8484" lon="2.37638">
        <ele>31.1</ele>
        <time>2021-07-11T15:58:34Z</time>
      </trkpt>
      <trkpt lat="49.8484" lon="2.37638">
        <ele>31.1</ele>
        <time>2021-07-11T15:58:35Z</time>
      </trkpt>
      <trkpt lat="49.8484" lon="2.37638">
        <ele>31.1</ele>
        <time>2021-07-11T15:58:37Z</time>
      </trkpt>
      <trkpt lat="49.8484" lon="2.37638">
        <ele>31.1</ele>
        <time>2021-07-11T15:58:38Z</time>
      </trkpt>
      <trkpt lat="49.84839" lon="2.37638">
        <ele>31.1</ele>
        <time>2021-07-11T15:58:40Z</time>
      </trkpt>
      <trkpt lat="49.84839" lon="2.37638">
        <ele>31.1</ele>
        <time>2021-07-11T15:58:42Z</time>
      </trkpt>
      <trkpt lat="49.84839" lon="2.37638">
        <ele>31.1</ele>
        <time>2021-07-11T15:58:43Z</time>
      </trkpt>
      <trkpt lat="49.84839" lon="2.37638">
        <ele>31.1</ele>
        <time>2021-07-11T15:58:44Z</time>
      </trkpt>
      <trkpt lat="49.84839" lon="2.37638">
        <ele>31.1</ele>
        <time>2021-07-11T15:58:45Z</time>
      </trkpt>
      <trkpt lat="49.84839" lon="2.37638">
        <ele>31.1</ele>
        <time>2021-07-11T15:58:47Z</time>
      </trkpt>
      <trkpt lat="49.84839" lon="2.37638">
        <ele>31.1</ele>
        <time>2021-07-11T15:58:48Z</time>
      </trkpt>
      <trkpt lat="49.8484" lon="2.37639">
        <ele>31.1</ele>
        <time>2021-07-11T15:58:50Z</time>
      </trkpt>
      <trkpt lat="49.84841" lon="2.3764">
        <ele>31.1</ele>
        <time>2021-07-11T15:58:51Z</time>
      </trkpt>
      <trkpt lat="49.84841" lon="2.37641">
        <ele>31.1</ele>
        <time>2021-07-11T15:58:52Z</time>
      </trkpt>
      <trkpt lat="49.84842" lon="2.37642">
        <ele>31.1</ele>
        <time>2021-07-11T15:58:53Z</time>
      </trkpt>
      <trkpt lat="49.84843" lon="2.37642">
        <ele>31.1</ele>
        <time>2021-07-11T15:58:54Z</time>
      </trkpt>
      <trkpt lat="49.84844" lon="2.37643">
        <ele>31.1</ele>
        <time>2021-07-11T15:58:56Z</time>
      </trkpt>
      <trkpt lat="49.84845" lon="2.37644">
        <ele>31.1</ele>
        <time>2021-07-11T15:58:57Z</time>
      </trkpt>
      <trkpt lat="49.84846" lon="2.37644">
        <ele>31.1</ele>
        <time>2021-07-11T15:58:58Z</time>
      </trkpt>
      <trkpt lat="49.84846" lon="2.37644">
        <ele>31.1</ele>
        <time>2021-07-11T15:59:00Z</time>
      </trkpt>
      <trkpt lat="49.84847" lon="2.37645">
        <ele>31</ele>
        <time>2021-07-11T15:59:01Z</time>
      </trkpt>
      <trkpt lat="49.84848" lon="2.37645">
        <ele>31</ele>
        <time>2021-07-11T15:59:02Z</time>
      </trkpt>
      <trkpt lat="49.84849" lon="2.37645">
        <ele>31</ele>
        <time>2021-07-11T15:59:03Z</time>
      </trkpt>
      <trkpt lat="49.8485" lon="2.37645">
        <ele>31</ele>
        <time>2021-07-11T15:59:04Z</time>
      </trkpt>
      <trkpt lat="49.84852" lon="2.37645">
        <ele>31</ele>
        <time>2021-07-11T15:59:06Z</time>
      </trkpt>
      <trkpt lat="49.84853" lon="2.37645">
        <ele>31</ele>
        <time>2021-07-11T15:59:07Z</time>
      </trkpt>
      <trkpt lat="49.84854" lon="2.37645">
        <ele>31</ele>
        <time>2021-07-11T15:59:08Z</time>
      </trkpt>
      <trkpt lat="49.84855" lon="2.37645">
        <ele>31</ele>
        <time>2021-07-11T15:59:09Z</time>
      </trkpt>
      <trkpt lat="49.84856" lon="2.37646">
        <ele>31</ele>
        <time>2021-07-11T15:59:10Z</time>
      </trkpt>
      <trkpt lat="49.84856" lon="2.37646">
        <ele>31</ele>
        <time>2021-07-11T15:59:12Z</time>
      </trkpt>
      <trkpt lat="49.84857" lon="2.37647">
        <ele>31</ele>
        <time>2021-07-11T15:59:13Z</time>
      </trkpt>
      <trkpt lat="49.84858" lon="2.37647">
        <ele>31</ele>
        <time>2021-07-11T15:59:14Z</time>
      </trkpt>
      <trkpt lat="49.8486" lon="2.37648">
        <ele>31</ele>
        <time>2021-07-11T15:59:16Z</time>
      </trkpt>
      <trkpt lat="49.84861" lon="2.37649">
        <ele>31</ele>
        <time>2021-07-11T15:59:17Z</time>
      </trkpt>
      <trkpt lat="49.84862" lon="2.37649">
        <ele>31</ele>
        <time>2021-07-11T15:59:18Z</time>
      </trkpt>
      <trkpt lat="49.84864" lon="2.37649">
        <ele>31</ele>
        <time>2021-07-11T15:59:20Z</time>
      </trkpt>
      <trkpt lat="49.84865" lon="2.37649">
        <ele>31</ele>
        <time>2021-07-11T15:59:21Z</time>
      </trkpt>
      <trkpt lat="49.84867" lon="2.3765">
        <ele>31</ele>
        <time>2021-07-11T15:59:23Z</time>
      </trkpt>
      <trkpt lat="49.84869" lon="2.37651">
        <ele>31</ele>
        <time>2021-07-11T15:59:24Z</time>
      </trkpt>
      <trkpt lat="49.8487" lon="2.37652">
        <ele>31</ele>
        <time>2021-07-11T15:59:25Z</time>
      </trkpt>
      <trkpt lat="49.84872" lon="2.37653">
        <ele>31</ele>
        <time>2021-07-11T15:59:27Z</time>
      </trkpt>
      <trkpt lat="49.84873" lon="2.37653">
        <ele>31</ele>
        <time>2021-07-11T15:59:28Z</time>
      </trkpt>
      <trkpt lat="49.84874" lon="2.37655">
        <ele>31</ele>
        <time>2021-07-11T15:59:30Z</time>
      </trkpt>
      <trkpt lat="49.84875" lon="2.37656">
        <ele>31</ele>
        <time>2021-07-11T15:59:31Z</time>
      </trkpt>
      <trkpt lat="49.84876" lon="2.37657">
        <ele>31</ele>
        <time>2021-07-11T15:59:32Z</time>
      </trkpt>
      <trkpt lat="49.84877" lon="2.37658">
        <ele>30.9</ele>
        <time>2021-07-11T15:59:33Z</time>
      </trkpt>
      <trkpt lat="49.84878" lon="2.37659">
        <ele>30.9</ele>
        <time>2021-07-11T15:59:34Z</time>
      </trkpt>
      <trkpt lat="49.8488" lon="2.3766">
        <ele>30.9</ele>
        <time>2021-07-11T15:59:36Z</time>
      </trkpt>
      <trkpt lat="49.84881" lon="2.37661">
        <ele>30.9</ele>
        <time>2021-07-11T15:59:37Z</time>
      </trkpt>
      <trkpt lat="49.84882" lon="2.37662">
        <ele>30.9</ele>
        <time>2021-07-11T15:59:38Z</time>
      </trkpt>
      <trkpt lat="49.84883" lon="2.37664">
        <ele>30.9</ele>
        <time>2021-07-11T15:59:40Z</time>
      </trkpt>
      <trkpt lat="49.84883" lon="2.37665">
        <ele>30.9</ele>
        <time>2021-07-11T15:59:41Z</time>
      </trkpt>
      <trkpt lat="49.84885" lon="2.37666">
        <ele>30.9</ele>
        <time>2021-07-11T15:59:43Z</time>
      </trkpt>
      <trkpt lat="49.84886" lon="2.37667">
        <ele>30.9</ele>
        <time>2021-07-11T15:59:44Z</time>
      </trkpt>
      <trkpt lat="49.84888" lon="2.37669">
        <ele>30.9</ele>
        <time>2021-07-11T15:59:46Z</time>
      </trkpt>
      <trkpt lat="49.84888" lon="2.3767">
        <ele>30.9</ele>
        <time>2021-07-11T15:59:47Z</time>
      </trkpt>
      <trkpt lat="49.8489" lon="2.37672">
        <ele>30.9</ele>
        <time>2021-07-11T15:59:49Z</time>
      </trkpt>
      <trkpt lat="49.84891" lon="2.37673">
        <ele>30.9</ele>
        <time>2021-07-11T15:59:50Z</time>
      </trkpt>
      <trkpt lat="49.84892" lon="2.37674">
        <ele>30.9</ele>
        <time>2021-07-11T15:59:51Z</time>
      </trkpt>
      <trkpt lat="49.84894" lon="2.37676">
        <ele>30.8</ele>
        <time>2021-07-11T15:59:52Z</time>
      </trkpt>
      <trkpt lat="49.84895" lon="2.37677">
        <ele>30.8</ele>
        <time>2021-07-11T15:59:54Z</time>
      </trkpt>
      <trkpt lat="49.84895" lon="2.37678">
        <ele>30.8</ele>
        <time>2021-07-11T15:59:55Z</time>
      </trkpt>
      <trkpt lat="49.84896" lon="2.37679">
        <ele>30.8</ele>
        <time>2021-07-11T15:59:56Z</time>
      </trkpt>
      <trkpt lat="49.84897" lon="2.3768">
        <ele>30.8</ele>
        <time>2021-07-11T15:59:57Z</time>
      </trkpt>
      <trkpt lat="49.84897" lon="2.37681">
        <ele>30.8</ele>
        <time>2021-07-11T15:59:58Z</time>
      </trkpt>
      <trkpt lat="49.84898" lon="2.37682">
        <ele>30.8</ele>
        <time>2021-07-11T15:59:59Z</time>
      </trkpt>
      <trkpt lat="49.84898" lon="2.37683">
        <ele>30.8</ele>
        <time>2021-07-11T16:00:01Z</time>
      </trkpt>
      <trkpt lat="49.84898" lon="2.37685">
        <ele>30.8</ele>
        <time>2021-07-11T16:00:02Z</time>
      </trkpt>
      <trkpt lat="49.84897" lon="2.37686">
        <ele>30.8</ele>
        <time>2021-07-11T16:00:03Z</time>
      </trkpt>
      <trkpt lat="49.84896" lon="2.37688">
        <ele>30.8</ele>
        <time>2021-07-11T16:00:04Z</time>
      </trkpt>
      <trkpt lat="49.84896" lon="2.3769">
        <ele>30.7</ele>
        <time>2021-07-11T16:00:05Z</time>
      </trkpt>
      <trkpt lat="49.84895" lon="2.37691">
        <ele>30.7</ele>
        <time>2021-07-11T16:00:07Z</time>
      </trkpt>
      <trkpt lat="49.84895" lon="2.37693">
        <ele>30.7</ele>
        <time>2021-07-11T16:00:08Z</time>
      </trkpt>
      <trkpt lat="49.84895" lon="2.37695">
        <ele>30.7</ele>
        <time>2021-07-11T16:00:10Z</time>
      </trkpt>
      <trkpt lat="49.84895" lon="2.37697">
        <ele>30.7</ele>
        <time>2021-07-11T16:00:11Z</time>
      </trkpt>
      <trkpt lat="49.84896" lon="2.37699">
        <ele>30.7</ele>
        <time>2021-07-11T16:00:13Z</time>
      </trkpt>
      <trkpt lat="49.84896" lon="2.37701">
        <ele>30.7</ele>
        <time>2021-07-11T16:00:14Z</time>
      </trkpt>
      <trkpt lat="49.84896" lon="2.37704">
        <ele>30.7</ele>
        <time>2021-07-11T16:00:15Z</time>
      </trkpt>
      <trkpt lat="49.84896" lon="2.37706">
        <ele>30.7</ele>
        <time>2021-07-11T16:00:16Z</time>
      </trkpt>
      <trkpt lat="49.84896" lon="2.37707">
        <ele>30.7</ele>
        <time>2021-07-11T16:00:17Z</time>
      </trkpt>
      <trkpt lat="49.84896" lon="2.37709">
        <ele>30.7</ele>
        <time>2021-07-11T16:00:19Z</time>
      </trkpt>
      <trkpt lat="49.84896" lon="2.3771">
        <ele>30.7</ele>
        <time>2021-07-11T16:00:20Z</time>
      </trkpt>
      <trkpt lat="49.84897" lon="2.37712">
        <ele>30.7</ele>
        <time>2021-07-11T16:00:21Z</time>
      </trkpt>
      <trkpt lat="49.84897" lon="2.37715">
        <ele>30.7</ele>
        <time>2021-07-11T16:00:23Z</time>
      </trkpt>
      <trkpt lat="49.84897" lon="2.37716">
        <ele>30.7</ele>
        <time>2021-07-11T16:00:24Z</time>
      </trkpt>
      <trkpt lat="49.84897" lon="2.37718">
        <ele>30.7</ele>
        <time>2021-07-11T16:00:25Z</time>
      </trkpt>
      <trkpt lat="49.84897" lon="2.3772">
        <ele>30.7</ele>
        <time>2021-07-11T16:00:26Z</time>
      </trkpt>
      <trkpt lat="49.84897" lon="2.37722">
        <ele>30.7</ele>
        <time>2021-07-11T16:00:28Z</time>
      </trkpt>
      <trkpt lat="49.84897" lon="2.37723">
        <ele>30.7</ele>
        <time>2021-07-11T16:00:29Z</time>
      </trkpt>
      <trkpt lat="49.84898" lon="2.37725">
        <ele>30.7</ele>
        <time>2021-07-11T16:00:30Z</time>
      </trkpt>
      <trkpt lat="49.84899" lon="2.37726">
        <ele>30.7</ele>
        <time>2021-07-11T16:00:32Z</time>
      </trkpt>
      <trkpt lat="49.849" lon="2.37726">
        <ele>30.7</ele>
        <time>2021-07-11T16:00:33Z</time>
      </trkpt>
      <trkpt lat="49.84902" lon="2.37726">
        <ele>30.7</ele>
        <time>2021-07-11T16:00:34Z</time>
      </trkpt>
      <trkpt lat="49.84903" lon="2.37726">
        <ele>30.7</ele>
        <time>2021-07-11T16:00:35Z</time>
      </trkpt>
      <trkpt lat="49.84904" lon="2.37725">
        <ele>30.7</ele>
        <time>2021-07-11T16:00:37Z</time>
      </trkpt>
      <trkpt lat="49.84906" lon="2.37725">
        <ele>30.7</ele>
        <time>2021-07-11T16:00:38Z</time>
      </trkpt>
      <trkpt lat="49.84907" lon="2.37726">
        <ele>30.7</ele>
        <time>2021-07-11T16:00:39Z</time>
      </trkpt>
      <trkpt lat="49.84908" lon="2.37727">
        <ele>30.6</ele>
        <time>2021-07-11T16:00:41Z</time>
      </trkpt>
      <trkpt lat="49.84908" lon="2.37726">
        <ele>30.6</ele>
        <time>2021-07-11T16:00:42Z</time>
      </trkpt>
      <trkpt lat="49.84908" lon="2.37726">
        <ele>30.6</ele>
        <time>2021-07-11T16:00:44Z</time>
      </trkpt>
      <trkpt lat="49.84908" lon="2.37726">
        <ele>30.6</ele>
        <time>2021-07-11T16:00:45Z</time>
      </trkpt>
      <trkpt lat="49.84907" lon="2.37726">
        <ele>30.6</ele>
        <time>2021-07-11T16:00:46Z</time>
      </trkpt>
      <trkpt lat="49.84907" lon="2.37726">
        <ele>30.6</ele>
        <time>2021-07-11T16:00:48Z</time>
      </trkpt>
      <trkpt lat="49.84907" lon="2.37726">
        <ele>30.6</ele>
        <time>2021-07-11T16:00:49Z</time>
      </trkpt>
      <trkpt lat="49.84907" lon="2.37726">
        <ele>30.6</ele>
        <time>2021-07-11T16:00:51Z</time>
      </trkpt>
      <trkpt lat="49.84906" lon="2.37726">
        <ele>30.6</ele>
        <time>2021-07-11T16:00:53Z</time>
      </trkpt>
      <trkpt lat="49.84906" lon="2.37726">
        <ele>30.6</ele>
        <time>2021-07-11T16:00:55Z</time>
      </trkpt>
      <trkpt lat="49.84906" lon="2.37726">
        <ele>30.6</ele>
        <time>2021-07-11T16:00:56Z</time>
      </trkpt>
      <trkpt lat="49.84906" lon="2.37726">
        <ele>30.6</ele>
        <time>2021-07-11T16:00:58Z</time>
      </trkpt>
      <trkpt lat="49.84905" lon="2.37726">
        <ele>30.6</ele>
        <time>2021-07-11T16:01:00Z</time>
      </trkpt>
      <trkpt lat="49.84905" lon="2.37726">
        <ele>30.6</ele>
        <time>2021-07-11T16:01:02Z</time>
      </trkpt>
      <trkpt lat="49.84905" lon="2.37726">
        <ele>30.6</ele>
        <time>2021-07-11T16:01:04Z</time>
      </trkpt>
      <trkpt lat="49.84904" lon="2.37726">
        <ele>30.6</ele>
        <time>2021-07-11T16:01:05Z</time>
      </trkpt>
      <trkpt lat="49.84903" lon="2.37727">
        <ele>30.6</ele>
        <time>2021-07-11T16:01:06Z</time>
      </trkpt>
      <trkpt lat="49.84903" lon="2.37727">
        <ele>30.6</ele>
        <time>2021-07-11T16:01:08Z</time>
      </trkpt>
      <trkpt lat="49.84902" lon="2.37727">
        <ele>30.6</ele>
        <time>2021-07-11T16:01:09Z</time>
      </trkpt>
      <trkpt lat="49.84902" lon="2.37728">
        <ele>30.6</ele>
        <time>2021-07-11T16:01:11Z</time>
      </trkpt>
      <trkpt lat="49.84901" lon="2.37728">
        <ele>30.6</ele>
        <time>2021-07-11T16:01:13Z</time>
      </trkpt>
      <trkpt lat="49.849" lon="2.37728">
        <ele>30.6</ele>
        <time>2021-07-11T16:01:14Z</time>
      </trkpt>
      <trkpt lat="49.84901" lon="2.37727">
        <ele>30.6</ele>
        <time>2021-07-11T16:01:16Z</time>
      </trkpt>
      <trkpt lat="49.84902" lon="2.37725">
        <ele>30.6</ele>
        <time>2021-07-11T16:01:18Z</time>
      </trkpt>
      <trkpt lat="49.84902" lon="2.37725">
        <ele>30.6</ele>
        <time>2021-07-11T16:01:19Z</time>
      </trkpt>
      <trkpt lat="49.84901" lon="2.37725">
        <ele>30.6</ele>
        <time>2021-07-11T16:01:21Z</time>
      </trkpt>
      <trkpt lat="49.849" lon="2.37725">
        <ele>30.6</ele>
        <time>2021-07-11T16:01:22Z</time>
      </trkpt>
      <trkpt lat="49.849" lon="2.37726">
        <ele>30.6</ele>
        <time>2021-07-11T16:01:23Z</time>
      </trkpt>
      <trkpt lat="49.849" lon="2.37726">
        <ele>30.6</ele>
        <time>2021-07-11T16:01:25Z</time>
      </trkpt>
      <trkpt lat="49.849" lon="2.37726">
        <ele>30.6</ele>
        <time>2021-07-11T16:01:26Z</time>
      </trkpt>
      <trkpt lat="49.849" lon="2.37726">
        <ele>30.6</ele>
        <time>2021-07-11T16:01:28Z</time>
      </trkpt>
      <trkpt lat="49.849" lon="2.37726">
        <ele>30.6</ele>
        <time>2021-07-11T16:01:30Z</time>
      </trkpt>
      <trkpt lat="49.849" lon="2.37727">
        <ele>30.6</ele>
        <time>2021-07-11T16:01:32Z</time>
      </trkpt>
      <trkpt lat="49.849" lon="2.37727">
        <ele>30.6</ele>
        <time>2021-07-11T16:01:34Z</time>
      </trkpt>
      <trkpt lat="49.849" lon="2.37727">
        <ele>30.6</ele>
        <time>2021-07-11T16:01:36Z</time>
      </trkpt>
      <trkpt lat="49.849" lon="2.37727">
        <ele>30.6</ele>
        <time>2021-07-11T16:01:38Z</time>
      </trkpt>
      <trkpt lat="49.849" lon="2.37727">
        <ele>30.6</ele>
        <time>2021-07-11T16:01:39Z</time>
      </trkpt>
      <trkpt lat="49.849" lon="2.37727">
        <ele>30.6</ele>
        <time>2021-07-11T16:01:41Z</time>
      </trkpt>
      <trkpt lat="49.849" lon="2.37727">
        <ele>30.6</ele>
        <time>2021-07-11T16:01:42Z</time>
      </trkpt>
      <trkpt lat="49.849" lon="2.37727">
        <ele>30.6</ele>
        <time>2021-07-11T16:01:44Z</time>
      </trkpt>
      <trkpt lat="49.849" lon="2.37727">
        <ele>30.6</ele>
        <time>2021-07-11T16:01:46Z</time>
      </trkpt>
      <trkpt lat="49.84899" lon="2.37728">
        <ele>30.6</ele>
        <time>2021-07-11T16:01:48Z</time>
      </trkpt>
      <trkpt lat="49.84899" lon="2.37728">
        <ele>30.6</ele>
        <time>2021-07-11T16:01:49Z</time>
      </trkpt>
      <trkpt lat="49.84898" lon="2.37729">
        <ele>30.6</ele>
        <time>2021-07-11T16:01:51Z</time>
      </trkpt>
      <trkpt lat="49.84898" lon="2.3773">
        <ele>30.6</ele>
        <time>2021-07-11T16:01:52Z</time>
      </trkpt>
      <trkpt lat="49.84898" lon="2.3773">
        <ele>30.6</ele>
        <time>2021-07-11T16:01:54Z</time>
      </trkpt>
      <trkpt lat="49.84898" lon="2.3773">
        <ele>30.6</ele>
        <time>2021-07-11T16:01:56Z</time>
      </trkpt>
      <trkpt lat="49.84898" lon="2.37729">
        <ele>30.6</ele>
        <time>2021-07-11T16:01:57Z</time>
      </trkpt>
      <trkpt lat="49.84898" lon="2.37729">
        <ele>30.6</ele>
        <time>2021-07-11T16:01:58Z</time>
      </trkpt>
      <trkpt lat="49.84898" lon="2.37729">
        <ele>30.6</ele>
        <time>2021-07-11T16:01:59Z</time>
      </trkpt>
      <trkpt lat="49.84898" lon="2.37729">
        <ele>30.6</ele>
        <time>2021-07-11T16:02:00Z</time>
      </trkpt>
      <trkpt lat="49.84898" lon="2.37729">
        <ele>30.6</ele>
        <time>2021-07-11T16:02:02Z</time>
      </trkpt>
      <trkpt lat="49.84898" lon="2.37729">
        <ele>30.6</ele>
        <time>2021-07-11T16:02:04Z</time>
      </trkpt>
      <trkpt lat="49.84898" lon="2.37729">
        <ele>30.6</ele>
        <time>2021-07-11T16:02:05Z</time>
      </trkpt>
      <trkpt lat="49.84898" lon="2.37729">
        <ele>30.6</ele>
        <time>2021-07-11T16:02:07Z</time>
      </trkpt>
      <trkpt lat="49.84898" lon="2.37729">
        <ele>30.6</ele>
        <time>2021-07-11T16:02:08Z</time>
      </trkpt>
      <trkpt lat="49.84898" lon="2.37729">
        <ele>30.6</ele>
        <time>2021-07-11T16:02:09Z</time>
      </trkpt>
      <trkpt lat="49.84898" lon="2.37729">
        <ele>30.6</ele>
        <time>2021-07-11T16:02:11Z</time>
      </trkpt>
      <trkpt lat="49.84898" lon="2.37729">
        <ele>30.6</ele>
        <time>2021-07-11T16:02:12Z</time>
      </trkpt>
      <trkpt lat="49.84898" lon="2.37729">
        <ele>30.6</ele>
        <time>2021-07-11T16:02:13Z</time>
      </trkpt>
      <trkpt lat="49.84898" lon="2.37729">
        <ele>30.6</ele>
        <time>2021-07-11T16:02:15Z</time>
      </trkpt>
      <trkpt lat="49.84898" lon="2.37729">
        <ele>30.6</ele>
        <time>2021-07-11T16:02:16Z</time>
      </trkpt>
      <trkpt lat="49.84898" lon="2.37729">
        <ele>30.6</ele>
        <time>2021-07-11T16:02:17Z</time>
      </trkpt>
      <trkpt lat="49.84898" lon="2.37729">
        <ele>30.6</ele>
        <time>2021-07-11T16:02:19Z</time>
      </trkpt>
      <trkpt lat="49.84898" lon="2.37729">
        <ele>30.6</ele>
        <time>2021-07-11T16:02:21Z</time>
      </trkpt>
      <trkpt lat="49.84898" lon="2.37729">
        <ele>30.6</ele>
        <time>2021-07-11T16:02:23Z</time>
      </trkpt>
      <trkpt lat="49.84898" lon="2.37729">
        <ele>30.6</ele>
        <time>2021-07-11T16:02:24Z</time>
      </trkpt>
      <trkpt lat="49.84898" lon="2.37729">
        <ele>30.6</ele>
        <time>2021-07-11T16:02:26Z</time>
      </trkpt>
      <trkpt lat="49.84898" lon="2.37729">
        <ele>30.6</ele>
        <time>2021-07-11T16:02:27Z</time>
      </trkpt>
      <trkpt lat="49.84898" lon="2.37729">
        <ele>30.6</ele>
        <time>2021-07-11T16:02:29Z</time>
      </trkpt>
      <trkpt lat="49.84898" lon="2.37729">
        <ele>30.6</ele>
        <time>2021-07-11T16:02:31Z</time>
      </trkpt>
      <trkpt lat="49.84898" lon="2.37729">
        <ele>30.6</ele>
        <time>2021-07-11T16:02:33Z</time>
      </trkpt>
      <trkpt lat="49.84898" lon="2.37729">
        <ele>30.6</ele>
        <time>2021-07-11T16:02:35Z</time>
      </trkpt>
      <trkpt lat="49.84898" lon="2.37729">
        <ele>30.6</ele>
        <time>2021-07-11T16:02:37Z</time>
      </trkpt>
      <trkpt lat="49.84898" lon="2.37729">
        <ele>30.6</ele>
        <time>2021-07-11T16:02:39Z</time>
      </trkpt>
      <trkpt lat="49.84898" lon="2.37729">
        <ele>30.6</ele>
        <time>2021-07-11T16:02:40Z</time>
      </trkpt>
      <trkpt lat="49.84898" lon="2.37729">
        <ele>30.6</ele>
        <time>2021-07-11T16:02:42Z</time>
      </trkpt>
      <trkpt lat="49.84898" lon="2.37729">
        <ele>30.6</ele>
        <time>2021-07-11T16:02:43Z</time>
      </trkpt>
      <trkpt lat="49.84898" lon="2.37729">
        <ele>30.6</ele>
        <time>2021-07-11T16:02:45Z</time>
      </trkpt>
      <trkpt lat="49.84898" lon="2.37729">
        <ele>30.6</ele>
        <time>2021-07-11T16:02:46Z</time>
      </trkpt>
      <trkpt lat="49.84898" lon="2.37729">
        <ele>30.6</ele>
        <time>2021-07-11T16:02:47Z</time>
      </trkpt>
      <trkpt lat="49.84898" lon="2.37729">
        <ele>30.6</ele>
        <time>2021-07-11T16:02:49Z</time>
      </trkpt>
      <trkpt lat="49.84898" lon="2.37729">
        <ele>30.6</ele>
        <time>2021-07-11T16:02:50Z</time>
      </trkpt>
      <trkpt lat="49.84898" lon="2.37729">
        <ele>30.6</ele>
        <time>2021-07-11T16:02:52Z</time>
      </trkpt>
      <trkpt lat="49.84898" lon="2.37729">
        <ele>30.6</ele>
        <time>2021-07-11T16:02:54Z</time>
      </trkpt>
      <trkpt lat="49.84898" lon="2.37729">
        <ele>30.6</ele>
        <time>2021-07-11T16:02:56Z</time>
      </trkpt>
      <trkpt lat="49.84898" lon="2.37729">
        <ele>30.6</ele>
        <time>2021-07-11T16:02:57Z</time>
      </trkpt>
      <trkpt lat="49.84898" lon="2.37729">
        <ele>30.6</ele>
        <time>2021-07-11T16:02:59Z</time>
      </trkpt>
      <trkpt lat="49.84898" lon="2.37729">
        <ele>30.6</ele>
        <time>2021-07-11T16:03:01Z</time>
      </trkpt>
      <trkpt lat="49.84898" lon="2.37729">
        <ele>30.6</ele>
        <time>2021-07-11T16:03:02Z</time>
      </trkpt>
      <trkpt lat="49.84898" lon="2.37729">
        <ele>30.6</ele>
        <time>2021-07-11T16:03:04Z</time>
      </trkpt>
      <trkpt lat="49.84898" lon="2.37729">
        <ele>30.6</ele>
        <time>2021-07-11T16:03:05Z</time>
      </trkpt>
      <trkpt lat="49.84898" lon="2.37729">
        <ele>30.6</ele>
        <time>2021-07-11T16:03:07Z</time>
      </trkpt>
      <trkpt lat="49.84898" lon="2.37729">
        <ele>30.6</ele>
        <time>2021-07-11T16:03:08Z</time>
      </trkpt>
      <trkpt lat="49.84898" lon="2.37729">
        <ele>30.6</ele>
        <time>2021-07-11T16:03:09Z</time>
      </trkpt>
      <trkpt lat="49.84898" lon="2.37729">
        <ele>30.6</ele>
        <time>2021-07-11T16:03:11Z</time>
      </trkpt>
      <trkpt lat="49.84898" lon="2.37729">
        <ele>30.6</ele>
        <time>2021-07-11T16:03:13Z</time>
      </trkpt>
      <trkpt lat="49.84898" lon="2.37729">
        <ele>30.6</ele>
        <time>2021-07-11T16:03:14Z</time>
      </trkpt>
      <trkpt lat="49.84898" lon="2.37729">
        <ele>30.6</ele>
        <time>2021-07-11T16:03:15Z</time>
      </trkpt>
      <trkpt lat="49.84898" lon="2.37729">
        <ele>30.6</ele>
        <time>2021-07-11T16:03:16Z</time>
      </trkpt>
      <trkpt lat="49.84898" lon="2.37729">
        <ele>30.6</ele>
        <time>2021-07-11T16:03:18Z</time>
      </trkpt>
      <trkpt lat="49.84898" lon="2.37729">
        <ele>30.6</ele>
        <time>2021-07-11T16:03:19Z</time>
      </trkpt>
      <trkpt lat="49.84898" lon="2.37729">
        <ele>30.6</ele>
        <time>2021-07-11T16:03:21Z</time>
      </trkpt>
      <trkpt lat="49.84898" lon="2.37729">
        <ele>30.6</ele>
        <time>2021-07-11T16:03:23Z</time>
      </trkpt>
      <trkpt lat="49.84898" lon="2.37729">
        <ele>30.6</ele>
        <time>2021-07-11T16:03:24Z</time>
      </trkpt>
      <trkpt lat="49.84898" lon="2.37729">
        <ele>30.6</ele>
        <time>2021-07-11T16:03:26Z</time>
      </trkpt>
      <trkpt lat="49.84898" lon="2.37729">
        <ele>30.6</ele>
        <time>2021-07-11T16:03:27Z</time>
      </trkpt>
      <trkpt lat="49.84898" lon="2.37729">
        <ele>30.6</ele>
        <time>2021-07-11T16:03:29Z</time>
      </trkpt>
      <trkpt lat="49.84898" lon="2.37729">
        <ele>30.6</ele>
        <time>2021-07-11T16:03:30Z</time>
      </trkpt>
      <trkpt lat="49.84898" lon="2.37729">
        <ele>30.6</ele>
        <time>2021-07-11T16:03:31Z</time>
      </trkpt>
      <trkpt lat="49.84898" lon="2.37729">
        <ele>30.6</ele>
        <time>2021-07-11T16:03:33Z</time>
      </trkpt>
      <trkpt lat="49.84898" lon="2.37729">
        <ele>30.6</ele>
        <time>2021-07-11T16:03:34Z</time>
      </trkpt>
      <trkpt lat="49.84898" lon="2.37729">
        <ele>30.6</ele>
        <time>2021-07-11T16:03:36Z</time>
      </trkpt>
      <trkpt lat="49.84898" lon="2.37729">
        <ele>30.6</ele>
        <time>2021-07-11T16:03:38Z</time>
      </trkpt>
      <trkpt lat="49.84898" lon="2.37729">
        <ele>30.6</ele>
        <time>2021-07-11T16:03:40Z</time>
      </trkpt>
      <trkpt lat="49.84898" lon="2.37729">
        <ele>30.6</ele>
        <time>2021-07-11T16:03:41Z</time>
      </trkpt>
      <trkpt lat="49.84898" lon="2.37729">
        <ele>30.6</ele>
        <time>2021-07-11T16:03:43Z</time>
      </trkpt>
      <trkpt lat="49.84898" lon="2.37729">
        <ele>30.6</ele>
        <time>2021-07-11T16:03:45Z</time>
      </trkpt>
      <trkpt lat="49.84898" lon="2.37729">
        <ele>30.6</ele>
        <time>2021-07-11T16:03:46Z</time>
      </trkpt>
      <trkpt lat="49.84898" lon="2.37729">
        <ele>30.6</ele>
        <time>2021-07-11T16:03:47Z</time>
      </trkpt>
    </trkseg>
  </trk>
</gpx>